<?xml version="1.0" encoding="UTF-8" standalone="no" ?>
<gpx xmlns="http://www.topografix.com/GPX/1/1" xmlns:xsi="http://www.w3.org/2001/XMLSchema-instance" xsi:schemaLocation="http://www.topografix.com/GPX/1/1 http://www.topografix.com/GPX/1/1/gpx.xsd" version="1.1" creator="VisuGPX - https://www.visugpx.com">
  <metadata>
    <name>Vtt du 27/06/2019 39.4°</name>
    <desc><![CDATA[VTT DU 27/06/2019 AVEC Philippe G., Fabrice, Pierrick et Elie.]]></desc>
  </metadata>
  <trk>
    <name><![CDATA[Vtt du 27/06/2019 39.4°]]></name>
    <desc><![CDATA[Philippe G Fabrice Pierrick et Elie]]></desc>
    <trkseg>
      <trkpt lat="43.95333" lon="1.86849">
        <ele>950</ele>
        <time>2019-06-27T17:03:54.000Z</time>
      </trkpt>
      <trkpt lat="43.95333" lon="1.86849">
        <ele>950</ele>
        <time>2019-06-27T17:03:55.000Z</time>
      </trkpt>
      <trkpt lat="43.95333" lon="1.86849">
        <ele>950</ele>
        <time>2019-06-27T17:03:56.000Z</time>
      </trkpt>
      <trkpt lat="43.95333" lon="1.86849">
        <ele>950</ele>
        <time>2019-06-27T17:03:57.000Z</time>
      </trkpt>
      <trkpt lat="43.95333" lon="1.86849">
        <ele>950</ele>
        <time>2019-06-27T17:03:58.000Z</time>
      </trkpt>
      <trkpt lat="43.95333" lon="1.86849">
        <ele>950</ele>
        <time>2019-06-27T17:03:59.000Z</time>
      </trkpt>
      <trkpt lat="43.95333" lon="1.86849">
        <ele>950</ele>
        <time>2019-06-27T17:04:00.000Z</time>
      </trkpt>
      <trkpt lat="43.95333" lon="1.86849">
        <ele>950</ele>
        <time>2019-06-27T17:04:01.000Z</time>
      </trkpt>
      <trkpt lat="43.95333" lon="1.86849">
        <ele>950</ele>
        <time>2019-06-27T17:04:02.000Z</time>
      </trkpt>
      <trkpt lat="43.95333" lon="1.86849">
        <ele>950</ele>
        <time>2019-06-27T17:04:03.000Z</time>
      </trkpt>
      <trkpt lat="43.95333" lon="1.86849">
        <ele>950</ele>
        <time>2019-06-27T17:04:04.000Z</time>
      </trkpt>
      <trkpt lat="43.95333" lon="1.86849">
        <ele>950.20001220703</ele>
        <time>2019-06-27T17:04:05.000Z</time>
      </trkpt>
      <trkpt lat="43.95333" lon="1.86849">
        <ele>950.20001220703</ele>
        <time>2019-06-27T17:04:06.000Z</time>
      </trkpt>
      <trkpt lat="43.95333" lon="1.86849">
        <ele>950.20001220703</ele>
        <time>2019-06-27T17:04:07.000Z</time>
      </trkpt>
      <trkpt lat="43.95333" lon="1.86849">
        <ele>950</ele>
        <time>2019-06-27T17:04:08.000Z</time>
      </trkpt>
      <trkpt lat="43.95333" lon="1.86849">
        <ele>950</ele>
        <time>2019-06-27T17:04:09.000Z</time>
      </trkpt>
      <trkpt lat="43.95333" lon="1.86849">
        <ele>950</ele>
        <time>2019-06-27T17:04:10.000Z</time>
      </trkpt>
      <trkpt lat="43.95333" lon="1.86849">
        <ele>950</ele>
        <time>2019-06-27T17:04:11.000Z</time>
      </trkpt>
      <trkpt lat="43.95333" lon="1.86849">
        <ele>950</ele>
        <time>2019-06-27T17:04:12.000Z</time>
      </trkpt>
      <trkpt lat="43.95333" lon="1.86849">
        <ele>950</ele>
        <time>2019-06-27T17:04:13.000Z</time>
      </trkpt>
      <trkpt lat="43.95333" lon="1.86849">
        <ele>950.20001220703</ele>
        <time>2019-06-27T17:04:14.000Z</time>
      </trkpt>
      <trkpt lat="43.95333" lon="1.86849">
        <ele>950</ele>
        <time>2019-06-27T17:04:15.000Z</time>
      </trkpt>
      <trkpt lat="43.95333" lon="1.86849">
        <ele>950</ele>
        <time>2019-06-27T17:04:16.000Z</time>
      </trkpt>
      <trkpt lat="43.95333" lon="1.86849">
        <ele>950</ele>
        <time>2019-06-27T17:04:17.000Z</time>
      </trkpt>
      <trkpt lat="43.95333" lon="1.86849">
        <ele>950.20001220703</ele>
        <time>2019-06-27T17:04:18.000Z</time>
      </trkpt>
      <trkpt lat="43.95333" lon="1.86849">
        <ele>950.20001220703</ele>
        <time>2019-06-27T17:04:19.000Z</time>
      </trkpt>
      <trkpt lat="43.95333" lon="1.86849">
        <ele>950.20001220703</ele>
        <time>2019-06-27T17:04:20.000Z</time>
      </trkpt>
      <trkpt lat="43.95333" lon="1.86849">
        <ele>950.20001220703</ele>
        <time>2019-06-27T17:04:21.000Z</time>
      </trkpt>
      <trkpt lat="43.95333" lon="1.86849">
        <ele>950.20001220703</ele>
        <time>2019-06-27T17:04:22.000Z</time>
      </trkpt>
      <trkpt lat="43.95331" lon="1.86849">
        <ele>950</ele>
        <time>2019-06-27T17:04:23.000Z</time>
      </trkpt>
      <trkpt lat="43.95331" lon="1.86849">
        <ele>950</ele>
        <time>2019-06-27T17:04:24.000Z</time>
      </trkpt>
      <trkpt lat="43.95331" lon="1.86849">
        <ele>950</ele>
        <time>2019-06-27T17:04:25.000Z</time>
      </trkpt>
      <trkpt lat="43.95331" lon="1.86849">
        <ele>950</ele>
        <time>2019-06-27T17:04:26.000Z</time>
      </trkpt>
      <trkpt lat="43.95331" lon="1.86849">
        <ele>950</ele>
        <time>2019-06-27T17:04:27.000Z</time>
      </trkpt>
      <trkpt lat="43.95331" lon="1.86849">
        <ele>950</ele>
        <time>2019-06-27T17:04:28.000Z</time>
      </trkpt>
      <trkpt lat="43.95331" lon="1.86849">
        <ele>950</ele>
        <time>2019-06-27T17:04:29.000Z</time>
      </trkpt>
      <trkpt lat="43.95331" lon="1.86849">
        <ele>950</ele>
        <time>2019-06-27T17:04:30.000Z</time>
      </trkpt>
      <trkpt lat="43.95331" lon="1.86849">
        <ele>950</ele>
        <time>2019-06-27T17:04:31.000Z</time>
      </trkpt>
      <trkpt lat="43.95331" lon="1.86849">
        <ele>950.20001220703</ele>
        <time>2019-06-27T17:04:32.000Z</time>
      </trkpt>
      <trkpt lat="43.95331" lon="1.86849">
        <ele>950</ele>
        <time>2019-06-27T17:04:33.000Z</time>
      </trkpt>
      <trkpt lat="43.95331" lon="1.86849">
        <ele>950</ele>
        <time>2019-06-27T17:04:34.000Z</time>
      </trkpt>
      <trkpt lat="43.95331" lon="1.86849">
        <ele>950</ele>
        <time>2019-06-27T17:04:35.000Z</time>
      </trkpt>
      <trkpt lat="43.95331" lon="1.86849">
        <ele>950</ele>
        <time>2019-06-27T17:04:36.000Z</time>
      </trkpt>
      <trkpt lat="43.95331" lon="1.86849">
        <ele>950</ele>
        <time>2019-06-27T17:04:37.000Z</time>
      </trkpt>
      <trkpt lat="43.95331" lon="1.86849">
        <ele>950</ele>
        <time>2019-06-27T17:04:38.000Z</time>
      </trkpt>
      <trkpt lat="43.95331" lon="1.86849">
        <ele>950</ele>
        <time>2019-06-27T17:04:39.000Z</time>
      </trkpt>
      <trkpt lat="43.95331" lon="1.86849">
        <ele>950</ele>
        <time>2019-06-27T17:04:40.000Z</time>
      </trkpt>
      <trkpt lat="43.95331" lon="1.86849">
        <ele>950</ele>
        <time>2019-06-27T17:04:41.000Z</time>
      </trkpt>
      <trkpt lat="43.95331" lon="1.86849">
        <ele>950.20001220703</ele>
        <time>2019-06-27T17:04:42.000Z</time>
      </trkpt>
      <trkpt lat="43.95331" lon="1.86849">
        <ele>950.20001220703</ele>
        <time>2019-06-27T17:04:43.000Z</time>
      </trkpt>
      <trkpt lat="43.95331" lon="1.86849">
        <ele>950</ele>
        <time>2019-06-27T17:04:44.000Z</time>
      </trkpt>
      <trkpt lat="43.95331" lon="1.86849">
        <ele>950</ele>
        <time>2019-06-27T17:04:45.000Z</time>
      </trkpt>
      <trkpt lat="43.95331" lon="1.86849">
        <ele>950</ele>
        <time>2019-06-27T17:04:46.000Z</time>
      </trkpt>
      <trkpt lat="43.95331" lon="1.86849">
        <ele>950.20001220703</ele>
        <time>2019-06-27T17:04:47.000Z</time>
      </trkpt>
      <trkpt lat="43.95331" lon="1.86849">
        <ele>950.20001220703</ele>
        <time>2019-06-27T17:04:48.000Z</time>
      </trkpt>
      <trkpt lat="43.95331" lon="1.86849">
        <ele>950</ele>
        <time>2019-06-27T17:04:49.000Z</time>
      </trkpt>
      <trkpt lat="43.95331" lon="1.86849">
        <ele>950</ele>
        <time>2019-06-27T17:04:50.000Z</time>
      </trkpt>
      <trkpt lat="43.95331" lon="1.86849">
        <ele>950</ele>
        <time>2019-06-27T17:04:51.000Z</time>
      </trkpt>
      <trkpt lat="43.95331" lon="1.86849">
        <ele>950</ele>
        <time>2019-06-27T17:04:52.000Z</time>
      </trkpt>
      <trkpt lat="43.95331" lon="1.86849">
        <ele>950</ele>
        <time>2019-06-27T17:04:53.000Z</time>
      </trkpt>
      <trkpt lat="43.95331" lon="1.86849">
        <ele>950</ele>
        <time>2019-06-27T17:04:54.000Z</time>
      </trkpt>
      <trkpt lat="43.95331" lon="1.86849">
        <ele>950</ele>
        <time>2019-06-27T17:04:55.000Z</time>
      </trkpt>
      <trkpt lat="43.95331" lon="1.86849">
        <ele>950</ele>
        <time>2019-06-27T17:04:56.000Z</time>
      </trkpt>
      <trkpt lat="43.95331" lon="1.86849">
        <ele>950</ele>
        <time>2019-06-27T17:04:57.000Z</time>
      </trkpt>
      <trkpt lat="43.95331" lon="1.86849">
        <ele>950</ele>
        <time>2019-06-27T17:04:58.000Z</time>
      </trkpt>
      <trkpt lat="43.95331" lon="1.86849">
        <ele>950</ele>
        <time>2019-06-27T17:04:59.000Z</time>
      </trkpt>
      <trkpt lat="43.95331" lon="1.86849">
        <ele>950</ele>
        <time>2019-06-27T17:05:00.000Z</time>
      </trkpt>
      <trkpt lat="43.95331" lon="1.86849">
        <ele>950</ele>
        <time>2019-06-27T17:05:01.000Z</time>
      </trkpt>
      <trkpt lat="43.95331" lon="1.86849">
        <ele>950</ele>
        <time>2019-06-27T17:05:02.000Z</time>
      </trkpt>
      <trkpt lat="43.95331" lon="1.86851">
        <ele>950.20001220703</ele>
        <time>2019-06-27T17:05:03.000Z</time>
      </trkpt>
      <trkpt lat="43.95331" lon="1.86851">
        <ele>950</ele>
        <time>2019-06-27T17:05:04.000Z</time>
      </trkpt>
      <trkpt lat="43.95331" lon="1.86851">
        <ele>950</ele>
        <time>2019-06-27T17:05:05.000Z</time>
      </trkpt>
      <trkpt lat="43.95331" lon="1.86851">
        <ele>950</ele>
        <time>2019-06-27T17:05:06.000Z</time>
      </trkpt>
      <trkpt lat="43.95331" lon="1.86851">
        <ele>950.20001220703</ele>
        <time>2019-06-27T17:05:07.000Z</time>
      </trkpt>
      <trkpt lat="43.95331" lon="1.86851">
        <ele>950.20001220703</ele>
        <time>2019-06-27T17:05:08.000Z</time>
      </trkpt>
      <trkpt lat="43.95331" lon="1.86851">
        <ele>950.20001220703</ele>
        <time>2019-06-27T17:05:09.000Z</time>
      </trkpt>
      <trkpt lat="43.95331" lon="1.86851">
        <ele>950</ele>
        <time>2019-06-27T17:05:10.000Z</time>
      </trkpt>
      <trkpt lat="43.95331" lon="1.86851">
        <ele>950</ele>
        <time>2019-06-27T17:05:11.000Z</time>
      </trkpt>
      <trkpt lat="43.95331" lon="1.86851">
        <ele>950</ele>
        <time>2019-06-27T17:05:12.000Z</time>
      </trkpt>
      <trkpt lat="43.95331" lon="1.86851">
        <ele>950</ele>
        <time>2019-06-27T17:05:13.000Z</time>
      </trkpt>
      <trkpt lat="43.95331" lon="1.86851">
        <ele>950</ele>
        <time>2019-06-27T17:05:14.000Z</time>
      </trkpt>
      <trkpt lat="43.95331" lon="1.86851">
        <ele>950.20001220703</ele>
        <time>2019-06-27T17:05:15.000Z</time>
      </trkpt>
      <trkpt lat="43.95331" lon="1.86851">
        <ele>950.20001220703</ele>
        <time>2019-06-27T17:05:16.000Z</time>
      </trkpt>
      <trkpt lat="43.95331" lon="1.86851">
        <ele>950.20001220703</ele>
        <time>2019-06-27T17:05:17.000Z</time>
      </trkpt>
      <trkpt lat="43.95331" lon="1.86851">
        <ele>950</ele>
        <time>2019-06-27T17:05:18.000Z</time>
      </trkpt>
      <trkpt lat="43.95331" lon="1.86851">
        <ele>950.20001220703</ele>
        <time>2019-06-27T17:05:19.000Z</time>
      </trkpt>
      <trkpt lat="43.95331" lon="1.86851">
        <ele>950.20001220703</ele>
        <time>2019-06-27T17:05:20.000Z</time>
      </trkpt>
      <trkpt lat="43.95331" lon="1.86851">
        <ele>950.20001220703</ele>
        <time>2019-06-27T17:05:21.000Z</time>
      </trkpt>
      <trkpt lat="43.95331" lon="1.86851">
        <ele>950.20001220703</ele>
        <time>2019-06-27T17:05:22.000Z</time>
      </trkpt>
      <trkpt lat="43.95331" lon="1.86851">
        <ele>950.20001220703</ele>
        <time>2019-06-27T17:05:23.000Z</time>
      </trkpt>
      <trkpt lat="43.95331" lon="1.86851">
        <ele>950.20001220703</ele>
        <time>2019-06-27T17:05:24.000Z</time>
      </trkpt>
      <trkpt lat="43.95331" lon="1.86851">
        <ele>950.20001220703</ele>
        <time>2019-06-27T17:05:25.000Z</time>
      </trkpt>
      <trkpt lat="43.95331" lon="1.86851">
        <ele>950.20001220703</ele>
        <time>2019-06-27T17:05:26.000Z</time>
      </trkpt>
      <trkpt lat="43.95331" lon="1.86851">
        <ele>950</ele>
        <time>2019-06-27T17:05:27.000Z</time>
      </trkpt>
      <trkpt lat="43.95331" lon="1.86851">
        <ele>950</ele>
        <time>2019-06-27T17:05:28.000Z</time>
      </trkpt>
      <trkpt lat="43.95331" lon="1.86851">
        <ele>950.20001220703</ele>
        <time>2019-06-27T17:05:29.000Z</time>
      </trkpt>
      <trkpt lat="43.95331" lon="1.86851">
        <ele>950.20001220703</ele>
        <time>2019-06-27T17:05:30.000Z</time>
      </trkpt>
      <trkpt lat="43.95331" lon="1.86851">
        <ele>950.20001220703</ele>
        <time>2019-06-27T17:05:31.000Z</time>
      </trkpt>
      <trkpt lat="43.95331" lon="1.86851">
        <ele>950</ele>
        <time>2019-06-27T17:05:32.000Z</time>
      </trkpt>
      <trkpt lat="43.95331" lon="1.86851">
        <ele>950.20001220703</ele>
        <time>2019-06-27T17:05:33.000Z</time>
      </trkpt>
      <trkpt lat="43.95331" lon="1.86851">
        <ele>950</ele>
        <time>2019-06-27T17:05:34.000Z</time>
      </trkpt>
      <trkpt lat="43.95331" lon="1.86851">
        <ele>950.20001220703</ele>
        <time>2019-06-27T17:05:35.000Z</time>
      </trkpt>
      <trkpt lat="43.95331" lon="1.86851">
        <ele>950</ele>
        <time>2019-06-27T17:05:36.000Z</time>
      </trkpt>
      <trkpt lat="43.95331" lon="1.86851">
        <ele>950</ele>
        <time>2019-06-27T17:05:37.000Z</time>
      </trkpt>
      <trkpt lat="43.95331" lon="1.86851">
        <ele>950.20001220703</ele>
        <time>2019-06-27T17:05:38.000Z</time>
      </trkpt>
      <trkpt lat="43.95331" lon="1.86851">
        <ele>950.20001220703</ele>
        <time>2019-06-27T17:05:39.000Z</time>
      </trkpt>
      <trkpt lat="43.95331" lon="1.86851">
        <ele>950.20001220703</ele>
        <time>2019-06-27T17:05:40.000Z</time>
      </trkpt>
      <trkpt lat="43.95331" lon="1.86851">
        <ele>950.20001220703</ele>
        <time>2019-06-27T17:05:41.000Z</time>
      </trkpt>
      <trkpt lat="43.95331" lon="1.86851">
        <ele>950.20001220703</ele>
        <time>2019-06-27T17:05:42.000Z</time>
      </trkpt>
      <trkpt lat="43.9533" lon="1.86851">
        <ele>950.20001220703</ele>
        <time>2019-06-27T17:05:43.000Z</time>
      </trkpt>
      <trkpt lat="43.9533" lon="1.86851">
        <ele>950.20001220703</ele>
        <time>2019-06-27T17:05:44.000Z</time>
      </trkpt>
      <trkpt lat="43.9533" lon="1.86851">
        <ele>950.20001220703</ele>
        <time>2019-06-27T17:05:45.000Z</time>
      </trkpt>
      <trkpt lat="43.9533" lon="1.86851">
        <ele>950.20001220703</ele>
        <time>2019-06-27T17:05:46.000Z</time>
      </trkpt>
      <trkpt lat="43.9533" lon="1.86851">
        <ele>950.20001220703</ele>
        <time>2019-06-27T17:05:47.000Z</time>
      </trkpt>
      <trkpt lat="43.9533" lon="1.86851">
        <ele>950</ele>
        <time>2019-06-27T17:05:48.000Z</time>
      </trkpt>
      <trkpt lat="43.9533" lon="1.86851">
        <ele>950</ele>
        <time>2019-06-27T17:05:49.000Z</time>
      </trkpt>
      <trkpt lat="43.9533" lon="1.86851">
        <ele>950</ele>
        <time>2019-06-27T17:05:50.000Z</time>
      </trkpt>
      <trkpt lat="43.95329" lon="1.86852">
        <ele>950</ele>
        <time>2019-06-27T17:05:51.000Z</time>
      </trkpt>
      <trkpt lat="43.95327" lon="1.86853">
        <ele>950</ele>
        <time>2019-06-27T17:05:52.000Z</time>
      </trkpt>
      <trkpt lat="43.95326" lon="1.86855">
        <ele>950</ele>
        <time>2019-06-27T17:05:53.000Z</time>
      </trkpt>
      <trkpt lat="43.95324" lon="1.86855">
        <ele>950.20001220703</ele>
        <time>2019-06-27T17:05:54.000Z</time>
      </trkpt>
      <trkpt lat="43.95323" lon="1.86856">
        <ele>950.20001220703</ele>
        <time>2019-06-27T17:05:55.000Z</time>
      </trkpt>
      <trkpt lat="43.95322" lon="1.86858">
        <ele>950.40002441406</ele>
        <time>2019-06-27T17:05:56.000Z</time>
      </trkpt>
      <trkpt lat="43.95321" lon="1.8686">
        <ele>950.40002441406</ele>
        <time>2019-06-27T17:05:57.000Z</time>
      </trkpt>
      <trkpt lat="43.9532" lon="1.86863">
        <ele>950.40002441406</ele>
        <time>2019-06-27T17:05:58.000Z</time>
      </trkpt>
      <trkpt lat="43.95319" lon="1.86865">
        <ele>950.40002441406</ele>
        <time>2019-06-27T17:05:59.000Z</time>
      </trkpt>
      <trkpt lat="43.95318" lon="1.86868">
        <ele>950.59997558594</ele>
        <time>2019-06-27T17:06:00.000Z</time>
      </trkpt>
      <trkpt lat="43.95316" lon="1.8687">
        <ele>950.59997558594</ele>
        <time>2019-06-27T17:06:01.000Z</time>
      </trkpt>
      <trkpt lat="43.95315" lon="1.86873">
        <ele>950.79998779297</ele>
        <time>2019-06-27T17:06:02.000Z</time>
      </trkpt>
      <trkpt lat="43.95314" lon="1.86876">
        <ele>950.79998779297</ele>
        <time>2019-06-27T17:06:03.000Z</time>
      </trkpt>
      <trkpt lat="43.95313" lon="1.86879">
        <ele>951</ele>
        <time>2019-06-27T17:06:04.000Z</time>
      </trkpt>
      <trkpt lat="43.95312" lon="1.86882">
        <ele>951.20001220703</ele>
        <time>2019-06-27T17:06:05.000Z</time>
      </trkpt>
      <trkpt lat="43.95312" lon="1.86884">
        <ele>951.59997558594</ele>
        <time>2019-06-27T17:06:06.000Z</time>
      </trkpt>
      <trkpt lat="43.95311" lon="1.86886">
        <ele>951.59997558594</ele>
        <time>2019-06-27T17:06:07.000Z</time>
      </trkpt>
      <trkpt lat="43.95311" lon="1.86888">
        <ele>951.59997558594</ele>
        <time>2019-06-27T17:06:08.000Z</time>
      </trkpt>
      <trkpt lat="43.95311" lon="1.8689">
        <ele>951.40002441406</ele>
        <time>2019-06-27T17:06:09.000Z</time>
      </trkpt>
      <trkpt lat="43.95311" lon="1.86893">
        <ele>951.40002441406</ele>
        <time>2019-06-27T17:06:10.000Z</time>
      </trkpt>
      <trkpt lat="43.95311" lon="1.86895">
        <ele>951.40002441406</ele>
        <time>2019-06-27T17:06:11.000Z</time>
      </trkpt>
      <trkpt lat="43.9531" lon="1.86898">
        <ele>951.40002441406</ele>
        <time>2019-06-27T17:06:12.000Z</time>
      </trkpt>
      <trkpt lat="43.9531" lon="1.869">
        <ele>951.59997558594</ele>
        <time>2019-06-27T17:06:13.000Z</time>
      </trkpt>
      <trkpt lat="43.95309" lon="1.86903">
        <ele>951.59997558594</ele>
        <time>2019-06-27T17:06:14.000Z</time>
      </trkpt>
      <trkpt lat="43.95308" lon="1.86906">
        <ele>951.40002441406</ele>
        <time>2019-06-27T17:06:15.000Z</time>
      </trkpt>
      <trkpt lat="43.95307" lon="1.86909">
        <ele>951.20001220703</ele>
        <time>2019-06-27T17:06:16.000Z</time>
      </trkpt>
      <trkpt lat="43.95307" lon="1.86911">
        <ele>951.20001220703</ele>
        <time>2019-06-27T17:06:17.000Z</time>
      </trkpt>
      <trkpt lat="43.95307" lon="1.86913">
        <ele>951.20001220703</ele>
        <time>2019-06-27T17:06:18.000Z</time>
      </trkpt>
      <trkpt lat="43.95308" lon="1.86915">
        <ele>951.40002441406</ele>
        <time>2019-06-27T17:06:19.000Z</time>
      </trkpt>
      <trkpt lat="43.95309" lon="1.86916">
        <ele>951.40002441406</ele>
        <time>2019-06-27T17:06:20.000Z</time>
      </trkpt>
      <trkpt lat="43.95311" lon="1.86918">
        <ele>951.40002441406</ele>
        <time>2019-06-27T17:06:21.000Z</time>
      </trkpt>
      <trkpt lat="43.95312" lon="1.86919">
        <ele>951.40002441406</ele>
        <time>2019-06-27T17:06:22.000Z</time>
      </trkpt>
      <trkpt lat="43.95313" lon="1.8692">
        <ele>951.40002441406</ele>
        <time>2019-06-27T17:06:23.000Z</time>
      </trkpt>
      <trkpt lat="43.95314" lon="1.86922">
        <ele>951.40002441406</ele>
        <time>2019-06-27T17:06:24.000Z</time>
      </trkpt>
      <trkpt lat="43.95315" lon="1.86924">
        <ele>951.40002441406</ele>
        <time>2019-06-27T17:06:25.000Z</time>
      </trkpt>
      <trkpt lat="43.95316" lon="1.86925">
        <ele>951.40002441406</ele>
        <time>2019-06-27T17:06:26.000Z</time>
      </trkpt>
      <trkpt lat="43.95318" lon="1.86927">
        <ele>951.40002441406</ele>
        <time>2019-06-27T17:06:27.000Z</time>
      </trkpt>
      <trkpt lat="43.95319" lon="1.86929">
        <ele>951.40002441406</ele>
        <time>2019-06-27T17:06:28.000Z</time>
      </trkpt>
      <trkpt lat="43.95321" lon="1.8693">
        <ele>951.59997558594</ele>
        <time>2019-06-27T17:06:29.000Z</time>
      </trkpt>
      <trkpt lat="43.95322" lon="1.86932">
        <ele>951.59997558594</ele>
        <time>2019-06-27T17:06:30.000Z</time>
      </trkpt>
      <trkpt lat="43.95323" lon="1.86934">
        <ele>951.59997558594</ele>
        <time>2019-06-27T17:06:31.000Z</time>
      </trkpt>
      <trkpt lat="43.95325" lon="1.86936">
        <ele>951.59997558594</ele>
        <time>2019-06-27T17:06:32.000Z</time>
      </trkpt>
      <trkpt lat="43.95327" lon="1.86937">
        <ele>951.79998779297</ele>
        <time>2019-06-27T17:06:33.000Z</time>
      </trkpt>
      <trkpt lat="43.95329" lon="1.86938">
        <ele>951.59997558594</ele>
        <time>2019-06-27T17:06:34.000Z</time>
      </trkpt>
      <trkpt lat="43.9533" lon="1.86939">
        <ele>951.79998779297</ele>
        <time>2019-06-27T17:06:35.000Z</time>
      </trkpt>
      <trkpt lat="43.95332" lon="1.86941">
        <ele>951.79998779297</ele>
        <time>2019-06-27T17:06:36.000Z</time>
      </trkpt>
      <trkpt lat="43.95333" lon="1.86943">
        <ele>951.79998779297</ele>
        <time>2019-06-27T17:06:37.000Z</time>
      </trkpt>
      <trkpt lat="43.95335" lon="1.86944">
        <ele>951.79998779297</ele>
        <time>2019-06-27T17:06:38.000Z</time>
      </trkpt>
      <trkpt lat="43.95336" lon="1.86946">
        <ele>952</ele>
        <time>2019-06-27T17:06:39.000Z</time>
      </trkpt>
      <trkpt lat="43.95337" lon="1.86946">
        <ele>951.79998779297</ele>
        <time>2019-06-27T17:06:40.000Z</time>
      </trkpt>
      <trkpt lat="43.95337" lon="1.86946">
        <ele>951.79998779297</ele>
        <time>2019-06-27T17:06:41.000Z</time>
      </trkpt>
      <trkpt lat="43.95338" lon="1.86946">
        <ele>951.79998779297</ele>
        <time>2019-06-27T17:06:42.000Z</time>
      </trkpt>
      <trkpt lat="43.95338" lon="1.86946">
        <ele>951.79998779297</ele>
        <time>2019-06-27T17:06:43.000Z</time>
      </trkpt>
      <trkpt lat="43.95338" lon="1.86946">
        <ele>951.79998779297</ele>
        <time>2019-06-27T17:06:44.000Z</time>
      </trkpt>
      <trkpt lat="43.95338" lon="1.86946">
        <ele>951.79998779297</ele>
        <time>2019-06-27T17:06:45.000Z</time>
      </trkpt>
      <trkpt lat="43.95338" lon="1.86946">
        <ele>951.79998779297</ele>
        <time>2019-06-27T17:06:46.000Z</time>
      </trkpt>
      <trkpt lat="43.95338" lon="1.86946">
        <ele>951.79998779297</ele>
        <time>2019-06-27T17:06:47.000Z</time>
      </trkpt>
      <trkpt lat="43.95338" lon="1.86946">
        <ele>951.79998779297</ele>
        <time>2019-06-27T17:06:48.000Z</time>
      </trkpt>
      <trkpt lat="43.95338" lon="1.86946">
        <ele>951.59997558594</ele>
        <time>2019-06-27T17:06:49.000Z</time>
      </trkpt>
      <trkpt lat="43.95338" lon="1.86946">
        <ele>951.59997558594</ele>
        <time>2019-06-27T17:06:50.000Z</time>
      </trkpt>
      <trkpt lat="43.95338" lon="1.86946">
        <ele>951.59997558594</ele>
        <time>2019-06-27T17:06:51.000Z</time>
      </trkpt>
      <trkpt lat="43.95338" lon="1.86946">
        <ele>951.79998779297</ele>
        <time>2019-06-27T17:06:52.000Z</time>
      </trkpt>
      <trkpt lat="43.95338" lon="1.86946">
        <ele>951.79998779297</ele>
        <time>2019-06-27T17:06:53.000Z</time>
      </trkpt>
      <trkpt lat="43.95338" lon="1.86946">
        <ele>951.79998779297</ele>
        <time>2019-06-27T17:06:54.000Z</time>
      </trkpt>
      <trkpt lat="43.95338" lon="1.86946">
        <ele>951.79998779297</ele>
        <time>2019-06-27T17:06:55.000Z</time>
      </trkpt>
      <trkpt lat="43.95338" lon="1.86946">
        <ele>951.79998779297</ele>
        <time>2019-06-27T17:06:56.000Z</time>
      </trkpt>
      <trkpt lat="43.95338" lon="1.86946">
        <ele>951.79998779297</ele>
        <time>2019-06-27T17:06:57.000Z</time>
      </trkpt>
      <trkpt lat="43.95338" lon="1.86948">
        <ele>951.59997558594</ele>
        <time>2019-06-27T17:06:58.000Z</time>
      </trkpt>
      <trkpt lat="43.95339" lon="1.86949">
        <ele>951.79998779297</ele>
        <time>2019-06-27T17:06:59.000Z</time>
      </trkpt>
      <trkpt lat="43.9534" lon="1.86951">
        <ele>951.79998779297</ele>
        <time>2019-06-27T17:07:00.000Z</time>
      </trkpt>
      <trkpt lat="43.95342" lon="1.86952">
        <ele>951.79998779297</ele>
        <time>2019-06-27T17:07:01.000Z</time>
      </trkpt>
      <trkpt lat="43.95343" lon="1.86953">
        <ele>952</ele>
        <time>2019-06-27T17:07:02.000Z</time>
      </trkpt>
      <trkpt lat="43.95345" lon="1.86954">
        <ele>952</ele>
        <time>2019-06-27T17:07:03.000Z</time>
      </trkpt>
      <trkpt lat="43.95347" lon="1.86956">
        <ele>952</ele>
        <time>2019-06-27T17:07:04.000Z</time>
      </trkpt>
      <trkpt lat="43.95348" lon="1.86958">
        <ele>952</ele>
        <time>2019-06-27T17:07:05.000Z</time>
      </trkpt>
      <trkpt lat="43.9535" lon="1.8696">
        <ele>952</ele>
        <time>2019-06-27T17:07:06.000Z</time>
      </trkpt>
      <trkpt lat="43.95352" lon="1.86961">
        <ele>952.20001220703</ele>
        <time>2019-06-27T17:07:07.000Z</time>
      </trkpt>
      <trkpt lat="43.95354" lon="1.86963">
        <ele>952</ele>
        <time>2019-06-27T17:07:08.000Z</time>
      </trkpt>
      <trkpt lat="43.95356" lon="1.86965">
        <ele>952</ele>
        <time>2019-06-27T17:07:09.000Z</time>
      </trkpt>
      <trkpt lat="43.95358" lon="1.86967">
        <ele>952</ele>
        <time>2019-06-27T17:07:10.000Z</time>
      </trkpt>
      <trkpt lat="43.9536" lon="1.86969">
        <ele>952.20001220703</ele>
        <time>2019-06-27T17:07:11.000Z</time>
      </trkpt>
      <trkpt lat="43.95362" lon="1.86972">
        <ele>952.20001220703</ele>
        <time>2019-06-27T17:07:12.000Z</time>
      </trkpt>
      <trkpt lat="43.95365" lon="1.86974">
        <ele>952.20001220703</ele>
        <time>2019-06-27T17:07:13.000Z</time>
      </trkpt>
      <trkpt lat="43.95367" lon="1.86975">
        <ele>952.20001220703</ele>
        <time>2019-06-27T17:07:14.000Z</time>
      </trkpt>
      <trkpt lat="43.95369" lon="1.86978">
        <ele>952.20001220703</ele>
        <time>2019-06-27T17:07:15.000Z</time>
      </trkpt>
      <trkpt lat="43.95371" lon="1.8698">
        <ele>952.20001220703</ele>
        <time>2019-06-27T17:07:16.000Z</time>
      </trkpt>
      <trkpt lat="43.95374" lon="1.86982">
        <ele>952.20001220703</ele>
        <time>2019-06-27T17:07:17.000Z</time>
      </trkpt>
      <trkpt lat="43.95376" lon="1.86984">
        <ele>952.40002441406</ele>
        <time>2019-06-27T17:07:18.000Z</time>
      </trkpt>
      <trkpt lat="43.95378" lon="1.86986">
        <ele>952.40002441406</ele>
        <time>2019-06-27T17:07:19.000Z</time>
      </trkpt>
      <trkpt lat="43.95381" lon="1.86988">
        <ele>952.59997558594</ele>
        <time>2019-06-27T17:07:20.000Z</time>
      </trkpt>
      <trkpt lat="43.95383" lon="1.8699">
        <ele>952.59997558594</ele>
        <time>2019-06-27T17:07:21.000Z</time>
      </trkpt>
      <trkpt lat="43.95386" lon="1.86993">
        <ele>952.59997558594</ele>
        <time>2019-06-27T17:07:22.000Z</time>
      </trkpt>
      <trkpt lat="43.95388" lon="1.86995">
        <ele>952.59997558594</ele>
        <time>2019-06-27T17:07:23.000Z</time>
      </trkpt>
      <trkpt lat="43.95391" lon="1.86997">
        <ele>952.59997558594</ele>
        <time>2019-06-27T17:07:24.000Z</time>
      </trkpt>
      <trkpt lat="43.95393" lon="1.87">
        <ele>952.79998779297</ele>
        <time>2019-06-27T17:07:25.000Z</time>
      </trkpt>
      <trkpt lat="43.95395" lon="1.87002">
        <ele>952.59997558594</ele>
        <time>2019-06-27T17:07:26.000Z</time>
      </trkpt>
      <trkpt lat="43.95397" lon="1.87003">
        <ele>952.59997558594</ele>
        <time>2019-06-27T17:07:27.000Z</time>
      </trkpt>
      <trkpt lat="43.954" lon="1.87005">
        <ele>952.40002441406</ele>
        <time>2019-06-27T17:07:28.000Z</time>
      </trkpt>
      <trkpt lat="43.95402" lon="1.87007">
        <ele>952.59997558594</ele>
        <time>2019-06-27T17:07:29.000Z</time>
      </trkpt>
      <trkpt lat="43.95404" lon="1.87009">
        <ele>952.59997558594</ele>
        <time>2019-06-27T17:07:30.000Z</time>
      </trkpt>
      <trkpt lat="43.95406" lon="1.87012">
        <ele>952.79998779297</ele>
        <time>2019-06-27T17:07:31.000Z</time>
      </trkpt>
      <trkpt lat="43.95408" lon="1.87014">
        <ele>952.79998779297</ele>
        <time>2019-06-27T17:07:32.000Z</time>
      </trkpt>
      <trkpt lat="43.95411" lon="1.87016">
        <ele>953</ele>
        <time>2019-06-27T17:07:33.000Z</time>
      </trkpt>
      <trkpt lat="43.95413" lon="1.87019">
        <ele>953</ele>
        <time>2019-06-27T17:07:34.000Z</time>
      </trkpt>
      <trkpt lat="43.95415" lon="1.87023">
        <ele>953</ele>
        <time>2019-06-27T17:07:35.000Z</time>
      </trkpt>
      <trkpt lat="43.95417" lon="1.87026">
        <ele>953</ele>
        <time>2019-06-27T17:07:36.000Z</time>
      </trkpt>
      <trkpt lat="43.95418" lon="1.8703">
        <ele>952.79998779297</ele>
        <time>2019-06-27T17:07:37.000Z</time>
      </trkpt>
      <trkpt lat="43.95419" lon="1.87034">
        <ele>952.79998779297</ele>
        <time>2019-06-27T17:07:38.000Z</time>
      </trkpt>
      <trkpt lat="43.95419" lon="1.87038">
        <ele>953</ele>
        <time>2019-06-27T17:07:39.000Z</time>
      </trkpt>
      <trkpt lat="43.95419" lon="1.87042">
        <ele>953.20001220703</ele>
        <time>2019-06-27T17:07:40.000Z</time>
      </trkpt>
      <trkpt lat="43.95419" lon="1.87046">
        <ele>953.40002441406</ele>
        <time>2019-06-27T17:07:41.000Z</time>
      </trkpt>
      <trkpt lat="43.95419" lon="1.8705">
        <ele>953.40002441406</ele>
        <time>2019-06-27T17:07:42.000Z</time>
      </trkpt>
      <trkpt lat="43.95418" lon="1.87055">
        <ele>953.59997558594</ele>
        <time>2019-06-27T17:07:43.000Z</time>
      </trkpt>
      <trkpt lat="43.95417" lon="1.87059">
        <ele>953.79998779297</ele>
        <time>2019-06-27T17:07:44.000Z</time>
      </trkpt>
      <trkpt lat="43.95416" lon="1.87063">
        <ele>954</ele>
        <time>2019-06-27T17:07:45.000Z</time>
      </trkpt>
      <trkpt lat="43.95415" lon="1.87068">
        <ele>954</ele>
        <time>2019-06-27T17:07:46.000Z</time>
      </trkpt>
      <trkpt lat="43.95414" lon="1.87072">
        <ele>954.20001220703</ele>
        <time>2019-06-27T17:07:47.000Z</time>
      </trkpt>
      <trkpt lat="43.95413" lon="1.87076">
        <ele>954.20001220703</ele>
        <time>2019-06-27T17:07:48.000Z</time>
      </trkpt>
      <trkpt lat="43.95412" lon="1.8708">
        <ele>954.40002441406</ele>
        <time>2019-06-27T17:07:49.000Z</time>
      </trkpt>
      <trkpt lat="43.95411" lon="1.87084">
        <ele>954.40002441406</ele>
        <time>2019-06-27T17:07:50.000Z</time>
      </trkpt>
      <trkpt lat="43.9541" lon="1.87088">
        <ele>954.59997558594</ele>
        <time>2019-06-27T17:07:51.000Z</time>
      </trkpt>
      <trkpt lat="43.9541" lon="1.87092">
        <ele>954.59997558594</ele>
        <time>2019-06-27T17:07:52.000Z</time>
      </trkpt>
      <trkpt lat="43.95409" lon="1.87095">
        <ele>954.79998779297</ele>
        <time>2019-06-27T17:07:53.000Z</time>
      </trkpt>
      <trkpt lat="43.95408" lon="1.87099">
        <ele>954.79998779297</ele>
        <time>2019-06-27T17:07:54.000Z</time>
      </trkpt>
      <trkpt lat="43.95407" lon="1.87103">
        <ele>954.79998779297</ele>
        <time>2019-06-27T17:07:55.000Z</time>
      </trkpt>
      <trkpt lat="43.95406" lon="1.87108">
        <ele>955</ele>
        <time>2019-06-27T17:07:56.000Z</time>
      </trkpt>
      <trkpt lat="43.95405" lon="1.87112">
        <ele>955.20001220703</ele>
        <time>2019-06-27T17:07:57.000Z</time>
      </trkpt>
      <trkpt lat="43.95405" lon="1.87116">
        <ele>955.40002441406</ele>
        <time>2019-06-27T17:07:58.000Z</time>
      </trkpt>
      <trkpt lat="43.95404" lon="1.8712">
        <ele>955.40002441406</ele>
        <time>2019-06-27T17:07:59.000Z</time>
      </trkpt>
      <trkpt lat="43.95403" lon="1.87124">
        <ele>955.59997558594</ele>
        <time>2019-06-27T17:08:00.000Z</time>
      </trkpt>
      <trkpt lat="43.95402" lon="1.87128">
        <ele>955.59997558594</ele>
        <time>2019-06-27T17:08:01.000Z</time>
      </trkpt>
      <trkpt lat="43.95401" lon="1.87132">
        <ele>955.79998779297</ele>
        <time>2019-06-27T17:08:02.000Z</time>
      </trkpt>
      <trkpt lat="43.954" lon="1.87136">
        <ele>955.79998779297</ele>
        <time>2019-06-27T17:08:03.000Z</time>
      </trkpt>
      <trkpt lat="43.954" lon="1.87141">
        <ele>956</ele>
        <time>2019-06-27T17:08:04.000Z</time>
      </trkpt>
      <trkpt lat="43.95399" lon="1.87145">
        <ele>956.20001220703</ele>
        <time>2019-06-27T17:08:05.000Z</time>
      </trkpt>
      <trkpt lat="43.95398" lon="1.87149">
        <ele>956.40002441406</ele>
        <time>2019-06-27T17:08:06.000Z</time>
      </trkpt>
      <trkpt lat="43.95397" lon="1.87153">
        <ele>956.40002441406</ele>
        <time>2019-06-27T17:08:07.000Z</time>
      </trkpt>
      <trkpt lat="43.95396" lon="1.87158">
        <ele>956.59997558594</ele>
        <time>2019-06-27T17:08:08.000Z</time>
      </trkpt>
      <trkpt lat="43.95395" lon="1.87162">
        <ele>956.59997558594</ele>
        <time>2019-06-27T17:08:09.000Z</time>
      </trkpt>
      <trkpt lat="43.95394" lon="1.87166">
        <ele>956.59997558594</ele>
        <time>2019-06-27T17:08:10.000Z</time>
      </trkpt>
      <trkpt lat="43.95393" lon="1.87171">
        <ele>956.40002441406</ele>
        <time>2019-06-27T17:08:11.000Z</time>
      </trkpt>
      <trkpt lat="43.95392" lon="1.87175">
        <ele>956.59997558594</ele>
        <time>2019-06-27T17:08:12.000Z</time>
      </trkpt>
      <trkpt lat="43.95391" lon="1.87179">
        <ele>956.59997558594</ele>
        <time>2019-06-27T17:08:13.000Z</time>
      </trkpt>
      <trkpt lat="43.9539" lon="1.87184">
        <ele>957</ele>
        <time>2019-06-27T17:08:14.000Z</time>
      </trkpt>
      <trkpt lat="43.9539" lon="1.87188">
        <ele>957</ele>
        <time>2019-06-27T17:08:15.000Z</time>
      </trkpt>
      <trkpt lat="43.95389" lon="1.87192">
        <ele>957</ele>
        <time>2019-06-27T17:08:16.000Z</time>
      </trkpt>
      <trkpt lat="43.95388" lon="1.87196">
        <ele>957.20001220703</ele>
        <time>2019-06-27T17:08:17.000Z</time>
      </trkpt>
      <trkpt lat="43.95387" lon="1.87201">
        <ele>957.40002441406</ele>
        <time>2019-06-27T17:08:18.000Z</time>
      </trkpt>
      <trkpt lat="43.95386" lon="1.87205">
        <ele>957.59997558594</ele>
        <time>2019-06-27T17:08:19.000Z</time>
      </trkpt>
      <trkpt lat="43.95385" lon="1.87209">
        <ele>957.59997558594</ele>
        <time>2019-06-27T17:08:20.000Z</time>
      </trkpt>
      <trkpt lat="43.95384" lon="1.87213">
        <ele>957.59997558594</ele>
        <time>2019-06-27T17:08:21.000Z</time>
      </trkpt>
      <trkpt lat="43.95383" lon="1.87217">
        <ele>957.59997558594</ele>
        <time>2019-06-27T17:08:22.000Z</time>
      </trkpt>
      <trkpt lat="43.95382" lon="1.87221">
        <ele>957.59997558594</ele>
        <time>2019-06-27T17:08:23.000Z</time>
      </trkpt>
      <trkpt lat="43.95382" lon="1.87225">
        <ele>957.79998779297</ele>
        <time>2019-06-27T17:08:24.000Z</time>
      </trkpt>
      <trkpt lat="43.95381" lon="1.87228">
        <ele>957.79998779297</ele>
        <time>2019-06-27T17:08:25.000Z</time>
      </trkpt>
      <trkpt lat="43.9538" lon="1.87233">
        <ele>957.79998779297</ele>
        <time>2019-06-27T17:08:26.000Z</time>
      </trkpt>
      <trkpt lat="43.95379" lon="1.87236">
        <ele>958</ele>
        <time>2019-06-27T17:08:27.000Z</time>
      </trkpt>
      <trkpt lat="43.95379" lon="1.8724">
        <ele>958</ele>
        <time>2019-06-27T17:08:28.000Z</time>
      </trkpt>
      <trkpt lat="43.95378" lon="1.87244">
        <ele>958.20001220703</ele>
        <time>2019-06-27T17:08:29.000Z</time>
      </trkpt>
      <trkpt lat="43.95377" lon="1.87248">
        <ele>958.20001220703</ele>
        <time>2019-06-27T17:08:30.000Z</time>
      </trkpt>
      <trkpt lat="43.95376" lon="1.87252">
        <ele>958.40002441406</ele>
        <time>2019-06-27T17:08:31.000Z</time>
      </trkpt>
      <trkpt lat="43.95376" lon="1.87256">
        <ele>958.40002441406</ele>
        <time>2019-06-27T17:08:32.000Z</time>
      </trkpt>
      <trkpt lat="43.95375" lon="1.87261">
        <ele>958.59997558594</ele>
        <time>2019-06-27T17:08:33.000Z</time>
      </trkpt>
      <trkpt lat="43.95374" lon="1.87264">
        <ele>958.79998779297</ele>
        <time>2019-06-27T17:08:34.000Z</time>
      </trkpt>
      <trkpt lat="43.95373" lon="1.87269">
        <ele>958.79998779297</ele>
        <time>2019-06-27T17:08:35.000Z</time>
      </trkpt>
      <trkpt lat="43.95373" lon="1.87273">
        <ele>958.79998779297</ele>
        <time>2019-06-27T17:08:36.000Z</time>
      </trkpt>
      <trkpt lat="43.95371" lon="1.87277">
        <ele>959</ele>
        <time>2019-06-27T17:08:37.000Z</time>
      </trkpt>
      <trkpt lat="43.9537" lon="1.87281">
        <ele>959.20001220703</ele>
        <time>2019-06-27T17:08:38.000Z</time>
      </trkpt>
      <trkpt lat="43.95369" lon="1.87284">
        <ele>959.40002441406</ele>
        <time>2019-06-27T17:08:39.000Z</time>
      </trkpt>
      <trkpt lat="43.95367" lon="1.87288">
        <ele>959.40002441406</ele>
        <time>2019-06-27T17:08:40.000Z</time>
      </trkpt>
      <trkpt lat="43.95365" lon="1.8729">
        <ele>959.40002441406</ele>
        <time>2019-06-27T17:08:41.000Z</time>
      </trkpt>
      <trkpt lat="43.95363" lon="1.87292">
        <ele>959.40002441406</ele>
        <time>2019-06-27T17:08:42.000Z</time>
      </trkpt>
      <trkpt lat="43.9536" lon="1.87293">
        <ele>959.40002441406</ele>
        <time>2019-06-27T17:08:43.000Z</time>
      </trkpt>
      <trkpt lat="43.95357" lon="1.87292">
        <ele>959.20001220703</ele>
        <time>2019-06-27T17:08:44.000Z</time>
      </trkpt>
      <trkpt lat="43.95354" lon="1.87291">
        <ele>959.20001220703</ele>
        <time>2019-06-27T17:08:45.000Z</time>
      </trkpt>
      <trkpt lat="43.95351" lon="1.87289">
        <ele>959.20001220703</ele>
        <time>2019-06-27T17:08:46.000Z</time>
      </trkpt>
      <trkpt lat="43.95348" lon="1.87287">
        <ele>959.20001220703</ele>
        <time>2019-06-27T17:08:47.000Z</time>
      </trkpt>
      <trkpt lat="43.95345" lon="1.87286">
        <ele>959.20001220703</ele>
        <time>2019-06-27T17:08:48.000Z</time>
      </trkpt>
      <trkpt lat="43.95342" lon="1.87285">
        <ele>959.20001220703</ele>
        <time>2019-06-27T17:08:49.000Z</time>
      </trkpt>
      <trkpt lat="43.95339" lon="1.87284">
        <ele>959</ele>
        <time>2019-06-27T17:08:50.000Z</time>
      </trkpt>
      <trkpt lat="43.95336" lon="1.87284">
        <ele>959</ele>
        <time>2019-06-27T17:08:51.000Z</time>
      </trkpt>
      <trkpt lat="43.95333" lon="1.87283">
        <ele>959</ele>
        <time>2019-06-27T17:08:52.000Z</time>
      </trkpt>
      <trkpt lat="43.9533" lon="1.87282">
        <ele>958.79998779297</ele>
        <time>2019-06-27T17:08:53.000Z</time>
      </trkpt>
      <trkpt lat="43.95328" lon="1.87281">
        <ele>958.59997558594</ele>
        <time>2019-06-27T17:08:54.000Z</time>
      </trkpt>
      <trkpt lat="43.95325" lon="1.8728">
        <ele>958.40002441406</ele>
        <time>2019-06-27T17:08:55.000Z</time>
      </trkpt>
      <trkpt lat="43.95322" lon="1.87279">
        <ele>958.40002441406</ele>
        <time>2019-06-27T17:08:56.000Z</time>
      </trkpt>
      <trkpt lat="43.95319" lon="1.87277">
        <ele>958.40002441406</ele>
        <time>2019-06-27T17:08:57.000Z</time>
      </trkpt>
      <trkpt lat="43.95316" lon="1.87276">
        <ele>958.40002441406</ele>
        <time>2019-06-27T17:08:58.000Z</time>
      </trkpt>
      <trkpt lat="43.95314" lon="1.87275">
        <ele>958.40002441406</ele>
        <time>2019-06-27T17:08:59.000Z</time>
      </trkpt>
      <trkpt lat="43.9531" lon="1.87273">
        <ele>958.20001220703</ele>
        <time>2019-06-27T17:09:00.000Z</time>
      </trkpt>
      <trkpt lat="43.95307" lon="1.87272">
        <ele>958.20001220703</ele>
        <time>2019-06-27T17:09:01.000Z</time>
      </trkpt>
      <trkpt lat="43.95304" lon="1.8727">
        <ele>958.20001220703</ele>
        <time>2019-06-27T17:09:02.000Z</time>
      </trkpt>
      <trkpt lat="43.95301" lon="1.87269">
        <ele>958.20001220703</ele>
        <time>2019-06-27T17:09:03.000Z</time>
      </trkpt>
      <trkpt lat="43.95297" lon="1.87267">
        <ele>958</ele>
        <time>2019-06-27T17:09:04.000Z</time>
      </trkpt>
      <trkpt lat="43.95294" lon="1.87266">
        <ele>958</ele>
        <time>2019-06-27T17:09:05.000Z</time>
      </trkpt>
      <trkpt lat="43.9529" lon="1.87265">
        <ele>958</ele>
        <time>2019-06-27T17:09:06.000Z</time>
      </trkpt>
      <trkpt lat="43.95286" lon="1.87265">
        <ele>958</ele>
        <time>2019-06-27T17:09:07.000Z</time>
      </trkpt>
      <trkpt lat="43.95282" lon="1.87267">
        <ele>957.79998779297</ele>
        <time>2019-06-27T17:09:08.000Z</time>
      </trkpt>
      <trkpt lat="43.95278" lon="1.8727">
        <ele>957.79998779297</ele>
        <time>2019-06-27T17:09:09.000Z</time>
      </trkpt>
      <trkpt lat="43.95274" lon="1.87274">
        <ele>957.59997558594</ele>
        <time>2019-06-27T17:09:10.000Z</time>
      </trkpt>
      <trkpt lat="43.9527" lon="1.87278">
        <ele>957.40002441406</ele>
        <time>2019-06-27T17:09:11.000Z</time>
      </trkpt>
      <trkpt lat="43.95266" lon="1.87283">
        <ele>957</ele>
        <time>2019-06-27T17:09:12.000Z</time>
      </trkpt>
      <trkpt lat="43.95261" lon="1.87289">
        <ele>956.59997558594</ele>
        <time>2019-06-27T17:09:13.000Z</time>
      </trkpt>
      <trkpt lat="43.95256" lon="1.87295">
        <ele>955.79998779297</ele>
        <time>2019-06-27T17:09:14.000Z</time>
      </trkpt>
      <trkpt lat="43.95252" lon="1.87301">
        <ele>955.20001220703</ele>
        <time>2019-06-27T17:09:15.000Z</time>
      </trkpt>
      <trkpt lat="43.95247" lon="1.87307">
        <ele>954.59997558594</ele>
        <time>2019-06-27T17:09:16.000Z</time>
      </trkpt>
      <trkpt lat="43.95243" lon="1.87313">
        <ele>953.59997558594</ele>
        <time>2019-06-27T17:09:17.000Z</time>
      </trkpt>
      <trkpt lat="43.95239" lon="1.87318">
        <ele>953</ele>
        <time>2019-06-27T17:09:18.000Z</time>
      </trkpt>
      <trkpt lat="43.95234" lon="1.87321">
        <ele>952.20001220703</ele>
        <time>2019-06-27T17:09:19.000Z</time>
      </trkpt>
      <trkpt lat="43.9523" lon="1.87323">
        <ele>951.79998779297</ele>
        <time>2019-06-27T17:09:20.000Z</time>
      </trkpt>
      <trkpt lat="43.95225" lon="1.87322">
        <ele>951.40002441406</ele>
        <time>2019-06-27T17:09:21.000Z</time>
      </trkpt>
      <trkpt lat="43.9522" lon="1.87319">
        <ele>951.20001220703</ele>
        <time>2019-06-27T17:09:22.000Z</time>
      </trkpt>
      <trkpt lat="43.95215" lon="1.87315">
        <ele>950.59997558594</ele>
        <time>2019-06-27T17:09:23.000Z</time>
      </trkpt>
      <trkpt lat="43.9521" lon="1.8731">
        <ele>950.20001220703</ele>
        <time>2019-06-27T17:09:24.000Z</time>
      </trkpt>
      <trkpt lat="43.95205" lon="1.87306">
        <ele>949.59997558594</ele>
        <time>2019-06-27T17:09:25.000Z</time>
      </trkpt>
      <trkpt lat="43.952" lon="1.87302">
        <ele>949.20001220703</ele>
        <time>2019-06-27T17:09:26.000Z</time>
      </trkpt>
      <trkpt lat="43.95195" lon="1.873">
        <ele>948.59997558594</ele>
        <time>2019-06-27T17:09:27.000Z</time>
      </trkpt>
      <trkpt lat="43.95189" lon="1.87299">
        <ele>948.20001220703</ele>
        <time>2019-06-27T17:09:28.000Z</time>
      </trkpt>
      <trkpt lat="43.95183" lon="1.87299">
        <ele>947.40002441406</ele>
        <time>2019-06-27T17:09:29.000Z</time>
      </trkpt>
      <trkpt lat="43.95177" lon="1.873">
        <ele>946.79998779297</ele>
        <time>2019-06-27T17:09:30.000Z</time>
      </trkpt>
      <trkpt lat="43.95172" lon="1.87302">
        <ele>946</ele>
        <time>2019-06-27T17:09:31.000Z</time>
      </trkpt>
      <trkpt lat="43.95166" lon="1.87304">
        <ele>945.40002441406</ele>
        <time>2019-06-27T17:09:32.000Z</time>
      </trkpt>
      <trkpt lat="43.95161" lon="1.87307">
        <ele>944.79998779297</ele>
        <time>2019-06-27T17:09:33.000Z</time>
      </trkpt>
      <trkpt lat="43.95156" lon="1.87311">
        <ele>944</ele>
        <time>2019-06-27T17:09:34.000Z</time>
      </trkpt>
      <trkpt lat="43.95152" lon="1.87314">
        <ele>943.40002441406</ele>
        <time>2019-06-27T17:09:35.000Z</time>
      </trkpt>
      <trkpt lat="43.95148" lon="1.87317">
        <ele>942.79998779297</ele>
        <time>2019-06-27T17:09:36.000Z</time>
      </trkpt>
      <trkpt lat="43.95143" lon="1.8732">
        <ele>942.20001220703</ele>
        <time>2019-06-27T17:09:37.000Z</time>
      </trkpt>
      <trkpt lat="43.95139" lon="1.87322">
        <ele>941.79998779297</ele>
        <time>2019-06-27T17:09:38.000Z</time>
      </trkpt>
      <trkpt lat="43.95135" lon="1.87324">
        <ele>941.59997558594</ele>
        <time>2019-06-27T17:09:39.000Z</time>
      </trkpt>
      <trkpt lat="43.95131" lon="1.87326">
        <ele>941.20001220703</ele>
        <time>2019-06-27T17:09:40.000Z</time>
      </trkpt>
      <trkpt lat="43.95127" lon="1.87328">
        <ele>940.79998779297</ele>
        <time>2019-06-27T17:09:41.000Z</time>
      </trkpt>
      <trkpt lat="43.95123" lon="1.87331">
        <ele>940.59997558594</ele>
        <time>2019-06-27T17:09:42.000Z</time>
      </trkpt>
      <trkpt lat="43.95119" lon="1.87334">
        <ele>940.59997558594</ele>
        <time>2019-06-27T17:09:43.000Z</time>
      </trkpt>
      <trkpt lat="43.95117" lon="1.87337">
        <ele>940.59997558594</ele>
        <time>2019-06-27T17:09:44.000Z</time>
      </trkpt>
      <trkpt lat="43.95116" lon="1.87341">
        <ele>940.59997558594</ele>
        <time>2019-06-27T17:09:45.000Z</time>
      </trkpt>
      <trkpt lat="43.95116" lon="1.87344">
        <ele>940.40002441406</ele>
        <time>2019-06-27T17:09:46.000Z</time>
      </trkpt>
      <trkpt lat="43.95115" lon="1.87348">
        <ele>940.40002441406</ele>
        <time>2019-06-27T17:09:47.000Z</time>
      </trkpt>
      <trkpt lat="43.95114" lon="1.87352">
        <ele>940.40002441406</ele>
        <time>2019-06-27T17:09:48.000Z</time>
      </trkpt>
      <trkpt lat="43.95114" lon="1.87356">
        <ele>940.59997558594</ele>
        <time>2019-06-27T17:09:49.000Z</time>
      </trkpt>
      <trkpt lat="43.95113" lon="1.87361">
        <ele>940.59997558594</ele>
        <time>2019-06-27T17:09:50.000Z</time>
      </trkpt>
      <trkpt lat="43.95112" lon="1.87367">
        <ele>940.59997558594</ele>
        <time>2019-06-27T17:09:51.000Z</time>
      </trkpt>
      <trkpt lat="43.95111" lon="1.87373">
        <ele>940.40002441406</ele>
        <time>2019-06-27T17:09:52.000Z</time>
      </trkpt>
      <trkpt lat="43.95111" lon="1.8738">
        <ele>940.20001220703</ele>
        <time>2019-06-27T17:09:53.000Z</time>
      </trkpt>
      <trkpt lat="43.95111" lon="1.87387">
        <ele>940.20001220703</ele>
        <time>2019-06-27T17:09:54.000Z</time>
      </trkpt>
      <trkpt lat="43.95112" lon="1.87394">
        <ele>939.59997558594</ele>
        <time>2019-06-27T17:09:55.000Z</time>
      </trkpt>
      <trkpt lat="43.95113" lon="1.87401">
        <ele>939.20001220703</ele>
        <time>2019-06-27T17:09:56.000Z</time>
      </trkpt>
      <trkpt lat="43.95113" lon="1.87408">
        <ele>938.79998779297</ele>
        <time>2019-06-27T17:09:57.000Z</time>
      </trkpt>
      <trkpt lat="43.95114" lon="1.87415">
        <ele>938.79998779297</ele>
        <time>2019-06-27T17:09:58.000Z</time>
      </trkpt>
      <trkpt lat="43.95116" lon="1.87422">
        <ele>938.79998779297</ele>
        <time>2019-06-27T17:09:59.000Z</time>
      </trkpt>
      <trkpt lat="43.95117" lon="1.8743">
        <ele>938.40002441406</ele>
        <time>2019-06-27T17:10:00.000Z</time>
      </trkpt>
      <trkpt lat="43.95118" lon="1.87437">
        <ele>938.20001220703</ele>
        <time>2019-06-27T17:10:01.000Z</time>
      </trkpt>
      <trkpt lat="43.95119" lon="1.87445">
        <ele>938</ele>
        <time>2019-06-27T17:10:02.000Z</time>
      </trkpt>
      <trkpt lat="43.9512" lon="1.87453">
        <ele>938</ele>
        <time>2019-06-27T17:10:03.000Z</time>
      </trkpt>
      <trkpt lat="43.9512" lon="1.87461">
        <ele>937.79998779297</ele>
        <time>2019-06-27T17:10:04.000Z</time>
      </trkpt>
      <trkpt lat="43.9512" lon="1.87469">
        <ele>937.79998779297</ele>
        <time>2019-06-27T17:10:05.000Z</time>
      </trkpt>
      <trkpt lat="43.95119" lon="1.87478">
        <ele>937.40002441406</ele>
        <time>2019-06-27T17:10:06.000Z</time>
      </trkpt>
      <trkpt lat="43.95118" lon="1.87488">
        <ele>937.20001220703</ele>
        <time>2019-06-27T17:10:07.000Z</time>
      </trkpt>
      <trkpt lat="43.95118" lon="1.87498">
        <ele>936.40002441406</ele>
        <time>2019-06-27T17:10:08.000Z</time>
      </trkpt>
      <trkpt lat="43.95118" lon="1.87508">
        <ele>936</ele>
        <time>2019-06-27T17:10:09.000Z</time>
      </trkpt>
      <trkpt lat="43.95118" lon="1.87519">
        <ele>935.59997558594</ele>
        <time>2019-06-27T17:10:10.000Z</time>
      </trkpt>
      <trkpt lat="43.95117" lon="1.8753">
        <ele>935.40002441406</ele>
        <time>2019-06-27T17:10:11.000Z</time>
      </trkpt>
      <trkpt lat="43.95115" lon="1.8754">
        <ele>935.20001220703</ele>
        <time>2019-06-27T17:10:12.000Z</time>
      </trkpt>
      <trkpt lat="43.95111" lon="1.87549">
        <ele>935</ele>
        <time>2019-06-27T17:10:13.000Z</time>
      </trkpt>
      <trkpt lat="43.95106" lon="1.87557">
        <ele>934.59997558594</ele>
        <time>2019-06-27T17:10:14.000Z</time>
      </trkpt>
      <trkpt lat="43.95102" lon="1.87565">
        <ele>934.20001220703</ele>
        <time>2019-06-27T17:10:15.000Z</time>
      </trkpt>
      <trkpt lat="43.95097" lon="1.87572">
        <ele>934.20001220703</ele>
        <time>2019-06-27T17:10:16.000Z</time>
      </trkpt>
      <trkpt lat="43.95093" lon="1.87579">
        <ele>934.20001220703</ele>
        <time>2019-06-27T17:10:17.000Z</time>
      </trkpt>
      <trkpt lat="43.95089" lon="1.87586">
        <ele>934.20001220703</ele>
        <time>2019-06-27T17:10:18.000Z</time>
      </trkpt>
      <trkpt lat="43.95085" lon="1.87592">
        <ele>933.79998779297</ele>
        <time>2019-06-27T17:10:19.000Z</time>
      </trkpt>
      <trkpt lat="43.95081" lon="1.87598">
        <ele>933.79998779297</ele>
        <time>2019-06-27T17:10:20.000Z</time>
      </trkpt>
      <trkpt lat="43.95078" lon="1.87604">
        <ele>933.59997558594</ele>
        <time>2019-06-27T17:10:21.000Z</time>
      </trkpt>
      <trkpt lat="43.95074" lon="1.87609">
        <ele>934</ele>
        <time>2019-06-27T17:10:22.000Z</time>
      </trkpt>
      <trkpt lat="43.95071" lon="1.87615">
        <ele>934.40002441406</ele>
        <time>2019-06-27T17:10:23.000Z</time>
      </trkpt>
      <trkpt lat="43.95067" lon="1.8762">
        <ele>934.59997558594</ele>
        <time>2019-06-27T17:10:24.000Z</time>
      </trkpt>
      <trkpt lat="43.95063" lon="1.87625">
        <ele>934.59997558594</ele>
        <time>2019-06-27T17:10:25.000Z</time>
      </trkpt>
      <trkpt lat="43.95059" lon="1.8763">
        <ele>934.59997558594</ele>
        <time>2019-06-27T17:10:26.000Z</time>
      </trkpt>
      <trkpt lat="43.95055" lon="1.87635">
        <ele>934.59997558594</ele>
        <time>2019-06-27T17:10:27.000Z</time>
      </trkpt>
      <trkpt lat="43.95051" lon="1.8764">
        <ele>934.59997558594</ele>
        <time>2019-06-27T17:10:28.000Z</time>
      </trkpt>
      <trkpt lat="43.95048" lon="1.87645">
        <ele>934.40002441406</ele>
        <time>2019-06-27T17:10:29.000Z</time>
      </trkpt>
      <trkpt lat="43.95044" lon="1.87651">
        <ele>934</ele>
        <time>2019-06-27T17:10:30.000Z</time>
      </trkpt>
      <trkpt lat="43.9504" lon="1.87656">
        <ele>933.79998779297</ele>
        <time>2019-06-27T17:10:31.000Z</time>
      </trkpt>
      <trkpt lat="43.95036" lon="1.87661">
        <ele>933.59997558594</ele>
        <time>2019-06-27T17:10:32.000Z</time>
      </trkpt>
      <trkpt lat="43.95031" lon="1.87665">
        <ele>933.59997558594</ele>
        <time>2019-06-27T17:10:33.000Z</time>
      </trkpt>
      <trkpt lat="43.95026" lon="1.8767">
        <ele>933.59997558594</ele>
        <time>2019-06-27T17:10:34.000Z</time>
      </trkpt>
      <trkpt lat="43.95022" lon="1.87675">
        <ele>933.59997558594</ele>
        <time>2019-06-27T17:10:35.000Z</time>
      </trkpt>
      <trkpt lat="43.95018" lon="1.8768">
        <ele>933.59997558594</ele>
        <time>2019-06-27T17:10:36.000Z</time>
      </trkpt>
      <trkpt lat="43.95013" lon="1.87685">
        <ele>933.40002441406</ele>
        <time>2019-06-27T17:10:37.000Z</time>
      </trkpt>
      <trkpt lat="43.9501" lon="1.8769">
        <ele>933.59997558594</ele>
        <time>2019-06-27T17:10:38.000Z</time>
      </trkpt>
      <trkpt lat="43.95006" lon="1.87695">
        <ele>933.40002441406</ele>
        <time>2019-06-27T17:10:39.000Z</time>
      </trkpt>
      <trkpt lat="43.95003" lon="1.877">
        <ele>933.40002441406</ele>
        <time>2019-06-27T17:10:40.000Z</time>
      </trkpt>
      <trkpt lat="43.95" lon="1.87705">
        <ele>933.20001220703</ele>
        <time>2019-06-27T17:10:41.000Z</time>
      </trkpt>
      <trkpt lat="43.94998" lon="1.87711">
        <ele>933.59997558594</ele>
        <time>2019-06-27T17:10:42.000Z</time>
      </trkpt>
      <trkpt lat="43.94995" lon="1.87716">
        <ele>933.59997558594</ele>
        <time>2019-06-27T17:10:43.000Z</time>
      </trkpt>
      <trkpt lat="43.94993" lon="1.87721">
        <ele>933.59997558594</ele>
        <time>2019-06-27T17:10:44.000Z</time>
      </trkpt>
      <trkpt lat="43.9499" lon="1.87726">
        <ele>933.59997558594</ele>
        <time>2019-06-27T17:10:45.000Z</time>
      </trkpt>
      <trkpt lat="43.94988" lon="1.87731">
        <ele>933.59997558594</ele>
        <time>2019-06-27T17:10:46.000Z</time>
      </trkpt>
      <trkpt lat="43.94986" lon="1.87736">
        <ele>933.79998779297</ele>
        <time>2019-06-27T17:10:47.000Z</time>
      </trkpt>
      <trkpt lat="43.94983" lon="1.87741">
        <ele>934</ele>
        <time>2019-06-27T17:10:48.000Z</time>
      </trkpt>
      <trkpt lat="43.9498" lon="1.87745">
        <ele>934.20001220703</ele>
        <time>2019-06-27T17:10:49.000Z</time>
      </trkpt>
      <trkpt lat="43.94978" lon="1.87749">
        <ele>934.20001220703</ele>
        <time>2019-06-27T17:10:50.000Z</time>
      </trkpt>
      <trkpt lat="43.94975" lon="1.87753">
        <ele>934.20001220703</ele>
        <time>2019-06-27T17:10:51.000Z</time>
      </trkpt>
      <trkpt lat="43.94972" lon="1.87757">
        <ele>934.20001220703</ele>
        <time>2019-06-27T17:10:52.000Z</time>
      </trkpt>
      <trkpt lat="43.9497" lon="1.87761">
        <ele>934.40002441406</ele>
        <time>2019-06-27T17:10:53.000Z</time>
      </trkpt>
      <trkpt lat="43.94968" lon="1.87764">
        <ele>934.59997558594</ele>
        <time>2019-06-27T17:10:54.000Z</time>
      </trkpt>
      <trkpt lat="43.94966" lon="1.87768">
        <ele>934.40002441406</ele>
        <time>2019-06-27T17:10:55.000Z</time>
      </trkpt>
      <trkpt lat="43.94964" lon="1.8777">
        <ele>934.59997558594</ele>
        <time>2019-06-27T17:10:56.000Z</time>
      </trkpt>
      <trkpt lat="43.94961" lon="1.87772">
        <ele>934.79998779297</ele>
        <time>2019-06-27T17:10:57.000Z</time>
      </trkpt>
      <trkpt lat="43.94959" lon="1.87771">
        <ele>935</ele>
        <time>2019-06-27T17:10:58.000Z</time>
      </trkpt>
      <trkpt lat="43.94957" lon="1.87769">
        <ele>935</ele>
        <time>2019-06-27T17:10:59.000Z</time>
      </trkpt>
      <trkpt lat="43.94955" lon="1.87766">
        <ele>935</ele>
        <time>2019-06-27T17:11:00.000Z</time>
      </trkpt>
      <trkpt lat="43.94953" lon="1.87761">
        <ele>934.79998779297</ele>
        <time>2019-06-27T17:11:01.000Z</time>
      </trkpt>
      <trkpt lat="43.9495" lon="1.87757">
        <ele>934.79998779297</ele>
        <time>2019-06-27T17:11:02.000Z</time>
      </trkpt>
      <trkpt lat="43.94948" lon="1.87752">
        <ele>934.79998779297</ele>
        <time>2019-06-27T17:11:03.000Z</time>
      </trkpt>
      <trkpt lat="43.94946" lon="1.87746">
        <ele>934.59997558594</ele>
        <time>2019-06-27T17:11:04.000Z</time>
      </trkpt>
      <trkpt lat="43.94944" lon="1.87741">
        <ele>934.40002441406</ele>
        <time>2019-06-27T17:11:05.000Z</time>
      </trkpt>
      <trkpt lat="43.94942" lon="1.87736">
        <ele>934.20001220703</ele>
        <time>2019-06-27T17:11:06.000Z</time>
      </trkpt>
      <trkpt lat="43.94941" lon="1.87731">
        <ele>934.20001220703</ele>
        <time>2019-06-27T17:11:07.000Z</time>
      </trkpt>
      <trkpt lat="43.94939" lon="1.87726">
        <ele>933.79998779297</ele>
        <time>2019-06-27T17:11:08.000Z</time>
      </trkpt>
      <trkpt lat="43.94938" lon="1.87721">
        <ele>933.59997558594</ele>
        <time>2019-06-27T17:11:09.000Z</time>
      </trkpt>
      <trkpt lat="43.94936" lon="1.87716">
        <ele>933.59997558594</ele>
        <time>2019-06-27T17:11:10.000Z</time>
      </trkpt>
      <trkpt lat="43.94935" lon="1.8771">
        <ele>934</ele>
        <time>2019-06-27T17:11:11.000Z</time>
      </trkpt>
      <trkpt lat="43.94934" lon="1.87705">
        <ele>934</ele>
        <time>2019-06-27T17:11:12.000Z</time>
      </trkpt>
      <trkpt lat="43.94932" lon="1.877">
        <ele>934</ele>
        <time>2019-06-27T17:11:13.000Z</time>
      </trkpt>
      <trkpt lat="43.9493" lon="1.87695">
        <ele>933.79998779297</ele>
        <time>2019-06-27T17:11:14.000Z</time>
      </trkpt>
      <trkpt lat="43.94927" lon="1.87692">
        <ele>934</ele>
        <time>2019-06-27T17:11:15.000Z</time>
      </trkpt>
      <trkpt lat="43.94925" lon="1.87688">
        <ele>934.20001220703</ele>
        <time>2019-06-27T17:11:16.000Z</time>
      </trkpt>
      <trkpt lat="43.94923" lon="1.87685">
        <ele>934.40002441406</ele>
        <time>2019-06-27T17:11:17.000Z</time>
      </trkpt>
      <trkpt lat="43.9492" lon="1.87682">
        <ele>934.59997558594</ele>
        <time>2019-06-27T17:11:18.000Z</time>
      </trkpt>
      <trkpt lat="43.94917" lon="1.87679">
        <ele>934.79998779297</ele>
        <time>2019-06-27T17:11:19.000Z</time>
      </trkpt>
      <trkpt lat="43.94915" lon="1.87677">
        <ele>935</ele>
        <time>2019-06-27T17:11:20.000Z</time>
      </trkpt>
      <trkpt lat="43.94912" lon="1.87674">
        <ele>935</ele>
        <time>2019-06-27T17:11:21.000Z</time>
      </trkpt>
      <trkpt lat="43.9491" lon="1.87672">
        <ele>935</ele>
        <time>2019-06-27T17:11:22.000Z</time>
      </trkpt>
      <trkpt lat="43.94907" lon="1.87671">
        <ele>935.20001220703</ele>
        <time>2019-06-27T17:11:23.000Z</time>
      </trkpt>
      <trkpt lat="43.94904" lon="1.87669">
        <ele>935.40002441406</ele>
        <time>2019-06-27T17:11:24.000Z</time>
      </trkpt>
      <trkpt lat="43.94901" lon="1.87667">
        <ele>935.20001220703</ele>
        <time>2019-06-27T17:11:25.000Z</time>
      </trkpt>
      <trkpt lat="43.94898" lon="1.87666">
        <ele>935.20001220703</ele>
        <time>2019-06-27T17:11:26.000Z</time>
      </trkpt>
      <trkpt lat="43.94895" lon="1.87665">
        <ele>935.20001220703</ele>
        <time>2019-06-27T17:11:27.000Z</time>
      </trkpt>
      <trkpt lat="43.94891" lon="1.87664">
        <ele>935.59997558594</ele>
        <time>2019-06-27T17:11:28.000Z</time>
      </trkpt>
      <trkpt lat="43.94888" lon="1.87664">
        <ele>935.59997558594</ele>
        <time>2019-06-27T17:11:29.000Z</time>
      </trkpt>
      <trkpt lat="43.94884" lon="1.87663">
        <ele>935.59997558594</ele>
        <time>2019-06-27T17:11:30.000Z</time>
      </trkpt>
      <trkpt lat="43.94881" lon="1.87663">
        <ele>935.59997558594</ele>
        <time>2019-06-27T17:11:31.000Z</time>
      </trkpt>
      <trkpt lat="43.94878" lon="1.87662">
        <ele>935.59997558594</ele>
        <time>2019-06-27T17:11:32.000Z</time>
      </trkpt>
      <trkpt lat="43.94874" lon="1.87661">
        <ele>935.59997558594</ele>
        <time>2019-06-27T17:11:33.000Z</time>
      </trkpt>
      <trkpt lat="43.9487" lon="1.8766">
        <ele>935.59997558594</ele>
        <time>2019-06-27T17:11:34.000Z</time>
      </trkpt>
      <trkpt lat="43.94867" lon="1.8766">
        <ele>935.59997558594</ele>
        <time>2019-06-27T17:11:35.000Z</time>
      </trkpt>
      <trkpt lat="43.94863" lon="1.87659">
        <ele>935.59997558594</ele>
        <time>2019-06-27T17:11:36.000Z</time>
      </trkpt>
      <trkpt lat="43.94859" lon="1.87659">
        <ele>935.40002441406</ele>
        <time>2019-06-27T17:11:37.000Z</time>
      </trkpt>
      <trkpt lat="43.94855" lon="1.87659">
        <ele>935.40002441406</ele>
        <time>2019-06-27T17:11:38.000Z</time>
      </trkpt>
      <trkpt lat="43.94852" lon="1.87659">
        <ele>935.20001220703</ele>
        <time>2019-06-27T17:11:39.000Z</time>
      </trkpt>
      <trkpt lat="43.94848" lon="1.87658">
        <ele>935.20001220703</ele>
        <time>2019-06-27T17:11:40.000Z</time>
      </trkpt>
      <trkpt lat="43.94844" lon="1.87657">
        <ele>935</ele>
        <time>2019-06-27T17:11:41.000Z</time>
      </trkpt>
      <trkpt lat="43.9484" lon="1.87657">
        <ele>935</ele>
        <time>2019-06-27T17:11:42.000Z</time>
      </trkpt>
      <trkpt lat="43.94836" lon="1.87656">
        <ele>934.59997558594</ele>
        <time>2019-06-27T17:11:43.000Z</time>
      </trkpt>
      <trkpt lat="43.94832" lon="1.87655">
        <ele>934.59997558594</ele>
        <time>2019-06-27T17:11:44.000Z</time>
      </trkpt>
      <trkpt lat="43.94828" lon="1.87654">
        <ele>934.40002441406</ele>
        <time>2019-06-27T17:11:45.000Z</time>
      </trkpt>
      <trkpt lat="43.94825" lon="1.87652">
        <ele>934.59997558594</ele>
        <time>2019-06-27T17:11:46.000Z</time>
      </trkpt>
      <trkpt lat="43.94821" lon="1.87651">
        <ele>934.40002441406</ele>
        <time>2019-06-27T17:11:47.000Z</time>
      </trkpt>
      <trkpt lat="43.94817" lon="1.87649">
        <ele>934.79998779297</ele>
        <time>2019-06-27T17:11:48.000Z</time>
      </trkpt>
      <trkpt lat="43.94814" lon="1.87648">
        <ele>934.79998779297</ele>
        <time>2019-06-27T17:11:49.000Z</time>
      </trkpt>
      <trkpt lat="43.9481" lon="1.87647">
        <ele>934.79998779297</ele>
        <time>2019-06-27T17:11:50.000Z</time>
      </trkpt>
      <trkpt lat="43.94807" lon="1.87645">
        <ele>934.59997558594</ele>
        <time>2019-06-27T17:11:51.000Z</time>
      </trkpt>
      <trkpt lat="43.94804" lon="1.87644">
        <ele>934.59997558594</ele>
        <time>2019-06-27T17:11:52.000Z</time>
      </trkpt>
      <trkpt lat="43.94801" lon="1.87644">
        <ele>934.59997558594</ele>
        <time>2019-06-27T17:11:53.000Z</time>
      </trkpt>
      <trkpt lat="43.94798" lon="1.87643">
        <ele>934.79998779297</ele>
        <time>2019-06-27T17:11:54.000Z</time>
      </trkpt>
      <trkpt lat="43.94795" lon="1.87642">
        <ele>934.79998779297</ele>
        <time>2019-06-27T17:11:55.000Z</time>
      </trkpt>
      <trkpt lat="43.94792" lon="1.87642">
        <ele>934.79998779297</ele>
        <time>2019-06-27T17:11:56.000Z</time>
      </trkpt>
      <trkpt lat="43.94789" lon="1.87641">
        <ele>935.20001220703</ele>
        <time>2019-06-27T17:11:57.000Z</time>
      </trkpt>
      <trkpt lat="43.94787" lon="1.87641">
        <ele>935.20001220703</ele>
        <time>2019-06-27T17:11:58.000Z</time>
      </trkpt>
      <trkpt lat="43.94784" lon="1.8764">
        <ele>935.40002441406</ele>
        <time>2019-06-27T17:11:59.000Z</time>
      </trkpt>
      <trkpt lat="43.94781" lon="1.8764">
        <ele>935.59997558594</ele>
        <time>2019-06-27T17:12:00.000Z</time>
      </trkpt>
      <trkpt lat="43.94778" lon="1.87641">
        <ele>935.79998779297</ele>
        <time>2019-06-27T17:12:01.000Z</time>
      </trkpt>
      <trkpt lat="43.94775" lon="1.87642">
        <ele>935.79998779297</ele>
        <time>2019-06-27T17:12:02.000Z</time>
      </trkpt>
      <trkpt lat="43.94771" lon="1.87642">
        <ele>936.20001220703</ele>
        <time>2019-06-27T17:12:03.000Z</time>
      </trkpt>
      <trkpt lat="43.94768" lon="1.87643">
        <ele>936.40002441406</ele>
        <time>2019-06-27T17:12:04.000Z</time>
      </trkpt>
      <trkpt lat="43.94764" lon="1.87642">
        <ele>937</ele>
        <time>2019-06-27T17:12:05.000Z</time>
      </trkpt>
      <trkpt lat="43.9476" lon="1.8764">
        <ele>936.79998779297</ele>
        <time>2019-06-27T17:12:06.000Z</time>
      </trkpt>
      <trkpt lat="43.94756" lon="1.87638">
        <ele>936.59997558594</ele>
        <time>2019-06-27T17:12:07.000Z</time>
      </trkpt>
      <trkpt lat="43.94753" lon="1.87636">
        <ele>936.59997558594</ele>
        <time>2019-06-27T17:12:08.000Z</time>
      </trkpt>
      <trkpt lat="43.94748" lon="1.87635">
        <ele>936.40002441406</ele>
        <time>2019-06-27T17:12:09.000Z</time>
      </trkpt>
      <trkpt lat="43.94744" lon="1.87634">
        <ele>936</ele>
        <time>2019-06-27T17:12:10.000Z</time>
      </trkpt>
      <trkpt lat="43.94738" lon="1.87633">
        <ele>935.79998779297</ele>
        <time>2019-06-27T17:12:11.000Z</time>
      </trkpt>
      <trkpt lat="43.94732" lon="1.87634">
        <ele>935.40002441406</ele>
        <time>2019-06-27T17:12:12.000Z</time>
      </trkpt>
      <trkpt lat="43.94725" lon="1.87636">
        <ele>934.79998779297</ele>
        <time>2019-06-27T17:12:13.000Z</time>
      </trkpt>
      <trkpt lat="43.94718" lon="1.87639">
        <ele>934.20001220703</ele>
        <time>2019-06-27T17:12:14.000Z</time>
      </trkpt>
      <trkpt lat="43.94709" lon="1.87642">
        <ele>933.40002441406</ele>
        <time>2019-06-27T17:12:15.000Z</time>
      </trkpt>
      <trkpt lat="43.94699" lon="1.87645">
        <ele>932.59997558594</ele>
        <time>2019-06-27T17:12:16.000Z</time>
      </trkpt>
      <trkpt lat="43.94689" lon="1.87647">
        <ele>931.79998779297</ele>
        <time>2019-06-27T17:12:17.000Z</time>
      </trkpt>
      <trkpt lat="43.94677" lon="1.87648">
        <ele>929.79998779297</ele>
        <time>2019-06-27T17:12:18.000Z</time>
      </trkpt>
      <trkpt lat="43.94666" lon="1.87648">
        <ele>928.40002441406</ele>
        <time>2019-06-27T17:12:19.000Z</time>
      </trkpt>
      <trkpt lat="43.94654" lon="1.87649">
        <ele>926.40002441406</ele>
        <time>2019-06-27T17:12:20.000Z</time>
      </trkpt>
      <trkpt lat="43.94644" lon="1.87648">
        <ele>925.20001220703</ele>
        <time>2019-06-27T17:12:21.000Z</time>
      </trkpt>
      <trkpt lat="43.94634" lon="1.87648">
        <ele>923.20001220703</ele>
        <time>2019-06-27T17:12:22.000Z</time>
      </trkpt>
      <trkpt lat="43.94624" lon="1.87648">
        <ele>921.40002441406</ele>
        <time>2019-06-27T17:12:23.000Z</time>
      </trkpt>
      <trkpt lat="43.94616" lon="1.87648">
        <ele>919.59997558594</ele>
        <time>2019-06-27T17:12:24.000Z</time>
      </trkpt>
      <trkpt lat="43.94607" lon="1.87648">
        <ele>917.79998779297</ele>
        <time>2019-06-27T17:12:25.000Z</time>
      </trkpt>
      <trkpt lat="43.94598" lon="1.8765">
        <ele>915.59997558594</ele>
        <time>2019-06-27T17:12:26.000Z</time>
      </trkpt>
      <trkpt lat="43.94589" lon="1.87653">
        <ele>913.79998779297</ele>
        <time>2019-06-27T17:12:27.000Z</time>
      </trkpt>
      <trkpt lat="43.9458" lon="1.87658">
        <ele>912</ele>
        <time>2019-06-27T17:12:28.000Z</time>
      </trkpt>
      <trkpt lat="43.94571" lon="1.87665">
        <ele>909.20001220703</ele>
        <time>2019-06-27T17:12:29.000Z</time>
      </trkpt>
      <trkpt lat="43.94563" lon="1.87673">
        <ele>907.40002441406</ele>
        <time>2019-06-27T17:12:30.000Z</time>
      </trkpt>
      <trkpt lat="43.94556" lon="1.87682">
        <ele>905</ele>
        <time>2019-06-27T17:12:31.000Z</time>
      </trkpt>
      <trkpt lat="43.94549" lon="1.8769">
        <ele>902.20001220703</ele>
        <time>2019-06-27T17:12:32.000Z</time>
      </trkpt>
      <trkpt lat="43.94543" lon="1.87696">
        <ele>900.20001220703</ele>
        <time>2019-06-27T17:12:33.000Z</time>
      </trkpt>
      <trkpt lat="43.94538" lon="1.87701">
        <ele>899</ele>
        <time>2019-06-27T17:12:34.000Z</time>
      </trkpt>
      <trkpt lat="43.94533" lon="1.87701">
        <ele>897.79998779297</ele>
        <time>2019-06-27T17:12:35.000Z</time>
      </trkpt>
      <trkpt lat="43.94529" lon="1.87699">
        <ele>897</ele>
        <time>2019-06-27T17:12:36.000Z</time>
      </trkpt>
      <trkpt lat="43.94524" lon="1.87697">
        <ele>896.40002441406</ele>
        <time>2019-06-27T17:12:37.000Z</time>
      </trkpt>
      <trkpt lat="43.9452" lon="1.87695">
        <ele>895.79998779297</ele>
        <time>2019-06-27T17:12:38.000Z</time>
      </trkpt>
      <trkpt lat="43.94516" lon="1.87693">
        <ele>895.40002441406</ele>
        <time>2019-06-27T17:12:39.000Z</time>
      </trkpt>
      <trkpt lat="43.94512" lon="1.87692">
        <ele>894.59997558594</ele>
        <time>2019-06-27T17:12:40.000Z</time>
      </trkpt>
      <trkpt lat="43.94508" lon="1.8769">
        <ele>893.79998779297</ele>
        <time>2019-06-27T17:12:41.000Z</time>
      </trkpt>
      <trkpt lat="43.94504" lon="1.87689">
        <ele>893.20001220703</ele>
        <time>2019-06-27T17:12:42.000Z</time>
      </trkpt>
      <trkpt lat="43.945" lon="1.87687">
        <ele>892.79998779297</ele>
        <time>2019-06-27T17:12:43.000Z</time>
      </trkpt>
      <trkpt lat="43.94495" lon="1.87686">
        <ele>892.40002441406</ele>
        <time>2019-06-27T17:12:44.000Z</time>
      </trkpt>
      <trkpt lat="43.94491" lon="1.87685">
        <ele>892</ele>
        <time>2019-06-27T17:12:45.000Z</time>
      </trkpt>
      <trkpt lat="43.94486" lon="1.87684">
        <ele>891.40002441406</ele>
        <time>2019-06-27T17:12:46.000Z</time>
      </trkpt>
      <trkpt lat="43.94481" lon="1.87683">
        <ele>891</ele>
        <time>2019-06-27T17:12:47.000Z</time>
      </trkpt>
      <trkpt lat="43.94475" lon="1.87682">
        <ele>890.20001220703</ele>
        <time>2019-06-27T17:12:48.000Z</time>
      </trkpt>
      <trkpt lat="43.94471" lon="1.87681">
        <ele>889.79998779297</ele>
        <time>2019-06-27T17:12:49.000Z</time>
      </trkpt>
      <trkpt lat="43.94467" lon="1.8768">
        <ele>888.79998779297</ele>
        <time>2019-06-27T17:12:50.000Z</time>
      </trkpt>
      <trkpt lat="43.94464" lon="1.8768">
        <ele>887.79998779297</ele>
        <time>2019-06-27T17:12:51.000Z</time>
      </trkpt>
      <trkpt lat="43.94461" lon="1.87679">
        <ele>887</ele>
        <time>2019-06-27T17:12:52.000Z</time>
      </trkpt>
      <trkpt lat="43.94458" lon="1.87679">
        <ele>885.79998779297</ele>
        <time>2019-06-27T17:12:53.000Z</time>
      </trkpt>
      <trkpt lat="43.94453" lon="1.87678">
        <ele>885.59997558594</ele>
        <time>2019-06-27T17:12:54.000Z</time>
      </trkpt>
      <trkpt lat="43.94448" lon="1.87676">
        <ele>885</ele>
        <time>2019-06-27T17:12:55.000Z</time>
      </trkpt>
      <trkpt lat="43.94441" lon="1.87675">
        <ele>884.40002441406</ele>
        <time>2019-06-27T17:12:56.000Z</time>
      </trkpt>
      <trkpt lat="43.94435" lon="1.87674">
        <ele>883.59997558594</ele>
        <time>2019-06-27T17:12:57.000Z</time>
      </trkpt>
      <trkpt lat="43.94427" lon="1.87674">
        <ele>883.20001220703</ele>
        <time>2019-06-27T17:12:58.000Z</time>
      </trkpt>
      <trkpt lat="43.9442" lon="1.87674">
        <ele>883</ele>
        <time>2019-06-27T17:12:59.000Z</time>
      </trkpt>
      <trkpt lat="43.94412" lon="1.87674">
        <ele>883.20001220703</ele>
        <time>2019-06-27T17:13:00.000Z</time>
      </trkpt>
      <trkpt lat="43.94404" lon="1.87674">
        <ele>883</ele>
        <time>2019-06-27T17:13:01.000Z</time>
      </trkpt>
      <trkpt lat="43.94396" lon="1.87674">
        <ele>882.59997558594</ele>
        <time>2019-06-27T17:13:02.000Z</time>
      </trkpt>
      <trkpt lat="43.94386" lon="1.87674">
        <ele>881.79998779297</ele>
        <time>2019-06-27T17:13:03.000Z</time>
      </trkpt>
      <trkpt lat="43.94377" lon="1.87673">
        <ele>881</ele>
        <time>2019-06-27T17:13:04.000Z</time>
      </trkpt>
      <trkpt lat="43.94368" lon="1.87673">
        <ele>880.40002441406</ele>
        <time>2019-06-27T17:13:05.000Z</time>
      </trkpt>
      <trkpt lat="43.94358" lon="1.87673">
        <ele>879.79998779297</ele>
        <time>2019-06-27T17:13:06.000Z</time>
      </trkpt>
      <trkpt lat="43.94348" lon="1.87672">
        <ele>879</ele>
        <time>2019-06-27T17:13:07.000Z</time>
      </trkpt>
      <trkpt lat="43.94338" lon="1.87671">
        <ele>877.79998779297</ele>
        <time>2019-06-27T17:13:08.000Z</time>
      </trkpt>
      <trkpt lat="43.94329" lon="1.8767">
        <ele>876.79998779297</ele>
        <time>2019-06-27T17:13:09.000Z</time>
      </trkpt>
      <trkpt lat="43.94321" lon="1.87668">
        <ele>875.59997558594</ele>
        <time>2019-06-27T17:13:10.000Z</time>
      </trkpt>
      <trkpt lat="43.94314" lon="1.87667">
        <ele>875</ele>
        <time>2019-06-27T17:13:11.000Z</time>
      </trkpt>
      <trkpt lat="43.94308" lon="1.87667">
        <ele>874.59997558594</ele>
        <time>2019-06-27T17:13:12.000Z</time>
      </trkpt>
      <trkpt lat="43.94304" lon="1.87667">
        <ele>874.20001220703</ele>
        <time>2019-06-27T17:13:13.000Z</time>
      </trkpt>
      <trkpt lat="43.943" lon="1.87668">
        <ele>873</ele>
        <time>2019-06-27T17:13:14.000Z</time>
      </trkpt>
      <trkpt lat="43.94296" lon="1.87671">
        <ele>872</ele>
        <time>2019-06-27T17:13:15.000Z</time>
      </trkpt>
      <trkpt lat="43.94294" lon="1.87675">
        <ele>871.59997558594</ele>
        <time>2019-06-27T17:13:16.000Z</time>
      </trkpt>
      <trkpt lat="43.94293" lon="1.8768">
        <ele>871.20001220703</ele>
        <time>2019-06-27T17:13:17.000Z</time>
      </trkpt>
      <trkpt lat="43.94292" lon="1.87685">
        <ele>871.20001220703</ele>
        <time>2019-06-27T17:13:18.000Z</time>
      </trkpt>
      <trkpt lat="43.9429" lon="1.87691">
        <ele>871.20001220703</ele>
        <time>2019-06-27T17:13:19.000Z</time>
      </trkpt>
      <trkpt lat="43.94289" lon="1.87696">
        <ele>871.20001220703</ele>
        <time>2019-06-27T17:13:20.000Z</time>
      </trkpt>
      <trkpt lat="43.94288" lon="1.87701">
        <ele>871.20001220703</ele>
        <time>2019-06-27T17:13:21.000Z</time>
      </trkpt>
      <trkpt lat="43.94288" lon="1.87706">
        <ele>871</ele>
        <time>2019-06-27T17:13:22.000Z</time>
      </trkpt>
      <trkpt lat="43.94287" lon="1.87711">
        <ele>871</ele>
        <time>2019-06-27T17:13:23.000Z</time>
      </trkpt>
      <trkpt lat="43.94285" lon="1.87715">
        <ele>871</ele>
        <time>2019-06-27T17:13:24.000Z</time>
      </trkpt>
      <trkpt lat="43.94282" lon="1.87718">
        <ele>871</ele>
        <time>2019-06-27T17:13:25.000Z</time>
      </trkpt>
      <trkpt lat="43.94278" lon="1.8772">
        <ele>870.79998779297</ele>
        <time>2019-06-27T17:13:26.000Z</time>
      </trkpt>
      <trkpt lat="43.94273" lon="1.87722">
        <ele>870.79998779297</ele>
        <time>2019-06-27T17:13:27.000Z</time>
      </trkpt>
      <trkpt lat="43.94268" lon="1.87724">
        <ele>870.59997558594</ele>
        <time>2019-06-27T17:13:28.000Z</time>
      </trkpt>
      <trkpt lat="43.94263" lon="1.87726">
        <ele>870.20001220703</ele>
        <time>2019-06-27T17:13:29.000Z</time>
      </trkpt>
      <trkpt lat="43.94258" lon="1.87728">
        <ele>869.79998779297</ele>
        <time>2019-06-27T17:13:30.000Z</time>
      </trkpt>
      <trkpt lat="43.94254" lon="1.87729">
        <ele>869.79998779297</ele>
        <time>2019-06-27T17:13:31.000Z</time>
      </trkpt>
      <trkpt lat="43.94249" lon="1.87732">
        <ele>869.79998779297</ele>
        <time>2019-06-27T17:13:32.000Z</time>
      </trkpt>
      <trkpt lat="43.94244" lon="1.87734">
        <ele>869.79998779297</ele>
        <time>2019-06-27T17:13:33.000Z</time>
      </trkpt>
      <trkpt lat="43.94238" lon="1.87736">
        <ele>869.40002441406</ele>
        <time>2019-06-27T17:13:34.000Z</time>
      </trkpt>
      <trkpt lat="43.94232" lon="1.87738">
        <ele>869.20001220703</ele>
        <time>2019-06-27T17:13:35.000Z</time>
      </trkpt>
      <trkpt lat="43.94227" lon="1.87741">
        <ele>869</ele>
        <time>2019-06-27T17:13:36.000Z</time>
      </trkpt>
      <trkpt lat="43.94221" lon="1.87743">
        <ele>868.59997558594</ele>
        <time>2019-06-27T17:13:37.000Z</time>
      </trkpt>
      <trkpt lat="43.94216" lon="1.87745">
        <ele>868.40002441406</ele>
        <time>2019-06-27T17:13:38.000Z</time>
      </trkpt>
      <trkpt lat="43.94211" lon="1.87747">
        <ele>868.40002441406</ele>
        <time>2019-06-27T17:13:39.000Z</time>
      </trkpt>
      <trkpt lat="43.94206" lon="1.8775">
        <ele>867.59997558594</ele>
        <time>2019-06-27T17:13:40.000Z</time>
      </trkpt>
      <trkpt lat="43.94201" lon="1.87751">
        <ele>866.79998779297</ele>
        <time>2019-06-27T17:13:41.000Z</time>
      </trkpt>
      <trkpt lat="43.94196" lon="1.87753">
        <ele>867</ele>
        <time>2019-06-27T17:13:42.000Z</time>
      </trkpt>
      <trkpt lat="43.94191" lon="1.87754">
        <ele>867</ele>
        <time>2019-06-27T17:13:43.000Z</time>
      </trkpt>
      <trkpt lat="43.94187" lon="1.87754">
        <ele>866.79998779297</ele>
        <time>2019-06-27T17:13:44.000Z</time>
      </trkpt>
      <trkpt lat="43.94183" lon="1.87754">
        <ele>866.59997558594</ele>
        <time>2019-06-27T17:13:45.000Z</time>
      </trkpt>
      <trkpt lat="43.94179" lon="1.87754">
        <ele>866.40002441406</ele>
        <time>2019-06-27T17:13:46.000Z</time>
      </trkpt>
      <trkpt lat="43.94175" lon="1.87753">
        <ele>866.40002441406</ele>
        <time>2019-06-27T17:13:47.000Z</time>
      </trkpt>
      <trkpt lat="43.94172" lon="1.87752">
        <ele>866.40002441406</ele>
        <time>2019-06-27T17:13:48.000Z</time>
      </trkpt>
      <trkpt lat="43.94169" lon="1.87751">
        <ele>866.40002441406</ele>
        <time>2019-06-27T17:13:49.000Z</time>
      </trkpt>
      <trkpt lat="43.94166" lon="1.87752">
        <ele>866.40002441406</ele>
        <time>2019-06-27T17:13:50.000Z</time>
      </trkpt>
      <trkpt lat="43.94163" lon="1.87754">
        <ele>866.20001220703</ele>
        <time>2019-06-27T17:13:51.000Z</time>
      </trkpt>
      <trkpt lat="43.9416" lon="1.87755">
        <ele>866.20001220703</ele>
        <time>2019-06-27T17:13:52.000Z</time>
      </trkpt>
      <trkpt lat="43.94156" lon="1.87757">
        <ele>866</ele>
        <time>2019-06-27T17:13:53.000Z</time>
      </trkpt>
      <trkpt lat="43.94153" lon="1.87759">
        <ele>866.20001220703</ele>
        <time>2019-06-27T17:13:54.000Z</time>
      </trkpt>
      <trkpt lat="43.9415" lon="1.87762">
        <ele>866.20001220703</ele>
        <time>2019-06-27T17:13:55.000Z</time>
      </trkpt>
      <trkpt lat="43.94148" lon="1.87764">
        <ele>866</ele>
        <time>2019-06-27T17:13:56.000Z</time>
      </trkpt>
      <trkpt lat="43.94145" lon="1.87767">
        <ele>866</ele>
        <time>2019-06-27T17:13:57.000Z</time>
      </trkpt>
      <trkpt lat="43.94142" lon="1.8777">
        <ele>866</ele>
        <time>2019-06-27T17:13:58.000Z</time>
      </trkpt>
      <trkpt lat="43.9414" lon="1.87773">
        <ele>866</ele>
        <time>2019-06-27T17:13:59.000Z</time>
      </trkpt>
      <trkpt lat="43.94137" lon="1.87776">
        <ele>866</ele>
        <time>2019-06-27T17:14:00.000Z</time>
      </trkpt>
      <trkpt lat="43.94134" lon="1.8778">
        <ele>866</ele>
        <time>2019-06-27T17:14:01.000Z</time>
      </trkpt>
      <trkpt lat="43.94131" lon="1.87783">
        <ele>866</ele>
        <time>2019-06-27T17:14:02.000Z</time>
      </trkpt>
      <trkpt lat="43.94129" lon="1.87787">
        <ele>866</ele>
        <time>2019-06-27T17:14:03.000Z</time>
      </trkpt>
      <trkpt lat="43.94126" lon="1.87791">
        <ele>866</ele>
        <time>2019-06-27T17:14:04.000Z</time>
      </trkpt>
      <trkpt lat="43.94124" lon="1.87796">
        <ele>866</ele>
        <time>2019-06-27T17:14:05.000Z</time>
      </trkpt>
      <trkpt lat="43.94123" lon="1.87801">
        <ele>866.20001220703</ele>
        <time>2019-06-27T17:14:06.000Z</time>
      </trkpt>
      <trkpt lat="43.94122" lon="1.87806">
        <ele>866.40002441406</ele>
        <time>2019-06-27T17:14:07.000Z</time>
      </trkpt>
      <trkpt lat="43.9412" lon="1.87812">
        <ele>866.40002441406</ele>
        <time>2019-06-27T17:14:08.000Z</time>
      </trkpt>
      <trkpt lat="43.94119" lon="1.87817">
        <ele>866.40002441406</ele>
        <time>2019-06-27T17:14:09.000Z</time>
      </trkpt>
      <trkpt lat="43.94118" lon="1.87823">
        <ele>866.40002441406</ele>
        <time>2019-06-27T17:14:10.000Z</time>
      </trkpt>
      <trkpt lat="43.94117" lon="1.87829">
        <ele>866.40002441406</ele>
        <time>2019-06-27T17:14:11.000Z</time>
      </trkpt>
      <trkpt lat="43.94116" lon="1.87835">
        <ele>866.40002441406</ele>
        <time>2019-06-27T17:14:12.000Z</time>
      </trkpt>
      <trkpt lat="43.94114" lon="1.87842">
        <ele>866.20001220703</ele>
        <time>2019-06-27T17:14:13.000Z</time>
      </trkpt>
      <trkpt lat="43.94112" lon="1.87848">
        <ele>866</ele>
        <time>2019-06-27T17:14:14.000Z</time>
      </trkpt>
      <trkpt lat="43.9411" lon="1.87855">
        <ele>865.59997558594</ele>
        <time>2019-06-27T17:14:15.000Z</time>
      </trkpt>
      <trkpt lat="43.94108" lon="1.87861">
        <ele>865.59997558594</ele>
        <time>2019-06-27T17:14:16.000Z</time>
      </trkpt>
      <trkpt lat="43.94106" lon="1.87867">
        <ele>865.40002441406</ele>
        <time>2019-06-27T17:14:17.000Z</time>
      </trkpt>
      <trkpt lat="43.94103" lon="1.87873">
        <ele>865.40002441406</ele>
        <time>2019-06-27T17:14:18.000Z</time>
      </trkpt>
      <trkpt lat="43.94101" lon="1.87878">
        <ele>865.20001220703</ele>
        <time>2019-06-27T17:14:19.000Z</time>
      </trkpt>
      <trkpt lat="43.94099" lon="1.87884">
        <ele>864.79998779297</ele>
        <time>2019-06-27T17:14:20.000Z</time>
      </trkpt>
      <trkpt lat="43.94097" lon="1.8789">
        <ele>864.79998779297</ele>
        <time>2019-06-27T17:14:21.000Z</time>
      </trkpt>
      <trkpt lat="43.94094" lon="1.87896">
        <ele>864.79998779297</ele>
        <time>2019-06-27T17:14:22.000Z</time>
      </trkpt>
      <trkpt lat="43.94092" lon="1.87901">
        <ele>865</ele>
        <time>2019-06-27T17:14:23.000Z</time>
      </trkpt>
      <trkpt lat="43.9409" lon="1.87907">
        <ele>865.20001220703</ele>
        <time>2019-06-27T17:14:24.000Z</time>
      </trkpt>
      <trkpt lat="43.94087" lon="1.87913">
        <ele>865</ele>
        <time>2019-06-27T17:14:25.000Z</time>
      </trkpt>
      <trkpt lat="43.94085" lon="1.87919">
        <ele>865</ele>
        <time>2019-06-27T17:14:26.000Z</time>
      </trkpt>
      <trkpt lat="43.94082" lon="1.87925">
        <ele>864.79998779297</ele>
        <time>2019-06-27T17:14:27.000Z</time>
      </trkpt>
      <trkpt lat="43.9408" lon="1.87931">
        <ele>865</ele>
        <time>2019-06-27T17:14:28.000Z</time>
      </trkpt>
      <trkpt lat="43.94077" lon="1.87936">
        <ele>864.79998779297</ele>
        <time>2019-06-27T17:14:29.000Z</time>
      </trkpt>
      <trkpt lat="43.94074" lon="1.87941">
        <ele>864.59997558594</ele>
        <time>2019-06-27T17:14:30.000Z</time>
      </trkpt>
      <trkpt lat="43.94071" lon="1.87947">
        <ele>864.40002441406</ele>
        <time>2019-06-27T17:14:31.000Z</time>
      </trkpt>
      <trkpt lat="43.94068" lon="1.87953">
        <ele>864.20001220703</ele>
        <time>2019-06-27T17:14:32.000Z</time>
      </trkpt>
      <trkpt lat="43.94065" lon="1.87958">
        <ele>864</ele>
        <time>2019-06-27T17:14:33.000Z</time>
      </trkpt>
      <trkpt lat="43.94062" lon="1.87964">
        <ele>864</ele>
        <time>2019-06-27T17:14:34.000Z</time>
      </trkpt>
      <trkpt lat="43.94059" lon="1.87969">
        <ele>864</ele>
        <time>2019-06-27T17:14:35.000Z</time>
      </trkpt>
      <trkpt lat="43.94056" lon="1.87974">
        <ele>864.20001220703</ele>
        <time>2019-06-27T17:14:36.000Z</time>
      </trkpt>
      <trkpt lat="43.94054" lon="1.87979">
        <ele>864</ele>
        <time>2019-06-27T17:14:37.000Z</time>
      </trkpt>
      <trkpt lat="43.94051" lon="1.87984">
        <ele>864</ele>
        <time>2019-06-27T17:14:38.000Z</time>
      </trkpt>
      <trkpt lat="43.94048" lon="1.87989">
        <ele>864</ele>
        <time>2019-06-27T17:14:39.000Z</time>
      </trkpt>
      <trkpt lat="43.94046" lon="1.87994">
        <ele>864</ele>
        <time>2019-06-27T17:14:40.000Z</time>
      </trkpt>
      <trkpt lat="43.94043" lon="1.87999">
        <ele>863.79998779297</ele>
        <time>2019-06-27T17:14:41.000Z</time>
      </trkpt>
      <trkpt lat="43.9404" lon="1.88004">
        <ele>863.59997558594</ele>
        <time>2019-06-27T17:14:42.000Z</time>
      </trkpt>
      <trkpt lat="43.94038" lon="1.88009">
        <ele>863.40002441406</ele>
        <time>2019-06-27T17:14:43.000Z</time>
      </trkpt>
      <trkpt lat="43.94035" lon="1.88015">
        <ele>863.40002441406</ele>
        <time>2019-06-27T17:14:44.000Z</time>
      </trkpt>
      <trkpt lat="43.94032" lon="1.8802">
        <ele>863.20001220703</ele>
        <time>2019-06-27T17:14:45.000Z</time>
      </trkpt>
      <trkpt lat="43.94029" lon="1.88025">
        <ele>863.20001220703</ele>
        <time>2019-06-27T17:14:46.000Z</time>
      </trkpt>
      <trkpt lat="43.94026" lon="1.88029">
        <ele>863</ele>
        <time>2019-06-27T17:14:47.000Z</time>
      </trkpt>
      <trkpt lat="43.94023" lon="1.88034">
        <ele>862.79998779297</ele>
        <time>2019-06-27T17:14:48.000Z</time>
      </trkpt>
      <trkpt lat="43.9402" lon="1.8804">
        <ele>862.59997558594</ele>
        <time>2019-06-27T17:14:49.000Z</time>
      </trkpt>
      <trkpt lat="43.94017" lon="1.88045">
        <ele>862.59997558594</ele>
        <time>2019-06-27T17:14:50.000Z</time>
      </trkpt>
      <trkpt lat="43.94014" lon="1.8805">
        <ele>862.40002441406</ele>
        <time>2019-06-27T17:14:51.000Z</time>
      </trkpt>
      <trkpt lat="43.94011" lon="1.88055">
        <ele>862.40002441406</ele>
        <time>2019-06-27T17:14:52.000Z</time>
      </trkpt>
      <trkpt lat="43.94008" lon="1.8806">
        <ele>862</ele>
        <time>2019-06-27T17:14:53.000Z</time>
      </trkpt>
      <trkpt lat="43.94005" lon="1.88065">
        <ele>861.79998779297</ele>
        <time>2019-06-27T17:14:54.000Z</time>
      </trkpt>
      <trkpt lat="43.94002" lon="1.8807">
        <ele>861.79998779297</ele>
        <time>2019-06-27T17:14:55.000Z</time>
      </trkpt>
      <trkpt lat="43.93999" lon="1.88075">
        <ele>861.79998779297</ele>
        <time>2019-06-27T17:14:56.000Z</time>
      </trkpt>
      <trkpt lat="43.93995" lon="1.8808">
        <ele>861.79998779297</ele>
        <time>2019-06-27T17:14:57.000Z</time>
      </trkpt>
      <trkpt lat="43.93992" lon="1.88086">
        <ele>861.79998779297</ele>
        <time>2019-06-27T17:14:58.000Z</time>
      </trkpt>
      <trkpt lat="43.93988" lon="1.8809">
        <ele>861.79998779297</ele>
        <time>2019-06-27T17:14:59.000Z</time>
      </trkpt>
      <trkpt lat="43.93984" lon="1.88095">
        <ele>861.79998779297</ele>
        <time>2019-06-27T17:15:00.000Z</time>
      </trkpt>
      <trkpt lat="43.93981" lon="1.88099">
        <ele>861.79998779297</ele>
        <time>2019-06-27T17:15:01.000Z</time>
      </trkpt>
      <trkpt lat="43.93976" lon="1.88102">
        <ele>861.79998779297</ele>
        <time>2019-06-27T17:15:02.000Z</time>
      </trkpt>
      <trkpt lat="43.93972" lon="1.88103">
        <ele>861.79998779297</ele>
        <time>2019-06-27T17:15:03.000Z</time>
      </trkpt>
      <trkpt lat="43.93968" lon="1.88102">
        <ele>861.79998779297</ele>
        <time>2019-06-27T17:15:04.000Z</time>
      </trkpt>
      <trkpt lat="43.93965" lon="1.88101">
        <ele>861.79998779297</ele>
        <time>2019-06-27T17:15:05.000Z</time>
      </trkpt>
      <trkpt lat="43.93963" lon="1.881">
        <ele>862</ele>
        <time>2019-06-27T17:15:06.000Z</time>
      </trkpt>
      <trkpt lat="43.9396" lon="1.88099">
        <ele>862</ele>
        <time>2019-06-27T17:15:07.000Z</time>
      </trkpt>
      <trkpt lat="43.93958" lon="1.88098">
        <ele>862</ele>
        <time>2019-06-27T17:15:08.000Z</time>
      </trkpt>
      <trkpt lat="43.93956" lon="1.88098">
        <ele>862.20001220703</ele>
        <time>2019-06-27T17:15:09.000Z</time>
      </trkpt>
      <trkpt lat="43.93954" lon="1.88097">
        <ele>862.20001220703</ele>
        <time>2019-06-27T17:15:10.000Z</time>
      </trkpt>
      <trkpt lat="43.93952" lon="1.88096">
        <ele>862.40002441406</ele>
        <time>2019-06-27T17:15:11.000Z</time>
      </trkpt>
      <trkpt lat="43.9395" lon="1.88095">
        <ele>862.59997558594</ele>
        <time>2019-06-27T17:15:12.000Z</time>
      </trkpt>
      <trkpt lat="43.93948" lon="1.88095">
        <ele>863</ele>
        <time>2019-06-27T17:15:13.000Z</time>
      </trkpt>
      <trkpt lat="43.93946" lon="1.88094">
        <ele>863.20001220703</ele>
        <time>2019-06-27T17:15:14.000Z</time>
      </trkpt>
      <trkpt lat="43.93943" lon="1.88093">
        <ele>863.59997558594</ele>
        <time>2019-06-27T17:15:15.000Z</time>
      </trkpt>
      <trkpt lat="43.93941" lon="1.88092">
        <ele>863.79998779297</ele>
        <time>2019-06-27T17:15:16.000Z</time>
      </trkpt>
      <trkpt lat="43.93939" lon="1.88091">
        <ele>864</ele>
        <time>2019-06-27T17:15:17.000Z</time>
      </trkpt>
      <trkpt lat="43.93937" lon="1.8809">
        <ele>864.20001220703</ele>
        <time>2019-06-27T17:15:18.000Z</time>
      </trkpt>
      <trkpt lat="43.93935" lon="1.8809">
        <ele>864.40002441406</ele>
        <time>2019-06-27T17:15:19.000Z</time>
      </trkpt>
      <trkpt lat="43.93934" lon="1.88089">
        <ele>864.59997558594</ele>
        <time>2019-06-27T17:15:20.000Z</time>
      </trkpt>
      <trkpt lat="43.93932" lon="1.88089">
        <ele>864.79998779297</ele>
        <time>2019-06-27T17:15:21.000Z</time>
      </trkpt>
      <trkpt lat="43.9393" lon="1.88088">
        <ele>864.79998779297</ele>
        <time>2019-06-27T17:15:22.000Z</time>
      </trkpt>
      <trkpt lat="43.93929" lon="1.88088">
        <ele>864.79998779297</ele>
        <time>2019-06-27T17:15:23.000Z</time>
      </trkpt>
      <trkpt lat="43.93927" lon="1.88087">
        <ele>865</ele>
        <time>2019-06-27T17:15:24.000Z</time>
      </trkpt>
      <trkpt lat="43.93925" lon="1.88087">
        <ele>865.20001220703</ele>
        <time>2019-06-27T17:15:25.000Z</time>
      </trkpt>
      <trkpt lat="43.93923" lon="1.88086">
        <ele>865.20001220703</ele>
        <time>2019-06-27T17:15:26.000Z</time>
      </trkpt>
      <trkpt lat="43.93922" lon="1.88085">
        <ele>865.40002441406</ele>
        <time>2019-06-27T17:15:27.000Z</time>
      </trkpt>
      <trkpt lat="43.93921" lon="1.88084">
        <ele>865.59997558594</ele>
        <time>2019-06-27T17:15:28.000Z</time>
      </trkpt>
      <trkpt lat="43.93919" lon="1.88084">
        <ele>865.59997558594</ele>
        <time>2019-06-27T17:15:29.000Z</time>
      </trkpt>
      <trkpt lat="43.93918" lon="1.88083">
        <ele>865.79998779297</ele>
        <time>2019-06-27T17:15:30.000Z</time>
      </trkpt>
      <trkpt lat="43.93917" lon="1.88082">
        <ele>866</ele>
        <time>2019-06-27T17:15:31.000Z</time>
      </trkpt>
      <trkpt lat="43.93915" lon="1.88082">
        <ele>866.20001220703</ele>
        <time>2019-06-27T17:15:32.000Z</time>
      </trkpt>
      <trkpt lat="43.93914" lon="1.88081">
        <ele>866.40002441406</ele>
        <time>2019-06-27T17:15:33.000Z</time>
      </trkpt>
      <trkpt lat="43.93912" lon="1.8808">
        <ele>866.40002441406</ele>
        <time>2019-06-27T17:15:34.000Z</time>
      </trkpt>
      <trkpt lat="43.93911" lon="1.88079">
        <ele>866.59997558594</ele>
        <time>2019-06-27T17:15:35.000Z</time>
      </trkpt>
      <trkpt lat="43.93909" lon="1.88078">
        <ele>866.79998779297</ele>
        <time>2019-06-27T17:15:36.000Z</time>
      </trkpt>
      <trkpt lat="43.93907" lon="1.88077">
        <ele>867</ele>
        <time>2019-06-27T17:15:37.000Z</time>
      </trkpt>
      <trkpt lat="43.93906" lon="1.88076">
        <ele>867.20001220703</ele>
        <time>2019-06-27T17:15:38.000Z</time>
      </trkpt>
      <trkpt lat="43.93904" lon="1.88074">
        <ele>867.20001220703</ele>
        <time>2019-06-27T17:15:39.000Z</time>
      </trkpt>
      <trkpt lat="43.93903" lon="1.88073">
        <ele>867.40002441406</ele>
        <time>2019-06-27T17:15:40.000Z</time>
      </trkpt>
      <trkpt lat="43.93902" lon="1.88072">
        <ele>867.79998779297</ele>
        <time>2019-06-27T17:15:41.000Z</time>
      </trkpt>
      <trkpt lat="43.93901" lon="1.8807">
        <ele>868</ele>
        <time>2019-06-27T17:15:42.000Z</time>
      </trkpt>
      <trkpt lat="43.939" lon="1.88068">
        <ele>868</ele>
        <time>2019-06-27T17:15:43.000Z</time>
      </trkpt>
      <trkpt lat="43.93899" lon="1.88066">
        <ele>868.20001220703</ele>
        <time>2019-06-27T17:15:44.000Z</time>
      </trkpt>
      <trkpt lat="43.93898" lon="1.88065">
        <ele>868.40002441406</ele>
        <time>2019-06-27T17:15:45.000Z</time>
      </trkpt>
      <trkpt lat="43.93897" lon="1.88063">
        <ele>868.40002441406</ele>
        <time>2019-06-27T17:15:46.000Z</time>
      </trkpt>
      <trkpt lat="43.93896" lon="1.88061">
        <ele>868.59997558594</ele>
        <time>2019-06-27T17:15:47.000Z</time>
      </trkpt>
      <trkpt lat="43.93895" lon="1.8806">
        <ele>868.79998779297</ele>
        <time>2019-06-27T17:15:48.000Z</time>
      </trkpt>
      <trkpt lat="43.93894" lon="1.88058">
        <ele>868.79998779297</ele>
        <time>2019-06-27T17:15:49.000Z</time>
      </trkpt>
      <trkpt lat="43.93893" lon="1.88056">
        <ele>869.20001220703</ele>
        <time>2019-06-27T17:15:50.000Z</time>
      </trkpt>
      <trkpt lat="43.93892" lon="1.88054">
        <ele>869.20001220703</ele>
        <time>2019-06-27T17:15:51.000Z</time>
      </trkpt>
      <trkpt lat="43.93891" lon="1.88053">
        <ele>869.40002441406</ele>
        <time>2019-06-27T17:15:52.000Z</time>
      </trkpt>
      <trkpt lat="43.9389" lon="1.88051">
        <ele>869.59997558594</ele>
        <time>2019-06-27T17:15:53.000Z</time>
      </trkpt>
      <trkpt lat="43.93889" lon="1.88049">
        <ele>869.59997558594</ele>
        <time>2019-06-27T17:15:54.000Z</time>
      </trkpt>
      <trkpt lat="43.93889" lon="1.88048">
        <ele>869.79998779297</ele>
        <time>2019-06-27T17:15:55.000Z</time>
      </trkpt>
      <trkpt lat="43.93888" lon="1.88046">
        <ele>870.20001220703</ele>
        <time>2019-06-27T17:15:56.000Z</time>
      </trkpt>
      <trkpt lat="43.93887" lon="1.88045">
        <ele>870.40002441406</ele>
        <time>2019-06-27T17:15:57.000Z</time>
      </trkpt>
      <trkpt lat="43.93886" lon="1.88043">
        <ele>870.40002441406</ele>
        <time>2019-06-27T17:15:58.000Z</time>
      </trkpt>
      <trkpt lat="43.93885" lon="1.88042">
        <ele>870.59997558594</ele>
        <time>2019-06-27T17:15:59.000Z</time>
      </trkpt>
      <trkpt lat="43.93884" lon="1.8804">
        <ele>870.79998779297</ele>
        <time>2019-06-27T17:16:00.000Z</time>
      </trkpt>
      <trkpt lat="43.93884" lon="1.88038">
        <ele>871</ele>
        <time>2019-06-27T17:16:01.000Z</time>
      </trkpt>
      <trkpt lat="43.93883" lon="1.88037">
        <ele>871</ele>
        <time>2019-06-27T17:16:02.000Z</time>
      </trkpt>
      <trkpt lat="43.93882" lon="1.88035">
        <ele>871.20001220703</ele>
        <time>2019-06-27T17:16:03.000Z</time>
      </trkpt>
      <trkpt lat="43.93881" lon="1.88034">
        <ele>871.40002441406</ele>
        <time>2019-06-27T17:16:04.000Z</time>
      </trkpt>
      <trkpt lat="43.93881" lon="1.88032">
        <ele>871.59997558594</ele>
        <time>2019-06-27T17:16:05.000Z</time>
      </trkpt>
      <trkpt lat="43.9388" lon="1.88031">
        <ele>872</ele>
        <time>2019-06-27T17:16:06.000Z</time>
      </trkpt>
      <trkpt lat="43.93878" lon="1.88029">
        <ele>872.20001220703</ele>
        <time>2019-06-27T17:16:07.000Z</time>
      </trkpt>
      <trkpt lat="43.93877" lon="1.88028">
        <ele>872.40002441406</ele>
        <time>2019-06-27T17:16:08.000Z</time>
      </trkpt>
      <trkpt lat="43.93876" lon="1.88026">
        <ele>872.40002441406</ele>
        <time>2019-06-27T17:16:09.000Z</time>
      </trkpt>
      <trkpt lat="43.93875" lon="1.88025">
        <ele>872.79998779297</ele>
        <time>2019-06-27T17:16:10.000Z</time>
      </trkpt>
      <trkpt lat="43.93874" lon="1.88023">
        <ele>872.79998779297</ele>
        <time>2019-06-27T17:16:11.000Z</time>
      </trkpt>
      <trkpt lat="43.93874" lon="1.88022">
        <ele>873</ele>
        <time>2019-06-27T17:16:12.000Z</time>
      </trkpt>
      <trkpt lat="43.93873" lon="1.8802">
        <ele>873.20001220703</ele>
        <time>2019-06-27T17:16:13.000Z</time>
      </trkpt>
      <trkpt lat="43.93872" lon="1.88018">
        <ele>873.40002441406</ele>
        <time>2019-06-27T17:16:14.000Z</time>
      </trkpt>
      <trkpt lat="43.93872" lon="1.88017">
        <ele>873.59997558594</ele>
        <time>2019-06-27T17:16:15.000Z</time>
      </trkpt>
      <trkpt lat="43.93871" lon="1.88015">
        <ele>873.59997558594</ele>
        <time>2019-06-27T17:16:16.000Z</time>
      </trkpt>
      <trkpt lat="43.9387" lon="1.88014">
        <ele>873.79998779297</ele>
        <time>2019-06-27T17:16:17.000Z</time>
      </trkpt>
      <trkpt lat="43.93869" lon="1.88012">
        <ele>874</ele>
        <time>2019-06-27T17:16:18.000Z</time>
      </trkpt>
      <trkpt lat="43.93869" lon="1.88011">
        <ele>874</ele>
        <time>2019-06-27T17:16:19.000Z</time>
      </trkpt>
      <trkpt lat="43.93868" lon="1.88009">
        <ele>874.20001220703</ele>
        <time>2019-06-27T17:16:20.000Z</time>
      </trkpt>
      <trkpt lat="43.93867" lon="1.88008">
        <ele>874.40002441406</ele>
        <time>2019-06-27T17:16:21.000Z</time>
      </trkpt>
      <trkpt lat="43.93866" lon="1.88006">
        <ele>874.40002441406</ele>
        <time>2019-06-27T17:16:22.000Z</time>
      </trkpt>
      <trkpt lat="43.93865" lon="1.88005">
        <ele>874.59997558594</ele>
        <time>2019-06-27T17:16:23.000Z</time>
      </trkpt>
      <trkpt lat="43.93864" lon="1.88003">
        <ele>874.79998779297</ele>
        <time>2019-06-27T17:16:24.000Z</time>
      </trkpt>
      <trkpt lat="43.93864" lon="1.88001">
        <ele>874.79998779297</ele>
        <time>2019-06-27T17:16:25.000Z</time>
      </trkpt>
      <trkpt lat="43.93863" lon="1.87999">
        <ele>875</ele>
        <time>2019-06-27T17:16:26.000Z</time>
      </trkpt>
      <trkpt lat="43.93862" lon="1.87998">
        <ele>875.20001220703</ele>
        <time>2019-06-27T17:16:27.000Z</time>
      </trkpt>
      <trkpt lat="43.93861" lon="1.87996">
        <ele>875.20001220703</ele>
        <time>2019-06-27T17:16:28.000Z</time>
      </trkpt>
      <trkpt lat="43.9386" lon="1.87995">
        <ele>875.40002441406</ele>
        <time>2019-06-27T17:16:29.000Z</time>
      </trkpt>
      <trkpt lat="43.93859" lon="1.87993">
        <ele>875.59997558594</ele>
        <time>2019-06-27T17:16:30.000Z</time>
      </trkpt>
      <trkpt lat="43.93859" lon="1.87992">
        <ele>875.79998779297</ele>
        <time>2019-06-27T17:16:31.000Z</time>
      </trkpt>
      <trkpt lat="43.93858" lon="1.8799">
        <ele>875.79998779297</ele>
        <time>2019-06-27T17:16:32.000Z</time>
      </trkpt>
      <trkpt lat="43.93857" lon="1.87989">
        <ele>876</ele>
        <time>2019-06-27T17:16:33.000Z</time>
      </trkpt>
      <trkpt lat="43.93856" lon="1.87987">
        <ele>876.20001220703</ele>
        <time>2019-06-27T17:16:34.000Z</time>
      </trkpt>
      <trkpt lat="43.93855" lon="1.87985">
        <ele>876.40002441406</ele>
        <time>2019-06-27T17:16:35.000Z</time>
      </trkpt>
      <trkpt lat="43.93855" lon="1.87984">
        <ele>876.59997558594</ele>
        <time>2019-06-27T17:16:36.000Z</time>
      </trkpt>
      <trkpt lat="43.93854" lon="1.87982">
        <ele>876.79998779297</ele>
        <time>2019-06-27T17:16:37.000Z</time>
      </trkpt>
      <trkpt lat="43.93852" lon="1.87981">
        <ele>876.79998779297</ele>
        <time>2019-06-27T17:16:38.000Z</time>
      </trkpt>
      <trkpt lat="43.93851" lon="1.8798">
        <ele>876.79998779297</ele>
        <time>2019-06-27T17:16:39.000Z</time>
      </trkpt>
      <trkpt lat="43.93851" lon="1.87978">
        <ele>877</ele>
        <time>2019-06-27T17:16:40.000Z</time>
      </trkpt>
      <trkpt lat="43.93849" lon="1.87977">
        <ele>877.20001220703</ele>
        <time>2019-06-27T17:16:41.000Z</time>
      </trkpt>
      <trkpt lat="43.93848" lon="1.87975">
        <ele>877.20001220703</ele>
        <time>2019-06-27T17:16:42.000Z</time>
      </trkpt>
      <trkpt lat="43.93847" lon="1.87973">
        <ele>877.40002441406</ele>
        <time>2019-06-27T17:16:43.000Z</time>
      </trkpt>
      <trkpt lat="43.93846" lon="1.87972">
        <ele>877.59997558594</ele>
        <time>2019-06-27T17:16:44.000Z</time>
      </trkpt>
      <trkpt lat="43.93845" lon="1.87971">
        <ele>877.79998779297</ele>
        <time>2019-06-27T17:16:45.000Z</time>
      </trkpt>
      <trkpt lat="43.93844" lon="1.8797">
        <ele>878</ele>
        <time>2019-06-27T17:16:46.000Z</time>
      </trkpt>
      <trkpt lat="43.93843" lon="1.87968">
        <ele>878.20001220703</ele>
        <time>2019-06-27T17:16:47.000Z</time>
      </trkpt>
      <trkpt lat="43.93842" lon="1.87967">
        <ele>878.20001220703</ele>
        <time>2019-06-27T17:16:48.000Z</time>
      </trkpt>
      <trkpt lat="43.93841" lon="1.87966">
        <ele>878.40002441406</ele>
        <time>2019-06-27T17:16:49.000Z</time>
      </trkpt>
      <trkpt lat="43.93839" lon="1.87965">
        <ele>878.59997558594</ele>
        <time>2019-06-27T17:16:50.000Z</time>
      </trkpt>
      <trkpt lat="43.93838" lon="1.87964">
        <ele>878.79998779297</ele>
        <time>2019-06-27T17:16:51.000Z</time>
      </trkpt>
      <trkpt lat="43.93837" lon="1.87963">
        <ele>879</ele>
        <time>2019-06-27T17:16:52.000Z</time>
      </trkpt>
      <trkpt lat="43.93836" lon="1.87963">
        <ele>879.20001220703</ele>
        <time>2019-06-27T17:16:53.000Z</time>
      </trkpt>
      <trkpt lat="43.93834" lon="1.87963">
        <ele>879.59997558594</ele>
        <time>2019-06-27T17:16:54.000Z</time>
      </trkpt>
      <trkpt lat="43.93833" lon="1.87963">
        <ele>879.79998779297</ele>
        <time>2019-06-27T17:16:55.000Z</time>
      </trkpt>
      <trkpt lat="43.93831" lon="1.87964">
        <ele>879.79998779297</ele>
        <time>2019-06-27T17:16:56.000Z</time>
      </trkpt>
      <trkpt lat="43.9383" lon="1.87965">
        <ele>879.79998779297</ele>
        <time>2019-06-27T17:16:57.000Z</time>
      </trkpt>
      <trkpt lat="43.93829" lon="1.87967">
        <ele>879.59997558594</ele>
        <time>2019-06-27T17:16:58.000Z</time>
      </trkpt>
      <trkpt lat="43.93828" lon="1.87969">
        <ele>879.59997558594</ele>
        <time>2019-06-27T17:16:59.000Z</time>
      </trkpt>
      <trkpt lat="43.93826" lon="1.87971">
        <ele>879.59997558594</ele>
        <time>2019-06-27T17:17:00.000Z</time>
      </trkpt>
      <trkpt lat="43.93825" lon="1.87973">
        <ele>879.59997558594</ele>
        <time>2019-06-27T17:17:01.000Z</time>
      </trkpt>
      <trkpt lat="43.93823" lon="1.87975">
        <ele>879.59997558594</ele>
        <time>2019-06-27T17:17:02.000Z</time>
      </trkpt>
      <trkpt lat="43.93822" lon="1.87977">
        <ele>879.59997558594</ele>
        <time>2019-06-27T17:17:03.000Z</time>
      </trkpt>
      <trkpt lat="43.9382" lon="1.87979">
        <ele>879.79998779297</ele>
        <time>2019-06-27T17:17:04.000Z</time>
      </trkpt>
      <trkpt lat="43.93818" lon="1.87982">
        <ele>879.79998779297</ele>
        <time>2019-06-27T17:17:05.000Z</time>
      </trkpt>
      <trkpt lat="43.93816" lon="1.87984">
        <ele>879.79998779297</ele>
        <time>2019-06-27T17:17:06.000Z</time>
      </trkpt>
      <trkpt lat="43.93814" lon="1.87988">
        <ele>879.59997558594</ele>
        <time>2019-06-27T17:17:07.000Z</time>
      </trkpt>
      <trkpt lat="43.93812" lon="1.87991">
        <ele>879.59997558594</ele>
        <time>2019-06-27T17:17:08.000Z</time>
      </trkpt>
      <trkpt lat="43.9381" lon="1.87994">
        <ele>879.40002441406</ele>
        <time>2019-06-27T17:17:09.000Z</time>
      </trkpt>
      <trkpt lat="43.93808" lon="1.87997">
        <ele>879.59997558594</ele>
        <time>2019-06-27T17:17:10.000Z</time>
      </trkpt>
      <trkpt lat="43.93805" lon="1.88001">
        <ele>879.59997558594</ele>
        <time>2019-06-27T17:17:11.000Z</time>
      </trkpt>
      <trkpt lat="43.93803" lon="1.88004">
        <ele>879.59997558594</ele>
        <time>2019-06-27T17:17:12.000Z</time>
      </trkpt>
      <trkpt lat="43.938" lon="1.88008">
        <ele>879.59997558594</ele>
        <time>2019-06-27T17:17:13.000Z</time>
      </trkpt>
      <trkpt lat="43.93797" lon="1.88012">
        <ele>879.79998779297</ele>
        <time>2019-06-27T17:17:14.000Z</time>
      </trkpt>
      <trkpt lat="43.93795" lon="1.88016">
        <ele>879.79998779297</ele>
        <time>2019-06-27T17:17:15.000Z</time>
      </trkpt>
      <trkpt lat="43.93792" lon="1.8802">
        <ele>879.79998779297</ele>
        <time>2019-06-27T17:17:16.000Z</time>
      </trkpt>
      <trkpt lat="43.93789" lon="1.88023">
        <ele>879.59997558594</ele>
        <time>2019-06-27T17:17:17.000Z</time>
      </trkpt>
      <trkpt lat="43.93786" lon="1.88027">
        <ele>879.59997558594</ele>
        <time>2019-06-27T17:17:18.000Z</time>
      </trkpt>
      <trkpt lat="43.93783" lon="1.88031">
        <ele>879.59997558594</ele>
        <time>2019-06-27T17:17:19.000Z</time>
      </trkpt>
      <trkpt lat="43.93779" lon="1.88036">
        <ele>879.59997558594</ele>
        <time>2019-06-27T17:17:20.000Z</time>
      </trkpt>
      <trkpt lat="43.93776" lon="1.8804">
        <ele>879.59997558594</ele>
        <time>2019-06-27T17:17:21.000Z</time>
      </trkpt>
      <trkpt lat="43.93773" lon="1.88045">
        <ele>879.59997558594</ele>
        <time>2019-06-27T17:17:22.000Z</time>
      </trkpt>
      <trkpt lat="43.9377" lon="1.88049">
        <ele>879.59997558594</ele>
        <time>2019-06-27T17:17:23.000Z</time>
      </trkpt>
      <trkpt lat="43.93767" lon="1.88054">
        <ele>879.59997558594</ele>
        <time>2019-06-27T17:17:24.000Z</time>
      </trkpt>
      <trkpt lat="43.93764" lon="1.88058">
        <ele>879.59997558594</ele>
        <time>2019-06-27T17:17:25.000Z</time>
      </trkpt>
      <trkpt lat="43.93761" lon="1.88063">
        <ele>879.59997558594</ele>
        <time>2019-06-27T17:17:26.000Z</time>
      </trkpt>
      <trkpt lat="43.93758" lon="1.88068">
        <ele>879.59997558594</ele>
        <time>2019-06-27T17:17:27.000Z</time>
      </trkpt>
      <trkpt lat="43.93754" lon="1.88072">
        <ele>879.40002441406</ele>
        <time>2019-06-27T17:17:28.000Z</time>
      </trkpt>
      <trkpt lat="43.93751" lon="1.88077">
        <ele>879.40002441406</ele>
        <time>2019-06-27T17:17:29.000Z</time>
      </trkpt>
      <trkpt lat="43.93748" lon="1.88081">
        <ele>879.20001220703</ele>
        <time>2019-06-27T17:17:30.000Z</time>
      </trkpt>
      <trkpt lat="43.93745" lon="1.88086">
        <ele>879.20001220703</ele>
        <time>2019-06-27T17:17:31.000Z</time>
      </trkpt>
      <trkpt lat="43.93741" lon="1.8809">
        <ele>879.20001220703</ele>
        <time>2019-06-27T17:17:32.000Z</time>
      </trkpt>
      <trkpt lat="43.93738" lon="1.88094">
        <ele>879.20001220703</ele>
        <time>2019-06-27T17:17:33.000Z</time>
      </trkpt>
      <trkpt lat="43.93735" lon="1.88098">
        <ele>879.20001220703</ele>
        <time>2019-06-27T17:17:34.000Z</time>
      </trkpt>
      <trkpt lat="43.93732" lon="1.88102">
        <ele>879.40002441406</ele>
        <time>2019-06-27T17:17:35.000Z</time>
      </trkpt>
      <trkpt lat="43.93729" lon="1.88105">
        <ele>879.40002441406</ele>
        <time>2019-06-27T17:17:36.000Z</time>
      </trkpt>
      <trkpt lat="43.93726" lon="1.88109">
        <ele>879.20001220703</ele>
        <time>2019-06-27T17:17:37.000Z</time>
      </trkpt>
      <trkpt lat="43.93723" lon="1.88113">
        <ele>879</ele>
        <time>2019-06-27T17:17:38.000Z</time>
      </trkpt>
      <trkpt lat="43.9372" lon="1.88116">
        <ele>879</ele>
        <time>2019-06-27T17:17:39.000Z</time>
      </trkpt>
      <trkpt lat="43.93716" lon="1.8812">
        <ele>879</ele>
        <time>2019-06-27T17:17:40.000Z</time>
      </trkpt>
      <trkpt lat="43.93713" lon="1.88124">
        <ele>879</ele>
        <time>2019-06-27T17:17:41.000Z</time>
      </trkpt>
      <trkpt lat="43.9371" lon="1.88127">
        <ele>878.79998779297</ele>
        <time>2019-06-27T17:17:42.000Z</time>
      </trkpt>
      <trkpt lat="43.93707" lon="1.8813">
        <ele>878.79998779297</ele>
        <time>2019-06-27T17:17:43.000Z</time>
      </trkpt>
      <trkpt lat="43.93703" lon="1.88133">
        <ele>878.79998779297</ele>
        <time>2019-06-27T17:17:44.000Z</time>
      </trkpt>
      <trkpt lat="43.937" lon="1.88135">
        <ele>878.59997558594</ele>
        <time>2019-06-27T17:17:45.000Z</time>
      </trkpt>
      <trkpt lat="43.93697" lon="1.88137">
        <ele>878.79998779297</ele>
        <time>2019-06-27T17:17:46.000Z</time>
      </trkpt>
      <trkpt lat="43.93694" lon="1.88139">
        <ele>878.59997558594</ele>
        <time>2019-06-27T17:17:47.000Z</time>
      </trkpt>
      <trkpt lat="43.93691" lon="1.88141">
        <ele>878.79998779297</ele>
        <time>2019-06-27T17:17:48.000Z</time>
      </trkpt>
      <trkpt lat="43.93688" lon="1.88142">
        <ele>878.59997558594</ele>
        <time>2019-06-27T17:17:49.000Z</time>
      </trkpt>
      <trkpt lat="43.93685" lon="1.88143">
        <ele>878.59997558594</ele>
        <time>2019-06-27T17:17:50.000Z</time>
      </trkpt>
      <trkpt lat="43.93682" lon="1.88145">
        <ele>878.59997558594</ele>
        <time>2019-06-27T17:17:51.000Z</time>
      </trkpt>
      <trkpt lat="43.93679" lon="1.88146">
        <ele>878.79998779297</ele>
        <time>2019-06-27T17:17:52.000Z</time>
      </trkpt>
      <trkpt lat="43.93675" lon="1.88148">
        <ele>878.59997558594</ele>
        <time>2019-06-27T17:17:53.000Z</time>
      </trkpt>
      <trkpt lat="43.93671" lon="1.88149">
        <ele>878.59997558594</ele>
        <time>2019-06-27T17:17:54.000Z</time>
      </trkpt>
      <trkpt lat="43.93667" lon="1.88151">
        <ele>878.59997558594</ele>
        <time>2019-06-27T17:17:55.000Z</time>
      </trkpt>
      <trkpt lat="43.93662" lon="1.88154">
        <ele>878.59997558594</ele>
        <time>2019-06-27T17:17:56.000Z</time>
      </trkpt>
      <trkpt lat="43.93658" lon="1.88157">
        <ele>878.40002441406</ele>
        <time>2019-06-27T17:17:57.000Z</time>
      </trkpt>
      <trkpt lat="43.93653" lon="1.8816">
        <ele>878.20001220703</ele>
        <time>2019-06-27T17:17:58.000Z</time>
      </trkpt>
      <trkpt lat="43.93649" lon="1.88164">
        <ele>878</ele>
        <time>2019-06-27T17:17:59.000Z</time>
      </trkpt>
      <trkpt lat="43.93644" lon="1.88168">
        <ele>877.59997558594</ele>
        <time>2019-06-27T17:18:00.000Z</time>
      </trkpt>
      <trkpt lat="43.9364" lon="1.88173">
        <ele>877</ele>
        <time>2019-06-27T17:18:01.000Z</time>
      </trkpt>
      <trkpt lat="43.93636" lon="1.88178">
        <ele>876.59997558594</ele>
        <time>2019-06-27T17:18:02.000Z</time>
      </trkpt>
      <trkpt lat="43.93632" lon="1.88184">
        <ele>876</ele>
        <time>2019-06-27T17:18:03.000Z</time>
      </trkpt>
      <trkpt lat="43.93628" lon="1.8819">
        <ele>875.59997558594</ele>
        <time>2019-06-27T17:18:04.000Z</time>
      </trkpt>
      <trkpt lat="43.93624" lon="1.88196">
        <ele>875.20001220703</ele>
        <time>2019-06-27T17:18:05.000Z</time>
      </trkpt>
      <trkpt lat="43.93619" lon="1.88202">
        <ele>874.59997558594</ele>
        <time>2019-06-27T17:18:06.000Z</time>
      </trkpt>
      <trkpt lat="43.93615" lon="1.88209">
        <ele>874.40002441406</ele>
        <time>2019-06-27T17:18:07.000Z</time>
      </trkpt>
      <trkpt lat="43.9361" lon="1.88216">
        <ele>874</ele>
        <time>2019-06-27T17:18:08.000Z</time>
      </trkpt>
      <trkpt lat="43.93605" lon="1.88223">
        <ele>873.79998779297</ele>
        <time>2019-06-27T17:18:09.000Z</time>
      </trkpt>
      <trkpt lat="43.936" lon="1.8823">
        <ele>873</ele>
        <time>2019-06-27T17:18:10.000Z</time>
      </trkpt>
      <trkpt lat="43.93596" lon="1.88237">
        <ele>872.40002441406</ele>
        <time>2019-06-27T17:18:11.000Z</time>
      </trkpt>
      <trkpt lat="43.93593" lon="1.88244">
        <ele>871.79998779297</ele>
        <time>2019-06-27T17:18:12.000Z</time>
      </trkpt>
      <trkpt lat="43.93591" lon="1.88252">
        <ele>871.20001220703</ele>
        <time>2019-06-27T17:18:13.000Z</time>
      </trkpt>
      <trkpt lat="43.93589" lon="1.88261">
        <ele>871</ele>
        <time>2019-06-27T17:18:14.000Z</time>
      </trkpt>
      <trkpt lat="43.93587" lon="1.88269">
        <ele>870.40002441406</ele>
        <time>2019-06-27T17:18:15.000Z</time>
      </trkpt>
      <trkpt lat="43.93585" lon="1.88278">
        <ele>870.20001220703</ele>
        <time>2019-06-27T17:18:16.000Z</time>
      </trkpt>
      <trkpt lat="43.93583" lon="1.88286">
        <ele>869.79998779297</ele>
        <time>2019-06-27T17:18:17.000Z</time>
      </trkpt>
      <trkpt lat="43.93582" lon="1.88295">
        <ele>869.59997558594</ele>
        <time>2019-06-27T17:18:18.000Z</time>
      </trkpt>
      <trkpt lat="43.9358" lon="1.88304">
        <ele>869.20001220703</ele>
        <time>2019-06-27T17:18:19.000Z</time>
      </trkpt>
      <trkpt lat="43.93577" lon="1.88312">
        <ele>869.20001220703</ele>
        <time>2019-06-27T17:18:20.000Z</time>
      </trkpt>
      <trkpt lat="43.93572" lon="1.8832">
        <ele>868.79998779297</ele>
        <time>2019-06-27T17:18:21.000Z</time>
      </trkpt>
      <trkpt lat="43.93568" lon="1.88328">
        <ele>868.59997558594</ele>
        <time>2019-06-27T17:18:22.000Z</time>
      </trkpt>
      <trkpt lat="43.93565" lon="1.88337">
        <ele>868</ele>
        <time>2019-06-27T17:18:23.000Z</time>
      </trkpt>
      <trkpt lat="43.93561" lon="1.88345">
        <ele>868</ele>
        <time>2019-06-27T17:18:24.000Z</time>
      </trkpt>
      <trkpt lat="43.93558" lon="1.88353">
        <ele>867.79998779297</ele>
        <time>2019-06-27T17:18:25.000Z</time>
      </trkpt>
      <trkpt lat="43.93556" lon="1.8836">
        <ele>867.59997558594</ele>
        <time>2019-06-27T17:18:26.000Z</time>
      </trkpt>
      <trkpt lat="43.93554" lon="1.88367">
        <ele>867.40002441406</ele>
        <time>2019-06-27T17:18:27.000Z</time>
      </trkpt>
      <trkpt lat="43.93553" lon="1.88374">
        <ele>867.20001220703</ele>
        <time>2019-06-27T17:18:28.000Z</time>
      </trkpt>
      <trkpt lat="43.93551" lon="1.8838">
        <ele>866.79998779297</ele>
        <time>2019-06-27T17:18:29.000Z</time>
      </trkpt>
      <trkpt lat="43.93549" lon="1.88386">
        <ele>866</ele>
        <time>2019-06-27T17:18:30.000Z</time>
      </trkpt>
      <trkpt lat="43.93547" lon="1.88392">
        <ele>866.20001220703</ele>
        <time>2019-06-27T17:18:31.000Z</time>
      </trkpt>
      <trkpt lat="43.93545" lon="1.88398">
        <ele>866.20001220703</ele>
        <time>2019-06-27T17:18:32.000Z</time>
      </trkpt>
      <trkpt lat="43.93543" lon="1.88404">
        <ele>866.20001220703</ele>
        <time>2019-06-27T17:18:33.000Z</time>
      </trkpt>
      <trkpt lat="43.93542" lon="1.8841">
        <ele>866.20001220703</ele>
        <time>2019-06-27T17:18:34.000Z</time>
      </trkpt>
      <trkpt lat="43.9354" lon="1.88416">
        <ele>865.79998779297</ele>
        <time>2019-06-27T17:18:35.000Z</time>
      </trkpt>
      <trkpt lat="43.93539" lon="1.88424">
        <ele>865.40002441406</ele>
        <time>2019-06-27T17:18:36.000Z</time>
      </trkpt>
      <trkpt lat="43.93537" lon="1.88433">
        <ele>865</ele>
        <time>2019-06-27T17:18:37.000Z</time>
      </trkpt>
      <trkpt lat="43.93535" lon="1.88442">
        <ele>864.40002441406</ele>
        <time>2019-06-27T17:18:38.000Z</time>
      </trkpt>
      <trkpt lat="43.93533" lon="1.88451">
        <ele>864.20001220703</ele>
        <time>2019-06-27T17:18:39.000Z</time>
      </trkpt>
      <trkpt lat="43.93531" lon="1.88462">
        <ele>863.59997558594</ele>
        <time>2019-06-27T17:18:40.000Z</time>
      </trkpt>
      <trkpt lat="43.93528" lon="1.88472">
        <ele>863</ele>
        <time>2019-06-27T17:18:41.000Z</time>
      </trkpt>
      <trkpt lat="43.93525" lon="1.88483">
        <ele>862</ele>
        <time>2019-06-27T17:18:42.000Z</time>
      </trkpt>
      <trkpt lat="43.93521" lon="1.88493">
        <ele>861.59997558594</ele>
        <time>2019-06-27T17:18:43.000Z</time>
      </trkpt>
      <trkpt lat="43.93516" lon="1.88503">
        <ele>860.79998779297</ele>
        <time>2019-06-27T17:18:44.000Z</time>
      </trkpt>
      <trkpt lat="43.93512" lon="1.88513">
        <ele>860.59997558594</ele>
        <time>2019-06-27T17:18:45.000Z</time>
      </trkpt>
      <trkpt lat="43.93507" lon="1.88522">
        <ele>860.20001220703</ele>
        <time>2019-06-27T17:18:46.000Z</time>
      </trkpt>
      <trkpt lat="43.93502" lon="1.88531">
        <ele>859.79998779297</ele>
        <time>2019-06-27T17:18:47.000Z</time>
      </trkpt>
      <trkpt lat="43.93498" lon="1.88539">
        <ele>859</ele>
        <time>2019-06-27T17:18:48.000Z</time>
      </trkpt>
      <trkpt lat="43.93492" lon="1.88546">
        <ele>858.20001220703</ele>
        <time>2019-06-27T17:18:49.000Z</time>
      </trkpt>
      <trkpt lat="43.93486" lon="1.88554">
        <ele>857.79998779297</ele>
        <time>2019-06-27T17:18:50.000Z</time>
      </trkpt>
      <trkpt lat="43.93481" lon="1.88562">
        <ele>857.40002441406</ele>
        <time>2019-06-27T17:18:51.000Z</time>
      </trkpt>
      <trkpt lat="43.93476" lon="1.8857">
        <ele>856.79998779297</ele>
        <time>2019-06-27T17:18:52.000Z</time>
      </trkpt>
      <trkpt lat="43.93471" lon="1.88579">
        <ele>856.20001220703</ele>
        <time>2019-06-27T17:18:53.000Z</time>
      </trkpt>
      <trkpt lat="43.93466" lon="1.88589">
        <ele>855.40002441406</ele>
        <time>2019-06-27T17:18:54.000Z</time>
      </trkpt>
      <trkpt lat="43.93461" lon="1.88597">
        <ele>854.79998779297</ele>
        <time>2019-06-27T17:18:55.000Z</time>
      </trkpt>
      <trkpt lat="43.93454" lon="1.88604">
        <ele>854.59997558594</ele>
        <time>2019-06-27T17:18:56.000Z</time>
      </trkpt>
      <trkpt lat="43.93446" lon="1.88608">
        <ele>854.59997558594</ele>
        <time>2019-06-27T17:18:57.000Z</time>
      </trkpt>
      <trkpt lat="43.93439" lon="1.88612">
        <ele>854.59997558594</ele>
        <time>2019-06-27T17:18:58.000Z</time>
      </trkpt>
      <trkpt lat="43.93431" lon="1.88615">
        <ele>854.59997558594</ele>
        <time>2019-06-27T17:18:59.000Z</time>
      </trkpt>
      <trkpt lat="43.93423" lon="1.88618">
        <ele>854.20001220703</ele>
        <time>2019-06-27T17:19:00.000Z</time>
      </trkpt>
      <trkpt lat="43.93415" lon="1.88618">
        <ele>853.79998779297</ele>
        <time>2019-06-27T17:19:01.000Z</time>
      </trkpt>
      <trkpt lat="43.93408" lon="1.88619">
        <ele>853.59997558594</ele>
        <time>2019-06-27T17:19:02.000Z</time>
      </trkpt>
      <trkpt lat="43.934" lon="1.8862">
        <ele>853.59997558594</ele>
        <time>2019-06-27T17:19:03.000Z</time>
      </trkpt>
      <trkpt lat="43.93393" lon="1.88622">
        <ele>853.20001220703</ele>
        <time>2019-06-27T17:19:04.000Z</time>
      </trkpt>
      <trkpt lat="43.93386" lon="1.88623">
        <ele>852.59997558594</ele>
        <time>2019-06-27T17:19:05.000Z</time>
      </trkpt>
      <trkpt lat="43.93379" lon="1.88624">
        <ele>852.40002441406</ele>
        <time>2019-06-27T17:19:06.000Z</time>
      </trkpt>
      <trkpt lat="43.93372" lon="1.88624">
        <ele>852.20001220703</ele>
        <time>2019-06-27T17:19:07.000Z</time>
      </trkpt>
      <trkpt lat="43.93366" lon="1.88624">
        <ele>852</ele>
        <time>2019-06-27T17:19:08.000Z</time>
      </trkpt>
      <trkpt lat="43.93359" lon="1.88622">
        <ele>851.59997558594</ele>
        <time>2019-06-27T17:19:09.000Z</time>
      </trkpt>
      <trkpt lat="43.93354" lon="1.8862">
        <ele>851.59997558594</ele>
        <time>2019-06-27T17:19:10.000Z</time>
      </trkpt>
      <trkpt lat="43.93348" lon="1.88617">
        <ele>851.40002441406</ele>
        <time>2019-06-27T17:19:11.000Z</time>
      </trkpt>
      <trkpt lat="43.93343" lon="1.88614">
        <ele>851.40002441406</ele>
        <time>2019-06-27T17:19:12.000Z</time>
      </trkpt>
      <trkpt lat="43.93338" lon="1.8861">
        <ele>851.40002441406</ele>
        <time>2019-06-27T17:19:13.000Z</time>
      </trkpt>
      <trkpt lat="43.93333" lon="1.88607">
        <ele>851.20001220703</ele>
        <time>2019-06-27T17:19:14.000Z</time>
      </trkpt>
      <trkpt lat="43.93328" lon="1.88604">
        <ele>851</ele>
        <time>2019-06-27T17:19:15.000Z</time>
      </trkpt>
      <trkpt lat="43.93323" lon="1.88601">
        <ele>850.59997558594</ele>
        <time>2019-06-27T17:19:16.000Z</time>
      </trkpt>
      <trkpt lat="43.93319" lon="1.88598">
        <ele>850.40002441406</ele>
        <time>2019-06-27T17:19:17.000Z</time>
      </trkpt>
      <trkpt lat="43.93314" lon="1.88595">
        <ele>850.40002441406</ele>
        <time>2019-06-27T17:19:18.000Z</time>
      </trkpt>
      <trkpt lat="43.9331" lon="1.88592">
        <ele>850.40002441406</ele>
        <time>2019-06-27T17:19:19.000Z</time>
      </trkpt>
      <trkpt lat="43.93306" lon="1.88589">
        <ele>850.20001220703</ele>
        <time>2019-06-27T17:19:20.000Z</time>
      </trkpt>
      <trkpt lat="43.93303" lon="1.88586">
        <ele>850.20001220703</ele>
        <time>2019-06-27T17:19:21.000Z</time>
      </trkpt>
      <trkpt lat="43.93299" lon="1.88582">
        <ele>850</ele>
        <time>2019-06-27T17:19:22.000Z</time>
      </trkpt>
      <trkpt lat="43.93296" lon="1.88578">
        <ele>850.20001220703</ele>
        <time>2019-06-27T17:19:23.000Z</time>
      </trkpt>
      <trkpt lat="43.93293" lon="1.88574">
        <ele>850.20001220703</ele>
        <time>2019-06-27T17:19:24.000Z</time>
      </trkpt>
      <trkpt lat="43.93289" lon="1.88571">
        <ele>850.20001220703</ele>
        <time>2019-06-27T17:19:25.000Z</time>
      </trkpt>
      <trkpt lat="43.93286" lon="1.88568">
        <ele>850</ele>
        <time>2019-06-27T17:19:26.000Z</time>
      </trkpt>
      <trkpt lat="43.93282" lon="1.88566">
        <ele>850</ele>
        <time>2019-06-27T17:19:27.000Z</time>
      </trkpt>
      <trkpt lat="43.93278" lon="1.88565">
        <ele>850</ele>
        <time>2019-06-27T17:19:28.000Z</time>
      </trkpt>
      <trkpt lat="43.93275" lon="1.88565">
        <ele>850</ele>
        <time>2019-06-27T17:19:29.000Z</time>
      </trkpt>
      <trkpt lat="43.93271" lon="1.88564">
        <ele>850.20001220703</ele>
        <time>2019-06-27T17:19:30.000Z</time>
      </trkpt>
      <trkpt lat="43.93267" lon="1.88564">
        <ele>850.20001220703</ele>
        <time>2019-06-27T17:19:31.000Z</time>
      </trkpt>
      <trkpt lat="43.93263" lon="1.88565">
        <ele>850.40002441406</ele>
        <time>2019-06-27T17:19:32.000Z</time>
      </trkpt>
      <trkpt lat="43.93258" lon="1.88565">
        <ele>850.20001220703</ele>
        <time>2019-06-27T17:19:33.000Z</time>
      </trkpt>
      <trkpt lat="43.93255" lon="1.88566">
        <ele>850.40002441406</ele>
        <time>2019-06-27T17:19:34.000Z</time>
      </trkpt>
      <trkpt lat="43.93251" lon="1.88567">
        <ele>850.20001220703</ele>
        <time>2019-06-27T17:19:35.000Z</time>
      </trkpt>
      <trkpt lat="43.93248" lon="1.88566">
        <ele>850.20001220703</ele>
        <time>2019-06-27T17:19:36.000Z</time>
      </trkpt>
      <trkpt lat="43.93246" lon="1.88564">
        <ele>850.20001220703</ele>
        <time>2019-06-27T17:19:37.000Z</time>
      </trkpt>
      <trkpt lat="43.93245" lon="1.88561">
        <ele>850.20001220703</ele>
        <time>2019-06-27T17:19:38.000Z</time>
      </trkpt>
      <trkpt lat="43.93246" lon="1.88558">
        <ele>850.20001220703</ele>
        <time>2019-06-27T17:19:39.000Z</time>
      </trkpt>
      <trkpt lat="43.93246" lon="1.88555">
        <ele>850.20001220703</ele>
        <time>2019-06-27T17:19:40.000Z</time>
      </trkpt>
      <trkpt lat="43.93248" lon="1.88552">
        <ele>850.20001220703</ele>
        <time>2019-06-27T17:19:41.000Z</time>
      </trkpt>
      <trkpt lat="43.93248" lon="1.8855">
        <ele>850.20001220703</ele>
        <time>2019-06-27T17:19:42.000Z</time>
      </trkpt>
      <trkpt lat="43.9325" lon="1.88547">
        <ele>850.40002441406</ele>
        <time>2019-06-27T17:19:43.000Z</time>
      </trkpt>
      <trkpt lat="43.93251" lon="1.88545">
        <ele>850.40002441406</ele>
        <time>2019-06-27T17:19:44.000Z</time>
      </trkpt>
      <trkpt lat="43.93252" lon="1.88542">
        <ele>850.40002441406</ele>
        <time>2019-06-27T17:19:45.000Z</time>
      </trkpt>
      <trkpt lat="43.93253" lon="1.8854">
        <ele>850.59997558594</ele>
        <time>2019-06-27T17:19:46.000Z</time>
      </trkpt>
      <trkpt lat="43.93254" lon="1.88537">
        <ele>850.59997558594</ele>
        <time>2019-06-27T17:19:47.000Z</time>
      </trkpt>
      <trkpt lat="43.93256" lon="1.88535">
        <ele>850.59997558594</ele>
        <time>2019-06-27T17:19:48.000Z</time>
      </trkpt>
      <trkpt lat="43.93257" lon="1.88532">
        <ele>850.79998779297</ele>
        <time>2019-06-27T17:19:49.000Z</time>
      </trkpt>
      <trkpt lat="43.93258" lon="1.88529">
        <ele>851</ele>
        <time>2019-06-27T17:19:50.000Z</time>
      </trkpt>
      <trkpt lat="43.9326" lon="1.88526">
        <ele>851</ele>
        <time>2019-06-27T17:19:51.000Z</time>
      </trkpt>
      <trkpt lat="43.93261" lon="1.88523">
        <ele>851</ele>
        <time>2019-06-27T17:19:52.000Z</time>
      </trkpt>
      <trkpt lat="43.93262" lon="1.8852">
        <ele>851</ele>
        <time>2019-06-27T17:19:53.000Z</time>
      </trkpt>
      <trkpt lat="43.93264" lon="1.88517">
        <ele>851.20001220703</ele>
        <time>2019-06-27T17:19:54.000Z</time>
      </trkpt>
      <trkpt lat="43.93266" lon="1.88515">
        <ele>851.40002441406</ele>
        <time>2019-06-27T17:19:55.000Z</time>
      </trkpt>
      <trkpt lat="43.93268" lon="1.88512">
        <ele>851.40002441406</ele>
        <time>2019-06-27T17:19:56.000Z</time>
      </trkpt>
      <trkpt lat="43.9327" lon="1.88508">
        <ele>851.59997558594</ele>
        <time>2019-06-27T17:19:57.000Z</time>
      </trkpt>
      <trkpt lat="43.93272" lon="1.88505">
        <ele>851.40002441406</ele>
        <time>2019-06-27T17:19:58.000Z</time>
      </trkpt>
      <trkpt lat="43.93274" lon="1.88501">
        <ele>851.40002441406</ele>
        <time>2019-06-27T17:19:59.000Z</time>
      </trkpt>
      <trkpt lat="43.93276" lon="1.88496">
        <ele>851.40002441406</ele>
        <time>2019-06-27T17:20:00.000Z</time>
      </trkpt>
      <trkpt lat="43.93279" lon="1.88492">
        <ele>851.40002441406</ele>
        <time>2019-06-27T17:20:01.000Z</time>
      </trkpt>
      <trkpt lat="43.93281" lon="1.88489">
        <ele>851.40002441406</ele>
        <time>2019-06-27T17:20:02.000Z</time>
      </trkpt>
      <trkpt lat="43.93284" lon="1.88485">
        <ele>851.59997558594</ele>
        <time>2019-06-27T17:20:03.000Z</time>
      </trkpt>
      <trkpt lat="43.93286" lon="1.88482">
        <ele>851.79998779297</ele>
        <time>2019-06-27T17:20:04.000Z</time>
      </trkpt>
      <trkpt lat="43.93288" lon="1.88478">
        <ele>851.79998779297</ele>
        <time>2019-06-27T17:20:05.000Z</time>
      </trkpt>
      <trkpt lat="43.9329" lon="1.88474">
        <ele>851.79998779297</ele>
        <time>2019-06-27T17:20:06.000Z</time>
      </trkpt>
      <trkpt lat="43.93292" lon="1.88471">
        <ele>852</ele>
        <time>2019-06-27T17:20:07.000Z</time>
      </trkpt>
      <trkpt lat="43.93294" lon="1.88468">
        <ele>852.20001220703</ele>
        <time>2019-06-27T17:20:08.000Z</time>
      </trkpt>
      <trkpt lat="43.93296" lon="1.88465">
        <ele>852.20001220703</ele>
        <time>2019-06-27T17:20:09.000Z</time>
      </trkpt>
      <trkpt lat="43.93298" lon="1.88461">
        <ele>852.20001220703</ele>
        <time>2019-06-27T17:20:10.000Z</time>
      </trkpt>
      <trkpt lat="43.933" lon="1.88458">
        <ele>852.20001220703</ele>
        <time>2019-06-27T17:20:11.000Z</time>
      </trkpt>
      <trkpt lat="43.93302" lon="1.88454">
        <ele>852.20001220703</ele>
        <time>2019-06-27T17:20:12.000Z</time>
      </trkpt>
      <trkpt lat="43.93305" lon="1.88451">
        <ele>852.40002441406</ele>
        <time>2019-06-27T17:20:13.000Z</time>
      </trkpt>
      <trkpt lat="43.93307" lon="1.88447">
        <ele>852.40002441406</ele>
        <time>2019-06-27T17:20:14.000Z</time>
      </trkpt>
      <trkpt lat="43.93309" lon="1.88443">
        <ele>852.40002441406</ele>
        <time>2019-06-27T17:20:15.000Z</time>
      </trkpt>
      <trkpt lat="43.93311" lon="1.88438">
        <ele>852.59997558594</ele>
        <time>2019-06-27T17:20:16.000Z</time>
      </trkpt>
      <trkpt lat="43.93312" lon="1.88434">
        <ele>852.40002441406</ele>
        <time>2019-06-27T17:20:17.000Z</time>
      </trkpt>
      <trkpt lat="43.93314" lon="1.8843">
        <ele>852.40002441406</ele>
        <time>2019-06-27T17:20:18.000Z</time>
      </trkpt>
      <trkpt lat="43.93316" lon="1.88426">
        <ele>852.40002441406</ele>
        <time>2019-06-27T17:20:19.000Z</time>
      </trkpt>
      <trkpt lat="43.93317" lon="1.88422">
        <ele>852.40002441406</ele>
        <time>2019-06-27T17:20:20.000Z</time>
      </trkpt>
      <trkpt lat="43.93318" lon="1.88417">
        <ele>852.59997558594</ele>
        <time>2019-06-27T17:20:21.000Z</time>
      </trkpt>
      <trkpt lat="43.9332" lon="1.88413">
        <ele>852.59997558594</ele>
        <time>2019-06-27T17:20:22.000Z</time>
      </trkpt>
      <trkpt lat="43.93321" lon="1.88409">
        <ele>852.59997558594</ele>
        <time>2019-06-27T17:20:23.000Z</time>
      </trkpt>
      <trkpt lat="43.93322" lon="1.88406">
        <ele>852.59997558594</ele>
        <time>2019-06-27T17:20:24.000Z</time>
      </trkpt>
      <trkpt lat="43.93324" lon="1.88401">
        <ele>852.59997558594</ele>
        <time>2019-06-27T17:20:25.000Z</time>
      </trkpt>
      <trkpt lat="43.93325" lon="1.88397">
        <ele>852.59997558594</ele>
        <time>2019-06-27T17:20:26.000Z</time>
      </trkpt>
      <trkpt lat="43.93326" lon="1.88393">
        <ele>852.79998779297</ele>
        <time>2019-06-27T17:20:27.000Z</time>
      </trkpt>
      <trkpt lat="43.93328" lon="1.88389">
        <ele>852.79998779297</ele>
        <time>2019-06-27T17:20:28.000Z</time>
      </trkpt>
      <trkpt lat="43.93329" lon="1.88385">
        <ele>853</ele>
        <time>2019-06-27T17:20:29.000Z</time>
      </trkpt>
      <trkpt lat="43.9333" lon="1.88381">
        <ele>853</ele>
        <time>2019-06-27T17:20:30.000Z</time>
      </trkpt>
      <trkpt lat="43.93332" lon="1.88377">
        <ele>853</ele>
        <time>2019-06-27T17:20:31.000Z</time>
      </trkpt>
      <trkpt lat="43.93333" lon="1.88373">
        <ele>853</ele>
        <time>2019-06-27T17:20:32.000Z</time>
      </trkpt>
      <trkpt lat="43.93334" lon="1.88369">
        <ele>853.20001220703</ele>
        <time>2019-06-27T17:20:33.000Z</time>
      </trkpt>
      <trkpt lat="43.93335" lon="1.88365">
        <ele>853.20001220703</ele>
        <time>2019-06-27T17:20:34.000Z</time>
      </trkpt>
      <trkpt lat="43.93336" lon="1.88361">
        <ele>853.40002441406</ele>
        <time>2019-06-27T17:20:35.000Z</time>
      </trkpt>
      <trkpt lat="43.93338" lon="1.88356">
        <ele>853.40002441406</ele>
        <time>2019-06-27T17:20:36.000Z</time>
      </trkpt>
      <trkpt lat="43.93339" lon="1.88352">
        <ele>853.40002441406</ele>
        <time>2019-06-27T17:20:37.000Z</time>
      </trkpt>
      <trkpt lat="43.93341" lon="1.88347">
        <ele>853.40002441406</ele>
        <time>2019-06-27T17:20:38.000Z</time>
      </trkpt>
      <trkpt lat="43.93342" lon="1.88343">
        <ele>853.40002441406</ele>
        <time>2019-06-27T17:20:39.000Z</time>
      </trkpt>
      <trkpt lat="43.93343" lon="1.88339">
        <ele>853.59997558594</ele>
        <time>2019-06-27T17:20:40.000Z</time>
      </trkpt>
      <trkpt lat="43.93345" lon="1.88335">
        <ele>853.79998779297</ele>
        <time>2019-06-27T17:20:41.000Z</time>
      </trkpt>
      <trkpt lat="43.93346" lon="1.88331">
        <ele>853.79998779297</ele>
        <time>2019-06-27T17:20:42.000Z</time>
      </trkpt>
      <trkpt lat="43.93347" lon="1.88327">
        <ele>853.79998779297</ele>
        <time>2019-06-27T17:20:43.000Z</time>
      </trkpt>
      <trkpt lat="43.93349" lon="1.88323">
        <ele>853.79998779297</ele>
        <time>2019-06-27T17:20:44.000Z</time>
      </trkpt>
      <trkpt lat="43.9335" lon="1.88318">
        <ele>854</ele>
        <time>2019-06-27T17:20:45.000Z</time>
      </trkpt>
      <trkpt lat="43.93351" lon="1.88314">
        <ele>853.79998779297</ele>
        <time>2019-06-27T17:20:46.000Z</time>
      </trkpt>
      <trkpt lat="43.93352" lon="1.8831">
        <ele>854</ele>
        <time>2019-06-27T17:20:47.000Z</time>
      </trkpt>
      <trkpt lat="43.93353" lon="1.88306">
        <ele>853.79998779297</ele>
        <time>2019-06-27T17:20:48.000Z</time>
      </trkpt>
      <trkpt lat="43.93354" lon="1.88302">
        <ele>853.79998779297</ele>
        <time>2019-06-27T17:20:49.000Z</time>
      </trkpt>
      <trkpt lat="43.93355" lon="1.88298">
        <ele>854</ele>
        <time>2019-06-27T17:20:50.000Z</time>
      </trkpt>
      <trkpt lat="43.93356" lon="1.88294">
        <ele>854</ele>
        <time>2019-06-27T17:20:51.000Z</time>
      </trkpt>
      <trkpt lat="43.93357" lon="1.88289">
        <ele>853.79998779297</ele>
        <time>2019-06-27T17:20:52.000Z</time>
      </trkpt>
      <trkpt lat="43.93358" lon="1.88285">
        <ele>854</ele>
        <time>2019-06-27T17:20:53.000Z</time>
      </trkpt>
      <trkpt lat="43.93358" lon="1.8828">
        <ele>854</ele>
        <time>2019-06-27T17:20:54.000Z</time>
      </trkpt>
      <trkpt lat="43.93359" lon="1.88276">
        <ele>854.20001220703</ele>
        <time>2019-06-27T17:20:55.000Z</time>
      </trkpt>
      <trkpt lat="43.9336" lon="1.88272">
        <ele>854.40002441406</ele>
        <time>2019-06-27T17:20:56.000Z</time>
      </trkpt>
      <trkpt lat="43.93361" lon="1.88268">
        <ele>854.40002441406</ele>
        <time>2019-06-27T17:20:57.000Z</time>
      </trkpt>
      <trkpt lat="43.93362" lon="1.88264">
        <ele>854.40002441406</ele>
        <time>2019-06-27T17:20:58.000Z</time>
      </trkpt>
      <trkpt lat="43.93363" lon="1.8826">
        <ele>854.40002441406</ele>
        <time>2019-06-27T17:20:59.000Z</time>
      </trkpt>
      <trkpt lat="43.93364" lon="1.88255">
        <ele>854.59997558594</ele>
        <time>2019-06-27T17:21:00.000Z</time>
      </trkpt>
      <trkpt lat="43.93365" lon="1.88251">
        <ele>854.59997558594</ele>
        <time>2019-06-27T17:21:01.000Z</time>
      </trkpt>
      <trkpt lat="43.93366" lon="1.88246">
        <ele>854.59997558594</ele>
        <time>2019-06-27T17:21:02.000Z</time>
      </trkpt>
      <trkpt lat="43.93367" lon="1.88242">
        <ele>854.59997558594</ele>
        <time>2019-06-27T17:21:03.000Z</time>
      </trkpt>
      <trkpt lat="43.93368" lon="1.88238">
        <ele>854.59997558594</ele>
        <time>2019-06-27T17:21:04.000Z</time>
      </trkpt>
      <trkpt lat="43.93368" lon="1.88233">
        <ele>854.79998779297</ele>
        <time>2019-06-27T17:21:05.000Z</time>
      </trkpt>
      <trkpt lat="43.93369" lon="1.88229">
        <ele>854.79998779297</ele>
        <time>2019-06-27T17:21:06.000Z</time>
      </trkpt>
      <trkpt lat="43.9337" lon="1.88225">
        <ele>854.79998779297</ele>
        <time>2019-06-27T17:21:07.000Z</time>
      </trkpt>
      <trkpt lat="43.9337" lon="1.88221">
        <ele>854.79998779297</ele>
        <time>2019-06-27T17:21:08.000Z</time>
      </trkpt>
      <trkpt lat="43.93371" lon="1.88216">
        <ele>854.79998779297</ele>
        <time>2019-06-27T17:21:09.000Z</time>
      </trkpt>
      <trkpt lat="43.93372" lon="1.88212">
        <ele>854.79998779297</ele>
        <time>2019-06-27T17:21:10.000Z</time>
      </trkpt>
      <trkpt lat="43.93372" lon="1.88208">
        <ele>855</ele>
        <time>2019-06-27T17:21:11.000Z</time>
      </trkpt>
      <trkpt lat="43.93373" lon="1.88203">
        <ele>855</ele>
        <time>2019-06-27T17:21:12.000Z</time>
      </trkpt>
      <trkpt lat="43.93374" lon="1.88199">
        <ele>855.20001220703</ele>
        <time>2019-06-27T17:21:13.000Z</time>
      </trkpt>
      <trkpt lat="43.93374" lon="1.88194">
        <ele>855.20001220703</ele>
        <time>2019-06-27T17:21:14.000Z</time>
      </trkpt>
      <trkpt lat="43.93375" lon="1.8819">
        <ele>855.40002441406</ele>
        <time>2019-06-27T17:21:15.000Z</time>
      </trkpt>
      <trkpt lat="43.93376" lon="1.88185">
        <ele>855.40002441406</ele>
        <time>2019-06-27T17:21:16.000Z</time>
      </trkpt>
      <trkpt lat="43.93377" lon="1.88181">
        <ele>855.40002441406</ele>
        <time>2019-06-27T17:21:17.000Z</time>
      </trkpt>
      <trkpt lat="43.93377" lon="1.88176">
        <ele>855.79998779297</ele>
        <time>2019-06-27T17:21:18.000Z</time>
      </trkpt>
      <trkpt lat="43.93377" lon="1.88172">
        <ele>856</ele>
        <time>2019-06-27T17:21:19.000Z</time>
      </trkpt>
      <trkpt lat="43.93377" lon="1.88168">
        <ele>856.20001220703</ele>
        <time>2019-06-27T17:21:20.000Z</time>
      </trkpt>
      <trkpt lat="43.93378" lon="1.88164">
        <ele>856.40002441406</ele>
        <time>2019-06-27T17:21:21.000Z</time>
      </trkpt>
      <trkpt lat="43.93378" lon="1.88159">
        <ele>856.59997558594</ele>
        <time>2019-06-27T17:21:22.000Z</time>
      </trkpt>
      <trkpt lat="43.93378" lon="1.88155">
        <ele>856.79998779297</ele>
        <time>2019-06-27T17:21:23.000Z</time>
      </trkpt>
      <trkpt lat="43.93378" lon="1.88151">
        <ele>856.79998779297</ele>
        <time>2019-06-27T17:21:24.000Z</time>
      </trkpt>
      <trkpt lat="43.93378" lon="1.88148">
        <ele>856.79998779297</ele>
        <time>2019-06-27T17:21:25.000Z</time>
      </trkpt>
      <trkpt lat="43.93378" lon="1.88144">
        <ele>857</ele>
        <time>2019-06-27T17:21:26.000Z</time>
      </trkpt>
      <trkpt lat="43.93378" lon="1.88141">
        <ele>857.40002441406</ele>
        <time>2019-06-27T17:21:27.000Z</time>
      </trkpt>
      <trkpt lat="43.93377" lon="1.88138">
        <ele>857.59997558594</ele>
        <time>2019-06-27T17:21:28.000Z</time>
      </trkpt>
      <trkpt lat="43.93377" lon="1.88135">
        <ele>857.79998779297</ele>
        <time>2019-06-27T17:21:29.000Z</time>
      </trkpt>
      <trkpt lat="43.93377" lon="1.88132">
        <ele>857.79998779297</ele>
        <time>2019-06-27T17:21:30.000Z</time>
      </trkpt>
      <trkpt lat="43.93376" lon="1.88128">
        <ele>858</ele>
        <time>2019-06-27T17:21:31.000Z</time>
      </trkpt>
      <trkpt lat="43.93376" lon="1.88125">
        <ele>858.20001220703</ele>
        <time>2019-06-27T17:21:32.000Z</time>
      </trkpt>
      <trkpt lat="43.93376" lon="1.88121">
        <ele>858.59997558594</ele>
        <time>2019-06-27T17:21:33.000Z</time>
      </trkpt>
      <trkpt lat="43.93376" lon="1.88118">
        <ele>858.79998779297</ele>
        <time>2019-06-27T17:21:34.000Z</time>
      </trkpt>
      <trkpt lat="43.93375" lon="1.88114">
        <ele>859.20001220703</ele>
        <time>2019-06-27T17:21:35.000Z</time>
      </trkpt>
      <trkpt lat="43.93375" lon="1.8811">
        <ele>859.20001220703</ele>
        <time>2019-06-27T17:21:36.000Z</time>
      </trkpt>
      <trkpt lat="43.93375" lon="1.88106">
        <ele>859.40002441406</ele>
        <time>2019-06-27T17:21:37.000Z</time>
      </trkpt>
      <trkpt lat="43.93375" lon="1.88102">
        <ele>859.40002441406</ele>
        <time>2019-06-27T17:21:38.000Z</time>
      </trkpt>
      <trkpt lat="43.93374" lon="1.88099">
        <ele>859.40002441406</ele>
        <time>2019-06-27T17:21:39.000Z</time>
      </trkpt>
      <trkpt lat="43.93374" lon="1.88095">
        <ele>859.79998779297</ele>
        <time>2019-06-27T17:21:40.000Z</time>
      </trkpt>
      <trkpt lat="43.93374" lon="1.88092">
        <ele>860</ele>
        <time>2019-06-27T17:21:41.000Z</time>
      </trkpt>
      <trkpt lat="43.93374" lon="1.88088">
        <ele>860.40002441406</ele>
        <time>2019-06-27T17:21:42.000Z</time>
      </trkpt>
      <trkpt lat="43.93374" lon="1.88085">
        <ele>860.59997558594</ele>
        <time>2019-06-27T17:21:43.000Z</time>
      </trkpt>
      <trkpt lat="43.93374" lon="1.88082">
        <ele>860.59997558594</ele>
        <time>2019-06-27T17:21:44.000Z</time>
      </trkpt>
      <trkpt lat="43.93374" lon="1.88078">
        <ele>860.59997558594</ele>
        <time>2019-06-27T17:21:45.000Z</time>
      </trkpt>
      <trkpt lat="43.93374" lon="1.88075">
        <ele>860.59997558594</ele>
        <time>2019-06-27T17:21:46.000Z</time>
      </trkpt>
      <trkpt lat="43.93375" lon="1.88071">
        <ele>860.79998779297</ele>
        <time>2019-06-27T17:21:47.000Z</time>
      </trkpt>
      <trkpt lat="43.93375" lon="1.88067">
        <ele>860.79998779297</ele>
        <time>2019-06-27T17:21:48.000Z</time>
      </trkpt>
      <trkpt lat="43.93376" lon="1.88062">
        <ele>860.79998779297</ele>
        <time>2019-06-27T17:21:49.000Z</time>
      </trkpt>
      <trkpt lat="43.93377" lon="1.88057">
        <ele>860.79998779297</ele>
        <time>2019-06-27T17:21:50.000Z</time>
      </trkpt>
      <trkpt lat="43.93378" lon="1.88052">
        <ele>860.59997558594</ele>
        <time>2019-06-27T17:21:51.000Z</time>
      </trkpt>
      <trkpt lat="43.93379" lon="1.88046">
        <ele>860.40002441406</ele>
        <time>2019-06-27T17:21:52.000Z</time>
      </trkpt>
      <trkpt lat="43.9338" lon="1.8804">
        <ele>860.20001220703</ele>
        <time>2019-06-27T17:21:53.000Z</time>
      </trkpt>
      <trkpt lat="43.93382" lon="1.88034">
        <ele>860.20001220703</ele>
        <time>2019-06-27T17:21:54.000Z</time>
      </trkpt>
      <trkpt lat="43.93383" lon="1.88027">
        <ele>860</ele>
        <time>2019-06-27T17:21:55.000Z</time>
      </trkpt>
      <trkpt lat="43.93385" lon="1.8802">
        <ele>859.79998779297</ele>
        <time>2019-06-27T17:21:56.000Z</time>
      </trkpt>
      <trkpt lat="43.93386" lon="1.88013">
        <ele>859.40002441406</ele>
        <time>2019-06-27T17:21:57.000Z</time>
      </trkpt>
      <trkpt lat="43.93388" lon="1.88005">
        <ele>859.20001220703</ele>
        <time>2019-06-27T17:21:58.000Z</time>
      </trkpt>
      <trkpt lat="43.9339" lon="1.87998">
        <ele>859</ele>
        <time>2019-06-27T17:21:59.000Z</time>
      </trkpt>
      <trkpt lat="43.93391" lon="1.87991">
        <ele>858.79998779297</ele>
        <time>2019-06-27T17:22:00.000Z</time>
      </trkpt>
      <trkpt lat="43.93392" lon="1.87983">
        <ele>858.59997558594</ele>
        <time>2019-06-27T17:22:01.000Z</time>
      </trkpt>
      <trkpt lat="43.93394" lon="1.87976">
        <ele>858.40002441406</ele>
        <time>2019-06-27T17:22:02.000Z</time>
      </trkpt>
      <trkpt lat="43.93395" lon="1.87969">
        <ele>858.20001220703</ele>
        <time>2019-06-27T17:22:03.000Z</time>
      </trkpt>
      <trkpt lat="43.93395" lon="1.87961">
        <ele>858.20001220703</ele>
        <time>2019-06-27T17:22:04.000Z</time>
      </trkpt>
      <trkpt lat="43.93394" lon="1.87954">
        <ele>858</ele>
        <time>2019-06-27T17:22:05.000Z</time>
      </trkpt>
      <trkpt lat="43.93393" lon="1.87948">
        <ele>857.79998779297</ele>
        <time>2019-06-27T17:22:06.000Z</time>
      </trkpt>
      <trkpt lat="43.93391" lon="1.87942">
        <ele>857.79998779297</ele>
        <time>2019-06-27T17:22:07.000Z</time>
      </trkpt>
      <trkpt lat="43.9339" lon="1.87937">
        <ele>858</ele>
        <time>2019-06-27T17:22:08.000Z</time>
      </trkpt>
      <trkpt lat="43.9339" lon="1.87931">
        <ele>858.20001220703</ele>
        <time>2019-06-27T17:22:09.000Z</time>
      </trkpt>
      <trkpt lat="43.93389" lon="1.87926">
        <ele>858.20001220703</ele>
        <time>2019-06-27T17:22:10.000Z</time>
      </trkpt>
      <trkpt lat="43.93389" lon="1.87922">
        <ele>858.20001220703</ele>
        <time>2019-06-27T17:22:11.000Z</time>
      </trkpt>
      <trkpt lat="43.93388" lon="1.87918">
        <ele>858.20001220703</ele>
        <time>2019-06-27T17:22:12.000Z</time>
      </trkpt>
      <trkpt lat="43.93388" lon="1.87914">
        <ele>858.20001220703</ele>
        <time>2019-06-27T17:22:13.000Z</time>
      </trkpt>
      <trkpt lat="43.93388" lon="1.87911">
        <ele>858.20001220703</ele>
        <time>2019-06-27T17:22:14.000Z</time>
      </trkpt>
      <trkpt lat="43.93388" lon="1.87907">
        <ele>858.20001220703</ele>
        <time>2019-06-27T17:22:15.000Z</time>
      </trkpt>
      <trkpt lat="43.93388" lon="1.87904">
        <ele>858</ele>
        <time>2019-06-27T17:22:16.000Z</time>
      </trkpt>
      <trkpt lat="43.93387" lon="1.87901">
        <ele>858.20001220703</ele>
        <time>2019-06-27T17:22:17.000Z</time>
      </trkpt>
      <trkpt lat="43.93387" lon="1.87898">
        <ele>858.20001220703</ele>
        <time>2019-06-27T17:22:18.000Z</time>
      </trkpt>
      <trkpt lat="43.93387" lon="1.87895">
        <ele>858.40002441406</ele>
        <time>2019-06-27T17:22:19.000Z</time>
      </trkpt>
      <trkpt lat="43.93386" lon="1.87892">
        <ele>858.40002441406</ele>
        <time>2019-06-27T17:22:20.000Z</time>
      </trkpt>
      <trkpt lat="43.93386" lon="1.87888">
        <ele>858.40002441406</ele>
        <time>2019-06-27T17:22:21.000Z</time>
      </trkpt>
      <trkpt lat="43.93385" lon="1.87885">
        <ele>858.59997558594</ele>
        <time>2019-06-27T17:22:22.000Z</time>
      </trkpt>
      <trkpt lat="43.93384" lon="1.87882">
        <ele>858.59997558594</ele>
        <time>2019-06-27T17:22:23.000Z</time>
      </trkpt>
      <trkpt lat="43.93383" lon="1.87878">
        <ele>858.79998779297</ele>
        <time>2019-06-27T17:22:24.000Z</time>
      </trkpt>
      <trkpt lat="43.93382" lon="1.87875">
        <ele>858.79998779297</ele>
        <time>2019-06-27T17:22:25.000Z</time>
      </trkpt>
      <trkpt lat="43.93381" lon="1.87871">
        <ele>859</ele>
        <time>2019-06-27T17:22:26.000Z</time>
      </trkpt>
      <trkpt lat="43.9338" lon="1.87868">
        <ele>859.20001220703</ele>
        <time>2019-06-27T17:22:27.000Z</time>
      </trkpt>
      <trkpt lat="43.9338" lon="1.87864">
        <ele>859.20001220703</ele>
        <time>2019-06-27T17:22:28.000Z</time>
      </trkpt>
      <trkpt lat="43.93379" lon="1.87861">
        <ele>859.40002441406</ele>
        <time>2019-06-27T17:22:29.000Z</time>
      </trkpt>
      <trkpt lat="43.93378" lon="1.87857">
        <ele>859.40002441406</ele>
        <time>2019-06-27T17:22:30.000Z</time>
      </trkpt>
      <trkpt lat="43.93377" lon="1.87853">
        <ele>859.79998779297</ele>
        <time>2019-06-27T17:22:31.000Z</time>
      </trkpt>
      <trkpt lat="43.93376" lon="1.8785">
        <ele>859.79998779297</ele>
        <time>2019-06-27T17:22:32.000Z</time>
      </trkpt>
      <trkpt lat="43.93376" lon="1.87846">
        <ele>860</ele>
        <time>2019-06-27T17:22:33.000Z</time>
      </trkpt>
      <trkpt lat="43.93375" lon="1.87842">
        <ele>860</ele>
        <time>2019-06-27T17:22:34.000Z</time>
      </trkpt>
      <trkpt lat="43.93374" lon="1.87839">
        <ele>860.20001220703</ele>
        <time>2019-06-27T17:22:35.000Z</time>
      </trkpt>
      <trkpt lat="43.93373" lon="1.87835">
        <ele>860.20001220703</ele>
        <time>2019-06-27T17:22:36.000Z</time>
      </trkpt>
      <trkpt lat="43.93373" lon="1.87831">
        <ele>860.20001220703</ele>
        <time>2019-06-27T17:22:37.000Z</time>
      </trkpt>
      <trkpt lat="43.93372" lon="1.87827">
        <ele>860.40002441406</ele>
        <time>2019-06-27T17:22:38.000Z</time>
      </trkpt>
      <trkpt lat="43.93371" lon="1.87824">
        <ele>860.40002441406</ele>
        <time>2019-06-27T17:22:39.000Z</time>
      </trkpt>
      <trkpt lat="43.9337" lon="1.8782">
        <ele>860.40002441406</ele>
        <time>2019-06-27T17:22:40.000Z</time>
      </trkpt>
      <trkpt lat="43.93369" lon="1.87817">
        <ele>860.59997558594</ele>
        <time>2019-06-27T17:22:41.000Z</time>
      </trkpt>
      <trkpt lat="43.93368" lon="1.87813">
        <ele>860.79998779297</ele>
        <time>2019-06-27T17:22:42.000Z</time>
      </trkpt>
      <trkpt lat="43.93368" lon="1.87809">
        <ele>860.79998779297</ele>
        <time>2019-06-27T17:22:43.000Z</time>
      </trkpt>
      <trkpt lat="43.93367" lon="1.87806">
        <ele>861</ele>
        <time>2019-06-27T17:22:44.000Z</time>
      </trkpt>
      <trkpt lat="43.93366" lon="1.87802">
        <ele>861</ele>
        <time>2019-06-27T17:22:45.000Z</time>
      </trkpt>
      <trkpt lat="43.93365" lon="1.87798">
        <ele>861</ele>
        <time>2019-06-27T17:22:46.000Z</time>
      </trkpt>
      <trkpt lat="43.93365" lon="1.87795">
        <ele>861.20001220703</ele>
        <time>2019-06-27T17:22:47.000Z</time>
      </trkpt>
      <trkpt lat="43.93365" lon="1.87791">
        <ele>861.20001220703</ele>
        <time>2019-06-27T17:22:48.000Z</time>
      </trkpt>
      <trkpt lat="43.93364" lon="1.87787">
        <ele>861.20001220703</ele>
        <time>2019-06-27T17:22:49.000Z</time>
      </trkpt>
      <trkpt lat="43.93364" lon="1.87783">
        <ele>861.20001220703</ele>
        <time>2019-06-27T17:22:50.000Z</time>
      </trkpt>
      <trkpt lat="43.93364" lon="1.87778">
        <ele>861.20001220703</ele>
        <time>2019-06-27T17:22:51.000Z</time>
      </trkpt>
      <trkpt lat="43.93364" lon="1.87773">
        <ele>861.20001220703</ele>
        <time>2019-06-27T17:22:52.000Z</time>
      </trkpt>
      <trkpt lat="43.93364" lon="1.87768">
        <ele>861.20001220703</ele>
        <time>2019-06-27T17:22:53.000Z</time>
      </trkpt>
      <trkpt lat="43.93364" lon="1.87762">
        <ele>861</ele>
        <time>2019-06-27T17:22:54.000Z</time>
      </trkpt>
      <trkpt lat="43.93364" lon="1.87755">
        <ele>860.79998779297</ele>
        <time>2019-06-27T17:22:55.000Z</time>
      </trkpt>
      <trkpt lat="43.93365" lon="1.87748">
        <ele>860.59997558594</ele>
        <time>2019-06-27T17:22:56.000Z</time>
      </trkpt>
      <trkpt lat="43.93365" lon="1.87742">
        <ele>860.59997558594</ele>
        <time>2019-06-27T17:22:57.000Z</time>
      </trkpt>
      <trkpt lat="43.93366" lon="1.87735">
        <ele>860.59997558594</ele>
        <time>2019-06-27T17:22:58.000Z</time>
      </trkpt>
      <trkpt lat="43.93366" lon="1.87729">
        <ele>860.59997558594</ele>
        <time>2019-06-27T17:22:59.000Z</time>
      </trkpt>
      <trkpt lat="43.93367" lon="1.87724">
        <ele>860.40002441406</ele>
        <time>2019-06-27T17:23:00.000Z</time>
      </trkpt>
      <trkpt lat="43.93366" lon="1.87718">
        <ele>860.59997558594</ele>
        <time>2019-06-27T17:23:01.000Z</time>
      </trkpt>
      <trkpt lat="43.93365" lon="1.87712">
        <ele>860.40002441406</ele>
        <time>2019-06-27T17:23:02.000Z</time>
      </trkpt>
      <trkpt lat="43.93363" lon="1.87707">
        <ele>860.40002441406</ele>
        <time>2019-06-27T17:23:03.000Z</time>
      </trkpt>
      <trkpt lat="43.93361" lon="1.87702">
        <ele>860.40002441406</ele>
        <time>2019-06-27T17:23:04.000Z</time>
      </trkpt>
      <trkpt lat="43.93359" lon="1.87698">
        <ele>860.20001220703</ele>
        <time>2019-06-27T17:23:05.000Z</time>
      </trkpt>
      <trkpt lat="43.93357" lon="1.87694">
        <ele>860.20001220703</ele>
        <time>2019-06-27T17:23:06.000Z</time>
      </trkpt>
      <trkpt lat="43.93355" lon="1.87691">
        <ele>860</ele>
        <time>2019-06-27T17:23:07.000Z</time>
      </trkpt>
      <trkpt lat="43.93354" lon="1.87688">
        <ele>860.20001220703</ele>
        <time>2019-06-27T17:23:08.000Z</time>
      </trkpt>
      <trkpt lat="43.93352" lon="1.87686">
        <ele>860.20001220703</ele>
        <time>2019-06-27T17:23:09.000Z</time>
      </trkpt>
      <trkpt lat="43.93351" lon="1.87684">
        <ele>860.20001220703</ele>
        <time>2019-06-27T17:23:10.000Z</time>
      </trkpt>
      <trkpt lat="43.93349" lon="1.87684">
        <ele>860.20001220703</ele>
        <time>2019-06-27T17:23:11.000Z</time>
      </trkpt>
      <trkpt lat="43.9335" lon="1.87687">
        <ele>860</ele>
        <time>2019-06-27T17:23:12.000Z</time>
      </trkpt>
      <trkpt lat="43.9335" lon="1.87688">
        <ele>860</ele>
        <time>2019-06-27T17:23:13.000Z</time>
      </trkpt>
      <trkpt lat="43.93351" lon="1.8769">
        <ele>860</ele>
        <time>2019-06-27T17:23:14.000Z</time>
      </trkpt>
      <trkpt lat="43.93352" lon="1.87692">
        <ele>860.20001220703</ele>
        <time>2019-06-27T17:23:15.000Z</time>
      </trkpt>
      <trkpt lat="43.93354" lon="1.87694">
        <ele>860</ele>
        <time>2019-06-27T17:23:16.000Z</time>
      </trkpt>
      <trkpt lat="43.93356" lon="1.87698">
        <ele>860</ele>
        <time>2019-06-27T17:23:17.000Z</time>
      </trkpt>
      <trkpt lat="43.93358" lon="1.87702">
        <ele>859.79998779297</ele>
        <time>2019-06-27T17:23:18.000Z</time>
      </trkpt>
      <trkpt lat="43.93361" lon="1.87706">
        <ele>859.59997558594</ele>
        <time>2019-06-27T17:23:19.000Z</time>
      </trkpt>
      <trkpt lat="43.93362" lon="1.8771">
        <ele>859.59997558594</ele>
        <time>2019-06-27T17:23:20.000Z</time>
      </trkpt>
      <trkpt lat="43.93364" lon="1.87715">
        <ele>859.59997558594</ele>
        <time>2019-06-27T17:23:21.000Z</time>
      </trkpt>
      <trkpt lat="43.93364" lon="1.87719">
        <ele>859.59997558594</ele>
        <time>2019-06-27T17:23:22.000Z</time>
      </trkpt>
      <trkpt lat="43.93365" lon="1.87724">
        <ele>859.59997558594</ele>
        <time>2019-06-27T17:23:23.000Z</time>
      </trkpt>
      <trkpt lat="43.93365" lon="1.87727">
        <ele>859.59997558594</ele>
        <time>2019-06-27T17:23:24.000Z</time>
      </trkpt>
      <trkpt lat="43.93365" lon="1.87731">
        <ele>859.79998779297</ele>
        <time>2019-06-27T17:23:25.000Z</time>
      </trkpt>
      <trkpt lat="43.93365" lon="1.87734">
        <ele>859.79998779297</ele>
        <time>2019-06-27T17:23:26.000Z</time>
      </trkpt>
      <trkpt lat="43.93365" lon="1.87737">
        <ele>859.79998779297</ele>
        <time>2019-06-27T17:23:27.000Z</time>
      </trkpt>
      <trkpt lat="43.93366" lon="1.87739">
        <ele>859.79998779297</ele>
        <time>2019-06-27T17:23:28.000Z</time>
      </trkpt>
      <trkpt lat="43.93366" lon="1.8774">
        <ele>859.59997558594</ele>
        <time>2019-06-27T17:23:29.000Z</time>
      </trkpt>
      <trkpt lat="43.93367" lon="1.87738">
        <ele>859.59997558594</ele>
        <time>2019-06-27T17:23:30.000Z</time>
      </trkpt>
      <trkpt lat="43.93367" lon="1.87736">
        <ele>859.59997558594</ele>
        <time>2019-06-27T17:23:31.000Z</time>
      </trkpt>
      <trkpt lat="43.93367" lon="1.87734">
        <ele>859.79998779297</ele>
        <time>2019-06-27T17:23:32.000Z</time>
      </trkpt>
      <trkpt lat="43.93367" lon="1.87731">
        <ele>859.79998779297</ele>
        <time>2019-06-27T17:23:33.000Z</time>
      </trkpt>
      <trkpt lat="43.93367" lon="1.87728">
        <ele>860</ele>
        <time>2019-06-27T17:23:34.000Z</time>
      </trkpt>
      <trkpt lat="43.93367" lon="1.87725">
        <ele>860</ele>
        <time>2019-06-27T17:23:35.000Z</time>
      </trkpt>
      <trkpt lat="43.93366" lon="1.87721">
        <ele>860</ele>
        <time>2019-06-27T17:23:36.000Z</time>
      </trkpt>
      <trkpt lat="43.93366" lon="1.87716">
        <ele>860</ele>
        <time>2019-06-27T17:23:37.000Z</time>
      </trkpt>
      <trkpt lat="43.93365" lon="1.87712">
        <ele>860</ele>
        <time>2019-06-27T17:23:38.000Z</time>
      </trkpt>
      <trkpt lat="43.93364" lon="1.87708">
        <ele>859.79998779297</ele>
        <time>2019-06-27T17:23:39.000Z</time>
      </trkpt>
      <trkpt lat="43.93362" lon="1.87704">
        <ele>860</ele>
        <time>2019-06-27T17:23:40.000Z</time>
      </trkpt>
      <trkpt lat="43.93361" lon="1.877">
        <ele>859.79998779297</ele>
        <time>2019-06-27T17:23:41.000Z</time>
      </trkpt>
      <trkpt lat="43.93359" lon="1.87696">
        <ele>860</ele>
        <time>2019-06-27T17:23:42.000Z</time>
      </trkpt>
      <trkpt lat="43.93357" lon="1.87693">
        <ele>860</ele>
        <time>2019-06-27T17:23:43.000Z</time>
      </trkpt>
      <trkpt lat="43.93355" lon="1.87689">
        <ele>860.20001220703</ele>
        <time>2019-06-27T17:23:44.000Z</time>
      </trkpt>
      <trkpt lat="43.93353" lon="1.87686">
        <ele>860.20001220703</ele>
        <time>2019-06-27T17:23:45.000Z</time>
      </trkpt>
      <trkpt lat="43.93351" lon="1.87683">
        <ele>860.40002441406</ele>
        <time>2019-06-27T17:23:46.000Z</time>
      </trkpt>
      <trkpt lat="43.93349" lon="1.87679">
        <ele>860.40002441406</ele>
        <time>2019-06-27T17:23:47.000Z</time>
      </trkpt>
      <trkpt lat="43.93347" lon="1.87676">
        <ele>860.59997558594</ele>
        <time>2019-06-27T17:23:48.000Z</time>
      </trkpt>
      <trkpt lat="43.93344" lon="1.87673">
        <ele>860.59997558594</ele>
        <time>2019-06-27T17:23:49.000Z</time>
      </trkpt>
      <trkpt lat="43.93343" lon="1.87669">
        <ele>860.79998779297</ele>
        <time>2019-06-27T17:23:50.000Z</time>
      </trkpt>
      <trkpt lat="43.93341" lon="1.87666">
        <ele>860.79998779297</ele>
        <time>2019-06-27T17:23:51.000Z</time>
      </trkpt>
      <trkpt lat="43.93339" lon="1.87662">
        <ele>861</ele>
        <time>2019-06-27T17:23:52.000Z</time>
      </trkpt>
      <trkpt lat="43.93337" lon="1.87658">
        <ele>861.20001220703</ele>
        <time>2019-06-27T17:23:53.000Z</time>
      </trkpt>
      <trkpt lat="43.93335" lon="1.87655">
        <ele>861.40002441406</ele>
        <time>2019-06-27T17:23:54.000Z</time>
      </trkpt>
      <trkpt lat="43.93333" lon="1.87651">
        <ele>861.59997558594</ele>
        <time>2019-06-27T17:23:55.000Z</time>
      </trkpt>
      <trkpt lat="43.9333" lon="1.87648">
        <ele>861.59997558594</ele>
        <time>2019-06-27T17:23:56.000Z</time>
      </trkpt>
      <trkpt lat="43.93328" lon="1.87645">
        <ele>861.79998779297</ele>
        <time>2019-06-27T17:23:57.000Z</time>
      </trkpt>
      <trkpt lat="43.93326" lon="1.87642">
        <ele>861.79998779297</ele>
        <time>2019-06-27T17:23:58.000Z</time>
      </trkpt>
      <trkpt lat="43.93323" lon="1.8764">
        <ele>861.79998779297</ele>
        <time>2019-06-27T17:23:59.000Z</time>
      </trkpt>
      <trkpt lat="43.93321" lon="1.87637">
        <ele>862</ele>
        <time>2019-06-27T17:24:00.000Z</time>
      </trkpt>
      <trkpt lat="43.93319" lon="1.87635">
        <ele>862.20001220703</ele>
        <time>2019-06-27T17:24:01.000Z</time>
      </trkpt>
      <trkpt lat="43.93316" lon="1.87633">
        <ele>862.40002441406</ele>
        <time>2019-06-27T17:24:02.000Z</time>
      </trkpt>
      <trkpt lat="43.93314" lon="1.87631">
        <ele>862.59997558594</ele>
        <time>2019-06-27T17:24:03.000Z</time>
      </trkpt>
      <trkpt lat="43.93311" lon="1.87629">
        <ele>862.79998779297</ele>
        <time>2019-06-27T17:24:04.000Z</time>
      </trkpt>
      <trkpt lat="43.93309" lon="1.87627">
        <ele>862.79998779297</ele>
        <time>2019-06-27T17:24:05.000Z</time>
      </trkpt>
      <trkpt lat="43.93306" lon="1.87626">
        <ele>863</ele>
        <time>2019-06-27T17:24:06.000Z</time>
      </trkpt>
      <trkpt lat="43.93304" lon="1.87625">
        <ele>863.59997558594</ele>
        <time>2019-06-27T17:24:07.000Z</time>
      </trkpt>
      <trkpt lat="43.93302" lon="1.87623">
        <ele>863.79998779297</ele>
        <time>2019-06-27T17:24:08.000Z</time>
      </trkpt>
      <trkpt lat="43.933" lon="1.87621">
        <ele>864.20001220703</ele>
        <time>2019-06-27T17:24:09.000Z</time>
      </trkpt>
      <trkpt lat="43.93299" lon="1.87619">
        <ele>864.40002441406</ele>
        <time>2019-06-27T17:24:10.000Z</time>
      </trkpt>
      <trkpt lat="43.93298" lon="1.87617">
        <ele>864.59997558594</ele>
        <time>2019-06-27T17:24:11.000Z</time>
      </trkpt>
      <trkpt lat="43.93299" lon="1.87614">
        <ele>864.59997558594</ele>
        <time>2019-06-27T17:24:12.000Z</time>
      </trkpt>
      <trkpt lat="43.93299" lon="1.87611">
        <ele>864.79998779297</ele>
        <time>2019-06-27T17:24:13.000Z</time>
      </trkpt>
      <trkpt lat="43.933" lon="1.87607">
        <ele>864.79998779297</ele>
        <time>2019-06-27T17:24:14.000Z</time>
      </trkpt>
      <trkpt lat="43.93302" lon="1.87603">
        <ele>864.79998779297</ele>
        <time>2019-06-27T17:24:15.000Z</time>
      </trkpt>
      <trkpt lat="43.93303" lon="1.87599">
        <ele>864.59997558594</ele>
        <time>2019-06-27T17:24:16.000Z</time>
      </trkpt>
      <trkpt lat="43.93306" lon="1.87594">
        <ele>864.59997558594</ele>
        <time>2019-06-27T17:24:17.000Z</time>
      </trkpt>
      <trkpt lat="43.93308" lon="1.8759">
        <ele>864.40002441406</ele>
        <time>2019-06-27T17:24:18.000Z</time>
      </trkpt>
      <trkpt lat="43.93312" lon="1.87585">
        <ele>864.20001220703</ele>
        <time>2019-06-27T17:24:19.000Z</time>
      </trkpt>
      <trkpt lat="43.93316" lon="1.87581">
        <ele>864.20001220703</ele>
        <time>2019-06-27T17:24:20.000Z</time>
      </trkpt>
      <trkpt lat="43.9332" lon="1.87576">
        <ele>864</ele>
        <time>2019-06-27T17:24:21.000Z</time>
      </trkpt>
      <trkpt lat="43.93324" lon="1.87572">
        <ele>864</ele>
        <time>2019-06-27T17:24:22.000Z</time>
      </trkpt>
      <trkpt lat="43.93328" lon="1.87568">
        <ele>863.79998779297</ele>
        <time>2019-06-27T17:24:23.000Z</time>
      </trkpt>
      <trkpt lat="43.93333" lon="1.87565">
        <ele>863.59997558594</ele>
        <time>2019-06-27T17:24:24.000Z</time>
      </trkpt>
      <trkpt lat="43.93338" lon="1.87563">
        <ele>863.40002441406</ele>
        <time>2019-06-27T17:24:25.000Z</time>
      </trkpt>
      <trkpt lat="43.93342" lon="1.87562">
        <ele>863.40002441406</ele>
        <time>2019-06-27T17:24:26.000Z</time>
      </trkpt>
      <trkpt lat="43.93347" lon="1.8756">
        <ele>863.20001220703</ele>
        <time>2019-06-27T17:24:27.000Z</time>
      </trkpt>
      <trkpt lat="43.93351" lon="1.8756">
        <ele>863.20001220703</ele>
        <time>2019-06-27T17:24:28.000Z</time>
      </trkpt>
      <trkpt lat="43.93355" lon="1.8756">
        <ele>863.20001220703</ele>
        <time>2019-06-27T17:24:29.000Z</time>
      </trkpt>
      <trkpt lat="43.93359" lon="1.87559">
        <ele>863</ele>
        <time>2019-06-27T17:24:30.000Z</time>
      </trkpt>
      <trkpt lat="43.93363" lon="1.87559">
        <ele>863.20001220703</ele>
        <time>2019-06-27T17:24:31.000Z</time>
      </trkpt>
      <trkpt lat="43.93366" lon="1.87558">
        <ele>863.40002441406</ele>
        <time>2019-06-27T17:24:32.000Z</time>
      </trkpt>
      <trkpt lat="43.93369" lon="1.87556">
        <ele>863.40002441406</ele>
        <time>2019-06-27T17:24:33.000Z</time>
      </trkpt>
      <trkpt lat="43.93371" lon="1.87554">
        <ele>863.40002441406</ele>
        <time>2019-06-27T17:24:34.000Z</time>
      </trkpt>
      <trkpt lat="43.93372" lon="1.87552">
        <ele>863.40002441406</ele>
        <time>2019-06-27T17:24:35.000Z</time>
      </trkpt>
      <trkpt lat="43.93372" lon="1.8755">
        <ele>863.20001220703</ele>
        <time>2019-06-27T17:24:36.000Z</time>
      </trkpt>
      <trkpt lat="43.93372" lon="1.87548">
        <ele>863.20001220703</ele>
        <time>2019-06-27T17:24:37.000Z</time>
      </trkpt>
      <trkpt lat="43.93372" lon="1.87546">
        <ele>863.40002441406</ele>
        <time>2019-06-27T17:24:38.000Z</time>
      </trkpt>
      <trkpt lat="43.93371" lon="1.87544">
        <ele>863.59997558594</ele>
        <time>2019-06-27T17:24:39.000Z</time>
      </trkpt>
      <trkpt lat="43.93371" lon="1.87541">
        <ele>863.59997558594</ele>
        <time>2019-06-27T17:24:40.000Z</time>
      </trkpt>
      <trkpt lat="43.93371" lon="1.8754">
        <ele>863.79998779297</ele>
        <time>2019-06-27T17:24:41.000Z</time>
      </trkpt>
      <trkpt lat="43.93371" lon="1.87538">
        <ele>863.79998779297</ele>
        <time>2019-06-27T17:24:42.000Z</time>
      </trkpt>
      <trkpt lat="43.9337" lon="1.87537">
        <ele>863.79998779297</ele>
        <time>2019-06-27T17:24:43.000Z</time>
      </trkpt>
      <trkpt lat="43.9337" lon="1.87535">
        <ele>864</ele>
        <time>2019-06-27T17:24:44.000Z</time>
      </trkpt>
      <trkpt lat="43.9337" lon="1.87533">
        <ele>864</ele>
        <time>2019-06-27T17:24:45.000Z</time>
      </trkpt>
      <trkpt lat="43.9337" lon="1.87532">
        <ele>864.20001220703</ele>
        <time>2019-06-27T17:24:46.000Z</time>
      </trkpt>
      <trkpt lat="43.9337" lon="1.8753">
        <ele>864.20001220703</ele>
        <time>2019-06-27T17:24:47.000Z</time>
      </trkpt>
      <trkpt lat="43.93369" lon="1.87528">
        <ele>864.20001220703</ele>
        <time>2019-06-27T17:24:48.000Z</time>
      </trkpt>
      <trkpt lat="43.93369" lon="1.87526">
        <ele>864.40002441406</ele>
        <time>2019-06-27T17:24:49.000Z</time>
      </trkpt>
      <trkpt lat="43.93369" lon="1.87525">
        <ele>864.40002441406</ele>
        <time>2019-06-27T17:24:50.000Z</time>
      </trkpt>
      <trkpt lat="43.93368" lon="1.87523">
        <ele>864.59997558594</ele>
        <time>2019-06-27T17:24:51.000Z</time>
      </trkpt>
      <trkpt lat="43.93368" lon="1.87521">
        <ele>864.79998779297</ele>
        <time>2019-06-27T17:24:52.000Z</time>
      </trkpt>
      <trkpt lat="43.93368" lon="1.87519">
        <ele>865</ele>
        <time>2019-06-27T17:24:53.000Z</time>
      </trkpt>
      <trkpt lat="43.93368" lon="1.87517">
        <ele>865</ele>
        <time>2019-06-27T17:24:54.000Z</time>
      </trkpt>
      <trkpt lat="43.93368" lon="1.87515">
        <ele>865.20001220703</ele>
        <time>2019-06-27T17:24:55.000Z</time>
      </trkpt>
      <trkpt lat="43.93367" lon="1.87513">
        <ele>865.40002441406</ele>
        <time>2019-06-27T17:24:56.000Z</time>
      </trkpt>
      <trkpt lat="43.93367" lon="1.87511">
        <ele>865.40002441406</ele>
        <time>2019-06-27T17:24:57.000Z</time>
      </trkpt>
      <trkpt lat="43.93367" lon="1.87509">
        <ele>865.59997558594</ele>
        <time>2019-06-27T17:24:58.000Z</time>
      </trkpt>
      <trkpt lat="43.93367" lon="1.87507">
        <ele>865.79998779297</ele>
        <time>2019-06-27T17:24:59.000Z</time>
      </trkpt>
      <trkpt lat="43.93366" lon="1.87505">
        <ele>866</ele>
        <time>2019-06-27T17:25:00.000Z</time>
      </trkpt>
      <trkpt lat="43.93366" lon="1.87503">
        <ele>866.20001220703</ele>
        <time>2019-06-27T17:25:01.000Z</time>
      </trkpt>
      <trkpt lat="43.93366" lon="1.87501">
        <ele>866.20001220703</ele>
        <time>2019-06-27T17:25:02.000Z</time>
      </trkpt>
      <trkpt lat="43.93365" lon="1.87499">
        <ele>866.40002441406</ele>
        <time>2019-06-27T17:25:03.000Z</time>
      </trkpt>
      <trkpt lat="43.93365" lon="1.87497">
        <ele>866.59997558594</ele>
        <time>2019-06-27T17:25:04.000Z</time>
      </trkpt>
      <trkpt lat="43.93365" lon="1.87495">
        <ele>866.79998779297</ele>
        <time>2019-06-27T17:25:05.000Z</time>
      </trkpt>
      <trkpt lat="43.93364" lon="1.87493">
        <ele>866.79998779297</ele>
        <time>2019-06-27T17:25:06.000Z</time>
      </trkpt>
      <trkpt lat="43.93364" lon="1.87491">
        <ele>867</ele>
        <time>2019-06-27T17:25:07.000Z</time>
      </trkpt>
      <trkpt lat="43.93364" lon="1.87489">
        <ele>867</ele>
        <time>2019-06-27T17:25:08.000Z</time>
      </trkpt>
      <trkpt lat="43.93364" lon="1.87487">
        <ele>867.20001220703</ele>
        <time>2019-06-27T17:25:09.000Z</time>
      </trkpt>
      <trkpt lat="43.93363" lon="1.87485">
        <ele>867.40002441406</ele>
        <time>2019-06-27T17:25:10.000Z</time>
      </trkpt>
      <trkpt lat="43.93363" lon="1.87484">
        <ele>867.40002441406</ele>
        <time>2019-06-27T17:25:11.000Z</time>
      </trkpt>
      <trkpt lat="43.93363" lon="1.87482">
        <ele>867.59997558594</ele>
        <time>2019-06-27T17:25:12.000Z</time>
      </trkpt>
      <trkpt lat="43.93362" lon="1.8748">
        <ele>867.79998779297</ele>
        <time>2019-06-27T17:25:13.000Z</time>
      </trkpt>
      <trkpt lat="43.93362" lon="1.87479">
        <ele>868</ele>
        <time>2019-06-27T17:25:14.000Z</time>
      </trkpt>
      <trkpt lat="43.93361" lon="1.87477">
        <ele>868.20001220703</ele>
        <time>2019-06-27T17:25:15.000Z</time>
      </trkpt>
      <trkpt lat="43.93361" lon="1.87475">
        <ele>868.20001220703</ele>
        <time>2019-06-27T17:25:16.000Z</time>
      </trkpt>
      <trkpt lat="43.93361" lon="1.87474">
        <ele>868.40002441406</ele>
        <time>2019-06-27T17:25:17.000Z</time>
      </trkpt>
      <trkpt lat="43.9336" lon="1.87472">
        <ele>868.59997558594</ele>
        <time>2019-06-27T17:25:18.000Z</time>
      </trkpt>
      <trkpt lat="43.93359" lon="1.87471">
        <ele>868.79998779297</ele>
        <time>2019-06-27T17:25:19.000Z</time>
      </trkpt>
      <trkpt lat="43.93358" lon="1.8747">
        <ele>869</ele>
        <time>2019-06-27T17:25:20.000Z</time>
      </trkpt>
      <trkpt lat="43.93357" lon="1.87469">
        <ele>869.20001220703</ele>
        <time>2019-06-27T17:25:21.000Z</time>
      </trkpt>
      <trkpt lat="43.93356" lon="1.87469">
        <ele>869.40002441406</ele>
        <time>2019-06-27T17:25:22.000Z</time>
      </trkpt>
      <trkpt lat="43.93355" lon="1.87468">
        <ele>869.40002441406</ele>
        <time>2019-06-27T17:25:23.000Z</time>
      </trkpt>
      <trkpt lat="43.93354" lon="1.87467">
        <ele>869.59997558594</ele>
        <time>2019-06-27T17:25:24.000Z</time>
      </trkpt>
      <trkpt lat="43.93353" lon="1.87467">
        <ele>869.59997558594</ele>
        <time>2019-06-27T17:25:25.000Z</time>
      </trkpt>
      <trkpt lat="43.93352" lon="1.87466">
        <ele>869.79998779297</ele>
        <time>2019-06-27T17:25:26.000Z</time>
      </trkpt>
      <trkpt lat="43.93351" lon="1.87465">
        <ele>869.79998779297</ele>
        <time>2019-06-27T17:25:27.000Z</time>
      </trkpt>
      <trkpt lat="43.9335" lon="1.87464">
        <ele>870</ele>
        <time>2019-06-27T17:25:28.000Z</time>
      </trkpt>
      <trkpt lat="43.93349" lon="1.87463">
        <ele>870.20001220703</ele>
        <time>2019-06-27T17:25:29.000Z</time>
      </trkpt>
      <trkpt lat="43.93348" lon="1.87463">
        <ele>870.40002441406</ele>
        <time>2019-06-27T17:25:30.000Z</time>
      </trkpt>
      <trkpt lat="43.93347" lon="1.87462">
        <ele>870.59997558594</ele>
        <time>2019-06-27T17:25:31.000Z</time>
      </trkpt>
      <trkpt lat="43.93345" lon="1.87461">
        <ele>870.79998779297</ele>
        <time>2019-06-27T17:25:32.000Z</time>
      </trkpt>
      <trkpt lat="43.93344" lon="1.8746">
        <ele>871</ele>
        <time>2019-06-27T17:25:33.000Z</time>
      </trkpt>
      <trkpt lat="43.93344" lon="1.87459">
        <ele>871</ele>
        <time>2019-06-27T17:25:34.000Z</time>
      </trkpt>
      <trkpt lat="43.93343" lon="1.87459">
        <ele>871.20001220703</ele>
        <time>2019-06-27T17:25:35.000Z</time>
      </trkpt>
      <trkpt lat="43.93342" lon="1.87458">
        <ele>871.40002441406</ele>
        <time>2019-06-27T17:25:36.000Z</time>
      </trkpt>
      <trkpt lat="43.93341" lon="1.87456">
        <ele>871.59997558594</ele>
        <time>2019-06-27T17:25:37.000Z</time>
      </trkpt>
      <trkpt lat="43.9334" lon="1.87455">
        <ele>871.79998779297</ele>
        <time>2019-06-27T17:25:38.000Z</time>
      </trkpt>
      <trkpt lat="43.9334" lon="1.87454">
        <ele>872</ele>
        <time>2019-06-27T17:25:39.000Z</time>
      </trkpt>
      <trkpt lat="43.93339" lon="1.87453">
        <ele>872.20001220703</ele>
        <time>2019-06-27T17:25:40.000Z</time>
      </trkpt>
      <trkpt lat="43.93338" lon="1.87451">
        <ele>872.40002441406</ele>
        <time>2019-06-27T17:25:41.000Z</time>
      </trkpt>
      <trkpt lat="43.93337" lon="1.8745">
        <ele>872.59997558594</ele>
        <time>2019-06-27T17:25:42.000Z</time>
      </trkpt>
      <trkpt lat="43.93336" lon="1.87449">
        <ele>873</ele>
        <time>2019-06-27T17:25:43.000Z</time>
      </trkpt>
      <trkpt lat="43.93336" lon="1.87447">
        <ele>873.20001220703</ele>
        <time>2019-06-27T17:25:44.000Z</time>
      </trkpt>
      <trkpt lat="43.93335" lon="1.87445">
        <ele>873.40002441406</ele>
        <time>2019-06-27T17:25:45.000Z</time>
      </trkpt>
      <trkpt lat="43.93336" lon="1.87444">
        <ele>873.40002441406</ele>
        <time>2019-06-27T17:25:46.000Z</time>
      </trkpt>
      <trkpt lat="43.93336" lon="1.87443">
        <ele>873.59997558594</ele>
        <time>2019-06-27T17:25:47.000Z</time>
      </trkpt>
      <trkpt lat="43.93337" lon="1.87442">
        <ele>873.79998779297</ele>
        <time>2019-06-27T17:25:48.000Z</time>
      </trkpt>
      <trkpt lat="43.93338" lon="1.87441">
        <ele>874</ele>
        <time>2019-06-27T17:25:49.000Z</time>
      </trkpt>
      <trkpt lat="43.93339" lon="1.87441">
        <ele>874.20001220703</ele>
        <time>2019-06-27T17:25:50.000Z</time>
      </trkpt>
      <trkpt lat="43.93341" lon="1.8744">
        <ele>874.40002441406</ele>
        <time>2019-06-27T17:25:51.000Z</time>
      </trkpt>
      <trkpt lat="43.93341" lon="1.8744">
        <ele>874.59997558594</ele>
        <time>2019-06-27T17:25:52.000Z</time>
      </trkpt>
      <trkpt lat="43.93342" lon="1.87439">
        <ele>874.79998779297</ele>
        <time>2019-06-27T17:25:53.000Z</time>
      </trkpt>
      <trkpt lat="43.93343" lon="1.87438">
        <ele>875</ele>
        <time>2019-06-27T17:25:54.000Z</time>
      </trkpt>
      <trkpt lat="43.93344" lon="1.87437">
        <ele>875</ele>
        <time>2019-06-27T17:25:55.000Z</time>
      </trkpt>
      <trkpt lat="43.93345" lon="1.87435">
        <ele>875</ele>
        <time>2019-06-27T17:25:56.000Z</time>
      </trkpt>
      <trkpt lat="43.93346" lon="1.87434">
        <ele>875</ele>
        <time>2019-06-27T17:25:57.000Z</time>
      </trkpt>
      <trkpt lat="43.93347" lon="1.87433">
        <ele>875.20001220703</ele>
        <time>2019-06-27T17:25:58.000Z</time>
      </trkpt>
      <trkpt lat="43.93348" lon="1.87432">
        <ele>875</ele>
        <time>2019-06-27T17:25:59.000Z</time>
      </trkpt>
      <trkpt lat="43.93349" lon="1.87431">
        <ele>875.20001220703</ele>
        <time>2019-06-27T17:26:00.000Z</time>
      </trkpt>
      <trkpt lat="43.9335" lon="1.87429">
        <ele>875.20001220703</ele>
        <time>2019-06-27T17:26:01.000Z</time>
      </trkpt>
      <trkpt lat="43.93351" lon="1.87429">
        <ele>875.20001220703</ele>
        <time>2019-06-27T17:26:02.000Z</time>
      </trkpt>
      <trkpt lat="43.93352" lon="1.87428">
        <ele>875.20001220703</ele>
        <time>2019-06-27T17:26:03.000Z</time>
      </trkpt>
      <trkpt lat="43.93354" lon="1.87426">
        <ele>875.20001220703</ele>
        <time>2019-06-27T17:26:04.000Z</time>
      </trkpt>
      <trkpt lat="43.93356" lon="1.87426">
        <ele>875.20001220703</ele>
        <time>2019-06-27T17:26:05.000Z</time>
      </trkpt>
      <trkpt lat="43.93358" lon="1.87425">
        <ele>875.20001220703</ele>
        <time>2019-06-27T17:26:06.000Z</time>
      </trkpt>
      <trkpt lat="43.93361" lon="1.87423">
        <ele>875</ele>
        <time>2019-06-27T17:26:07.000Z</time>
      </trkpt>
      <trkpt lat="43.93364" lon="1.87421">
        <ele>874.79998779297</ele>
        <time>2019-06-27T17:26:08.000Z</time>
      </trkpt>
      <trkpt lat="43.93367" lon="1.87418">
        <ele>874.40002441406</ele>
        <time>2019-06-27T17:26:09.000Z</time>
      </trkpt>
      <trkpt lat="43.93369" lon="1.87413">
        <ele>874.20001220703</ele>
        <time>2019-06-27T17:26:10.000Z</time>
      </trkpt>
      <trkpt lat="43.93372" lon="1.87408">
        <ele>874</ele>
        <time>2019-06-27T17:26:11.000Z</time>
      </trkpt>
      <trkpt lat="43.93374" lon="1.87403">
        <ele>873.59997558594</ele>
        <time>2019-06-27T17:26:12.000Z</time>
      </trkpt>
      <trkpt lat="43.93377" lon="1.87397">
        <ele>873.40002441406</ele>
        <time>2019-06-27T17:26:13.000Z</time>
      </trkpt>
      <trkpt lat="43.93379" lon="1.87391">
        <ele>873.40002441406</ele>
        <time>2019-06-27T17:26:14.000Z</time>
      </trkpt>
      <trkpt lat="43.93381" lon="1.87386">
        <ele>873.40002441406</ele>
        <time>2019-06-27T17:26:15.000Z</time>
      </trkpt>
      <trkpt lat="43.93382" lon="1.87381">
        <ele>873.40002441406</ele>
        <time>2019-06-27T17:26:16.000Z</time>
      </trkpt>
      <trkpt lat="43.93384" lon="1.87376">
        <ele>873.40002441406</ele>
        <time>2019-06-27T17:26:17.000Z</time>
      </trkpt>
      <trkpt lat="43.93385" lon="1.87372">
        <ele>873.40002441406</ele>
        <time>2019-06-27T17:26:18.000Z</time>
      </trkpt>
      <trkpt lat="43.93387" lon="1.87368">
        <ele>873.20001220703</ele>
        <time>2019-06-27T17:26:19.000Z</time>
      </trkpt>
      <trkpt lat="43.93388" lon="1.87364">
        <ele>873</ele>
        <time>2019-06-27T17:26:20.000Z</time>
      </trkpt>
      <trkpt lat="43.93389" lon="1.87359">
        <ele>873</ele>
        <time>2019-06-27T17:26:21.000Z</time>
      </trkpt>
      <trkpt lat="43.9339" lon="1.87355">
        <ele>873.20001220703</ele>
        <time>2019-06-27T17:26:22.000Z</time>
      </trkpt>
      <trkpt lat="43.93391" lon="1.87351">
        <ele>873</ele>
        <time>2019-06-27T17:26:23.000Z</time>
      </trkpt>
      <trkpt lat="43.93394" lon="1.87346">
        <ele>873</ele>
        <time>2019-06-27T17:26:24.000Z</time>
      </trkpt>
      <trkpt lat="43.93396" lon="1.87341">
        <ele>873</ele>
        <time>2019-06-27T17:26:25.000Z</time>
      </trkpt>
      <trkpt lat="43.93398" lon="1.87337">
        <ele>873</ele>
        <time>2019-06-27T17:26:26.000Z</time>
      </trkpt>
      <trkpt lat="43.93401" lon="1.87333">
        <ele>872.79998779297</ele>
        <time>2019-06-27T17:26:27.000Z</time>
      </trkpt>
      <trkpt lat="43.93403" lon="1.87329">
        <ele>872.79998779297</ele>
        <time>2019-06-27T17:26:28.000Z</time>
      </trkpt>
      <trkpt lat="43.93405" lon="1.87326">
        <ele>872.59997558594</ele>
        <time>2019-06-27T17:26:29.000Z</time>
      </trkpt>
      <trkpt lat="43.93407" lon="1.87322">
        <ele>872.59997558594</ele>
        <time>2019-06-27T17:26:30.000Z</time>
      </trkpt>
      <trkpt lat="43.93408" lon="1.87319">
        <ele>872.59997558594</ele>
        <time>2019-06-27T17:26:31.000Z</time>
      </trkpt>
      <trkpt lat="43.93408" lon="1.87317">
        <ele>872.79998779297</ele>
        <time>2019-06-27T17:26:32.000Z</time>
      </trkpt>
      <trkpt lat="43.93408" lon="1.87315">
        <ele>872.79998779297</ele>
        <time>2019-06-27T17:26:33.000Z</time>
      </trkpt>
      <trkpt lat="43.93408" lon="1.87314">
        <ele>872.79998779297</ele>
        <time>2019-06-27T17:26:34.000Z</time>
      </trkpt>
      <trkpt lat="43.93408" lon="1.87313">
        <ele>872.79998779297</ele>
        <time>2019-06-27T17:26:35.000Z</time>
      </trkpt>
      <trkpt lat="43.93407" lon="1.87311">
        <ele>873</ele>
        <time>2019-06-27T17:26:36.000Z</time>
      </trkpt>
      <trkpt lat="43.93406" lon="1.8731">
        <ele>873</ele>
        <time>2019-06-27T17:26:37.000Z</time>
      </trkpt>
      <trkpt lat="43.93405" lon="1.87308">
        <ele>873.20001220703</ele>
        <time>2019-06-27T17:26:38.000Z</time>
      </trkpt>
      <trkpt lat="43.93404" lon="1.87306">
        <ele>873.40002441406</ele>
        <time>2019-06-27T17:26:39.000Z</time>
      </trkpt>
      <trkpt lat="43.93403" lon="1.87304">
        <ele>873.59997558594</ele>
        <time>2019-06-27T17:26:40.000Z</time>
      </trkpt>
      <trkpt lat="43.93403" lon="1.87302">
        <ele>874</ele>
        <time>2019-06-27T17:26:41.000Z</time>
      </trkpt>
      <trkpt lat="43.93402" lon="1.87299">
        <ele>874.40002441406</ele>
        <time>2019-06-27T17:26:42.000Z</time>
      </trkpt>
      <trkpt lat="43.93401" lon="1.87297">
        <ele>874.59997558594</ele>
        <time>2019-06-27T17:26:43.000Z</time>
      </trkpt>
      <trkpt lat="43.934" lon="1.87296">
        <ele>874.79998779297</ele>
        <time>2019-06-27T17:26:44.000Z</time>
      </trkpt>
      <trkpt lat="43.934" lon="1.87294">
        <ele>875.20001220703</ele>
        <time>2019-06-27T17:26:45.000Z</time>
      </trkpt>
      <trkpt lat="43.93401" lon="1.87291">
        <ele>875.59997558594</ele>
        <time>2019-06-27T17:26:46.000Z</time>
      </trkpt>
      <trkpt lat="43.93401" lon="1.87288">
        <ele>875.79998779297</ele>
        <time>2019-06-27T17:26:47.000Z</time>
      </trkpt>
      <trkpt lat="43.93401" lon="1.87286">
        <ele>876</ele>
        <time>2019-06-27T17:26:48.000Z</time>
      </trkpt>
      <trkpt lat="43.93401" lon="1.87284">
        <ele>876</ele>
        <time>2019-06-27T17:26:49.000Z</time>
      </trkpt>
      <trkpt lat="43.934" lon="1.87281">
        <ele>876.20001220703</ele>
        <time>2019-06-27T17:26:50.000Z</time>
      </trkpt>
      <trkpt lat="43.934" lon="1.87278">
        <ele>876.40002441406</ele>
        <time>2019-06-27T17:26:51.000Z</time>
      </trkpt>
      <trkpt lat="43.93399" lon="1.87276">
        <ele>876.40002441406</ele>
        <time>2019-06-27T17:26:52.000Z</time>
      </trkpt>
      <trkpt lat="43.93398" lon="1.87273">
        <ele>876.59997558594</ele>
        <time>2019-06-27T17:26:53.000Z</time>
      </trkpt>
      <trkpt lat="43.93398" lon="1.87271">
        <ele>876.79998779297</ele>
        <time>2019-06-27T17:26:54.000Z</time>
      </trkpt>
      <trkpt lat="43.93398" lon="1.87268">
        <ele>877.40002441406</ele>
        <time>2019-06-27T17:26:55.000Z</time>
      </trkpt>
      <trkpt lat="43.93397" lon="1.87267">
        <ele>877.40002441406</ele>
        <time>2019-06-27T17:26:56.000Z</time>
      </trkpt>
      <trkpt lat="43.93397" lon="1.87264">
        <ele>877.79998779297</ele>
        <time>2019-06-27T17:26:57.000Z</time>
      </trkpt>
      <trkpt lat="43.93396" lon="1.87262">
        <ele>878</ele>
        <time>2019-06-27T17:26:58.000Z</time>
      </trkpt>
      <trkpt lat="43.93396" lon="1.8726">
        <ele>878</ele>
        <time>2019-06-27T17:26:59.000Z</time>
      </trkpt>
      <trkpt lat="43.93395" lon="1.87258">
        <ele>878.20001220703</ele>
        <time>2019-06-27T17:27:00.000Z</time>
      </trkpt>
      <trkpt lat="43.93395" lon="1.87256">
        <ele>878.20001220703</ele>
        <time>2019-06-27T17:27:01.000Z</time>
      </trkpt>
      <trkpt lat="43.93395" lon="1.87253">
        <ele>878.40002441406</ele>
        <time>2019-06-27T17:27:02.000Z</time>
      </trkpt>
      <trkpt lat="43.93395" lon="1.8725">
        <ele>878.40002441406</ele>
        <time>2019-06-27T17:27:03.000Z</time>
      </trkpt>
      <trkpt lat="43.93394" lon="1.87249">
        <ele>878.40002441406</ele>
        <time>2019-06-27T17:27:04.000Z</time>
      </trkpt>
      <trkpt lat="43.93393" lon="1.87248">
        <ele>878.59997558594</ele>
        <time>2019-06-27T17:27:05.000Z</time>
      </trkpt>
      <trkpt lat="43.93392" lon="1.87248">
        <ele>878.79998779297</ele>
        <time>2019-06-27T17:27:06.000Z</time>
      </trkpt>
      <trkpt lat="43.93391" lon="1.87248">
        <ele>879</ele>
        <time>2019-06-27T17:27:07.000Z</time>
      </trkpt>
      <trkpt lat="43.93389" lon="1.87247">
        <ele>879.20001220703</ele>
        <time>2019-06-27T17:27:08.000Z</time>
      </trkpt>
      <trkpt lat="43.93388" lon="1.87246">
        <ele>879.40002441406</ele>
        <time>2019-06-27T17:27:09.000Z</time>
      </trkpt>
      <trkpt lat="43.93387" lon="1.87246">
        <ele>879.79998779297</ele>
        <time>2019-06-27T17:27:10.000Z</time>
      </trkpt>
      <trkpt lat="43.93386" lon="1.87247">
        <ele>880</ele>
        <time>2019-06-27T17:27:11.000Z</time>
      </trkpt>
      <trkpt lat="43.93384" lon="1.87248">
        <ele>880.40002441406</ele>
        <time>2019-06-27T17:27:12.000Z</time>
      </trkpt>
      <trkpt lat="43.93383" lon="1.87249">
        <ele>880.40002441406</ele>
        <time>2019-06-27T17:27:13.000Z</time>
      </trkpt>
      <trkpt lat="43.93382" lon="1.8725">
        <ele>880.59997558594</ele>
        <time>2019-06-27T17:27:14.000Z</time>
      </trkpt>
      <trkpt lat="43.9338" lon="1.87251">
        <ele>880.59997558594</ele>
        <time>2019-06-27T17:27:15.000Z</time>
      </trkpt>
      <trkpt lat="43.93379" lon="1.87251">
        <ele>880.79998779297</ele>
        <time>2019-06-27T17:27:16.000Z</time>
      </trkpt>
      <trkpt lat="43.93377" lon="1.87252">
        <ele>880.79998779297</ele>
        <time>2019-06-27T17:27:17.000Z</time>
      </trkpt>
      <trkpt lat="43.93376" lon="1.87251">
        <ele>881</ele>
        <time>2019-06-27T17:27:18.000Z</time>
      </trkpt>
      <trkpt lat="43.93375" lon="1.8725">
        <ele>881.40002441406</ele>
        <time>2019-06-27T17:27:19.000Z</time>
      </trkpt>
      <trkpt lat="43.93374" lon="1.8725">
        <ele>881.79998779297</ele>
        <time>2019-06-27T17:27:20.000Z</time>
      </trkpt>
      <trkpt lat="43.93373" lon="1.87249">
        <ele>881.79998779297</ele>
        <time>2019-06-27T17:27:21.000Z</time>
      </trkpt>
      <trkpt lat="43.93371" lon="1.87248">
        <ele>882</ele>
        <time>2019-06-27T17:27:22.000Z</time>
      </trkpt>
      <trkpt lat="43.9337" lon="1.87247">
        <ele>882.20001220703</ele>
        <time>2019-06-27T17:27:23.000Z</time>
      </trkpt>
      <trkpt lat="43.93368" lon="1.87246">
        <ele>882.40002441406</ele>
        <time>2019-06-27T17:27:24.000Z</time>
      </trkpt>
      <trkpt lat="43.93367" lon="1.87245">
        <ele>882.40002441406</ele>
        <time>2019-06-27T17:27:25.000Z</time>
      </trkpt>
      <trkpt lat="43.93365" lon="1.87244">
        <ele>882.59997558594</ele>
        <time>2019-06-27T17:27:26.000Z</time>
      </trkpt>
      <trkpt lat="43.93364" lon="1.87244">
        <ele>882.79998779297</ele>
        <time>2019-06-27T17:27:27.000Z</time>
      </trkpt>
      <trkpt lat="43.93363" lon="1.87244">
        <ele>882.79998779297</ele>
        <time>2019-06-27T17:27:28.000Z</time>
      </trkpt>
      <trkpt lat="43.93361" lon="1.87245">
        <ele>883</ele>
        <time>2019-06-27T17:27:29.000Z</time>
      </trkpt>
      <trkpt lat="43.93359" lon="1.87245">
        <ele>883.20001220703</ele>
        <time>2019-06-27T17:27:30.000Z</time>
      </trkpt>
      <trkpt lat="43.93358" lon="1.87246">
        <ele>883.40002441406</ele>
        <time>2019-06-27T17:27:31.000Z</time>
      </trkpt>
      <trkpt lat="43.93356" lon="1.87246">
        <ele>883.40002441406</ele>
        <time>2019-06-27T17:27:32.000Z</time>
      </trkpt>
      <trkpt lat="43.93354" lon="1.87245">
        <ele>883.59997558594</ele>
        <time>2019-06-27T17:27:33.000Z</time>
      </trkpt>
      <trkpt lat="43.93353" lon="1.87245">
        <ele>883.79998779297</ele>
        <time>2019-06-27T17:27:34.000Z</time>
      </trkpt>
      <trkpt lat="43.93351" lon="1.87245">
        <ele>883.79998779297</ele>
        <time>2019-06-27T17:27:35.000Z</time>
      </trkpt>
      <trkpt lat="43.9335" lon="1.87246">
        <ele>884</ele>
        <time>2019-06-27T17:27:36.000Z</time>
      </trkpt>
      <trkpt lat="43.93349" lon="1.87246">
        <ele>884.20001220703</ele>
        <time>2019-06-27T17:27:37.000Z</time>
      </trkpt>
      <trkpt lat="43.93348" lon="1.87247">
        <ele>884.20001220703</ele>
        <time>2019-06-27T17:27:38.000Z</time>
      </trkpt>
      <trkpt lat="43.93347" lon="1.87248">
        <ele>884.40002441406</ele>
        <time>2019-06-27T17:27:39.000Z</time>
      </trkpt>
      <trkpt lat="43.93345" lon="1.87249">
        <ele>884.59997558594</ele>
        <time>2019-06-27T17:27:40.000Z</time>
      </trkpt>
      <trkpt lat="43.93344" lon="1.87249">
        <ele>884.59997558594</ele>
        <time>2019-06-27T17:27:41.000Z</time>
      </trkpt>
      <trkpt lat="43.93343" lon="1.87248">
        <ele>884.79998779297</ele>
        <time>2019-06-27T17:27:42.000Z</time>
      </trkpt>
      <trkpt lat="43.93341" lon="1.87247">
        <ele>885</ele>
        <time>2019-06-27T17:27:43.000Z</time>
      </trkpt>
      <trkpt lat="43.9334" lon="1.87247">
        <ele>885.20001220703</ele>
        <time>2019-06-27T17:27:44.000Z</time>
      </trkpt>
      <trkpt lat="43.93339" lon="1.87245">
        <ele>885.40002441406</ele>
        <time>2019-06-27T17:27:45.000Z</time>
      </trkpt>
      <trkpt lat="43.93338" lon="1.87244">
        <ele>885.59997558594</ele>
        <time>2019-06-27T17:27:46.000Z</time>
      </trkpt>
      <trkpt lat="43.93337" lon="1.87243">
        <ele>885.79998779297</ele>
        <time>2019-06-27T17:27:47.000Z</time>
      </trkpt>
      <trkpt lat="43.93335" lon="1.87242">
        <ele>886</ele>
        <time>2019-06-27T17:27:48.000Z</time>
      </trkpt>
      <trkpt lat="43.93333" lon="1.87242">
        <ele>886</ele>
        <time>2019-06-27T17:27:49.000Z</time>
      </trkpt>
      <trkpt lat="43.93332" lon="1.87242">
        <ele>886.20001220703</ele>
        <time>2019-06-27T17:27:50.000Z</time>
      </trkpt>
      <trkpt lat="43.9333" lon="1.87242">
        <ele>886.40002441406</ele>
        <time>2019-06-27T17:27:51.000Z</time>
      </trkpt>
      <trkpt lat="43.93329" lon="1.87243">
        <ele>886.40002441406</ele>
        <time>2019-06-27T17:27:52.000Z</time>
      </trkpt>
      <trkpt lat="43.93327" lon="1.87243">
        <ele>886.59997558594</ele>
        <time>2019-06-27T17:27:53.000Z</time>
      </trkpt>
      <trkpt lat="43.93326" lon="1.87243">
        <ele>886.40002441406</ele>
        <time>2019-06-27T17:27:54.000Z</time>
      </trkpt>
      <trkpt lat="43.93327" lon="1.87243">
        <ele>886.59997558594</ele>
        <time>2019-06-27T17:27:55.000Z</time>
      </trkpt>
      <trkpt lat="43.93325" lon="1.87243">
        <ele>886.59997558594</ele>
        <time>2019-06-27T17:27:56.000Z</time>
      </trkpt>
      <trkpt lat="43.93324" lon="1.87241">
        <ele>886.59997558594</ele>
        <time>2019-06-27T17:27:57.000Z</time>
      </trkpt>
      <trkpt lat="43.93324" lon="1.87242">
        <ele>886.59997558594</ele>
        <time>2019-06-27T17:27:58.000Z</time>
      </trkpt>
      <trkpt lat="43.93322" lon="1.8724">
        <ele>886.59997558594</ele>
        <time>2019-06-27T17:27:59.000Z</time>
      </trkpt>
      <trkpt lat="43.93322" lon="1.8724">
        <ele>886.59997558594</ele>
        <time>2019-06-27T17:28:00.000Z</time>
      </trkpt>
      <trkpt lat="43.93322" lon="1.8724">
        <ele>886.59997558594</ele>
        <time>2019-06-27T17:28:01.000Z</time>
      </trkpt>
      <trkpt lat="43.93322" lon="1.8724">
        <ele>886.59997558594</ele>
        <time>2019-06-27T17:28:02.000Z</time>
      </trkpt>
      <trkpt lat="43.93322" lon="1.8724">
        <ele>886.59997558594</ele>
        <time>2019-06-27T17:28:03.000Z</time>
      </trkpt>
      <trkpt lat="43.93322" lon="1.8724">
        <ele>886.59997558594</ele>
        <time>2019-06-27T17:28:04.000Z</time>
      </trkpt>
      <trkpt lat="43.93322" lon="1.8724">
        <ele>886.59997558594</ele>
        <time>2019-06-27T17:28:05.000Z</time>
      </trkpt>
      <trkpt lat="43.93322" lon="1.8724">
        <ele>886.59997558594</ele>
        <time>2019-06-27T17:28:06.000Z</time>
      </trkpt>
      <trkpt lat="43.93322" lon="1.8724">
        <ele>886.59997558594</ele>
        <time>2019-06-27T17:28:07.000Z</time>
      </trkpt>
      <trkpt lat="43.93322" lon="1.8724">
        <ele>886.59997558594</ele>
        <time>2019-06-27T17:28:08.000Z</time>
      </trkpt>
      <trkpt lat="43.93322" lon="1.8724">
        <ele>886.59997558594</ele>
        <time>2019-06-27T17:28:09.000Z</time>
      </trkpt>
      <trkpt lat="43.93322" lon="1.8724">
        <ele>886.59997558594</ele>
        <time>2019-06-27T17:28:10.000Z</time>
      </trkpt>
      <trkpt lat="43.93322" lon="1.8724">
        <ele>886.59997558594</ele>
        <time>2019-06-27T17:28:11.000Z</time>
      </trkpt>
      <trkpt lat="43.93322" lon="1.8724">
        <ele>886.59997558594</ele>
        <time>2019-06-27T17:28:12.000Z</time>
      </trkpt>
      <trkpt lat="43.93322" lon="1.8724">
        <ele>886.59997558594</ele>
        <time>2019-06-27T17:28:13.000Z</time>
      </trkpt>
      <trkpt lat="43.93322" lon="1.8724">
        <ele>886.59997558594</ele>
        <time>2019-06-27T17:28:14.000Z</time>
      </trkpt>
      <trkpt lat="43.93322" lon="1.8724">
        <ele>886.59997558594</ele>
        <time>2019-06-27T17:28:15.000Z</time>
      </trkpt>
      <trkpt lat="43.93322" lon="1.8724">
        <ele>886.59997558594</ele>
        <time>2019-06-27T17:28:16.000Z</time>
      </trkpt>
      <trkpt lat="43.93322" lon="1.8724">
        <ele>886.59997558594</ele>
        <time>2019-06-27T17:28:17.000Z</time>
      </trkpt>
      <trkpt lat="43.93322" lon="1.8724">
        <ele>886.59997558594</ele>
        <time>2019-06-27T17:28:18.000Z</time>
      </trkpt>
      <trkpt lat="43.93322" lon="1.8724">
        <ele>886.59997558594</ele>
        <time>2019-06-27T17:28:19.000Z</time>
      </trkpt>
      <trkpt lat="43.93322" lon="1.8724">
        <ele>886.59997558594</ele>
        <time>2019-06-27T17:28:20.000Z</time>
      </trkpt>
      <trkpt lat="43.93322" lon="1.8724">
        <ele>886.59997558594</ele>
        <time>2019-06-27T17:28:21.000Z</time>
      </trkpt>
      <trkpt lat="43.93322" lon="1.8724">
        <ele>886.59997558594</ele>
        <time>2019-06-27T17:28:22.000Z</time>
      </trkpt>
      <trkpt lat="43.93322" lon="1.8724">
        <ele>886.59997558594</ele>
        <time>2019-06-27T17:28:23.000Z</time>
      </trkpt>
      <trkpt lat="43.93322" lon="1.8724">
        <ele>886.59997558594</ele>
        <time>2019-06-27T17:28:24.000Z</time>
      </trkpt>
      <trkpt lat="43.93322" lon="1.8724">
        <ele>886.59997558594</ele>
        <time>2019-06-27T17:28:25.000Z</time>
      </trkpt>
      <trkpt lat="43.93322" lon="1.8724">
        <ele>886.59997558594</ele>
        <time>2019-06-27T17:28:26.000Z</time>
      </trkpt>
      <trkpt lat="43.93322" lon="1.8724">
        <ele>886.59997558594</ele>
        <time>2019-06-27T17:28:27.000Z</time>
      </trkpt>
      <trkpt lat="43.93322" lon="1.8724">
        <ele>886.59997558594</ele>
        <time>2019-06-27T17:28:28.000Z</time>
      </trkpt>
      <trkpt lat="43.93322" lon="1.8724">
        <ele>886.59997558594</ele>
        <time>2019-06-27T17:28:29.000Z</time>
      </trkpt>
      <trkpt lat="43.93322" lon="1.8724">
        <ele>886.59997558594</ele>
        <time>2019-06-27T17:28:30.000Z</time>
      </trkpt>
      <trkpt lat="43.93322" lon="1.8724">
        <ele>886.59997558594</ele>
        <time>2019-06-27T17:28:31.000Z</time>
      </trkpt>
      <trkpt lat="43.93322" lon="1.8724">
        <ele>886.59997558594</ele>
        <time>2019-06-27T17:28:32.000Z</time>
      </trkpt>
      <trkpt lat="43.93322" lon="1.8724">
        <ele>886.59997558594</ele>
        <time>2019-06-27T17:28:33.000Z</time>
      </trkpt>
      <trkpt lat="43.93322" lon="1.8724">
        <ele>886.59997558594</ele>
        <time>2019-06-27T17:28:34.000Z</time>
      </trkpt>
      <trkpt lat="43.93322" lon="1.8724">
        <ele>886.59997558594</ele>
        <time>2019-06-27T17:28:35.000Z</time>
      </trkpt>
      <trkpt lat="43.93322" lon="1.8724">
        <ele>886.40002441406</ele>
        <time>2019-06-27T17:28:36.000Z</time>
      </trkpt>
      <trkpt lat="43.93322" lon="1.8724">
        <ele>886.40002441406</ele>
        <time>2019-06-27T17:28:37.000Z</time>
      </trkpt>
      <trkpt lat="43.93322" lon="1.8724">
        <ele>886.59997558594</ele>
        <time>2019-06-27T17:28:38.000Z</time>
      </trkpt>
      <trkpt lat="43.93322" lon="1.87239">
        <ele>886.59997558594</ele>
        <time>2019-06-27T17:28:39.000Z</time>
      </trkpt>
      <trkpt lat="43.93322" lon="1.87239">
        <ele>886.40002441406</ele>
        <time>2019-06-27T17:28:40.000Z</time>
      </trkpt>
      <trkpt lat="43.93322" lon="1.87239">
        <ele>886.40002441406</ele>
        <time>2019-06-27T17:28:41.000Z</time>
      </trkpt>
      <trkpt lat="43.93322" lon="1.87239">
        <ele>886.40002441406</ele>
        <time>2019-06-27T17:28:42.000Z</time>
      </trkpt>
      <trkpt lat="43.93322" lon="1.87239">
        <ele>886.40002441406</ele>
        <time>2019-06-27T17:28:43.000Z</time>
      </trkpt>
      <trkpt lat="43.93322" lon="1.87239">
        <ele>886.40002441406</ele>
        <time>2019-06-27T17:28:44.000Z</time>
      </trkpt>
      <trkpt lat="43.93322" lon="1.87239">
        <ele>886.40002441406</ele>
        <time>2019-06-27T17:28:45.000Z</time>
      </trkpt>
      <trkpt lat="43.93322" lon="1.87239">
        <ele>886.40002441406</ele>
        <time>2019-06-27T17:28:46.000Z</time>
      </trkpt>
      <trkpt lat="43.93322" lon="1.87239">
        <ele>886.40002441406</ele>
        <time>2019-06-27T17:28:47.000Z</time>
      </trkpt>
      <trkpt lat="43.93322" lon="1.87239">
        <ele>886.40002441406</ele>
        <time>2019-06-27T17:28:48.000Z</time>
      </trkpt>
      <trkpt lat="43.93322" lon="1.87239">
        <ele>886.40002441406</ele>
        <time>2019-06-27T17:28:49.000Z</time>
      </trkpt>
      <trkpt lat="43.93322" lon="1.87239">
        <ele>886.59997558594</ele>
        <time>2019-06-27T17:28:50.000Z</time>
      </trkpt>
      <trkpt lat="43.93322" lon="1.87239">
        <ele>886.59997558594</ele>
        <time>2019-06-27T17:28:51.000Z</time>
      </trkpt>
      <trkpt lat="43.93322" lon="1.87239">
        <ele>886.59997558594</ele>
        <time>2019-06-27T17:28:52.000Z</time>
      </trkpt>
      <trkpt lat="43.93322" lon="1.87239">
        <ele>886.40002441406</ele>
        <time>2019-06-27T17:28:53.000Z</time>
      </trkpt>
      <trkpt lat="43.93322" lon="1.87239">
        <ele>886.59997558594</ele>
        <time>2019-06-27T17:28:54.000Z</time>
      </trkpt>
      <trkpt lat="43.93322" lon="1.87239">
        <ele>886.40002441406</ele>
        <time>2019-06-27T17:28:55.000Z</time>
      </trkpt>
      <trkpt lat="43.93322" lon="1.87239">
        <ele>886.40002441406</ele>
        <time>2019-06-27T17:28:56.000Z</time>
      </trkpt>
      <trkpt lat="43.93322" lon="1.87239">
        <ele>886.40002441406</ele>
        <time>2019-06-27T17:28:57.000Z</time>
      </trkpt>
      <trkpt lat="43.93322" lon="1.87239">
        <ele>886.40002441406</ele>
        <time>2019-06-27T17:28:58.000Z</time>
      </trkpt>
      <trkpt lat="43.93322" lon="1.87239">
        <ele>886.59997558594</ele>
        <time>2019-06-27T17:28:59.000Z</time>
      </trkpt>
      <trkpt lat="43.93322" lon="1.87239">
        <ele>886.59997558594</ele>
        <time>2019-06-27T17:29:00.000Z</time>
      </trkpt>
      <trkpt lat="43.93322" lon="1.87239">
        <ele>886.40002441406</ele>
        <time>2019-06-27T17:29:01.000Z</time>
      </trkpt>
      <trkpt lat="43.93322" lon="1.87239">
        <ele>886.40002441406</ele>
        <time>2019-06-27T17:29:02.000Z</time>
      </trkpt>
      <trkpt lat="43.93322" lon="1.87239">
        <ele>886.40002441406</ele>
        <time>2019-06-27T17:29:03.000Z</time>
      </trkpt>
      <trkpt lat="43.93322" lon="1.87239">
        <ele>886.59997558594</ele>
        <time>2019-06-27T17:29:04.000Z</time>
      </trkpt>
      <trkpt lat="43.93322" lon="1.87239">
        <ele>886.59997558594</ele>
        <time>2019-06-27T17:29:05.000Z</time>
      </trkpt>
      <trkpt lat="43.93322" lon="1.87239">
        <ele>886.59997558594</ele>
        <time>2019-06-27T17:29:06.000Z</time>
      </trkpt>
      <trkpt lat="43.93322" lon="1.87239">
        <ele>886.59997558594</ele>
        <time>2019-06-27T17:29:07.000Z</time>
      </trkpt>
      <trkpt lat="43.93322" lon="1.87239">
        <ele>886.40002441406</ele>
        <time>2019-06-27T17:29:08.000Z</time>
      </trkpt>
      <trkpt lat="43.93322" lon="1.87239">
        <ele>886.40002441406</ele>
        <time>2019-06-27T17:29:09.000Z</time>
      </trkpt>
      <trkpt lat="43.93322" lon="1.87239">
        <ele>886.40002441406</ele>
        <time>2019-06-27T17:29:10.000Z</time>
      </trkpt>
      <trkpt lat="43.93322" lon="1.87239">
        <ele>886.40002441406</ele>
        <time>2019-06-27T17:29:11.000Z</time>
      </trkpt>
      <trkpt lat="43.93322" lon="1.87239">
        <ele>886.59997558594</ele>
        <time>2019-06-27T17:29:12.000Z</time>
      </trkpt>
      <trkpt lat="43.93322" lon="1.87239">
        <ele>886.40002441406</ele>
        <time>2019-06-27T17:29:13.000Z</time>
      </trkpt>
      <trkpt lat="43.93322" lon="1.87239">
        <ele>886.59997558594</ele>
        <time>2019-06-27T17:29:14.000Z</time>
      </trkpt>
      <trkpt lat="43.93322" lon="1.87239">
        <ele>886.40002441406</ele>
        <time>2019-06-27T17:29:15.000Z</time>
      </trkpt>
      <trkpt lat="43.93322" lon="1.87239">
        <ele>886.59997558594</ele>
        <time>2019-06-27T17:29:16.000Z</time>
      </trkpt>
      <trkpt lat="43.93322" lon="1.87239">
        <ele>886.40002441406</ele>
        <time>2019-06-27T17:29:17.000Z</time>
      </trkpt>
      <trkpt lat="43.93322" lon="1.87239">
        <ele>886.40002441406</ele>
        <time>2019-06-27T17:29:18.000Z</time>
      </trkpt>
      <trkpt lat="43.93322" lon="1.87239">
        <ele>886.59997558594</ele>
        <time>2019-06-27T17:29:19.000Z</time>
      </trkpt>
      <trkpt lat="43.93322" lon="1.87239">
        <ele>886.59997558594</ele>
        <time>2019-06-27T17:29:20.000Z</time>
      </trkpt>
      <trkpt lat="43.93322" lon="1.87239">
        <ele>886.40002441406</ele>
        <time>2019-06-27T17:29:21.000Z</time>
      </trkpt>
      <trkpt lat="43.93322" lon="1.87239">
        <ele>886.59997558594</ele>
        <time>2019-06-27T17:29:22.000Z</time>
      </trkpt>
      <trkpt lat="43.93322" lon="1.87239">
        <ele>886.40002441406</ele>
        <time>2019-06-27T17:29:23.000Z</time>
      </trkpt>
      <trkpt lat="43.93322" lon="1.87239">
        <ele>886.40002441406</ele>
        <time>2019-06-27T17:29:24.000Z</time>
      </trkpt>
      <trkpt lat="43.93322" lon="1.87239">
        <ele>886.40002441406</ele>
        <time>2019-06-27T17:29:25.000Z</time>
      </trkpt>
      <trkpt lat="43.93322" lon="1.87239">
        <ele>886.40002441406</ele>
        <time>2019-06-27T17:29:26.000Z</time>
      </trkpt>
      <trkpt lat="43.93322" lon="1.87239">
        <ele>886.40002441406</ele>
        <time>2019-06-27T17:29:27.000Z</time>
      </trkpt>
      <trkpt lat="43.93322" lon="1.87239">
        <ele>886.40002441406</ele>
        <time>2019-06-27T17:29:28.000Z</time>
      </trkpt>
      <trkpt lat="43.93322" lon="1.87239">
        <ele>886.59997558594</ele>
        <time>2019-06-27T17:29:29.000Z</time>
      </trkpt>
      <trkpt lat="43.93322" lon="1.87239">
        <ele>886.40002441406</ele>
        <time>2019-06-27T17:29:30.000Z</time>
      </trkpt>
      <trkpt lat="43.93322" lon="1.87239">
        <ele>886.40002441406</ele>
        <time>2019-06-27T17:29:31.000Z</time>
      </trkpt>
      <trkpt lat="43.93322" lon="1.87239">
        <ele>886.40002441406</ele>
        <time>2019-06-27T17:29:32.000Z</time>
      </trkpt>
      <trkpt lat="43.93322" lon="1.87238">
        <ele>886.59997558594</ele>
        <time>2019-06-27T17:29:33.000Z</time>
      </trkpt>
      <trkpt lat="43.93321" lon="1.87237">
        <ele>886.59997558594</ele>
        <time>2019-06-27T17:29:34.000Z</time>
      </trkpt>
      <trkpt lat="43.93321" lon="1.87234">
        <ele>886.40002441406</ele>
        <time>2019-06-27T17:29:35.000Z</time>
      </trkpt>
      <trkpt lat="43.9332" lon="1.87233">
        <ele>886.59997558594</ele>
        <time>2019-06-27T17:29:36.000Z</time>
      </trkpt>
      <trkpt lat="43.9332" lon="1.87231">
        <ele>886.59997558594</ele>
        <time>2019-06-27T17:29:37.000Z</time>
      </trkpt>
      <trkpt lat="43.9332" lon="1.8723">
        <ele>886.59997558594</ele>
        <time>2019-06-27T17:29:38.000Z</time>
      </trkpt>
      <trkpt lat="43.9332" lon="1.87228">
        <ele>886.59997558594</ele>
        <time>2019-06-27T17:29:39.000Z</time>
      </trkpt>
      <trkpt lat="43.93319" lon="1.87225">
        <ele>886.79998779297</ele>
        <time>2019-06-27T17:29:40.000Z</time>
      </trkpt>
      <trkpt lat="43.93319" lon="1.87223">
        <ele>886.79998779297</ele>
        <time>2019-06-27T17:29:41.000Z</time>
      </trkpt>
      <trkpt lat="43.93318" lon="1.87221">
        <ele>886.79998779297</ele>
        <time>2019-06-27T17:29:42.000Z</time>
      </trkpt>
      <trkpt lat="43.93318" lon="1.87218">
        <ele>886.79998779297</ele>
        <time>2019-06-27T17:29:43.000Z</time>
      </trkpt>
      <trkpt lat="43.93318" lon="1.87217">
        <ele>887</ele>
        <time>2019-06-27T17:29:44.000Z</time>
      </trkpt>
      <trkpt lat="43.93318" lon="1.87215">
        <ele>887</ele>
        <time>2019-06-27T17:29:45.000Z</time>
      </trkpt>
      <trkpt lat="43.93318" lon="1.87214">
        <ele>887.20001220703</ele>
        <time>2019-06-27T17:29:46.000Z</time>
      </trkpt>
      <trkpt lat="43.93317" lon="1.87213">
        <ele>887.20001220703</ele>
        <time>2019-06-27T17:29:47.000Z</time>
      </trkpt>
      <trkpt lat="43.93317" lon="1.87211">
        <ele>887.20001220703</ele>
        <time>2019-06-27T17:29:48.000Z</time>
      </trkpt>
      <trkpt lat="43.93317" lon="1.87209">
        <ele>887.20001220703</ele>
        <time>2019-06-27T17:29:49.000Z</time>
      </trkpt>
      <trkpt lat="43.93317" lon="1.87208">
        <ele>887.20001220703</ele>
        <time>2019-06-27T17:29:50.000Z</time>
      </trkpt>
      <trkpt lat="43.93317" lon="1.87206">
        <ele>887.40002441406</ele>
        <time>2019-06-27T17:29:51.000Z</time>
      </trkpt>
      <trkpt lat="43.93316" lon="1.87204">
        <ele>887.40002441406</ele>
        <time>2019-06-27T17:29:52.000Z</time>
      </trkpt>
      <trkpt lat="43.93316" lon="1.87202">
        <ele>887.40002441406</ele>
        <time>2019-06-27T17:29:53.000Z</time>
      </trkpt>
      <trkpt lat="43.93317" lon="1.87201">
        <ele>887.40002441406</ele>
        <time>2019-06-27T17:29:54.000Z</time>
      </trkpt>
      <trkpt lat="43.93317" lon="1.87199">
        <ele>887.59997558594</ele>
        <time>2019-06-27T17:29:55.000Z</time>
      </trkpt>
      <trkpt lat="43.93317" lon="1.87197">
        <ele>887.79998779297</ele>
        <time>2019-06-27T17:29:56.000Z</time>
      </trkpt>
      <trkpt lat="43.93317" lon="1.87195">
        <ele>887.79998779297</ele>
        <time>2019-06-27T17:29:57.000Z</time>
      </trkpt>
      <trkpt lat="43.93317" lon="1.87194">
        <ele>887.79998779297</ele>
        <time>2019-06-27T17:29:58.000Z</time>
      </trkpt>
      <trkpt lat="43.93317" lon="1.87192">
        <ele>888</ele>
        <time>2019-06-27T17:29:59.000Z</time>
      </trkpt>
      <trkpt lat="43.93317" lon="1.8719">
        <ele>888</ele>
        <time>2019-06-27T17:30:00.000Z</time>
      </trkpt>
      <trkpt lat="43.93317" lon="1.87188">
        <ele>888</ele>
        <time>2019-06-27T17:30:01.000Z</time>
      </trkpt>
      <trkpt lat="43.93317" lon="1.87186">
        <ele>888.20001220703</ele>
        <time>2019-06-27T17:30:02.000Z</time>
      </trkpt>
      <trkpt lat="43.93317" lon="1.87183">
        <ele>888.40002441406</ele>
        <time>2019-06-27T17:30:03.000Z</time>
      </trkpt>
      <trkpt lat="43.93317" lon="1.87181">
        <ele>888.59997558594</ele>
        <time>2019-06-27T17:30:04.000Z</time>
      </trkpt>
      <trkpt lat="43.93317" lon="1.87179">
        <ele>888.59997558594</ele>
        <time>2019-06-27T17:30:05.000Z</time>
      </trkpt>
      <trkpt lat="43.93317" lon="1.87177">
        <ele>888.59997558594</ele>
        <time>2019-06-27T17:30:06.000Z</time>
      </trkpt>
      <trkpt lat="43.93317" lon="1.87175">
        <ele>888.79998779297</ele>
        <time>2019-06-27T17:30:07.000Z</time>
      </trkpt>
      <trkpt lat="43.93317" lon="1.87173">
        <ele>888.79998779297</ele>
        <time>2019-06-27T17:30:08.000Z</time>
      </trkpt>
      <trkpt lat="43.93317" lon="1.87171">
        <ele>889</ele>
        <time>2019-06-27T17:30:09.000Z</time>
      </trkpt>
      <trkpt lat="43.93316" lon="1.87169">
        <ele>889</ele>
        <time>2019-06-27T17:30:10.000Z</time>
      </trkpt>
      <trkpt lat="43.93316" lon="1.87167">
        <ele>889.20001220703</ele>
        <time>2019-06-27T17:30:11.000Z</time>
      </trkpt>
      <trkpt lat="43.93316" lon="1.87165">
        <ele>889.20001220703</ele>
        <time>2019-06-27T17:30:12.000Z</time>
      </trkpt>
      <trkpt lat="43.93316" lon="1.87163">
        <ele>889.20001220703</ele>
        <time>2019-06-27T17:30:13.000Z</time>
      </trkpt>
      <trkpt lat="43.93316" lon="1.87161">
        <ele>889.40002441406</ele>
        <time>2019-06-27T17:30:14.000Z</time>
      </trkpt>
      <trkpt lat="43.93315" lon="1.87159">
        <ele>889.40002441406</ele>
        <time>2019-06-27T17:30:15.000Z</time>
      </trkpt>
      <trkpt lat="43.93316" lon="1.87156">
        <ele>889.59997558594</ele>
        <time>2019-06-27T17:30:16.000Z</time>
      </trkpt>
      <trkpt lat="43.93316" lon="1.87154">
        <ele>889.59997558594</ele>
        <time>2019-06-27T17:30:17.000Z</time>
      </trkpt>
      <trkpt lat="43.93316" lon="1.87152">
        <ele>889.59997558594</ele>
        <time>2019-06-27T17:30:18.000Z</time>
      </trkpt>
      <trkpt lat="43.93316" lon="1.8715">
        <ele>889.79998779297</ele>
        <time>2019-06-27T17:30:19.000Z</time>
      </trkpt>
      <trkpt lat="43.93316" lon="1.87149">
        <ele>890</ele>
        <time>2019-06-27T17:30:20.000Z</time>
      </trkpt>
      <trkpt lat="43.93316" lon="1.87147">
        <ele>890</ele>
        <time>2019-06-27T17:30:21.000Z</time>
      </trkpt>
      <trkpt lat="43.93315" lon="1.87145">
        <ele>890.20001220703</ele>
        <time>2019-06-27T17:30:22.000Z</time>
      </trkpt>
      <trkpt lat="43.93315" lon="1.87143">
        <ele>890.20001220703</ele>
        <time>2019-06-27T17:30:23.000Z</time>
      </trkpt>
      <trkpt lat="43.93314" lon="1.87141">
        <ele>890.20001220703</ele>
        <time>2019-06-27T17:30:24.000Z</time>
      </trkpt>
      <trkpt lat="43.93314" lon="1.87139">
        <ele>890.20001220703</ele>
        <time>2019-06-27T17:30:25.000Z</time>
      </trkpt>
      <trkpt lat="43.93314" lon="1.87138">
        <ele>890.40002441406</ele>
        <time>2019-06-27T17:30:26.000Z</time>
      </trkpt>
      <trkpt lat="43.93314" lon="1.87136">
        <ele>890.40002441406</ele>
        <time>2019-06-27T17:30:27.000Z</time>
      </trkpt>
      <trkpt lat="43.93313" lon="1.87134">
        <ele>890.40002441406</ele>
        <time>2019-06-27T17:30:28.000Z</time>
      </trkpt>
      <trkpt lat="43.93313" lon="1.87132">
        <ele>890.59997558594</ele>
        <time>2019-06-27T17:30:29.000Z</time>
      </trkpt>
      <trkpt lat="43.93312" lon="1.87131">
        <ele>890.59997558594</ele>
        <time>2019-06-27T17:30:30.000Z</time>
      </trkpt>
      <trkpt lat="43.93312" lon="1.87129">
        <ele>890.79998779297</ele>
        <time>2019-06-27T17:30:31.000Z</time>
      </trkpt>
      <trkpt lat="43.93312" lon="1.87128">
        <ele>891</ele>
        <time>2019-06-27T17:30:32.000Z</time>
      </trkpt>
      <trkpt lat="43.93311" lon="1.87126">
        <ele>891</ele>
        <time>2019-06-27T17:30:33.000Z</time>
      </trkpt>
      <trkpt lat="43.93311" lon="1.87124">
        <ele>891</ele>
        <time>2019-06-27T17:30:34.000Z</time>
      </trkpt>
      <trkpt lat="43.93311" lon="1.87122">
        <ele>891</ele>
        <time>2019-06-27T17:30:35.000Z</time>
      </trkpt>
      <trkpt lat="43.93311" lon="1.8712">
        <ele>891</ele>
        <time>2019-06-27T17:30:36.000Z</time>
      </trkpt>
      <trkpt lat="43.93311" lon="1.87118">
        <ele>891.20001220703</ele>
        <time>2019-06-27T17:30:37.000Z</time>
      </trkpt>
      <trkpt lat="43.9331" lon="1.87116">
        <ele>891.20001220703</ele>
        <time>2019-06-27T17:30:38.000Z</time>
      </trkpt>
      <trkpt lat="43.9331" lon="1.87114">
        <ele>891.20001220703</ele>
        <time>2019-06-27T17:30:39.000Z</time>
      </trkpt>
      <trkpt lat="43.9331" lon="1.87112">
        <ele>891.40002441406</ele>
        <time>2019-06-27T17:30:40.000Z</time>
      </trkpt>
      <trkpt lat="43.9331" lon="1.87111">
        <ele>891.40002441406</ele>
        <time>2019-06-27T17:30:41.000Z</time>
      </trkpt>
      <trkpt lat="43.9331" lon="1.87108">
        <ele>891.40002441406</ele>
        <time>2019-06-27T17:30:42.000Z</time>
      </trkpt>
      <trkpt lat="43.9331" lon="1.87106">
        <ele>891.59997558594</ele>
        <time>2019-06-27T17:30:43.000Z</time>
      </trkpt>
      <trkpt lat="43.9331" lon="1.87104">
        <ele>891.59997558594</ele>
        <time>2019-06-27T17:30:44.000Z</time>
      </trkpt>
      <trkpt lat="43.93309" lon="1.87102">
        <ele>891.59997558594</ele>
        <time>2019-06-27T17:30:45.000Z</time>
      </trkpt>
      <trkpt lat="43.9331" lon="1.871">
        <ele>891.59997558594</ele>
        <time>2019-06-27T17:30:46.000Z</time>
      </trkpt>
      <trkpt lat="43.93309" lon="1.87098">
        <ele>891.79998779297</ele>
        <time>2019-06-27T17:30:47.000Z</time>
      </trkpt>
      <trkpt lat="43.93309" lon="1.87096">
        <ele>892</ele>
        <time>2019-06-27T17:30:48.000Z</time>
      </trkpt>
      <trkpt lat="43.93309" lon="1.87094">
        <ele>892</ele>
        <time>2019-06-27T17:30:49.000Z</time>
      </trkpt>
      <trkpt lat="43.93309" lon="1.87092">
        <ele>892</ele>
        <time>2019-06-27T17:30:50.000Z</time>
      </trkpt>
      <trkpt lat="43.93309" lon="1.87091">
        <ele>892</ele>
        <time>2019-06-27T17:30:51.000Z</time>
      </trkpt>
      <trkpt lat="43.93309" lon="1.87089">
        <ele>892.20001220703</ele>
        <time>2019-06-27T17:30:52.000Z</time>
      </trkpt>
      <trkpt lat="43.93309" lon="1.87087">
        <ele>892.40002441406</ele>
        <time>2019-06-27T17:30:53.000Z</time>
      </trkpt>
      <trkpt lat="43.93309" lon="1.87085">
        <ele>892.40002441406</ele>
        <time>2019-06-27T17:30:54.000Z</time>
      </trkpt>
      <trkpt lat="43.93308" lon="1.87083">
        <ele>892.59997558594</ele>
        <time>2019-06-27T17:30:55.000Z</time>
      </trkpt>
      <trkpt lat="43.93308" lon="1.87082">
        <ele>892.59997558594</ele>
        <time>2019-06-27T17:30:56.000Z</time>
      </trkpt>
      <trkpt lat="43.93308" lon="1.8708">
        <ele>892.79998779297</ele>
        <time>2019-06-27T17:30:57.000Z</time>
      </trkpt>
      <trkpt lat="43.93308" lon="1.87078">
        <ele>893</ele>
        <time>2019-06-27T17:30:58.000Z</time>
      </trkpt>
      <trkpt lat="43.93308" lon="1.87076">
        <ele>893</ele>
        <time>2019-06-27T17:30:59.000Z</time>
      </trkpt>
      <trkpt lat="43.93308" lon="1.87075">
        <ele>893.20001220703</ele>
        <time>2019-06-27T17:31:00.000Z</time>
      </trkpt>
      <trkpt lat="43.93308" lon="1.87073">
        <ele>893.20001220703</ele>
        <time>2019-06-27T17:31:01.000Z</time>
      </trkpt>
      <trkpt lat="43.93308" lon="1.87071">
        <ele>893.40002441406</ele>
        <time>2019-06-27T17:31:02.000Z</time>
      </trkpt>
      <trkpt lat="43.93308" lon="1.8707">
        <ele>893.40002441406</ele>
        <time>2019-06-27T17:31:03.000Z</time>
      </trkpt>
      <trkpt lat="43.93308" lon="1.87068">
        <ele>893.40002441406</ele>
        <time>2019-06-27T17:31:04.000Z</time>
      </trkpt>
      <trkpt lat="43.93308" lon="1.87067">
        <ele>893.59997558594</ele>
        <time>2019-06-27T17:31:05.000Z</time>
      </trkpt>
      <trkpt lat="43.93308" lon="1.87066">
        <ele>893.79998779297</ele>
        <time>2019-06-27T17:31:06.000Z</time>
      </trkpt>
      <trkpt lat="43.93308" lon="1.87064">
        <ele>893.79998779297</ele>
        <time>2019-06-27T17:31:07.000Z</time>
      </trkpt>
      <trkpt lat="43.93307" lon="1.87062">
        <ele>894</ele>
        <time>2019-06-27T17:31:08.000Z</time>
      </trkpt>
      <trkpt lat="43.93307" lon="1.8706">
        <ele>894</ele>
        <time>2019-06-27T17:31:09.000Z</time>
      </trkpt>
      <trkpt lat="43.93307" lon="1.87059">
        <ele>894.20001220703</ele>
        <time>2019-06-27T17:31:10.000Z</time>
      </trkpt>
      <trkpt lat="43.93307" lon="1.87057">
        <ele>894.40002441406</ele>
        <time>2019-06-27T17:31:11.000Z</time>
      </trkpt>
      <trkpt lat="43.93307" lon="1.87055">
        <ele>894.40002441406</ele>
        <time>2019-06-27T17:31:12.000Z</time>
      </trkpt>
      <trkpt lat="43.93307" lon="1.87053">
        <ele>894.59997558594</ele>
        <time>2019-06-27T17:31:13.000Z</time>
      </trkpt>
      <trkpt lat="43.93307" lon="1.87052">
        <ele>894.59997558594</ele>
        <time>2019-06-27T17:31:14.000Z</time>
      </trkpt>
      <trkpt lat="43.93307" lon="1.8705">
        <ele>894.79998779297</ele>
        <time>2019-06-27T17:31:15.000Z</time>
      </trkpt>
      <trkpt lat="43.93307" lon="1.87049">
        <ele>895</ele>
        <time>2019-06-27T17:31:16.000Z</time>
      </trkpt>
      <trkpt lat="43.93307" lon="1.87047">
        <ele>895.20001220703</ele>
        <time>2019-06-27T17:31:17.000Z</time>
      </trkpt>
      <trkpt lat="43.93307" lon="1.87045">
        <ele>895.40002441406</ele>
        <time>2019-06-27T17:31:18.000Z</time>
      </trkpt>
      <trkpt lat="43.93307" lon="1.87043">
        <ele>895.79998779297</ele>
        <time>2019-06-27T17:31:19.000Z</time>
      </trkpt>
      <trkpt lat="43.93307" lon="1.87041">
        <ele>895.79998779297</ele>
        <time>2019-06-27T17:31:20.000Z</time>
      </trkpt>
      <trkpt lat="43.93307" lon="1.87039">
        <ele>896</ele>
        <time>2019-06-27T17:31:21.000Z</time>
      </trkpt>
      <trkpt lat="43.93307" lon="1.87038">
        <ele>896.20001220703</ele>
        <time>2019-06-27T17:31:22.000Z</time>
      </trkpt>
      <trkpt lat="43.93307" lon="1.87036">
        <ele>896.40002441406</ele>
        <time>2019-06-27T17:31:23.000Z</time>
      </trkpt>
      <trkpt lat="43.93307" lon="1.87034">
        <ele>896.40002441406</ele>
        <time>2019-06-27T17:31:24.000Z</time>
      </trkpt>
      <trkpt lat="43.93307" lon="1.87032">
        <ele>896.59997558594</ele>
        <time>2019-06-27T17:31:25.000Z</time>
      </trkpt>
      <trkpt lat="43.93307" lon="1.87031">
        <ele>896.79998779297</ele>
        <time>2019-06-27T17:31:26.000Z</time>
      </trkpt>
      <trkpt lat="43.93307" lon="1.87029">
        <ele>896.79998779297</ele>
        <time>2019-06-27T17:31:27.000Z</time>
      </trkpt>
      <trkpt lat="43.93307" lon="1.87027">
        <ele>897</ele>
        <time>2019-06-27T17:31:28.000Z</time>
      </trkpt>
      <trkpt lat="43.93307" lon="1.87025">
        <ele>897</ele>
        <time>2019-06-27T17:31:29.000Z</time>
      </trkpt>
      <trkpt lat="43.93307" lon="1.87023">
        <ele>897.20001220703</ele>
        <time>2019-06-27T17:31:30.000Z</time>
      </trkpt>
      <trkpt lat="43.93307" lon="1.87021">
        <ele>897.40002441406</ele>
        <time>2019-06-27T17:31:31.000Z</time>
      </trkpt>
      <trkpt lat="43.93307" lon="1.87019">
        <ele>897.59997558594</ele>
        <time>2019-06-27T17:31:32.000Z</time>
      </trkpt>
      <trkpt lat="43.93307" lon="1.87017">
        <ele>897.59997558594</ele>
        <time>2019-06-27T17:31:33.000Z</time>
      </trkpt>
      <trkpt lat="43.93306" lon="1.87016">
        <ele>897.59997558594</ele>
        <time>2019-06-27T17:31:34.000Z</time>
      </trkpt>
      <trkpt lat="43.93306" lon="1.87014">
        <ele>897.79998779297</ele>
        <time>2019-06-27T17:31:35.000Z</time>
      </trkpt>
      <trkpt lat="43.93307" lon="1.87012">
        <ele>897.79998779297</ele>
        <time>2019-06-27T17:31:36.000Z</time>
      </trkpt>
      <trkpt lat="43.93307" lon="1.8701">
        <ele>897.79998779297</ele>
        <time>2019-06-27T17:31:37.000Z</time>
      </trkpt>
      <trkpt lat="43.93306" lon="1.87008">
        <ele>898</ele>
        <time>2019-06-27T17:31:38.000Z</time>
      </trkpt>
      <trkpt lat="43.93307" lon="1.87007">
        <ele>898.20001220703</ele>
        <time>2019-06-27T17:31:39.000Z</time>
      </trkpt>
      <trkpt lat="43.93307" lon="1.87005">
        <ele>898.40002441406</ele>
        <time>2019-06-27T17:31:40.000Z</time>
      </trkpt>
      <trkpt lat="43.93307" lon="1.87003">
        <ele>898.40002441406</ele>
        <time>2019-06-27T17:31:41.000Z</time>
      </trkpt>
      <trkpt lat="43.93306" lon="1.87002">
        <ele>898.59997558594</ele>
        <time>2019-06-27T17:31:42.000Z</time>
      </trkpt>
      <trkpt lat="43.93306" lon="1.87">
        <ele>898.79998779297</ele>
        <time>2019-06-27T17:31:43.000Z</time>
      </trkpt>
      <trkpt lat="43.93306" lon="1.86999">
        <ele>898.79998779297</ele>
        <time>2019-06-27T17:31:44.000Z</time>
      </trkpt>
      <trkpt lat="43.93306" lon="1.86997">
        <ele>899</ele>
        <time>2019-06-27T17:31:45.000Z</time>
      </trkpt>
      <trkpt lat="43.93307" lon="1.86995">
        <ele>899</ele>
        <time>2019-06-27T17:31:46.000Z</time>
      </trkpt>
      <trkpt lat="43.93307" lon="1.86993">
        <ele>899</ele>
        <time>2019-06-27T17:31:47.000Z</time>
      </trkpt>
      <trkpt lat="43.93307" lon="1.86991">
        <ele>899.20001220703</ele>
        <time>2019-06-27T17:31:48.000Z</time>
      </trkpt>
      <trkpt lat="43.93307" lon="1.8699">
        <ele>899.20001220703</ele>
        <time>2019-06-27T17:31:49.000Z</time>
      </trkpt>
      <trkpt lat="43.93307" lon="1.86988">
        <ele>899.40002441406</ele>
        <time>2019-06-27T17:31:50.000Z</time>
      </trkpt>
      <trkpt lat="43.93307" lon="1.86986">
        <ele>899.40002441406</ele>
        <time>2019-06-27T17:31:51.000Z</time>
      </trkpt>
      <trkpt lat="43.93308" lon="1.86984">
        <ele>899.59997558594</ele>
        <time>2019-06-27T17:31:52.000Z</time>
      </trkpt>
      <trkpt lat="43.93308" lon="1.86981">
        <ele>899.79998779297</ele>
        <time>2019-06-27T17:31:53.000Z</time>
      </trkpt>
      <trkpt lat="43.93307" lon="1.8698">
        <ele>899.79998779297</ele>
        <time>2019-06-27T17:31:54.000Z</time>
      </trkpt>
      <trkpt lat="43.93307" lon="1.86978">
        <ele>900</ele>
        <time>2019-06-27T17:31:55.000Z</time>
      </trkpt>
      <trkpt lat="43.93307" lon="1.86976">
        <ele>900</ele>
        <time>2019-06-27T17:31:56.000Z</time>
      </trkpt>
      <trkpt lat="43.93308" lon="1.86975">
        <ele>900.20001220703</ele>
        <time>2019-06-27T17:31:57.000Z</time>
      </trkpt>
      <trkpt lat="43.93307" lon="1.86973">
        <ele>900.40002441406</ele>
        <time>2019-06-27T17:31:58.000Z</time>
      </trkpt>
      <trkpt lat="43.93307" lon="1.86972">
        <ele>900.40002441406</ele>
        <time>2019-06-27T17:31:59.000Z</time>
      </trkpt>
      <trkpt lat="43.93308" lon="1.8697">
        <ele>900.59997558594</ele>
        <time>2019-06-27T17:32:00.000Z</time>
      </trkpt>
      <trkpt lat="43.93308" lon="1.86969">
        <ele>900.59997558594</ele>
        <time>2019-06-27T17:32:01.000Z</time>
      </trkpt>
      <trkpt lat="43.93308" lon="1.86967">
        <ele>900.79998779297</ele>
        <time>2019-06-27T17:32:02.000Z</time>
      </trkpt>
      <trkpt lat="43.93308" lon="1.86966">
        <ele>901</ele>
        <time>2019-06-27T17:32:03.000Z</time>
      </trkpt>
      <trkpt lat="43.93308" lon="1.86964">
        <ele>901</ele>
        <time>2019-06-27T17:32:04.000Z</time>
      </trkpt>
      <trkpt lat="43.93308" lon="1.86963">
        <ele>901.20001220703</ele>
        <time>2019-06-27T17:32:05.000Z</time>
      </trkpt>
      <trkpt lat="43.93308" lon="1.86961">
        <ele>901.40002441406</ele>
        <time>2019-06-27T17:32:06.000Z</time>
      </trkpt>
      <trkpt lat="43.93308" lon="1.8696">
        <ele>901.59997558594</ele>
        <time>2019-06-27T17:32:07.000Z</time>
      </trkpt>
      <trkpt lat="43.93308" lon="1.86958">
        <ele>901.79998779297</ele>
        <time>2019-06-27T17:32:08.000Z</time>
      </trkpt>
      <trkpt lat="43.93308" lon="1.86957">
        <ele>901.79998779297</ele>
        <time>2019-06-27T17:32:09.000Z</time>
      </trkpt>
      <trkpt lat="43.93307" lon="1.86955">
        <ele>902</ele>
        <time>2019-06-27T17:32:10.000Z</time>
      </trkpt>
      <trkpt lat="43.93308" lon="1.86954">
        <ele>902.20001220703</ele>
        <time>2019-06-27T17:32:11.000Z</time>
      </trkpt>
      <trkpt lat="43.93308" lon="1.86952">
        <ele>902.20001220703</ele>
        <time>2019-06-27T17:32:12.000Z</time>
      </trkpt>
      <trkpt lat="43.93308" lon="1.8695">
        <ele>902.40002441406</ele>
        <time>2019-06-27T17:32:13.000Z</time>
      </trkpt>
      <trkpt lat="43.93308" lon="1.86949">
        <ele>902.40002441406</ele>
        <time>2019-06-27T17:32:14.000Z</time>
      </trkpt>
      <trkpt lat="43.93308" lon="1.86947">
        <ele>902.59997558594</ele>
        <time>2019-06-27T17:32:15.000Z</time>
      </trkpt>
      <trkpt lat="43.93308" lon="1.86945">
        <ele>902.79998779297</ele>
        <time>2019-06-27T17:32:16.000Z</time>
      </trkpt>
      <trkpt lat="43.93308" lon="1.86944">
        <ele>903</ele>
        <time>2019-06-27T17:32:17.000Z</time>
      </trkpt>
      <trkpt lat="43.93308" lon="1.86942">
        <ele>903.20001220703</ele>
        <time>2019-06-27T17:32:18.000Z</time>
      </trkpt>
      <trkpt lat="43.93308" lon="1.86941">
        <ele>903.40002441406</ele>
        <time>2019-06-27T17:32:19.000Z</time>
      </trkpt>
      <trkpt lat="43.93308" lon="1.8694">
        <ele>903.59997558594</ele>
        <time>2019-06-27T17:32:20.000Z</time>
      </trkpt>
      <trkpt lat="43.93309" lon="1.86938">
        <ele>903.59997558594</ele>
        <time>2019-06-27T17:32:21.000Z</time>
      </trkpt>
      <trkpt lat="43.93309" lon="1.86937">
        <ele>903.79998779297</ele>
        <time>2019-06-27T17:32:22.000Z</time>
      </trkpt>
      <trkpt lat="43.93309" lon="1.86935">
        <ele>903.79998779297</ele>
        <time>2019-06-27T17:32:23.000Z</time>
      </trkpt>
      <trkpt lat="43.93309" lon="1.86933">
        <ele>904</ele>
        <time>2019-06-27T17:32:24.000Z</time>
      </trkpt>
      <trkpt lat="43.93309" lon="1.86931">
        <ele>904.20001220703</ele>
        <time>2019-06-27T17:32:25.000Z</time>
      </trkpt>
      <trkpt lat="43.93309" lon="1.8693">
        <ele>904.40002441406</ele>
        <time>2019-06-27T17:32:26.000Z</time>
      </trkpt>
      <trkpt lat="43.93309" lon="1.86928">
        <ele>904.40002441406</ele>
        <time>2019-06-27T17:32:27.000Z</time>
      </trkpt>
      <trkpt lat="43.93309" lon="1.86927">
        <ele>904.59997558594</ele>
        <time>2019-06-27T17:32:28.000Z</time>
      </trkpt>
      <trkpt lat="43.93309" lon="1.86925">
        <ele>905</ele>
        <time>2019-06-27T17:32:29.000Z</time>
      </trkpt>
      <trkpt lat="43.93309" lon="1.86923">
        <ele>905</ele>
        <time>2019-06-27T17:32:30.000Z</time>
      </trkpt>
      <trkpt lat="43.93308" lon="1.86921">
        <ele>905.20001220703</ele>
        <time>2019-06-27T17:32:31.000Z</time>
      </trkpt>
      <trkpt lat="43.93308" lon="1.86919">
        <ele>905.40002441406</ele>
        <time>2019-06-27T17:32:32.000Z</time>
      </trkpt>
      <trkpt lat="43.93309" lon="1.86917">
        <ele>905.79998779297</ele>
        <time>2019-06-27T17:32:33.000Z</time>
      </trkpt>
      <trkpt lat="43.93309" lon="1.86915">
        <ele>905.79998779297</ele>
        <time>2019-06-27T17:32:34.000Z</time>
      </trkpt>
      <trkpt lat="43.93309" lon="1.86914">
        <ele>906</ele>
        <time>2019-06-27T17:32:35.000Z</time>
      </trkpt>
      <trkpt lat="43.93309" lon="1.86912">
        <ele>906.20001220703</ele>
        <time>2019-06-27T17:32:36.000Z</time>
      </trkpt>
      <trkpt lat="43.9331" lon="1.8691">
        <ele>906.40002441406</ele>
        <time>2019-06-27T17:32:37.000Z</time>
      </trkpt>
      <trkpt lat="43.9331" lon="1.86909">
        <ele>906.40002441406</ele>
        <time>2019-06-27T17:32:38.000Z</time>
      </trkpt>
      <trkpt lat="43.9331" lon="1.86907">
        <ele>906.59997558594</ele>
        <time>2019-06-27T17:32:39.000Z</time>
      </trkpt>
      <trkpt lat="43.9331" lon="1.86905">
        <ele>906.79998779297</ele>
        <time>2019-06-27T17:32:40.000Z</time>
      </trkpt>
      <trkpt lat="43.9331" lon="1.86903">
        <ele>906.79998779297</ele>
        <time>2019-06-27T17:32:41.000Z</time>
      </trkpt>
      <trkpt lat="43.9331" lon="1.86902">
        <ele>906.79998779297</ele>
        <time>2019-06-27T17:32:42.000Z</time>
      </trkpt>
      <trkpt lat="43.93309" lon="1.869">
        <ele>907</ele>
        <time>2019-06-27T17:32:43.000Z</time>
      </trkpt>
      <trkpt lat="43.93309" lon="1.86899">
        <ele>907</ele>
        <time>2019-06-27T17:32:44.000Z</time>
      </trkpt>
      <trkpt lat="43.93309" lon="1.86897">
        <ele>907</ele>
        <time>2019-06-27T17:32:45.000Z</time>
      </trkpt>
      <trkpt lat="43.93308" lon="1.86895">
        <ele>907.20001220703</ele>
        <time>2019-06-27T17:32:46.000Z</time>
      </trkpt>
      <trkpt lat="43.93308" lon="1.86894">
        <ele>907.20001220703</ele>
        <time>2019-06-27T17:32:47.000Z</time>
      </trkpt>
      <trkpt lat="43.93307" lon="1.86893">
        <ele>907.40002441406</ele>
        <time>2019-06-27T17:32:48.000Z</time>
      </trkpt>
      <trkpt lat="43.93306" lon="1.86891">
        <ele>907.40002441406</ele>
        <time>2019-06-27T17:32:49.000Z</time>
      </trkpt>
      <trkpt lat="43.93306" lon="1.8689">
        <ele>907.40002441406</ele>
        <time>2019-06-27T17:32:50.000Z</time>
      </trkpt>
      <trkpt lat="43.93305" lon="1.86889">
        <ele>907.59997558594</ele>
        <time>2019-06-27T17:32:51.000Z</time>
      </trkpt>
      <trkpt lat="43.93305" lon="1.86887">
        <ele>907.79998779297</ele>
        <time>2019-06-27T17:32:52.000Z</time>
      </trkpt>
      <trkpt lat="43.93304" lon="1.86885">
        <ele>907.79998779297</ele>
        <time>2019-06-27T17:32:53.000Z</time>
      </trkpt>
      <trkpt lat="43.93304" lon="1.86883">
        <ele>908</ele>
        <time>2019-06-27T17:32:54.000Z</time>
      </trkpt>
      <trkpt lat="43.93304" lon="1.86882">
        <ele>908</ele>
        <time>2019-06-27T17:32:55.000Z</time>
      </trkpt>
      <trkpt lat="43.93304" lon="1.8688">
        <ele>908.20001220703</ele>
        <time>2019-06-27T17:32:56.000Z</time>
      </trkpt>
      <trkpt lat="43.93303" lon="1.86878">
        <ele>908.20001220703</ele>
        <time>2019-06-27T17:32:57.000Z</time>
      </trkpt>
      <trkpt lat="43.93303" lon="1.86877">
        <ele>908.20001220703</ele>
        <time>2019-06-27T17:32:58.000Z</time>
      </trkpt>
      <trkpt lat="43.93303" lon="1.86875">
        <ele>908.20001220703</ele>
        <time>2019-06-27T17:32:59.000Z</time>
      </trkpt>
      <trkpt lat="43.93303" lon="1.86873">
        <ele>908.20001220703</ele>
        <time>2019-06-27T17:33:00.000Z</time>
      </trkpt>
      <trkpt lat="43.93302" lon="1.86871">
        <ele>908.20001220703</ele>
        <time>2019-06-27T17:33:01.000Z</time>
      </trkpt>
      <trkpt lat="43.93302" lon="1.8687">
        <ele>908.20001220703</ele>
        <time>2019-06-27T17:33:02.000Z</time>
      </trkpt>
      <trkpt lat="43.93302" lon="1.86868">
        <ele>908.20001220703</ele>
        <time>2019-06-27T17:33:03.000Z</time>
      </trkpt>
      <trkpt lat="43.93302" lon="1.86866">
        <ele>908.40002441406</ele>
        <time>2019-06-27T17:33:04.000Z</time>
      </trkpt>
      <trkpt lat="43.93302" lon="1.86864">
        <ele>908.40002441406</ele>
        <time>2019-06-27T17:33:05.000Z</time>
      </trkpt>
      <trkpt lat="43.93302" lon="1.86862">
        <ele>908.40002441406</ele>
        <time>2019-06-27T17:33:06.000Z</time>
      </trkpt>
      <trkpt lat="43.93302" lon="1.8686">
        <ele>908.40002441406</ele>
        <time>2019-06-27T17:33:07.000Z</time>
      </trkpt>
      <trkpt lat="43.93302" lon="1.86858">
        <ele>908.59997558594</ele>
        <time>2019-06-27T17:33:08.000Z</time>
      </trkpt>
      <trkpt lat="43.93302" lon="1.86856">
        <ele>908.79998779297</ele>
        <time>2019-06-27T17:33:09.000Z</time>
      </trkpt>
      <trkpt lat="43.93302" lon="1.86854">
        <ele>908.79998779297</ele>
        <time>2019-06-27T17:33:10.000Z</time>
      </trkpt>
      <trkpt lat="43.93302" lon="1.86852">
        <ele>909</ele>
        <time>2019-06-27T17:33:11.000Z</time>
      </trkpt>
      <trkpt lat="43.93302" lon="1.8685">
        <ele>909</ele>
        <time>2019-06-27T17:33:12.000Z</time>
      </trkpt>
      <trkpt lat="43.93302" lon="1.86848">
        <ele>909</ele>
        <time>2019-06-27T17:33:13.000Z</time>
      </trkpt>
      <trkpt lat="43.93302" lon="1.86846">
        <ele>909</ele>
        <time>2019-06-27T17:33:14.000Z</time>
      </trkpt>
      <trkpt lat="43.93302" lon="1.86844">
        <ele>909.20001220703</ele>
        <time>2019-06-27T17:33:15.000Z</time>
      </trkpt>
      <trkpt lat="43.93302" lon="1.86841">
        <ele>909.40002441406</ele>
        <time>2019-06-27T17:33:16.000Z</time>
      </trkpt>
      <trkpt lat="43.93302" lon="1.86839">
        <ele>909.40002441406</ele>
        <time>2019-06-27T17:33:17.000Z</time>
      </trkpt>
      <trkpt lat="43.93302" lon="1.86837">
        <ele>909.40002441406</ele>
        <time>2019-06-27T17:33:18.000Z</time>
      </trkpt>
      <trkpt lat="43.93301" lon="1.86835">
        <ele>909.40002441406</ele>
        <time>2019-06-27T17:33:19.000Z</time>
      </trkpt>
      <trkpt lat="43.93301" lon="1.86832">
        <ele>909.59997558594</ele>
        <time>2019-06-27T17:33:20.000Z</time>
      </trkpt>
      <trkpt lat="43.93301" lon="1.8683">
        <ele>909.59997558594</ele>
        <time>2019-06-27T17:33:21.000Z</time>
      </trkpt>
      <trkpt lat="43.93301" lon="1.86828">
        <ele>909.79998779297</ele>
        <time>2019-06-27T17:33:22.000Z</time>
      </trkpt>
      <trkpt lat="43.93301" lon="1.86826">
        <ele>909.79998779297</ele>
        <time>2019-06-27T17:33:23.000Z</time>
      </trkpt>
      <trkpt lat="43.93301" lon="1.86824">
        <ele>909.79998779297</ele>
        <time>2019-06-27T17:33:24.000Z</time>
      </trkpt>
      <trkpt lat="43.93301" lon="1.86822">
        <ele>909.79998779297</ele>
        <time>2019-06-27T17:33:25.000Z</time>
      </trkpt>
      <trkpt lat="43.93301" lon="1.8682">
        <ele>910</ele>
        <time>2019-06-27T17:33:26.000Z</time>
      </trkpt>
      <trkpt lat="43.93301" lon="1.86818">
        <ele>910</ele>
        <time>2019-06-27T17:33:27.000Z</time>
      </trkpt>
      <trkpt lat="43.93301" lon="1.86816">
        <ele>910.20001220703</ele>
        <time>2019-06-27T17:33:28.000Z</time>
      </trkpt>
      <trkpt lat="43.93301" lon="1.86814">
        <ele>910.20001220703</ele>
        <time>2019-06-27T17:33:29.000Z</time>
      </trkpt>
      <trkpt lat="43.93301" lon="1.86811">
        <ele>910.20001220703</ele>
        <time>2019-06-27T17:33:30.000Z</time>
      </trkpt>
      <trkpt lat="43.93301" lon="1.86809">
        <ele>910.20001220703</ele>
        <time>2019-06-27T17:33:31.000Z</time>
      </trkpt>
      <trkpt lat="43.93301" lon="1.86807">
        <ele>910.20001220703</ele>
        <time>2019-06-27T17:33:32.000Z</time>
      </trkpt>
      <trkpt lat="43.933" lon="1.86805">
        <ele>910.20001220703</ele>
        <time>2019-06-27T17:33:33.000Z</time>
      </trkpt>
      <trkpt lat="43.933" lon="1.86802">
        <ele>910.40002441406</ele>
        <time>2019-06-27T17:33:34.000Z</time>
      </trkpt>
      <trkpt lat="43.933" lon="1.868">
        <ele>910.40002441406</ele>
        <time>2019-06-27T17:33:35.000Z</time>
      </trkpt>
      <trkpt lat="43.933" lon="1.86798">
        <ele>910.59997558594</ele>
        <time>2019-06-27T17:33:36.000Z</time>
      </trkpt>
      <trkpt lat="43.933" lon="1.86796">
        <ele>910.79998779297</ele>
        <time>2019-06-27T17:33:37.000Z</time>
      </trkpt>
      <trkpt lat="43.933" lon="1.86793">
        <ele>910.79998779297</ele>
        <time>2019-06-27T17:33:38.000Z</time>
      </trkpt>
      <trkpt lat="43.933" lon="1.86791">
        <ele>910.79998779297</ele>
        <time>2019-06-27T17:33:39.000Z</time>
      </trkpt>
      <trkpt lat="43.933" lon="1.86789">
        <ele>911</ele>
        <time>2019-06-27T17:33:40.000Z</time>
      </trkpt>
      <trkpt lat="43.933" lon="1.86787">
        <ele>911.20001220703</ele>
        <time>2019-06-27T17:33:41.000Z</time>
      </trkpt>
      <trkpt lat="43.933" lon="1.86785">
        <ele>911.20001220703</ele>
        <time>2019-06-27T17:33:42.000Z</time>
      </trkpt>
      <trkpt lat="43.933" lon="1.86783">
        <ele>911.20001220703</ele>
        <time>2019-06-27T17:33:43.000Z</time>
      </trkpt>
      <trkpt lat="43.933" lon="1.86781">
        <ele>911.40002441406</ele>
        <time>2019-06-27T17:33:44.000Z</time>
      </trkpt>
      <trkpt lat="43.933" lon="1.86779">
        <ele>911.40002441406</ele>
        <time>2019-06-27T17:33:45.000Z</time>
      </trkpt>
      <trkpt lat="43.93299" lon="1.86776">
        <ele>911.40002441406</ele>
        <time>2019-06-27T17:33:46.000Z</time>
      </trkpt>
      <trkpt lat="43.93299" lon="1.86774">
        <ele>911.59997558594</ele>
        <time>2019-06-27T17:33:47.000Z</time>
      </trkpt>
      <trkpt lat="43.93299" lon="1.86771">
        <ele>911.59997558594</ele>
        <time>2019-06-27T17:33:48.000Z</time>
      </trkpt>
      <trkpt lat="43.93299" lon="1.86768">
        <ele>911.79998779297</ele>
        <time>2019-06-27T17:33:49.000Z</time>
      </trkpt>
      <trkpt lat="43.93299" lon="1.86765">
        <ele>911.79998779297</ele>
        <time>2019-06-27T17:33:50.000Z</time>
      </trkpt>
      <trkpt lat="43.93298" lon="1.86762">
        <ele>911.59997558594</ele>
        <time>2019-06-27T17:33:51.000Z</time>
      </trkpt>
      <trkpt lat="43.93299" lon="1.86759">
        <ele>911.59997558594</ele>
        <time>2019-06-27T17:33:52.000Z</time>
      </trkpt>
      <trkpt lat="43.93298" lon="1.86756">
        <ele>911.59997558594</ele>
        <time>2019-06-27T17:33:53.000Z</time>
      </trkpt>
      <trkpt lat="43.93298" lon="1.86753">
        <ele>911.79998779297</ele>
        <time>2019-06-27T17:33:54.000Z</time>
      </trkpt>
      <trkpt lat="43.93298" lon="1.8675">
        <ele>911.79998779297</ele>
        <time>2019-06-27T17:33:55.000Z</time>
      </trkpt>
      <trkpt lat="43.93297" lon="1.86747">
        <ele>911.79998779297</ele>
        <time>2019-06-27T17:33:56.000Z</time>
      </trkpt>
      <trkpt lat="43.93297" lon="1.86744">
        <ele>911.79998779297</ele>
        <time>2019-06-27T17:33:57.000Z</time>
      </trkpt>
      <trkpt lat="43.93297" lon="1.86741">
        <ele>911.79998779297</ele>
        <time>2019-06-27T17:33:58.000Z</time>
      </trkpt>
      <trkpt lat="43.93297" lon="1.86738">
        <ele>911.79998779297</ele>
        <time>2019-06-27T17:33:59.000Z</time>
      </trkpt>
      <trkpt lat="43.93297" lon="1.86735">
        <ele>911.79998779297</ele>
        <time>2019-06-27T17:34:00.000Z</time>
      </trkpt>
      <trkpt lat="43.93297" lon="1.86731">
        <ele>911.79998779297</ele>
        <time>2019-06-27T17:34:01.000Z</time>
      </trkpt>
      <trkpt lat="43.93297" lon="1.86728">
        <ele>911.79998779297</ele>
        <time>2019-06-27T17:34:02.000Z</time>
      </trkpt>
      <trkpt lat="43.93297" lon="1.86726">
        <ele>911.79998779297</ele>
        <time>2019-06-27T17:34:03.000Z</time>
      </trkpt>
      <trkpt lat="43.93296" lon="1.86723">
        <ele>912</ele>
        <time>2019-06-27T17:34:04.000Z</time>
      </trkpt>
      <trkpt lat="43.93296" lon="1.8672">
        <ele>912</ele>
        <time>2019-06-27T17:34:05.000Z</time>
      </trkpt>
      <trkpt lat="43.93295" lon="1.86717">
        <ele>912</ele>
        <time>2019-06-27T17:34:06.000Z</time>
      </trkpt>
      <trkpt lat="43.93295" lon="1.86715">
        <ele>912.20001220703</ele>
        <time>2019-06-27T17:34:07.000Z</time>
      </trkpt>
      <trkpt lat="43.93295" lon="1.86712">
        <ele>912.40002441406</ele>
        <time>2019-06-27T17:34:08.000Z</time>
      </trkpt>
      <trkpt lat="43.93294" lon="1.86708">
        <ele>912.40002441406</ele>
        <time>2019-06-27T17:34:09.000Z</time>
      </trkpt>
      <trkpt lat="43.93294" lon="1.86706">
        <ele>912.40002441406</ele>
        <time>2019-06-27T17:34:10.000Z</time>
      </trkpt>
      <trkpt lat="43.93294" lon="1.86702">
        <ele>912.59997558594</ele>
        <time>2019-06-27T17:34:11.000Z</time>
      </trkpt>
      <trkpt lat="43.93294" lon="1.86699">
        <ele>912.59997558594</ele>
        <time>2019-06-27T17:34:12.000Z</time>
      </trkpt>
      <trkpt lat="43.93294" lon="1.86696">
        <ele>912.59997558594</ele>
        <time>2019-06-27T17:34:13.000Z</time>
      </trkpt>
      <trkpt lat="43.93293" lon="1.86693">
        <ele>912.79998779297</ele>
        <time>2019-06-27T17:34:14.000Z</time>
      </trkpt>
      <trkpt lat="43.93293" lon="1.86691">
        <ele>912.79998779297</ele>
        <time>2019-06-27T17:34:15.000Z</time>
      </trkpt>
      <trkpt lat="43.93293" lon="1.86688">
        <ele>913</ele>
        <time>2019-06-27T17:34:16.000Z</time>
      </trkpt>
      <trkpt lat="43.93293" lon="1.86685">
        <ele>913</ele>
        <time>2019-06-27T17:34:17.000Z</time>
      </trkpt>
      <trkpt lat="43.93293" lon="1.86683">
        <ele>913.20001220703</ele>
        <time>2019-06-27T17:34:18.000Z</time>
      </trkpt>
      <trkpt lat="43.93293" lon="1.8668">
        <ele>913.40002441406</ele>
        <time>2019-06-27T17:34:19.000Z</time>
      </trkpt>
      <trkpt lat="43.93294" lon="1.86679">
        <ele>913.40002441406</ele>
        <time>2019-06-27T17:34:20.000Z</time>
      </trkpt>
      <trkpt lat="43.93295" lon="1.86677">
        <ele>913.59997558594</ele>
        <time>2019-06-27T17:34:21.000Z</time>
      </trkpt>
      <trkpt lat="43.93296" lon="1.86676">
        <ele>913.79998779297</ele>
        <time>2019-06-27T17:34:22.000Z</time>
      </trkpt>
      <trkpt lat="43.93297" lon="1.86675">
        <ele>913.79998779297</ele>
        <time>2019-06-27T17:34:23.000Z</time>
      </trkpt>
      <trkpt lat="43.93299" lon="1.86673">
        <ele>913.59997558594</ele>
        <time>2019-06-27T17:34:24.000Z</time>
      </trkpt>
      <trkpt lat="43.93301" lon="1.86671">
        <ele>913.40002441406</ele>
        <time>2019-06-27T17:34:25.000Z</time>
      </trkpt>
      <trkpt lat="43.93304" lon="1.86669">
        <ele>913.40002441406</ele>
        <time>2019-06-27T17:34:26.000Z</time>
      </trkpt>
      <trkpt lat="43.93308" lon="1.86667">
        <ele>913.20001220703</ele>
        <time>2019-06-27T17:34:27.000Z</time>
      </trkpt>
      <trkpt lat="43.93313" lon="1.86665">
        <ele>912.79998779297</ele>
        <time>2019-06-27T17:34:28.000Z</time>
      </trkpt>
      <trkpt lat="43.93319" lon="1.86662">
        <ele>912.40002441406</ele>
        <time>2019-06-27T17:34:29.000Z</time>
      </trkpt>
      <trkpt lat="43.93324" lon="1.86655">
        <ele>911.79998779297</ele>
        <time>2019-06-27T17:34:30.000Z</time>
      </trkpt>
      <trkpt lat="43.9333" lon="1.86648">
        <ele>911.20001220703</ele>
        <time>2019-06-27T17:34:31.000Z</time>
      </trkpt>
      <trkpt lat="43.93336" lon="1.86642">
        <ele>909.59997558594</ele>
        <time>2019-06-27T17:34:32.000Z</time>
      </trkpt>
      <trkpt lat="43.93342" lon="1.86634">
        <ele>908.79998779297</ele>
        <time>2019-06-27T17:34:33.000Z</time>
      </trkpt>
      <trkpt lat="43.93349" lon="1.86627">
        <ele>908.20001220703</ele>
        <time>2019-06-27T17:34:34.000Z</time>
      </trkpt>
      <trkpt lat="43.93356" lon="1.86619">
        <ele>907.59997558594</ele>
        <time>2019-06-27T17:34:35.000Z</time>
      </trkpt>
      <trkpt lat="43.93363" lon="1.86611">
        <ele>906.79998779297</ele>
        <time>2019-06-27T17:34:36.000Z</time>
      </trkpt>
      <trkpt lat="43.9337" lon="1.86602">
        <ele>906.20001220703</ele>
        <time>2019-06-27T17:34:37.000Z</time>
      </trkpt>
      <trkpt lat="43.93376" lon="1.86594">
        <ele>905.79998779297</ele>
        <time>2019-06-27T17:34:38.000Z</time>
      </trkpt>
      <trkpt lat="43.93381" lon="1.86588">
        <ele>905.20001220703</ele>
        <time>2019-06-27T17:34:39.000Z</time>
      </trkpt>
      <trkpt lat="43.93384" lon="1.86584">
        <ele>905</ele>
        <time>2019-06-27T17:34:40.000Z</time>
      </trkpt>
      <trkpt lat="43.93386" lon="1.8658">
        <ele>904.59997558594</ele>
        <time>2019-06-27T17:34:41.000Z</time>
      </trkpt>
      <trkpt lat="43.93387" lon="1.86578">
        <ele>904.40002441406</ele>
        <time>2019-06-27T17:34:42.000Z</time>
      </trkpt>
      <trkpt lat="43.93388" lon="1.86575">
        <ele>904.20001220703</ele>
        <time>2019-06-27T17:34:43.000Z</time>
      </trkpt>
      <trkpt lat="43.9339" lon="1.86573">
        <ele>904.20001220703</ele>
        <time>2019-06-27T17:34:44.000Z</time>
      </trkpt>
      <trkpt lat="43.93391" lon="1.86571">
        <ele>904</ele>
        <time>2019-06-27T17:34:45.000Z</time>
      </trkpt>
      <trkpt lat="43.93392" lon="1.86569">
        <ele>904</ele>
        <time>2019-06-27T17:34:46.000Z</time>
      </trkpt>
      <trkpt lat="43.93393" lon="1.86566">
        <ele>904</ele>
        <time>2019-06-27T17:34:47.000Z</time>
      </trkpt>
      <trkpt lat="43.93394" lon="1.86564">
        <ele>904.20001220703</ele>
        <time>2019-06-27T17:34:48.000Z</time>
      </trkpt>
      <trkpt lat="43.93395" lon="1.86562">
        <ele>904.40002441406</ele>
        <time>2019-06-27T17:34:49.000Z</time>
      </trkpt>
      <trkpt lat="43.93397" lon="1.8656">
        <ele>904.59997558594</ele>
        <time>2019-06-27T17:34:50.000Z</time>
      </trkpt>
      <trkpt lat="43.93399" lon="1.86557">
        <ele>904.59997558594</ele>
        <time>2019-06-27T17:34:51.000Z</time>
      </trkpt>
      <trkpt lat="43.93401" lon="1.86553">
        <ele>904.79998779297</ele>
        <time>2019-06-27T17:34:52.000Z</time>
      </trkpt>
      <trkpt lat="43.93403" lon="1.86549">
        <ele>905</ele>
        <time>2019-06-27T17:34:53.000Z</time>
      </trkpt>
      <trkpt lat="43.93405" lon="1.86544">
        <ele>905.40002441406</ele>
        <time>2019-06-27T17:34:54.000Z</time>
      </trkpt>
      <trkpt lat="43.93407" lon="1.86539">
        <ele>906</ele>
        <time>2019-06-27T17:34:55.000Z</time>
      </trkpt>
      <trkpt lat="43.9341" lon="1.86534">
        <ele>907</ele>
        <time>2019-06-27T17:34:56.000Z</time>
      </trkpt>
      <trkpt lat="43.93412" lon="1.8653">
        <ele>907.59997558594</ele>
        <time>2019-06-27T17:34:57.000Z</time>
      </trkpt>
      <trkpt lat="43.93413" lon="1.86527">
        <ele>908.20001220703</ele>
        <time>2019-06-27T17:34:58.000Z</time>
      </trkpt>
      <trkpt lat="43.93414" lon="1.86525">
        <ele>908.79998779297</ele>
        <time>2019-06-27T17:34:59.000Z</time>
      </trkpt>
      <trkpt lat="43.93416" lon="1.86523">
        <ele>909.40002441406</ele>
        <time>2019-06-27T17:35:00.000Z</time>
      </trkpt>
      <trkpt lat="43.93418" lon="1.8652">
        <ele>909.59997558594</ele>
        <time>2019-06-27T17:35:01.000Z</time>
      </trkpt>
      <trkpt lat="43.93421" lon="1.86519">
        <ele>910</ele>
        <time>2019-06-27T17:35:02.000Z</time>
      </trkpt>
      <trkpt lat="43.93422" lon="1.86518">
        <ele>910</ele>
        <time>2019-06-27T17:35:03.000Z</time>
      </trkpt>
      <trkpt lat="43.93424" lon="1.86516">
        <ele>910.20001220703</ele>
        <time>2019-06-27T17:35:04.000Z</time>
      </trkpt>
      <trkpt lat="43.93426" lon="1.86515">
        <ele>910</ele>
        <time>2019-06-27T17:35:05.000Z</time>
      </trkpt>
      <trkpt lat="43.93427" lon="1.86514">
        <ele>910</ele>
        <time>2019-06-27T17:35:06.000Z</time>
      </trkpt>
      <trkpt lat="43.9343" lon="1.86513">
        <ele>910</ele>
        <time>2019-06-27T17:35:07.000Z</time>
      </trkpt>
      <trkpt lat="43.93432" lon="1.86512">
        <ele>909.79998779297</ele>
        <time>2019-06-27T17:35:08.000Z</time>
      </trkpt>
      <trkpt lat="43.93434" lon="1.86511">
        <ele>909.79998779297</ele>
        <time>2019-06-27T17:35:09.000Z</time>
      </trkpt>
      <trkpt lat="43.93436" lon="1.8651">
        <ele>910</ele>
        <time>2019-06-27T17:35:10.000Z</time>
      </trkpt>
      <trkpt lat="43.93439" lon="1.86509">
        <ele>910</ele>
        <time>2019-06-27T17:35:11.000Z</time>
      </trkpt>
      <trkpt lat="43.93441" lon="1.86508">
        <ele>910</ele>
        <time>2019-06-27T17:35:12.000Z</time>
      </trkpt>
      <trkpt lat="43.93443" lon="1.86507">
        <ele>910</ele>
        <time>2019-06-27T17:35:13.000Z</time>
      </trkpt>
      <trkpt lat="43.93446" lon="1.86506">
        <ele>910</ele>
        <time>2019-06-27T17:35:14.000Z</time>
      </trkpt>
      <trkpt lat="43.93448" lon="1.86506">
        <ele>910</ele>
        <time>2019-06-27T17:35:15.000Z</time>
      </trkpt>
      <trkpt lat="43.9345" lon="1.86506">
        <ele>909.79998779297</ele>
        <time>2019-06-27T17:35:16.000Z</time>
      </trkpt>
      <trkpt lat="43.93453" lon="1.86506">
        <ele>909.79998779297</ele>
        <time>2019-06-27T17:35:17.000Z</time>
      </trkpt>
      <trkpt lat="43.93455" lon="1.86505">
        <ele>909.79998779297</ele>
        <time>2019-06-27T17:35:18.000Z</time>
      </trkpt>
      <trkpt lat="43.93457" lon="1.86504">
        <ele>909.59997558594</ele>
        <time>2019-06-27T17:35:19.000Z</time>
      </trkpt>
      <trkpt lat="43.93459" lon="1.86502">
        <ele>909.79998779297</ele>
        <time>2019-06-27T17:35:20.000Z</time>
      </trkpt>
      <trkpt lat="43.93461" lon="1.865">
        <ele>909.79998779297</ele>
        <time>2019-06-27T17:35:21.000Z</time>
      </trkpt>
      <trkpt lat="43.93462" lon="1.86498">
        <ele>910</ele>
        <time>2019-06-27T17:35:22.000Z</time>
      </trkpt>
      <trkpt lat="43.93465" lon="1.86496">
        <ele>910.20001220703</ele>
        <time>2019-06-27T17:35:23.000Z</time>
      </trkpt>
      <trkpt lat="43.93469" lon="1.86495">
        <ele>910.40002441406</ele>
        <time>2019-06-27T17:35:24.000Z</time>
      </trkpt>
      <trkpt lat="43.93471" lon="1.86494">
        <ele>910.59997558594</ele>
        <time>2019-06-27T17:35:25.000Z</time>
      </trkpt>
      <trkpt lat="43.93474" lon="1.86494">
        <ele>910.79998779297</ele>
        <time>2019-06-27T17:35:26.000Z</time>
      </trkpt>
      <trkpt lat="43.93477" lon="1.86494">
        <ele>911</ele>
        <time>2019-06-27T17:35:27.000Z</time>
      </trkpt>
      <trkpt lat="43.93479" lon="1.86494">
        <ele>911</ele>
        <time>2019-06-27T17:35:28.000Z</time>
      </trkpt>
      <trkpt lat="43.93481" lon="1.86494">
        <ele>911.20001220703</ele>
        <time>2019-06-27T17:35:29.000Z</time>
      </trkpt>
      <trkpt lat="43.93484" lon="1.86493">
        <ele>911.20001220703</ele>
        <time>2019-06-27T17:35:30.000Z</time>
      </trkpt>
      <trkpt lat="43.93488" lon="1.86492">
        <ele>911.40002441406</ele>
        <time>2019-06-27T17:35:31.000Z</time>
      </trkpt>
      <trkpt lat="43.93491" lon="1.86492">
        <ele>911.59997558594</ele>
        <time>2019-06-27T17:35:32.000Z</time>
      </trkpt>
      <trkpt lat="43.93494" lon="1.86492">
        <ele>912</ele>
        <time>2019-06-27T17:35:33.000Z</time>
      </trkpt>
      <trkpt lat="43.93497" lon="1.86492">
        <ele>912</ele>
        <time>2019-06-27T17:35:34.000Z</time>
      </trkpt>
      <trkpt lat="43.935" lon="1.86492">
        <ele>912.20001220703</ele>
        <time>2019-06-27T17:35:35.000Z</time>
      </trkpt>
      <trkpt lat="43.93503" lon="1.86492">
        <ele>912.40002441406</ele>
        <time>2019-06-27T17:35:36.000Z</time>
      </trkpt>
      <trkpt lat="43.93505" lon="1.86491">
        <ele>912.59997558594</ele>
        <time>2019-06-27T17:35:37.000Z</time>
      </trkpt>
      <trkpt lat="43.93507" lon="1.86491">
        <ele>912.79998779297</ele>
        <time>2019-06-27T17:35:38.000Z</time>
      </trkpt>
      <trkpt lat="43.93509" lon="1.8649">
        <ele>913.20001220703</ele>
        <time>2019-06-27T17:35:39.000Z</time>
      </trkpt>
      <trkpt lat="43.93514" lon="1.86485">
        <ele>913.40002441406</ele>
        <time>2019-06-27T17:35:40.000Z</time>
      </trkpt>
      <trkpt lat="43.93517" lon="1.86481">
        <ele>913.79998779297</ele>
        <time>2019-06-27T17:35:41.000Z</time>
      </trkpt>
      <trkpt lat="43.9352" lon="1.86479">
        <ele>914</ele>
        <time>2019-06-27T17:35:42.000Z</time>
      </trkpt>
      <trkpt lat="43.93522" lon="1.86478">
        <ele>914.20001220703</ele>
        <time>2019-06-27T17:35:43.000Z</time>
      </trkpt>
      <trkpt lat="43.93522" lon="1.86476">
        <ele>914.20001220703</ele>
        <time>2019-06-27T17:35:44.000Z</time>
      </trkpt>
      <trkpt lat="43.93522" lon="1.86474">
        <ele>914.20001220703</ele>
        <time>2019-06-27T17:35:45.000Z</time>
      </trkpt>
      <trkpt lat="43.93522" lon="1.86475">
        <ele>914.40002441406</ele>
        <time>2019-06-27T17:35:46.000Z</time>
      </trkpt>
      <trkpt lat="43.93523" lon="1.86475">
        <ele>914.40002441406</ele>
        <time>2019-06-27T17:35:47.000Z</time>
      </trkpt>
      <trkpt lat="43.93523" lon="1.86475">
        <ele>914.40002441406</ele>
        <time>2019-06-27T17:35:48.000Z</time>
      </trkpt>
      <trkpt lat="43.93523" lon="1.86475">
        <ele>914.20001220703</ele>
        <time>2019-06-27T17:35:49.000Z</time>
      </trkpt>
      <trkpt lat="43.93523" lon="1.86475">
        <ele>914.20001220703</ele>
        <time>2019-06-27T17:35:50.000Z</time>
      </trkpt>
      <trkpt lat="43.93523" lon="1.86475">
        <ele>914.20001220703</ele>
        <time>2019-06-27T17:35:51.000Z</time>
      </trkpt>
      <trkpt lat="43.93523" lon="1.86475">
        <ele>914.20001220703</ele>
        <time>2019-06-27T17:35:52.000Z</time>
      </trkpt>
      <trkpt lat="43.93523" lon="1.86475">
        <ele>914.20001220703</ele>
        <time>2019-06-27T17:35:53.000Z</time>
      </trkpt>
      <trkpt lat="43.93523" lon="1.86475">
        <ele>914.20001220703</ele>
        <time>2019-06-27T17:35:54.000Z</time>
      </trkpt>
      <trkpt lat="43.93523" lon="1.86475">
        <ele>914.40002441406</ele>
        <time>2019-06-27T17:35:55.000Z</time>
      </trkpt>
      <trkpt lat="43.93523" lon="1.86475">
        <ele>914.20001220703</ele>
        <time>2019-06-27T17:35:56.000Z</time>
      </trkpt>
      <trkpt lat="43.93523" lon="1.86475">
        <ele>914.20001220703</ele>
        <time>2019-06-27T17:35:57.000Z</time>
      </trkpt>
      <trkpt lat="43.93523" lon="1.86475">
        <ele>914.20001220703</ele>
        <time>2019-06-27T17:35:58.000Z</time>
      </trkpt>
      <trkpt lat="43.93523" lon="1.86475">
        <ele>914.20001220703</ele>
        <time>2019-06-27T17:35:59.000Z</time>
      </trkpt>
      <trkpt lat="43.93523" lon="1.86475">
        <ele>914.40002441406</ele>
        <time>2019-06-27T17:36:00.000Z</time>
      </trkpt>
      <trkpt lat="43.93523" lon="1.86475">
        <ele>914.40002441406</ele>
        <time>2019-06-27T17:36:01.000Z</time>
      </trkpt>
      <trkpt lat="43.93523" lon="1.86475">
        <ele>914.40002441406</ele>
        <time>2019-06-27T17:36:02.000Z</time>
      </trkpt>
      <trkpt lat="43.93523" lon="1.86475">
        <ele>914.20001220703</ele>
        <time>2019-06-27T17:36:03.000Z</time>
      </trkpt>
      <trkpt lat="43.93524" lon="1.86476">
        <ele>914.20001220703</ele>
        <time>2019-06-27T17:36:04.000Z</time>
      </trkpt>
      <trkpt lat="43.93524" lon="1.86478">
        <ele>914.20001220703</ele>
        <time>2019-06-27T17:36:05.000Z</time>
      </trkpt>
      <trkpt lat="43.93525" lon="1.8648">
        <ele>914.20001220703</ele>
        <time>2019-06-27T17:36:06.000Z</time>
      </trkpt>
      <trkpt lat="43.93526" lon="1.86481">
        <ele>914.20001220703</ele>
        <time>2019-06-27T17:36:07.000Z</time>
      </trkpt>
      <trkpt lat="43.93526" lon="1.86483">
        <ele>914</ele>
        <time>2019-06-27T17:36:08.000Z</time>
      </trkpt>
      <trkpt lat="43.93527" lon="1.86485">
        <ele>914</ele>
        <time>2019-06-27T17:36:09.000Z</time>
      </trkpt>
      <trkpt lat="43.93526" lon="1.86484">
        <ele>914</ele>
        <time>2019-06-27T17:36:10.000Z</time>
      </trkpt>
      <trkpt lat="43.93527" lon="1.86485">
        <ele>914</ele>
        <time>2019-06-27T17:36:11.000Z</time>
      </trkpt>
      <trkpt lat="43.93527" lon="1.86485">
        <ele>914</ele>
        <time>2019-06-27T17:36:12.000Z</time>
      </trkpt>
      <trkpt lat="43.93527" lon="1.86485">
        <ele>914</ele>
        <time>2019-06-27T17:36:13.000Z</time>
      </trkpt>
      <trkpt lat="43.93527" lon="1.86485">
        <ele>914</ele>
        <time>2019-06-27T17:36:14.000Z</time>
      </trkpt>
      <trkpt lat="43.93527" lon="1.86485">
        <ele>914.20001220703</ele>
        <time>2019-06-27T17:36:15.000Z</time>
      </trkpt>
      <trkpt lat="43.93527" lon="1.86485">
        <ele>914</ele>
        <time>2019-06-27T17:36:16.000Z</time>
      </trkpt>
      <trkpt lat="43.93527" lon="1.86485">
        <ele>914</ele>
        <time>2019-06-27T17:36:17.000Z</time>
      </trkpt>
      <trkpt lat="43.93527" lon="1.86485">
        <ele>914</ele>
        <time>2019-06-27T17:36:18.000Z</time>
      </trkpt>
      <trkpt lat="43.93527" lon="1.86485">
        <ele>914</ele>
        <time>2019-06-27T17:36:19.000Z</time>
      </trkpt>
      <trkpt lat="43.93527" lon="1.86485">
        <ele>914</ele>
        <time>2019-06-27T17:36:20.000Z</time>
      </trkpt>
      <trkpt lat="43.93527" lon="1.86485">
        <ele>914</ele>
        <time>2019-06-27T17:36:21.000Z</time>
      </trkpt>
      <trkpt lat="43.93527" lon="1.86485">
        <ele>914</ele>
        <time>2019-06-27T17:36:22.000Z</time>
      </trkpt>
      <trkpt lat="43.93527" lon="1.86485">
        <ele>914</ele>
        <time>2019-06-27T17:36:23.000Z</time>
      </trkpt>
      <trkpt lat="43.93527" lon="1.86485">
        <ele>914</ele>
        <time>2019-06-27T17:36:24.000Z</time>
      </trkpt>
      <trkpt lat="43.93527" lon="1.86485">
        <ele>914</ele>
        <time>2019-06-27T17:36:25.000Z</time>
      </trkpt>
      <trkpt lat="43.93527" lon="1.86485">
        <ele>914</ele>
        <time>2019-06-27T17:36:26.000Z</time>
      </trkpt>
      <trkpt lat="43.93527" lon="1.86485">
        <ele>914</ele>
        <time>2019-06-27T17:36:27.000Z</time>
      </trkpt>
      <trkpt lat="43.93527" lon="1.86485">
        <ele>914</ele>
        <time>2019-06-27T17:36:28.000Z</time>
      </trkpt>
      <trkpt lat="43.93527" lon="1.86485">
        <ele>914</ele>
        <time>2019-06-27T17:36:29.000Z</time>
      </trkpt>
      <trkpt lat="43.93527" lon="1.86485">
        <ele>914</ele>
        <time>2019-06-27T17:36:30.000Z</time>
      </trkpt>
      <trkpt lat="43.93527" lon="1.86485">
        <ele>914</ele>
        <time>2019-06-27T17:36:31.000Z</time>
      </trkpt>
      <trkpt lat="43.93527" lon="1.86484">
        <ele>914</ele>
        <time>2019-06-27T17:36:32.000Z</time>
      </trkpt>
      <trkpt lat="43.93526" lon="1.86484">
        <ele>914</ele>
        <time>2019-06-27T17:36:33.000Z</time>
      </trkpt>
      <trkpt lat="43.93526" lon="1.86482">
        <ele>914.20001220703</ele>
        <time>2019-06-27T17:36:34.000Z</time>
      </trkpt>
      <trkpt lat="43.93525" lon="1.86481">
        <ele>914.20001220703</ele>
        <time>2019-06-27T17:36:35.000Z</time>
      </trkpt>
      <trkpt lat="43.93525" lon="1.8648">
        <ele>914.20001220703</ele>
        <time>2019-06-27T17:36:36.000Z</time>
      </trkpt>
      <trkpt lat="43.93524" lon="1.86478">
        <ele>914.20001220703</ele>
        <time>2019-06-27T17:36:37.000Z</time>
      </trkpt>
      <trkpt lat="43.93525" lon="1.86479">
        <ele>914.20001220703</ele>
        <time>2019-06-27T17:36:38.000Z</time>
      </trkpt>
      <trkpt lat="43.93524" lon="1.86476">
        <ele>914.20001220703</ele>
        <time>2019-06-27T17:36:39.000Z</time>
      </trkpt>
      <trkpt lat="43.93524" lon="1.86474">
        <ele>914.40002441406</ele>
        <time>2019-06-27T17:36:40.000Z</time>
      </trkpt>
      <trkpt lat="43.93523" lon="1.86472">
        <ele>914.40002441406</ele>
        <time>2019-06-27T17:36:41.000Z</time>
      </trkpt>
      <trkpt lat="43.93523" lon="1.8647">
        <ele>914.40002441406</ele>
        <time>2019-06-27T17:36:42.000Z</time>
      </trkpt>
      <trkpt lat="43.93522" lon="1.86469">
        <ele>914.40002441406</ele>
        <time>2019-06-27T17:36:43.000Z</time>
      </trkpt>
      <trkpt lat="43.93521" lon="1.86467">
        <ele>914.59997558594</ele>
        <time>2019-06-27T17:36:44.000Z</time>
      </trkpt>
      <trkpt lat="43.93521" lon="1.86466">
        <ele>914.59997558594</ele>
        <time>2019-06-27T17:36:45.000Z</time>
      </trkpt>
      <trkpt lat="43.9352" lon="1.86465">
        <ele>914.59997558594</ele>
        <time>2019-06-27T17:36:46.000Z</time>
      </trkpt>
      <trkpt lat="43.93519" lon="1.86463">
        <ele>914.59997558594</ele>
        <time>2019-06-27T17:36:47.000Z</time>
      </trkpt>
      <trkpt lat="43.93519" lon="1.86461">
        <ele>914.79998779297</ele>
        <time>2019-06-27T17:36:48.000Z</time>
      </trkpt>
      <trkpt lat="43.93519" lon="1.8646">
        <ele>914.79998779297</ele>
        <time>2019-06-27T17:36:49.000Z</time>
      </trkpt>
      <trkpt lat="43.93518" lon="1.86459">
        <ele>914.79998779297</ele>
        <time>2019-06-27T17:36:50.000Z</time>
      </trkpt>
      <trkpt lat="43.93517" lon="1.86457">
        <ele>914.79998779297</ele>
        <time>2019-06-27T17:36:51.000Z</time>
      </trkpt>
      <trkpt lat="43.93517" lon="1.86456">
        <ele>914.79998779297</ele>
        <time>2019-06-27T17:36:52.000Z</time>
      </trkpt>
      <trkpt lat="43.93516" lon="1.86454">
        <ele>915</ele>
        <time>2019-06-27T17:36:53.000Z</time>
      </trkpt>
      <trkpt lat="43.93515" lon="1.86452">
        <ele>915</ele>
        <time>2019-06-27T17:36:54.000Z</time>
      </trkpt>
      <trkpt lat="43.93515" lon="1.8645">
        <ele>915</ele>
        <time>2019-06-27T17:36:55.000Z</time>
      </trkpt>
      <trkpt lat="43.93514" lon="1.86448">
        <ele>915.20001220703</ele>
        <time>2019-06-27T17:36:56.000Z</time>
      </trkpt>
      <trkpt lat="43.93513" lon="1.86446">
        <ele>915.20001220703</ele>
        <time>2019-06-27T17:36:57.000Z</time>
      </trkpt>
      <trkpt lat="43.93513" lon="1.86444">
        <ele>915.40002441406</ele>
        <time>2019-06-27T17:36:58.000Z</time>
      </trkpt>
      <trkpt lat="43.93512" lon="1.86442">
        <ele>915.40002441406</ele>
        <time>2019-06-27T17:36:59.000Z</time>
      </trkpt>
      <trkpt lat="43.93511" lon="1.8644">
        <ele>915.59997558594</ele>
        <time>2019-06-27T17:37:00.000Z</time>
      </trkpt>
      <trkpt lat="43.9351" lon="1.86438">
        <ele>915.79998779297</ele>
        <time>2019-06-27T17:37:01.000Z</time>
      </trkpt>
      <trkpt lat="43.93509" lon="1.86435">
        <ele>915.79998779297</ele>
        <time>2019-06-27T17:37:02.000Z</time>
      </trkpt>
      <trkpt lat="43.93509" lon="1.86433">
        <ele>915.79998779297</ele>
        <time>2019-06-27T17:37:03.000Z</time>
      </trkpt>
      <trkpt lat="43.93507" lon="1.86431">
        <ele>916</ele>
        <time>2019-06-27T17:37:04.000Z</time>
      </trkpt>
      <trkpt lat="43.93506" lon="1.86429">
        <ele>916.20001220703</ele>
        <time>2019-06-27T17:37:05.000Z</time>
      </trkpt>
      <trkpt lat="43.93505" lon="1.86427">
        <ele>916.20001220703</ele>
        <time>2019-06-27T17:37:06.000Z</time>
      </trkpt>
      <trkpt lat="43.93505" lon="1.86425">
        <ele>916.40002441406</ele>
        <time>2019-06-27T17:37:07.000Z</time>
      </trkpt>
      <trkpt lat="43.93504" lon="1.86423">
        <ele>916.40002441406</ele>
        <time>2019-06-27T17:37:08.000Z</time>
      </trkpt>
      <trkpt lat="43.93503" lon="1.86421">
        <ele>916.40002441406</ele>
        <time>2019-06-27T17:37:09.000Z</time>
      </trkpt>
      <trkpt lat="43.93503" lon="1.86419">
        <ele>916.59997558594</ele>
        <time>2019-06-27T17:37:10.000Z</time>
      </trkpt>
      <trkpt lat="43.93502" lon="1.86417">
        <ele>916.59997558594</ele>
        <time>2019-06-27T17:37:11.000Z</time>
      </trkpt>
      <trkpt lat="43.93501" lon="1.86414">
        <ele>916.79998779297</ele>
        <time>2019-06-27T17:37:12.000Z</time>
      </trkpt>
      <trkpt lat="43.935" lon="1.86412">
        <ele>917</ele>
        <time>2019-06-27T17:37:13.000Z</time>
      </trkpt>
      <trkpt lat="43.93499" lon="1.8641">
        <ele>917</ele>
        <time>2019-06-27T17:37:14.000Z</time>
      </trkpt>
      <trkpt lat="43.93497" lon="1.86407">
        <ele>917</ele>
        <time>2019-06-27T17:37:15.000Z</time>
      </trkpt>
      <trkpt lat="43.93496" lon="1.86405">
        <ele>917.20001220703</ele>
        <time>2019-06-27T17:37:16.000Z</time>
      </trkpt>
      <trkpt lat="43.93495" lon="1.86402">
        <ele>917.20001220703</ele>
        <time>2019-06-27T17:37:17.000Z</time>
      </trkpt>
      <trkpt lat="43.93495" lon="1.86399">
        <ele>917.40002441406</ele>
        <time>2019-06-27T17:37:18.000Z</time>
      </trkpt>
      <trkpt lat="43.93494" lon="1.86397">
        <ele>917.40002441406</ele>
        <time>2019-06-27T17:37:19.000Z</time>
      </trkpt>
      <trkpt lat="43.93493" lon="1.86394">
        <ele>917.40002441406</ele>
        <time>2019-06-27T17:37:20.000Z</time>
      </trkpt>
      <trkpt lat="43.93491" lon="1.86392">
        <ele>917.59997558594</ele>
        <time>2019-06-27T17:37:21.000Z</time>
      </trkpt>
      <trkpt lat="43.93491" lon="1.86389">
        <ele>917.79998779297</ele>
        <time>2019-06-27T17:37:22.000Z</time>
      </trkpt>
      <trkpt lat="43.9349" lon="1.86387">
        <ele>918</ele>
        <time>2019-06-27T17:37:23.000Z</time>
      </trkpt>
      <trkpt lat="43.93489" lon="1.86384">
        <ele>918.20001220703</ele>
        <time>2019-06-27T17:37:24.000Z</time>
      </trkpt>
      <trkpt lat="43.93489" lon="1.86382">
        <ele>918.20001220703</ele>
        <time>2019-06-27T17:37:25.000Z</time>
      </trkpt>
      <trkpt lat="43.93488" lon="1.86379">
        <ele>918.40002441406</ele>
        <time>2019-06-27T17:37:26.000Z</time>
      </trkpt>
      <trkpt lat="43.93488" lon="1.86376">
        <ele>918.40002441406</ele>
        <time>2019-06-27T17:37:27.000Z</time>
      </trkpt>
      <trkpt lat="43.93487" lon="1.86373">
        <ele>918.40002441406</ele>
        <time>2019-06-27T17:37:28.000Z</time>
      </trkpt>
      <trkpt lat="43.93487" lon="1.86371">
        <ele>918.59997558594</ele>
        <time>2019-06-27T17:37:29.000Z</time>
      </trkpt>
      <trkpt lat="43.93487" lon="1.86368">
        <ele>918.59997558594</ele>
        <time>2019-06-27T17:37:30.000Z</time>
      </trkpt>
      <trkpt lat="43.93486" lon="1.86365">
        <ele>918.79998779297</ele>
        <time>2019-06-27T17:37:31.000Z</time>
      </trkpt>
      <trkpt lat="43.93486" lon="1.86362">
        <ele>918.79998779297</ele>
        <time>2019-06-27T17:37:32.000Z</time>
      </trkpt>
      <trkpt lat="43.93486" lon="1.8636">
        <ele>919</ele>
        <time>2019-06-27T17:37:33.000Z</time>
      </trkpt>
      <trkpt lat="43.93485" lon="1.86358">
        <ele>919.20001220703</ele>
        <time>2019-06-27T17:37:34.000Z</time>
      </trkpt>
      <trkpt lat="43.93485" lon="1.86355">
        <ele>919.20001220703</ele>
        <time>2019-06-27T17:37:35.000Z</time>
      </trkpt>
      <trkpt lat="43.93485" lon="1.86352">
        <ele>919.20001220703</ele>
        <time>2019-06-27T17:37:36.000Z</time>
      </trkpt>
      <trkpt lat="43.93485" lon="1.86349">
        <ele>919.40002441406</ele>
        <time>2019-06-27T17:37:37.000Z</time>
      </trkpt>
      <trkpt lat="43.93484" lon="1.86346">
        <ele>919.40002441406</ele>
        <time>2019-06-27T17:37:38.000Z</time>
      </trkpt>
      <trkpt lat="43.93484" lon="1.86343">
        <ele>919.59997558594</ele>
        <time>2019-06-27T17:37:39.000Z</time>
      </trkpt>
      <trkpt lat="43.93484" lon="1.8634">
        <ele>919.59997558594</ele>
        <time>2019-06-27T17:37:40.000Z</time>
      </trkpt>
      <trkpt lat="43.93483" lon="1.86336">
        <ele>919.59997558594</ele>
        <time>2019-06-27T17:37:41.000Z</time>
      </trkpt>
      <trkpt lat="43.93483" lon="1.86333">
        <ele>919.79998779297</ele>
        <time>2019-06-27T17:37:42.000Z</time>
      </trkpt>
      <trkpt lat="43.93483" lon="1.86331">
        <ele>920</ele>
        <time>2019-06-27T17:37:43.000Z</time>
      </trkpt>
      <trkpt lat="43.93482" lon="1.86327">
        <ele>920.20001220703</ele>
        <time>2019-06-27T17:37:44.000Z</time>
      </trkpt>
      <trkpt lat="43.93482" lon="1.86324">
        <ele>920.20001220703</ele>
        <time>2019-06-27T17:37:45.000Z</time>
      </trkpt>
      <trkpt lat="43.93482" lon="1.86321">
        <ele>920.40002441406</ele>
        <time>2019-06-27T17:37:46.000Z</time>
      </trkpt>
      <trkpt lat="43.93481" lon="1.86318">
        <ele>920.59997558594</ele>
        <time>2019-06-27T17:37:47.000Z</time>
      </trkpt>
      <trkpt lat="43.93481" lon="1.86315">
        <ele>920.79998779297</ele>
        <time>2019-06-27T17:37:48.000Z</time>
      </trkpt>
      <trkpt lat="43.9348" lon="1.86312">
        <ele>920.79998779297</ele>
        <time>2019-06-27T17:37:49.000Z</time>
      </trkpt>
      <trkpt lat="43.9348" lon="1.86308">
        <ele>921</ele>
        <time>2019-06-27T17:37:50.000Z</time>
      </trkpt>
      <trkpt lat="43.93479" lon="1.86305">
        <ele>921.20001220703</ele>
        <time>2019-06-27T17:37:51.000Z</time>
      </trkpt>
      <trkpt lat="43.93478" lon="1.86302">
        <ele>921.20001220703</ele>
        <time>2019-06-27T17:37:52.000Z</time>
      </trkpt>
      <trkpt lat="43.93478" lon="1.86299">
        <ele>921.40002441406</ele>
        <time>2019-06-27T17:37:53.000Z</time>
      </trkpt>
      <trkpt lat="43.93477" lon="1.86296">
        <ele>921.59997558594</ele>
        <time>2019-06-27T17:37:54.000Z</time>
      </trkpt>
      <trkpt lat="43.93476" lon="1.86293">
        <ele>921.79998779297</ele>
        <time>2019-06-27T17:37:55.000Z</time>
      </trkpt>
      <trkpt lat="43.93475" lon="1.8629">
        <ele>921.79998779297</ele>
        <time>2019-06-27T17:37:56.000Z</time>
      </trkpt>
      <trkpt lat="43.93474" lon="1.86286">
        <ele>922</ele>
        <time>2019-06-27T17:37:57.000Z</time>
      </trkpt>
      <trkpt lat="43.93474" lon="1.86282">
        <ele>922</ele>
        <time>2019-06-27T17:37:58.000Z</time>
      </trkpt>
      <trkpt lat="43.93473" lon="1.86278">
        <ele>922.20001220703</ele>
        <time>2019-06-27T17:37:59.000Z</time>
      </trkpt>
      <trkpt lat="43.93473" lon="1.86274">
        <ele>922.40002441406</ele>
        <time>2019-06-27T17:38:00.000Z</time>
      </trkpt>
      <trkpt lat="43.93472" lon="1.8627">
        <ele>922.59997558594</ele>
        <time>2019-06-27T17:38:01.000Z</time>
      </trkpt>
      <trkpt lat="43.93472" lon="1.86267">
        <ele>922.79998779297</ele>
        <time>2019-06-27T17:38:02.000Z</time>
      </trkpt>
      <trkpt lat="43.93472" lon="1.86263">
        <ele>923</ele>
        <time>2019-06-27T17:38:03.000Z</time>
      </trkpt>
      <trkpt lat="43.93472" lon="1.86259">
        <ele>923</ele>
        <time>2019-06-27T17:38:04.000Z</time>
      </trkpt>
      <trkpt lat="43.93472" lon="1.86256">
        <ele>923.20001220703</ele>
        <time>2019-06-27T17:38:05.000Z</time>
      </trkpt>
      <trkpt lat="43.93471" lon="1.86253">
        <ele>923.40002441406</ele>
        <time>2019-06-27T17:38:06.000Z</time>
      </trkpt>
      <trkpt lat="43.93471" lon="1.86251">
        <ele>923.59997558594</ele>
        <time>2019-06-27T17:38:07.000Z</time>
      </trkpt>
      <trkpt lat="43.93471" lon="1.86248">
        <ele>924</ele>
        <time>2019-06-27T17:38:08.000Z</time>
      </trkpt>
      <trkpt lat="43.93471" lon="1.86245">
        <ele>924</ele>
        <time>2019-06-27T17:38:09.000Z</time>
      </trkpt>
      <trkpt lat="43.9347" lon="1.86243">
        <ele>924.20001220703</ele>
        <time>2019-06-27T17:38:10.000Z</time>
      </trkpt>
      <trkpt lat="43.9347" lon="1.86239">
        <ele>924.40002441406</ele>
        <time>2019-06-27T17:38:11.000Z</time>
      </trkpt>
      <trkpt lat="43.93469" lon="1.86236">
        <ele>924.40002441406</ele>
        <time>2019-06-27T17:38:12.000Z</time>
      </trkpt>
      <trkpt lat="43.93468" lon="1.86232">
        <ele>924.59997558594</ele>
        <time>2019-06-27T17:38:13.000Z</time>
      </trkpt>
      <trkpt lat="43.93468" lon="1.86229">
        <ele>924.79998779297</ele>
        <time>2019-06-27T17:38:14.000Z</time>
      </trkpt>
      <trkpt lat="43.93467" lon="1.86225">
        <ele>925</ele>
        <time>2019-06-27T17:38:15.000Z</time>
      </trkpt>
      <trkpt lat="43.93466" lon="1.86222">
        <ele>925.20001220703</ele>
        <time>2019-06-27T17:38:16.000Z</time>
      </trkpt>
      <trkpt lat="43.93465" lon="1.86218">
        <ele>925.40002441406</ele>
        <time>2019-06-27T17:38:17.000Z</time>
      </trkpt>
      <trkpt lat="43.93464" lon="1.86214">
        <ele>925.59997558594</ele>
        <time>2019-06-27T17:38:18.000Z</time>
      </trkpt>
      <trkpt lat="43.93463" lon="1.8621">
        <ele>925.79998779297</ele>
        <time>2019-06-27T17:38:19.000Z</time>
      </trkpt>
      <trkpt lat="43.93462" lon="1.86207">
        <ele>926.20001220703</ele>
        <time>2019-06-27T17:38:20.000Z</time>
      </trkpt>
      <trkpt lat="43.9346" lon="1.86204">
        <ele>926.59997558594</ele>
        <time>2019-06-27T17:38:21.000Z</time>
      </trkpt>
      <trkpt lat="43.9346" lon="1.86201">
        <ele>926.79998779297</ele>
        <time>2019-06-27T17:38:22.000Z</time>
      </trkpt>
      <trkpt lat="43.93459" lon="1.86198">
        <ele>927</ele>
        <time>2019-06-27T17:38:23.000Z</time>
      </trkpt>
      <trkpt lat="43.93458" lon="1.86195">
        <ele>927.40002441406</ele>
        <time>2019-06-27T17:38:24.000Z</time>
      </trkpt>
      <trkpt lat="43.93457" lon="1.86192">
        <ele>927.79998779297</ele>
        <time>2019-06-27T17:38:25.000Z</time>
      </trkpt>
      <trkpt lat="43.93456" lon="1.8619">
        <ele>928</ele>
        <time>2019-06-27T17:38:26.000Z</time>
      </trkpt>
      <trkpt lat="43.93456" lon="1.86187">
        <ele>928.20001220703</ele>
        <time>2019-06-27T17:38:27.000Z</time>
      </trkpt>
      <trkpt lat="43.93455" lon="1.86185">
        <ele>928.20001220703</ele>
        <time>2019-06-27T17:38:28.000Z</time>
      </trkpt>
      <trkpt lat="43.93454" lon="1.86183">
        <ele>928.40002441406</ele>
        <time>2019-06-27T17:38:29.000Z</time>
      </trkpt>
      <trkpt lat="43.93453" lon="1.8618">
        <ele>928.59997558594</ele>
        <time>2019-06-27T17:38:30.000Z</time>
      </trkpt>
      <trkpt lat="43.93453" lon="1.86177">
        <ele>928.79998779297</ele>
        <time>2019-06-27T17:38:31.000Z</time>
      </trkpt>
      <trkpt lat="43.93451" lon="1.86175">
        <ele>928.79998779297</ele>
        <time>2019-06-27T17:38:32.000Z</time>
      </trkpt>
      <trkpt lat="43.9345" lon="1.86172">
        <ele>929</ele>
        <time>2019-06-27T17:38:33.000Z</time>
      </trkpt>
      <trkpt lat="43.9345" lon="1.86169">
        <ele>929</ele>
        <time>2019-06-27T17:38:34.000Z</time>
      </trkpt>
      <trkpt lat="43.9345" lon="1.86166">
        <ele>929.20001220703</ele>
        <time>2019-06-27T17:38:35.000Z</time>
      </trkpt>
      <trkpt lat="43.93449" lon="1.86163">
        <ele>929.40002441406</ele>
        <time>2019-06-27T17:38:36.000Z</time>
      </trkpt>
      <trkpt lat="43.93448" lon="1.8616">
        <ele>929.40002441406</ele>
        <time>2019-06-27T17:38:37.000Z</time>
      </trkpt>
      <trkpt lat="43.93448" lon="1.86157">
        <ele>929.59997558594</ele>
        <time>2019-06-27T17:38:38.000Z</time>
      </trkpt>
      <trkpt lat="43.93447" lon="1.86154">
        <ele>929.79998779297</ele>
        <time>2019-06-27T17:38:39.000Z</time>
      </trkpt>
      <trkpt lat="43.93447" lon="1.8615">
        <ele>930</ele>
        <time>2019-06-27T17:38:40.000Z</time>
      </trkpt>
      <trkpt lat="43.93446" lon="1.86148">
        <ele>930</ele>
        <time>2019-06-27T17:38:41.000Z</time>
      </trkpt>
      <trkpt lat="43.93446" lon="1.86145">
        <ele>930.20001220703</ele>
        <time>2019-06-27T17:38:42.000Z</time>
      </trkpt>
      <trkpt lat="43.93445" lon="1.86142">
        <ele>930.40002441406</ele>
        <time>2019-06-27T17:38:43.000Z</time>
      </trkpt>
      <trkpt lat="43.93444" lon="1.86138">
        <ele>930.59997558594</ele>
        <time>2019-06-27T17:38:44.000Z</time>
      </trkpt>
      <trkpt lat="43.93443" lon="1.86135">
        <ele>930.59997558594</ele>
        <time>2019-06-27T17:38:45.000Z</time>
      </trkpt>
      <trkpt lat="43.93442" lon="1.86132">
        <ele>930.79998779297</ele>
        <time>2019-06-27T17:38:46.000Z</time>
      </trkpt>
      <trkpt lat="43.93441" lon="1.86128">
        <ele>930.79998779297</ele>
        <time>2019-06-27T17:38:47.000Z</time>
      </trkpt>
      <trkpt lat="43.9344" lon="1.86125">
        <ele>931</ele>
        <time>2019-06-27T17:38:48.000Z</time>
      </trkpt>
      <trkpt lat="43.93439" lon="1.86122">
        <ele>931.40002441406</ele>
        <time>2019-06-27T17:38:49.000Z</time>
      </trkpt>
      <trkpt lat="43.93438" lon="1.86119">
        <ele>931.40002441406</ele>
        <time>2019-06-27T17:38:50.000Z</time>
      </trkpt>
      <trkpt lat="43.93437" lon="1.86115">
        <ele>931.59997558594</ele>
        <time>2019-06-27T17:38:51.000Z</time>
      </trkpt>
      <trkpt lat="43.93436" lon="1.86112">
        <ele>931.59997558594</ele>
        <time>2019-06-27T17:38:52.000Z</time>
      </trkpt>
      <trkpt lat="43.93436" lon="1.86108">
        <ele>931.59997558594</ele>
        <time>2019-06-27T17:38:53.000Z</time>
      </trkpt>
      <trkpt lat="43.93436" lon="1.86104">
        <ele>931.79998779297</ele>
        <time>2019-06-27T17:38:54.000Z</time>
      </trkpt>
      <trkpt lat="43.93435" lon="1.861">
        <ele>931.79998779297</ele>
        <time>2019-06-27T17:38:55.000Z</time>
      </trkpt>
      <trkpt lat="43.93435" lon="1.86096">
        <ele>932.20001220703</ele>
        <time>2019-06-27T17:38:56.000Z</time>
      </trkpt>
      <trkpt lat="43.93435" lon="1.86092">
        <ele>932.20001220703</ele>
        <time>2019-06-27T17:38:57.000Z</time>
      </trkpt>
      <trkpt lat="43.93435" lon="1.86088">
        <ele>932.59997558594</ele>
        <time>2019-06-27T17:38:58.000Z</time>
      </trkpt>
      <trkpt lat="43.93434" lon="1.86084">
        <ele>932.79998779297</ele>
        <time>2019-06-27T17:38:59.000Z</time>
      </trkpt>
      <trkpt lat="43.93434" lon="1.8608">
        <ele>933</ele>
        <time>2019-06-27T17:39:00.000Z</time>
      </trkpt>
      <trkpt lat="43.93434" lon="1.86076">
        <ele>933</ele>
        <time>2019-06-27T17:39:01.000Z</time>
      </trkpt>
      <trkpt lat="43.93434" lon="1.86073">
        <ele>933.20001220703</ele>
        <time>2019-06-27T17:39:02.000Z</time>
      </trkpt>
      <trkpt lat="43.93433" lon="1.86069">
        <ele>933.40002441406</ele>
        <time>2019-06-27T17:39:03.000Z</time>
      </trkpt>
      <trkpt lat="43.93433" lon="1.86065">
        <ele>933.59997558594</ele>
        <time>2019-06-27T17:39:04.000Z</time>
      </trkpt>
      <trkpt lat="43.93433" lon="1.86062">
        <ele>933.79998779297</ele>
        <time>2019-06-27T17:39:05.000Z</time>
      </trkpt>
      <trkpt lat="43.93432" lon="1.86058">
        <ele>934</ele>
        <time>2019-06-27T17:39:06.000Z</time>
      </trkpt>
      <trkpt lat="43.93432" lon="1.86054">
        <ele>934.20001220703</ele>
        <time>2019-06-27T17:39:07.000Z</time>
      </trkpt>
      <trkpt lat="43.93432" lon="1.86051">
        <ele>934.20001220703</ele>
        <time>2019-06-27T17:39:08.000Z</time>
      </trkpt>
      <trkpt lat="43.93431" lon="1.86046">
        <ele>934.40002441406</ele>
        <time>2019-06-27T17:39:09.000Z</time>
      </trkpt>
      <trkpt lat="43.93431" lon="1.86042">
        <ele>934.59997558594</ele>
        <time>2019-06-27T17:39:10.000Z</time>
      </trkpt>
      <trkpt lat="43.9343" lon="1.86039">
        <ele>934.79998779297</ele>
        <time>2019-06-27T17:39:11.000Z</time>
      </trkpt>
      <trkpt lat="43.93429" lon="1.86034">
        <ele>935.20001220703</ele>
        <time>2019-06-27T17:39:12.000Z</time>
      </trkpt>
      <trkpt lat="43.93428" lon="1.86031">
        <ele>935.40002441406</ele>
        <time>2019-06-27T17:39:13.000Z</time>
      </trkpt>
      <trkpt lat="43.93427" lon="1.86026">
        <ele>935.59997558594</ele>
        <time>2019-06-27T17:39:14.000Z</time>
      </trkpt>
      <trkpt lat="43.93426" lon="1.86023">
        <ele>935.79998779297</ele>
        <time>2019-06-27T17:39:15.000Z</time>
      </trkpt>
      <trkpt lat="43.93425" lon="1.86019">
        <ele>935.79998779297</ele>
        <time>2019-06-27T17:39:16.000Z</time>
      </trkpt>
      <trkpt lat="43.93424" lon="1.86015">
        <ele>935.59997558594</ele>
        <time>2019-06-27T17:39:17.000Z</time>
      </trkpt>
      <trkpt lat="43.93423" lon="1.86011">
        <ele>935.59997558594</ele>
        <time>2019-06-27T17:39:18.000Z</time>
      </trkpt>
      <trkpt lat="43.93422" lon="1.86006">
        <ele>935.59997558594</ele>
        <time>2019-06-27T17:39:19.000Z</time>
      </trkpt>
      <trkpt lat="43.9342" lon="1.86002">
        <ele>935.40002441406</ele>
        <time>2019-06-27T17:39:20.000Z</time>
      </trkpt>
      <trkpt lat="43.93419" lon="1.85997">
        <ele>935.20001220703</ele>
        <time>2019-06-27T17:39:21.000Z</time>
      </trkpt>
      <trkpt lat="43.93416" lon="1.85993">
        <ele>935.20001220703</ele>
        <time>2019-06-27T17:39:22.000Z</time>
      </trkpt>
      <trkpt lat="43.93414" lon="1.85987">
        <ele>935</ele>
        <time>2019-06-27T17:39:23.000Z</time>
      </trkpt>
      <trkpt lat="43.93411" lon="1.85982">
        <ele>935</ele>
        <time>2019-06-27T17:39:24.000Z</time>
      </trkpt>
      <trkpt lat="43.93409" lon="1.85977">
        <ele>934.79998779297</ele>
        <time>2019-06-27T17:39:25.000Z</time>
      </trkpt>
      <trkpt lat="43.93406" lon="1.85972">
        <ele>934.59997558594</ele>
        <time>2019-06-27T17:39:26.000Z</time>
      </trkpt>
      <trkpt lat="43.93404" lon="1.85967">
        <ele>934.59997558594</ele>
        <time>2019-06-27T17:39:27.000Z</time>
      </trkpt>
      <trkpt lat="43.93402" lon="1.85962">
        <ele>934.59997558594</ele>
        <time>2019-06-27T17:39:28.000Z</time>
      </trkpt>
      <trkpt lat="43.934" lon="1.85957">
        <ele>934.40002441406</ele>
        <time>2019-06-27T17:39:29.000Z</time>
      </trkpt>
      <trkpt lat="43.93398" lon="1.85953">
        <ele>934.40002441406</ele>
        <time>2019-06-27T17:39:30.000Z</time>
      </trkpt>
      <trkpt lat="43.93396" lon="1.85949">
        <ele>934.40002441406</ele>
        <time>2019-06-27T17:39:31.000Z</time>
      </trkpt>
      <trkpt lat="43.93395" lon="1.85946">
        <ele>934.40002441406</ele>
        <time>2019-06-27T17:39:32.000Z</time>
      </trkpt>
      <trkpt lat="43.93393" lon="1.85942">
        <ele>934.59997558594</ele>
        <time>2019-06-27T17:39:33.000Z</time>
      </trkpt>
      <trkpt lat="43.9339" lon="1.85939">
        <ele>934.59997558594</ele>
        <time>2019-06-27T17:39:34.000Z</time>
      </trkpt>
      <trkpt lat="43.93389" lon="1.85937">
        <ele>934.79998779297</ele>
        <time>2019-06-27T17:39:35.000Z</time>
      </trkpt>
      <trkpt lat="43.93386" lon="1.85934">
        <ele>935</ele>
        <time>2019-06-27T17:39:36.000Z</time>
      </trkpt>
      <trkpt lat="43.93384" lon="1.85932">
        <ele>935.20001220703</ele>
        <time>2019-06-27T17:39:37.000Z</time>
      </trkpt>
      <trkpt lat="43.93382" lon="1.85929">
        <ele>935.40002441406</ele>
        <time>2019-06-27T17:39:38.000Z</time>
      </trkpt>
      <trkpt lat="43.93379" lon="1.85926">
        <ele>935.40002441406</ele>
        <time>2019-06-27T17:39:39.000Z</time>
      </trkpt>
      <trkpt lat="43.93377" lon="1.85923">
        <ele>935.40002441406</ele>
        <time>2019-06-27T17:39:40.000Z</time>
      </trkpt>
      <trkpt lat="43.93374" lon="1.8592">
        <ele>935.59997558594</ele>
        <time>2019-06-27T17:39:41.000Z</time>
      </trkpt>
      <trkpt lat="43.93371" lon="1.85917">
        <ele>935.79998779297</ele>
        <time>2019-06-27T17:39:42.000Z</time>
      </trkpt>
      <trkpt lat="43.93369" lon="1.85914">
        <ele>936</ele>
        <time>2019-06-27T17:39:43.000Z</time>
      </trkpt>
      <trkpt lat="43.93366" lon="1.8591">
        <ele>936.20001220703</ele>
        <time>2019-06-27T17:39:44.000Z</time>
      </trkpt>
      <trkpt lat="43.93363" lon="1.85907">
        <ele>936</ele>
        <time>2019-06-27T17:39:45.000Z</time>
      </trkpt>
      <trkpt lat="43.93359" lon="1.85903">
        <ele>936</ele>
        <time>2019-06-27T17:39:46.000Z</time>
      </trkpt>
      <trkpt lat="43.93356" lon="1.85899">
        <ele>935.79998779297</ele>
        <time>2019-06-27T17:39:47.000Z</time>
      </trkpt>
      <trkpt lat="43.93353" lon="1.85894">
        <ele>935.59997558594</ele>
        <time>2019-06-27T17:39:48.000Z</time>
      </trkpt>
      <trkpt lat="43.9335" lon="1.85889">
        <ele>935.59997558594</ele>
        <time>2019-06-27T17:39:49.000Z</time>
      </trkpt>
      <trkpt lat="43.93348" lon="1.85884">
        <ele>935.59997558594</ele>
        <time>2019-06-27T17:39:50.000Z</time>
      </trkpt>
      <trkpt lat="43.93345" lon="1.85879">
        <ele>935.59997558594</ele>
        <time>2019-06-27T17:39:51.000Z</time>
      </trkpt>
      <trkpt lat="43.93343" lon="1.85875">
        <ele>935.40002441406</ele>
        <time>2019-06-27T17:39:52.000Z</time>
      </trkpt>
      <trkpt lat="43.93341" lon="1.8587">
        <ele>935.40002441406</ele>
        <time>2019-06-27T17:39:53.000Z</time>
      </trkpt>
      <trkpt lat="43.93338" lon="1.85866">
        <ele>935.40002441406</ele>
        <time>2019-06-27T17:39:54.000Z</time>
      </trkpt>
      <trkpt lat="43.93336" lon="1.85862">
        <ele>935.40002441406</ele>
        <time>2019-06-27T17:39:55.000Z</time>
      </trkpt>
      <trkpt lat="43.93334" lon="1.85858">
        <ele>935.40002441406</ele>
        <time>2019-06-27T17:39:56.000Z</time>
      </trkpt>
      <trkpt lat="43.93331" lon="1.85853">
        <ele>935.40002441406</ele>
        <time>2019-06-27T17:39:57.000Z</time>
      </trkpt>
      <trkpt lat="43.93329" lon="1.85849">
        <ele>935.40002441406</ele>
        <time>2019-06-27T17:39:58.000Z</time>
      </trkpt>
      <trkpt lat="43.93327" lon="1.85845">
        <ele>935.40002441406</ele>
        <time>2019-06-27T17:39:59.000Z</time>
      </trkpt>
      <trkpt lat="43.93325" lon="1.85841">
        <ele>935.59997558594</ele>
        <time>2019-06-27T17:40:00.000Z</time>
      </trkpt>
      <trkpt lat="43.93324" lon="1.85837">
        <ele>935.79998779297</ele>
        <time>2019-06-27T17:40:01.000Z</time>
      </trkpt>
      <trkpt lat="43.93323" lon="1.85832">
        <ele>935.79998779297</ele>
        <time>2019-06-27T17:40:02.000Z</time>
      </trkpt>
      <trkpt lat="43.93322" lon="1.85827">
        <ele>935.79998779297</ele>
        <time>2019-06-27T17:40:03.000Z</time>
      </trkpt>
      <trkpt lat="43.93322" lon="1.85823">
        <ele>936</ele>
        <time>2019-06-27T17:40:04.000Z</time>
      </trkpt>
      <trkpt lat="43.93321" lon="1.85818">
        <ele>936.20001220703</ele>
        <time>2019-06-27T17:40:05.000Z</time>
      </trkpt>
      <trkpt lat="43.9332" lon="1.85813">
        <ele>936.20001220703</ele>
        <time>2019-06-27T17:40:06.000Z</time>
      </trkpt>
      <trkpt lat="43.93319" lon="1.85809">
        <ele>936.20001220703</ele>
        <time>2019-06-27T17:40:07.000Z</time>
      </trkpt>
      <trkpt lat="43.93319" lon="1.85804">
        <ele>936.59997558594</ele>
        <time>2019-06-27T17:40:08.000Z</time>
      </trkpt>
      <trkpt lat="43.93318" lon="1.858">
        <ele>936.59997558594</ele>
        <time>2019-06-27T17:40:09.000Z</time>
      </trkpt>
      <trkpt lat="43.93317" lon="1.85795">
        <ele>936.59997558594</ele>
        <time>2019-06-27T17:40:10.000Z</time>
      </trkpt>
      <trkpt lat="43.93317" lon="1.85791">
        <ele>936.59997558594</ele>
        <time>2019-06-27T17:40:11.000Z</time>
      </trkpt>
      <trkpt lat="43.93315" lon="1.85787">
        <ele>936.79998779297</ele>
        <time>2019-06-27T17:40:12.000Z</time>
      </trkpt>
      <trkpt lat="43.93315" lon="1.85784">
        <ele>937</ele>
        <time>2019-06-27T17:40:13.000Z</time>
      </trkpt>
      <trkpt lat="43.93314" lon="1.8578">
        <ele>937</ele>
        <time>2019-06-27T17:40:14.000Z</time>
      </trkpt>
      <trkpt lat="43.93313" lon="1.85775">
        <ele>937.20001220703</ele>
        <time>2019-06-27T17:40:15.000Z</time>
      </trkpt>
      <trkpt lat="43.93312" lon="1.85771">
        <ele>937</ele>
        <time>2019-06-27T17:40:16.000Z</time>
      </trkpt>
      <trkpt lat="43.9331" lon="1.85767">
        <ele>937.20001220703</ele>
        <time>2019-06-27T17:40:17.000Z</time>
      </trkpt>
      <trkpt lat="43.93309" lon="1.85763">
        <ele>937.20001220703</ele>
        <time>2019-06-27T17:40:18.000Z</time>
      </trkpt>
      <trkpt lat="43.93308" lon="1.85759">
        <ele>937.59997558594</ele>
        <time>2019-06-27T17:40:19.000Z</time>
      </trkpt>
      <trkpt lat="43.93307" lon="1.85755">
        <ele>937.59997558594</ele>
        <time>2019-06-27T17:40:20.000Z</time>
      </trkpt>
      <trkpt lat="43.93306" lon="1.85751">
        <ele>937.79998779297</ele>
        <time>2019-06-27T17:40:21.000Z</time>
      </trkpt>
      <trkpt lat="43.93304" lon="1.85747">
        <ele>937.79998779297</ele>
        <time>2019-06-27T17:40:22.000Z</time>
      </trkpt>
      <trkpt lat="43.93303" lon="1.85742">
        <ele>938</ele>
        <time>2019-06-27T17:40:23.000Z</time>
      </trkpt>
      <trkpt lat="43.93302" lon="1.85739">
        <ele>938</ele>
        <time>2019-06-27T17:40:24.000Z</time>
      </trkpt>
      <trkpt lat="43.93302" lon="1.85735">
        <ele>938.20001220703</ele>
        <time>2019-06-27T17:40:25.000Z</time>
      </trkpt>
      <trkpt lat="43.93301" lon="1.85731">
        <ele>938.40002441406</ele>
        <time>2019-06-27T17:40:26.000Z</time>
      </trkpt>
      <trkpt lat="43.933" lon="1.85726">
        <ele>938.59997558594</ele>
        <time>2019-06-27T17:40:27.000Z</time>
      </trkpt>
      <trkpt lat="43.933" lon="1.85722">
        <ele>938.79998779297</ele>
        <time>2019-06-27T17:40:28.000Z</time>
      </trkpt>
      <trkpt lat="43.93299" lon="1.85717">
        <ele>939</ele>
        <time>2019-06-27T17:40:29.000Z</time>
      </trkpt>
      <trkpt lat="43.93297" lon="1.85713">
        <ele>939</ele>
        <time>2019-06-27T17:40:30.000Z</time>
      </trkpt>
      <trkpt lat="43.93297" lon="1.85708">
        <ele>939.20001220703</ele>
        <time>2019-06-27T17:40:31.000Z</time>
      </trkpt>
      <trkpt lat="43.93296" lon="1.85703">
        <ele>939.40002441406</ele>
        <time>2019-06-27T17:40:32.000Z</time>
      </trkpt>
      <trkpt lat="43.93295" lon="1.85698">
        <ele>939.79998779297</ele>
        <time>2019-06-27T17:40:33.000Z</time>
      </trkpt>
      <trkpt lat="43.93295" lon="1.85692">
        <ele>939.79998779297</ele>
        <time>2019-06-27T17:40:34.000Z</time>
      </trkpt>
      <trkpt lat="43.93294" lon="1.85688">
        <ele>940</ele>
        <time>2019-06-27T17:40:35.000Z</time>
      </trkpt>
      <trkpt lat="43.93293" lon="1.85683">
        <ele>940.20001220703</ele>
        <time>2019-06-27T17:40:36.000Z</time>
      </trkpt>
      <trkpt lat="43.93292" lon="1.85678">
        <ele>940.40002441406</ele>
        <time>2019-06-27T17:40:37.000Z</time>
      </trkpt>
      <trkpt lat="43.93291" lon="1.85672">
        <ele>940.40002441406</ele>
        <time>2019-06-27T17:40:38.000Z</time>
      </trkpt>
      <trkpt lat="43.9329" lon="1.85667">
        <ele>940.79998779297</ele>
        <time>2019-06-27T17:40:39.000Z</time>
      </trkpt>
      <trkpt lat="43.93289" lon="1.85662">
        <ele>941</ele>
        <time>2019-06-27T17:40:40.000Z</time>
      </trkpt>
      <trkpt lat="43.93289" lon="1.85657">
        <ele>941.20001220703</ele>
        <time>2019-06-27T17:40:41.000Z</time>
      </trkpt>
      <trkpt lat="43.93288" lon="1.85652">
        <ele>941.40002441406</ele>
        <time>2019-06-27T17:40:42.000Z</time>
      </trkpt>
      <trkpt lat="43.93287" lon="1.85648">
        <ele>941.59997558594</ele>
        <time>2019-06-27T17:40:43.000Z</time>
      </trkpt>
      <trkpt lat="43.93286" lon="1.85644">
        <ele>941.79998779297</ele>
        <time>2019-06-27T17:40:44.000Z</time>
      </trkpt>
      <trkpt lat="43.93285" lon="1.85639">
        <ele>941.79998779297</ele>
        <time>2019-06-27T17:40:45.000Z</time>
      </trkpt>
      <trkpt lat="43.93284" lon="1.85636">
        <ele>942</ele>
        <time>2019-06-27T17:40:46.000Z</time>
      </trkpt>
      <trkpt lat="43.93282" lon="1.85632">
        <ele>942</ele>
        <time>2019-06-27T17:40:47.000Z</time>
      </trkpt>
      <trkpt lat="43.93281" lon="1.85628">
        <ele>942.20001220703</ele>
        <time>2019-06-27T17:40:48.000Z</time>
      </trkpt>
      <trkpt lat="43.9328" lon="1.85624">
        <ele>942.40002441406</ele>
        <time>2019-06-27T17:40:49.000Z</time>
      </trkpt>
      <trkpt lat="43.93278" lon="1.8562">
        <ele>942.40002441406</ele>
        <time>2019-06-27T17:40:50.000Z</time>
      </trkpt>
      <trkpt lat="43.93277" lon="1.85615">
        <ele>942.40002441406</ele>
        <time>2019-06-27T17:40:51.000Z</time>
      </trkpt>
      <trkpt lat="43.93276" lon="1.85611">
        <ele>942.20001220703</ele>
        <time>2019-06-27T17:40:52.000Z</time>
      </trkpt>
      <trkpt lat="43.93274" lon="1.85606">
        <ele>942.20001220703</ele>
        <time>2019-06-27T17:40:53.000Z</time>
      </trkpt>
      <trkpt lat="43.93272" lon="1.85601">
        <ele>942</ele>
        <time>2019-06-27T17:40:54.000Z</time>
      </trkpt>
      <trkpt lat="43.9327" lon="1.85596">
        <ele>942</ele>
        <time>2019-06-27T17:40:55.000Z</time>
      </trkpt>
      <trkpt lat="43.93268" lon="1.85591">
        <ele>942</ele>
        <time>2019-06-27T17:40:56.000Z</time>
      </trkpt>
      <trkpt lat="43.93267" lon="1.85587">
        <ele>942</ele>
        <time>2019-06-27T17:40:57.000Z</time>
      </trkpt>
      <trkpt lat="43.93265" lon="1.85584">
        <ele>942</ele>
        <time>2019-06-27T17:40:58.000Z</time>
      </trkpt>
      <trkpt lat="43.93264" lon="1.8558">
        <ele>942</ele>
        <time>2019-06-27T17:40:59.000Z</time>
      </trkpt>
      <trkpt lat="43.93263" lon="1.85576">
        <ele>942</ele>
        <time>2019-06-27T17:41:00.000Z</time>
      </trkpt>
      <trkpt lat="43.93261" lon="1.85573">
        <ele>942</ele>
        <time>2019-06-27T17:41:01.000Z</time>
      </trkpt>
      <trkpt lat="43.93259" lon="1.85571">
        <ele>942</ele>
        <time>2019-06-27T17:41:02.000Z</time>
      </trkpt>
      <trkpt lat="43.93258" lon="1.85569">
        <ele>942</ele>
        <time>2019-06-27T17:41:03.000Z</time>
      </trkpt>
      <trkpt lat="43.93256" lon="1.85568">
        <ele>942</ele>
        <time>2019-06-27T17:41:04.000Z</time>
      </trkpt>
      <trkpt lat="43.93256" lon="1.85566">
        <ele>942</ele>
        <time>2019-06-27T17:41:05.000Z</time>
      </trkpt>
      <trkpt lat="43.93256" lon="1.85565">
        <ele>942</ele>
        <time>2019-06-27T17:41:06.000Z</time>
      </trkpt>
      <trkpt lat="43.93256" lon="1.85566">
        <ele>942</ele>
        <time>2019-06-27T17:41:07.000Z</time>
      </trkpt>
      <trkpt lat="43.93255" lon="1.85564">
        <ele>942</ele>
        <time>2019-06-27T17:41:08.000Z</time>
      </trkpt>
      <trkpt lat="43.93255" lon="1.85564">
        <ele>942</ele>
        <time>2019-06-27T17:41:09.000Z</time>
      </trkpt>
      <trkpt lat="43.93255" lon="1.85564">
        <ele>942</ele>
        <time>2019-06-27T17:41:10.000Z</time>
      </trkpt>
      <trkpt lat="43.93255" lon="1.85564">
        <ele>942</ele>
        <time>2019-06-27T17:41:11.000Z</time>
      </trkpt>
      <trkpt lat="43.93255" lon="1.85564">
        <ele>942</ele>
        <time>2019-06-27T17:41:12.000Z</time>
      </trkpt>
      <trkpt lat="43.93255" lon="1.85564">
        <ele>942</ele>
        <time>2019-06-27T17:41:13.000Z</time>
      </trkpt>
      <trkpt lat="43.93255" lon="1.85564">
        <ele>942</ele>
        <time>2019-06-27T17:41:14.000Z</time>
      </trkpt>
      <trkpt lat="43.93255" lon="1.85565">
        <ele>942</ele>
        <time>2019-06-27T17:41:15.000Z</time>
      </trkpt>
      <trkpt lat="43.93256" lon="1.85567">
        <ele>942</ele>
        <time>2019-06-27T17:41:16.000Z</time>
      </trkpt>
      <trkpt lat="43.93257" lon="1.85569">
        <ele>942</ele>
        <time>2019-06-27T17:41:17.000Z</time>
      </trkpt>
      <trkpt lat="43.93258" lon="1.85571">
        <ele>942</ele>
        <time>2019-06-27T17:41:18.000Z</time>
      </trkpt>
      <trkpt lat="43.93259" lon="1.85573">
        <ele>941.79998779297</ele>
        <time>2019-06-27T17:41:19.000Z</time>
      </trkpt>
      <trkpt lat="43.9326" lon="1.85575">
        <ele>941.79998779297</ele>
        <time>2019-06-27T17:41:20.000Z</time>
      </trkpt>
      <trkpt lat="43.9326" lon="1.85578">
        <ele>941.79998779297</ele>
        <time>2019-06-27T17:41:21.000Z</time>
      </trkpt>
      <trkpt lat="43.93261" lon="1.85579">
        <ele>941.79998779297</ele>
        <time>2019-06-27T17:41:22.000Z</time>
      </trkpt>
      <trkpt lat="43.93263" lon="1.85581">
        <ele>941.79998779297</ele>
        <time>2019-06-27T17:41:23.000Z</time>
      </trkpt>
      <trkpt lat="43.93263" lon="1.85583">
        <ele>941.79998779297</ele>
        <time>2019-06-27T17:41:24.000Z</time>
      </trkpt>
      <trkpt lat="43.93264" lon="1.85586">
        <ele>942</ele>
        <time>2019-06-27T17:41:25.000Z</time>
      </trkpt>
      <trkpt lat="43.93265" lon="1.85588">
        <ele>942</ele>
        <time>2019-06-27T17:41:26.000Z</time>
      </trkpt>
      <trkpt lat="43.93266" lon="1.8559">
        <ele>941.79998779297</ele>
        <time>2019-06-27T17:41:27.000Z</time>
      </trkpt>
      <trkpt lat="43.93267" lon="1.85593">
        <ele>941.79998779297</ele>
        <time>2019-06-27T17:41:28.000Z</time>
      </trkpt>
      <trkpt lat="43.93268" lon="1.85596">
        <ele>941.79998779297</ele>
        <time>2019-06-27T17:41:29.000Z</time>
      </trkpt>
      <trkpt lat="43.93269" lon="1.85599">
        <ele>941.79998779297</ele>
        <time>2019-06-27T17:41:30.000Z</time>
      </trkpt>
      <trkpt lat="43.93271" lon="1.85602">
        <ele>942</ele>
        <time>2019-06-27T17:41:31.000Z</time>
      </trkpt>
      <trkpt lat="43.93272" lon="1.85604">
        <ele>942</ele>
        <time>2019-06-27T17:41:32.000Z</time>
      </trkpt>
      <trkpt lat="43.93273" lon="1.85607">
        <ele>942</ele>
        <time>2019-06-27T17:41:33.000Z</time>
      </trkpt>
      <trkpt lat="43.93274" lon="1.85609">
        <ele>942</ele>
        <time>2019-06-27T17:41:34.000Z</time>
      </trkpt>
      <trkpt lat="43.93275" lon="1.85612">
        <ele>941.79998779297</ele>
        <time>2019-06-27T17:41:35.000Z</time>
      </trkpt>
      <trkpt lat="43.93276" lon="1.85614">
        <ele>942</ele>
        <time>2019-06-27T17:41:36.000Z</time>
      </trkpt>
      <trkpt lat="43.93277" lon="1.85616">
        <ele>942</ele>
        <time>2019-06-27T17:41:37.000Z</time>
      </trkpt>
      <trkpt lat="43.93278" lon="1.85618">
        <ele>942</ele>
        <time>2019-06-27T17:41:38.000Z</time>
      </trkpt>
      <trkpt lat="43.9328" lon="1.85621">
        <ele>942</ele>
        <time>2019-06-27T17:41:39.000Z</time>
      </trkpt>
      <trkpt lat="43.93281" lon="1.85624">
        <ele>942</ele>
        <time>2019-06-27T17:41:40.000Z</time>
      </trkpt>
      <trkpt lat="43.93281" lon="1.85626">
        <ele>941.79998779297</ele>
        <time>2019-06-27T17:41:41.000Z</time>
      </trkpt>
      <trkpt lat="43.93282" lon="1.85629">
        <ele>941.79998779297</ele>
        <time>2019-06-27T17:41:42.000Z</time>
      </trkpt>
      <trkpt lat="43.93283" lon="1.85632">
        <ele>941.79998779297</ele>
        <time>2019-06-27T17:41:43.000Z</time>
      </trkpt>
      <trkpt lat="43.93284" lon="1.85636">
        <ele>941.79998779297</ele>
        <time>2019-06-27T17:41:44.000Z</time>
      </trkpt>
      <trkpt lat="43.93286" lon="1.85639">
        <ele>941.59997558594</ele>
        <time>2019-06-27T17:41:45.000Z</time>
      </trkpt>
      <trkpt lat="43.93287" lon="1.85643">
        <ele>941.59997558594</ele>
        <time>2019-06-27T17:41:46.000Z</time>
      </trkpt>
      <trkpt lat="43.93288" lon="1.85646">
        <ele>941.40002441406</ele>
        <time>2019-06-27T17:41:47.000Z</time>
      </trkpt>
      <trkpt lat="43.93288" lon="1.8565">
        <ele>941.40002441406</ele>
        <time>2019-06-27T17:41:48.000Z</time>
      </trkpt>
      <trkpt lat="43.93289" lon="1.85653">
        <ele>941.20001220703</ele>
        <time>2019-06-27T17:41:49.000Z</time>
      </trkpt>
      <trkpt lat="43.9329" lon="1.85658">
        <ele>941.20001220703</ele>
        <time>2019-06-27T17:41:50.000Z</time>
      </trkpt>
      <trkpt lat="43.9329" lon="1.85662">
        <ele>941</ele>
        <time>2019-06-27T17:41:51.000Z</time>
      </trkpt>
      <trkpt lat="43.93291" lon="1.85666">
        <ele>940.79998779297</ele>
        <time>2019-06-27T17:41:52.000Z</time>
      </trkpt>
      <trkpt lat="43.93292" lon="1.85669">
        <ele>940.59997558594</ele>
        <time>2019-06-27T17:41:53.000Z</time>
      </trkpt>
      <trkpt lat="43.93292" lon="1.85672">
        <ele>940.20001220703</ele>
        <time>2019-06-27T17:41:54.000Z</time>
      </trkpt>
      <trkpt lat="43.93293" lon="1.85675">
        <ele>940</ele>
        <time>2019-06-27T17:41:55.000Z</time>
      </trkpt>
      <trkpt lat="43.93293" lon="1.85677">
        <ele>939.79998779297</ele>
        <time>2019-06-27T17:41:56.000Z</time>
      </trkpt>
      <trkpt lat="43.93294" lon="1.8568">
        <ele>939.79998779297</ele>
        <time>2019-06-27T17:41:57.000Z</time>
      </trkpt>
      <trkpt lat="43.93294" lon="1.85683">
        <ele>939.59997558594</ele>
        <time>2019-06-27T17:41:58.000Z</time>
      </trkpt>
      <trkpt lat="43.93294" lon="1.85686">
        <ele>939.40002441406</ele>
        <time>2019-06-27T17:41:59.000Z</time>
      </trkpt>
      <trkpt lat="43.93294" lon="1.85687">
        <ele>939.40002441406</ele>
        <time>2019-06-27T17:42:00.000Z</time>
      </trkpt>
      <trkpt lat="43.93294" lon="1.85686">
        <ele>939.40002441406</ele>
        <time>2019-06-27T17:42:01.000Z</time>
      </trkpt>
      <trkpt lat="43.93293" lon="1.85687">
        <ele>939.20001220703</ele>
        <time>2019-06-27T17:42:02.000Z</time>
      </trkpt>
      <trkpt lat="43.93294" lon="1.85686">
        <ele>939.40002441406</ele>
        <time>2019-06-27T17:42:03.000Z</time>
      </trkpt>
      <trkpt lat="43.93295" lon="1.85684">
        <ele>939.40002441406</ele>
        <time>2019-06-27T17:42:04.000Z</time>
      </trkpt>
      <trkpt lat="43.93295" lon="1.85682">
        <ele>939.59997558594</ele>
        <time>2019-06-27T17:42:05.000Z</time>
      </trkpt>
      <trkpt lat="43.93294" lon="1.8568">
        <ele>939.59997558594</ele>
        <time>2019-06-27T17:42:06.000Z</time>
      </trkpt>
      <trkpt lat="43.93294" lon="1.85677">
        <ele>939.79998779297</ele>
        <time>2019-06-27T17:42:07.000Z</time>
      </trkpt>
      <trkpt lat="43.93293" lon="1.85672">
        <ele>940.40002441406</ele>
        <time>2019-06-27T17:42:08.000Z</time>
      </trkpt>
      <trkpt lat="43.93292" lon="1.85668">
        <ele>940.59997558594</ele>
        <time>2019-06-27T17:42:09.000Z</time>
      </trkpt>
      <trkpt lat="43.93292" lon="1.85664">
        <ele>940.59997558594</ele>
        <time>2019-06-27T17:42:10.000Z</time>
      </trkpt>
      <trkpt lat="43.93291" lon="1.8566">
        <ele>940.79998779297</ele>
        <time>2019-06-27T17:42:11.000Z</time>
      </trkpt>
      <trkpt lat="43.9329" lon="1.85657">
        <ele>941</ele>
        <time>2019-06-27T17:42:12.000Z</time>
      </trkpt>
      <trkpt lat="43.93289" lon="1.85653">
        <ele>941.20001220703</ele>
        <time>2019-06-27T17:42:13.000Z</time>
      </trkpt>
      <trkpt lat="43.93288" lon="1.8565">
        <ele>941.40002441406</ele>
        <time>2019-06-27T17:42:14.000Z</time>
      </trkpt>
      <trkpt lat="43.93287" lon="1.85647">
        <ele>941.40002441406</ele>
        <time>2019-06-27T17:42:15.000Z</time>
      </trkpt>
      <trkpt lat="43.93287" lon="1.85644">
        <ele>941.59997558594</ele>
        <time>2019-06-27T17:42:16.000Z</time>
      </trkpt>
      <trkpt lat="43.93286" lon="1.85641">
        <ele>941.59997558594</ele>
        <time>2019-06-27T17:42:17.000Z</time>
      </trkpt>
      <trkpt lat="43.93286" lon="1.85638">
        <ele>941.59997558594</ele>
        <time>2019-06-27T17:42:18.000Z</time>
      </trkpt>
      <trkpt lat="43.93285" lon="1.85635">
        <ele>941.79998779297</ele>
        <time>2019-06-27T17:42:19.000Z</time>
      </trkpt>
      <trkpt lat="43.93284" lon="1.85633">
        <ele>941.79998779297</ele>
        <time>2019-06-27T17:42:20.000Z</time>
      </trkpt>
      <trkpt lat="43.93284" lon="1.8563">
        <ele>942</ele>
        <time>2019-06-27T17:42:21.000Z</time>
      </trkpt>
      <trkpt lat="43.93283" lon="1.85627">
        <ele>942</ele>
        <time>2019-06-27T17:42:22.000Z</time>
      </trkpt>
      <trkpt lat="43.93282" lon="1.85624">
        <ele>942</ele>
        <time>2019-06-27T17:42:23.000Z</time>
      </trkpt>
      <trkpt lat="43.93281" lon="1.85621">
        <ele>942.20001220703</ele>
        <time>2019-06-27T17:42:24.000Z</time>
      </trkpt>
      <trkpt lat="43.93279" lon="1.85618">
        <ele>942.20001220703</ele>
        <time>2019-06-27T17:42:25.000Z</time>
      </trkpt>
      <trkpt lat="43.93278" lon="1.85615">
        <ele>942.20001220703</ele>
        <time>2019-06-27T17:42:26.000Z</time>
      </trkpt>
      <trkpt lat="43.93277" lon="1.85612">
        <ele>942.20001220703</ele>
        <time>2019-06-27T17:42:27.000Z</time>
      </trkpt>
      <trkpt lat="43.93276" lon="1.85609">
        <ele>942</ele>
        <time>2019-06-27T17:42:28.000Z</time>
      </trkpt>
      <trkpt lat="43.93275" lon="1.85606">
        <ele>942</ele>
        <time>2019-06-27T17:42:29.000Z</time>
      </trkpt>
      <trkpt lat="43.93273" lon="1.85602">
        <ele>942</ele>
        <time>2019-06-27T17:42:30.000Z</time>
      </trkpt>
      <trkpt lat="43.93271" lon="1.85598">
        <ele>942</ele>
        <time>2019-06-27T17:42:31.000Z</time>
      </trkpt>
      <trkpt lat="43.93269" lon="1.85593">
        <ele>942</ele>
        <time>2019-06-27T17:42:32.000Z</time>
      </trkpt>
      <trkpt lat="43.93267" lon="1.85589">
        <ele>942.20001220703</ele>
        <time>2019-06-27T17:42:33.000Z</time>
      </trkpt>
      <trkpt lat="43.93265" lon="1.85585">
        <ele>942.20001220703</ele>
        <time>2019-06-27T17:42:34.000Z</time>
      </trkpt>
      <trkpt lat="43.93263" lon="1.85581">
        <ele>942.20001220703</ele>
        <time>2019-06-27T17:42:35.000Z</time>
      </trkpt>
      <trkpt lat="43.93261" lon="1.85576">
        <ele>942.20001220703</ele>
        <time>2019-06-27T17:42:36.000Z</time>
      </trkpt>
      <trkpt lat="43.93259" lon="1.85572">
        <ele>942.20001220703</ele>
        <time>2019-06-27T17:42:37.000Z</time>
      </trkpt>
      <trkpt lat="43.93257" lon="1.85568">
        <ele>942.20001220703</ele>
        <time>2019-06-27T17:42:38.000Z</time>
      </trkpt>
      <trkpt lat="43.93255" lon="1.85566">
        <ele>942.20001220703</ele>
        <time>2019-06-27T17:42:39.000Z</time>
      </trkpt>
      <trkpt lat="43.93254" lon="1.85564">
        <ele>942</ele>
        <time>2019-06-27T17:42:40.000Z</time>
      </trkpt>
      <trkpt lat="43.93253" lon="1.85561">
        <ele>942</ele>
        <time>2019-06-27T17:42:41.000Z</time>
      </trkpt>
      <trkpt lat="43.93253" lon="1.85559">
        <ele>942.20001220703</ele>
        <time>2019-06-27T17:42:42.000Z</time>
      </trkpt>
      <trkpt lat="43.93254" lon="1.85557">
        <ele>942.20001220703</ele>
        <time>2019-06-27T17:42:43.000Z</time>
      </trkpt>
      <trkpt lat="43.93254" lon="1.85556">
        <ele>942.20001220703</ele>
        <time>2019-06-27T17:42:44.000Z</time>
      </trkpt>
      <trkpt lat="43.93255" lon="1.85554">
        <ele>942.20001220703</ele>
        <time>2019-06-27T17:42:45.000Z</time>
      </trkpt>
      <trkpt lat="43.93255" lon="1.85552">
        <ele>942</ele>
        <time>2019-06-27T17:42:46.000Z</time>
      </trkpt>
      <trkpt lat="43.93255" lon="1.8555">
        <ele>942</ele>
        <time>2019-06-27T17:42:47.000Z</time>
      </trkpt>
      <trkpt lat="43.93255" lon="1.85551">
        <ele>942</ele>
        <time>2019-06-27T17:42:48.000Z</time>
      </trkpt>
      <trkpt lat="43.93256" lon="1.85549">
        <ele>941.79998779297</ele>
        <time>2019-06-27T17:42:49.000Z</time>
      </trkpt>
      <trkpt lat="43.93256" lon="1.85549">
        <ele>941.59997558594</ele>
        <time>2019-06-27T17:42:50.000Z</time>
      </trkpt>
      <trkpt lat="43.93256" lon="1.85549">
        <ele>941.59997558594</ele>
        <time>2019-06-27T17:42:51.000Z</time>
      </trkpt>
      <trkpt lat="43.93256" lon="1.85549">
        <ele>941.59997558594</ele>
        <time>2019-06-27T17:42:52.000Z</time>
      </trkpt>
      <trkpt lat="43.93256" lon="1.85549">
        <ele>941.59997558594</ele>
        <time>2019-06-27T17:42:53.000Z</time>
      </trkpt>
      <trkpt lat="43.93256" lon="1.85549">
        <ele>941.59997558594</ele>
        <time>2019-06-27T17:42:54.000Z</time>
      </trkpt>
      <trkpt lat="43.93256" lon="1.85549">
        <ele>941.59997558594</ele>
        <time>2019-06-27T17:42:55.000Z</time>
      </trkpt>
      <trkpt lat="43.93256" lon="1.85549">
        <ele>941.59997558594</ele>
        <time>2019-06-27T17:42:56.000Z</time>
      </trkpt>
      <trkpt lat="43.93256" lon="1.85549">
        <ele>941.40002441406</ele>
        <time>2019-06-27T17:42:57.000Z</time>
      </trkpt>
      <trkpt lat="43.93256" lon="1.85549">
        <ele>941.40002441406</ele>
        <time>2019-06-27T17:42:58.000Z</time>
      </trkpt>
      <trkpt lat="43.93256" lon="1.85549">
        <ele>941.40002441406</ele>
        <time>2019-06-27T17:42:59.000Z</time>
      </trkpt>
      <trkpt lat="43.93256" lon="1.85549">
        <ele>941.59997558594</ele>
        <time>2019-06-27T17:43:00.000Z</time>
      </trkpt>
      <trkpt lat="43.93256" lon="1.85549">
        <ele>941.40002441406</ele>
        <time>2019-06-27T17:43:01.000Z</time>
      </trkpt>
      <trkpt lat="43.93256" lon="1.85549">
        <ele>941.40002441406</ele>
        <time>2019-06-27T17:43:02.000Z</time>
      </trkpt>
      <trkpt lat="43.93256" lon="1.85549">
        <ele>941.40002441406</ele>
        <time>2019-06-27T17:43:03.000Z</time>
      </trkpt>
      <trkpt lat="43.93256" lon="1.85549">
        <ele>941.59997558594</ele>
        <time>2019-06-27T17:43:04.000Z</time>
      </trkpt>
      <trkpt lat="43.93256" lon="1.85549">
        <ele>941.59997558594</ele>
        <time>2019-06-27T17:43:05.000Z</time>
      </trkpt>
      <trkpt lat="43.93256" lon="1.85549">
        <ele>941.40002441406</ele>
        <time>2019-06-27T17:43:06.000Z</time>
      </trkpt>
      <trkpt lat="43.93256" lon="1.85549">
        <ele>941.40002441406</ele>
        <time>2019-06-27T17:43:07.000Z</time>
      </trkpt>
      <trkpt lat="43.93256" lon="1.85549">
        <ele>941.40002441406</ele>
        <time>2019-06-27T17:43:08.000Z</time>
      </trkpt>
      <trkpt lat="43.93256" lon="1.85549">
        <ele>941.20001220703</ele>
        <time>2019-06-27T17:43:09.000Z</time>
      </trkpt>
      <trkpt lat="43.93256" lon="1.85549">
        <ele>941.20001220703</ele>
        <time>2019-06-27T17:43:10.000Z</time>
      </trkpt>
      <trkpt lat="43.93256" lon="1.85549">
        <ele>941.20001220703</ele>
        <time>2019-06-27T17:43:11.000Z</time>
      </trkpt>
      <trkpt lat="43.93256" lon="1.85549">
        <ele>941.20001220703</ele>
        <time>2019-06-27T17:43:12.000Z</time>
      </trkpt>
      <trkpt lat="43.93256" lon="1.85549">
        <ele>941.20001220703</ele>
        <time>2019-06-27T17:43:13.000Z</time>
      </trkpt>
      <trkpt lat="43.93256" lon="1.85549">
        <ele>941.20001220703</ele>
        <time>2019-06-27T17:43:14.000Z</time>
      </trkpt>
      <trkpt lat="43.93256" lon="1.85549">
        <ele>941.20001220703</ele>
        <time>2019-06-27T17:43:15.000Z</time>
      </trkpt>
      <trkpt lat="43.93256" lon="1.85549">
        <ele>941.20001220703</ele>
        <time>2019-06-27T17:43:16.000Z</time>
      </trkpt>
      <trkpt lat="43.93256" lon="1.85549">
        <ele>941.20001220703</ele>
        <time>2019-06-27T17:43:17.000Z</time>
      </trkpt>
      <trkpt lat="43.93256" lon="1.85549">
        <ele>941.20001220703</ele>
        <time>2019-06-27T17:43:18.000Z</time>
      </trkpt>
      <trkpt lat="43.93256" lon="1.85549">
        <ele>941.20001220703</ele>
        <time>2019-06-27T17:43:19.000Z</time>
      </trkpt>
      <trkpt lat="43.93256" lon="1.85549">
        <ele>941.40002441406</ele>
        <time>2019-06-27T17:43:20.000Z</time>
      </trkpt>
      <trkpt lat="43.93256" lon="1.85549">
        <ele>941.40002441406</ele>
        <time>2019-06-27T17:43:21.000Z</time>
      </trkpt>
      <trkpt lat="43.93256" lon="1.85548">
        <ele>941.40002441406</ele>
        <time>2019-06-27T17:43:22.000Z</time>
      </trkpt>
      <trkpt lat="43.93258" lon="1.85544">
        <ele>941.20001220703</ele>
        <time>2019-06-27T17:43:23.000Z</time>
      </trkpt>
      <trkpt lat="43.9326" lon="1.85539">
        <ele>941.20001220703</ele>
        <time>2019-06-27T17:43:24.000Z</time>
      </trkpt>
      <trkpt lat="43.93263" lon="1.85535">
        <ele>941</ele>
        <time>2019-06-27T17:43:25.000Z</time>
      </trkpt>
      <trkpt lat="43.93266" lon="1.8553">
        <ele>940.79998779297</ele>
        <time>2019-06-27T17:43:26.000Z</time>
      </trkpt>
      <trkpt lat="43.93269" lon="1.85524">
        <ele>940.79998779297</ele>
        <time>2019-06-27T17:43:27.000Z</time>
      </trkpt>
      <trkpt lat="43.93272" lon="1.85519">
        <ele>940.59997558594</ele>
        <time>2019-06-27T17:43:28.000Z</time>
      </trkpt>
      <trkpt lat="43.93274" lon="1.85514">
        <ele>940.40002441406</ele>
        <time>2019-06-27T17:43:29.000Z</time>
      </trkpt>
      <trkpt lat="43.93277" lon="1.85509">
        <ele>940.20001220703</ele>
        <time>2019-06-27T17:43:30.000Z</time>
      </trkpt>
      <trkpt lat="43.9328" lon="1.85503">
        <ele>940.20001220703</ele>
        <time>2019-06-27T17:43:31.000Z</time>
      </trkpt>
      <trkpt lat="43.93284" lon="1.85497">
        <ele>940</ele>
        <time>2019-06-27T17:43:32.000Z</time>
      </trkpt>
      <trkpt lat="43.93287" lon="1.8549">
        <ele>939.79998779297</ele>
        <time>2019-06-27T17:43:33.000Z</time>
      </trkpt>
      <trkpt lat="43.9329" lon="1.85483">
        <ele>939.40002441406</ele>
        <time>2019-06-27T17:43:34.000Z</time>
      </trkpt>
      <trkpt lat="43.93294" lon="1.85477">
        <ele>939</ele>
        <time>2019-06-27T17:43:35.000Z</time>
      </trkpt>
      <trkpt lat="43.93298" lon="1.85473">
        <ele>938.79998779297</ele>
        <time>2019-06-27T17:43:36.000Z</time>
      </trkpt>
      <trkpt lat="43.93302" lon="1.85467">
        <ele>938.40002441406</ele>
        <time>2019-06-27T17:43:37.000Z</time>
      </trkpt>
      <trkpt lat="43.93304" lon="1.85461">
        <ele>938.20001220703</ele>
        <time>2019-06-27T17:43:38.000Z</time>
      </trkpt>
      <trkpt lat="43.93305" lon="1.85455">
        <ele>937.20001220703</ele>
        <time>2019-06-27T17:43:39.000Z</time>
      </trkpt>
      <trkpt lat="43.93306" lon="1.85449">
        <ele>936.59997558594</ele>
        <time>2019-06-27T17:43:40.000Z</time>
      </trkpt>
      <trkpt lat="43.93307" lon="1.85443">
        <ele>935.20001220703</ele>
        <time>2019-06-27T17:43:41.000Z</time>
      </trkpt>
      <trkpt lat="43.93308" lon="1.85438">
        <ele>934.40002441406</ele>
        <time>2019-06-27T17:43:42.000Z</time>
      </trkpt>
      <trkpt lat="43.93307" lon="1.85432">
        <ele>933.59997558594</ele>
        <time>2019-06-27T17:43:43.000Z</time>
      </trkpt>
      <trkpt lat="43.93307" lon="1.85426">
        <ele>932.79998779297</ele>
        <time>2019-06-27T17:43:44.000Z</time>
      </trkpt>
      <trkpt lat="43.93309" lon="1.8542">
        <ele>932.40002441406</ele>
        <time>2019-06-27T17:43:45.000Z</time>
      </trkpt>
      <trkpt lat="43.93312" lon="1.85414">
        <ele>932.20001220703</ele>
        <time>2019-06-27T17:43:46.000Z</time>
      </trkpt>
      <trkpt lat="43.93314" lon="1.85407">
        <ele>932</ele>
        <time>2019-06-27T17:43:47.000Z</time>
      </trkpt>
      <trkpt lat="43.93317" lon="1.854">
        <ele>931.79998779297</ele>
        <time>2019-06-27T17:43:48.000Z</time>
      </trkpt>
      <trkpt lat="43.93318" lon="1.85392">
        <ele>931.59997558594</ele>
        <time>2019-06-27T17:43:49.000Z</time>
      </trkpt>
      <trkpt lat="43.93321" lon="1.85384">
        <ele>931.20001220703</ele>
        <time>2019-06-27T17:43:50.000Z</time>
      </trkpt>
      <trkpt lat="43.93323" lon="1.85377">
        <ele>931</ele>
        <time>2019-06-27T17:43:51.000Z</time>
      </trkpt>
      <trkpt lat="43.93325" lon="1.85371">
        <ele>930.79998779297</ele>
        <time>2019-06-27T17:43:52.000Z</time>
      </trkpt>
      <trkpt lat="43.93327" lon="1.85365">
        <ele>931</ele>
        <time>2019-06-27T17:43:53.000Z</time>
      </trkpt>
      <trkpt lat="43.93331" lon="1.85361">
        <ele>930.79998779297</ele>
        <time>2019-06-27T17:43:54.000Z</time>
      </trkpt>
      <trkpt lat="43.93334" lon="1.85357">
        <ele>931</ele>
        <time>2019-06-27T17:43:55.000Z</time>
      </trkpt>
      <trkpt lat="43.93337" lon="1.85352">
        <ele>931.20001220703</ele>
        <time>2019-06-27T17:43:56.000Z</time>
      </trkpt>
      <trkpt lat="43.93341" lon="1.85347">
        <ele>931.40002441406</ele>
        <time>2019-06-27T17:43:57.000Z</time>
      </trkpt>
      <trkpt lat="43.93345" lon="1.85342">
        <ele>931.79998779297</ele>
        <time>2019-06-27T17:43:58.000Z</time>
      </trkpt>
      <trkpt lat="43.93348" lon="1.85339">
        <ele>932.20001220703</ele>
        <time>2019-06-27T17:43:59.000Z</time>
      </trkpt>
      <trkpt lat="43.93351" lon="1.85337">
        <ele>932.40002441406</ele>
        <time>2019-06-27T17:44:00.000Z</time>
      </trkpt>
      <trkpt lat="43.93355" lon="1.85336">
        <ele>932.40002441406</ele>
        <time>2019-06-27T17:44:01.000Z</time>
      </trkpt>
      <trkpt lat="43.93359" lon="1.85333">
        <ele>932.59997558594</ele>
        <time>2019-06-27T17:44:02.000Z</time>
      </trkpt>
      <trkpt lat="43.93363" lon="1.8533">
        <ele>932.59997558594</ele>
        <time>2019-06-27T17:44:03.000Z</time>
      </trkpt>
      <trkpt lat="43.93365" lon="1.85327">
        <ele>932.40002441406</ele>
        <time>2019-06-27T17:44:04.000Z</time>
      </trkpt>
      <trkpt lat="43.93369" lon="1.85324">
        <ele>932.40002441406</ele>
        <time>2019-06-27T17:44:05.000Z</time>
      </trkpt>
      <trkpt lat="43.93372" lon="1.8532">
        <ele>932.20001220703</ele>
        <time>2019-06-27T17:44:06.000Z</time>
      </trkpt>
      <trkpt lat="43.93376" lon="1.85317">
        <ele>932</ele>
        <time>2019-06-27T17:44:07.000Z</time>
      </trkpt>
      <trkpt lat="43.93379" lon="1.85316">
        <ele>931.79998779297</ele>
        <time>2019-06-27T17:44:08.000Z</time>
      </trkpt>
      <trkpt lat="43.93383" lon="1.85313">
        <ele>931.59997558594</ele>
        <time>2019-06-27T17:44:09.000Z</time>
      </trkpt>
      <trkpt lat="43.93386" lon="1.8531">
        <ele>931.59997558594</ele>
        <time>2019-06-27T17:44:10.000Z</time>
      </trkpt>
      <trkpt lat="43.93388" lon="1.85309">
        <ele>931.40002441406</ele>
        <time>2019-06-27T17:44:11.000Z</time>
      </trkpt>
      <trkpt lat="43.93391" lon="1.85306">
        <ele>931.40002441406</ele>
        <time>2019-06-27T17:44:12.000Z</time>
      </trkpt>
      <trkpt lat="43.93392" lon="1.85304">
        <ele>931.40002441406</ele>
        <time>2019-06-27T17:44:13.000Z</time>
      </trkpt>
      <trkpt lat="43.93393" lon="1.85302">
        <ele>931.40002441406</ele>
        <time>2019-06-27T17:44:14.000Z</time>
      </trkpt>
      <trkpt lat="43.93393" lon="1.85303">
        <ele>931.40002441406</ele>
        <time>2019-06-27T17:44:15.000Z</time>
      </trkpt>
      <trkpt lat="43.93393" lon="1.85302">
        <ele>931.40002441406</ele>
        <time>2019-06-27T17:44:16.000Z</time>
      </trkpt>
      <trkpt lat="43.93395" lon="1.85299">
        <ele>931.40002441406</ele>
        <time>2019-06-27T17:44:17.000Z</time>
      </trkpt>
      <trkpt lat="43.93396" lon="1.85297">
        <ele>931.40002441406</ele>
        <time>2019-06-27T17:44:18.000Z</time>
      </trkpt>
      <trkpt lat="43.93398" lon="1.85295">
        <ele>931.40002441406</ele>
        <time>2019-06-27T17:44:19.000Z</time>
      </trkpt>
      <trkpt lat="43.93399" lon="1.85293">
        <ele>931.40002441406</ele>
        <time>2019-06-27T17:44:20.000Z</time>
      </trkpt>
      <trkpt lat="43.93399" lon="1.85294">
        <ele>931.40002441406</ele>
        <time>2019-06-27T17:44:21.000Z</time>
      </trkpt>
      <trkpt lat="43.934" lon="1.85293">
        <ele>931.40002441406</ele>
        <time>2019-06-27T17:44:22.000Z</time>
      </trkpt>
      <trkpt lat="43.934" lon="1.85291">
        <ele>931.59997558594</ele>
        <time>2019-06-27T17:44:23.000Z</time>
      </trkpt>
      <trkpt lat="43.93401" lon="1.85288">
        <ele>931.40002441406</ele>
        <time>2019-06-27T17:44:24.000Z</time>
      </trkpt>
      <trkpt lat="43.93403" lon="1.85285">
        <ele>931.59997558594</ele>
        <time>2019-06-27T17:44:25.000Z</time>
      </trkpt>
      <trkpt lat="43.93404" lon="1.85284">
        <ele>931.59997558594</ele>
        <time>2019-06-27T17:44:26.000Z</time>
      </trkpt>
      <trkpt lat="43.93405" lon="1.85281">
        <ele>931.79998779297</ele>
        <time>2019-06-27T17:44:27.000Z</time>
      </trkpt>
      <trkpt lat="43.93407" lon="1.85279">
        <ele>931.79998779297</ele>
        <time>2019-06-27T17:44:28.000Z</time>
      </trkpt>
      <trkpt lat="43.93408" lon="1.85277">
        <ele>931.79998779297</ele>
        <time>2019-06-27T17:44:29.000Z</time>
      </trkpt>
      <trkpt lat="43.9341" lon="1.85275">
        <ele>931.79998779297</ele>
        <time>2019-06-27T17:44:30.000Z</time>
      </trkpt>
      <trkpt lat="43.93412" lon="1.85273">
        <ele>932</ele>
        <time>2019-06-27T17:44:31.000Z</time>
      </trkpt>
      <trkpt lat="43.93414" lon="1.85271">
        <ele>932.20001220703</ele>
        <time>2019-06-27T17:44:32.000Z</time>
      </trkpt>
      <trkpt lat="43.93415" lon="1.85268">
        <ele>932.20001220703</ele>
        <time>2019-06-27T17:44:33.000Z</time>
      </trkpt>
      <trkpt lat="43.93417" lon="1.85266">
        <ele>932.40002441406</ele>
        <time>2019-06-27T17:44:34.000Z</time>
      </trkpt>
      <trkpt lat="43.93419" lon="1.85264">
        <ele>932.40002441406</ele>
        <time>2019-06-27T17:44:35.000Z</time>
      </trkpt>
      <trkpt lat="43.9342" lon="1.85262">
        <ele>932.59997558594</ele>
        <time>2019-06-27T17:44:36.000Z</time>
      </trkpt>
      <trkpt lat="43.93422" lon="1.8526">
        <ele>932.59997558594</ele>
        <time>2019-06-27T17:44:37.000Z</time>
      </trkpt>
      <trkpt lat="43.93424" lon="1.85258">
        <ele>933</ele>
        <time>2019-06-27T17:44:38.000Z</time>
      </trkpt>
      <trkpt lat="43.93425" lon="1.85256">
        <ele>933</ele>
        <time>2019-06-27T17:44:39.000Z</time>
      </trkpt>
      <trkpt lat="43.93426" lon="1.85253">
        <ele>933.20001220703</ele>
        <time>2019-06-27T17:44:40.000Z</time>
      </trkpt>
      <trkpt lat="43.93427" lon="1.85251">
        <ele>933.40002441406</ele>
        <time>2019-06-27T17:44:41.000Z</time>
      </trkpt>
      <trkpt lat="43.93428" lon="1.85248">
        <ele>933.40002441406</ele>
        <time>2019-06-27T17:44:42.000Z</time>
      </trkpt>
      <trkpt lat="43.93429" lon="1.85245">
        <ele>933.79998779297</ele>
        <time>2019-06-27T17:44:43.000Z</time>
      </trkpt>
      <trkpt lat="43.9343" lon="1.85243">
        <ele>934</ele>
        <time>2019-06-27T17:44:44.000Z</time>
      </trkpt>
      <trkpt lat="43.93431" lon="1.85241">
        <ele>934.20001220703</ele>
        <time>2019-06-27T17:44:45.000Z</time>
      </trkpt>
      <trkpt lat="43.93432" lon="1.85239">
        <ele>934.59997558594</ele>
        <time>2019-06-27T17:44:46.000Z</time>
      </trkpt>
      <trkpt lat="43.93432" lon="1.85238">
        <ele>934.79998779297</ele>
        <time>2019-06-27T17:44:47.000Z</time>
      </trkpt>
      <trkpt lat="43.93432" lon="1.85235">
        <ele>935.20001220703</ele>
        <time>2019-06-27T17:44:48.000Z</time>
      </trkpt>
      <trkpt lat="43.93433" lon="1.85233">
        <ele>935.40002441406</ele>
        <time>2019-06-27T17:44:49.000Z</time>
      </trkpt>
      <trkpt lat="43.93434" lon="1.85231">
        <ele>935.79998779297</ele>
        <time>2019-06-27T17:44:50.000Z</time>
      </trkpt>
      <trkpt lat="43.93435" lon="1.85229">
        <ele>936</ele>
        <time>2019-06-27T17:44:51.000Z</time>
      </trkpt>
      <trkpt lat="43.93436" lon="1.85226">
        <ele>936.20001220703</ele>
        <time>2019-06-27T17:44:52.000Z</time>
      </trkpt>
      <trkpt lat="43.93438" lon="1.85224">
        <ele>936.20001220703</ele>
        <time>2019-06-27T17:44:53.000Z</time>
      </trkpt>
      <trkpt lat="43.93439" lon="1.85223">
        <ele>936.20001220703</ele>
        <time>2019-06-27T17:44:54.000Z</time>
      </trkpt>
      <trkpt lat="43.93442" lon="1.85222">
        <ele>935.79998779297</ele>
        <time>2019-06-27T17:44:55.000Z</time>
      </trkpt>
      <trkpt lat="43.93445" lon="1.85222">
        <ele>935.20001220703</ele>
        <time>2019-06-27T17:44:56.000Z</time>
      </trkpt>
      <trkpt lat="43.93447" lon="1.85221">
        <ele>935</ele>
        <time>2019-06-27T17:44:57.000Z</time>
      </trkpt>
      <trkpt lat="43.9345" lon="1.85219">
        <ele>934.40002441406</ele>
        <time>2019-06-27T17:44:58.000Z</time>
      </trkpt>
      <trkpt lat="43.93453" lon="1.85215">
        <ele>934</ele>
        <time>2019-06-27T17:44:59.000Z</time>
      </trkpt>
      <trkpt lat="43.93457" lon="1.85212">
        <ele>933.59997558594</ele>
        <time>2019-06-27T17:45:00.000Z</time>
      </trkpt>
      <trkpt lat="43.9346" lon="1.85209">
        <ele>933.20001220703</ele>
        <time>2019-06-27T17:45:01.000Z</time>
      </trkpt>
      <trkpt lat="43.93462" lon="1.85207">
        <ele>933</ele>
        <time>2019-06-27T17:45:02.000Z</time>
      </trkpt>
      <trkpt lat="43.93464" lon="1.85203">
        <ele>932.59997558594</ele>
        <time>2019-06-27T17:45:03.000Z</time>
      </trkpt>
      <trkpt lat="43.93466" lon="1.852">
        <ele>932.59997558594</ele>
        <time>2019-06-27T17:45:04.000Z</time>
      </trkpt>
      <trkpt lat="43.93468" lon="1.85196">
        <ele>932.40002441406</ele>
        <time>2019-06-27T17:45:05.000Z</time>
      </trkpt>
      <trkpt lat="43.9347" lon="1.85194">
        <ele>932.59997558594</ele>
        <time>2019-06-27T17:45:06.000Z</time>
      </trkpt>
      <trkpt lat="43.93474" lon="1.85191">
        <ele>932.59997558594</ele>
        <time>2019-06-27T17:45:07.000Z</time>
      </trkpt>
      <trkpt lat="43.93477" lon="1.85188">
        <ele>932.40002441406</ele>
        <time>2019-06-27T17:45:08.000Z</time>
      </trkpt>
      <trkpt lat="43.93481" lon="1.85185">
        <ele>932.40002441406</ele>
        <time>2019-06-27T17:45:09.000Z</time>
      </trkpt>
      <trkpt lat="43.93484" lon="1.85182">
        <ele>932.20001220703</ele>
        <time>2019-06-27T17:45:10.000Z</time>
      </trkpt>
      <trkpt lat="43.93487" lon="1.85179">
        <ele>931.79998779297</ele>
        <time>2019-06-27T17:45:11.000Z</time>
      </trkpt>
      <trkpt lat="43.93492" lon="1.85175">
        <ele>931.59997558594</ele>
        <time>2019-06-27T17:45:12.000Z</time>
      </trkpt>
      <trkpt lat="43.93497" lon="1.85171">
        <ele>931.59997558594</ele>
        <time>2019-06-27T17:45:13.000Z</time>
      </trkpt>
      <trkpt lat="43.93502" lon="1.85168">
        <ele>931.40002441406</ele>
        <time>2019-06-27T17:45:14.000Z</time>
      </trkpt>
      <trkpt lat="43.93508" lon="1.85164">
        <ele>931.40002441406</ele>
        <time>2019-06-27T17:45:15.000Z</time>
      </trkpt>
      <trkpt lat="43.93514" lon="1.85159">
        <ele>931.40002441406</ele>
        <time>2019-06-27T17:45:16.000Z</time>
      </trkpt>
      <trkpt lat="43.93519" lon="1.85155">
        <ele>931.40002441406</ele>
        <time>2019-06-27T17:45:17.000Z</time>
      </trkpt>
      <trkpt lat="43.93523" lon="1.85152">
        <ele>931</ele>
        <time>2019-06-27T17:45:18.000Z</time>
      </trkpt>
      <trkpt lat="43.93529" lon="1.85148">
        <ele>930.79998779297</ele>
        <time>2019-06-27T17:45:19.000Z</time>
      </trkpt>
      <trkpt lat="43.93535" lon="1.85145">
        <ele>930.20001220703</ele>
        <time>2019-06-27T17:45:20.000Z</time>
      </trkpt>
      <trkpt lat="43.93543" lon="1.85143">
        <ele>930.20001220703</ele>
        <time>2019-06-27T17:45:21.000Z</time>
      </trkpt>
      <trkpt lat="43.9355" lon="1.85142">
        <ele>930</ele>
        <time>2019-06-27T17:45:22.000Z</time>
      </trkpt>
      <trkpt lat="43.93556" lon="1.85141">
        <ele>929.59997558594</ele>
        <time>2019-06-27T17:45:23.000Z</time>
      </trkpt>
      <trkpt lat="43.93563" lon="1.85141">
        <ele>929.59997558594</ele>
        <time>2019-06-27T17:45:24.000Z</time>
      </trkpt>
      <trkpt lat="43.93569" lon="1.85141">
        <ele>929.40002441406</ele>
        <time>2019-06-27T17:45:25.000Z</time>
      </trkpt>
      <trkpt lat="43.93575" lon="1.85142">
        <ele>929.59997558594</ele>
        <time>2019-06-27T17:45:26.000Z</time>
      </trkpt>
      <trkpt lat="43.93581" lon="1.85142">
        <ele>929.40002441406</ele>
        <time>2019-06-27T17:45:27.000Z</time>
      </trkpt>
      <trkpt lat="43.93586" lon="1.85143">
        <ele>929.40002441406</ele>
        <time>2019-06-27T17:45:28.000Z</time>
      </trkpt>
      <trkpt lat="43.93591" lon="1.85145">
        <ele>929</ele>
        <time>2019-06-27T17:45:29.000Z</time>
      </trkpt>
      <trkpt lat="43.93596" lon="1.85148">
        <ele>929</ele>
        <time>2019-06-27T17:45:30.000Z</time>
      </trkpt>
      <trkpt lat="43.936" lon="1.85152">
        <ele>928.79998779297</ele>
        <time>2019-06-27T17:45:31.000Z</time>
      </trkpt>
      <trkpt lat="43.93604" lon="1.85155">
        <ele>928.79998779297</ele>
        <time>2019-06-27T17:45:32.000Z</time>
      </trkpt>
      <trkpt lat="43.93609" lon="1.85156">
        <ele>928.59997558594</ele>
        <time>2019-06-27T17:45:33.000Z</time>
      </trkpt>
      <trkpt lat="43.93612" lon="1.85158">
        <ele>928.79998779297</ele>
        <time>2019-06-27T17:45:34.000Z</time>
      </trkpt>
      <trkpt lat="43.93616" lon="1.85159">
        <ele>928.79998779297</ele>
        <time>2019-06-27T17:45:35.000Z</time>
      </trkpt>
      <trkpt lat="43.93618" lon="1.8516">
        <ele>929</ele>
        <time>2019-06-27T17:45:36.000Z</time>
      </trkpt>
      <trkpt lat="43.9362" lon="1.85161">
        <ele>929</ele>
        <time>2019-06-27T17:45:37.000Z</time>
      </trkpt>
      <trkpt lat="43.93622" lon="1.85163">
        <ele>929.20001220703</ele>
        <time>2019-06-27T17:45:38.000Z</time>
      </trkpt>
      <trkpt lat="43.93624" lon="1.85164">
        <ele>929.20001220703</ele>
        <time>2019-06-27T17:45:39.000Z</time>
      </trkpt>
      <trkpt lat="43.93625" lon="1.85164">
        <ele>929.20001220703</ele>
        <time>2019-06-27T17:45:40.000Z</time>
      </trkpt>
      <trkpt lat="43.93627" lon="1.85165">
        <ele>929</ele>
        <time>2019-06-27T17:45:41.000Z</time>
      </trkpt>
      <trkpt lat="43.93629" lon="1.85165">
        <ele>929.20001220703</ele>
        <time>2019-06-27T17:45:42.000Z</time>
      </trkpt>
      <trkpt lat="43.93628" lon="1.85165">
        <ele>929.20001220703</ele>
        <time>2019-06-27T17:45:43.000Z</time>
      </trkpt>
      <trkpt lat="43.93631" lon="1.85166">
        <ele>929.40002441406</ele>
        <time>2019-06-27T17:45:44.000Z</time>
      </trkpt>
      <trkpt lat="43.93632" lon="1.85166">
        <ele>929.40002441406</ele>
        <time>2019-06-27T17:45:45.000Z</time>
      </trkpt>
      <trkpt lat="43.93634" lon="1.85167">
        <ele>929.59997558594</ele>
        <time>2019-06-27T17:45:46.000Z</time>
      </trkpt>
      <trkpt lat="43.93634" lon="1.85167">
        <ele>929.59997558594</ele>
        <time>2019-06-27T17:45:47.000Z</time>
      </trkpt>
      <trkpt lat="43.93637" lon="1.85168">
        <ele>929.59997558594</ele>
        <time>2019-06-27T17:45:48.000Z</time>
      </trkpt>
      <trkpt lat="43.93639" lon="1.85169">
        <ele>929.59997558594</ele>
        <time>2019-06-27T17:45:49.000Z</time>
      </trkpt>
      <trkpt lat="43.93638" lon="1.85168">
        <ele>929.59997558594</ele>
        <time>2019-06-27T17:45:50.000Z</time>
      </trkpt>
      <trkpt lat="43.9364" lon="1.85169">
        <ele>929.59997558594</ele>
        <time>2019-06-27T17:45:51.000Z</time>
      </trkpt>
      <trkpt lat="43.9364" lon="1.85169">
        <ele>929.59997558594</ele>
        <time>2019-06-27T17:45:52.000Z</time>
      </trkpt>
      <trkpt lat="43.9364" lon="1.85169">
        <ele>929.59997558594</ele>
        <time>2019-06-27T17:45:53.000Z</time>
      </trkpt>
      <trkpt lat="43.9364" lon="1.85169">
        <ele>929.59997558594</ele>
        <time>2019-06-27T17:45:54.000Z</time>
      </trkpt>
      <trkpt lat="43.9364" lon="1.85169">
        <ele>929.59997558594</ele>
        <time>2019-06-27T17:45:55.000Z</time>
      </trkpt>
      <trkpt lat="43.9364" lon="1.85169">
        <ele>929.59997558594</ele>
        <time>2019-06-27T17:45:56.000Z</time>
      </trkpt>
      <trkpt lat="43.9364" lon="1.85169">
        <ele>929.59997558594</ele>
        <time>2019-06-27T17:45:57.000Z</time>
      </trkpt>
      <trkpt lat="43.9364" lon="1.85169">
        <ele>929.59997558594</ele>
        <time>2019-06-27T17:45:58.000Z</time>
      </trkpt>
      <trkpt lat="43.9364" lon="1.85169">
        <ele>929.59997558594</ele>
        <time>2019-06-27T17:45:59.000Z</time>
      </trkpt>
      <trkpt lat="43.93642" lon="1.8517">
        <ele>929.79998779297</ele>
        <time>2019-06-27T17:46:00.000Z</time>
      </trkpt>
      <trkpt lat="43.93644" lon="1.85172">
        <ele>929.79998779297</ele>
        <time>2019-06-27T17:46:01.000Z</time>
      </trkpt>
      <trkpt lat="43.93644" lon="1.85174">
        <ele>929.59997558594</ele>
        <time>2019-06-27T17:46:02.000Z</time>
      </trkpt>
      <trkpt lat="43.93646" lon="1.85176">
        <ele>929.59997558594</ele>
        <time>2019-06-27T17:46:03.000Z</time>
      </trkpt>
      <trkpt lat="43.93647" lon="1.85178">
        <ele>929.59997558594</ele>
        <time>2019-06-27T17:46:04.000Z</time>
      </trkpt>
      <trkpt lat="43.93648" lon="1.8518">
        <ele>929.79998779297</ele>
        <time>2019-06-27T17:46:05.000Z</time>
      </trkpt>
      <trkpt lat="43.93649" lon="1.85182">
        <ele>929.79998779297</ele>
        <time>2019-06-27T17:46:06.000Z</time>
      </trkpt>
      <trkpt lat="43.9365" lon="1.85183">
        <ele>930</ele>
        <time>2019-06-27T17:46:07.000Z</time>
      </trkpt>
      <trkpt lat="43.93651" lon="1.85185">
        <ele>930</ele>
        <time>2019-06-27T17:46:08.000Z</time>
      </trkpt>
      <trkpt lat="43.93652" lon="1.85186">
        <ele>930.20001220703</ele>
        <time>2019-06-27T17:46:09.000Z</time>
      </trkpt>
      <trkpt lat="43.93653" lon="1.85188">
        <ele>930.20001220703</ele>
        <time>2019-06-27T17:46:10.000Z</time>
      </trkpt>
      <trkpt lat="43.93654" lon="1.8519">
        <ele>930.20001220703</ele>
        <time>2019-06-27T17:46:11.000Z</time>
      </trkpt>
      <trkpt lat="43.93655" lon="1.85191">
        <ele>930.40002441406</ele>
        <time>2019-06-27T17:46:12.000Z</time>
      </trkpt>
      <trkpt lat="43.93656" lon="1.85193">
        <ele>930.20001220703</ele>
        <time>2019-06-27T17:46:13.000Z</time>
      </trkpt>
      <trkpt lat="43.93657" lon="1.85195">
        <ele>930.20001220703</ele>
        <time>2019-06-27T17:46:14.000Z</time>
      </trkpt>
      <trkpt lat="43.93657" lon="1.85196">
        <ele>930.20001220703</ele>
        <time>2019-06-27T17:46:15.000Z</time>
      </trkpt>
      <trkpt lat="43.93657" lon="1.85195">
        <ele>930.20001220703</ele>
        <time>2019-06-27T17:46:16.000Z</time>
      </trkpt>
      <trkpt lat="43.93658" lon="1.85197">
        <ele>930.20001220703</ele>
        <time>2019-06-27T17:46:17.000Z</time>
      </trkpt>
      <trkpt lat="43.93658" lon="1.85197">
        <ele>930.20001220703</ele>
        <time>2019-06-27T17:46:18.000Z</time>
      </trkpt>
      <trkpt lat="43.93658" lon="1.85197">
        <ele>930.20001220703</ele>
        <time>2019-06-27T17:46:19.000Z</time>
      </trkpt>
      <trkpt lat="43.93658" lon="1.85197">
        <ele>930.20001220703</ele>
        <time>2019-06-27T17:46:20.000Z</time>
      </trkpt>
      <trkpt lat="43.93658" lon="1.85197">
        <ele>930.20001220703</ele>
        <time>2019-06-27T17:46:21.000Z</time>
      </trkpt>
      <trkpt lat="43.93658" lon="1.85197">
        <ele>930.20001220703</ele>
        <time>2019-06-27T17:46:22.000Z</time>
      </trkpt>
      <trkpt lat="43.93658" lon="1.85197">
        <ele>930.20001220703</ele>
        <time>2019-06-27T17:46:23.000Z</time>
      </trkpt>
      <trkpt lat="43.93658" lon="1.85197">
        <ele>930.20001220703</ele>
        <time>2019-06-27T17:46:24.000Z</time>
      </trkpt>
      <trkpt lat="43.93658" lon="1.85197">
        <ele>930.20001220703</ele>
        <time>2019-06-27T17:46:25.000Z</time>
      </trkpt>
      <trkpt lat="43.93658" lon="1.85197">
        <ele>930.20001220703</ele>
        <time>2019-06-27T17:46:26.000Z</time>
      </trkpt>
      <trkpt lat="43.93658" lon="1.85197">
        <ele>930.20001220703</ele>
        <time>2019-06-27T17:46:27.000Z</time>
      </trkpt>
      <trkpt lat="43.93658" lon="1.85197">
        <ele>930.20001220703</ele>
        <time>2019-06-27T17:46:28.000Z</time>
      </trkpt>
      <trkpt lat="43.93658" lon="1.85197">
        <ele>930.20001220703</ele>
        <time>2019-06-27T17:46:29.000Z</time>
      </trkpt>
      <trkpt lat="43.93658" lon="1.85197">
        <ele>930.20001220703</ele>
        <time>2019-06-27T17:46:30.000Z</time>
      </trkpt>
      <trkpt lat="43.93658" lon="1.85197">
        <ele>930.20001220703</ele>
        <time>2019-06-27T17:46:31.000Z</time>
      </trkpt>
      <trkpt lat="43.93658" lon="1.85197">
        <ele>930.20001220703</ele>
        <time>2019-06-27T17:46:32.000Z</time>
      </trkpt>
      <trkpt lat="43.93658" lon="1.85197">
        <ele>930.20001220703</ele>
        <time>2019-06-27T17:46:33.000Z</time>
      </trkpt>
      <trkpt lat="43.93658" lon="1.85197">
        <ele>930.20001220703</ele>
        <time>2019-06-27T17:46:34.000Z</time>
      </trkpt>
      <trkpt lat="43.93658" lon="1.85197">
        <ele>930.20001220703</ele>
        <time>2019-06-27T17:46:35.000Z</time>
      </trkpt>
      <trkpt lat="43.93658" lon="1.85197">
        <ele>930.20001220703</ele>
        <time>2019-06-27T17:46:36.000Z</time>
      </trkpt>
      <trkpt lat="43.93658" lon="1.85197">
        <ele>930.20001220703</ele>
        <time>2019-06-27T17:46:37.000Z</time>
      </trkpt>
      <trkpt lat="43.93658" lon="1.85197">
        <ele>930.20001220703</ele>
        <time>2019-06-27T17:46:38.000Z</time>
      </trkpt>
      <trkpt lat="43.93658" lon="1.85197">
        <ele>930</ele>
        <time>2019-06-27T17:46:39.000Z</time>
      </trkpt>
      <trkpt lat="43.93658" lon="1.85197">
        <ele>930</ele>
        <time>2019-06-27T17:46:40.000Z</time>
      </trkpt>
      <trkpt lat="43.93658" lon="1.85197">
        <ele>930</ele>
        <time>2019-06-27T17:46:41.000Z</time>
      </trkpt>
      <trkpt lat="43.93658" lon="1.85197">
        <ele>930.20001220703</ele>
        <time>2019-06-27T17:46:42.000Z</time>
      </trkpt>
      <trkpt lat="43.93658" lon="1.85197">
        <ele>930.20001220703</ele>
        <time>2019-06-27T17:46:43.000Z</time>
      </trkpt>
      <trkpt lat="43.93658" lon="1.85197">
        <ele>930.20001220703</ele>
        <time>2019-06-27T17:46:44.000Z</time>
      </trkpt>
      <trkpt lat="43.93658" lon="1.85197">
        <ele>930.20001220703</ele>
        <time>2019-06-27T17:46:45.000Z</time>
      </trkpt>
      <trkpt lat="43.93658" lon="1.85197">
        <ele>930.20001220703</ele>
        <time>2019-06-27T17:46:46.000Z</time>
      </trkpt>
      <trkpt lat="43.93658" lon="1.85197">
        <ele>930.20001220703</ele>
        <time>2019-06-27T17:46:47.000Z</time>
      </trkpt>
      <trkpt lat="43.93658" lon="1.85197">
        <ele>930.20001220703</ele>
        <time>2019-06-27T17:46:48.000Z</time>
      </trkpt>
      <trkpt lat="43.93658" lon="1.85197">
        <ele>930.20001220703</ele>
        <time>2019-06-27T17:46:49.000Z</time>
      </trkpt>
      <trkpt lat="43.93658" lon="1.85197">
        <ele>930.20001220703</ele>
        <time>2019-06-27T17:46:50.000Z</time>
      </trkpt>
      <trkpt lat="43.93658" lon="1.85197">
        <ele>930.20001220703</ele>
        <time>2019-06-27T17:46:51.000Z</time>
      </trkpt>
      <trkpt lat="43.93658" lon="1.85197">
        <ele>930.20001220703</ele>
        <time>2019-06-27T17:46:52.000Z</time>
      </trkpt>
      <trkpt lat="43.93658" lon="1.85197">
        <ele>930.20001220703</ele>
        <time>2019-06-27T17:46:53.000Z</time>
      </trkpt>
      <trkpt lat="43.93658" lon="1.85197">
        <ele>930.20001220703</ele>
        <time>2019-06-27T17:46:54.000Z</time>
      </trkpt>
      <trkpt lat="43.93658" lon="1.85197">
        <ele>930.20001220703</ele>
        <time>2019-06-27T17:46:55.000Z</time>
      </trkpt>
      <trkpt lat="43.93658" lon="1.85197">
        <ele>930.20001220703</ele>
        <time>2019-06-27T17:46:56.000Z</time>
      </trkpt>
      <trkpt lat="43.93658" lon="1.85197">
        <ele>930.20001220703</ele>
        <time>2019-06-27T17:46:57.000Z</time>
      </trkpt>
      <trkpt lat="43.93658" lon="1.85197">
        <ele>930</ele>
        <time>2019-06-27T17:46:58.000Z</time>
      </trkpt>
      <trkpt lat="43.93658" lon="1.85197">
        <ele>930</ele>
        <time>2019-06-27T17:46:59.000Z</time>
      </trkpt>
      <trkpt lat="43.93658" lon="1.85197">
        <ele>930</ele>
        <time>2019-06-27T17:47:00.000Z</time>
      </trkpt>
      <trkpt lat="43.93658" lon="1.85197">
        <ele>930</ele>
        <time>2019-06-27T17:47:01.000Z</time>
      </trkpt>
      <trkpt lat="43.93658" lon="1.85197">
        <ele>930.20001220703</ele>
        <time>2019-06-27T17:47:02.000Z</time>
      </trkpt>
      <trkpt lat="43.93658" lon="1.85197">
        <ele>930.20001220703</ele>
        <time>2019-06-27T17:47:03.000Z</time>
      </trkpt>
      <trkpt lat="43.93658" lon="1.85197">
        <ele>930.20001220703</ele>
        <time>2019-06-27T17:47:04.000Z</time>
      </trkpt>
      <trkpt lat="43.93658" lon="1.85197">
        <ele>930.20001220703</ele>
        <time>2019-06-27T17:47:05.000Z</time>
      </trkpt>
      <trkpt lat="43.93658" lon="1.85197">
        <ele>930.20001220703</ele>
        <time>2019-06-27T17:47:06.000Z</time>
      </trkpt>
      <trkpt lat="43.93658" lon="1.85197">
        <ele>930.20001220703</ele>
        <time>2019-06-27T17:47:07.000Z</time>
      </trkpt>
      <trkpt lat="43.93658" lon="1.85197">
        <ele>930.20001220703</ele>
        <time>2019-06-27T17:47:08.000Z</time>
      </trkpt>
      <trkpt lat="43.93658" lon="1.85197">
        <ele>930.20001220703</ele>
        <time>2019-06-27T17:47:09.000Z</time>
      </trkpt>
      <trkpt lat="43.93658" lon="1.85197">
        <ele>930.20001220703</ele>
        <time>2019-06-27T17:47:10.000Z</time>
      </trkpt>
      <trkpt lat="43.93658" lon="1.85197">
        <ele>930.20001220703</ele>
        <time>2019-06-27T17:47:11.000Z</time>
      </trkpt>
      <trkpt lat="43.93658" lon="1.85197">
        <ele>930.20001220703</ele>
        <time>2019-06-27T17:47:12.000Z</time>
      </trkpt>
      <trkpt lat="43.93658" lon="1.85197">
        <ele>930</ele>
        <time>2019-06-27T17:47:13.000Z</time>
      </trkpt>
      <trkpt lat="43.93658" lon="1.85197">
        <ele>930</ele>
        <time>2019-06-27T17:47:14.000Z</time>
      </trkpt>
      <trkpt lat="43.93658" lon="1.85197">
        <ele>930</ele>
        <time>2019-06-27T17:47:15.000Z</time>
      </trkpt>
      <trkpt lat="43.93658" lon="1.85197">
        <ele>930.20001220703</ele>
        <time>2019-06-27T17:47:16.000Z</time>
      </trkpt>
      <trkpt lat="43.93658" lon="1.85197">
        <ele>930.20001220703</ele>
        <time>2019-06-27T17:47:17.000Z</time>
      </trkpt>
      <trkpt lat="43.93658" lon="1.85197">
        <ele>930.20001220703</ele>
        <time>2019-06-27T17:47:18.000Z</time>
      </trkpt>
      <trkpt lat="43.93658" lon="1.85197">
        <ele>930.20001220703</ele>
        <time>2019-06-27T17:47:19.000Z</time>
      </trkpt>
      <trkpt lat="43.93658" lon="1.85197">
        <ele>930.20001220703</ele>
        <time>2019-06-27T17:47:20.000Z</time>
      </trkpt>
      <trkpt lat="43.93658" lon="1.85197">
        <ele>930</ele>
        <time>2019-06-27T17:47:21.000Z</time>
      </trkpt>
      <trkpt lat="43.93658" lon="1.85197">
        <ele>930.20001220703</ele>
        <time>2019-06-27T17:47:22.000Z</time>
      </trkpt>
      <trkpt lat="43.93658" lon="1.85197">
        <ele>930.20001220703</ele>
        <time>2019-06-27T17:47:23.000Z</time>
      </trkpt>
      <trkpt lat="43.93658" lon="1.85197">
        <ele>930.20001220703</ele>
        <time>2019-06-27T17:47:24.000Z</time>
      </trkpt>
      <trkpt lat="43.93658" lon="1.85197">
        <ele>930.20001220703</ele>
        <time>2019-06-27T17:47:25.000Z</time>
      </trkpt>
      <trkpt lat="43.93658" lon="1.85197">
        <ele>930.20001220703</ele>
        <time>2019-06-27T17:47:26.000Z</time>
      </trkpt>
      <trkpt lat="43.93658" lon="1.85197">
        <ele>930.20001220703</ele>
        <time>2019-06-27T17:47:27.000Z</time>
      </trkpt>
      <trkpt lat="43.93658" lon="1.85197">
        <ele>930.20001220703</ele>
        <time>2019-06-27T17:47:28.000Z</time>
      </trkpt>
      <trkpt lat="43.93658" lon="1.85197">
        <ele>930</ele>
        <time>2019-06-27T17:47:29.000Z</time>
      </trkpt>
      <trkpt lat="43.93658" lon="1.85197">
        <ele>930</ele>
        <time>2019-06-27T17:47:30.000Z</time>
      </trkpt>
      <trkpt lat="43.93658" lon="1.85197">
        <ele>930</ele>
        <time>2019-06-27T17:47:31.000Z</time>
      </trkpt>
      <trkpt lat="43.93658" lon="1.85197">
        <ele>930.20001220703</ele>
        <time>2019-06-27T17:47:32.000Z</time>
      </trkpt>
      <trkpt lat="43.93658" lon="1.85197">
        <ele>930.20001220703</ele>
        <time>2019-06-27T17:47:33.000Z</time>
      </trkpt>
      <trkpt lat="43.93658" lon="1.85197">
        <ele>930.20001220703</ele>
        <time>2019-06-27T17:47:34.000Z</time>
      </trkpt>
      <trkpt lat="43.93658" lon="1.85197">
        <ele>930.20001220703</ele>
        <time>2019-06-27T17:47:35.000Z</time>
      </trkpt>
      <trkpt lat="43.93658" lon="1.85197">
        <ele>930</ele>
        <time>2019-06-27T17:47:36.000Z</time>
      </trkpt>
      <trkpt lat="43.93658" lon="1.85198">
        <ele>930</ele>
        <time>2019-06-27T17:47:37.000Z</time>
      </trkpt>
      <trkpt lat="43.93658" lon="1.85198">
        <ele>930</ele>
        <time>2019-06-27T17:47:38.000Z</time>
      </trkpt>
      <trkpt lat="43.93658" lon="1.85198">
        <ele>930</ele>
        <time>2019-06-27T17:47:39.000Z</time>
      </trkpt>
      <trkpt lat="43.93658" lon="1.85198">
        <ele>930</ele>
        <time>2019-06-27T17:47:40.000Z</time>
      </trkpt>
      <trkpt lat="43.93658" lon="1.85198">
        <ele>930.20001220703</ele>
        <time>2019-06-27T17:47:41.000Z</time>
      </trkpt>
      <trkpt lat="43.93658" lon="1.85198">
        <ele>930.20001220703</ele>
        <time>2019-06-27T17:47:42.000Z</time>
      </trkpt>
      <trkpt lat="43.93658" lon="1.85198">
        <ele>930</ele>
        <time>2019-06-27T17:47:43.000Z</time>
      </trkpt>
      <trkpt lat="43.93658" lon="1.85198">
        <ele>930</ele>
        <time>2019-06-27T17:47:44.000Z</time>
      </trkpt>
      <trkpt lat="43.93658" lon="1.85198">
        <ele>930</ele>
        <time>2019-06-27T17:47:45.000Z</time>
      </trkpt>
      <trkpt lat="43.93658" lon="1.85198">
        <ele>930</ele>
        <time>2019-06-27T17:47:46.000Z</time>
      </trkpt>
      <trkpt lat="43.93658" lon="1.85198">
        <ele>930</ele>
        <time>2019-06-27T17:47:47.000Z</time>
      </trkpt>
      <trkpt lat="43.93658" lon="1.85198">
        <ele>930</ele>
        <time>2019-06-27T17:47:48.000Z</time>
      </trkpt>
      <trkpt lat="43.93658" lon="1.85198">
        <ele>930</ele>
        <time>2019-06-27T17:47:49.000Z</time>
      </trkpt>
      <trkpt lat="43.93658" lon="1.85198">
        <ele>930</ele>
        <time>2019-06-27T17:47:50.000Z</time>
      </trkpt>
      <trkpt lat="43.93658" lon="1.85198">
        <ele>930</ele>
        <time>2019-06-27T17:47:51.000Z</time>
      </trkpt>
      <trkpt lat="43.93658" lon="1.85198">
        <ele>930</ele>
        <time>2019-06-27T17:47:52.000Z</time>
      </trkpt>
      <trkpt lat="43.93658" lon="1.85199">
        <ele>930</ele>
        <time>2019-06-27T17:47:53.000Z</time>
      </trkpt>
      <trkpt lat="43.93659" lon="1.85201">
        <ele>930</ele>
        <time>2019-06-27T17:47:54.000Z</time>
      </trkpt>
      <trkpt lat="43.9366" lon="1.85204">
        <ele>930</ele>
        <time>2019-06-27T17:47:55.000Z</time>
      </trkpt>
      <trkpt lat="43.9366" lon="1.85207">
        <ele>930</ele>
        <time>2019-06-27T17:47:56.000Z</time>
      </trkpt>
      <trkpt lat="43.93661" lon="1.8521">
        <ele>930</ele>
        <time>2019-06-27T17:47:57.000Z</time>
      </trkpt>
      <trkpt lat="43.93662" lon="1.85211">
        <ele>930</ele>
        <time>2019-06-27T17:47:58.000Z</time>
      </trkpt>
      <trkpt lat="43.93663" lon="1.85213">
        <ele>930</ele>
        <time>2019-06-27T17:47:59.000Z</time>
      </trkpt>
      <trkpt lat="43.93664" lon="1.85215">
        <ele>930</ele>
        <time>2019-06-27T17:48:00.000Z</time>
      </trkpt>
      <trkpt lat="43.93665" lon="1.85217">
        <ele>930</ele>
        <time>2019-06-27T17:48:01.000Z</time>
      </trkpt>
      <trkpt lat="43.93665" lon="1.8522">
        <ele>930</ele>
        <time>2019-06-27T17:48:02.000Z</time>
      </trkpt>
      <trkpt lat="43.93666" lon="1.85222">
        <ele>929.79998779297</ele>
        <time>2019-06-27T17:48:03.000Z</time>
      </trkpt>
      <trkpt lat="43.93667" lon="1.85224">
        <ele>929.79998779297</ele>
        <time>2019-06-27T17:48:04.000Z</time>
      </trkpt>
      <trkpt lat="43.93668" lon="1.85226">
        <ele>929.79998779297</ele>
        <time>2019-06-27T17:48:05.000Z</time>
      </trkpt>
      <trkpt lat="43.93669" lon="1.85229">
        <ele>929.79998779297</ele>
        <time>2019-06-27T17:48:06.000Z</time>
      </trkpt>
      <trkpt lat="43.9367" lon="1.85231">
        <ele>929.59997558594</ele>
        <time>2019-06-27T17:48:07.000Z</time>
      </trkpt>
      <trkpt lat="43.93671" lon="1.85234">
        <ele>929.79998779297</ele>
        <time>2019-06-27T17:48:08.000Z</time>
      </trkpt>
      <trkpt lat="43.93672" lon="1.85237">
        <ele>929.79998779297</ele>
        <time>2019-06-27T17:48:09.000Z</time>
      </trkpt>
      <trkpt lat="43.93673" lon="1.8524">
        <ele>930</ele>
        <time>2019-06-27T17:48:10.000Z</time>
      </trkpt>
      <trkpt lat="43.93674" lon="1.85244">
        <ele>929.79998779297</ele>
        <time>2019-06-27T17:48:11.000Z</time>
      </trkpt>
      <trkpt lat="43.93676" lon="1.85247">
        <ele>929.79998779297</ele>
        <time>2019-06-27T17:48:12.000Z</time>
      </trkpt>
      <trkpt lat="43.93678" lon="1.8525">
        <ele>930</ele>
        <time>2019-06-27T17:48:13.000Z</time>
      </trkpt>
      <trkpt lat="43.9368" lon="1.85253">
        <ele>930.20001220703</ele>
        <time>2019-06-27T17:48:14.000Z</time>
      </trkpt>
      <trkpt lat="43.93682" lon="1.85256">
        <ele>930.40002441406</ele>
        <time>2019-06-27T17:48:15.000Z</time>
      </trkpt>
      <trkpt lat="43.93685" lon="1.85258">
        <ele>930.59997558594</ele>
        <time>2019-06-27T17:48:16.000Z</time>
      </trkpt>
      <trkpt lat="43.93687" lon="1.85259">
        <ele>931</ele>
        <time>2019-06-27T17:48:17.000Z</time>
      </trkpt>
      <trkpt lat="43.93689" lon="1.85262">
        <ele>931.20001220703</ele>
        <time>2019-06-27T17:48:18.000Z</time>
      </trkpt>
      <trkpt lat="43.93691" lon="1.85264">
        <ele>931.40002441406</ele>
        <time>2019-06-27T17:48:19.000Z</time>
      </trkpt>
      <trkpt lat="43.93693" lon="1.85265">
        <ele>931.40002441406</ele>
        <time>2019-06-27T17:48:20.000Z</time>
      </trkpt>
      <trkpt lat="43.93696" lon="1.85267">
        <ele>931.59997558594</ele>
        <time>2019-06-27T17:48:21.000Z</time>
      </trkpt>
      <trkpt lat="43.93698" lon="1.85268">
        <ele>931.59997558594</ele>
        <time>2019-06-27T17:48:22.000Z</time>
      </trkpt>
      <trkpt lat="43.93701" lon="1.8527">
        <ele>932</ele>
        <time>2019-06-27T17:48:23.000Z</time>
      </trkpt>
      <trkpt lat="43.93703" lon="1.85271">
        <ele>932.20001220703</ele>
        <time>2019-06-27T17:48:24.000Z</time>
      </trkpt>
      <trkpt lat="43.93705" lon="1.85271">
        <ele>932.59997558594</ele>
        <time>2019-06-27T17:48:25.000Z</time>
      </trkpt>
      <trkpt lat="43.93707" lon="1.85272">
        <ele>932.79998779297</ele>
        <time>2019-06-27T17:48:26.000Z</time>
      </trkpt>
      <trkpt lat="43.9371" lon="1.85271">
        <ele>933.20001220703</ele>
        <time>2019-06-27T17:48:27.000Z</time>
      </trkpt>
      <trkpt lat="43.93712" lon="1.8527">
        <ele>933.40002441406</ele>
        <time>2019-06-27T17:48:28.000Z</time>
      </trkpt>
      <trkpt lat="43.93713" lon="1.85269">
        <ele>933.59997558594</ele>
        <time>2019-06-27T17:48:29.000Z</time>
      </trkpt>
      <trkpt lat="43.93715" lon="1.85267">
        <ele>933.59997558594</ele>
        <time>2019-06-27T17:48:30.000Z</time>
      </trkpt>
      <trkpt lat="43.93717" lon="1.85266">
        <ele>933.79998779297</ele>
        <time>2019-06-27T17:48:31.000Z</time>
      </trkpt>
      <trkpt lat="43.93718" lon="1.85264">
        <ele>933.79998779297</ele>
        <time>2019-06-27T17:48:32.000Z</time>
      </trkpt>
      <trkpt lat="43.9372" lon="1.85263">
        <ele>933.79998779297</ele>
        <time>2019-06-27T17:48:33.000Z</time>
      </trkpt>
      <trkpt lat="43.93722" lon="1.85262">
        <ele>933.79998779297</ele>
        <time>2019-06-27T17:48:34.000Z</time>
      </trkpt>
      <trkpt lat="43.93724" lon="1.8526">
        <ele>934</ele>
        <time>2019-06-27T17:48:35.000Z</time>
      </trkpt>
      <trkpt lat="43.93726" lon="1.85258">
        <ele>934</ele>
        <time>2019-06-27T17:48:36.000Z</time>
      </trkpt>
      <trkpt lat="43.93728" lon="1.85257">
        <ele>934.20001220703</ele>
        <time>2019-06-27T17:48:37.000Z</time>
      </trkpt>
      <trkpt lat="43.9373" lon="1.85256">
        <ele>934.20001220703</ele>
        <time>2019-06-27T17:48:38.000Z</time>
      </trkpt>
      <trkpt lat="43.93732" lon="1.85255">
        <ele>934.40002441406</ele>
        <time>2019-06-27T17:48:39.000Z</time>
      </trkpt>
      <trkpt lat="43.93734" lon="1.85253">
        <ele>934.40002441406</ele>
        <time>2019-06-27T17:48:40.000Z</time>
      </trkpt>
      <trkpt lat="43.93736" lon="1.85253">
        <ele>934.59997558594</ele>
        <time>2019-06-27T17:48:41.000Z</time>
      </trkpt>
      <trkpt lat="43.93738" lon="1.85252">
        <ele>934.59997558594</ele>
        <time>2019-06-27T17:48:42.000Z</time>
      </trkpt>
      <trkpt lat="43.9374" lon="1.85251">
        <ele>934.59997558594</ele>
        <time>2019-06-27T17:48:43.000Z</time>
      </trkpt>
      <trkpt lat="43.93742" lon="1.8525">
        <ele>934.79998779297</ele>
        <time>2019-06-27T17:48:44.000Z</time>
      </trkpt>
      <trkpt lat="43.93745" lon="1.85249">
        <ele>934.79998779297</ele>
        <time>2019-06-27T17:48:45.000Z</time>
      </trkpt>
      <trkpt lat="43.93747" lon="1.85248">
        <ele>935</ele>
        <time>2019-06-27T17:48:46.000Z</time>
      </trkpt>
      <trkpt lat="43.93749" lon="1.85247">
        <ele>935</ele>
        <time>2019-06-27T17:48:47.000Z</time>
      </trkpt>
      <trkpt lat="43.93751" lon="1.85247">
        <ele>935</ele>
        <time>2019-06-27T17:48:48.000Z</time>
      </trkpt>
      <trkpt lat="43.93753" lon="1.85246">
        <ele>935</ele>
        <time>2019-06-27T17:48:49.000Z</time>
      </trkpt>
      <trkpt lat="43.93756" lon="1.85245">
        <ele>935</ele>
        <time>2019-06-27T17:48:50.000Z</time>
      </trkpt>
      <trkpt lat="43.93758" lon="1.85245">
        <ele>935</ele>
        <time>2019-06-27T17:48:51.000Z</time>
      </trkpt>
      <trkpt lat="43.9376" lon="1.85245">
        <ele>935.20001220703</ele>
        <time>2019-06-27T17:48:52.000Z</time>
      </trkpt>
      <trkpt lat="43.93762" lon="1.85244">
        <ele>935.20001220703</ele>
        <time>2019-06-27T17:48:53.000Z</time>
      </trkpt>
      <trkpt lat="43.93765" lon="1.85243">
        <ele>935.20001220703</ele>
        <time>2019-06-27T17:48:54.000Z</time>
      </trkpt>
      <trkpt lat="43.93768" lon="1.85243">
        <ele>935.40002441406</ele>
        <time>2019-06-27T17:48:55.000Z</time>
      </trkpt>
      <trkpt lat="43.93771" lon="1.85243">
        <ele>935.59997558594</ele>
        <time>2019-06-27T17:48:56.000Z</time>
      </trkpt>
      <trkpt lat="43.93774" lon="1.85242">
        <ele>935.59997558594</ele>
        <time>2019-06-27T17:48:57.000Z</time>
      </trkpt>
      <trkpt lat="43.93777" lon="1.85242">
        <ele>935.59997558594</ele>
        <time>2019-06-27T17:48:58.000Z</time>
      </trkpt>
      <trkpt lat="43.9378" lon="1.85242">
        <ele>935.59997558594</ele>
        <time>2019-06-27T17:48:59.000Z</time>
      </trkpt>
      <trkpt lat="43.93783" lon="1.85243">
        <ele>935.59997558594</ele>
        <time>2019-06-27T17:49:00.000Z</time>
      </trkpt>
      <trkpt lat="43.93786" lon="1.85243">
        <ele>935.59997558594</ele>
        <time>2019-06-27T17:49:01.000Z</time>
      </trkpt>
      <trkpt lat="43.93789" lon="1.85243">
        <ele>935.79998779297</ele>
        <time>2019-06-27T17:49:02.000Z</time>
      </trkpt>
      <trkpt lat="43.93793" lon="1.85243">
        <ele>935.79998779297</ele>
        <time>2019-06-27T17:49:03.000Z</time>
      </trkpt>
      <trkpt lat="43.93796" lon="1.85243">
        <ele>935.79998779297</ele>
        <time>2019-06-27T17:49:04.000Z</time>
      </trkpt>
      <trkpt lat="43.93799" lon="1.85244">
        <ele>935.79998779297</ele>
        <time>2019-06-27T17:49:05.000Z</time>
      </trkpt>
      <trkpt lat="43.93802" lon="1.85244">
        <ele>935.79998779297</ele>
        <time>2019-06-27T17:49:06.000Z</time>
      </trkpt>
      <trkpt lat="43.93805" lon="1.85244">
        <ele>935.79998779297</ele>
        <time>2019-06-27T17:49:07.000Z</time>
      </trkpt>
      <trkpt lat="43.93807" lon="1.85244">
        <ele>936</ele>
        <time>2019-06-27T17:49:08.000Z</time>
      </trkpt>
      <trkpt lat="43.9381" lon="1.85244">
        <ele>936</ele>
        <time>2019-06-27T17:49:09.000Z</time>
      </trkpt>
      <trkpt lat="43.93813" lon="1.85244">
        <ele>936</ele>
        <time>2019-06-27T17:49:10.000Z</time>
      </trkpt>
      <trkpt lat="43.93816" lon="1.85244">
        <ele>936.20001220703</ele>
        <time>2019-06-27T17:49:11.000Z</time>
      </trkpt>
      <trkpt lat="43.93819" lon="1.85244">
        <ele>936.20001220703</ele>
        <time>2019-06-27T17:49:12.000Z</time>
      </trkpt>
      <trkpt lat="43.93822" lon="1.85244">
        <ele>936.59997558594</ele>
        <time>2019-06-27T17:49:13.000Z</time>
      </trkpt>
      <trkpt lat="43.93825" lon="1.85244">
        <ele>936.59997558594</ele>
        <time>2019-06-27T17:49:14.000Z</time>
      </trkpt>
      <trkpt lat="43.93828" lon="1.85244">
        <ele>936.59997558594</ele>
        <time>2019-06-27T17:49:15.000Z</time>
      </trkpt>
      <trkpt lat="43.93831" lon="1.85244">
        <ele>936.79998779297</ele>
        <time>2019-06-27T17:49:16.000Z</time>
      </trkpt>
      <trkpt lat="43.93835" lon="1.85243">
        <ele>937</ele>
        <time>2019-06-27T17:49:17.000Z</time>
      </trkpt>
      <trkpt lat="43.93838" lon="1.85244">
        <ele>937.20001220703</ele>
        <time>2019-06-27T17:49:18.000Z</time>
      </trkpt>
      <trkpt lat="43.9384" lon="1.85245">
        <ele>937.40002441406</ele>
        <time>2019-06-27T17:49:19.000Z</time>
      </trkpt>
      <trkpt lat="43.93843" lon="1.85246">
        <ele>937.40002441406</ele>
        <time>2019-06-27T17:49:20.000Z</time>
      </trkpt>
      <trkpt lat="43.93846" lon="1.85247">
        <ele>937.40002441406</ele>
        <time>2019-06-27T17:49:21.000Z</time>
      </trkpt>
      <trkpt lat="43.93849" lon="1.85247">
        <ele>937.40002441406</ele>
        <time>2019-06-27T17:49:22.000Z</time>
      </trkpt>
      <trkpt lat="43.93852" lon="1.85248">
        <ele>937.40002441406</ele>
        <time>2019-06-27T17:49:23.000Z</time>
      </trkpt>
      <trkpt lat="43.93856" lon="1.85248">
        <ele>937.59997558594</ele>
        <time>2019-06-27T17:49:24.000Z</time>
      </trkpt>
      <trkpt lat="43.93859" lon="1.85249">
        <ele>937.59997558594</ele>
        <time>2019-06-27T17:49:25.000Z</time>
      </trkpt>
      <trkpt lat="43.93862" lon="1.85249">
        <ele>937.79998779297</ele>
        <time>2019-06-27T17:49:26.000Z</time>
      </trkpt>
      <trkpt lat="43.93865" lon="1.85248">
        <ele>938</ele>
        <time>2019-06-27T17:49:27.000Z</time>
      </trkpt>
      <trkpt lat="43.93868" lon="1.85248">
        <ele>937.79998779297</ele>
        <time>2019-06-27T17:49:28.000Z</time>
      </trkpt>
      <trkpt lat="43.93872" lon="1.85247">
        <ele>938</ele>
        <time>2019-06-27T17:49:29.000Z</time>
      </trkpt>
      <trkpt lat="43.93874" lon="1.85245">
        <ele>937.79998779297</ele>
        <time>2019-06-27T17:49:30.000Z</time>
      </trkpt>
      <trkpt lat="43.93877" lon="1.85244">
        <ele>938</ele>
        <time>2019-06-27T17:49:31.000Z</time>
      </trkpt>
      <trkpt lat="43.93879" lon="1.85242">
        <ele>938.20001220703</ele>
        <time>2019-06-27T17:49:32.000Z</time>
      </trkpt>
      <trkpt lat="43.93882" lon="1.8524">
        <ele>938.40002441406</ele>
        <time>2019-06-27T17:49:33.000Z</time>
      </trkpt>
      <trkpt lat="43.93885" lon="1.85238">
        <ele>938.59997558594</ele>
        <time>2019-06-27T17:49:34.000Z</time>
      </trkpt>
      <trkpt lat="43.93887" lon="1.85236">
        <ele>939</ele>
        <time>2019-06-27T17:49:35.000Z</time>
      </trkpt>
      <trkpt lat="43.93889" lon="1.85233">
        <ele>939</ele>
        <time>2019-06-27T17:49:36.000Z</time>
      </trkpt>
      <trkpt lat="43.93892" lon="1.85231">
        <ele>939.40002441406</ele>
        <time>2019-06-27T17:49:37.000Z</time>
      </trkpt>
      <trkpt lat="43.93894" lon="1.85229">
        <ele>939.40002441406</ele>
        <time>2019-06-27T17:49:38.000Z</time>
      </trkpt>
      <trkpt lat="43.93897" lon="1.85227">
        <ele>939.59997558594</ele>
        <time>2019-06-27T17:49:39.000Z</time>
      </trkpt>
      <trkpt lat="43.93899" lon="1.85224">
        <ele>939.59997558594</ele>
        <time>2019-06-27T17:49:40.000Z</time>
      </trkpt>
      <trkpt lat="43.93901" lon="1.85222">
        <ele>939.79998779297</ele>
        <time>2019-06-27T17:49:41.000Z</time>
      </trkpt>
      <trkpt lat="43.93904" lon="1.8522">
        <ele>939.79998779297</ele>
        <time>2019-06-27T17:49:42.000Z</time>
      </trkpt>
      <trkpt lat="43.93907" lon="1.85218">
        <ele>939.79998779297</ele>
        <time>2019-06-27T17:49:43.000Z</time>
      </trkpt>
      <trkpt lat="43.93909" lon="1.85217">
        <ele>939.79998779297</ele>
        <time>2019-06-27T17:49:44.000Z</time>
      </trkpt>
      <trkpt lat="43.93912" lon="1.85215">
        <ele>939.59997558594</ele>
        <time>2019-06-27T17:49:45.000Z</time>
      </trkpt>
      <trkpt lat="43.93915" lon="1.85214">
        <ele>939.59997558594</ele>
        <time>2019-06-27T17:49:46.000Z</time>
      </trkpt>
      <trkpt lat="43.93917" lon="1.85212">
        <ele>939.59997558594</ele>
        <time>2019-06-27T17:49:47.000Z</time>
      </trkpt>
      <trkpt lat="43.9392" lon="1.85211">
        <ele>939.59997558594</ele>
        <time>2019-06-27T17:49:48.000Z</time>
      </trkpt>
      <trkpt lat="43.93923" lon="1.8521">
        <ele>939.59997558594</ele>
        <time>2019-06-27T17:49:49.000Z</time>
      </trkpt>
      <trkpt lat="43.93926" lon="1.8521">
        <ele>939.79998779297</ele>
        <time>2019-06-27T17:49:50.000Z</time>
      </trkpt>
      <trkpt lat="43.93929" lon="1.8521">
        <ele>939.79998779297</ele>
        <time>2019-06-27T17:49:51.000Z</time>
      </trkpt>
      <trkpt lat="43.93933" lon="1.85209">
        <ele>939.79998779297</ele>
        <time>2019-06-27T17:49:52.000Z</time>
      </trkpt>
      <trkpt lat="43.93936" lon="1.85209">
        <ele>939.79998779297</ele>
        <time>2019-06-27T17:49:53.000Z</time>
      </trkpt>
      <trkpt lat="43.93939" lon="1.85209">
        <ele>939.79998779297</ele>
        <time>2019-06-27T17:49:54.000Z</time>
      </trkpt>
      <trkpt lat="43.93943" lon="1.85209">
        <ele>939.79998779297</ele>
        <time>2019-06-27T17:49:55.000Z</time>
      </trkpt>
      <trkpt lat="43.93946" lon="1.85209">
        <ele>940</ele>
        <time>2019-06-27T17:49:56.000Z</time>
      </trkpt>
      <trkpt lat="43.9395" lon="1.85209">
        <ele>940</ele>
        <time>2019-06-27T17:49:57.000Z</time>
      </trkpt>
      <trkpt lat="43.93954" lon="1.85208">
        <ele>940</ele>
        <time>2019-06-27T17:49:58.000Z</time>
      </trkpt>
      <trkpt lat="43.93958" lon="1.85208">
        <ele>940</ele>
        <time>2019-06-27T17:49:59.000Z</time>
      </trkpt>
      <trkpt lat="43.93961" lon="1.85208">
        <ele>940</ele>
        <time>2019-06-27T17:50:00.000Z</time>
      </trkpt>
      <trkpt lat="43.93965" lon="1.85207">
        <ele>940</ele>
        <time>2019-06-27T17:50:01.000Z</time>
      </trkpt>
      <trkpt lat="43.93968" lon="1.85207">
        <ele>940</ele>
        <time>2019-06-27T17:50:02.000Z</time>
      </trkpt>
      <trkpt lat="43.93971" lon="1.85207">
        <ele>940</ele>
        <time>2019-06-27T17:50:03.000Z</time>
      </trkpt>
      <trkpt lat="43.93974" lon="1.85206">
        <ele>939.79998779297</ele>
        <time>2019-06-27T17:50:04.000Z</time>
      </trkpt>
      <trkpt lat="43.93977" lon="1.85205">
        <ele>939.79998779297</ele>
        <time>2019-06-27T17:50:05.000Z</time>
      </trkpt>
      <trkpt lat="43.9398" lon="1.85204">
        <ele>940.20001220703</ele>
        <time>2019-06-27T17:50:06.000Z</time>
      </trkpt>
      <trkpt lat="43.93983" lon="1.85203">
        <ele>940.40002441406</ele>
        <time>2019-06-27T17:50:07.000Z</time>
      </trkpt>
      <trkpt lat="43.93985" lon="1.85202">
        <ele>940.79998779297</ele>
        <time>2019-06-27T17:50:08.000Z</time>
      </trkpt>
      <trkpt lat="43.93988" lon="1.85201">
        <ele>940.79998779297</ele>
        <time>2019-06-27T17:50:09.000Z</time>
      </trkpt>
      <trkpt lat="43.93991" lon="1.852">
        <ele>941</ele>
        <time>2019-06-27T17:50:10.000Z</time>
      </trkpt>
      <trkpt lat="43.93993" lon="1.85199">
        <ele>941.20001220703</ele>
        <time>2019-06-27T17:50:11.000Z</time>
      </trkpt>
      <trkpt lat="43.93996" lon="1.85198">
        <ele>941.20001220703</ele>
        <time>2019-06-27T17:50:12.000Z</time>
      </trkpt>
      <trkpt lat="43.93999" lon="1.85197">
        <ele>941.20001220703</ele>
        <time>2019-06-27T17:50:13.000Z</time>
      </trkpt>
      <trkpt lat="43.94002" lon="1.85196">
        <ele>941.20001220703</ele>
        <time>2019-06-27T17:50:14.000Z</time>
      </trkpt>
      <trkpt lat="43.94004" lon="1.85195">
        <ele>941.40002441406</ele>
        <time>2019-06-27T17:50:15.000Z</time>
      </trkpt>
      <trkpt lat="43.94007" lon="1.85193">
        <ele>941.40002441406</ele>
        <time>2019-06-27T17:50:16.000Z</time>
      </trkpt>
      <trkpt lat="43.94009" lon="1.85192">
        <ele>941.59997558594</ele>
        <time>2019-06-27T17:50:17.000Z</time>
      </trkpt>
      <trkpt lat="43.94012" lon="1.85191">
        <ele>941.59997558594</ele>
        <time>2019-06-27T17:50:18.000Z</time>
      </trkpt>
      <trkpt lat="43.94015" lon="1.8519">
        <ele>941.59997558594</ele>
        <time>2019-06-27T17:50:19.000Z</time>
      </trkpt>
      <trkpt lat="43.94017" lon="1.85189">
        <ele>941.79998779297</ele>
        <time>2019-06-27T17:50:20.000Z</time>
      </trkpt>
      <trkpt lat="43.94019" lon="1.85188">
        <ele>941.79998779297</ele>
        <time>2019-06-27T17:50:21.000Z</time>
      </trkpt>
      <trkpt lat="43.94021" lon="1.85188">
        <ele>942</ele>
        <time>2019-06-27T17:50:22.000Z</time>
      </trkpt>
      <trkpt lat="43.94023" lon="1.85188">
        <ele>942</ele>
        <time>2019-06-27T17:50:23.000Z</time>
      </trkpt>
      <trkpt lat="43.94025" lon="1.85188">
        <ele>942.20001220703</ele>
        <time>2019-06-27T17:50:24.000Z</time>
      </trkpt>
      <trkpt lat="43.94026" lon="1.85188">
        <ele>942.40002441406</ele>
        <time>2019-06-27T17:50:25.000Z</time>
      </trkpt>
      <trkpt lat="43.94028" lon="1.85188">
        <ele>942.59997558594</ele>
        <time>2019-06-27T17:50:26.000Z</time>
      </trkpt>
      <trkpt lat="43.9403" lon="1.85188">
        <ele>943</ele>
        <time>2019-06-27T17:50:27.000Z</time>
      </trkpt>
      <trkpt lat="43.94031" lon="1.85188">
        <ele>943</ele>
        <time>2019-06-27T17:50:28.000Z</time>
      </trkpt>
      <trkpt lat="43.94033" lon="1.85188">
        <ele>943.20001220703</ele>
        <time>2019-06-27T17:50:29.000Z</time>
      </trkpt>
      <trkpt lat="43.94034" lon="1.85188">
        <ele>943.20001220703</ele>
        <time>2019-06-27T17:50:30.000Z</time>
      </trkpt>
      <trkpt lat="43.94035" lon="1.85187">
        <ele>943.40002441406</ele>
        <time>2019-06-27T17:50:31.000Z</time>
      </trkpt>
      <trkpt lat="43.94037" lon="1.85187">
        <ele>943.79998779297</ele>
        <time>2019-06-27T17:50:32.000Z</time>
      </trkpt>
      <trkpt lat="43.94038" lon="1.85186">
        <ele>944</ele>
        <time>2019-06-27T17:50:33.000Z</time>
      </trkpt>
      <trkpt lat="43.94039" lon="1.85186">
        <ele>944.20001220703</ele>
        <time>2019-06-27T17:50:34.000Z</time>
      </trkpt>
      <trkpt lat="43.9404" lon="1.85186">
        <ele>944.40002441406</ele>
        <time>2019-06-27T17:50:35.000Z</time>
      </trkpt>
      <trkpt lat="43.94043" lon="1.85185">
        <ele>944.59997558594</ele>
        <time>2019-06-27T17:50:36.000Z</time>
      </trkpt>
      <trkpt lat="43.94044" lon="1.85185">
        <ele>944.79998779297</ele>
        <time>2019-06-27T17:50:37.000Z</time>
      </trkpt>
      <trkpt lat="43.94046" lon="1.85185">
        <ele>945</ele>
        <time>2019-06-27T17:50:38.000Z</time>
      </trkpt>
      <trkpt lat="43.94047" lon="1.85184">
        <ele>945</ele>
        <time>2019-06-27T17:50:39.000Z</time>
      </trkpt>
      <trkpt lat="43.94048" lon="1.85184">
        <ele>945.20001220703</ele>
        <time>2019-06-27T17:50:40.000Z</time>
      </trkpt>
      <trkpt lat="43.9405" lon="1.85184">
        <ele>945.40002441406</ele>
        <time>2019-06-27T17:50:41.000Z</time>
      </trkpt>
      <trkpt lat="43.94052" lon="1.85183">
        <ele>945.79998779297</ele>
        <time>2019-06-27T17:50:42.000Z</time>
      </trkpt>
      <trkpt lat="43.94053" lon="1.85183">
        <ele>946</ele>
        <time>2019-06-27T17:50:43.000Z</time>
      </trkpt>
      <trkpt lat="43.94055" lon="1.85182">
        <ele>946.20001220703</ele>
        <time>2019-06-27T17:50:44.000Z</time>
      </trkpt>
      <trkpt lat="43.94057" lon="1.85182">
        <ele>946.40002441406</ele>
        <time>2019-06-27T17:50:45.000Z</time>
      </trkpt>
      <trkpt lat="43.94059" lon="1.85182">
        <ele>946.40002441406</ele>
        <time>2019-06-27T17:50:46.000Z</time>
      </trkpt>
      <trkpt lat="43.94061" lon="1.85182">
        <ele>946.59997558594</ele>
        <time>2019-06-27T17:50:47.000Z</time>
      </trkpt>
      <trkpt lat="43.94063" lon="1.85182">
        <ele>946.79998779297</ele>
        <time>2019-06-27T17:50:48.000Z</time>
      </trkpt>
      <trkpt lat="43.94064" lon="1.85182">
        <ele>947.20001220703</ele>
        <time>2019-06-27T17:50:49.000Z</time>
      </trkpt>
      <trkpt lat="43.94066" lon="1.85181">
        <ele>947.59997558594</ele>
        <time>2019-06-27T17:50:50.000Z</time>
      </trkpt>
      <trkpt lat="43.94068" lon="1.85181">
        <ele>947.79998779297</ele>
        <time>2019-06-27T17:50:51.000Z</time>
      </trkpt>
      <trkpt lat="43.94069" lon="1.8518">
        <ele>948</ele>
        <time>2019-06-27T17:50:52.000Z</time>
      </trkpt>
      <trkpt lat="43.94071" lon="1.8518">
        <ele>948.20001220703</ele>
        <time>2019-06-27T17:50:53.000Z</time>
      </trkpt>
      <trkpt lat="43.94072" lon="1.85179">
        <ele>948.40002441406</ele>
        <time>2019-06-27T17:50:54.000Z</time>
      </trkpt>
      <trkpt lat="43.94073" lon="1.85179">
        <ele>948.59997558594</ele>
        <time>2019-06-27T17:50:55.000Z</time>
      </trkpt>
      <trkpt lat="43.94074" lon="1.85179">
        <ele>949.20001220703</ele>
        <time>2019-06-27T17:50:56.000Z</time>
      </trkpt>
      <trkpt lat="43.94076" lon="1.85179">
        <ele>949.40002441406</ele>
        <time>2019-06-27T17:50:57.000Z</time>
      </trkpt>
      <trkpt lat="43.94077" lon="1.85179">
        <ele>949.79998779297</ele>
        <time>2019-06-27T17:50:58.000Z</time>
      </trkpt>
      <trkpt lat="43.94078" lon="1.85178">
        <ele>950</ele>
        <time>2019-06-27T17:50:59.000Z</time>
      </trkpt>
      <trkpt lat="43.94079" lon="1.85177">
        <ele>950.20001220703</ele>
        <time>2019-06-27T17:51:00.000Z</time>
      </trkpt>
      <trkpt lat="43.94081" lon="1.85176">
        <ele>950.40002441406</ele>
        <time>2019-06-27T17:51:01.000Z</time>
      </trkpt>
      <trkpt lat="43.94083" lon="1.85176">
        <ele>950.59997558594</ele>
        <time>2019-06-27T17:51:02.000Z</time>
      </trkpt>
      <trkpt lat="43.94084" lon="1.85176">
        <ele>951</ele>
        <time>2019-06-27T17:51:03.000Z</time>
      </trkpt>
      <trkpt lat="43.94085" lon="1.85175">
        <ele>951.20001220703</ele>
        <time>2019-06-27T17:51:04.000Z</time>
      </trkpt>
      <trkpt lat="43.94087" lon="1.85175">
        <ele>951.40002441406</ele>
        <time>2019-06-27T17:51:05.000Z</time>
      </trkpt>
      <trkpt lat="43.94088" lon="1.85174">
        <ele>951.59997558594</ele>
        <time>2019-06-27T17:51:06.000Z</time>
      </trkpt>
      <trkpt lat="43.94089" lon="1.85173">
        <ele>951.79998779297</ele>
        <time>2019-06-27T17:51:07.000Z</time>
      </trkpt>
      <trkpt lat="43.9409" lon="1.85172">
        <ele>952</ele>
        <time>2019-06-27T17:51:08.000Z</time>
      </trkpt>
      <trkpt lat="43.9409" lon="1.85172">
        <ele>952.20001220703</ele>
        <time>2019-06-27T17:51:09.000Z</time>
      </trkpt>
      <trkpt lat="43.94092" lon="1.85171">
        <ele>952.20001220703</ele>
        <time>2019-06-27T17:51:10.000Z</time>
      </trkpt>
      <trkpt lat="43.94094" lon="1.85171">
        <ele>952.40002441406</ele>
        <time>2019-06-27T17:51:11.000Z</time>
      </trkpt>
      <trkpt lat="43.94095" lon="1.85171">
        <ele>952.40002441406</ele>
        <time>2019-06-27T17:51:12.000Z</time>
      </trkpt>
      <trkpt lat="43.94096" lon="1.85171">
        <ele>952.40002441406</ele>
        <time>2019-06-27T17:51:13.000Z</time>
      </trkpt>
      <trkpt lat="43.94097" lon="1.85171">
        <ele>952.40002441406</ele>
        <time>2019-06-27T17:51:14.000Z</time>
      </trkpt>
      <trkpt lat="43.94098" lon="1.85171">
        <ele>952.40002441406</ele>
        <time>2019-06-27T17:51:15.000Z</time>
      </trkpt>
      <trkpt lat="43.941" lon="1.85171">
        <ele>952.40002441406</ele>
        <time>2019-06-27T17:51:16.000Z</time>
      </trkpt>
      <trkpt lat="43.94103" lon="1.85172">
        <ele>952.40002441406</ele>
        <time>2019-06-27T17:51:17.000Z</time>
      </trkpt>
      <trkpt lat="43.94106" lon="1.85172">
        <ele>952.40002441406</ele>
        <time>2019-06-27T17:51:18.000Z</time>
      </trkpt>
      <trkpt lat="43.94109" lon="1.85172">
        <ele>952.40002441406</ele>
        <time>2019-06-27T17:51:19.000Z</time>
      </trkpt>
      <trkpt lat="43.94111" lon="1.85172">
        <ele>952.59997558594</ele>
        <time>2019-06-27T17:51:20.000Z</time>
      </trkpt>
      <trkpt lat="43.94113" lon="1.85172">
        <ele>952.59997558594</ele>
        <time>2019-06-27T17:51:21.000Z</time>
      </trkpt>
      <trkpt lat="43.94115" lon="1.85171">
        <ele>952.59997558594</ele>
        <time>2019-06-27T17:51:22.000Z</time>
      </trkpt>
      <trkpt lat="43.94118" lon="1.85171">
        <ele>952.59997558594</ele>
        <time>2019-06-27T17:51:23.000Z</time>
      </trkpt>
      <trkpt lat="43.94119" lon="1.85171">
        <ele>952.59997558594</ele>
        <time>2019-06-27T17:51:24.000Z</time>
      </trkpt>
      <trkpt lat="43.94121" lon="1.8517">
        <ele>952.59997558594</ele>
        <time>2019-06-27T17:51:25.000Z</time>
      </trkpt>
      <trkpt lat="43.94123" lon="1.8517">
        <ele>952.40002441406</ele>
        <time>2019-06-27T17:51:26.000Z</time>
      </trkpt>
      <trkpt lat="43.94126" lon="1.85168">
        <ele>952.59997558594</ele>
        <time>2019-06-27T17:51:27.000Z</time>
      </trkpt>
      <trkpt lat="43.94128" lon="1.85167">
        <ele>952.59997558594</ele>
        <time>2019-06-27T17:51:28.000Z</time>
      </trkpt>
      <trkpt lat="43.9413" lon="1.85166">
        <ele>952.59997558594</ele>
        <time>2019-06-27T17:51:29.000Z</time>
      </trkpt>
      <trkpt lat="43.94132" lon="1.85164">
        <ele>952.59997558594</ele>
        <time>2019-06-27T17:51:30.000Z</time>
      </trkpt>
      <trkpt lat="43.94134" lon="1.85162">
        <ele>952.59997558594</ele>
        <time>2019-06-27T17:51:31.000Z</time>
      </trkpt>
      <trkpt lat="43.94137" lon="1.8516">
        <ele>952.59997558594</ele>
        <time>2019-06-27T17:51:32.000Z</time>
      </trkpt>
      <trkpt lat="43.94138" lon="1.85159">
        <ele>952.59997558594</ele>
        <time>2019-06-27T17:51:33.000Z</time>
      </trkpt>
      <trkpt lat="43.9414" lon="1.85158">
        <ele>952.40002441406</ele>
        <time>2019-06-27T17:51:34.000Z</time>
      </trkpt>
      <trkpt lat="43.94142" lon="1.85156">
        <ele>952.20001220703</ele>
        <time>2019-06-27T17:51:35.000Z</time>
      </trkpt>
      <trkpt lat="43.94143" lon="1.85153">
        <ele>952</ele>
        <time>2019-06-27T17:51:36.000Z</time>
      </trkpt>
      <trkpt lat="43.94143" lon="1.85151">
        <ele>952</ele>
        <time>2019-06-27T17:51:37.000Z</time>
      </trkpt>
      <trkpt lat="43.94142" lon="1.85149">
        <ele>951.79998779297</ele>
        <time>2019-06-27T17:51:38.000Z</time>
      </trkpt>
      <trkpt lat="43.9414" lon="1.85149">
        <ele>951.79998779297</ele>
        <time>2019-06-27T17:51:39.000Z</time>
      </trkpt>
      <trkpt lat="43.9414" lon="1.8515">
        <ele>951.79998779297</ele>
        <time>2019-06-27T17:51:40.000Z</time>
      </trkpt>
      <trkpt lat="43.9414" lon="1.85152">
        <ele>951.79998779297</ele>
        <time>2019-06-27T17:51:41.000Z</time>
      </trkpt>
      <trkpt lat="43.9414" lon="1.85153">
        <ele>952</ele>
        <time>2019-06-27T17:51:42.000Z</time>
      </trkpt>
      <trkpt lat="43.9414" lon="1.85155">
        <ele>952</ele>
        <time>2019-06-27T17:51:43.000Z</time>
      </trkpt>
      <trkpt lat="43.94139" lon="1.85157">
        <ele>952</ele>
        <time>2019-06-27T17:51:44.000Z</time>
      </trkpt>
      <trkpt lat="43.94138" lon="1.85158">
        <ele>952.20001220703</ele>
        <time>2019-06-27T17:51:45.000Z</time>
      </trkpt>
      <trkpt lat="43.94138" lon="1.85159">
        <ele>952.20001220703</ele>
        <time>2019-06-27T17:51:46.000Z</time>
      </trkpt>
      <trkpt lat="43.94138" lon="1.8516">
        <ele>952</ele>
        <time>2019-06-27T17:51:47.000Z</time>
      </trkpt>
      <trkpt lat="43.94137" lon="1.85161">
        <ele>952</ele>
        <time>2019-06-27T17:51:48.000Z</time>
      </trkpt>
      <trkpt lat="43.94136" lon="1.85162">
        <ele>952</ele>
        <time>2019-06-27T17:51:49.000Z</time>
      </trkpt>
      <trkpt lat="43.94135" lon="1.85162">
        <ele>952.20001220703</ele>
        <time>2019-06-27T17:51:50.000Z</time>
      </trkpt>
      <trkpt lat="43.94134" lon="1.85163">
        <ele>952.20001220703</ele>
        <time>2019-06-27T17:51:51.000Z</time>
      </trkpt>
      <trkpt lat="43.94133" lon="1.85164">
        <ele>952.20001220703</ele>
        <time>2019-06-27T17:51:52.000Z</time>
      </trkpt>
      <trkpt lat="43.94132" lon="1.85164">
        <ele>952.20001220703</ele>
        <time>2019-06-27T17:51:53.000Z</time>
      </trkpt>
      <trkpt lat="43.94131" lon="1.85165">
        <ele>952.20001220703</ele>
        <time>2019-06-27T17:51:54.000Z</time>
      </trkpt>
      <trkpt lat="43.94129" lon="1.85166">
        <ele>952.20001220703</ele>
        <time>2019-06-27T17:51:55.000Z</time>
      </trkpt>
      <trkpt lat="43.94128" lon="1.85166">
        <ele>952.20001220703</ele>
        <time>2019-06-27T17:51:56.000Z</time>
      </trkpt>
      <trkpt lat="43.94127" lon="1.85167">
        <ele>952.40002441406</ele>
        <time>2019-06-27T17:51:57.000Z</time>
      </trkpt>
      <trkpt lat="43.94126" lon="1.85167">
        <ele>952.40002441406</ele>
        <time>2019-06-27T17:51:58.000Z</time>
      </trkpt>
      <trkpt lat="43.94125" lon="1.85167">
        <ele>952.40002441406</ele>
        <time>2019-06-27T17:51:59.000Z</time>
      </trkpt>
      <trkpt lat="43.94123" lon="1.85168">
        <ele>952.40002441406</ele>
        <time>2019-06-27T17:52:00.000Z</time>
      </trkpt>
      <trkpt lat="43.94122" lon="1.85168">
        <ele>952.40002441406</ele>
        <time>2019-06-27T17:52:01.000Z</time>
      </trkpt>
      <trkpt lat="43.94121" lon="1.85169">
        <ele>952.59997558594</ele>
        <time>2019-06-27T17:52:02.000Z</time>
      </trkpt>
      <trkpt lat="43.9412" lon="1.85169">
        <ele>952.59997558594</ele>
        <time>2019-06-27T17:52:03.000Z</time>
      </trkpt>
      <trkpt lat="43.94118" lon="1.85169">
        <ele>952.59997558594</ele>
        <time>2019-06-27T17:52:04.000Z</time>
      </trkpt>
      <trkpt lat="43.94117" lon="1.85169">
        <ele>952.59997558594</ele>
        <time>2019-06-27T17:52:05.000Z</time>
      </trkpt>
      <trkpt lat="43.94116" lon="1.8517">
        <ele>952.40002441406</ele>
        <time>2019-06-27T17:52:06.000Z</time>
      </trkpt>
      <trkpt lat="43.94115" lon="1.8517">
        <ele>952.40002441406</ele>
        <time>2019-06-27T17:52:07.000Z</time>
      </trkpt>
      <trkpt lat="43.94114" lon="1.8517">
        <ele>952.59997558594</ele>
        <time>2019-06-27T17:52:08.000Z</time>
      </trkpt>
      <trkpt lat="43.94113" lon="1.8517">
        <ele>952.59997558594</ele>
        <time>2019-06-27T17:52:09.000Z</time>
      </trkpt>
      <trkpt lat="43.94112" lon="1.85171">
        <ele>952.59997558594</ele>
        <time>2019-06-27T17:52:10.000Z</time>
      </trkpt>
      <trkpt lat="43.94111" lon="1.85172">
        <ele>952.40002441406</ele>
        <time>2019-06-27T17:52:11.000Z</time>
      </trkpt>
      <trkpt lat="43.94111" lon="1.85174">
        <ele>952.40002441406</ele>
        <time>2019-06-27T17:52:12.000Z</time>
      </trkpt>
      <trkpt lat="43.94112" lon="1.85176">
        <ele>952.40002441406</ele>
        <time>2019-06-27T17:52:13.000Z</time>
      </trkpt>
      <trkpt lat="43.94114" lon="1.85177">
        <ele>952.40002441406</ele>
        <time>2019-06-27T17:52:14.000Z</time>
      </trkpt>
      <trkpt lat="43.94115" lon="1.85176">
        <ele>952.40002441406</ele>
        <time>2019-06-27T17:52:15.000Z</time>
      </trkpt>
      <trkpt lat="43.94117" lon="1.85174">
        <ele>952.40002441406</ele>
        <time>2019-06-27T17:52:16.000Z</time>
      </trkpt>
      <trkpt lat="43.94118" lon="1.85173">
        <ele>952.40002441406</ele>
        <time>2019-06-27T17:52:17.000Z</time>
      </trkpt>
      <trkpt lat="43.94119" lon="1.85172">
        <ele>952.40002441406</ele>
        <time>2019-06-27T17:52:18.000Z</time>
      </trkpt>
      <trkpt lat="43.9412" lon="1.85171">
        <ele>952.40002441406</ele>
        <time>2019-06-27T17:52:19.000Z</time>
      </trkpt>
      <trkpt lat="43.94122" lon="1.85169">
        <ele>952.59997558594</ele>
        <time>2019-06-27T17:52:20.000Z</time>
      </trkpt>
      <trkpt lat="43.94123" lon="1.85168">
        <ele>952.40002441406</ele>
        <time>2019-06-27T17:52:21.000Z</time>
      </trkpt>
      <trkpt lat="43.94124" lon="1.85167">
        <ele>952.59997558594</ele>
        <time>2019-06-27T17:52:22.000Z</time>
      </trkpt>
      <trkpt lat="43.94125" lon="1.85166">
        <ele>952.59997558594</ele>
        <time>2019-06-27T17:52:23.000Z</time>
      </trkpt>
      <trkpt lat="43.94126" lon="1.85166">
        <ele>952.59997558594</ele>
        <time>2019-06-27T17:52:24.000Z</time>
      </trkpt>
      <trkpt lat="43.94128" lon="1.85164">
        <ele>952.59997558594</ele>
        <time>2019-06-27T17:52:25.000Z</time>
      </trkpt>
      <trkpt lat="43.9413" lon="1.85163">
        <ele>952.40002441406</ele>
        <time>2019-06-27T17:52:26.000Z</time>
      </trkpt>
      <trkpt lat="43.94131" lon="1.85162">
        <ele>952.40002441406</ele>
        <time>2019-06-27T17:52:27.000Z</time>
      </trkpt>
      <trkpt lat="43.94132" lon="1.8516">
        <ele>952.40002441406</ele>
        <time>2019-06-27T17:52:28.000Z</time>
      </trkpt>
      <trkpt lat="43.94134" lon="1.85158">
        <ele>952.40002441406</ele>
        <time>2019-06-27T17:52:29.000Z</time>
      </trkpt>
      <trkpt lat="43.94134" lon="1.85156">
        <ele>952.40002441406</ele>
        <time>2019-06-27T17:52:30.000Z</time>
      </trkpt>
      <trkpt lat="43.94134" lon="1.85154">
        <ele>952.40002441406</ele>
        <time>2019-06-27T17:52:31.000Z</time>
      </trkpt>
      <trkpt lat="43.94134" lon="1.85152">
        <ele>952.40002441406</ele>
        <time>2019-06-27T17:52:32.000Z</time>
      </trkpt>
      <trkpt lat="43.94133" lon="1.85151">
        <ele>952.40002441406</ele>
        <time>2019-06-27T17:52:33.000Z</time>
      </trkpt>
      <trkpt lat="43.94132" lon="1.85149">
        <ele>952.40002441406</ele>
        <time>2019-06-27T17:52:34.000Z</time>
      </trkpt>
      <trkpt lat="43.94131" lon="1.85148">
        <ele>952.59997558594</ele>
        <time>2019-06-27T17:52:35.000Z</time>
      </trkpt>
      <trkpt lat="43.94129" lon="1.85146">
        <ele>952.79998779297</ele>
        <time>2019-06-27T17:52:36.000Z</time>
      </trkpt>
      <trkpt lat="43.94128" lon="1.85144">
        <ele>953</ele>
        <time>2019-06-27T17:52:37.000Z</time>
      </trkpt>
      <trkpt lat="43.94127" lon="1.85142">
        <ele>953.20001220703</ele>
        <time>2019-06-27T17:52:38.000Z</time>
      </trkpt>
      <trkpt lat="43.94125" lon="1.8514">
        <ele>953.20001220703</ele>
        <time>2019-06-27T17:52:39.000Z</time>
      </trkpt>
      <trkpt lat="43.94124" lon="1.85139">
        <ele>953.40002441406</ele>
        <time>2019-06-27T17:52:40.000Z</time>
      </trkpt>
      <trkpt lat="43.94123" lon="1.85137">
        <ele>953.59997558594</ele>
        <time>2019-06-27T17:52:41.000Z</time>
      </trkpt>
      <trkpt lat="43.94122" lon="1.85136">
        <ele>953.79998779297</ele>
        <time>2019-06-27T17:52:42.000Z</time>
      </trkpt>
      <trkpt lat="43.9412" lon="1.85135">
        <ele>953.79998779297</ele>
        <time>2019-06-27T17:52:43.000Z</time>
      </trkpt>
      <trkpt lat="43.94119" lon="1.85134">
        <ele>954</ele>
        <time>2019-06-27T17:52:44.000Z</time>
      </trkpt>
      <trkpt lat="43.94117" lon="1.85132">
        <ele>954.20001220703</ele>
        <time>2019-06-27T17:52:45.000Z</time>
      </trkpt>
      <trkpt lat="43.94115" lon="1.85131">
        <ele>954.40002441406</ele>
        <time>2019-06-27T17:52:46.000Z</time>
      </trkpt>
      <trkpt lat="43.94113" lon="1.8513">
        <ele>954.40002441406</ele>
        <time>2019-06-27T17:52:47.000Z</time>
      </trkpt>
      <trkpt lat="43.94112" lon="1.85129">
        <ele>954.40002441406</ele>
        <time>2019-06-27T17:52:48.000Z</time>
      </trkpt>
      <trkpt lat="43.9411" lon="1.85128">
        <ele>954.40002441406</ele>
        <time>2019-06-27T17:52:49.000Z</time>
      </trkpt>
      <trkpt lat="43.94108" lon="1.85126">
        <ele>954.59997558594</ele>
        <time>2019-06-27T17:52:50.000Z</time>
      </trkpt>
      <trkpt lat="43.94107" lon="1.85126">
        <ele>954.79998779297</ele>
        <time>2019-06-27T17:52:51.000Z</time>
      </trkpt>
      <trkpt lat="43.94105" lon="1.85125">
        <ele>955</ele>
        <time>2019-06-27T17:52:52.000Z</time>
      </trkpt>
      <trkpt lat="43.94103" lon="1.85125">
        <ele>955</ele>
        <time>2019-06-27T17:52:53.000Z</time>
      </trkpt>
      <trkpt lat="43.94101" lon="1.85124">
        <ele>955</ele>
        <time>2019-06-27T17:52:54.000Z</time>
      </trkpt>
      <trkpt lat="43.941" lon="1.85124">
        <ele>955</ele>
        <time>2019-06-27T17:52:55.000Z</time>
      </trkpt>
      <trkpt lat="43.94098" lon="1.85124">
        <ele>955.20001220703</ele>
        <time>2019-06-27T17:52:56.000Z</time>
      </trkpt>
      <trkpt lat="43.94096" lon="1.85125">
        <ele>955.20001220703</ele>
        <time>2019-06-27T17:52:57.000Z</time>
      </trkpt>
      <trkpt lat="43.94094" lon="1.85125">
        <ele>955.20001220703</ele>
        <time>2019-06-27T17:52:58.000Z</time>
      </trkpt>
      <trkpt lat="43.94091" lon="1.85125">
        <ele>955.20001220703</ele>
        <time>2019-06-27T17:52:59.000Z</time>
      </trkpt>
      <trkpt lat="43.94089" lon="1.85124">
        <ele>955.40002441406</ele>
        <time>2019-06-27T17:53:00.000Z</time>
      </trkpt>
      <trkpt lat="43.94086" lon="1.85124">
        <ele>955.40002441406</ele>
        <time>2019-06-27T17:53:01.000Z</time>
      </trkpt>
      <trkpt lat="43.94084" lon="1.85124">
        <ele>955.40002441406</ele>
        <time>2019-06-27T17:53:02.000Z</time>
      </trkpt>
      <trkpt lat="43.94081" lon="1.85125">
        <ele>955.40002441406</ele>
        <time>2019-06-27T17:53:03.000Z</time>
      </trkpt>
      <trkpt lat="43.94078" lon="1.85125">
        <ele>955.40002441406</ele>
        <time>2019-06-27T17:53:04.000Z</time>
      </trkpt>
      <trkpt lat="43.94075" lon="1.85125">
        <ele>955.40002441406</ele>
        <time>2019-06-27T17:53:05.000Z</time>
      </trkpt>
      <trkpt lat="43.94072" lon="1.85125">
        <ele>955.40002441406</ele>
        <time>2019-06-27T17:53:06.000Z</time>
      </trkpt>
      <trkpt lat="43.94069" lon="1.85125">
        <ele>955.40002441406</ele>
        <time>2019-06-27T17:53:07.000Z</time>
      </trkpt>
      <trkpt lat="43.94066" lon="1.85124">
        <ele>955.40002441406</ele>
        <time>2019-06-27T17:53:08.000Z</time>
      </trkpt>
      <trkpt lat="43.94062" lon="1.85124">
        <ele>955.40002441406</ele>
        <time>2019-06-27T17:53:09.000Z</time>
      </trkpt>
      <trkpt lat="43.94059" lon="1.85125">
        <ele>955.40002441406</ele>
        <time>2019-06-27T17:53:10.000Z</time>
      </trkpt>
      <trkpt lat="43.94056" lon="1.85125">
        <ele>955.40002441406</ele>
        <time>2019-06-27T17:53:11.000Z</time>
      </trkpt>
      <trkpt lat="43.94053" lon="1.85125">
        <ele>955.40002441406</ele>
        <time>2019-06-27T17:53:12.000Z</time>
      </trkpt>
      <trkpt lat="43.94049" lon="1.85125">
        <ele>955.59997558594</ele>
        <time>2019-06-27T17:53:13.000Z</time>
      </trkpt>
      <trkpt lat="43.94046" lon="1.85125">
        <ele>955.59997558594</ele>
        <time>2019-06-27T17:53:14.000Z</time>
      </trkpt>
      <trkpt lat="43.94043" lon="1.85126">
        <ele>955.59997558594</ele>
        <time>2019-06-27T17:53:15.000Z</time>
      </trkpt>
      <trkpt lat="43.9404" lon="1.85126">
        <ele>955.59997558594</ele>
        <time>2019-06-27T17:53:16.000Z</time>
      </trkpt>
      <trkpt lat="43.94036" lon="1.85126">
        <ele>955.59997558594</ele>
        <time>2019-06-27T17:53:17.000Z</time>
      </trkpt>
      <trkpt lat="43.94033" lon="1.85126">
        <ele>955.59997558594</ele>
        <time>2019-06-27T17:53:18.000Z</time>
      </trkpt>
      <trkpt lat="43.9403" lon="1.85126">
        <ele>955.40002441406</ele>
        <time>2019-06-27T17:53:19.000Z</time>
      </trkpt>
      <trkpt lat="43.94027" lon="1.85125">
        <ele>955.59997558594</ele>
        <time>2019-06-27T17:53:20.000Z</time>
      </trkpt>
      <trkpt lat="43.94024" lon="1.85125">
        <ele>955.59997558594</ele>
        <time>2019-06-27T17:53:21.000Z</time>
      </trkpt>
      <trkpt lat="43.94022" lon="1.85124">
        <ele>955.40002441406</ele>
        <time>2019-06-27T17:53:22.000Z</time>
      </trkpt>
      <trkpt lat="43.94019" lon="1.85123">
        <ele>955.40002441406</ele>
        <time>2019-06-27T17:53:23.000Z</time>
      </trkpt>
      <trkpt lat="43.94016" lon="1.85123">
        <ele>955.40002441406</ele>
        <time>2019-06-27T17:53:24.000Z</time>
      </trkpt>
      <trkpt lat="43.94013" lon="1.85122">
        <ele>955.40002441406</ele>
        <time>2019-06-27T17:53:25.000Z</time>
      </trkpt>
      <trkpt lat="43.94011" lon="1.85121">
        <ele>955.40002441406</ele>
        <time>2019-06-27T17:53:26.000Z</time>
      </trkpt>
      <trkpt lat="43.94008" lon="1.8512">
        <ele>955.59997558594</ele>
        <time>2019-06-27T17:53:27.000Z</time>
      </trkpt>
      <trkpt lat="43.94004" lon="1.8512">
        <ele>955.59997558594</ele>
        <time>2019-06-27T17:53:28.000Z</time>
      </trkpt>
      <trkpt lat="43.94001" lon="1.85119">
        <ele>955.59997558594</ele>
        <time>2019-06-27T17:53:29.000Z</time>
      </trkpt>
      <trkpt lat="43.93998" lon="1.85118">
        <ele>955.59997558594</ele>
        <time>2019-06-27T17:53:30.000Z</time>
      </trkpt>
      <trkpt lat="43.93995" lon="1.85117">
        <ele>955.59997558594</ele>
        <time>2019-06-27T17:53:31.000Z</time>
      </trkpt>
      <trkpt lat="43.93992" lon="1.85116">
        <ele>955.79998779297</ele>
        <time>2019-06-27T17:53:32.000Z</time>
      </trkpt>
      <trkpt lat="43.93989" lon="1.85116">
        <ele>955.79998779297</ele>
        <time>2019-06-27T17:53:33.000Z</time>
      </trkpt>
      <trkpt lat="43.93986" lon="1.85115">
        <ele>955.79998779297</ele>
        <time>2019-06-27T17:53:34.000Z</time>
      </trkpt>
      <trkpt lat="43.93983" lon="1.85115">
        <ele>955.79998779297</ele>
        <time>2019-06-27T17:53:35.000Z</time>
      </trkpt>
      <trkpt lat="43.9398" lon="1.85115">
        <ele>955.79998779297</ele>
        <time>2019-06-27T17:53:36.000Z</time>
      </trkpt>
      <trkpt lat="43.93977" lon="1.85115">
        <ele>955.79998779297</ele>
        <time>2019-06-27T17:53:37.000Z</time>
      </trkpt>
      <trkpt lat="43.93974" lon="1.85114">
        <ele>955.79998779297</ele>
        <time>2019-06-27T17:53:38.000Z</time>
      </trkpt>
      <trkpt lat="43.93971" lon="1.85114">
        <ele>955.79998779297</ele>
        <time>2019-06-27T17:53:39.000Z</time>
      </trkpt>
      <trkpt lat="43.93967" lon="1.85114">
        <ele>955.79998779297</ele>
        <time>2019-06-27T17:53:40.000Z</time>
      </trkpt>
      <trkpt lat="43.93964" lon="1.85113">
        <ele>955.79998779297</ele>
        <time>2019-06-27T17:53:41.000Z</time>
      </trkpt>
      <trkpt lat="43.93961" lon="1.85113">
        <ele>956</ele>
        <time>2019-06-27T17:53:42.000Z</time>
      </trkpt>
      <trkpt lat="43.93957" lon="1.85113">
        <ele>956</ele>
        <time>2019-06-27T17:53:43.000Z</time>
      </trkpt>
      <trkpt lat="43.93953" lon="1.85113">
        <ele>956</ele>
        <time>2019-06-27T17:53:44.000Z</time>
      </trkpt>
      <trkpt lat="43.9395" lon="1.85113">
        <ele>956</ele>
        <time>2019-06-27T17:53:45.000Z</time>
      </trkpt>
      <trkpt lat="43.93946" lon="1.85112">
        <ele>956</ele>
        <time>2019-06-27T17:53:46.000Z</time>
      </trkpt>
      <trkpt lat="43.93942" lon="1.85112">
        <ele>956.20001220703</ele>
        <time>2019-06-27T17:53:47.000Z</time>
      </trkpt>
      <trkpt lat="43.93939" lon="1.85112">
        <ele>956.20001220703</ele>
        <time>2019-06-27T17:53:48.000Z</time>
      </trkpt>
      <trkpt lat="43.93935" lon="1.85112">
        <ele>956</ele>
        <time>2019-06-27T17:53:49.000Z</time>
      </trkpt>
      <trkpt lat="43.93931" lon="1.85111">
        <ele>956.20001220703</ele>
        <time>2019-06-27T17:53:50.000Z</time>
      </trkpt>
      <trkpt lat="43.93928" lon="1.85111">
        <ele>956.20001220703</ele>
        <time>2019-06-27T17:53:51.000Z</time>
      </trkpt>
      <trkpt lat="43.93924" lon="1.85111">
        <ele>956.20001220703</ele>
        <time>2019-06-27T17:53:52.000Z</time>
      </trkpt>
      <trkpt lat="43.9392" lon="1.8511">
        <ele>956.20001220703</ele>
        <time>2019-06-27T17:53:53.000Z</time>
      </trkpt>
      <trkpt lat="43.93916" lon="1.8511">
        <ele>956.20001220703</ele>
        <time>2019-06-27T17:53:54.000Z</time>
      </trkpt>
      <trkpt lat="43.93912" lon="1.8511">
        <ele>956.20001220703</ele>
        <time>2019-06-27T17:53:55.000Z</time>
      </trkpt>
      <trkpt lat="43.93909" lon="1.85109">
        <ele>956.20001220703</ele>
        <time>2019-06-27T17:53:56.000Z</time>
      </trkpt>
      <trkpt lat="43.93905" lon="1.85109">
        <ele>956.20001220703</ele>
        <time>2019-06-27T17:53:57.000Z</time>
      </trkpt>
      <trkpt lat="43.93901" lon="1.85108">
        <ele>956.40002441406</ele>
        <time>2019-06-27T17:53:58.000Z</time>
      </trkpt>
      <trkpt lat="43.93898" lon="1.85108">
        <ele>956.40002441406</ele>
        <time>2019-06-27T17:53:59.000Z</time>
      </trkpt>
      <trkpt lat="43.93894" lon="1.85107">
        <ele>956.40002441406</ele>
        <time>2019-06-27T17:54:00.000Z</time>
      </trkpt>
      <trkpt lat="43.93891" lon="1.85105">
        <ele>956.40002441406</ele>
        <time>2019-06-27T17:54:01.000Z</time>
      </trkpt>
      <trkpt lat="43.93888" lon="1.85104">
        <ele>956.40002441406</ele>
        <time>2019-06-27T17:54:02.000Z</time>
      </trkpt>
      <trkpt lat="43.93884" lon="1.85103">
        <ele>956.40002441406</ele>
        <time>2019-06-27T17:54:03.000Z</time>
      </trkpt>
      <trkpt lat="43.93881" lon="1.85101">
        <ele>956.59997558594</ele>
        <time>2019-06-27T17:54:04.000Z</time>
      </trkpt>
      <trkpt lat="43.93877" lon="1.851">
        <ele>956.59997558594</ele>
        <time>2019-06-27T17:54:05.000Z</time>
      </trkpt>
      <trkpt lat="43.93874" lon="1.85098">
        <ele>956.59997558594</ele>
        <time>2019-06-27T17:54:06.000Z</time>
      </trkpt>
      <trkpt lat="43.9387" lon="1.85097">
        <ele>956.59997558594</ele>
        <time>2019-06-27T17:54:07.000Z</time>
      </trkpt>
      <trkpt lat="43.93866" lon="1.85095">
        <ele>956.79998779297</ele>
        <time>2019-06-27T17:54:08.000Z</time>
      </trkpt>
      <trkpt lat="43.93863" lon="1.85094">
        <ele>956.59997558594</ele>
        <time>2019-06-27T17:54:09.000Z</time>
      </trkpt>
      <trkpt lat="43.93859" lon="1.85092">
        <ele>956.40002441406</ele>
        <time>2019-06-27T17:54:10.000Z</time>
      </trkpt>
      <trkpt lat="43.93854" lon="1.8509">
        <ele>956.40002441406</ele>
        <time>2019-06-27T17:54:11.000Z</time>
      </trkpt>
      <trkpt lat="43.93849" lon="1.85088">
        <ele>956.20001220703</ele>
        <time>2019-06-27T17:54:12.000Z</time>
      </trkpt>
      <trkpt lat="43.93844" lon="1.85086">
        <ele>956</ele>
        <time>2019-06-27T17:54:13.000Z</time>
      </trkpt>
      <trkpt lat="43.93839" lon="1.85085">
        <ele>955.79998779297</ele>
        <time>2019-06-27T17:54:14.000Z</time>
      </trkpt>
      <trkpt lat="43.93833" lon="1.85083">
        <ele>955.59997558594</ele>
        <time>2019-06-27T17:54:15.000Z</time>
      </trkpt>
      <trkpt lat="43.93827" lon="1.85081">
        <ele>955.59997558594</ele>
        <time>2019-06-27T17:54:16.000Z</time>
      </trkpt>
      <trkpt lat="43.9382" lon="1.85079">
        <ele>955.40002441406</ele>
        <time>2019-06-27T17:54:17.000Z</time>
      </trkpt>
      <trkpt lat="43.93814" lon="1.85076">
        <ele>955.20001220703</ele>
        <time>2019-06-27T17:54:18.000Z</time>
      </trkpt>
      <trkpt lat="43.93807" lon="1.85073">
        <ele>954.59997558594</ele>
        <time>2019-06-27T17:54:19.000Z</time>
      </trkpt>
      <trkpt lat="43.93801" lon="1.85071">
        <ele>954.20001220703</ele>
        <time>2019-06-27T17:54:20.000Z</time>
      </trkpt>
      <trkpt lat="43.93794" lon="1.85067">
        <ele>954.20001220703</ele>
        <time>2019-06-27T17:54:21.000Z</time>
      </trkpt>
      <trkpt lat="43.93788" lon="1.85063">
        <ele>954.20001220703</ele>
        <time>2019-06-27T17:54:22.000Z</time>
      </trkpt>
      <trkpt lat="43.93782" lon="1.8506">
        <ele>954</ele>
        <time>2019-06-27T17:54:23.000Z</time>
      </trkpt>
      <trkpt lat="43.93777" lon="1.85056">
        <ele>954</ele>
        <time>2019-06-27T17:54:24.000Z</time>
      </trkpt>
      <trkpt lat="43.93771" lon="1.85052">
        <ele>953.79998779297</ele>
        <time>2019-06-27T17:54:25.000Z</time>
      </trkpt>
      <trkpt lat="43.93766" lon="1.85048">
        <ele>953.79998779297</ele>
        <time>2019-06-27T17:54:26.000Z</time>
      </trkpt>
      <trkpt lat="43.93761" lon="1.85044">
        <ele>953.79998779297</ele>
        <time>2019-06-27T17:54:27.000Z</time>
      </trkpt>
      <trkpt lat="43.93757" lon="1.8504">
        <ele>953.59997558594</ele>
        <time>2019-06-27T17:54:28.000Z</time>
      </trkpt>
      <trkpt lat="43.93753" lon="1.85037">
        <ele>953.79998779297</ele>
        <time>2019-06-27T17:54:29.000Z</time>
      </trkpt>
      <trkpt lat="43.93749" lon="1.85034">
        <ele>953.79998779297</ele>
        <time>2019-06-27T17:54:30.000Z</time>
      </trkpt>
      <trkpt lat="43.93745" lon="1.85031">
        <ele>954</ele>
        <time>2019-06-27T17:54:31.000Z</time>
      </trkpt>
      <trkpt lat="43.93741" lon="1.85029">
        <ele>954</ele>
        <time>2019-06-27T17:54:32.000Z</time>
      </trkpt>
      <trkpt lat="43.93737" lon="1.85026">
        <ele>954</ele>
        <time>2019-06-27T17:54:33.000Z</time>
      </trkpt>
      <trkpt lat="43.93733" lon="1.85023">
        <ele>954.20001220703</ele>
        <time>2019-06-27T17:54:34.000Z</time>
      </trkpt>
      <trkpt lat="43.93729" lon="1.8502">
        <ele>954.40002441406</ele>
        <time>2019-06-27T17:54:35.000Z</time>
      </trkpt>
      <trkpt lat="43.93725" lon="1.85018">
        <ele>954.59997558594</ele>
        <time>2019-06-27T17:54:36.000Z</time>
      </trkpt>
      <trkpt lat="43.93722" lon="1.85014">
        <ele>954.79998779297</ele>
        <time>2019-06-27T17:54:37.000Z</time>
      </trkpt>
      <trkpt lat="43.93718" lon="1.85011">
        <ele>954.79998779297</ele>
        <time>2019-06-27T17:54:38.000Z</time>
      </trkpt>
      <trkpt lat="43.93714" lon="1.85008">
        <ele>955</ele>
        <time>2019-06-27T17:54:39.000Z</time>
      </trkpt>
      <trkpt lat="43.9371" lon="1.85005">
        <ele>955</ele>
        <time>2019-06-27T17:54:40.000Z</time>
      </trkpt>
      <trkpt lat="43.93706" lon="1.85002">
        <ele>955.20001220703</ele>
        <time>2019-06-27T17:54:41.000Z</time>
      </trkpt>
      <trkpt lat="43.93703" lon="1.84999">
        <ele>955.20001220703</ele>
        <time>2019-06-27T17:54:42.000Z</time>
      </trkpt>
      <trkpt lat="43.93699" lon="1.84996">
        <ele>955.20001220703</ele>
        <time>2019-06-27T17:54:43.000Z</time>
      </trkpt>
      <trkpt lat="43.93696" lon="1.84994">
        <ele>955.40002441406</ele>
        <time>2019-06-27T17:54:44.000Z</time>
      </trkpt>
      <trkpt lat="43.93692" lon="1.84991">
        <ele>955.40002441406</ele>
        <time>2019-06-27T17:54:45.000Z</time>
      </trkpt>
      <trkpt lat="43.93688" lon="1.84989">
        <ele>955.59997558594</ele>
        <time>2019-06-27T17:54:46.000Z</time>
      </trkpt>
      <trkpt lat="43.93684" lon="1.84986">
        <ele>955.79998779297</ele>
        <time>2019-06-27T17:54:47.000Z</time>
      </trkpt>
      <trkpt lat="43.93681" lon="1.84984">
        <ele>955.79998779297</ele>
        <time>2019-06-27T17:54:48.000Z</time>
      </trkpt>
      <trkpt lat="43.93676" lon="1.84982">
        <ele>955.79998779297</ele>
        <time>2019-06-27T17:54:49.000Z</time>
      </trkpt>
      <trkpt lat="43.93672" lon="1.8498">
        <ele>956</ele>
        <time>2019-06-27T17:54:50.000Z</time>
      </trkpt>
      <trkpt lat="43.93668" lon="1.84978">
        <ele>956</ele>
        <time>2019-06-27T17:54:51.000Z</time>
      </trkpt>
      <trkpt lat="43.93663" lon="1.84976">
        <ele>956.20001220703</ele>
        <time>2019-06-27T17:54:52.000Z</time>
      </trkpt>
      <trkpt lat="43.93659" lon="1.84975">
        <ele>956.20001220703</ele>
        <time>2019-06-27T17:54:53.000Z</time>
      </trkpt>
      <trkpt lat="43.93655" lon="1.84974">
        <ele>956.20001220703</ele>
        <time>2019-06-27T17:54:54.000Z</time>
      </trkpt>
      <trkpt lat="43.9365" lon="1.84972">
        <ele>956.20001220703</ele>
        <time>2019-06-27T17:54:55.000Z</time>
      </trkpt>
      <trkpt lat="43.93646" lon="1.84971">
        <ele>956.20001220703</ele>
        <time>2019-06-27T17:54:56.000Z</time>
      </trkpt>
      <trkpt lat="43.93641" lon="1.84969">
        <ele>956.20001220703</ele>
        <time>2019-06-27T17:54:57.000Z</time>
      </trkpt>
      <trkpt lat="43.93637" lon="1.84968">
        <ele>956.20001220703</ele>
        <time>2019-06-27T17:54:58.000Z</time>
      </trkpt>
      <trkpt lat="43.93633" lon="1.84967">
        <ele>956.20001220703</ele>
        <time>2019-06-27T17:54:59.000Z</time>
      </trkpt>
      <trkpt lat="43.93629" lon="1.84966">
        <ele>956.20001220703</ele>
        <time>2019-06-27T17:55:00.000Z</time>
      </trkpt>
      <trkpt lat="43.93625" lon="1.84966">
        <ele>956.20001220703</ele>
        <time>2019-06-27T17:55:01.000Z</time>
      </trkpt>
      <trkpt lat="43.93621" lon="1.84965">
        <ele>956.20001220703</ele>
        <time>2019-06-27T17:55:02.000Z</time>
      </trkpt>
      <trkpt lat="43.93617" lon="1.84964">
        <ele>956.20001220703</ele>
        <time>2019-06-27T17:55:03.000Z</time>
      </trkpt>
      <trkpt lat="43.93614" lon="1.84963">
        <ele>956.20001220703</ele>
        <time>2019-06-27T17:55:04.000Z</time>
      </trkpt>
      <trkpt lat="43.9361" lon="1.84962">
        <ele>956.20001220703</ele>
        <time>2019-06-27T17:55:05.000Z</time>
      </trkpt>
      <trkpt lat="43.93607" lon="1.84961">
        <ele>956.20001220703</ele>
        <time>2019-06-27T17:55:06.000Z</time>
      </trkpt>
      <trkpt lat="43.93604" lon="1.84961">
        <ele>956.40002441406</ele>
        <time>2019-06-27T17:55:07.000Z</time>
      </trkpt>
      <trkpt lat="43.93601" lon="1.8496">
        <ele>956.40002441406</ele>
        <time>2019-06-27T17:55:08.000Z</time>
      </trkpt>
      <trkpt lat="43.93598" lon="1.84959">
        <ele>956.40002441406</ele>
        <time>2019-06-27T17:55:09.000Z</time>
      </trkpt>
      <trkpt lat="43.93596" lon="1.84959">
        <ele>956.20001220703</ele>
        <time>2019-06-27T17:55:10.000Z</time>
      </trkpt>
      <trkpt lat="43.93594" lon="1.84958">
        <ele>956</ele>
        <time>2019-06-27T17:55:11.000Z</time>
      </trkpt>
      <trkpt lat="43.93592" lon="1.84957">
        <ele>956</ele>
        <time>2019-06-27T17:55:12.000Z</time>
      </trkpt>
      <trkpt lat="43.93589" lon="1.84956">
        <ele>956</ele>
        <time>2019-06-27T17:55:13.000Z</time>
      </trkpt>
      <trkpt lat="43.93586" lon="1.84955">
        <ele>956</ele>
        <time>2019-06-27T17:55:14.000Z</time>
      </trkpt>
      <trkpt lat="43.93584" lon="1.84955">
        <ele>956</ele>
        <time>2019-06-27T17:55:15.000Z</time>
      </trkpt>
      <trkpt lat="43.93581" lon="1.84954">
        <ele>956</ele>
        <time>2019-06-27T17:55:16.000Z</time>
      </trkpt>
      <trkpt lat="43.93579" lon="1.84954">
        <ele>956.20001220703</ele>
        <time>2019-06-27T17:55:17.000Z</time>
      </trkpt>
      <trkpt lat="43.93576" lon="1.84953">
        <ele>956</ele>
        <time>2019-06-27T17:55:18.000Z</time>
      </trkpt>
      <trkpt lat="43.93574" lon="1.84953">
        <ele>956</ele>
        <time>2019-06-27T17:55:19.000Z</time>
      </trkpt>
      <trkpt lat="43.93571" lon="1.84952">
        <ele>956</ele>
        <time>2019-06-27T17:55:20.000Z</time>
      </trkpt>
      <trkpt lat="43.93569" lon="1.84952">
        <ele>956.20001220703</ele>
        <time>2019-06-27T17:55:21.000Z</time>
      </trkpt>
      <trkpt lat="43.93567" lon="1.84952">
        <ele>956.20001220703</ele>
        <time>2019-06-27T17:55:22.000Z</time>
      </trkpt>
      <trkpt lat="43.93565" lon="1.84952">
        <ele>956</ele>
        <time>2019-06-27T17:55:23.000Z</time>
      </trkpt>
      <trkpt lat="43.93563" lon="1.84951">
        <ele>956</ele>
        <time>2019-06-27T17:55:24.000Z</time>
      </trkpt>
      <trkpt lat="43.9356" lon="1.8495">
        <ele>955.79998779297</ele>
        <time>2019-06-27T17:55:25.000Z</time>
      </trkpt>
      <trkpt lat="43.93558" lon="1.84949">
        <ele>955.79998779297</ele>
        <time>2019-06-27T17:55:26.000Z</time>
      </trkpt>
      <trkpt lat="43.93556" lon="1.84949">
        <ele>956</ele>
        <time>2019-06-27T17:55:27.000Z</time>
      </trkpt>
      <trkpt lat="43.93554" lon="1.84948">
        <ele>956</ele>
        <time>2019-06-27T17:55:28.000Z</time>
      </trkpt>
      <trkpt lat="43.93551" lon="1.84948">
        <ele>956</ele>
        <time>2019-06-27T17:55:29.000Z</time>
      </trkpt>
      <trkpt lat="43.9355" lon="1.84948">
        <ele>956</ele>
        <time>2019-06-27T17:55:30.000Z</time>
      </trkpt>
      <trkpt lat="43.93548" lon="1.84948">
        <ele>955.79998779297</ele>
        <time>2019-06-27T17:55:31.000Z</time>
      </trkpt>
      <trkpt lat="43.93546" lon="1.84948">
        <ele>955.79998779297</ele>
        <time>2019-06-27T17:55:32.000Z</time>
      </trkpt>
      <trkpt lat="43.93544" lon="1.84947">
        <ele>955.79998779297</ele>
        <time>2019-06-27T17:55:33.000Z</time>
      </trkpt>
      <trkpt lat="43.93541" lon="1.84945">
        <ele>955.79998779297</ele>
        <time>2019-06-27T17:55:34.000Z</time>
      </trkpt>
      <trkpt lat="43.93539" lon="1.84944">
        <ele>955.79998779297</ele>
        <time>2019-06-27T17:55:35.000Z</time>
      </trkpt>
      <trkpt lat="43.93536" lon="1.84942">
        <ele>955.79998779297</ele>
        <time>2019-06-27T17:55:36.000Z</time>
      </trkpt>
      <trkpt lat="43.93533" lon="1.84941">
        <ele>955.79998779297</ele>
        <time>2019-06-27T17:55:37.000Z</time>
      </trkpt>
      <trkpt lat="43.9353" lon="1.84939">
        <ele>955.79998779297</ele>
        <time>2019-06-27T17:55:38.000Z</time>
      </trkpt>
      <trkpt lat="43.93527" lon="1.84938">
        <ele>955.79998779297</ele>
        <time>2019-06-27T17:55:39.000Z</time>
      </trkpt>
      <trkpt lat="43.93524" lon="1.84937">
        <ele>956</ele>
        <time>2019-06-27T17:55:40.000Z</time>
      </trkpt>
      <trkpt lat="43.93521" lon="1.84936">
        <ele>955.79998779297</ele>
        <time>2019-06-27T17:55:41.000Z</time>
      </trkpt>
      <trkpt lat="43.93517" lon="1.84934">
        <ele>955.79998779297</ele>
        <time>2019-06-27T17:55:42.000Z</time>
      </trkpt>
      <trkpt lat="43.93514" lon="1.84933">
        <ele>955.59997558594</ele>
        <time>2019-06-27T17:55:43.000Z</time>
      </trkpt>
      <trkpt lat="43.9351" lon="1.84932">
        <ele>955.79998779297</ele>
        <time>2019-06-27T17:55:44.000Z</time>
      </trkpt>
      <trkpt lat="43.93506" lon="1.84931">
        <ele>955.79998779297</ele>
        <time>2019-06-27T17:55:45.000Z</time>
      </trkpt>
      <trkpt lat="43.93502" lon="1.8493">
        <ele>955.79998779297</ele>
        <time>2019-06-27T17:55:46.000Z</time>
      </trkpt>
      <trkpt lat="43.93498" lon="1.84928">
        <ele>955.59997558594</ele>
        <time>2019-06-27T17:55:47.000Z</time>
      </trkpt>
      <trkpt lat="43.93494" lon="1.84927">
        <ele>955.59997558594</ele>
        <time>2019-06-27T17:55:48.000Z</time>
      </trkpt>
      <trkpt lat="43.9349" lon="1.84925">
        <ele>955.59997558594</ele>
        <time>2019-06-27T17:55:49.000Z</time>
      </trkpt>
      <trkpt lat="43.93486" lon="1.84924">
        <ele>955.59997558594</ele>
        <time>2019-06-27T17:55:50.000Z</time>
      </trkpt>
      <trkpt lat="43.93481" lon="1.84923">
        <ele>955.40002441406</ele>
        <time>2019-06-27T17:55:51.000Z</time>
      </trkpt>
      <trkpt lat="43.93477" lon="1.84922">
        <ele>955.20001220703</ele>
        <time>2019-06-27T17:55:52.000Z</time>
      </trkpt>
      <trkpt lat="43.93473" lon="1.8492">
        <ele>955.20001220703</ele>
        <time>2019-06-27T17:55:53.000Z</time>
      </trkpt>
      <trkpt lat="43.93469" lon="1.84918">
        <ele>955</ele>
        <time>2019-06-27T17:55:54.000Z</time>
      </trkpt>
      <trkpt lat="43.93464" lon="1.84917">
        <ele>955</ele>
        <time>2019-06-27T17:55:55.000Z</time>
      </trkpt>
      <trkpt lat="43.93459" lon="1.84915">
        <ele>955</ele>
        <time>2019-06-27T17:55:56.000Z</time>
      </trkpt>
      <trkpt lat="43.93454" lon="1.84913">
        <ele>954.79998779297</ele>
        <time>2019-06-27T17:55:57.000Z</time>
      </trkpt>
      <trkpt lat="43.93449" lon="1.8491">
        <ele>954.59997558594</ele>
        <time>2019-06-27T17:55:58.000Z</time>
      </trkpt>
      <trkpt lat="43.93444" lon="1.84908">
        <ele>954.59997558594</ele>
        <time>2019-06-27T17:55:59.000Z</time>
      </trkpt>
      <trkpt lat="43.93438" lon="1.84906">
        <ele>954.40002441406</ele>
        <time>2019-06-27T17:56:00.000Z</time>
      </trkpt>
      <trkpt lat="43.93433" lon="1.84903">
        <ele>954.40002441406</ele>
        <time>2019-06-27T17:56:01.000Z</time>
      </trkpt>
      <trkpt lat="43.93428" lon="1.849">
        <ele>954.20001220703</ele>
        <time>2019-06-27T17:56:02.000Z</time>
      </trkpt>
      <trkpt lat="43.93423" lon="1.84897">
        <ele>954.40002441406</ele>
        <time>2019-06-27T17:56:03.000Z</time>
      </trkpt>
      <trkpt lat="43.93418" lon="1.84894">
        <ele>954.40002441406</ele>
        <time>2019-06-27T17:56:04.000Z</time>
      </trkpt>
      <trkpt lat="43.93413" lon="1.8489">
        <ele>954.59997558594</ele>
        <time>2019-06-27T17:56:05.000Z</time>
      </trkpt>
      <trkpt lat="43.93408" lon="1.84887">
        <ele>954.59997558594</ele>
        <time>2019-06-27T17:56:06.000Z</time>
      </trkpt>
      <trkpt lat="43.93404" lon="1.84884">
        <ele>954.59997558594</ele>
        <time>2019-06-27T17:56:07.000Z</time>
      </trkpt>
      <trkpt lat="43.93399" lon="1.84881">
        <ele>954.40002441406</ele>
        <time>2019-06-27T17:56:08.000Z</time>
      </trkpt>
      <trkpt lat="43.93393" lon="1.84879">
        <ele>954.59997558594</ele>
        <time>2019-06-27T17:56:09.000Z</time>
      </trkpt>
      <trkpt lat="43.93388" lon="1.84877">
        <ele>954.59997558594</ele>
        <time>2019-06-27T17:56:10.000Z</time>
      </trkpt>
      <trkpt lat="43.93382" lon="1.84876">
        <ele>954.79998779297</ele>
        <time>2019-06-27T17:56:11.000Z</time>
      </trkpt>
      <trkpt lat="43.93377" lon="1.84876">
        <ele>954.59997558594</ele>
        <time>2019-06-27T17:56:12.000Z</time>
      </trkpt>
      <trkpt lat="43.93372" lon="1.84874">
        <ele>954.59997558594</ele>
        <time>2019-06-27T17:56:13.000Z</time>
      </trkpt>
      <trkpt lat="43.93368" lon="1.84872">
        <ele>954.40002441406</ele>
        <time>2019-06-27T17:56:14.000Z</time>
      </trkpt>
      <trkpt lat="43.93363" lon="1.8487">
        <ele>954.40002441406</ele>
        <time>2019-06-27T17:56:15.000Z</time>
      </trkpt>
      <trkpt lat="43.93358" lon="1.84867">
        <ele>954</ele>
        <time>2019-06-27T17:56:16.000Z</time>
      </trkpt>
      <trkpt lat="43.93354" lon="1.84864">
        <ele>954</ele>
        <time>2019-06-27T17:56:17.000Z</time>
      </trkpt>
      <trkpt lat="43.9335" lon="1.84861">
        <ele>953.79998779297</ele>
        <time>2019-06-27T17:56:18.000Z</time>
      </trkpt>
      <trkpt lat="43.93346" lon="1.84858">
        <ele>954</ele>
        <time>2019-06-27T17:56:19.000Z</time>
      </trkpt>
      <trkpt lat="43.93341" lon="1.84855">
        <ele>954</ele>
        <time>2019-06-27T17:56:20.000Z</time>
      </trkpt>
      <trkpt lat="43.93337" lon="1.84852">
        <ele>954.20001220703</ele>
        <time>2019-06-27T17:56:21.000Z</time>
      </trkpt>
      <trkpt lat="43.93332" lon="1.84848">
        <ele>954.40002441406</ele>
        <time>2019-06-27T17:56:22.000Z</time>
      </trkpt>
      <trkpt lat="43.93328" lon="1.84845">
        <ele>954.40002441406</ele>
        <time>2019-06-27T17:56:23.000Z</time>
      </trkpt>
      <trkpt lat="43.93323" lon="1.84842">
        <ele>954.79998779297</ele>
        <time>2019-06-27T17:56:24.000Z</time>
      </trkpt>
      <trkpt lat="43.93318" lon="1.84838">
        <ele>954.59997558594</ele>
        <time>2019-06-27T17:56:25.000Z</time>
      </trkpt>
      <trkpt lat="43.93314" lon="1.84835">
        <ele>954.79998779297</ele>
        <time>2019-06-27T17:56:26.000Z</time>
      </trkpt>
      <trkpt lat="43.93309" lon="1.84831">
        <ele>954.79998779297</ele>
        <time>2019-06-27T17:56:27.000Z</time>
      </trkpt>
      <trkpt lat="43.93304" lon="1.84827">
        <ele>954.79998779297</ele>
        <time>2019-06-27T17:56:28.000Z</time>
      </trkpt>
      <trkpt lat="43.93299" lon="1.84824">
        <ele>954.59997558594</ele>
        <time>2019-06-27T17:56:29.000Z</time>
      </trkpt>
      <trkpt lat="43.93295" lon="1.84821">
        <ele>954.79998779297</ele>
        <time>2019-06-27T17:56:30.000Z</time>
      </trkpt>
      <trkpt lat="43.9329" lon="1.84818">
        <ele>955</ele>
        <time>2019-06-27T17:56:31.000Z</time>
      </trkpt>
      <trkpt lat="43.93286" lon="1.84815">
        <ele>955.20001220703</ele>
        <time>2019-06-27T17:56:32.000Z</time>
      </trkpt>
      <trkpt lat="43.93282" lon="1.84813">
        <ele>955.59997558594</ele>
        <time>2019-06-27T17:56:33.000Z</time>
      </trkpt>
      <trkpt lat="43.93278" lon="1.84812">
        <ele>955.79998779297</ele>
        <time>2019-06-27T17:56:34.000Z</time>
      </trkpt>
      <trkpt lat="43.93274" lon="1.8481">
        <ele>956</ele>
        <time>2019-06-27T17:56:35.000Z</time>
      </trkpt>
      <trkpt lat="43.9327" lon="1.84808">
        <ele>956</ele>
        <time>2019-06-27T17:56:36.000Z</time>
      </trkpt>
      <trkpt lat="43.93266" lon="1.84807">
        <ele>956.20001220703</ele>
        <time>2019-06-27T17:56:37.000Z</time>
      </trkpt>
      <trkpt lat="43.93262" lon="1.84806">
        <ele>956.40002441406</ele>
        <time>2019-06-27T17:56:38.000Z</time>
      </trkpt>
      <trkpt lat="43.93258" lon="1.84804">
        <ele>956.59997558594</ele>
        <time>2019-06-27T17:56:39.000Z</time>
      </trkpt>
      <trkpt lat="43.93254" lon="1.84803">
        <ele>956.59997558594</ele>
        <time>2019-06-27T17:56:40.000Z</time>
      </trkpt>
      <trkpt lat="43.9325" lon="1.84801">
        <ele>957</ele>
        <time>2019-06-27T17:56:41.000Z</time>
      </trkpt>
      <trkpt lat="43.93245" lon="1.84799">
        <ele>957.20001220703</ele>
        <time>2019-06-27T17:56:42.000Z</time>
      </trkpt>
      <trkpt lat="43.93241" lon="1.84798">
        <ele>957.40002441406</ele>
        <time>2019-06-27T17:56:43.000Z</time>
      </trkpt>
      <trkpt lat="43.93237" lon="1.84796">
        <ele>957.79998779297</ele>
        <time>2019-06-27T17:56:44.000Z</time>
      </trkpt>
      <trkpt lat="43.93233" lon="1.84795">
        <ele>958.20001220703</ele>
        <time>2019-06-27T17:56:45.000Z</time>
      </trkpt>
      <trkpt lat="43.93229" lon="1.84793">
        <ele>958.59997558594</ele>
        <time>2019-06-27T17:56:46.000Z</time>
      </trkpt>
      <trkpt lat="43.93225" lon="1.84791">
        <ele>958.59997558594</ele>
        <time>2019-06-27T17:56:47.000Z</time>
      </trkpt>
      <trkpt lat="43.93221" lon="1.8479">
        <ele>959</ele>
        <time>2019-06-27T17:56:48.000Z</time>
      </trkpt>
      <trkpt lat="43.93216" lon="1.84788">
        <ele>959</ele>
        <time>2019-06-27T17:56:49.000Z</time>
      </trkpt>
      <trkpt lat="43.93212" lon="1.84786">
        <ele>959.20001220703</ele>
        <time>2019-06-27T17:56:50.000Z</time>
      </trkpt>
      <trkpt lat="43.93208" lon="1.84784">
        <ele>959.59997558594</ele>
        <time>2019-06-27T17:56:51.000Z</time>
      </trkpt>
      <trkpt lat="43.93205" lon="1.84783">
        <ele>959.79998779297</ele>
        <time>2019-06-27T17:56:52.000Z</time>
      </trkpt>
      <trkpt lat="43.93201" lon="1.84781">
        <ele>960</ele>
        <time>2019-06-27T17:56:53.000Z</time>
      </trkpt>
      <trkpt lat="43.93197" lon="1.8478">
        <ele>960</ele>
        <time>2019-06-27T17:56:54.000Z</time>
      </trkpt>
      <trkpt lat="43.93193" lon="1.8478">
        <ele>960.20001220703</ele>
        <time>2019-06-27T17:56:55.000Z</time>
      </trkpt>
      <trkpt lat="43.9319" lon="1.84779">
        <ele>960.40002441406</ele>
        <time>2019-06-27T17:56:56.000Z</time>
      </trkpt>
      <trkpt lat="43.93186" lon="1.84778">
        <ele>960.40002441406</ele>
        <time>2019-06-27T17:56:57.000Z</time>
      </trkpt>
      <trkpt lat="43.93182" lon="1.84777">
        <ele>960.40002441406</ele>
        <time>2019-06-27T17:56:58.000Z</time>
      </trkpt>
      <trkpt lat="43.93178" lon="1.84775">
        <ele>960.40002441406</ele>
        <time>2019-06-27T17:56:59.000Z</time>
      </trkpt>
      <trkpt lat="43.93174" lon="1.84773">
        <ele>960.20001220703</ele>
        <time>2019-06-27T17:57:00.000Z</time>
      </trkpt>
      <trkpt lat="43.93169" lon="1.84772">
        <ele>960</ele>
        <time>2019-06-27T17:57:01.000Z</time>
      </trkpt>
      <trkpt lat="43.93163" lon="1.84769">
        <ele>959.79998779297</ele>
        <time>2019-06-27T17:57:02.000Z</time>
      </trkpt>
      <trkpt lat="43.93157" lon="1.84767">
        <ele>959.79998779297</ele>
        <time>2019-06-27T17:57:03.000Z</time>
      </trkpt>
      <trkpt lat="43.93151" lon="1.84765">
        <ele>959.40002441406</ele>
        <time>2019-06-27T17:57:04.000Z</time>
      </trkpt>
      <trkpt lat="43.93145" lon="1.84762">
        <ele>959.20001220703</ele>
        <time>2019-06-27T17:57:05.000Z</time>
      </trkpt>
      <trkpt lat="43.93139" lon="1.84758">
        <ele>959</ele>
        <time>2019-06-27T17:57:06.000Z</time>
      </trkpt>
      <trkpt lat="43.93132" lon="1.84754">
        <ele>958.59997558594</ele>
        <time>2019-06-27T17:57:07.000Z</time>
      </trkpt>
      <trkpt lat="43.93125" lon="1.8475">
        <ele>958.20001220703</ele>
        <time>2019-06-27T17:57:08.000Z</time>
      </trkpt>
      <trkpt lat="43.9312" lon="1.84747">
        <ele>957.40002441406</ele>
        <time>2019-06-27T17:57:09.000Z</time>
      </trkpt>
      <trkpt lat="43.93115" lon="1.84745">
        <ele>956.40002441406</ele>
        <time>2019-06-27T17:57:10.000Z</time>
      </trkpt>
      <trkpt lat="43.9311" lon="1.84743">
        <ele>955.79998779297</ele>
        <time>2019-06-27T17:57:11.000Z</time>
      </trkpt>
      <trkpt lat="43.93107" lon="1.84742">
        <ele>955.20001220703</ele>
        <time>2019-06-27T17:57:12.000Z</time>
      </trkpt>
      <trkpt lat="43.93104" lon="1.84741">
        <ele>955</ele>
        <time>2019-06-27T17:57:13.000Z</time>
      </trkpt>
      <trkpt lat="43.93101" lon="1.8474">
        <ele>954.40002441406</ele>
        <time>2019-06-27T17:57:14.000Z</time>
      </trkpt>
      <trkpt lat="43.93098" lon="1.84739">
        <ele>954.20001220703</ele>
        <time>2019-06-27T17:57:15.000Z</time>
      </trkpt>
      <trkpt lat="43.93095" lon="1.84738">
        <ele>953.79998779297</ele>
        <time>2019-06-27T17:57:16.000Z</time>
      </trkpt>
      <trkpt lat="43.93092" lon="1.84738">
        <ele>953.59997558594</ele>
        <time>2019-06-27T17:57:17.000Z</time>
      </trkpt>
      <trkpt lat="43.93088" lon="1.84736">
        <ele>953.59997558594</ele>
        <time>2019-06-27T17:57:18.000Z</time>
      </trkpt>
      <trkpt lat="43.93085" lon="1.84735">
        <ele>953.20001220703</ele>
        <time>2019-06-27T17:57:19.000Z</time>
      </trkpt>
      <trkpt lat="43.93081" lon="1.84733">
        <ele>953</ele>
        <time>2019-06-27T17:57:20.000Z</time>
      </trkpt>
      <trkpt lat="43.93076" lon="1.84731">
        <ele>952.40002441406</ele>
        <time>2019-06-27T17:57:21.000Z</time>
      </trkpt>
      <trkpt lat="43.93072" lon="1.8473">
        <ele>952.20001220703</ele>
        <time>2019-06-27T17:57:22.000Z</time>
      </trkpt>
      <trkpt lat="43.93068" lon="1.84728">
        <ele>952.20001220703</ele>
        <time>2019-06-27T17:57:23.000Z</time>
      </trkpt>
      <trkpt lat="43.93063" lon="1.84727">
        <ele>952.20001220703</ele>
        <time>2019-06-27T17:57:24.000Z</time>
      </trkpt>
      <trkpt lat="43.93058" lon="1.84726">
        <ele>952</ele>
        <time>2019-06-27T17:57:25.000Z</time>
      </trkpt>
      <trkpt lat="43.93053" lon="1.84725">
        <ele>951.59997558594</ele>
        <time>2019-06-27T17:57:26.000Z</time>
      </trkpt>
      <trkpt lat="43.93048" lon="1.84724">
        <ele>951.40002441406</ele>
        <time>2019-06-27T17:57:27.000Z</time>
      </trkpt>
      <trkpt lat="43.93044" lon="1.84723">
        <ele>951.20001220703</ele>
        <time>2019-06-27T17:57:28.000Z</time>
      </trkpt>
      <trkpt lat="43.93039" lon="1.84723">
        <ele>951.20001220703</ele>
        <time>2019-06-27T17:57:29.000Z</time>
      </trkpt>
      <trkpt lat="43.93034" lon="1.84722">
        <ele>951</ele>
        <time>2019-06-27T17:57:30.000Z</time>
      </trkpt>
      <trkpt lat="43.9303" lon="1.84722">
        <ele>950.79998779297</ele>
        <time>2019-06-27T17:57:31.000Z</time>
      </trkpt>
      <trkpt lat="43.93025" lon="1.84721">
        <ele>950.79998779297</ele>
        <time>2019-06-27T17:57:32.000Z</time>
      </trkpt>
      <trkpt lat="43.9302" lon="1.84721">
        <ele>950.40002441406</ele>
        <time>2019-06-27T17:57:33.000Z</time>
      </trkpt>
      <trkpt lat="43.93015" lon="1.8472">
        <ele>950.40002441406</ele>
        <time>2019-06-27T17:57:34.000Z</time>
      </trkpt>
      <trkpt lat="43.9301" lon="1.84718">
        <ele>949.79998779297</ele>
        <time>2019-06-27T17:57:35.000Z</time>
      </trkpt>
      <trkpt lat="43.93005" lon="1.84716">
        <ele>950.20001220703</ele>
        <time>2019-06-27T17:57:36.000Z</time>
      </trkpt>
      <trkpt lat="43.93" lon="1.84715">
        <ele>950.20001220703</ele>
        <time>2019-06-27T17:57:37.000Z</time>
      </trkpt>
      <trkpt lat="43.92996" lon="1.84713">
        <ele>950.40002441406</ele>
        <time>2019-06-27T17:57:38.000Z</time>
      </trkpt>
      <trkpt lat="43.92991" lon="1.84711">
        <ele>950.20001220703</ele>
        <time>2019-06-27T17:57:39.000Z</time>
      </trkpt>
      <trkpt lat="43.92987" lon="1.8471">
        <ele>950</ele>
        <time>2019-06-27T17:57:40.000Z</time>
      </trkpt>
      <trkpt lat="43.92984" lon="1.8471">
        <ele>949.79998779297</ele>
        <time>2019-06-27T17:57:41.000Z</time>
      </trkpt>
      <trkpt lat="43.9298" lon="1.84711">
        <ele>949.59997558594</ele>
        <time>2019-06-27T17:57:42.000Z</time>
      </trkpt>
      <trkpt lat="43.92977" lon="1.84712">
        <ele>949.20001220703</ele>
        <time>2019-06-27T17:57:43.000Z</time>
      </trkpt>
      <trkpt lat="43.92973" lon="1.84714">
        <ele>949</ele>
        <time>2019-06-27T17:57:44.000Z</time>
      </trkpt>
      <trkpt lat="43.92969" lon="1.84714">
        <ele>948.79998779297</ele>
        <time>2019-06-27T17:57:45.000Z</time>
      </trkpt>
      <trkpt lat="43.92964" lon="1.84713">
        <ele>948.59997558594</ele>
        <time>2019-06-27T17:57:46.000Z</time>
      </trkpt>
      <trkpt lat="43.92959" lon="1.84712">
        <ele>948.40002441406</ele>
        <time>2019-06-27T17:57:47.000Z</time>
      </trkpt>
      <trkpt lat="43.92953" lon="1.84712">
        <ele>948</ele>
        <time>2019-06-27T17:57:48.000Z</time>
      </trkpt>
      <trkpt lat="43.92947" lon="1.84712">
        <ele>947.79998779297</ele>
        <time>2019-06-27T17:57:49.000Z</time>
      </trkpt>
      <trkpt lat="43.92942" lon="1.84712">
        <ele>947.40002441406</ele>
        <time>2019-06-27T17:57:50.000Z</time>
      </trkpt>
      <trkpt lat="43.92937" lon="1.84712">
        <ele>946.79998779297</ele>
        <time>2019-06-27T17:57:51.000Z</time>
      </trkpt>
      <trkpt lat="43.92933" lon="1.84712">
        <ele>946.40002441406</ele>
        <time>2019-06-27T17:57:52.000Z</time>
      </trkpt>
      <trkpt lat="43.92929" lon="1.84712">
        <ele>946</ele>
        <time>2019-06-27T17:57:53.000Z</time>
      </trkpt>
      <trkpt lat="43.92926" lon="1.84711">
        <ele>946</ele>
        <time>2019-06-27T17:57:54.000Z</time>
      </trkpt>
      <trkpt lat="43.92923" lon="1.8471">
        <ele>945.79998779297</ele>
        <time>2019-06-27T17:57:55.000Z</time>
      </trkpt>
      <trkpt lat="43.92922" lon="1.84709">
        <ele>945.79998779297</ele>
        <time>2019-06-27T17:57:56.000Z</time>
      </trkpt>
      <trkpt lat="43.92921" lon="1.84707">
        <ele>945.59997558594</ele>
        <time>2019-06-27T17:57:57.000Z</time>
      </trkpt>
      <trkpt lat="43.9292" lon="1.84706">
        <ele>945.40002441406</ele>
        <time>2019-06-27T17:57:58.000Z</time>
      </trkpt>
      <trkpt lat="43.92921" lon="1.84705">
        <ele>945.20001220703</ele>
        <time>2019-06-27T17:57:59.000Z</time>
      </trkpt>
      <trkpt lat="43.92922" lon="1.84704">
        <ele>945.20001220703</ele>
        <time>2019-06-27T17:58:00.000Z</time>
      </trkpt>
      <trkpt lat="43.92922" lon="1.84703">
        <ele>945.20001220703</ele>
        <time>2019-06-27T17:58:01.000Z</time>
      </trkpt>
      <trkpt lat="43.92923" lon="1.84703">
        <ele>945.20001220703</ele>
        <time>2019-06-27T17:58:02.000Z</time>
      </trkpt>
      <trkpt lat="43.92924" lon="1.84705">
        <ele>945.40002441406</ele>
        <time>2019-06-27T17:58:03.000Z</time>
      </trkpt>
      <trkpt lat="43.92924" lon="1.84707">
        <ele>945.40002441406</ele>
        <time>2019-06-27T17:58:04.000Z</time>
      </trkpt>
      <trkpt lat="43.92924" lon="1.84708">
        <ele>945.40002441406</ele>
        <time>2019-06-27T17:58:05.000Z</time>
      </trkpt>
      <trkpt lat="43.92922" lon="1.84709">
        <ele>945.59997558594</ele>
        <time>2019-06-27T17:58:06.000Z</time>
      </trkpt>
      <trkpt lat="43.92921" lon="1.84709">
        <ele>945.59997558594</ele>
        <time>2019-06-27T17:58:07.000Z</time>
      </trkpt>
      <trkpt lat="43.9292" lon="1.84707">
        <ele>945.40002441406</ele>
        <time>2019-06-27T17:58:08.000Z</time>
      </trkpt>
      <trkpt lat="43.92919" lon="1.84705">
        <ele>945.40002441406</ele>
        <time>2019-06-27T17:58:09.000Z</time>
      </trkpt>
      <trkpt lat="43.9292" lon="1.84703">
        <ele>945.40002441406</ele>
        <time>2019-06-27T17:58:10.000Z</time>
      </trkpt>
      <trkpt lat="43.92921" lon="1.84702">
        <ele>945.59997558594</ele>
        <time>2019-06-27T17:58:11.000Z</time>
      </trkpt>
      <trkpt lat="43.92922" lon="1.84703">
        <ele>945.40002441406</ele>
        <time>2019-06-27T17:58:12.000Z</time>
      </trkpt>
      <trkpt lat="43.92923" lon="1.84704">
        <ele>945.40002441406</ele>
        <time>2019-06-27T17:58:13.000Z</time>
      </trkpt>
      <trkpt lat="43.92924" lon="1.84706">
        <ele>945.40002441406</ele>
        <time>2019-06-27T17:58:14.000Z</time>
      </trkpt>
      <trkpt lat="43.92924" lon="1.84708">
        <ele>945.40002441406</ele>
        <time>2019-06-27T17:58:15.000Z</time>
      </trkpt>
      <trkpt lat="43.92923" lon="1.84709">
        <ele>945.40002441406</ele>
        <time>2019-06-27T17:58:16.000Z</time>
      </trkpt>
      <trkpt lat="43.92922" lon="1.8471">
        <ele>945.40002441406</ele>
        <time>2019-06-27T17:58:17.000Z</time>
      </trkpt>
      <trkpt lat="43.92921" lon="1.8471">
        <ele>945.40002441406</ele>
        <time>2019-06-27T17:58:18.000Z</time>
      </trkpt>
      <trkpt lat="43.92919" lon="1.84709">
        <ele>945.40002441406</ele>
        <time>2019-06-27T17:58:19.000Z</time>
      </trkpt>
      <trkpt lat="43.92918" lon="1.84708">
        <ele>945.20001220703</ele>
        <time>2019-06-27T17:58:20.000Z</time>
      </trkpt>
      <trkpt lat="43.92918" lon="1.84706">
        <ele>945.20001220703</ele>
        <time>2019-06-27T17:58:21.000Z</time>
      </trkpt>
      <trkpt lat="43.92919" lon="1.84704">
        <ele>945.20001220703</ele>
        <time>2019-06-27T17:58:22.000Z</time>
      </trkpt>
      <trkpt lat="43.9292" lon="1.84703">
        <ele>945.20001220703</ele>
        <time>2019-06-27T17:58:23.000Z</time>
      </trkpt>
      <trkpt lat="43.92921" lon="1.84702">
        <ele>945.20001220703</ele>
        <time>2019-06-27T17:58:24.000Z</time>
      </trkpt>
      <trkpt lat="43.92922" lon="1.84701">
        <ele>945.20001220703</ele>
        <time>2019-06-27T17:58:25.000Z</time>
      </trkpt>
      <trkpt lat="43.92923" lon="1.847">
        <ele>945.20001220703</ele>
        <time>2019-06-27T17:58:26.000Z</time>
      </trkpt>
      <trkpt lat="43.92924" lon="1.84701">
        <ele>945.40002441406</ele>
        <time>2019-06-27T17:58:27.000Z</time>
      </trkpt>
      <trkpt lat="43.92925" lon="1.84702">
        <ele>945.40002441406</ele>
        <time>2019-06-27T17:58:28.000Z</time>
      </trkpt>
      <trkpt lat="43.92926" lon="1.84703">
        <ele>945.40002441406</ele>
        <time>2019-06-27T17:58:29.000Z</time>
      </trkpt>
      <trkpt lat="43.92927" lon="1.84705">
        <ele>945.59997558594</ele>
        <time>2019-06-27T17:58:30.000Z</time>
      </trkpt>
      <trkpt lat="43.92928" lon="1.84707">
        <ele>945.40002441406</ele>
        <time>2019-06-27T17:58:31.000Z</time>
      </trkpt>
      <trkpt lat="43.9293" lon="1.84708">
        <ele>945.59997558594</ele>
        <time>2019-06-27T17:58:32.000Z</time>
      </trkpt>
      <trkpt lat="43.92931" lon="1.84709">
        <ele>945.59997558594</ele>
        <time>2019-06-27T17:58:33.000Z</time>
      </trkpt>
      <trkpt lat="43.92932" lon="1.8471">
        <ele>945.79998779297</ele>
        <time>2019-06-27T17:58:34.000Z</time>
      </trkpt>
      <trkpt lat="43.92933" lon="1.84711">
        <ele>945.79998779297</ele>
        <time>2019-06-27T17:58:35.000Z</time>
      </trkpt>
      <trkpt lat="43.92934" lon="1.8471">
        <ele>945.79998779297</ele>
        <time>2019-06-27T17:58:36.000Z</time>
      </trkpt>
      <trkpt lat="43.92934" lon="1.8471">
        <ele>945.79998779297</ele>
        <time>2019-06-27T17:58:37.000Z</time>
      </trkpt>
      <trkpt lat="43.92935" lon="1.84709">
        <ele>945.79998779297</ele>
        <time>2019-06-27T17:58:38.000Z</time>
      </trkpt>
      <trkpt lat="43.92934" lon="1.84708">
        <ele>945.79998779297</ele>
        <time>2019-06-27T17:58:39.000Z</time>
      </trkpt>
      <trkpt lat="43.92933" lon="1.84707">
        <ele>945.79998779297</ele>
        <time>2019-06-27T17:58:40.000Z</time>
      </trkpt>
      <trkpt lat="43.92931" lon="1.84707">
        <ele>945.79998779297</ele>
        <time>2019-06-27T17:58:41.000Z</time>
      </trkpt>
      <trkpt lat="43.92929" lon="1.84706">
        <ele>945.79998779297</ele>
        <time>2019-06-27T17:58:42.000Z</time>
      </trkpt>
      <trkpt lat="43.92928" lon="1.84704">
        <ele>945.79998779297</ele>
        <time>2019-06-27T17:58:43.000Z</time>
      </trkpt>
      <trkpt lat="43.92927" lon="1.84701">
        <ele>945.59997558594</ele>
        <time>2019-06-27T17:58:44.000Z</time>
      </trkpt>
      <trkpt lat="43.92927" lon="1.84698">
        <ele>945.59997558594</ele>
        <time>2019-06-27T17:58:45.000Z</time>
      </trkpt>
      <trkpt lat="43.92927" lon="1.84696">
        <ele>945.59997558594</ele>
        <time>2019-06-27T17:58:46.000Z</time>
      </trkpt>
      <trkpt lat="43.92929" lon="1.84694">
        <ele>945.79998779297</ele>
        <time>2019-06-27T17:58:47.000Z</time>
      </trkpt>
      <trkpt lat="43.9293" lon="1.84693">
        <ele>945.79998779297</ele>
        <time>2019-06-27T17:58:48.000Z</time>
      </trkpt>
      <trkpt lat="43.92932" lon="1.84693">
        <ele>946</ele>
        <time>2019-06-27T17:58:49.000Z</time>
      </trkpt>
      <trkpt lat="43.92933" lon="1.84692">
        <ele>946</ele>
        <time>2019-06-27T17:58:50.000Z</time>
      </trkpt>
      <trkpt lat="43.92934" lon="1.84691">
        <ele>946</ele>
        <time>2019-06-27T17:58:51.000Z</time>
      </trkpt>
      <trkpt lat="43.92935" lon="1.8469">
        <ele>946.20001220703</ele>
        <time>2019-06-27T17:58:52.000Z</time>
      </trkpt>
      <trkpt lat="43.92936" lon="1.84688">
        <ele>946.20001220703</ele>
        <time>2019-06-27T17:58:53.000Z</time>
      </trkpt>
      <trkpt lat="43.92938" lon="1.84687">
        <ele>946.40002441406</ele>
        <time>2019-06-27T17:58:54.000Z</time>
      </trkpt>
      <trkpt lat="43.92939" lon="1.84686">
        <ele>946.40002441406</ele>
        <time>2019-06-27T17:58:55.000Z</time>
      </trkpt>
      <trkpt lat="43.9294" lon="1.84683">
        <ele>946.59997558594</ele>
        <time>2019-06-27T17:58:56.000Z</time>
      </trkpt>
      <trkpt lat="43.92942" lon="1.84682">
        <ele>946.79998779297</ele>
        <time>2019-06-27T17:58:57.000Z</time>
      </trkpt>
      <trkpt lat="43.92944" lon="1.8468">
        <ele>947</ele>
        <time>2019-06-27T17:58:58.000Z</time>
      </trkpt>
      <trkpt lat="43.92946" lon="1.84679">
        <ele>947</ele>
        <time>2019-06-27T17:58:59.000Z</time>
      </trkpt>
      <trkpt lat="43.92947" lon="1.84676">
        <ele>947.20001220703</ele>
        <time>2019-06-27T17:59:00.000Z</time>
      </trkpt>
      <trkpt lat="43.92949" lon="1.84674">
        <ele>947.40002441406</ele>
        <time>2019-06-27T17:59:01.000Z</time>
      </trkpt>
      <trkpt lat="43.9295" lon="1.84672">
        <ele>947.59997558594</ele>
        <time>2019-06-27T17:59:02.000Z</time>
      </trkpt>
      <trkpt lat="43.92952" lon="1.8467">
        <ele>947.79998779297</ele>
        <time>2019-06-27T17:59:03.000Z</time>
      </trkpt>
      <trkpt lat="43.92953" lon="1.84669">
        <ele>948</ele>
        <time>2019-06-27T17:59:04.000Z</time>
      </trkpt>
      <trkpt lat="43.92955" lon="1.84667">
        <ele>948</ele>
        <time>2019-06-27T17:59:05.000Z</time>
      </trkpt>
      <trkpt lat="43.92957" lon="1.84665">
        <ele>948.20001220703</ele>
        <time>2019-06-27T17:59:06.000Z</time>
      </trkpt>
      <trkpt lat="43.92958" lon="1.84663">
        <ele>948.20001220703</ele>
        <time>2019-06-27T17:59:07.000Z</time>
      </trkpt>
      <trkpt lat="43.9296" lon="1.84661">
        <ele>948.40002441406</ele>
        <time>2019-06-27T17:59:08.000Z</time>
      </trkpt>
      <trkpt lat="43.92962" lon="1.84659">
        <ele>948.59997558594</ele>
        <time>2019-06-27T17:59:09.000Z</time>
      </trkpt>
      <trkpt lat="43.92963" lon="1.84658">
        <ele>948.79998779297</ele>
        <time>2019-06-27T17:59:10.000Z</time>
      </trkpt>
      <trkpt lat="43.92965" lon="1.84656">
        <ele>949</ele>
        <time>2019-06-27T17:59:11.000Z</time>
      </trkpt>
      <trkpt lat="43.92966" lon="1.84653">
        <ele>949.20001220703</ele>
        <time>2019-06-27T17:59:12.000Z</time>
      </trkpt>
      <trkpt lat="43.92968" lon="1.84651">
        <ele>949.40002441406</ele>
        <time>2019-06-27T17:59:13.000Z</time>
      </trkpt>
      <trkpt lat="43.9297" lon="1.84649">
        <ele>949.59997558594</ele>
        <time>2019-06-27T17:59:14.000Z</time>
      </trkpt>
      <trkpt lat="43.92971" lon="1.84647">
        <ele>949.79998779297</ele>
        <time>2019-06-27T17:59:15.000Z</time>
      </trkpt>
      <trkpt lat="43.92973" lon="1.84646">
        <ele>949.79998779297</ele>
        <time>2019-06-27T17:59:16.000Z</time>
      </trkpt>
      <trkpt lat="43.92974" lon="1.84644">
        <ele>950.20001220703</ele>
        <time>2019-06-27T17:59:17.000Z</time>
      </trkpt>
      <trkpt lat="43.92976" lon="1.84642">
        <ele>950.40002441406</ele>
        <time>2019-06-27T17:59:18.000Z</time>
      </trkpt>
      <trkpt lat="43.92978" lon="1.8464">
        <ele>950.59997558594</ele>
        <time>2019-06-27T17:59:19.000Z</time>
      </trkpt>
      <trkpt lat="43.92979" lon="1.84638">
        <ele>950.59997558594</ele>
        <time>2019-06-27T17:59:20.000Z</time>
      </trkpt>
      <trkpt lat="43.92981" lon="1.84636">
        <ele>950.79998779297</ele>
        <time>2019-06-27T17:59:21.000Z</time>
      </trkpt>
      <trkpt lat="43.92982" lon="1.84634">
        <ele>951</ele>
        <time>2019-06-27T17:59:22.000Z</time>
      </trkpt>
      <trkpt lat="43.92983" lon="1.84632">
        <ele>951.20001220703</ele>
        <time>2019-06-27T17:59:23.000Z</time>
      </trkpt>
      <trkpt lat="43.92985" lon="1.8463">
        <ele>951.40002441406</ele>
        <time>2019-06-27T17:59:24.000Z</time>
      </trkpt>
      <trkpt lat="43.92986" lon="1.84628">
        <ele>951.40002441406</ele>
        <time>2019-06-27T17:59:25.000Z</time>
      </trkpt>
      <trkpt lat="43.92988" lon="1.84626">
        <ele>951.59997558594</ele>
        <time>2019-06-27T17:59:26.000Z</time>
      </trkpt>
      <trkpt lat="43.92989" lon="1.84624">
        <ele>951.79998779297</ele>
        <time>2019-06-27T17:59:27.000Z</time>
      </trkpt>
      <trkpt lat="43.92991" lon="1.84622">
        <ele>952</ele>
        <time>2019-06-27T17:59:28.000Z</time>
      </trkpt>
      <trkpt lat="43.92993" lon="1.8462">
        <ele>952</ele>
        <time>2019-06-27T17:59:29.000Z</time>
      </trkpt>
      <trkpt lat="43.92994" lon="1.84618">
        <ele>952.20001220703</ele>
        <time>2019-06-27T17:59:30.000Z</time>
      </trkpt>
      <trkpt lat="43.92996" lon="1.84616">
        <ele>952.40002441406</ele>
        <time>2019-06-27T17:59:31.000Z</time>
      </trkpt>
      <trkpt lat="43.92998" lon="1.84614">
        <ele>952.59997558594</ele>
        <time>2019-06-27T17:59:32.000Z</time>
      </trkpt>
      <trkpt lat="43.93" lon="1.84612">
        <ele>952.59997558594</ele>
        <time>2019-06-27T17:59:33.000Z</time>
      </trkpt>
      <trkpt lat="43.93001" lon="1.8461">
        <ele>952.79998779297</ele>
        <time>2019-06-27T17:59:34.000Z</time>
      </trkpt>
      <trkpt lat="43.93003" lon="1.84609">
        <ele>953</ele>
        <time>2019-06-27T17:59:35.000Z</time>
      </trkpt>
      <trkpt lat="43.93004" lon="1.84607">
        <ele>953</ele>
        <time>2019-06-27T17:59:36.000Z</time>
      </trkpt>
      <trkpt lat="43.93006" lon="1.84605">
        <ele>953.20001220703</ele>
        <time>2019-06-27T17:59:37.000Z</time>
      </trkpt>
      <trkpt lat="43.93008" lon="1.84603">
        <ele>953.20001220703</ele>
        <time>2019-06-27T17:59:38.000Z</time>
      </trkpt>
      <trkpt lat="43.93009" lon="1.84602">
        <ele>953.40002441406</ele>
        <time>2019-06-27T17:59:39.000Z</time>
      </trkpt>
      <trkpt lat="43.93011" lon="1.846">
        <ele>953.59997558594</ele>
        <time>2019-06-27T17:59:40.000Z</time>
      </trkpt>
      <trkpt lat="43.93013" lon="1.84598">
        <ele>953.59997558594</ele>
        <time>2019-06-27T17:59:41.000Z</time>
      </trkpt>
      <trkpt lat="43.93015" lon="1.84596">
        <ele>953.79998779297</ele>
        <time>2019-06-27T17:59:42.000Z</time>
      </trkpt>
      <trkpt lat="43.93017" lon="1.84593">
        <ele>953.79998779297</ele>
        <time>2019-06-27T17:59:43.000Z</time>
      </trkpt>
      <trkpt lat="43.93018" lon="1.84591">
        <ele>953.79998779297</ele>
        <time>2019-06-27T17:59:44.000Z</time>
      </trkpt>
      <trkpt lat="43.9302" lon="1.84589">
        <ele>954.20001220703</ele>
        <time>2019-06-27T17:59:45.000Z</time>
      </trkpt>
      <trkpt lat="43.93021" lon="1.84586">
        <ele>954.20001220703</ele>
        <time>2019-06-27T17:59:46.000Z</time>
      </trkpt>
      <trkpt lat="43.93023" lon="1.84584">
        <ele>954.40002441406</ele>
        <time>2019-06-27T17:59:47.000Z</time>
      </trkpt>
      <trkpt lat="43.93025" lon="1.84582">
        <ele>954.40002441406</ele>
        <time>2019-06-27T17:59:48.000Z</time>
      </trkpt>
      <trkpt lat="43.93027" lon="1.8458">
        <ele>954.40002441406</ele>
        <time>2019-06-27T17:59:49.000Z</time>
      </trkpt>
      <trkpt lat="43.93028" lon="1.84579">
        <ele>954.59997558594</ele>
        <time>2019-06-27T17:59:50.000Z</time>
      </trkpt>
      <trkpt lat="43.93029" lon="1.84577">
        <ele>954.40002441406</ele>
        <time>2019-06-27T17:59:51.000Z</time>
      </trkpt>
      <trkpt lat="43.9303" lon="1.84575">
        <ele>954.59997558594</ele>
        <time>2019-06-27T17:59:52.000Z</time>
      </trkpt>
      <trkpt lat="43.93031" lon="1.84574">
        <ele>954.59997558594</ele>
        <time>2019-06-27T17:59:53.000Z</time>
      </trkpt>
      <trkpt lat="43.93033" lon="1.84572">
        <ele>954.79998779297</ele>
        <time>2019-06-27T17:59:54.000Z</time>
      </trkpt>
      <trkpt lat="43.93035" lon="1.84571">
        <ele>954.79998779297</ele>
        <time>2019-06-27T17:59:55.000Z</time>
      </trkpt>
      <trkpt lat="43.93037" lon="1.84569">
        <ele>954.79998779297</ele>
        <time>2019-06-27T17:59:56.000Z</time>
      </trkpt>
      <trkpt lat="43.93039" lon="1.84567">
        <ele>954.79998779297</ele>
        <time>2019-06-27T17:59:57.000Z</time>
      </trkpt>
      <trkpt lat="43.93041" lon="1.84565">
        <ele>954.79998779297</ele>
        <time>2019-06-27T17:59:58.000Z</time>
      </trkpt>
      <trkpt lat="43.93043" lon="1.84562">
        <ele>954.79998779297</ele>
        <time>2019-06-27T17:59:59.000Z</time>
      </trkpt>
      <trkpt lat="43.93045" lon="1.8456">
        <ele>954.79998779297</ele>
        <time>2019-06-27T18:00:00.000Z</time>
      </trkpt>
      <trkpt lat="43.93048" lon="1.84557">
        <ele>954.79998779297</ele>
        <time>2019-06-27T18:00:01.000Z</time>
      </trkpt>
      <trkpt lat="43.93051" lon="1.84554">
        <ele>954.79998779297</ele>
        <time>2019-06-27T18:00:02.000Z</time>
      </trkpt>
      <trkpt lat="43.93053" lon="1.84551">
        <ele>954.59997558594</ele>
        <time>2019-06-27T18:00:03.000Z</time>
      </trkpt>
      <trkpt lat="43.93056" lon="1.84548">
        <ele>954.59997558594</ele>
        <time>2019-06-27T18:00:04.000Z</time>
      </trkpt>
      <trkpt lat="43.93059" lon="1.84545">
        <ele>954.59997558594</ele>
        <time>2019-06-27T18:00:05.000Z</time>
      </trkpt>
      <trkpt lat="43.93063" lon="1.84542">
        <ele>954.59997558594</ele>
        <time>2019-06-27T18:00:06.000Z</time>
      </trkpt>
      <trkpt lat="43.93066" lon="1.84538">
        <ele>954.40002441406</ele>
        <time>2019-06-27T18:00:07.000Z</time>
      </trkpt>
      <trkpt lat="43.9307" lon="1.84534">
        <ele>954.40002441406</ele>
        <time>2019-06-27T18:00:08.000Z</time>
      </trkpt>
      <trkpt lat="43.93074" lon="1.8453">
        <ele>954.20001220703</ele>
        <time>2019-06-27T18:00:09.000Z</time>
      </trkpt>
      <trkpt lat="43.93077" lon="1.84526">
        <ele>954.20001220703</ele>
        <time>2019-06-27T18:00:10.000Z</time>
      </trkpt>
      <trkpt lat="43.93081" lon="1.84522">
        <ele>954</ele>
        <time>2019-06-27T18:00:11.000Z</time>
      </trkpt>
      <trkpt lat="43.93085" lon="1.84518">
        <ele>954</ele>
        <time>2019-06-27T18:00:12.000Z</time>
      </trkpt>
      <trkpt lat="43.93089" lon="1.84514">
        <ele>954</ele>
        <time>2019-06-27T18:00:13.000Z</time>
      </trkpt>
      <trkpt lat="43.93093" lon="1.84509">
        <ele>953.79998779297</ele>
        <time>2019-06-27T18:00:14.000Z</time>
      </trkpt>
      <trkpt lat="43.93097" lon="1.84505">
        <ele>953.59997558594</ele>
        <time>2019-06-27T18:00:15.000Z</time>
      </trkpt>
      <trkpt lat="43.93101" lon="1.84501">
        <ele>953.59997558594</ele>
        <time>2019-06-27T18:00:16.000Z</time>
      </trkpt>
      <trkpt lat="43.93104" lon="1.84496">
        <ele>953.59997558594</ele>
        <time>2019-06-27T18:00:17.000Z</time>
      </trkpt>
      <trkpt lat="43.93108" lon="1.84492">
        <ele>953.59997558594</ele>
        <time>2019-06-27T18:00:18.000Z</time>
      </trkpt>
      <trkpt lat="43.93112" lon="1.84488">
        <ele>953.40002441406</ele>
        <time>2019-06-27T18:00:19.000Z</time>
      </trkpt>
      <trkpt lat="43.93116" lon="1.84483">
        <ele>953.40002441406</ele>
        <time>2019-06-27T18:00:20.000Z</time>
      </trkpt>
      <trkpt lat="43.93119" lon="1.84479">
        <ele>953.20001220703</ele>
        <time>2019-06-27T18:00:21.000Z</time>
      </trkpt>
      <trkpt lat="43.93123" lon="1.84474">
        <ele>953.20001220703</ele>
        <time>2019-06-27T18:00:22.000Z</time>
      </trkpt>
      <trkpt lat="43.93126" lon="1.8447">
        <ele>953.20001220703</ele>
        <time>2019-06-27T18:00:23.000Z</time>
      </trkpt>
      <trkpt lat="43.93129" lon="1.84466">
        <ele>953.20001220703</ele>
        <time>2019-06-27T18:00:24.000Z</time>
      </trkpt>
      <trkpt lat="43.9313" lon="1.8446">
        <ele>953.20001220703</ele>
        <time>2019-06-27T18:00:25.000Z</time>
      </trkpt>
      <trkpt lat="43.9313" lon="1.84453">
        <ele>953</ele>
        <time>2019-06-27T18:00:26.000Z</time>
      </trkpt>
      <trkpt lat="43.93128" lon="1.84447">
        <ele>952.79998779297</ele>
        <time>2019-06-27T18:00:27.000Z</time>
      </trkpt>
      <trkpt lat="43.93124" lon="1.84442">
        <ele>952.59997558594</ele>
        <time>2019-06-27T18:00:28.000Z</time>
      </trkpt>
      <trkpt lat="43.93121" lon="1.84436">
        <ele>952.59997558594</ele>
        <time>2019-06-27T18:00:29.000Z</time>
      </trkpt>
      <trkpt lat="43.93119" lon="1.8443">
        <ele>952.59997558594</ele>
        <time>2019-06-27T18:00:30.000Z</time>
      </trkpt>
      <trkpt lat="43.93116" lon="1.84425">
        <ele>952.59997558594</ele>
        <time>2019-06-27T18:00:31.000Z</time>
      </trkpt>
      <trkpt lat="43.93113" lon="1.84419">
        <ele>952.59997558594</ele>
        <time>2019-06-27T18:00:32.000Z</time>
      </trkpt>
      <trkpt lat="43.93111" lon="1.84413">
        <ele>952.40002441406</ele>
        <time>2019-06-27T18:00:33.000Z</time>
      </trkpt>
      <trkpt lat="43.93108" lon="1.84408">
        <ele>952.20001220703</ele>
        <time>2019-06-27T18:00:34.000Z</time>
      </trkpt>
      <trkpt lat="43.93106" lon="1.84402">
        <ele>952.40002441406</ele>
        <time>2019-06-27T18:00:35.000Z</time>
      </trkpt>
      <trkpt lat="43.93104" lon="1.84397">
        <ele>952.40002441406</ele>
        <time>2019-06-27T18:00:36.000Z</time>
      </trkpt>
      <trkpt lat="43.93102" lon="1.84392">
        <ele>952.40002441406</ele>
        <time>2019-06-27T18:00:37.000Z</time>
      </trkpt>
      <trkpt lat="43.931" lon="1.84387">
        <ele>952.40002441406</ele>
        <time>2019-06-27T18:00:38.000Z</time>
      </trkpt>
      <trkpt lat="43.93098" lon="1.84383">
        <ele>952.20001220703</ele>
        <time>2019-06-27T18:00:39.000Z</time>
      </trkpt>
      <trkpt lat="43.93096" lon="1.84378">
        <ele>952.20001220703</ele>
        <time>2019-06-27T18:00:40.000Z</time>
      </trkpt>
      <trkpt lat="43.93094" lon="1.84374">
        <ele>952.20001220703</ele>
        <time>2019-06-27T18:00:41.000Z</time>
      </trkpt>
      <trkpt lat="43.93092" lon="1.84369">
        <ele>952.20001220703</ele>
        <time>2019-06-27T18:00:42.000Z</time>
      </trkpt>
      <trkpt lat="43.9309" lon="1.84364">
        <ele>952.20001220703</ele>
        <time>2019-06-27T18:00:43.000Z</time>
      </trkpt>
      <trkpt lat="43.93088" lon="1.8436">
        <ele>952.20001220703</ele>
        <time>2019-06-27T18:00:44.000Z</time>
      </trkpt>
      <trkpt lat="43.93086" lon="1.84355">
        <ele>952.40002441406</ele>
        <time>2019-06-27T18:00:45.000Z</time>
      </trkpt>
      <trkpt lat="43.93083" lon="1.8435">
        <ele>952.59997558594</ele>
        <time>2019-06-27T18:00:46.000Z</time>
      </trkpt>
      <trkpt lat="43.93081" lon="1.84346">
        <ele>952.40002441406</ele>
        <time>2019-06-27T18:00:47.000Z</time>
      </trkpt>
      <trkpt lat="43.93078" lon="1.84341">
        <ele>952.40002441406</ele>
        <time>2019-06-27T18:00:48.000Z</time>
      </trkpt>
      <trkpt lat="43.93076" lon="1.84336">
        <ele>952.59997558594</ele>
        <time>2019-06-27T18:00:49.000Z</time>
      </trkpt>
      <trkpt lat="43.93073" lon="1.84331">
        <ele>952.59997558594</ele>
        <time>2019-06-27T18:00:50.000Z</time>
      </trkpt>
      <trkpt lat="43.9307" lon="1.84326">
        <ele>952.79998779297</ele>
        <time>2019-06-27T18:00:51.000Z</time>
      </trkpt>
      <trkpt lat="43.93068" lon="1.84321">
        <ele>952.79998779297</ele>
        <time>2019-06-27T18:00:52.000Z</time>
      </trkpt>
      <trkpt lat="43.93066" lon="1.84316">
        <ele>953</ele>
        <time>2019-06-27T18:00:53.000Z</time>
      </trkpt>
      <trkpt lat="43.93063" lon="1.84311">
        <ele>953</ele>
        <time>2019-06-27T18:00:54.000Z</time>
      </trkpt>
      <trkpt lat="43.9306" lon="1.84306">
        <ele>953.20001220703</ele>
        <time>2019-06-27T18:00:55.000Z</time>
      </trkpt>
      <trkpt lat="43.93058" lon="1.84302">
        <ele>953.40002441406</ele>
        <time>2019-06-27T18:00:56.000Z</time>
      </trkpt>
      <trkpt lat="43.93056" lon="1.84296">
        <ele>953.40002441406</ele>
        <time>2019-06-27T18:00:57.000Z</time>
      </trkpt>
      <trkpt lat="43.93053" lon="1.84291">
        <ele>953.40002441406</ele>
        <time>2019-06-27T18:00:58.000Z</time>
      </trkpt>
      <trkpt lat="43.93051" lon="1.84286">
        <ele>953.59997558594</ele>
        <time>2019-06-27T18:00:59.000Z</time>
      </trkpt>
      <trkpt lat="43.93048" lon="1.84281">
        <ele>953.79998779297</ele>
        <time>2019-06-27T18:01:00.000Z</time>
      </trkpt>
      <trkpt lat="43.93046" lon="1.84276">
        <ele>954</ele>
        <time>2019-06-27T18:01:01.000Z</time>
      </trkpt>
      <trkpt lat="43.93044" lon="1.8427">
        <ele>954.20001220703</ele>
        <time>2019-06-27T18:01:02.000Z</time>
      </trkpt>
      <trkpt lat="43.93041" lon="1.84265">
        <ele>954.20001220703</ele>
        <time>2019-06-27T18:01:03.000Z</time>
      </trkpt>
      <trkpt lat="43.93039" lon="1.8426">
        <ele>954.20001220703</ele>
        <time>2019-06-27T18:01:04.000Z</time>
      </trkpt>
      <trkpt lat="43.93036" lon="1.84255">
        <ele>954.40002441406</ele>
        <time>2019-06-27T18:01:05.000Z</time>
      </trkpt>
      <trkpt lat="43.93033" lon="1.84249">
        <ele>954.59997558594</ele>
        <time>2019-06-27T18:01:06.000Z</time>
      </trkpt>
      <trkpt lat="43.93031" lon="1.84244">
        <ele>954.59997558594</ele>
        <time>2019-06-27T18:01:07.000Z</time>
      </trkpt>
      <trkpt lat="43.93028" lon="1.84239">
        <ele>954.59997558594</ele>
        <time>2019-06-27T18:01:08.000Z</time>
      </trkpt>
      <trkpt lat="43.93025" lon="1.84234">
        <ele>954.79998779297</ele>
        <time>2019-06-27T18:01:09.000Z</time>
      </trkpt>
      <trkpt lat="43.93023" lon="1.84228">
        <ele>954.79998779297</ele>
        <time>2019-06-27T18:01:10.000Z</time>
      </trkpt>
      <trkpt lat="43.9302" lon="1.84223">
        <ele>955</ele>
        <time>2019-06-27T18:01:11.000Z</time>
      </trkpt>
      <trkpt lat="43.93017" lon="1.84217">
        <ele>955.20001220703</ele>
        <time>2019-06-27T18:01:12.000Z</time>
      </trkpt>
      <trkpt lat="43.93015" lon="1.84212">
        <ele>955.40002441406</ele>
        <time>2019-06-27T18:01:13.000Z</time>
      </trkpt>
      <trkpt lat="43.93012" lon="1.84206">
        <ele>955.59997558594</ele>
        <time>2019-06-27T18:01:14.000Z</time>
      </trkpt>
      <trkpt lat="43.9301" lon="1.84201">
        <ele>955.59997558594</ele>
        <time>2019-06-27T18:01:15.000Z</time>
      </trkpt>
      <trkpt lat="43.93009" lon="1.84195">
        <ele>955.59997558594</ele>
        <time>2019-06-27T18:01:16.000Z</time>
      </trkpt>
      <trkpt lat="43.93008" lon="1.84189">
        <ele>956</ele>
        <time>2019-06-27T18:01:17.000Z</time>
      </trkpt>
      <trkpt lat="43.93007" lon="1.84183">
        <ele>956.20001220703</ele>
        <time>2019-06-27T18:01:18.000Z</time>
      </trkpt>
      <trkpt lat="43.93006" lon="1.84178">
        <ele>956.40002441406</ele>
        <time>2019-06-27T18:01:19.000Z</time>
      </trkpt>
      <trkpt lat="43.93006" lon="1.84173">
        <ele>956.40002441406</ele>
        <time>2019-06-27T18:01:20.000Z</time>
      </trkpt>
      <trkpt lat="43.93006" lon="1.84168">
        <ele>956.79998779297</ele>
        <time>2019-06-27T18:01:21.000Z</time>
      </trkpt>
      <trkpt lat="43.93006" lon="1.84163">
        <ele>956.79998779297</ele>
        <time>2019-06-27T18:01:22.000Z</time>
      </trkpt>
      <trkpt lat="43.93006" lon="1.84158">
        <ele>957</ele>
        <time>2019-06-27T18:01:23.000Z</time>
      </trkpt>
      <trkpt lat="43.93006" lon="1.84154">
        <ele>957.20001220703</ele>
        <time>2019-06-27T18:01:24.000Z</time>
      </trkpt>
      <trkpt lat="43.93005" lon="1.84149">
        <ele>957.20001220703</ele>
        <time>2019-06-27T18:01:25.000Z</time>
      </trkpt>
      <trkpt lat="43.93004" lon="1.84145">
        <ele>957.20001220703</ele>
        <time>2019-06-27T18:01:26.000Z</time>
      </trkpt>
      <trkpt lat="43.93003" lon="1.8414">
        <ele>957.20001220703</ele>
        <time>2019-06-27T18:01:27.000Z</time>
      </trkpt>
      <trkpt lat="43.93002" lon="1.84135">
        <ele>957</ele>
        <time>2019-06-27T18:01:28.000Z</time>
      </trkpt>
      <trkpt lat="43.93001" lon="1.8413">
        <ele>956.79998779297</ele>
        <time>2019-06-27T18:01:29.000Z</time>
      </trkpt>
      <trkpt lat="43.92999" lon="1.84126">
        <ele>956.79998779297</ele>
        <time>2019-06-27T18:01:30.000Z</time>
      </trkpt>
      <trkpt lat="43.92998" lon="1.84121">
        <ele>956.59997558594</ele>
        <time>2019-06-27T18:01:31.000Z</time>
      </trkpt>
      <trkpt lat="43.92996" lon="1.84117">
        <ele>956.59997558594</ele>
        <time>2019-06-27T18:01:32.000Z</time>
      </trkpt>
      <trkpt lat="43.92995" lon="1.84113">
        <ele>956.59997558594</ele>
        <time>2019-06-27T18:01:33.000Z</time>
      </trkpt>
      <trkpt lat="43.92994" lon="1.84109">
        <ele>956.59997558594</ele>
        <time>2019-06-27T18:01:34.000Z</time>
      </trkpt>
      <trkpt lat="43.92993" lon="1.84106">
        <ele>956.40002441406</ele>
        <time>2019-06-27T18:01:35.000Z</time>
      </trkpt>
      <trkpt lat="43.92992" lon="1.84102">
        <ele>956.20001220703</ele>
        <time>2019-06-27T18:01:36.000Z</time>
      </trkpt>
      <trkpt lat="43.92991" lon="1.84098">
        <ele>956</ele>
        <time>2019-06-27T18:01:37.000Z</time>
      </trkpt>
      <trkpt lat="43.9299" lon="1.84094">
        <ele>956</ele>
        <time>2019-06-27T18:01:38.000Z</time>
      </trkpt>
      <trkpt lat="43.92988" lon="1.8409">
        <ele>956</ele>
        <time>2019-06-27T18:01:39.000Z</time>
      </trkpt>
      <trkpt lat="43.92986" lon="1.84086">
        <ele>955.79998779297</ele>
        <time>2019-06-27T18:01:40.000Z</time>
      </trkpt>
      <trkpt lat="43.92984" lon="1.84082">
        <ele>955.59997558594</ele>
        <time>2019-06-27T18:01:41.000Z</time>
      </trkpt>
      <trkpt lat="43.92982" lon="1.84079">
        <ele>955.59997558594</ele>
        <time>2019-06-27T18:01:42.000Z</time>
      </trkpt>
      <trkpt lat="43.92981" lon="1.84075">
        <ele>955.40002441406</ele>
        <time>2019-06-27T18:01:43.000Z</time>
      </trkpt>
      <trkpt lat="43.92979" lon="1.84071">
        <ele>955.40002441406</ele>
        <time>2019-06-27T18:01:44.000Z</time>
      </trkpt>
      <trkpt lat="43.92977" lon="1.84067">
        <ele>955</ele>
        <time>2019-06-27T18:01:45.000Z</time>
      </trkpt>
      <trkpt lat="43.92975" lon="1.84063">
        <ele>954.79998779297</ele>
        <time>2019-06-27T18:01:46.000Z</time>
      </trkpt>
      <trkpt lat="43.92972" lon="1.84059">
        <ele>954.59997558594</ele>
        <time>2019-06-27T18:01:47.000Z</time>
      </trkpt>
      <trkpt lat="43.9297" lon="1.84055">
        <ele>954.59997558594</ele>
        <time>2019-06-27T18:01:48.000Z</time>
      </trkpt>
      <trkpt lat="43.92967" lon="1.84051">
        <ele>954.59997558594</ele>
        <time>2019-06-27T18:01:49.000Z</time>
      </trkpt>
      <trkpt lat="43.92965" lon="1.84047">
        <ele>954.59997558594</ele>
        <time>2019-06-27T18:01:50.000Z</time>
      </trkpt>
      <trkpt lat="43.92964" lon="1.84044">
        <ele>954.40002441406</ele>
        <time>2019-06-27T18:01:51.000Z</time>
      </trkpt>
      <trkpt lat="43.92963" lon="1.84042">
        <ele>954.40002441406</ele>
        <time>2019-06-27T18:01:52.000Z</time>
      </trkpt>
      <trkpt lat="43.92961" lon="1.84039">
        <ele>954.20001220703</ele>
        <time>2019-06-27T18:01:53.000Z</time>
      </trkpt>
      <trkpt lat="43.9296" lon="1.84036">
        <ele>954.20001220703</ele>
        <time>2019-06-27T18:01:54.000Z</time>
      </trkpt>
      <trkpt lat="43.92959" lon="1.84034">
        <ele>954</ele>
        <time>2019-06-27T18:01:55.000Z</time>
      </trkpt>
      <trkpt lat="43.92958" lon="1.84033">
        <ele>954</ele>
        <time>2019-06-27T18:01:56.000Z</time>
      </trkpt>
      <trkpt lat="43.92958" lon="1.8403">
        <ele>954</ele>
        <time>2019-06-27T18:01:57.000Z</time>
      </trkpt>
      <trkpt lat="43.92958" lon="1.84028">
        <ele>954</ele>
        <time>2019-06-27T18:01:58.000Z</time>
      </trkpt>
      <trkpt lat="43.92957" lon="1.84027">
        <ele>953.79998779297</ele>
        <time>2019-06-27T18:01:59.000Z</time>
      </trkpt>
      <trkpt lat="43.92957" lon="1.84027">
        <ele>954</ele>
        <time>2019-06-27T18:02:00.000Z</time>
      </trkpt>
      <trkpt lat="43.92956" lon="1.84024">
        <ele>953.79998779297</ele>
        <time>2019-06-27T18:02:01.000Z</time>
      </trkpt>
      <trkpt lat="43.92956" lon="1.84023">
        <ele>953.59997558594</ele>
        <time>2019-06-27T18:02:02.000Z</time>
      </trkpt>
      <trkpt lat="43.92955" lon="1.84022">
        <ele>953.59997558594</ele>
        <time>2019-06-27T18:02:03.000Z</time>
      </trkpt>
      <trkpt lat="43.92955" lon="1.84022">
        <ele>953.59997558594</ele>
        <time>2019-06-27T18:02:04.000Z</time>
      </trkpt>
      <trkpt lat="43.92955" lon="1.8402">
        <ele>953.59997558594</ele>
        <time>2019-06-27T18:02:05.000Z</time>
      </trkpt>
      <trkpt lat="43.92955" lon="1.8402">
        <ele>953.59997558594</ele>
        <time>2019-06-27T18:02:06.000Z</time>
      </trkpt>
      <trkpt lat="43.92955" lon="1.8402">
        <ele>953.59997558594</ele>
        <time>2019-06-27T18:02:07.000Z</time>
      </trkpt>
      <trkpt lat="43.92955" lon="1.84018">
        <ele>953.59997558594</ele>
        <time>2019-06-27T18:02:08.000Z</time>
      </trkpt>
      <trkpt lat="43.92954" lon="1.84017">
        <ele>953.59997558594</ele>
        <time>2019-06-27T18:02:09.000Z</time>
      </trkpt>
      <trkpt lat="43.92954" lon="1.84017">
        <ele>953.59997558594</ele>
        <time>2019-06-27T18:02:10.000Z</time>
      </trkpt>
      <trkpt lat="43.92954" lon="1.84017">
        <ele>953.59997558594</ele>
        <time>2019-06-27T18:02:11.000Z</time>
      </trkpt>
      <trkpt lat="43.92954" lon="1.84017">
        <ele>953.59997558594</ele>
        <time>2019-06-27T18:02:12.000Z</time>
      </trkpt>
      <trkpt lat="43.92952" lon="1.84016">
        <ele>953.59997558594</ele>
        <time>2019-06-27T18:02:13.000Z</time>
      </trkpt>
      <trkpt lat="43.92952" lon="1.84016">
        <ele>953.59997558594</ele>
        <time>2019-06-27T18:02:14.000Z</time>
      </trkpt>
      <trkpt lat="43.92952" lon="1.84016">
        <ele>953.59997558594</ele>
        <time>2019-06-27T18:02:15.000Z</time>
      </trkpt>
      <trkpt lat="43.92951" lon="1.84016">
        <ele>953.79998779297</ele>
        <time>2019-06-27T18:02:16.000Z</time>
      </trkpt>
      <trkpt lat="43.92951" lon="1.84016">
        <ele>953.79998779297</ele>
        <time>2019-06-27T18:02:17.000Z</time>
      </trkpt>
      <trkpt lat="43.92951" lon="1.84016">
        <ele>953.79998779297</ele>
        <time>2019-06-27T18:02:18.000Z</time>
      </trkpt>
      <trkpt lat="43.92951" lon="1.84016">
        <ele>953.59997558594</ele>
        <time>2019-06-27T18:02:19.000Z</time>
      </trkpt>
      <trkpt lat="43.9295" lon="1.84016">
        <ele>953.59997558594</ele>
        <time>2019-06-27T18:02:20.000Z</time>
      </trkpt>
      <trkpt lat="43.9295" lon="1.84015">
        <ele>953.79998779297</ele>
        <time>2019-06-27T18:02:21.000Z</time>
      </trkpt>
      <trkpt lat="43.92949" lon="1.84014">
        <ele>953.59997558594</ele>
        <time>2019-06-27T18:02:22.000Z</time>
      </trkpt>
      <trkpt lat="43.92948" lon="1.84014">
        <ele>953.59997558594</ele>
        <time>2019-06-27T18:02:23.000Z</time>
      </trkpt>
      <trkpt lat="43.92948" lon="1.84013">
        <ele>953.40002441406</ele>
        <time>2019-06-27T18:02:24.000Z</time>
      </trkpt>
      <trkpt lat="43.92948" lon="1.84012">
        <ele>953.40002441406</ele>
        <time>2019-06-27T18:02:25.000Z</time>
      </trkpt>
      <trkpt lat="43.92948" lon="1.84011">
        <ele>953.40002441406</ele>
        <time>2019-06-27T18:02:26.000Z</time>
      </trkpt>
      <trkpt lat="43.92948" lon="1.84009">
        <ele>953.40002441406</ele>
        <time>2019-06-27T18:02:27.000Z</time>
      </trkpt>
      <trkpt lat="43.92948" lon="1.84009">
        <ele>953.40002441406</ele>
        <time>2019-06-27T18:02:28.000Z</time>
      </trkpt>
      <trkpt lat="43.92947" lon="1.84008">
        <ele>953.40002441406</ele>
        <time>2019-06-27T18:02:29.000Z</time>
      </trkpt>
      <trkpt lat="43.92947" lon="1.84008">
        <ele>953.20001220703</ele>
        <time>2019-06-27T18:02:30.000Z</time>
      </trkpt>
      <trkpt lat="43.92947" lon="1.84008">
        <ele>953.20001220703</ele>
        <time>2019-06-27T18:02:31.000Z</time>
      </trkpt>
      <trkpt lat="43.92947" lon="1.84008">
        <ele>953.20001220703</ele>
        <time>2019-06-27T18:02:32.000Z</time>
      </trkpt>
      <trkpt lat="43.92947" lon="1.84008">
        <ele>953.40002441406</ele>
        <time>2019-06-27T18:02:33.000Z</time>
      </trkpt>
      <trkpt lat="43.92946" lon="1.84007">
        <ele>953.40002441406</ele>
        <time>2019-06-27T18:02:34.000Z</time>
      </trkpt>
      <trkpt lat="43.92946" lon="1.84005">
        <ele>953.20001220703</ele>
        <time>2019-06-27T18:02:35.000Z</time>
      </trkpt>
      <trkpt lat="43.92946" lon="1.84004">
        <ele>953.20001220703</ele>
        <time>2019-06-27T18:02:36.000Z</time>
      </trkpt>
      <trkpt lat="43.92946" lon="1.84002">
        <ele>953.20001220703</ele>
        <time>2019-06-27T18:02:37.000Z</time>
      </trkpt>
      <trkpt lat="43.92946" lon="1.84">
        <ele>953.20001220703</ele>
        <time>2019-06-27T18:02:38.000Z</time>
      </trkpt>
      <trkpt lat="43.92945" lon="1.83998">
        <ele>953.20001220703</ele>
        <time>2019-06-27T18:02:39.000Z</time>
      </trkpt>
      <trkpt lat="43.92945" lon="1.83996">
        <ele>953.20001220703</ele>
        <time>2019-06-27T18:02:40.000Z</time>
      </trkpt>
      <trkpt lat="43.92945" lon="1.83993">
        <ele>953.20001220703</ele>
        <time>2019-06-27T18:02:41.000Z</time>
      </trkpt>
      <trkpt lat="43.92944" lon="1.8399">
        <ele>953.20001220703</ele>
        <time>2019-06-27T18:02:42.000Z</time>
      </trkpt>
      <trkpt lat="43.92943" lon="1.83987">
        <ele>953.20001220703</ele>
        <time>2019-06-27T18:02:43.000Z</time>
      </trkpt>
      <trkpt lat="43.92942" lon="1.83983">
        <ele>953.20001220703</ele>
        <time>2019-06-27T18:02:44.000Z</time>
      </trkpt>
      <trkpt lat="43.92941" lon="1.8398">
        <ele>953.20001220703</ele>
        <time>2019-06-27T18:02:45.000Z</time>
      </trkpt>
      <trkpt lat="43.9294" lon="1.83977">
        <ele>953.20001220703</ele>
        <time>2019-06-27T18:02:46.000Z</time>
      </trkpt>
      <trkpt lat="43.9294" lon="1.83974">
        <ele>953</ele>
        <time>2019-06-27T18:02:47.000Z</time>
      </trkpt>
      <trkpt lat="43.92939" lon="1.83971">
        <ele>953</ele>
        <time>2019-06-27T18:02:48.000Z</time>
      </trkpt>
      <trkpt lat="43.92939" lon="1.83968">
        <ele>952.79998779297</ele>
        <time>2019-06-27T18:02:49.000Z</time>
      </trkpt>
      <trkpt lat="43.92938" lon="1.83966">
        <ele>953</ele>
        <time>2019-06-27T18:02:50.000Z</time>
      </trkpt>
      <trkpt lat="43.92937" lon="1.83964">
        <ele>952.79998779297</ele>
        <time>2019-06-27T18:02:51.000Z</time>
      </trkpt>
      <trkpt lat="43.92937" lon="1.83962">
        <ele>952.79998779297</ele>
        <time>2019-06-27T18:02:52.000Z</time>
      </trkpt>
      <trkpt lat="43.92936" lon="1.8396">
        <ele>952.59997558594</ele>
        <time>2019-06-27T18:02:53.000Z</time>
      </trkpt>
      <trkpt lat="43.92935" lon="1.83958">
        <ele>952.59997558594</ele>
        <time>2019-06-27T18:02:54.000Z</time>
      </trkpt>
      <trkpt lat="43.92934" lon="1.83955">
        <ele>952.59997558594</ele>
        <time>2019-06-27T18:02:55.000Z</time>
      </trkpt>
      <trkpt lat="43.92934" lon="1.8395">
        <ele>952.79998779297</ele>
        <time>2019-06-27T18:02:56.000Z</time>
      </trkpt>
      <trkpt lat="43.92934" lon="1.83946">
        <ele>953</ele>
        <time>2019-06-27T18:02:57.000Z</time>
      </trkpt>
      <trkpt lat="43.92934" lon="1.83942">
        <ele>952.79998779297</ele>
        <time>2019-06-27T18:02:58.000Z</time>
      </trkpt>
      <trkpt lat="43.92933" lon="1.83937">
        <ele>952.59997558594</ele>
        <time>2019-06-27T18:02:59.000Z</time>
      </trkpt>
      <trkpt lat="43.92932" lon="1.83932">
        <ele>952.59997558594</ele>
        <time>2019-06-27T18:03:00.000Z</time>
      </trkpt>
      <trkpt lat="43.92931" lon="1.83926">
        <ele>952.40002441406</ele>
        <time>2019-06-27T18:03:01.000Z</time>
      </trkpt>
      <trkpt lat="43.92931" lon="1.83921">
        <ele>952.59997558594</ele>
        <time>2019-06-27T18:03:02.000Z</time>
      </trkpt>
      <trkpt lat="43.9293" lon="1.83916">
        <ele>952.40002441406</ele>
        <time>2019-06-27T18:03:03.000Z</time>
      </trkpt>
      <trkpt lat="43.9293" lon="1.8391">
        <ele>952.40002441406</ele>
        <time>2019-06-27T18:03:04.000Z</time>
      </trkpt>
      <trkpt lat="43.92929" lon="1.83906">
        <ele>952.20001220703</ele>
        <time>2019-06-27T18:03:05.000Z</time>
      </trkpt>
      <trkpt lat="43.92928" lon="1.83901">
        <ele>952.40002441406</ele>
        <time>2019-06-27T18:03:06.000Z</time>
      </trkpt>
      <trkpt lat="43.92928" lon="1.83896">
        <ele>952.20001220703</ele>
        <time>2019-06-27T18:03:07.000Z</time>
      </trkpt>
      <trkpt lat="43.92928" lon="1.8389">
        <ele>952.40002441406</ele>
        <time>2019-06-27T18:03:08.000Z</time>
      </trkpt>
      <trkpt lat="43.92928" lon="1.83885">
        <ele>952.20001220703</ele>
        <time>2019-06-27T18:03:09.000Z</time>
      </trkpt>
      <trkpt lat="43.92927" lon="1.8388">
        <ele>952.40002441406</ele>
        <time>2019-06-27T18:03:10.000Z</time>
      </trkpt>
      <trkpt lat="43.92926" lon="1.83874">
        <ele>952.40002441406</ele>
        <time>2019-06-27T18:03:11.000Z</time>
      </trkpt>
      <trkpt lat="43.92925" lon="1.83869">
        <ele>952.59997558594</ele>
        <time>2019-06-27T18:03:12.000Z</time>
      </trkpt>
      <trkpt lat="43.92925" lon="1.83864">
        <ele>952.59997558594</ele>
        <time>2019-06-27T18:03:13.000Z</time>
      </trkpt>
      <trkpt lat="43.92925" lon="1.8386">
        <ele>952.40002441406</ele>
        <time>2019-06-27T18:03:14.000Z</time>
      </trkpt>
      <trkpt lat="43.92924" lon="1.83856">
        <ele>952.40002441406</ele>
        <time>2019-06-27T18:03:15.000Z</time>
      </trkpt>
      <trkpt lat="43.92924" lon="1.83853">
        <ele>952.20001220703</ele>
        <time>2019-06-27T18:03:16.000Z</time>
      </trkpt>
      <trkpt lat="43.92923" lon="1.83849">
        <ele>952.20001220703</ele>
        <time>2019-06-27T18:03:17.000Z</time>
      </trkpt>
      <trkpt lat="43.92922" lon="1.83845">
        <ele>952.40002441406</ele>
        <time>2019-06-27T18:03:18.000Z</time>
      </trkpt>
      <trkpt lat="43.92921" lon="1.83841">
        <ele>952.40002441406</ele>
        <time>2019-06-27T18:03:19.000Z</time>
      </trkpt>
      <trkpt lat="43.9292" lon="1.83837">
        <ele>952.59997558594</ele>
        <time>2019-06-27T18:03:20.000Z</time>
      </trkpt>
      <trkpt lat="43.9292" lon="1.83834">
        <ele>952.59997558594</ele>
        <time>2019-06-27T18:03:21.000Z</time>
      </trkpt>
      <trkpt lat="43.92919" lon="1.83831">
        <ele>952.40002441406</ele>
        <time>2019-06-27T18:03:22.000Z</time>
      </trkpt>
      <trkpt lat="43.92917" lon="1.83828">
        <ele>952.40002441406</ele>
        <time>2019-06-27T18:03:23.000Z</time>
      </trkpt>
      <trkpt lat="43.92916" lon="1.83826">
        <ele>952.40002441406</ele>
        <time>2019-06-27T18:03:24.000Z</time>
      </trkpt>
      <trkpt lat="43.92915" lon="1.83823">
        <ele>952.40002441406</ele>
        <time>2019-06-27T18:03:25.000Z</time>
      </trkpt>
      <trkpt lat="43.92914" lon="1.83819">
        <ele>952.40002441406</ele>
        <time>2019-06-27T18:03:26.000Z</time>
      </trkpt>
      <trkpt lat="43.92913" lon="1.83816">
        <ele>952.40002441406</ele>
        <time>2019-06-27T18:03:27.000Z</time>
      </trkpt>
      <trkpt lat="43.92913" lon="1.83812">
        <ele>952.40002441406</ele>
        <time>2019-06-27T18:03:28.000Z</time>
      </trkpt>
      <trkpt lat="43.92913" lon="1.83809">
        <ele>952.40002441406</ele>
        <time>2019-06-27T18:03:29.000Z</time>
      </trkpt>
      <trkpt lat="43.92914" lon="1.83806">
        <ele>952.59997558594</ele>
        <time>2019-06-27T18:03:30.000Z</time>
      </trkpt>
      <trkpt lat="43.92914" lon="1.83803">
        <ele>952.59997558594</ele>
        <time>2019-06-27T18:03:31.000Z</time>
      </trkpt>
      <trkpt lat="43.92914" lon="1.83799">
        <ele>952.79998779297</ele>
        <time>2019-06-27T18:03:32.000Z</time>
      </trkpt>
      <trkpt lat="43.92914" lon="1.83795">
        <ele>953</ele>
        <time>2019-06-27T18:03:33.000Z</time>
      </trkpt>
      <trkpt lat="43.92913" lon="1.83789">
        <ele>953.20001220703</ele>
        <time>2019-06-27T18:03:34.000Z</time>
      </trkpt>
      <trkpt lat="43.92913" lon="1.83783">
        <ele>953.40002441406</ele>
        <time>2019-06-27T18:03:35.000Z</time>
      </trkpt>
      <trkpt lat="43.92914" lon="1.83778">
        <ele>953.20001220703</ele>
        <time>2019-06-27T18:03:36.000Z</time>
      </trkpt>
      <trkpt lat="43.92915" lon="1.83773">
        <ele>953.20001220703</ele>
        <time>2019-06-27T18:03:37.000Z</time>
      </trkpt>
      <trkpt lat="43.92916" lon="1.83768">
        <ele>953</ele>
        <time>2019-06-27T18:03:38.000Z</time>
      </trkpt>
      <trkpt lat="43.92917" lon="1.83763">
        <ele>953.20001220703</ele>
        <time>2019-06-27T18:03:39.000Z</time>
      </trkpt>
      <trkpt lat="43.92918" lon="1.83758">
        <ele>953.20001220703</ele>
        <time>2019-06-27T18:03:40.000Z</time>
      </trkpt>
      <trkpt lat="43.92919" lon="1.83752">
        <ele>953.20001220703</ele>
        <time>2019-06-27T18:03:41.000Z</time>
      </trkpt>
      <trkpt lat="43.9292" lon="1.83747">
        <ele>953.20001220703</ele>
        <time>2019-06-27T18:03:42.000Z</time>
      </trkpt>
      <trkpt lat="43.92921" lon="1.83742">
        <ele>953.20001220703</ele>
        <time>2019-06-27T18:03:43.000Z</time>
      </trkpt>
      <trkpt lat="43.92922" lon="1.83737">
        <ele>953</ele>
        <time>2019-06-27T18:03:44.000Z</time>
      </trkpt>
      <trkpt lat="43.92924" lon="1.83731">
        <ele>952.79998779297</ele>
        <time>2019-06-27T18:03:45.000Z</time>
      </trkpt>
      <trkpt lat="43.92925" lon="1.83724">
        <ele>952.59997558594</ele>
        <time>2019-06-27T18:03:46.000Z</time>
      </trkpt>
      <trkpt lat="43.92927" lon="1.83717">
        <ele>952.59997558594</ele>
        <time>2019-06-27T18:03:47.000Z</time>
      </trkpt>
      <trkpt lat="43.92928" lon="1.8371">
        <ele>952.40002441406</ele>
        <time>2019-06-27T18:03:48.000Z</time>
      </trkpt>
      <trkpt lat="43.92929" lon="1.83703">
        <ele>952.20001220703</ele>
        <time>2019-06-27T18:03:49.000Z</time>
      </trkpt>
      <trkpt lat="43.9293" lon="1.83695">
        <ele>951.79998779297</ele>
        <time>2019-06-27T18:03:50.000Z</time>
      </trkpt>
      <trkpt lat="43.92931" lon="1.83688">
        <ele>951.59997558594</ele>
        <time>2019-06-27T18:03:51.000Z</time>
      </trkpt>
      <trkpt lat="43.92932" lon="1.83681">
        <ele>951.40002441406</ele>
        <time>2019-06-27T18:03:52.000Z</time>
      </trkpt>
      <trkpt lat="43.92934" lon="1.83673">
        <ele>951.40002441406</ele>
        <time>2019-06-27T18:03:53.000Z</time>
      </trkpt>
      <trkpt lat="43.92936" lon="1.83665">
        <ele>951</ele>
        <time>2019-06-27T18:03:54.000Z</time>
      </trkpt>
      <trkpt lat="43.92939" lon="1.83658">
        <ele>951.20001220703</ele>
        <time>2019-06-27T18:03:55.000Z</time>
      </trkpt>
      <trkpt lat="43.92942" lon="1.83651">
        <ele>951</ele>
        <time>2019-06-27T18:03:56.000Z</time>
      </trkpt>
      <trkpt lat="43.92945" lon="1.83644">
        <ele>950.79998779297</ele>
        <time>2019-06-27T18:03:57.000Z</time>
      </trkpt>
      <trkpt lat="43.92949" lon="1.83637">
        <ele>950.59997558594</ele>
        <time>2019-06-27T18:03:58.000Z</time>
      </trkpt>
      <trkpt lat="43.92952" lon="1.8363">
        <ele>950.20001220703</ele>
        <time>2019-06-27T18:03:59.000Z</time>
      </trkpt>
      <trkpt lat="43.92956" lon="1.83623">
        <ele>950</ele>
        <time>2019-06-27T18:04:00.000Z</time>
      </trkpt>
      <trkpt lat="43.92959" lon="1.83617">
        <ele>950</ele>
        <time>2019-06-27T18:04:01.000Z</time>
      </trkpt>
      <trkpt lat="43.92962" lon="1.83612">
        <ele>950</ele>
        <time>2019-06-27T18:04:02.000Z</time>
      </trkpt>
      <trkpt lat="43.92964" lon="1.83608">
        <ele>949.79998779297</ele>
        <time>2019-06-27T18:04:03.000Z</time>
      </trkpt>
      <trkpt lat="43.92966" lon="1.83605">
        <ele>949.40002441406</ele>
        <time>2019-06-27T18:04:04.000Z</time>
      </trkpt>
      <trkpt lat="43.92968" lon="1.83603">
        <ele>949</ele>
        <time>2019-06-27T18:04:05.000Z</time>
      </trkpt>
      <trkpt lat="43.92969" lon="1.83601">
        <ele>948.79998779297</ele>
        <time>2019-06-27T18:04:06.000Z</time>
      </trkpt>
      <trkpt lat="43.9297" lon="1.836">
        <ele>948.79998779297</ele>
        <time>2019-06-27T18:04:07.000Z</time>
      </trkpt>
      <trkpt lat="43.92971" lon="1.83598">
        <ele>948.59997558594</ele>
        <time>2019-06-27T18:04:08.000Z</time>
      </trkpt>
      <trkpt lat="43.92971" lon="1.83597">
        <ele>948.59997558594</ele>
        <time>2019-06-27T18:04:09.000Z</time>
      </trkpt>
      <trkpt lat="43.92972" lon="1.83595">
        <ele>948.59997558594</ele>
        <time>2019-06-27T18:04:10.000Z</time>
      </trkpt>
      <trkpt lat="43.92972" lon="1.83593">
        <ele>948.40002441406</ele>
        <time>2019-06-27T18:04:11.000Z</time>
      </trkpt>
      <trkpt lat="43.92972" lon="1.83591">
        <ele>948.40002441406</ele>
        <time>2019-06-27T18:04:12.000Z</time>
      </trkpt>
      <trkpt lat="43.92972" lon="1.83591">
        <ele>948.40002441406</ele>
        <time>2019-06-27T18:04:13.000Z</time>
      </trkpt>
      <trkpt lat="43.92972" lon="1.83588">
        <ele>948.40002441406</ele>
        <time>2019-06-27T18:04:14.000Z</time>
      </trkpt>
      <trkpt lat="43.92972" lon="1.83585">
        <ele>948.40002441406</ele>
        <time>2019-06-27T18:04:15.000Z</time>
      </trkpt>
      <trkpt lat="43.92972" lon="1.83583">
        <ele>948.59997558594</ele>
        <time>2019-06-27T18:04:16.000Z</time>
      </trkpt>
      <trkpt lat="43.92971" lon="1.83581">
        <ele>948.59997558594</ele>
        <time>2019-06-27T18:04:17.000Z</time>
      </trkpt>
      <trkpt lat="43.92971" lon="1.83579">
        <ele>948.59997558594</ele>
        <time>2019-06-27T18:04:18.000Z</time>
      </trkpt>
      <trkpt lat="43.92971" lon="1.8358">
        <ele>948.59997558594</ele>
        <time>2019-06-27T18:04:19.000Z</time>
      </trkpt>
      <trkpt lat="43.92972" lon="1.83577">
        <ele>948.59997558594</ele>
        <time>2019-06-27T18:04:20.000Z</time>
      </trkpt>
      <trkpt lat="43.92972" lon="1.83577">
        <ele>948.59997558594</ele>
        <time>2019-06-27T18:04:21.000Z</time>
      </trkpt>
      <trkpt lat="43.92972" lon="1.83577">
        <ele>948.59997558594</ele>
        <time>2019-06-27T18:04:22.000Z</time>
      </trkpt>
      <trkpt lat="43.92972" lon="1.83577">
        <ele>948.59997558594</ele>
        <time>2019-06-27T18:04:23.000Z</time>
      </trkpt>
      <trkpt lat="43.92972" lon="1.83577">
        <ele>948.59997558594</ele>
        <time>2019-06-27T18:04:24.000Z</time>
      </trkpt>
      <trkpt lat="43.92972" lon="1.83577">
        <ele>948.40002441406</ele>
        <time>2019-06-27T18:04:25.000Z</time>
      </trkpt>
      <trkpt lat="43.92972" lon="1.83577">
        <ele>948.59997558594</ele>
        <time>2019-06-27T18:04:26.000Z</time>
      </trkpt>
      <trkpt lat="43.92972" lon="1.83577">
        <ele>948.59997558594</ele>
        <time>2019-06-27T18:04:27.000Z</time>
      </trkpt>
      <trkpt lat="43.92972" lon="1.83577">
        <ele>948.40002441406</ele>
        <time>2019-06-27T18:04:28.000Z</time>
      </trkpt>
      <trkpt lat="43.92972" lon="1.83577">
        <ele>948.40002441406</ele>
        <time>2019-06-27T18:04:29.000Z</time>
      </trkpt>
      <trkpt lat="43.92972" lon="1.83577">
        <ele>948.40002441406</ele>
        <time>2019-06-27T18:04:30.000Z</time>
      </trkpt>
      <trkpt lat="43.92972" lon="1.83577">
        <ele>948.40002441406</ele>
        <time>2019-06-27T18:04:31.000Z</time>
      </trkpt>
      <trkpt lat="43.92972" lon="1.83577">
        <ele>948.40002441406</ele>
        <time>2019-06-27T18:04:32.000Z</time>
      </trkpt>
      <trkpt lat="43.92972" lon="1.83577">
        <ele>948.40002441406</ele>
        <time>2019-06-27T18:04:33.000Z</time>
      </trkpt>
      <trkpt lat="43.92972" lon="1.83577">
        <ele>948.40002441406</ele>
        <time>2019-06-27T18:04:34.000Z</time>
      </trkpt>
      <trkpt lat="43.92972" lon="1.83577">
        <ele>948.40002441406</ele>
        <time>2019-06-27T18:04:35.000Z</time>
      </trkpt>
      <trkpt lat="43.92972" lon="1.83577">
        <ele>948.40002441406</ele>
        <time>2019-06-27T18:04:36.000Z</time>
      </trkpt>
      <trkpt lat="43.92972" lon="1.83577">
        <ele>948.40002441406</ele>
        <time>2019-06-27T18:04:37.000Z</time>
      </trkpt>
      <trkpt lat="43.92972" lon="1.83577">
        <ele>948.40002441406</ele>
        <time>2019-06-27T18:04:38.000Z</time>
      </trkpt>
      <trkpt lat="43.92972" lon="1.83577">
        <ele>948.40002441406</ele>
        <time>2019-06-27T18:04:39.000Z</time>
      </trkpt>
      <trkpt lat="43.92972" lon="1.83577">
        <ele>948.40002441406</ele>
        <time>2019-06-27T18:04:40.000Z</time>
      </trkpt>
      <trkpt lat="43.92972" lon="1.83577">
        <ele>948.40002441406</ele>
        <time>2019-06-27T18:04:41.000Z</time>
      </trkpt>
      <trkpt lat="43.92972" lon="1.83577">
        <ele>948.40002441406</ele>
        <time>2019-06-27T18:04:42.000Z</time>
      </trkpt>
      <trkpt lat="43.92972" lon="1.83577">
        <ele>948.40002441406</ele>
        <time>2019-06-27T18:04:43.000Z</time>
      </trkpt>
      <trkpt lat="43.92972" lon="1.83577">
        <ele>948.40002441406</ele>
        <time>2019-06-27T18:04:44.000Z</time>
      </trkpt>
      <trkpt lat="43.92972" lon="1.83577">
        <ele>948.40002441406</ele>
        <time>2019-06-27T18:04:45.000Z</time>
      </trkpt>
      <trkpt lat="43.92972" lon="1.83577">
        <ele>948.40002441406</ele>
        <time>2019-06-27T18:04:46.000Z</time>
      </trkpt>
      <trkpt lat="43.92972" lon="1.83577">
        <ele>948.40002441406</ele>
        <time>2019-06-27T18:04:47.000Z</time>
      </trkpt>
      <trkpt lat="43.92972" lon="1.83577">
        <ele>948.59997558594</ele>
        <time>2019-06-27T18:04:48.000Z</time>
      </trkpt>
      <trkpt lat="43.92972" lon="1.83577">
        <ele>948.40002441406</ele>
        <time>2019-06-27T18:04:49.000Z</time>
      </trkpt>
      <trkpt lat="43.92972" lon="1.83577">
        <ele>948.40002441406</ele>
        <time>2019-06-27T18:04:50.000Z</time>
      </trkpt>
      <trkpt lat="43.92972" lon="1.83577">
        <ele>948.40002441406</ele>
        <time>2019-06-27T18:04:51.000Z</time>
      </trkpt>
      <trkpt lat="43.92972" lon="1.83577">
        <ele>948.40002441406</ele>
        <time>2019-06-27T18:04:52.000Z</time>
      </trkpt>
      <trkpt lat="43.92972" lon="1.83577">
        <ele>948.40002441406</ele>
        <time>2019-06-27T18:04:53.000Z</time>
      </trkpt>
      <trkpt lat="43.92972" lon="1.83577">
        <ele>948.40002441406</ele>
        <time>2019-06-27T18:04:54.000Z</time>
      </trkpt>
      <trkpt lat="43.92972" lon="1.83577">
        <ele>948.40002441406</ele>
        <time>2019-06-27T18:04:55.000Z</time>
      </trkpt>
      <trkpt lat="43.92972" lon="1.83577">
        <ele>948.40002441406</ele>
        <time>2019-06-27T18:04:56.000Z</time>
      </trkpt>
      <trkpt lat="43.92972" lon="1.83577">
        <ele>948.40002441406</ele>
        <time>2019-06-27T18:04:57.000Z</time>
      </trkpt>
      <trkpt lat="43.92972" lon="1.83577">
        <ele>948.40002441406</ele>
        <time>2019-06-27T18:04:58.000Z</time>
      </trkpt>
      <trkpt lat="43.92972" lon="1.83577">
        <ele>948.40002441406</ele>
        <time>2019-06-27T18:04:59.000Z</time>
      </trkpt>
      <trkpt lat="43.92972" lon="1.83577">
        <ele>948.40002441406</ele>
        <time>2019-06-27T18:05:00.000Z</time>
      </trkpt>
      <trkpt lat="43.92972" lon="1.83577">
        <ele>948.40002441406</ele>
        <time>2019-06-27T18:05:01.000Z</time>
      </trkpt>
      <trkpt lat="43.92972" lon="1.83577">
        <ele>948.40002441406</ele>
        <time>2019-06-27T18:05:02.000Z</time>
      </trkpt>
      <trkpt lat="43.92972" lon="1.83577">
        <ele>948.40002441406</ele>
        <time>2019-06-27T18:05:03.000Z</time>
      </trkpt>
      <trkpt lat="43.92972" lon="1.83577">
        <ele>948.40002441406</ele>
        <time>2019-06-27T18:05:04.000Z</time>
      </trkpt>
      <trkpt lat="43.92972" lon="1.83577">
        <ele>948.40002441406</ele>
        <time>2019-06-27T18:05:05.000Z</time>
      </trkpt>
      <trkpt lat="43.92972" lon="1.83577">
        <ele>948.40002441406</ele>
        <time>2019-06-27T18:05:06.000Z</time>
      </trkpt>
      <trkpt lat="43.92972" lon="1.83577">
        <ele>948.40002441406</ele>
        <time>2019-06-27T18:05:07.000Z</time>
      </trkpt>
      <trkpt lat="43.92972" lon="1.83577">
        <ele>948.40002441406</ele>
        <time>2019-06-27T18:05:08.000Z</time>
      </trkpt>
      <trkpt lat="43.92972" lon="1.83577">
        <ele>948.40002441406</ele>
        <time>2019-06-27T18:05:09.000Z</time>
      </trkpt>
      <trkpt lat="43.92972" lon="1.83577">
        <ele>948.40002441406</ele>
        <time>2019-06-27T18:05:10.000Z</time>
      </trkpt>
      <trkpt lat="43.92972" lon="1.83577">
        <ele>948.40002441406</ele>
        <time>2019-06-27T18:05:11.000Z</time>
      </trkpt>
      <trkpt lat="43.92972" lon="1.83577">
        <ele>948.40002441406</ele>
        <time>2019-06-27T18:05:12.000Z</time>
      </trkpt>
      <trkpt lat="43.92972" lon="1.83577">
        <ele>948.40002441406</ele>
        <time>2019-06-27T18:05:13.000Z</time>
      </trkpt>
      <trkpt lat="43.92972" lon="1.83577">
        <ele>948.40002441406</ele>
        <time>2019-06-27T18:05:14.000Z</time>
      </trkpt>
      <trkpt lat="43.92972" lon="1.83577">
        <ele>948.40002441406</ele>
        <time>2019-06-27T18:05:15.000Z</time>
      </trkpt>
      <trkpt lat="43.92972" lon="1.83577">
        <ele>948.40002441406</ele>
        <time>2019-06-27T18:05:16.000Z</time>
      </trkpt>
      <trkpt lat="43.92972" lon="1.83577">
        <ele>948.40002441406</ele>
        <time>2019-06-27T18:05:17.000Z</time>
      </trkpt>
      <trkpt lat="43.92972" lon="1.83577">
        <ele>948.40002441406</ele>
        <time>2019-06-27T18:05:18.000Z</time>
      </trkpt>
      <trkpt lat="43.92972" lon="1.83577">
        <ele>948.40002441406</ele>
        <time>2019-06-27T18:05:19.000Z</time>
      </trkpt>
      <trkpt lat="43.92972" lon="1.83577">
        <ele>948.40002441406</ele>
        <time>2019-06-27T18:05:20.000Z</time>
      </trkpt>
      <trkpt lat="43.92972" lon="1.83577">
        <ele>948.59997558594</ele>
        <time>2019-06-27T18:05:21.000Z</time>
      </trkpt>
      <trkpt lat="43.92972" lon="1.83577">
        <ele>948.40002441406</ele>
        <time>2019-06-27T18:05:22.000Z</time>
      </trkpt>
      <trkpt lat="43.92972" lon="1.83577">
        <ele>948.40002441406</ele>
        <time>2019-06-27T18:05:23.000Z</time>
      </trkpt>
      <trkpt lat="43.92972" lon="1.83577">
        <ele>948.40002441406</ele>
        <time>2019-06-27T18:05:24.000Z</time>
      </trkpt>
      <trkpt lat="43.92972" lon="1.83577">
        <ele>948.40002441406</ele>
        <time>2019-06-27T18:05:25.000Z</time>
      </trkpt>
      <trkpt lat="43.92972" lon="1.83576">
        <ele>948.40002441406</ele>
        <time>2019-06-27T18:05:26.000Z</time>
      </trkpt>
      <trkpt lat="43.92972" lon="1.83574">
        <ele>948.40002441406</ele>
        <time>2019-06-27T18:05:27.000Z</time>
      </trkpt>
      <trkpt lat="43.92972" lon="1.83574">
        <ele>948.40002441406</ele>
        <time>2019-06-27T18:05:28.000Z</time>
      </trkpt>
      <trkpt lat="43.92973" lon="1.83568">
        <ele>948.40002441406</ele>
        <time>2019-06-27T18:05:29.000Z</time>
      </trkpt>
      <trkpt lat="43.92973" lon="1.83566">
        <ele>948.59997558594</ele>
        <time>2019-06-27T18:05:30.000Z</time>
      </trkpt>
      <trkpt lat="43.92973" lon="1.83563">
        <ele>948.59997558594</ele>
        <time>2019-06-27T18:05:31.000Z</time>
      </trkpt>
      <trkpt lat="43.92973" lon="1.83561">
        <ele>948.59997558594</ele>
        <time>2019-06-27T18:05:32.000Z</time>
      </trkpt>
      <trkpt lat="43.92973" lon="1.83558">
        <ele>948.59997558594</ele>
        <time>2019-06-27T18:05:33.000Z</time>
      </trkpt>
      <trkpt lat="43.92973" lon="1.83556">
        <ele>948.79998779297</ele>
        <time>2019-06-27T18:05:34.000Z</time>
      </trkpt>
      <trkpt lat="43.92973" lon="1.83553">
        <ele>948.79998779297</ele>
        <time>2019-06-27T18:05:35.000Z</time>
      </trkpt>
      <trkpt lat="43.92974" lon="1.83551">
        <ele>948.79998779297</ele>
        <time>2019-06-27T18:05:36.000Z</time>
      </trkpt>
      <trkpt lat="43.92975" lon="1.83548">
        <ele>948.79998779297</ele>
        <time>2019-06-27T18:05:37.000Z</time>
      </trkpt>
      <trkpt lat="43.92975" lon="1.83546">
        <ele>948.79998779297</ele>
        <time>2019-06-27T18:05:38.000Z</time>
      </trkpt>
      <trkpt lat="43.92976" lon="1.83543">
        <ele>948.79998779297</ele>
        <time>2019-06-27T18:05:39.000Z</time>
      </trkpt>
      <trkpt lat="43.92977" lon="1.8354">
        <ele>949</ele>
        <time>2019-06-27T18:05:40.000Z</time>
      </trkpt>
      <trkpt lat="43.92979" lon="1.83536">
        <ele>949.20001220703</ele>
        <time>2019-06-27T18:05:41.000Z</time>
      </trkpt>
      <trkpt lat="43.92981" lon="1.83534">
        <ele>949</ele>
        <time>2019-06-27T18:05:42.000Z</time>
      </trkpt>
      <trkpt lat="43.92982" lon="1.83532">
        <ele>949</ele>
        <time>2019-06-27T18:05:43.000Z</time>
      </trkpt>
      <trkpt lat="43.92983" lon="1.83529">
        <ele>949</ele>
        <time>2019-06-27T18:05:44.000Z</time>
      </trkpt>
      <trkpt lat="43.92984" lon="1.83526">
        <ele>949</ele>
        <time>2019-06-27T18:05:45.000Z</time>
      </trkpt>
      <trkpt lat="43.92985" lon="1.83524">
        <ele>948.79998779297</ele>
        <time>2019-06-27T18:05:46.000Z</time>
      </trkpt>
      <trkpt lat="43.92986" lon="1.83522">
        <ele>948.79998779297</ele>
        <time>2019-06-27T18:05:47.000Z</time>
      </trkpt>
      <trkpt lat="43.92987" lon="1.83519">
        <ele>949</ele>
        <time>2019-06-27T18:05:48.000Z</time>
      </trkpt>
      <trkpt lat="43.92988" lon="1.83517">
        <ele>949</ele>
        <time>2019-06-27T18:05:49.000Z</time>
      </trkpt>
      <trkpt lat="43.92989" lon="1.83515">
        <ele>949</ele>
        <time>2019-06-27T18:05:50.000Z</time>
      </trkpt>
      <trkpt lat="43.9299" lon="1.83513">
        <ele>948.79998779297</ele>
        <time>2019-06-27T18:05:51.000Z</time>
      </trkpt>
      <trkpt lat="43.92992" lon="1.83512">
        <ele>948.79998779297</ele>
        <time>2019-06-27T18:05:52.000Z</time>
      </trkpt>
      <trkpt lat="43.92993" lon="1.83512">
        <ele>948.79998779297</ele>
        <time>2019-06-27T18:05:53.000Z</time>
      </trkpt>
      <trkpt lat="43.92994" lon="1.83511">
        <ele>949</ele>
        <time>2019-06-27T18:05:54.000Z</time>
      </trkpt>
      <trkpt lat="43.92995" lon="1.8351">
        <ele>949</ele>
        <time>2019-06-27T18:05:55.000Z</time>
      </trkpt>
      <trkpt lat="43.92997" lon="1.83508">
        <ele>949</ele>
        <time>2019-06-27T18:05:56.000Z</time>
      </trkpt>
      <trkpt lat="43.92998" lon="1.83507">
        <ele>949.20001220703</ele>
        <time>2019-06-27T18:05:57.000Z</time>
      </trkpt>
      <trkpt lat="43.92999" lon="1.83505">
        <ele>949.20001220703</ele>
        <time>2019-06-27T18:05:58.000Z</time>
      </trkpt>
      <trkpt lat="43.93001" lon="1.83503">
        <ele>949.40002441406</ele>
        <time>2019-06-27T18:05:59.000Z</time>
      </trkpt>
      <trkpt lat="43.93001" lon="1.835">
        <ele>949.40002441406</ele>
        <time>2019-06-27T18:06:00.000Z</time>
      </trkpt>
      <trkpt lat="43.93002" lon="1.83498">
        <ele>949.20001220703</ele>
        <time>2019-06-27T18:06:01.000Z</time>
      </trkpt>
      <trkpt lat="43.93004" lon="1.83495">
        <ele>949.20001220703</ele>
        <time>2019-06-27T18:06:02.000Z</time>
      </trkpt>
      <trkpt lat="43.93004" lon="1.83492">
        <ele>949.20001220703</ele>
        <time>2019-06-27T18:06:03.000Z</time>
      </trkpt>
      <trkpt lat="43.93004" lon="1.83489">
        <ele>949.20001220703</ele>
        <time>2019-06-27T18:06:04.000Z</time>
      </trkpt>
      <trkpt lat="43.93004" lon="1.83486">
        <ele>949</ele>
        <time>2019-06-27T18:06:05.000Z</time>
      </trkpt>
      <trkpt lat="43.93003" lon="1.83482">
        <ele>949</ele>
        <time>2019-06-27T18:06:06.000Z</time>
      </trkpt>
      <trkpt lat="43.93004" lon="1.83479">
        <ele>948.79998779297</ele>
        <time>2019-06-27T18:06:07.000Z</time>
      </trkpt>
      <trkpt lat="43.93005" lon="1.83474">
        <ele>948.79998779297</ele>
        <time>2019-06-27T18:06:08.000Z</time>
      </trkpt>
      <trkpt lat="43.93006" lon="1.8347">
        <ele>948.79998779297</ele>
        <time>2019-06-27T18:06:09.000Z</time>
      </trkpt>
      <trkpt lat="43.93006" lon="1.83467">
        <ele>948.79998779297</ele>
        <time>2019-06-27T18:06:10.000Z</time>
      </trkpt>
      <trkpt lat="43.93007" lon="1.83463">
        <ele>948.79998779297</ele>
        <time>2019-06-27T18:06:11.000Z</time>
      </trkpt>
      <trkpt lat="43.93008" lon="1.8346">
        <ele>949</ele>
        <time>2019-06-27T18:06:12.000Z</time>
      </trkpt>
      <trkpt lat="43.93008" lon="1.83457">
        <ele>949</ele>
        <time>2019-06-27T18:06:13.000Z</time>
      </trkpt>
      <trkpt lat="43.93008" lon="1.83454">
        <ele>949</ele>
        <time>2019-06-27T18:06:14.000Z</time>
      </trkpt>
      <trkpt lat="43.93009" lon="1.83451">
        <ele>949</ele>
        <time>2019-06-27T18:06:15.000Z</time>
      </trkpt>
      <trkpt lat="43.93009" lon="1.83448">
        <ele>949</ele>
        <time>2019-06-27T18:06:16.000Z</time>
      </trkpt>
      <trkpt lat="43.9301" lon="1.83445">
        <ele>949</ele>
        <time>2019-06-27T18:06:17.000Z</time>
      </trkpt>
      <trkpt lat="43.9301" lon="1.83442">
        <ele>949</ele>
        <time>2019-06-27T18:06:18.000Z</time>
      </trkpt>
      <trkpt lat="43.9301" lon="1.83438">
        <ele>949</ele>
        <time>2019-06-27T18:06:19.000Z</time>
      </trkpt>
      <trkpt lat="43.9301" lon="1.83435">
        <ele>949.20001220703</ele>
        <time>2019-06-27T18:06:20.000Z</time>
      </trkpt>
      <trkpt lat="43.9301" lon="1.83433">
        <ele>949.20001220703</ele>
        <time>2019-06-27T18:06:21.000Z</time>
      </trkpt>
      <trkpt lat="43.9301" lon="1.8343">
        <ele>949.20001220703</ele>
        <time>2019-06-27T18:06:22.000Z</time>
      </trkpt>
      <trkpt lat="43.9301" lon="1.83426">
        <ele>949.20001220703</ele>
        <time>2019-06-27T18:06:23.000Z</time>
      </trkpt>
      <trkpt lat="43.9301" lon="1.83422">
        <ele>949.20001220703</ele>
        <time>2019-06-27T18:06:24.000Z</time>
      </trkpt>
      <trkpt lat="43.9301" lon="1.83418">
        <ele>949.20001220703</ele>
        <time>2019-06-27T18:06:25.000Z</time>
      </trkpt>
      <trkpt lat="43.93011" lon="1.83414">
        <ele>949.40002441406</ele>
        <time>2019-06-27T18:06:26.000Z</time>
      </trkpt>
      <trkpt lat="43.93011" lon="1.83411">
        <ele>949.40002441406</ele>
        <time>2019-06-27T18:06:27.000Z</time>
      </trkpt>
      <trkpt lat="43.93012" lon="1.83407">
        <ele>949.40002441406</ele>
        <time>2019-06-27T18:06:28.000Z</time>
      </trkpt>
      <trkpt lat="43.93012" lon="1.83404">
        <ele>949.40002441406</ele>
        <time>2019-06-27T18:06:29.000Z</time>
      </trkpt>
      <trkpt lat="43.93013" lon="1.834">
        <ele>949.59997558594</ele>
        <time>2019-06-27T18:06:30.000Z</time>
      </trkpt>
      <trkpt lat="43.93014" lon="1.83395">
        <ele>949.79998779297</ele>
        <time>2019-06-27T18:06:31.000Z</time>
      </trkpt>
      <trkpt lat="43.93014" lon="1.83391">
        <ele>949.79998779297</ele>
        <time>2019-06-27T18:06:32.000Z</time>
      </trkpt>
      <trkpt lat="43.93014" lon="1.83387">
        <ele>949.79998779297</ele>
        <time>2019-06-27T18:06:33.000Z</time>
      </trkpt>
      <trkpt lat="43.93015" lon="1.83383">
        <ele>950</ele>
        <time>2019-06-27T18:06:34.000Z</time>
      </trkpt>
      <trkpt lat="43.93015" lon="1.83379">
        <ele>950</ele>
        <time>2019-06-27T18:06:35.000Z</time>
      </trkpt>
      <trkpt lat="43.93016" lon="1.83375">
        <ele>950</ele>
        <time>2019-06-27T18:06:36.000Z</time>
      </trkpt>
      <trkpt lat="43.93016" lon="1.83371">
        <ele>950.20001220703</ele>
        <time>2019-06-27T18:06:37.000Z</time>
      </trkpt>
      <trkpt lat="43.93016" lon="1.83366">
        <ele>950.20001220703</ele>
        <time>2019-06-27T18:06:38.000Z</time>
      </trkpt>
      <trkpt lat="43.93017" lon="1.83362">
        <ele>950.20001220703</ele>
        <time>2019-06-27T18:06:39.000Z</time>
      </trkpt>
      <trkpt lat="43.93018" lon="1.83357">
        <ele>950.20001220703</ele>
        <time>2019-06-27T18:06:40.000Z</time>
      </trkpt>
      <trkpt lat="43.93019" lon="1.83352">
        <ele>950.20001220703</ele>
        <time>2019-06-27T18:06:41.000Z</time>
      </trkpt>
      <trkpt lat="43.93019" lon="1.83347">
        <ele>950</ele>
        <time>2019-06-27T18:06:42.000Z</time>
      </trkpt>
      <trkpt lat="43.9302" lon="1.83342">
        <ele>949.79998779297</ele>
        <time>2019-06-27T18:06:43.000Z</time>
      </trkpt>
      <trkpt lat="43.9302" lon="1.83338">
        <ele>949.79998779297</ele>
        <time>2019-06-27T18:06:44.000Z</time>
      </trkpt>
      <trkpt lat="43.93021" lon="1.83333">
        <ele>949.79998779297</ele>
        <time>2019-06-27T18:06:45.000Z</time>
      </trkpt>
      <trkpt lat="43.93021" lon="1.83328">
        <ele>949.79998779297</ele>
        <time>2019-06-27T18:06:46.000Z</time>
      </trkpt>
      <trkpt lat="43.93022" lon="1.83323">
        <ele>949.79998779297</ele>
        <time>2019-06-27T18:06:47.000Z</time>
      </trkpt>
      <trkpt lat="43.93024" lon="1.83318">
        <ele>949.59997558594</ele>
        <time>2019-06-27T18:06:48.000Z</time>
      </trkpt>
      <trkpt lat="43.93025" lon="1.83313">
        <ele>949.79998779297</ele>
        <time>2019-06-27T18:06:49.000Z</time>
      </trkpt>
      <trkpt lat="43.93027" lon="1.83308">
        <ele>949.79998779297</ele>
        <time>2019-06-27T18:06:50.000Z</time>
      </trkpt>
      <trkpt lat="43.93027" lon="1.83304">
        <ele>949.59997558594</ele>
        <time>2019-06-27T18:06:51.000Z</time>
      </trkpt>
      <trkpt lat="43.93027" lon="1.83302">
        <ele>949.40002441406</ele>
        <time>2019-06-27T18:06:52.000Z</time>
      </trkpt>
      <trkpt lat="43.93028" lon="1.83299">
        <ele>949.20001220703</ele>
        <time>2019-06-27T18:06:53.000Z</time>
      </trkpt>
      <trkpt lat="43.93028" lon="1.83297">
        <ele>949</ele>
        <time>2019-06-27T18:06:54.000Z</time>
      </trkpt>
      <trkpt lat="43.93028" lon="1.83297">
        <ele>949</ele>
        <time>2019-06-27T18:06:55.000Z</time>
      </trkpt>
      <trkpt lat="43.93029" lon="1.83294">
        <ele>949</ele>
        <time>2019-06-27T18:06:56.000Z</time>
      </trkpt>
      <trkpt lat="43.93029" lon="1.83293">
        <ele>949</ele>
        <time>2019-06-27T18:06:57.000Z</time>
      </trkpt>
      <trkpt lat="43.9303" lon="1.83293">
        <ele>949</ele>
        <time>2019-06-27T18:06:58.000Z</time>
      </trkpt>
      <trkpt lat="43.9303" lon="1.83293">
        <ele>948.79998779297</ele>
        <time>2019-06-27T18:06:59.000Z</time>
      </trkpt>
      <trkpt lat="43.9303" lon="1.83293">
        <ele>949</ele>
        <time>2019-06-27T18:07:00.000Z</time>
      </trkpt>
      <trkpt lat="43.9303" lon="1.83293">
        <ele>949</ele>
        <time>2019-06-27T18:07:01.000Z</time>
      </trkpt>
      <trkpt lat="43.9303" lon="1.8329">
        <ele>948.79998779297</ele>
        <time>2019-06-27T18:07:02.000Z</time>
      </trkpt>
      <trkpt lat="43.93031" lon="1.83287">
        <ele>948.79998779297</ele>
        <time>2019-06-27T18:07:03.000Z</time>
      </trkpt>
      <trkpt lat="43.93032" lon="1.83285">
        <ele>948.59997558594</ele>
        <time>2019-06-27T18:07:04.000Z</time>
      </trkpt>
      <trkpt lat="43.93032" lon="1.83283">
        <ele>948.79998779297</ele>
        <time>2019-06-27T18:07:05.000Z</time>
      </trkpt>
      <trkpt lat="43.93032" lon="1.83281">
        <ele>948.79998779297</ele>
        <time>2019-06-27T18:07:06.000Z</time>
      </trkpt>
      <trkpt lat="43.93033" lon="1.83279">
        <ele>948.79998779297</ele>
        <time>2019-06-27T18:07:07.000Z</time>
      </trkpt>
      <trkpt lat="43.93033" lon="1.83276">
        <ele>948.79998779297</ele>
        <time>2019-06-27T18:07:08.000Z</time>
      </trkpt>
      <trkpt lat="43.93034" lon="1.83274">
        <ele>948.59997558594</ele>
        <time>2019-06-27T18:07:09.000Z</time>
      </trkpt>
      <trkpt lat="43.93035" lon="1.83272">
        <ele>948.40002441406</ele>
        <time>2019-06-27T18:07:10.000Z</time>
      </trkpt>
      <trkpt lat="43.93036" lon="1.8327">
        <ele>948.40002441406</ele>
        <time>2019-06-27T18:07:11.000Z</time>
      </trkpt>
      <trkpt lat="43.93037" lon="1.83268">
        <ele>948.40002441406</ele>
        <time>2019-06-27T18:07:12.000Z</time>
      </trkpt>
      <trkpt lat="43.93038" lon="1.83266">
        <ele>948.40002441406</ele>
        <time>2019-06-27T18:07:13.000Z</time>
      </trkpt>
      <trkpt lat="43.93039" lon="1.83263">
        <ele>948.40002441406</ele>
        <time>2019-06-27T18:07:14.000Z</time>
      </trkpt>
      <trkpt lat="43.9304" lon="1.83259">
        <ele>948.40002441406</ele>
        <time>2019-06-27T18:07:15.000Z</time>
      </trkpt>
      <trkpt lat="43.9304" lon="1.83256">
        <ele>948.40002441406</ele>
        <time>2019-06-27T18:07:16.000Z</time>
      </trkpt>
      <trkpt lat="43.93041" lon="1.83253">
        <ele>948.20001220703</ele>
        <time>2019-06-27T18:07:17.000Z</time>
      </trkpt>
      <trkpt lat="43.93041" lon="1.83251">
        <ele>948.20001220703</ele>
        <time>2019-06-27T18:07:18.000Z</time>
      </trkpt>
      <trkpt lat="43.93041" lon="1.83252">
        <ele>948.20001220703</ele>
        <time>2019-06-27T18:07:19.000Z</time>
      </trkpt>
      <trkpt lat="43.93042" lon="1.83248">
        <ele>948</ele>
        <time>2019-06-27T18:07:20.000Z</time>
      </trkpt>
      <trkpt lat="43.93043" lon="1.83246">
        <ele>948</ele>
        <time>2019-06-27T18:07:21.000Z</time>
      </trkpt>
      <trkpt lat="43.93043" lon="1.83244">
        <ele>948.20001220703</ele>
        <time>2019-06-27T18:07:22.000Z</time>
      </trkpt>
      <trkpt lat="43.93043" lon="1.83241">
        <ele>948.40002441406</ele>
        <time>2019-06-27T18:07:23.000Z</time>
      </trkpt>
      <trkpt lat="43.93043" lon="1.83238">
        <ele>948.40002441406</ele>
        <time>2019-06-27T18:07:24.000Z</time>
      </trkpt>
      <trkpt lat="43.93043" lon="1.83235">
        <ele>948.40002441406</ele>
        <time>2019-06-27T18:07:25.000Z</time>
      </trkpt>
      <trkpt lat="43.93044" lon="1.83232">
        <ele>948.40002441406</ele>
        <time>2019-06-27T18:07:26.000Z</time>
      </trkpt>
      <trkpt lat="43.93045" lon="1.83228">
        <ele>948.40002441406</ele>
        <time>2019-06-27T18:07:27.000Z</time>
      </trkpt>
      <trkpt lat="43.93046" lon="1.83225">
        <ele>948.59997558594</ele>
        <time>2019-06-27T18:07:28.000Z</time>
      </trkpt>
      <trkpt lat="43.93047" lon="1.83221">
        <ele>948.59997558594</ele>
        <time>2019-06-27T18:07:29.000Z</time>
      </trkpt>
      <trkpt lat="43.93049" lon="1.83217">
        <ele>948.59997558594</ele>
        <time>2019-06-27T18:07:30.000Z</time>
      </trkpt>
      <trkpt lat="43.9305" lon="1.83214">
        <ele>948.59997558594</ele>
        <time>2019-06-27T18:07:31.000Z</time>
      </trkpt>
      <trkpt lat="43.93051" lon="1.83211">
        <ele>948.59997558594</ele>
        <time>2019-06-27T18:07:32.000Z</time>
      </trkpt>
      <trkpt lat="43.93051" lon="1.83208">
        <ele>948.59997558594</ele>
        <time>2019-06-27T18:07:33.000Z</time>
      </trkpt>
      <trkpt lat="43.93052" lon="1.83205">
        <ele>948.79998779297</ele>
        <time>2019-06-27T18:07:34.000Z</time>
      </trkpt>
      <trkpt lat="43.93053" lon="1.83201">
        <ele>948.79998779297</ele>
        <time>2019-06-27T18:07:35.000Z</time>
      </trkpt>
      <trkpt lat="43.93054" lon="1.83199">
        <ele>949</ele>
        <time>2019-06-27T18:07:36.000Z</time>
      </trkpt>
      <trkpt lat="43.93055" lon="1.83196">
        <ele>949.20001220703</ele>
        <time>2019-06-27T18:07:37.000Z</time>
      </trkpt>
      <trkpt lat="43.93056" lon="1.83193">
        <ele>949.20001220703</ele>
        <time>2019-06-27T18:07:38.000Z</time>
      </trkpt>
      <trkpt lat="43.93057" lon="1.8319">
        <ele>949.40002441406</ele>
        <time>2019-06-27T18:07:39.000Z</time>
      </trkpt>
      <trkpt lat="43.93058" lon="1.83187">
        <ele>949.40002441406</ele>
        <time>2019-06-27T18:07:40.000Z</time>
      </trkpt>
      <trkpt lat="43.93058" lon="1.83183">
        <ele>949.59997558594</ele>
        <time>2019-06-27T18:07:41.000Z</time>
      </trkpt>
      <trkpt lat="43.93059" lon="1.83179">
        <ele>949.40002441406</ele>
        <time>2019-06-27T18:07:42.000Z</time>
      </trkpt>
      <trkpt lat="43.93059" lon="1.83175">
        <ele>949.40002441406</ele>
        <time>2019-06-27T18:07:43.000Z</time>
      </trkpt>
      <trkpt lat="43.93059" lon="1.83171">
        <ele>949.40002441406</ele>
        <time>2019-06-27T18:07:44.000Z</time>
      </trkpt>
      <trkpt lat="43.93059" lon="1.83168">
        <ele>949.40002441406</ele>
        <time>2019-06-27T18:07:45.000Z</time>
      </trkpt>
      <trkpt lat="43.93059" lon="1.83164">
        <ele>949.40002441406</ele>
        <time>2019-06-27T18:07:46.000Z</time>
      </trkpt>
      <trkpt lat="43.93058" lon="1.83161">
        <ele>949.20001220703</ele>
        <time>2019-06-27T18:07:47.000Z</time>
      </trkpt>
      <trkpt lat="43.93058" lon="1.83158">
        <ele>949.20001220703</ele>
        <time>2019-06-27T18:07:48.000Z</time>
      </trkpt>
      <trkpt lat="43.93058" lon="1.83156">
        <ele>949.20001220703</ele>
        <time>2019-06-27T18:07:49.000Z</time>
      </trkpt>
      <trkpt lat="43.93058" lon="1.83153">
        <ele>949.40002441406</ele>
        <time>2019-06-27T18:07:50.000Z</time>
      </trkpt>
      <trkpt lat="43.93058" lon="1.8315">
        <ele>949.40002441406</ele>
        <time>2019-06-27T18:07:51.000Z</time>
      </trkpt>
      <trkpt lat="43.93058" lon="1.83147">
        <ele>949.40002441406</ele>
        <time>2019-06-27T18:07:52.000Z</time>
      </trkpt>
      <trkpt lat="43.93059" lon="1.83144">
        <ele>949.40002441406</ele>
        <time>2019-06-27T18:07:53.000Z</time>
      </trkpt>
      <trkpt lat="43.93059" lon="1.83142">
        <ele>949.40002441406</ele>
        <time>2019-06-27T18:07:54.000Z</time>
      </trkpt>
      <trkpt lat="43.9306" lon="1.8314">
        <ele>949.20001220703</ele>
        <time>2019-06-27T18:07:55.000Z</time>
      </trkpt>
      <trkpt lat="43.93062" lon="1.83139">
        <ele>949.20001220703</ele>
        <time>2019-06-27T18:07:56.000Z</time>
      </trkpt>
      <trkpt lat="43.93063" lon="1.83137">
        <ele>948.79998779297</ele>
        <time>2019-06-27T18:07:57.000Z</time>
      </trkpt>
      <trkpt lat="43.93063" lon="1.83135">
        <ele>948.40002441406</ele>
        <time>2019-06-27T18:07:58.000Z</time>
      </trkpt>
      <trkpt lat="43.93063" lon="1.83135">
        <ele>948.20001220703</ele>
        <time>2019-06-27T18:07:59.000Z</time>
      </trkpt>
      <trkpt lat="43.93064" lon="1.83132">
        <ele>948.20001220703</ele>
        <time>2019-06-27T18:08:00.000Z</time>
      </trkpt>
      <trkpt lat="43.93065" lon="1.8313">
        <ele>948.20001220703</ele>
        <time>2019-06-27T18:08:01.000Z</time>
      </trkpt>
      <trkpt lat="43.93065" lon="1.83128">
        <ele>948.40002441406</ele>
        <time>2019-06-27T18:08:02.000Z</time>
      </trkpt>
      <trkpt lat="43.93065" lon="1.83125">
        <ele>948.59997558594</ele>
        <time>2019-06-27T18:08:03.000Z</time>
      </trkpt>
      <trkpt lat="43.93065" lon="1.83122">
        <ele>948.59997558594</ele>
        <time>2019-06-27T18:08:04.000Z</time>
      </trkpt>
      <trkpt lat="43.93066" lon="1.83119">
        <ele>948.59997558594</ele>
        <time>2019-06-27T18:08:05.000Z</time>
      </trkpt>
      <trkpt lat="43.93067" lon="1.83116">
        <ele>948.59997558594</ele>
        <time>2019-06-27T18:08:06.000Z</time>
      </trkpt>
      <trkpt lat="43.93067" lon="1.83113">
        <ele>948.79998779297</ele>
        <time>2019-06-27T18:08:07.000Z</time>
      </trkpt>
      <trkpt lat="43.93068" lon="1.8311">
        <ele>948.59997558594</ele>
        <time>2019-06-27T18:08:08.000Z</time>
      </trkpt>
      <trkpt lat="43.93069" lon="1.83107">
        <ele>948.59997558594</ele>
        <time>2019-06-27T18:08:09.000Z</time>
      </trkpt>
      <trkpt lat="43.93069" lon="1.83104">
        <ele>948.59997558594</ele>
        <time>2019-06-27T18:08:10.000Z</time>
      </trkpt>
      <trkpt lat="43.93069" lon="1.83101">
        <ele>948.59997558594</ele>
        <time>2019-06-27T18:08:11.000Z</time>
      </trkpt>
      <trkpt lat="43.9307" lon="1.83099">
        <ele>948.40002441406</ele>
        <time>2019-06-27T18:08:12.000Z</time>
      </trkpt>
      <trkpt lat="43.9307" lon="1.83096">
        <ele>948.59997558594</ele>
        <time>2019-06-27T18:08:13.000Z</time>
      </trkpt>
      <trkpt lat="43.93071" lon="1.83094">
        <ele>948.59997558594</ele>
        <time>2019-06-27T18:08:14.000Z</time>
      </trkpt>
      <trkpt lat="43.93071" lon="1.83092">
        <ele>948.59997558594</ele>
        <time>2019-06-27T18:08:15.000Z</time>
      </trkpt>
      <trkpt lat="43.93071" lon="1.8309">
        <ele>948.59997558594</ele>
        <time>2019-06-27T18:08:16.000Z</time>
      </trkpt>
      <trkpt lat="43.93071" lon="1.83088">
        <ele>948.79998779297</ele>
        <time>2019-06-27T18:08:17.000Z</time>
      </trkpt>
      <trkpt lat="43.9307" lon="1.83086">
        <ele>949.20001220703</ele>
        <time>2019-06-27T18:08:18.000Z</time>
      </trkpt>
      <trkpt lat="43.9307" lon="1.83083">
        <ele>949.20001220703</ele>
        <time>2019-06-27T18:08:19.000Z</time>
      </trkpt>
      <trkpt lat="43.93069" lon="1.8308">
        <ele>949.40002441406</ele>
        <time>2019-06-27T18:08:20.000Z</time>
      </trkpt>
      <trkpt lat="43.93068" lon="1.83077">
        <ele>949.40002441406</ele>
        <time>2019-06-27T18:08:21.000Z</time>
      </trkpt>
      <trkpt lat="43.93068" lon="1.83074">
        <ele>949.59997558594</ele>
        <time>2019-06-27T18:08:22.000Z</time>
      </trkpt>
      <trkpt lat="43.93067" lon="1.83071">
        <ele>949.79998779297</ele>
        <time>2019-06-27T18:08:23.000Z</time>
      </trkpt>
      <trkpt lat="43.93066" lon="1.83068">
        <ele>950</ele>
        <time>2019-06-27T18:08:24.000Z</time>
      </trkpt>
      <trkpt lat="43.93067" lon="1.83064">
        <ele>950</ele>
        <time>2019-06-27T18:08:25.000Z</time>
      </trkpt>
      <trkpt lat="43.93066" lon="1.83061">
        <ele>950.20001220703</ele>
        <time>2019-06-27T18:08:26.000Z</time>
      </trkpt>
      <trkpt lat="43.93065" lon="1.83057">
        <ele>950.20001220703</ele>
        <time>2019-06-27T18:08:27.000Z</time>
      </trkpt>
      <trkpt lat="43.93064" lon="1.83054">
        <ele>950.20001220703</ele>
        <time>2019-06-27T18:08:28.000Z</time>
      </trkpt>
      <trkpt lat="43.93062" lon="1.8305">
        <ele>950.20001220703</ele>
        <time>2019-06-27T18:08:29.000Z</time>
      </trkpt>
      <trkpt lat="43.93062" lon="1.83046">
        <ele>950.20001220703</ele>
        <time>2019-06-27T18:08:30.000Z</time>
      </trkpt>
      <trkpt lat="43.93062" lon="1.83043">
        <ele>950.20001220703</ele>
        <time>2019-06-27T18:08:31.000Z</time>
      </trkpt>
      <trkpt lat="43.93061" lon="1.8304">
        <ele>950.20001220703</ele>
        <time>2019-06-27T18:08:32.000Z</time>
      </trkpt>
      <trkpt lat="43.93061" lon="1.83037">
        <ele>950.20001220703</ele>
        <time>2019-06-27T18:08:33.000Z</time>
      </trkpt>
      <trkpt lat="43.9306" lon="1.83034">
        <ele>950.20001220703</ele>
        <time>2019-06-27T18:08:34.000Z</time>
      </trkpt>
      <trkpt lat="43.9306" lon="1.83032">
        <ele>950.20001220703</ele>
        <time>2019-06-27T18:08:35.000Z</time>
      </trkpt>
      <trkpt lat="43.93059" lon="1.83029">
        <ele>950.20001220703</ele>
        <time>2019-06-27T18:08:36.000Z</time>
      </trkpt>
      <trkpt lat="43.93059" lon="1.83026">
        <ele>950</ele>
        <time>2019-06-27T18:08:37.000Z</time>
      </trkpt>
      <trkpt lat="43.93058" lon="1.83024">
        <ele>950</ele>
        <time>2019-06-27T18:08:38.000Z</time>
      </trkpt>
      <trkpt lat="43.93057" lon="1.83021">
        <ele>950</ele>
        <time>2019-06-27T18:08:39.000Z</time>
      </trkpt>
      <trkpt lat="43.93057" lon="1.83018">
        <ele>949.79998779297</ele>
        <time>2019-06-27T18:08:40.000Z</time>
      </trkpt>
      <trkpt lat="43.93057" lon="1.83014">
        <ele>949.79998779297</ele>
        <time>2019-06-27T18:08:41.000Z</time>
      </trkpt>
      <trkpt lat="43.93057" lon="1.83015">
        <ele>949.79998779297</ele>
        <time>2019-06-27T18:08:42.000Z</time>
      </trkpt>
      <trkpt lat="43.93056" lon="1.8301">
        <ele>949.59997558594</ele>
        <time>2019-06-27T18:08:43.000Z</time>
      </trkpt>
      <trkpt lat="43.93056" lon="1.83009">
        <ele>949.59997558594</ele>
        <time>2019-06-27T18:08:44.000Z</time>
      </trkpt>
      <trkpt lat="43.93056" lon="1.83009">
        <ele>949.40002441406</ele>
        <time>2019-06-27T18:08:45.000Z</time>
      </trkpt>
      <trkpt lat="43.93056" lon="1.83009">
        <ele>949.40002441406</ele>
        <time>2019-06-27T18:08:46.000Z</time>
      </trkpt>
      <trkpt lat="43.93056" lon="1.83009">
        <ele>949.20001220703</ele>
        <time>2019-06-27T18:08:47.000Z</time>
      </trkpt>
      <trkpt lat="43.93056" lon="1.83009">
        <ele>949.20001220703</ele>
        <time>2019-06-27T18:08:48.000Z</time>
      </trkpt>
      <trkpt lat="43.93056" lon="1.83009">
        <ele>949.40002441406</ele>
        <time>2019-06-27T18:08:49.000Z</time>
      </trkpt>
      <trkpt lat="43.93056" lon="1.83009">
        <ele>949.40002441406</ele>
        <time>2019-06-27T18:08:50.000Z</time>
      </trkpt>
      <trkpt lat="43.93056" lon="1.83009">
        <ele>949.20001220703</ele>
        <time>2019-06-27T18:08:51.000Z</time>
      </trkpt>
      <trkpt lat="43.93056" lon="1.83009">
        <ele>949.20001220703</ele>
        <time>2019-06-27T18:08:52.000Z</time>
      </trkpt>
      <trkpt lat="43.93056" lon="1.83009">
        <ele>949.20001220703</ele>
        <time>2019-06-27T18:08:53.000Z</time>
      </trkpt>
      <trkpt lat="43.93056" lon="1.83009">
        <ele>949.20001220703</ele>
        <time>2019-06-27T18:08:54.000Z</time>
      </trkpt>
      <trkpt lat="43.93056" lon="1.83009">
        <ele>949.20001220703</ele>
        <time>2019-06-27T18:08:55.000Z</time>
      </trkpt>
      <trkpt lat="43.93056" lon="1.83009">
        <ele>949.20001220703</ele>
        <time>2019-06-27T18:08:56.000Z</time>
      </trkpt>
      <trkpt lat="43.93056" lon="1.83009">
        <ele>949.20001220703</ele>
        <time>2019-06-27T18:08:57.000Z</time>
      </trkpt>
      <trkpt lat="43.93056" lon="1.83009">
        <ele>949.40002441406</ele>
        <time>2019-06-27T18:08:58.000Z</time>
      </trkpt>
      <trkpt lat="43.93056" lon="1.83009">
        <ele>949.20001220703</ele>
        <time>2019-06-27T18:08:59.000Z</time>
      </trkpt>
      <trkpt lat="43.93056" lon="1.83009">
        <ele>949.20001220703</ele>
        <time>2019-06-27T18:09:00.000Z</time>
      </trkpt>
      <trkpt lat="43.93056" lon="1.83009">
        <ele>949.20001220703</ele>
        <time>2019-06-27T18:09:01.000Z</time>
      </trkpt>
      <trkpt lat="43.93056" lon="1.83009">
        <ele>949.20001220703</ele>
        <time>2019-06-27T18:09:02.000Z</time>
      </trkpt>
      <trkpt lat="43.93056" lon="1.83009">
        <ele>949.20001220703</ele>
        <time>2019-06-27T18:09:03.000Z</time>
      </trkpt>
      <trkpt lat="43.93056" lon="1.83009">
        <ele>949.20001220703</ele>
        <time>2019-06-27T18:09:04.000Z</time>
      </trkpt>
      <trkpt lat="43.93056" lon="1.83009">
        <ele>949.20001220703</ele>
        <time>2019-06-27T18:09:05.000Z</time>
      </trkpt>
      <trkpt lat="43.93056" lon="1.83009">
        <ele>949.20001220703</ele>
        <time>2019-06-27T18:09:06.000Z</time>
      </trkpt>
      <trkpt lat="43.93056" lon="1.83009">
        <ele>949.40002441406</ele>
        <time>2019-06-27T18:09:07.000Z</time>
      </trkpt>
      <trkpt lat="43.93056" lon="1.83009">
        <ele>949.20001220703</ele>
        <time>2019-06-27T18:09:08.000Z</time>
      </trkpt>
      <trkpt lat="43.93056" lon="1.83009">
        <ele>949.20001220703</ele>
        <time>2019-06-27T18:09:09.000Z</time>
      </trkpt>
      <trkpt lat="43.93056" lon="1.83009">
        <ele>949.20001220703</ele>
        <time>2019-06-27T18:09:10.000Z</time>
      </trkpt>
      <trkpt lat="43.93056" lon="1.83009">
        <ele>949.40002441406</ele>
        <time>2019-06-27T18:09:11.000Z</time>
      </trkpt>
      <trkpt lat="43.93056" lon="1.83009">
        <ele>949.40002441406</ele>
        <time>2019-06-27T18:09:12.000Z</time>
      </trkpt>
      <trkpt lat="43.93056" lon="1.83009">
        <ele>949.20001220703</ele>
        <time>2019-06-27T18:09:13.000Z</time>
      </trkpt>
      <trkpt lat="43.93056" lon="1.83009">
        <ele>949.20001220703</ele>
        <time>2019-06-27T18:09:14.000Z</time>
      </trkpt>
      <trkpt lat="43.93056" lon="1.83009">
        <ele>949.20001220703</ele>
        <time>2019-06-27T18:09:15.000Z</time>
      </trkpt>
      <trkpt lat="43.93056" lon="1.83009">
        <ele>949.20001220703</ele>
        <time>2019-06-27T18:09:16.000Z</time>
      </trkpt>
      <trkpt lat="43.93056" lon="1.83009">
        <ele>949.20001220703</ele>
        <time>2019-06-27T18:09:17.000Z</time>
      </trkpt>
      <trkpt lat="43.93056" lon="1.83009">
        <ele>949.20001220703</ele>
        <time>2019-06-27T18:09:18.000Z</time>
      </trkpt>
      <trkpt lat="43.93056" lon="1.83009">
        <ele>949.20001220703</ele>
        <time>2019-06-27T18:09:19.000Z</time>
      </trkpt>
      <trkpt lat="43.93056" lon="1.83009">
        <ele>949.40002441406</ele>
        <time>2019-06-27T18:09:20.000Z</time>
      </trkpt>
      <trkpt lat="43.93056" lon="1.83009">
        <ele>949.40002441406</ele>
        <time>2019-06-27T18:09:21.000Z</time>
      </trkpt>
      <trkpt lat="43.93056" lon="1.83009">
        <ele>949.40002441406</ele>
        <time>2019-06-27T18:09:22.000Z</time>
      </trkpt>
      <trkpt lat="43.93056" lon="1.83009">
        <ele>949.20001220703</ele>
        <time>2019-06-27T18:09:23.000Z</time>
      </trkpt>
      <trkpt lat="43.93056" lon="1.83009">
        <ele>949.20001220703</ele>
        <time>2019-06-27T18:09:24.000Z</time>
      </trkpt>
      <trkpt lat="43.93056" lon="1.83009">
        <ele>949.20001220703</ele>
        <time>2019-06-27T18:09:25.000Z</time>
      </trkpt>
      <trkpt lat="43.93056" lon="1.83009">
        <ele>949.20001220703</ele>
        <time>2019-06-27T18:09:26.000Z</time>
      </trkpt>
      <trkpt lat="43.93056" lon="1.83009">
        <ele>949.20001220703</ele>
        <time>2019-06-27T18:09:27.000Z</time>
      </trkpt>
      <trkpt lat="43.93056" lon="1.83009">
        <ele>949.20001220703</ele>
        <time>2019-06-27T18:09:28.000Z</time>
      </trkpt>
      <trkpt lat="43.93056" lon="1.83009">
        <ele>949.20001220703</ele>
        <time>2019-06-27T18:09:29.000Z</time>
      </trkpt>
      <trkpt lat="43.93056" lon="1.83009">
        <ele>949.20001220703</ele>
        <time>2019-06-27T18:09:30.000Z</time>
      </trkpt>
      <trkpt lat="43.93056" lon="1.83009">
        <ele>949.20001220703</ele>
        <time>2019-06-27T18:09:31.000Z</time>
      </trkpt>
      <trkpt lat="43.93056" lon="1.83009">
        <ele>949.40002441406</ele>
        <time>2019-06-27T18:09:32.000Z</time>
      </trkpt>
      <trkpt lat="43.93056" lon="1.83009">
        <ele>949.40002441406</ele>
        <time>2019-06-27T18:09:33.000Z</time>
      </trkpt>
      <trkpt lat="43.93055" lon="1.83008">
        <ele>949.40002441406</ele>
        <time>2019-06-27T18:09:34.000Z</time>
      </trkpt>
      <trkpt lat="43.93053" lon="1.83006">
        <ele>949.20001220703</ele>
        <time>2019-06-27T18:09:35.000Z</time>
      </trkpt>
      <trkpt lat="43.9305" lon="1.83003">
        <ele>949</ele>
        <time>2019-06-27T18:09:36.000Z</time>
      </trkpt>
      <trkpt lat="43.93047" lon="1.83">
        <ele>948.79998779297</ele>
        <time>2019-06-27T18:09:37.000Z</time>
      </trkpt>
      <trkpt lat="43.93045" lon="1.82996">
        <ele>948.40002441406</ele>
        <time>2019-06-27T18:09:38.000Z</time>
      </trkpt>
      <trkpt lat="43.93044" lon="1.8299">
        <ele>948.20001220703</ele>
        <time>2019-06-27T18:09:39.000Z</time>
      </trkpt>
      <trkpt lat="43.93044" lon="1.82983">
        <ele>948</ele>
        <time>2019-06-27T18:09:40.000Z</time>
      </trkpt>
      <trkpt lat="43.93045" lon="1.82978">
        <ele>948</ele>
        <time>2019-06-27T18:09:41.000Z</time>
      </trkpt>
      <trkpt lat="43.93046" lon="1.82974">
        <ele>948</ele>
        <time>2019-06-27T18:09:42.000Z</time>
      </trkpt>
      <trkpt lat="43.93047" lon="1.82971">
        <ele>948.20001220703</ele>
        <time>2019-06-27T18:09:43.000Z</time>
      </trkpt>
      <trkpt lat="43.93048" lon="1.82968">
        <ele>948.20001220703</ele>
        <time>2019-06-27T18:09:44.000Z</time>
      </trkpt>
      <trkpt lat="43.9305" lon="1.82965">
        <ele>948.40002441406</ele>
        <time>2019-06-27T18:09:45.000Z</time>
      </trkpt>
      <trkpt lat="43.93051" lon="1.82963">
        <ele>948.59997558594</ele>
        <time>2019-06-27T18:09:46.000Z</time>
      </trkpt>
      <trkpt lat="43.93053" lon="1.8296">
        <ele>948.59997558594</ele>
        <time>2019-06-27T18:09:47.000Z</time>
      </trkpt>
      <trkpt lat="43.93054" lon="1.82957">
        <ele>948.79998779297</ele>
        <time>2019-06-27T18:09:48.000Z</time>
      </trkpt>
      <trkpt lat="43.93055" lon="1.82953">
        <ele>948.79998779297</ele>
        <time>2019-06-27T18:09:49.000Z</time>
      </trkpt>
      <trkpt lat="43.93056" lon="1.82949">
        <ele>948.79998779297</ele>
        <time>2019-06-27T18:09:50.000Z</time>
      </trkpt>
      <trkpt lat="43.93056" lon="1.82946">
        <ele>948.79998779297</ele>
        <time>2019-06-27T18:09:51.000Z</time>
      </trkpt>
      <trkpt lat="43.93056" lon="1.82942">
        <ele>948.79998779297</ele>
        <time>2019-06-27T18:09:52.000Z</time>
      </trkpt>
      <trkpt lat="43.93055" lon="1.82938">
        <ele>948.79998779297</ele>
        <time>2019-06-27T18:09:53.000Z</time>
      </trkpt>
      <trkpt lat="43.93054" lon="1.82934">
        <ele>948.79998779297</ele>
        <time>2019-06-27T18:09:54.000Z</time>
      </trkpt>
      <trkpt lat="43.93051" lon="1.82931">
        <ele>948.79998779297</ele>
        <time>2019-06-27T18:09:55.000Z</time>
      </trkpt>
      <trkpt lat="43.93048" lon="1.82927">
        <ele>948.59997558594</ele>
        <time>2019-06-27T18:09:56.000Z</time>
      </trkpt>
      <trkpt lat="43.93046" lon="1.82922">
        <ele>948.59997558594</ele>
        <time>2019-06-27T18:09:57.000Z</time>
      </trkpt>
      <trkpt lat="43.93044" lon="1.82918">
        <ele>948.40002441406</ele>
        <time>2019-06-27T18:09:58.000Z</time>
      </trkpt>
      <trkpt lat="43.93043" lon="1.82912">
        <ele>948.40002441406</ele>
        <time>2019-06-27T18:09:59.000Z</time>
      </trkpt>
      <trkpt lat="43.93041" lon="1.82907">
        <ele>948.59997558594</ele>
        <time>2019-06-27T18:10:00.000Z</time>
      </trkpt>
      <trkpt lat="43.9304" lon="1.82902">
        <ele>948.59997558594</ele>
        <time>2019-06-27T18:10:01.000Z</time>
      </trkpt>
      <trkpt lat="43.93039" lon="1.82896">
        <ele>948.59997558594</ele>
        <time>2019-06-27T18:10:02.000Z</time>
      </trkpt>
      <trkpt lat="43.93038" lon="1.82891">
        <ele>948.79998779297</ele>
        <time>2019-06-27T18:10:03.000Z</time>
      </trkpt>
      <trkpt lat="43.93037" lon="1.82885">
        <ele>948.79998779297</ele>
        <time>2019-06-27T18:10:04.000Z</time>
      </trkpt>
      <trkpt lat="43.93036" lon="1.82879">
        <ele>949</ele>
        <time>2019-06-27T18:10:05.000Z</time>
      </trkpt>
      <trkpt lat="43.93035" lon="1.82873">
        <ele>948.79998779297</ele>
        <time>2019-06-27T18:10:06.000Z</time>
      </trkpt>
      <trkpt lat="43.93034" lon="1.82867">
        <ele>948.79998779297</ele>
        <time>2019-06-27T18:10:07.000Z</time>
      </trkpt>
      <trkpt lat="43.93033" lon="1.82861">
        <ele>948.79998779297</ele>
        <time>2019-06-27T18:10:08.000Z</time>
      </trkpt>
      <trkpt lat="43.93032" lon="1.82855">
        <ele>949</ele>
        <time>2019-06-27T18:10:09.000Z</time>
      </trkpt>
      <trkpt lat="43.93031" lon="1.82849">
        <ele>949.40002441406</ele>
        <time>2019-06-27T18:10:10.000Z</time>
      </trkpt>
      <trkpt lat="43.9303" lon="1.82843">
        <ele>949.59997558594</ele>
        <time>2019-06-27T18:10:11.000Z</time>
      </trkpt>
      <trkpt lat="43.9303" lon="1.82838">
        <ele>949.79998779297</ele>
        <time>2019-06-27T18:10:12.000Z</time>
      </trkpt>
      <trkpt lat="43.93029" lon="1.82832">
        <ele>949.79998779297</ele>
        <time>2019-06-27T18:10:13.000Z</time>
      </trkpt>
      <trkpt lat="43.93028" lon="1.82827">
        <ele>949.79998779297</ele>
        <time>2019-06-27T18:10:14.000Z</time>
      </trkpt>
      <trkpt lat="43.93027" lon="1.82821">
        <ele>950</ele>
        <time>2019-06-27T18:10:15.000Z</time>
      </trkpt>
      <trkpt lat="43.93027" lon="1.82816">
        <ele>950</ele>
        <time>2019-06-27T18:10:16.000Z</time>
      </trkpt>
      <trkpt lat="43.93026" lon="1.8281">
        <ele>950</ele>
        <time>2019-06-27T18:10:17.000Z</time>
      </trkpt>
      <trkpt lat="43.93025" lon="1.82805">
        <ele>950.20001220703</ele>
        <time>2019-06-27T18:10:18.000Z</time>
      </trkpt>
      <trkpt lat="43.93025" lon="1.82798">
        <ele>950.20001220703</ele>
        <time>2019-06-27T18:10:19.000Z</time>
      </trkpt>
      <trkpt lat="43.93024" lon="1.82793">
        <ele>950.40002441406</ele>
        <time>2019-06-27T18:10:20.000Z</time>
      </trkpt>
      <trkpt lat="43.93024" lon="1.82788">
        <ele>950.40002441406</ele>
        <time>2019-06-27T18:10:21.000Z</time>
      </trkpt>
      <trkpt lat="43.93023" lon="1.82782">
        <ele>950.40002441406</ele>
        <time>2019-06-27T18:10:22.000Z</time>
      </trkpt>
      <trkpt lat="43.93022" lon="1.82776">
        <ele>950.20001220703</ele>
        <time>2019-06-27T18:10:23.000Z</time>
      </trkpt>
      <trkpt lat="43.93022" lon="1.82769">
        <ele>950.40002441406</ele>
        <time>2019-06-27T18:10:24.000Z</time>
      </trkpt>
      <trkpt lat="43.93022" lon="1.82763">
        <ele>950.40002441406</ele>
        <time>2019-06-27T18:10:25.000Z</time>
      </trkpt>
      <trkpt lat="43.93021" lon="1.82756">
        <ele>950.40002441406</ele>
        <time>2019-06-27T18:10:26.000Z</time>
      </trkpt>
      <trkpt lat="43.9302" lon="1.82749">
        <ele>950.20001220703</ele>
        <time>2019-06-27T18:10:27.000Z</time>
      </trkpt>
      <trkpt lat="43.9302" lon="1.82743">
        <ele>950.20001220703</ele>
        <time>2019-06-27T18:10:28.000Z</time>
      </trkpt>
      <trkpt lat="43.9302" lon="1.82736">
        <ele>950.20001220703</ele>
        <time>2019-06-27T18:10:29.000Z</time>
      </trkpt>
      <trkpt lat="43.93021" lon="1.82731">
        <ele>950</ele>
        <time>2019-06-27T18:10:30.000Z</time>
      </trkpt>
      <trkpt lat="43.93022" lon="1.82724">
        <ele>950</ele>
        <time>2019-06-27T18:10:31.000Z</time>
      </trkpt>
      <trkpt lat="43.93023" lon="1.82718">
        <ele>950</ele>
        <time>2019-06-27T18:10:32.000Z</time>
      </trkpt>
      <trkpt lat="43.93024" lon="1.82711">
        <ele>949.79998779297</ele>
        <time>2019-06-27T18:10:33.000Z</time>
      </trkpt>
      <trkpt lat="43.93025" lon="1.82705">
        <ele>950.20001220703</ele>
        <time>2019-06-27T18:10:34.000Z</time>
      </trkpt>
      <trkpt lat="43.93026" lon="1.82698">
        <ele>950.40002441406</ele>
        <time>2019-06-27T18:10:35.000Z</time>
      </trkpt>
      <trkpt lat="43.93028" lon="1.8269">
        <ele>950.20001220703</ele>
        <time>2019-06-27T18:10:36.000Z</time>
      </trkpt>
      <trkpt lat="43.93029" lon="1.82684">
        <ele>950</ele>
        <time>2019-06-27T18:10:37.000Z</time>
      </trkpt>
      <trkpt lat="43.93031" lon="1.82677">
        <ele>950</ele>
        <time>2019-06-27T18:10:38.000Z</time>
      </trkpt>
      <trkpt lat="43.93032" lon="1.8267">
        <ele>950.40002441406</ele>
        <time>2019-06-27T18:10:39.000Z</time>
      </trkpt>
      <trkpt lat="43.93033" lon="1.82663">
        <ele>950.59997558594</ele>
        <time>2019-06-27T18:10:40.000Z</time>
      </trkpt>
      <trkpt lat="43.93034" lon="1.82656">
        <ele>950.79998779297</ele>
        <time>2019-06-27T18:10:41.000Z</time>
      </trkpt>
      <trkpt lat="43.93036" lon="1.82649">
        <ele>951</ele>
        <time>2019-06-27T18:10:42.000Z</time>
      </trkpt>
      <trkpt lat="43.93037" lon="1.82641">
        <ele>950.59997558594</ele>
        <time>2019-06-27T18:10:43.000Z</time>
      </trkpt>
      <trkpt lat="43.93039" lon="1.82634">
        <ele>950.59997558594</ele>
        <time>2019-06-27T18:10:44.000Z</time>
      </trkpt>
      <trkpt lat="43.9304" lon="1.82627">
        <ele>950.79998779297</ele>
        <time>2019-06-27T18:10:45.000Z</time>
      </trkpt>
      <trkpt lat="43.93042" lon="1.82619">
        <ele>950.79998779297</ele>
        <time>2019-06-27T18:10:46.000Z</time>
      </trkpt>
      <trkpt lat="43.93043" lon="1.82612">
        <ele>951</ele>
        <time>2019-06-27T18:10:47.000Z</time>
      </trkpt>
      <trkpt lat="43.93044" lon="1.82604">
        <ele>950.79998779297</ele>
        <time>2019-06-27T18:10:48.000Z</time>
      </trkpt>
      <trkpt lat="43.93046" lon="1.82597">
        <ele>951</ele>
        <time>2019-06-27T18:10:49.000Z</time>
      </trkpt>
      <trkpt lat="43.93047" lon="1.8259">
        <ele>950.79998779297</ele>
        <time>2019-06-27T18:10:50.000Z</time>
      </trkpt>
      <trkpt lat="43.93048" lon="1.82583">
        <ele>950.79998779297</ele>
        <time>2019-06-27T18:10:51.000Z</time>
      </trkpt>
      <trkpt lat="43.93049" lon="1.82576">
        <ele>950.59997558594</ele>
        <time>2019-06-27T18:10:52.000Z</time>
      </trkpt>
      <trkpt lat="43.9305" lon="1.82568">
        <ele>950.40002441406</ele>
        <time>2019-06-27T18:10:53.000Z</time>
      </trkpt>
      <trkpt lat="43.93051" lon="1.8256">
        <ele>950.20001220703</ele>
        <time>2019-06-27T18:10:54.000Z</time>
      </trkpt>
      <trkpt lat="43.93051" lon="1.82553">
        <ele>950</ele>
        <time>2019-06-27T18:10:55.000Z</time>
      </trkpt>
      <trkpt lat="43.93052" lon="1.82545">
        <ele>949.59997558594</ele>
        <time>2019-06-27T18:10:56.000Z</time>
      </trkpt>
      <trkpt lat="43.93053" lon="1.82537">
        <ele>949.59997558594</ele>
        <time>2019-06-27T18:10:57.000Z</time>
      </trkpt>
      <trkpt lat="43.93054" lon="1.82531">
        <ele>949.20001220703</ele>
        <time>2019-06-27T18:10:58.000Z</time>
      </trkpt>
      <trkpt lat="43.93054" lon="1.82525">
        <ele>949</ele>
        <time>2019-06-27T18:10:59.000Z</time>
      </trkpt>
      <trkpt lat="43.93053" lon="1.8252">
        <ele>948.79998779297</ele>
        <time>2019-06-27T18:11:00.000Z</time>
      </trkpt>
      <trkpt lat="43.93052" lon="1.82516">
        <ele>948.40002441406</ele>
        <time>2019-06-27T18:11:01.000Z</time>
      </trkpt>
      <trkpt lat="43.93049" lon="1.82513">
        <ele>948</ele>
        <time>2019-06-27T18:11:02.000Z</time>
      </trkpt>
      <trkpt lat="43.93046" lon="1.82511">
        <ele>947.79998779297</ele>
        <time>2019-06-27T18:11:03.000Z</time>
      </trkpt>
      <trkpt lat="43.93043" lon="1.82507">
        <ele>947.79998779297</ele>
        <time>2019-06-27T18:11:04.000Z</time>
      </trkpt>
      <trkpt lat="43.93039" lon="1.82505">
        <ele>947.79998779297</ele>
        <time>2019-06-27T18:11:05.000Z</time>
      </trkpt>
      <trkpt lat="43.93034" lon="1.82504">
        <ele>947.79998779297</ele>
        <time>2019-06-27T18:11:06.000Z</time>
      </trkpt>
      <trkpt lat="43.93029" lon="1.82503">
        <ele>948</ele>
        <time>2019-06-27T18:11:07.000Z</time>
      </trkpt>
      <trkpt lat="43.93024" lon="1.82502">
        <ele>948.20001220703</ele>
        <time>2019-06-27T18:11:08.000Z</time>
      </trkpt>
      <trkpt lat="43.93019" lon="1.82501">
        <ele>948.40002441406</ele>
        <time>2019-06-27T18:11:09.000Z</time>
      </trkpt>
      <trkpt lat="43.93014" lon="1.825">
        <ele>948.59997558594</ele>
        <time>2019-06-27T18:11:10.000Z</time>
      </trkpt>
      <trkpt lat="43.93009" lon="1.82499">
        <ele>949</ele>
        <time>2019-06-27T18:11:11.000Z</time>
      </trkpt>
      <trkpt lat="43.93005" lon="1.82498">
        <ele>949</ele>
        <time>2019-06-27T18:11:12.000Z</time>
      </trkpt>
      <trkpt lat="43.93001" lon="1.82497">
        <ele>949</ele>
        <time>2019-06-27T18:11:13.000Z</time>
      </trkpt>
      <trkpt lat="43.92997" lon="1.82496">
        <ele>948.79998779297</ele>
        <time>2019-06-27T18:11:14.000Z</time>
      </trkpt>
      <trkpt lat="43.92993" lon="1.82495">
        <ele>948.79998779297</ele>
        <time>2019-06-27T18:11:15.000Z</time>
      </trkpt>
      <trkpt lat="43.92988" lon="1.82494">
        <ele>948</ele>
        <time>2019-06-27T18:11:16.000Z</time>
      </trkpt>
      <trkpt lat="43.92984" lon="1.8249">
        <ele>948</ele>
        <time>2019-06-27T18:11:17.000Z</time>
      </trkpt>
      <trkpt lat="43.92982" lon="1.82484">
        <ele>947.79998779297</ele>
        <time>2019-06-27T18:11:18.000Z</time>
      </trkpt>
      <trkpt lat="43.92981" lon="1.82477">
        <ele>948</ele>
        <time>2019-06-27T18:11:19.000Z</time>
      </trkpt>
      <trkpt lat="43.92981" lon="1.82469">
        <ele>947.59997558594</ele>
        <time>2019-06-27T18:11:20.000Z</time>
      </trkpt>
      <trkpt lat="43.9298" lon="1.82462">
        <ele>947.59997558594</ele>
        <time>2019-06-27T18:11:21.000Z</time>
      </trkpt>
      <trkpt lat="43.9298" lon="1.82456">
        <ele>947.40002441406</ele>
        <time>2019-06-27T18:11:22.000Z</time>
      </trkpt>
      <trkpt lat="43.92979" lon="1.82449">
        <ele>947.59997558594</ele>
        <time>2019-06-27T18:11:23.000Z</time>
      </trkpt>
      <trkpt lat="43.92976" lon="1.82444">
        <ele>947.59997558594</ele>
        <time>2019-06-27T18:11:24.000Z</time>
      </trkpt>
      <trkpt lat="43.92974" lon="1.82438">
        <ele>947.59997558594</ele>
        <time>2019-06-27T18:11:25.000Z</time>
      </trkpt>
      <trkpt lat="43.9297" lon="1.82433">
        <ele>947.40002441406</ele>
        <time>2019-06-27T18:11:26.000Z</time>
      </trkpt>
      <trkpt lat="43.92967" lon="1.82428">
        <ele>946.79998779297</ele>
        <time>2019-06-27T18:11:27.000Z</time>
      </trkpt>
      <trkpt lat="43.92964" lon="1.82423">
        <ele>946.40002441406</ele>
        <time>2019-06-27T18:11:28.000Z</time>
      </trkpt>
      <trkpt lat="43.92961" lon="1.82418">
        <ele>946.59997558594</ele>
        <time>2019-06-27T18:11:29.000Z</time>
      </trkpt>
      <trkpt lat="43.92958" lon="1.82413">
        <ele>946.79998779297</ele>
        <time>2019-06-27T18:11:30.000Z</time>
      </trkpt>
      <trkpt lat="43.92957" lon="1.82407">
        <ele>946.59997558594</ele>
        <time>2019-06-27T18:11:31.000Z</time>
      </trkpt>
      <trkpt lat="43.92957" lon="1.82402">
        <ele>946.40002441406</ele>
        <time>2019-06-27T18:11:32.000Z</time>
      </trkpt>
      <trkpt lat="43.92958" lon="1.82397">
        <ele>946.20001220703</ele>
        <time>2019-06-27T18:11:33.000Z</time>
      </trkpt>
      <trkpt lat="43.9296" lon="1.82393">
        <ele>946</ele>
        <time>2019-06-27T18:11:34.000Z</time>
      </trkpt>
      <trkpt lat="43.92962" lon="1.8239">
        <ele>945.40002441406</ele>
        <time>2019-06-27T18:11:35.000Z</time>
      </trkpt>
      <trkpt lat="43.92964" lon="1.82386">
        <ele>945.20001220703</ele>
        <time>2019-06-27T18:11:36.000Z</time>
      </trkpt>
      <trkpt lat="43.92966" lon="1.82382">
        <ele>945.20001220703</ele>
        <time>2019-06-27T18:11:37.000Z</time>
      </trkpt>
      <trkpt lat="43.92968" lon="1.82377">
        <ele>945</ele>
        <time>2019-06-27T18:11:38.000Z</time>
      </trkpt>
      <trkpt lat="43.92971" lon="1.82371">
        <ele>944.79998779297</ele>
        <time>2019-06-27T18:11:39.000Z</time>
      </trkpt>
      <trkpt lat="43.92973" lon="1.82365">
        <ele>944.40002441406</ele>
        <time>2019-06-27T18:11:40.000Z</time>
      </trkpt>
      <trkpt lat="43.92975" lon="1.82358">
        <ele>944.40002441406</ele>
        <time>2019-06-27T18:11:41.000Z</time>
      </trkpt>
      <trkpt lat="43.92977" lon="1.82352">
        <ele>943.79998779297</ele>
        <time>2019-06-27T18:11:42.000Z</time>
      </trkpt>
      <trkpt lat="43.92977" lon="1.82347">
        <ele>943.40002441406</ele>
        <time>2019-06-27T18:11:43.000Z</time>
      </trkpt>
      <trkpt lat="43.92977" lon="1.82343">
        <ele>943.20001220703</ele>
        <time>2019-06-27T18:11:44.000Z</time>
      </trkpt>
      <trkpt lat="43.92977" lon="1.82339">
        <ele>943.20001220703</ele>
        <time>2019-06-27T18:11:45.000Z</time>
      </trkpt>
      <trkpt lat="43.92978" lon="1.82335">
        <ele>943.20001220703</ele>
        <time>2019-06-27T18:11:46.000Z</time>
      </trkpt>
      <trkpt lat="43.92979" lon="1.82333">
        <ele>943</ele>
        <time>2019-06-27T18:11:47.000Z</time>
      </trkpt>
      <trkpt lat="43.9298" lon="1.82331">
        <ele>943</ele>
        <time>2019-06-27T18:11:48.000Z</time>
      </trkpt>
      <trkpt lat="43.9298" lon="1.82329">
        <ele>943</ele>
        <time>2019-06-27T18:11:49.000Z</time>
      </trkpt>
      <trkpt lat="43.9298" lon="1.82327">
        <ele>942.79998779297</ele>
        <time>2019-06-27T18:11:50.000Z</time>
      </trkpt>
      <trkpt lat="43.9298" lon="1.82328">
        <ele>943</ele>
        <time>2019-06-27T18:11:51.000Z</time>
      </trkpt>
      <trkpt lat="43.92979" lon="1.82325">
        <ele>942.79998779297</ele>
        <time>2019-06-27T18:11:52.000Z</time>
      </trkpt>
      <trkpt lat="43.92979" lon="1.82325">
        <ele>942.59997558594</ele>
        <time>2019-06-27T18:11:53.000Z</time>
      </trkpt>
      <trkpt lat="43.92978" lon="1.82322">
        <ele>942.59997558594</ele>
        <time>2019-06-27T18:11:54.000Z</time>
      </trkpt>
      <trkpt lat="43.92977" lon="1.82319">
        <ele>942.59997558594</ele>
        <time>2019-06-27T18:11:55.000Z</time>
      </trkpt>
      <trkpt lat="43.92977" lon="1.8232">
        <ele>942.59997558594</ele>
        <time>2019-06-27T18:11:56.000Z</time>
      </trkpt>
      <trkpt lat="43.92977" lon="1.82317">
        <ele>942.79998779297</ele>
        <time>2019-06-27T18:11:57.000Z</time>
      </trkpt>
      <trkpt lat="43.92977" lon="1.82317">
        <ele>942.79998779297</ele>
        <time>2019-06-27T18:11:58.000Z</time>
      </trkpt>
      <trkpt lat="43.92977" lon="1.82317">
        <ele>943</ele>
        <time>2019-06-27T18:11:59.000Z</time>
      </trkpt>
      <trkpt lat="43.92977" lon="1.82317">
        <ele>942.79998779297</ele>
        <time>2019-06-27T18:12:00.000Z</time>
      </trkpt>
      <trkpt lat="43.92977" lon="1.82317">
        <ele>942.79998779297</ele>
        <time>2019-06-27T18:12:01.000Z</time>
      </trkpt>
      <trkpt lat="43.92977" lon="1.82316">
        <ele>942.79998779297</ele>
        <time>2019-06-27T18:12:02.000Z</time>
      </trkpt>
      <trkpt lat="43.92976" lon="1.82313">
        <ele>942.79998779297</ele>
        <time>2019-06-27T18:12:03.000Z</time>
      </trkpt>
      <trkpt lat="43.92976" lon="1.82311">
        <ele>942.79998779297</ele>
        <time>2019-06-27T18:12:04.000Z</time>
      </trkpt>
      <trkpt lat="43.92976" lon="1.82309">
        <ele>942.79998779297</ele>
        <time>2019-06-27T18:12:05.000Z</time>
      </trkpt>
      <trkpt lat="43.92976" lon="1.82307">
        <ele>942.79998779297</ele>
        <time>2019-06-27T18:12:06.000Z</time>
      </trkpt>
      <trkpt lat="43.92976" lon="1.82305">
        <ele>943</ele>
        <time>2019-06-27T18:12:07.000Z</time>
      </trkpt>
      <trkpt lat="43.92976" lon="1.82304">
        <ele>943</ele>
        <time>2019-06-27T18:12:08.000Z</time>
      </trkpt>
      <trkpt lat="43.92976" lon="1.82302">
        <ele>943</ele>
        <time>2019-06-27T18:12:09.000Z</time>
      </trkpt>
      <trkpt lat="43.92977" lon="1.82301">
        <ele>943</ele>
        <time>2019-06-27T18:12:10.000Z</time>
      </trkpt>
      <trkpt lat="43.92976" lon="1.82301">
        <ele>943</ele>
        <time>2019-06-27T18:12:11.000Z</time>
      </trkpt>
      <trkpt lat="43.92978" lon="1.82299">
        <ele>943</ele>
        <time>2019-06-27T18:12:12.000Z</time>
      </trkpt>
      <trkpt lat="43.92978" lon="1.82298">
        <ele>943</ele>
        <time>2019-06-27T18:12:13.000Z</time>
      </trkpt>
      <trkpt lat="43.92978" lon="1.82298">
        <ele>943</ele>
        <time>2019-06-27T18:12:14.000Z</time>
      </trkpt>
      <trkpt lat="43.92978" lon="1.82297">
        <ele>943.20001220703</ele>
        <time>2019-06-27T18:12:15.000Z</time>
      </trkpt>
      <trkpt lat="43.92978" lon="1.82295">
        <ele>943.20001220703</ele>
        <time>2019-06-27T18:12:16.000Z</time>
      </trkpt>
      <trkpt lat="43.92977" lon="1.82294">
        <ele>943</ele>
        <time>2019-06-27T18:12:17.000Z</time>
      </trkpt>
      <trkpt lat="43.92977" lon="1.82294">
        <ele>942.79998779297</ele>
        <time>2019-06-27T18:12:18.000Z</time>
      </trkpt>
      <trkpt lat="43.92977" lon="1.82292">
        <ele>942.79998779297</ele>
        <time>2019-06-27T18:12:19.000Z</time>
      </trkpt>
      <trkpt lat="43.92976" lon="1.8229">
        <ele>943</ele>
        <time>2019-06-27T18:12:20.000Z</time>
      </trkpt>
      <trkpt lat="43.92975" lon="1.82289">
        <ele>943</ele>
        <time>2019-06-27T18:12:21.000Z</time>
      </trkpt>
      <trkpt lat="43.92976" lon="1.82289">
        <ele>943</ele>
        <time>2019-06-27T18:12:22.000Z</time>
      </trkpt>
      <trkpt lat="43.92975" lon="1.82288">
        <ele>943</ele>
        <time>2019-06-27T18:12:23.000Z</time>
      </trkpt>
      <trkpt lat="43.92975" lon="1.82288">
        <ele>942.79998779297</ele>
        <time>2019-06-27T18:12:24.000Z</time>
      </trkpt>
      <trkpt lat="43.92975" lon="1.82288">
        <ele>942.79998779297</ele>
        <time>2019-06-27T18:12:25.000Z</time>
      </trkpt>
      <trkpt lat="43.92975" lon="1.82288">
        <ele>942.79998779297</ele>
        <time>2019-06-27T18:12:26.000Z</time>
      </trkpt>
      <trkpt lat="43.92975" lon="1.82288">
        <ele>942.79998779297</ele>
        <time>2019-06-27T18:12:27.000Z</time>
      </trkpt>
      <trkpt lat="43.92975" lon="1.82288">
        <ele>942.79998779297</ele>
        <time>2019-06-27T18:12:28.000Z</time>
      </trkpt>
      <trkpt lat="43.92975" lon="1.82288">
        <ele>942.79998779297</ele>
        <time>2019-06-27T18:12:29.000Z</time>
      </trkpt>
      <trkpt lat="43.92975" lon="1.82288">
        <ele>942.79998779297</ele>
        <time>2019-06-27T18:12:30.000Z</time>
      </trkpt>
      <trkpt lat="43.92975" lon="1.82288">
        <ele>942.79998779297</ele>
        <time>2019-06-27T18:12:31.000Z</time>
      </trkpt>
      <trkpt lat="43.92975" lon="1.82288">
        <ele>941.79998779297</ele>
        <time>2019-06-27T18:12:32.000Z</time>
      </trkpt>
      <trkpt lat="43.92975" lon="1.82288">
        <ele>942.40002441406</ele>
        <time>2019-06-27T18:12:33.000Z</time>
      </trkpt>
      <trkpt lat="43.92975" lon="1.82288">
        <ele>943.79998779297</ele>
        <time>2019-06-27T18:12:34.000Z</time>
      </trkpt>
      <trkpt lat="43.92975" lon="1.82288">
        <ele>943.20001220703</ele>
        <time>2019-06-27T18:12:35.000Z</time>
      </trkpt>
      <trkpt lat="43.92975" lon="1.82288">
        <ele>943</ele>
        <time>2019-06-27T18:12:36.000Z</time>
      </trkpt>
      <trkpt lat="43.92975" lon="1.82288">
        <ele>942.79998779297</ele>
        <time>2019-06-27T18:12:37.000Z</time>
      </trkpt>
      <trkpt lat="43.92975" lon="1.82288">
        <ele>942.79998779297</ele>
        <time>2019-06-27T18:12:38.000Z</time>
      </trkpt>
      <trkpt lat="43.92975" lon="1.82288">
        <ele>942.79998779297</ele>
        <time>2019-06-27T18:12:39.000Z</time>
      </trkpt>
      <trkpt lat="43.92975" lon="1.82288">
        <ele>942.79998779297</ele>
        <time>2019-06-27T18:12:40.000Z</time>
      </trkpt>
      <trkpt lat="43.92975" lon="1.82288">
        <ele>942.79998779297</ele>
        <time>2019-06-27T18:12:41.000Z</time>
      </trkpt>
      <trkpt lat="43.92975" lon="1.82288">
        <ele>942.79998779297</ele>
        <time>2019-06-27T18:12:42.000Z</time>
      </trkpt>
      <trkpt lat="43.92975" lon="1.82288">
        <ele>942.79998779297</ele>
        <time>2019-06-27T18:12:43.000Z</time>
      </trkpt>
      <trkpt lat="43.92975" lon="1.82288">
        <ele>942.79998779297</ele>
        <time>2019-06-27T18:12:44.000Z</time>
      </trkpt>
      <trkpt lat="43.92975" lon="1.82288">
        <ele>942.79998779297</ele>
        <time>2019-06-27T18:12:45.000Z</time>
      </trkpt>
      <trkpt lat="43.92975" lon="1.82288">
        <ele>942.79998779297</ele>
        <time>2019-06-27T18:12:46.000Z</time>
      </trkpt>
      <trkpt lat="43.92975" lon="1.82288">
        <ele>942.79998779297</ele>
        <time>2019-06-27T18:12:47.000Z</time>
      </trkpt>
      <trkpt lat="43.92975" lon="1.82288">
        <ele>942.79998779297</ele>
        <time>2019-06-27T18:12:48.000Z</time>
      </trkpt>
      <trkpt lat="43.92975" lon="1.82288">
        <ele>942.59997558594</ele>
        <time>2019-06-27T18:12:49.000Z</time>
      </trkpt>
      <trkpt lat="43.92975" lon="1.82288">
        <ele>942.40002441406</ele>
        <time>2019-06-27T18:12:50.000Z</time>
      </trkpt>
      <trkpt lat="43.92975" lon="1.82288">
        <ele>942.59997558594</ele>
        <time>2019-06-27T18:12:51.000Z</time>
      </trkpt>
      <trkpt lat="43.92975" lon="1.82288">
        <ele>943.20001220703</ele>
        <time>2019-06-27T18:12:52.000Z</time>
      </trkpt>
      <trkpt lat="43.92975" lon="1.82288">
        <ele>943.40002441406</ele>
        <time>2019-06-27T18:12:53.000Z</time>
      </trkpt>
      <trkpt lat="43.92975" lon="1.82288">
        <ele>943</ele>
        <time>2019-06-27T18:12:54.000Z</time>
      </trkpt>
      <trkpt lat="43.92975" lon="1.82288">
        <ele>943</ele>
        <time>2019-06-27T18:12:55.000Z</time>
      </trkpt>
      <trkpt lat="43.92975" lon="1.82288">
        <ele>943</ele>
        <time>2019-06-27T18:12:56.000Z</time>
      </trkpt>
      <trkpt lat="43.92975" lon="1.82288">
        <ele>943</ele>
        <time>2019-06-27T18:12:57.000Z</time>
      </trkpt>
      <trkpt lat="43.92975" lon="1.82288">
        <ele>942.79998779297</ele>
        <time>2019-06-27T18:12:58.000Z</time>
      </trkpt>
      <trkpt lat="43.92975" lon="1.82288">
        <ele>942.79998779297</ele>
        <time>2019-06-27T18:12:59.000Z</time>
      </trkpt>
      <trkpt lat="43.92975" lon="1.82288">
        <ele>942.79998779297</ele>
        <time>2019-06-27T18:13:00.000Z</time>
      </trkpt>
      <trkpt lat="43.92975" lon="1.82288">
        <ele>942.79998779297</ele>
        <time>2019-06-27T18:13:01.000Z</time>
      </trkpt>
      <trkpt lat="43.92975" lon="1.82288">
        <ele>942.79998779297</ele>
        <time>2019-06-27T18:13:02.000Z</time>
      </trkpt>
      <trkpt lat="43.92975" lon="1.82288">
        <ele>942.79998779297</ele>
        <time>2019-06-27T18:13:03.000Z</time>
      </trkpt>
      <trkpt lat="43.92975" lon="1.82288">
        <ele>942.79998779297</ele>
        <time>2019-06-27T18:13:04.000Z</time>
      </trkpt>
      <trkpt lat="43.92975" lon="1.82288">
        <ele>942.79998779297</ele>
        <time>2019-06-27T18:13:05.000Z</time>
      </trkpt>
      <trkpt lat="43.92975" lon="1.82288">
        <ele>943</ele>
        <time>2019-06-27T18:13:06.000Z</time>
      </trkpt>
      <trkpt lat="43.92975" lon="1.82288">
        <ele>943</ele>
        <time>2019-06-27T18:13:07.000Z</time>
      </trkpt>
      <trkpt lat="43.92975" lon="1.82288">
        <ele>942.79998779297</ele>
        <time>2019-06-27T18:13:08.000Z</time>
      </trkpt>
      <trkpt lat="43.92975" lon="1.82288">
        <ele>942.79998779297</ele>
        <time>2019-06-27T18:13:09.000Z</time>
      </trkpt>
      <trkpt lat="43.92975" lon="1.82288">
        <ele>942.79998779297</ele>
        <time>2019-06-27T18:13:10.000Z</time>
      </trkpt>
      <trkpt lat="43.92975" lon="1.82288">
        <ele>942.79998779297</ele>
        <time>2019-06-27T18:13:11.000Z</time>
      </trkpt>
      <trkpt lat="43.92975" lon="1.82288">
        <ele>942.79998779297</ele>
        <time>2019-06-27T18:13:13.000Z</time>
      </trkpt>
      <trkpt lat="43.92975" lon="1.82288">
        <ele>942.79998779297</ele>
        <time>2019-06-27T18:13:14.000Z</time>
      </trkpt>
      <trkpt lat="43.92975" lon="1.82288">
        <ele>942.79998779297</ele>
        <time>2019-06-27T18:13:15.000Z</time>
      </trkpt>
      <trkpt lat="43.92975" lon="1.82288">
        <ele>942.79998779297</ele>
        <time>2019-06-27T18:13:16.000Z</time>
      </trkpt>
      <trkpt lat="43.92975" lon="1.82288">
        <ele>942.79998779297</ele>
        <time>2019-06-27T18:13:17.000Z</time>
      </trkpt>
      <trkpt lat="43.92975" lon="1.82288">
        <ele>942.79998779297</ele>
        <time>2019-06-27T18:13:18.000Z</time>
      </trkpt>
      <trkpt lat="43.92975" lon="1.82288">
        <ele>942.79998779297</ele>
        <time>2019-06-27T18:13:19.000Z</time>
      </trkpt>
      <trkpt lat="43.92975" lon="1.82288">
        <ele>942.79998779297</ele>
        <time>2019-06-27T18:13:20.000Z</time>
      </trkpt>
      <trkpt lat="43.92975" lon="1.82288">
        <ele>942.79998779297</ele>
        <time>2019-06-27T18:13:21.000Z</time>
      </trkpt>
      <trkpt lat="43.92975" lon="1.82288">
        <ele>942.79998779297</ele>
        <time>2019-06-27T18:13:22.000Z</time>
      </trkpt>
      <trkpt lat="43.92975" lon="1.82288">
        <ele>942.79998779297</ele>
        <time>2019-06-27T18:13:23.000Z</time>
      </trkpt>
      <trkpt lat="43.92975" lon="1.82288">
        <ele>942.79998779297</ele>
        <time>2019-06-27T18:13:24.000Z</time>
      </trkpt>
      <trkpt lat="43.92975" lon="1.82288">
        <ele>942.79998779297</ele>
        <time>2019-06-27T18:13:25.000Z</time>
      </trkpt>
      <trkpt lat="43.92975" lon="1.82288">
        <ele>942.79998779297</ele>
        <time>2019-06-27T18:13:26.000Z</time>
      </trkpt>
      <trkpt lat="43.92975" lon="1.82288">
        <ele>942.79998779297</ele>
        <time>2019-06-27T18:13:27.000Z</time>
      </trkpt>
      <trkpt lat="43.92975" lon="1.82288">
        <ele>942.79998779297</ele>
        <time>2019-06-27T18:13:28.000Z</time>
      </trkpt>
      <trkpt lat="43.92975" lon="1.82288">
        <ele>942.79998779297</ele>
        <time>2019-06-27T18:13:29.000Z</time>
      </trkpt>
      <trkpt lat="43.92975" lon="1.82288">
        <ele>943</ele>
        <time>2019-06-27T18:13:30.000Z</time>
      </trkpt>
      <trkpt lat="43.92975" lon="1.82288">
        <ele>942.79998779297</ele>
        <time>2019-06-27T18:13:31.000Z</time>
      </trkpt>
      <trkpt lat="43.92975" lon="1.82286">
        <ele>942.79998779297</ele>
        <time>2019-06-27T18:13:32.000Z</time>
      </trkpt>
      <trkpt lat="43.92975" lon="1.82281">
        <ele>942.79998779297</ele>
        <time>2019-06-27T18:13:33.000Z</time>
      </trkpt>
      <trkpt lat="43.92975" lon="1.82276">
        <ele>942.79998779297</ele>
        <time>2019-06-27T18:13:34.000Z</time>
      </trkpt>
      <trkpt lat="43.92976" lon="1.82273">
        <ele>943</ele>
        <time>2019-06-27T18:13:35.000Z</time>
      </trkpt>
      <trkpt lat="43.92976" lon="1.8227">
        <ele>943</ele>
        <time>2019-06-27T18:13:36.000Z</time>
      </trkpt>
      <trkpt lat="43.92975" lon="1.82267">
        <ele>943</ele>
        <time>2019-06-27T18:13:37.000Z</time>
      </trkpt>
      <trkpt lat="43.92976" lon="1.82264">
        <ele>943.20001220703</ele>
        <time>2019-06-27T18:13:38.000Z</time>
      </trkpt>
      <trkpt lat="43.92976" lon="1.82261">
        <ele>943.40002441406</ele>
        <time>2019-06-27T18:13:39.000Z</time>
      </trkpt>
      <trkpt lat="43.92975" lon="1.8226">
        <ele>943.59997558594</ele>
        <time>2019-06-27T18:13:40.000Z</time>
      </trkpt>
      <trkpt lat="43.92976" lon="1.82257">
        <ele>943.59997558594</ele>
        <time>2019-06-27T18:13:41.000Z</time>
      </trkpt>
      <trkpt lat="43.92976" lon="1.82254">
        <ele>943.59997558594</ele>
        <time>2019-06-27T18:13:42.000Z</time>
      </trkpt>
      <trkpt lat="43.92977" lon="1.82251">
        <ele>943.79998779297</ele>
        <time>2019-06-27T18:13:43.000Z</time>
      </trkpt>
      <trkpt lat="43.92977" lon="1.82249">
        <ele>943.79998779297</ele>
        <time>2019-06-27T18:13:44.000Z</time>
      </trkpt>
      <trkpt lat="43.92978" lon="1.82246">
        <ele>944</ele>
        <time>2019-06-27T18:13:45.000Z</time>
      </trkpt>
      <trkpt lat="43.92978" lon="1.82243">
        <ele>944.20001220703</ele>
        <time>2019-06-27T18:13:46.000Z</time>
      </trkpt>
      <trkpt lat="43.92979" lon="1.8224">
        <ele>944.20001220703</ele>
        <time>2019-06-27T18:13:47.000Z</time>
      </trkpt>
      <trkpt lat="43.9298" lon="1.82237">
        <ele>944.40002441406</ele>
        <time>2019-06-27T18:13:48.000Z</time>
      </trkpt>
      <trkpt lat="43.9298" lon="1.82234">
        <ele>944.59997558594</ele>
        <time>2019-06-27T18:13:49.000Z</time>
      </trkpt>
      <trkpt lat="43.92981" lon="1.82231">
        <ele>944.79998779297</ele>
        <time>2019-06-27T18:13:50.000Z</time>
      </trkpt>
      <trkpt lat="43.92981" lon="1.82228">
        <ele>944.79998779297</ele>
        <time>2019-06-27T18:13:51.000Z</time>
      </trkpt>
      <trkpt lat="43.92981" lon="1.82225">
        <ele>945</ele>
        <time>2019-06-27T18:13:52.000Z</time>
      </trkpt>
      <trkpt lat="43.92982" lon="1.82221">
        <ele>945</ele>
        <time>2019-06-27T18:13:53.000Z</time>
      </trkpt>
      <trkpt lat="43.92982" lon="1.82218">
        <ele>945</ele>
        <time>2019-06-27T18:13:54.000Z</time>
      </trkpt>
      <trkpt lat="43.92982" lon="1.82215">
        <ele>945.20001220703</ele>
        <time>2019-06-27T18:13:55.000Z</time>
      </trkpt>
      <trkpt lat="43.92983" lon="1.82212">
        <ele>945.40002441406</ele>
        <time>2019-06-27T18:13:56.000Z</time>
      </trkpt>
      <trkpt lat="43.92984" lon="1.82209">
        <ele>945.40002441406</ele>
        <time>2019-06-27T18:13:57.000Z</time>
      </trkpt>
      <trkpt lat="43.92985" lon="1.82206">
        <ele>945.40002441406</ele>
        <time>2019-06-27T18:13:58.000Z</time>
      </trkpt>
      <trkpt lat="43.92986" lon="1.82203">
        <ele>945.59997558594</ele>
        <time>2019-06-27T18:13:59.000Z</time>
      </trkpt>
      <trkpt lat="43.92987" lon="1.82199">
        <ele>945.59997558594</ele>
        <time>2019-06-27T18:14:00.000Z</time>
      </trkpt>
      <trkpt lat="43.92988" lon="1.82194">
        <ele>945.59997558594</ele>
        <time>2019-06-27T18:14:01.000Z</time>
      </trkpt>
      <trkpt lat="43.92988" lon="1.8219">
        <ele>945.59997558594</ele>
        <time>2019-06-27T18:14:02.000Z</time>
      </trkpt>
      <trkpt lat="43.92989" lon="1.82185">
        <ele>945.59997558594</ele>
        <time>2019-06-27T18:14:03.000Z</time>
      </trkpt>
      <trkpt lat="43.9299" lon="1.82181">
        <ele>945.40002441406</ele>
        <time>2019-06-27T18:14:04.000Z</time>
      </trkpt>
      <trkpt lat="43.9299" lon="1.82176">
        <ele>945.20001220703</ele>
        <time>2019-06-27T18:14:05.000Z</time>
      </trkpt>
      <trkpt lat="43.9299" lon="1.82171">
        <ele>945.20001220703</ele>
        <time>2019-06-27T18:14:06.000Z</time>
      </trkpt>
      <trkpt lat="43.92989" lon="1.82165">
        <ele>945.20001220703</ele>
        <time>2019-06-27T18:14:07.000Z</time>
      </trkpt>
      <trkpt lat="43.92988" lon="1.82159">
        <ele>945.40002441406</ele>
        <time>2019-06-27T18:14:08.000Z</time>
      </trkpt>
      <trkpt lat="43.92987" lon="1.82153">
        <ele>945.20001220703</ele>
        <time>2019-06-27T18:14:09.000Z</time>
      </trkpt>
      <trkpt lat="43.92985" lon="1.82147">
        <ele>945</ele>
        <time>2019-06-27T18:14:10.000Z</time>
      </trkpt>
      <trkpt lat="43.92983" lon="1.8214">
        <ele>944.79998779297</ele>
        <time>2019-06-27T18:14:11.000Z</time>
      </trkpt>
      <trkpt lat="43.92981" lon="1.82135">
        <ele>944.79998779297</ele>
        <time>2019-06-27T18:14:12.000Z</time>
      </trkpt>
      <trkpt lat="43.9298" lon="1.82128">
        <ele>944.40002441406</ele>
        <time>2019-06-27T18:14:13.000Z</time>
      </trkpt>
      <trkpt lat="43.92977" lon="1.82121">
        <ele>943.79998779297</ele>
        <time>2019-06-27T18:14:14.000Z</time>
      </trkpt>
      <trkpt lat="43.92975" lon="1.82114">
        <ele>943.59997558594</ele>
        <time>2019-06-27T18:14:15.000Z</time>
      </trkpt>
      <trkpt lat="43.92972" lon="1.82106">
        <ele>943.79998779297</ele>
        <time>2019-06-27T18:14:16.000Z</time>
      </trkpt>
      <trkpt lat="43.92968" lon="1.82099">
        <ele>943.59997558594</ele>
        <time>2019-06-27T18:14:17.000Z</time>
      </trkpt>
      <trkpt lat="43.92964" lon="1.82091">
        <ele>943.20001220703</ele>
        <time>2019-06-27T18:14:18.000Z</time>
      </trkpt>
      <trkpt lat="43.92961" lon="1.82082">
        <ele>943</ele>
        <time>2019-06-27T18:14:19.000Z</time>
      </trkpt>
      <trkpt lat="43.92958" lon="1.82073">
        <ele>942.59997558594</ele>
        <time>2019-06-27T18:14:20.000Z</time>
      </trkpt>
      <trkpt lat="43.92955" lon="1.82064">
        <ele>942.59997558594</ele>
        <time>2019-06-27T18:14:21.000Z</time>
      </trkpt>
      <trkpt lat="43.92953" lon="1.82055">
        <ele>942.20001220703</ele>
        <time>2019-06-27T18:14:22.000Z</time>
      </trkpt>
      <trkpt lat="43.9295" lon="1.82046">
        <ele>942.40002441406</ele>
        <time>2019-06-27T18:14:23.000Z</time>
      </trkpt>
      <trkpt lat="43.92947" lon="1.82037">
        <ele>941.79998779297</ele>
        <time>2019-06-27T18:14:24.000Z</time>
      </trkpt>
      <trkpt lat="43.92944" lon="1.82029">
        <ele>941.59997558594</ele>
        <time>2019-06-27T18:14:25.000Z</time>
      </trkpt>
      <trkpt lat="43.9294" lon="1.82022">
        <ele>940.79998779297</ele>
        <time>2019-06-27T18:14:26.000Z</time>
      </trkpt>
      <trkpt lat="43.92936" lon="1.82015">
        <ele>940.79998779297</ele>
        <time>2019-06-27T18:14:27.000Z</time>
      </trkpt>
      <trkpt lat="43.92933" lon="1.82008">
        <ele>940.59997558594</ele>
        <time>2019-06-27T18:14:28.000Z</time>
      </trkpt>
      <trkpt lat="43.92929" lon="1.82003">
        <ele>940.79998779297</ele>
        <time>2019-06-27T18:14:29.000Z</time>
      </trkpt>
      <trkpt lat="43.92926" lon="1.81998">
        <ele>940.40002441406</ele>
        <time>2019-06-27T18:14:30.000Z</time>
      </trkpt>
      <trkpt lat="43.92923" lon="1.81993">
        <ele>940.20001220703</ele>
        <time>2019-06-27T18:14:31.000Z</time>
      </trkpt>
      <trkpt lat="43.9292" lon="1.81988">
        <ele>940</ele>
        <time>2019-06-27T18:14:32.000Z</time>
      </trkpt>
      <trkpt lat="43.92916" lon="1.81983">
        <ele>940.20001220703</ele>
        <time>2019-06-27T18:14:33.000Z</time>
      </trkpt>
      <trkpt lat="43.92913" lon="1.81979">
        <ele>940.20001220703</ele>
        <time>2019-06-27T18:14:34.000Z</time>
      </trkpt>
      <trkpt lat="43.9291" lon="1.81974">
        <ele>940.40002441406</ele>
        <time>2019-06-27T18:14:35.000Z</time>
      </trkpt>
      <trkpt lat="43.92908" lon="1.81969">
        <ele>940.79998779297</ele>
        <time>2019-06-27T18:14:36.000Z</time>
      </trkpt>
      <trkpt lat="43.92905" lon="1.81965">
        <ele>941.20001220703</ele>
        <time>2019-06-27T18:14:37.000Z</time>
      </trkpt>
      <trkpt lat="43.92902" lon="1.81961">
        <ele>941.59997558594</ele>
        <time>2019-06-27T18:14:38.000Z</time>
      </trkpt>
      <trkpt lat="43.92899" lon="1.81957">
        <ele>942</ele>
        <time>2019-06-27T18:14:39.000Z</time>
      </trkpt>
      <trkpt lat="43.92896" lon="1.81953">
        <ele>942.40002441406</ele>
        <time>2019-06-27T18:14:40.000Z</time>
      </trkpt>
      <trkpt lat="43.92893" lon="1.8195">
        <ele>942.79998779297</ele>
        <time>2019-06-27T18:14:41.000Z</time>
      </trkpt>
      <trkpt lat="43.9289" lon="1.81946">
        <ele>943.20001220703</ele>
        <time>2019-06-27T18:14:42.000Z</time>
      </trkpt>
      <trkpt lat="43.92888" lon="1.81941">
        <ele>943.59997558594</ele>
        <time>2019-06-27T18:14:43.000Z</time>
      </trkpt>
      <trkpt lat="43.92886" lon="1.81937">
        <ele>944</ele>
        <time>2019-06-27T18:14:44.000Z</time>
      </trkpt>
      <trkpt lat="43.92884" lon="1.81932">
        <ele>944.20001220703</ele>
        <time>2019-06-27T18:14:45.000Z</time>
      </trkpt>
      <trkpt lat="43.92883" lon="1.81926">
        <ele>944.40002441406</ele>
        <time>2019-06-27T18:14:46.000Z</time>
      </trkpt>
      <trkpt lat="43.92883" lon="1.8192">
        <ele>944.40002441406</ele>
        <time>2019-06-27T18:14:47.000Z</time>
      </trkpt>
      <trkpt lat="43.92883" lon="1.81913">
        <ele>944.59997558594</ele>
        <time>2019-06-27T18:14:48.000Z</time>
      </trkpt>
      <trkpt lat="43.92882" lon="1.81907">
        <ele>944.40002441406</ele>
        <time>2019-06-27T18:14:49.000Z</time>
      </trkpt>
      <trkpt lat="43.92881" lon="1.819">
        <ele>944.20001220703</ele>
        <time>2019-06-27T18:14:50.000Z</time>
      </trkpt>
      <trkpt lat="43.9288" lon="1.81893">
        <ele>944</ele>
        <time>2019-06-27T18:14:51.000Z</time>
      </trkpt>
      <trkpt lat="43.92878" lon="1.81886">
        <ele>944.20001220703</ele>
        <time>2019-06-27T18:14:52.000Z</time>
      </trkpt>
      <trkpt lat="43.92877" lon="1.81878">
        <ele>944</ele>
        <time>2019-06-27T18:14:53.000Z</time>
      </trkpt>
      <trkpt lat="43.92876" lon="1.81871">
        <ele>944</ele>
        <time>2019-06-27T18:14:54.000Z</time>
      </trkpt>
      <trkpt lat="43.92874" lon="1.81863">
        <ele>943.79998779297</ele>
        <time>2019-06-27T18:14:55.000Z</time>
      </trkpt>
      <trkpt lat="43.92873" lon="1.81856">
        <ele>943.79998779297</ele>
        <time>2019-06-27T18:14:56.000Z</time>
      </trkpt>
      <trkpt lat="43.92872" lon="1.81849">
        <ele>943.59997558594</ele>
        <time>2019-06-27T18:14:57.000Z</time>
      </trkpt>
      <trkpt lat="43.9287" lon="1.81841">
        <ele>943.40002441406</ele>
        <time>2019-06-27T18:14:58.000Z</time>
      </trkpt>
      <trkpt lat="43.92869" lon="1.81833">
        <ele>942.79998779297</ele>
        <time>2019-06-27T18:14:59.000Z</time>
      </trkpt>
      <trkpt lat="43.92867" lon="1.81825">
        <ele>942.79998779297</ele>
        <time>2019-06-27T18:15:00.000Z</time>
      </trkpt>
      <trkpt lat="43.92866" lon="1.81817">
        <ele>942.79998779297</ele>
        <time>2019-06-27T18:15:01.000Z</time>
      </trkpt>
      <trkpt lat="43.92864" lon="1.81809">
        <ele>942.59997558594</ele>
        <time>2019-06-27T18:15:02.000Z</time>
      </trkpt>
      <trkpt lat="43.92863" lon="1.818">
        <ele>942</ele>
        <time>2019-06-27T18:15:03.000Z</time>
      </trkpt>
      <trkpt lat="43.92862" lon="1.81792">
        <ele>941.79998779297</ele>
        <time>2019-06-27T18:15:04.000Z</time>
      </trkpt>
      <trkpt lat="43.92862" lon="1.81784">
        <ele>941.59997558594</ele>
        <time>2019-06-27T18:15:05.000Z</time>
      </trkpt>
      <trkpt lat="43.92861" lon="1.81776">
        <ele>941.59997558594</ele>
        <time>2019-06-27T18:15:06.000Z</time>
      </trkpt>
      <trkpt lat="43.92861" lon="1.81768">
        <ele>941.40002441406</ele>
        <time>2019-06-27T18:15:07.000Z</time>
      </trkpt>
      <trkpt lat="43.92862" lon="1.8176">
        <ele>941.40002441406</ele>
        <time>2019-06-27T18:15:08.000Z</time>
      </trkpt>
      <trkpt lat="43.92863" lon="1.81752">
        <ele>941.20001220703</ele>
        <time>2019-06-27T18:15:09.000Z</time>
      </trkpt>
      <trkpt lat="43.92864" lon="1.81743">
        <ele>941.20001220703</ele>
        <time>2019-06-27T18:15:10.000Z</time>
      </trkpt>
      <trkpt lat="43.92864" lon="1.81735">
        <ele>941.20001220703</ele>
        <time>2019-06-27T18:15:11.000Z</time>
      </trkpt>
      <trkpt lat="43.92866" lon="1.81726">
        <ele>941.20001220703</ele>
        <time>2019-06-27T18:15:12.000Z</time>
      </trkpt>
      <trkpt lat="43.92867" lon="1.81718">
        <ele>941</ele>
        <time>2019-06-27T18:15:13.000Z</time>
      </trkpt>
      <trkpt lat="43.92868" lon="1.8171">
        <ele>940.59997558594</ele>
        <time>2019-06-27T18:15:14.000Z</time>
      </trkpt>
      <trkpt lat="43.9287" lon="1.81703">
        <ele>940.59997558594</ele>
        <time>2019-06-27T18:15:15.000Z</time>
      </trkpt>
      <trkpt lat="43.9287" lon="1.81696">
        <ele>940.59997558594</ele>
        <time>2019-06-27T18:15:16.000Z</time>
      </trkpt>
      <trkpt lat="43.92871" lon="1.81688">
        <ele>940.59997558594</ele>
        <time>2019-06-27T18:15:17.000Z</time>
      </trkpt>
      <trkpt lat="43.92872" lon="1.81681">
        <ele>940.59997558594</ele>
        <time>2019-06-27T18:15:18.000Z</time>
      </trkpt>
      <trkpt lat="43.92872" lon="1.81674">
        <ele>940.40002441406</ele>
        <time>2019-06-27T18:15:19.000Z</time>
      </trkpt>
      <trkpt lat="43.92873" lon="1.81668">
        <ele>940.79998779297</ele>
        <time>2019-06-27T18:15:20.000Z</time>
      </trkpt>
      <trkpt lat="43.92874" lon="1.81661">
        <ele>941</ele>
        <time>2019-06-27T18:15:21.000Z</time>
      </trkpt>
      <trkpt lat="43.92875" lon="1.81655">
        <ele>941.20001220703</ele>
        <time>2019-06-27T18:15:22.000Z</time>
      </trkpt>
      <trkpt lat="43.92876" lon="1.81649">
        <ele>941.40002441406</ele>
        <time>2019-06-27T18:15:23.000Z</time>
      </trkpt>
      <trkpt lat="43.92877" lon="1.81642">
        <ele>941.20001220703</ele>
        <time>2019-06-27T18:15:24.000Z</time>
      </trkpt>
      <trkpt lat="43.92878" lon="1.81637">
        <ele>941.20001220703</ele>
        <time>2019-06-27T18:15:25.000Z</time>
      </trkpt>
      <trkpt lat="43.92879" lon="1.81631">
        <ele>941.20001220703</ele>
        <time>2019-06-27T18:15:26.000Z</time>
      </trkpt>
      <trkpt lat="43.9288" lon="1.81626">
        <ele>941.40002441406</ele>
        <time>2019-06-27T18:15:27.000Z</time>
      </trkpt>
      <trkpt lat="43.92881" lon="1.8162">
        <ele>941.59997558594</ele>
        <time>2019-06-27T18:15:28.000Z</time>
      </trkpt>
      <trkpt lat="43.92882" lon="1.81614">
        <ele>941.79998779297</ele>
        <time>2019-06-27T18:15:29.000Z</time>
      </trkpt>
      <trkpt lat="43.92883" lon="1.81608">
        <ele>942</ele>
        <time>2019-06-27T18:15:30.000Z</time>
      </trkpt>
      <trkpt lat="43.92884" lon="1.81602">
        <ele>942.20001220703</ele>
        <time>2019-06-27T18:15:31.000Z</time>
      </trkpt>
      <trkpt lat="43.92884" lon="1.81597">
        <ele>942.20001220703</ele>
        <time>2019-06-27T18:15:32.000Z</time>
      </trkpt>
      <trkpt lat="43.92885" lon="1.81593">
        <ele>942.40002441406</ele>
        <time>2019-06-27T18:15:33.000Z</time>
      </trkpt>
      <trkpt lat="43.92885" lon="1.8159">
        <ele>942.59997558594</ele>
        <time>2019-06-27T18:15:34.000Z</time>
      </trkpt>
      <trkpt lat="43.92886" lon="1.81587">
        <ele>942.59997558594</ele>
        <time>2019-06-27T18:15:35.000Z</time>
      </trkpt>
      <trkpt lat="43.92885" lon="1.81588">
        <ele>942.59997558594</ele>
        <time>2019-06-27T18:15:36.000Z</time>
      </trkpt>
      <trkpt lat="43.92886" lon="1.81584">
        <ele>942.59997558594</ele>
        <time>2019-06-27T18:15:37.000Z</time>
      </trkpt>
      <trkpt lat="43.92886" lon="1.81584">
        <ele>942.59997558594</ele>
        <time>2019-06-27T18:15:38.000Z</time>
      </trkpt>
      <trkpt lat="43.92886" lon="1.81584">
        <ele>942.59997558594</ele>
        <time>2019-06-27T18:15:39.000Z</time>
      </trkpt>
      <trkpt lat="43.92886" lon="1.81584">
        <ele>942.40002441406</ele>
        <time>2019-06-27T18:15:40.000Z</time>
      </trkpt>
      <trkpt lat="43.92886" lon="1.81584">
        <ele>942.40002441406</ele>
        <time>2019-06-27T18:15:41.000Z</time>
      </trkpt>
      <trkpt lat="43.92886" lon="1.81584">
        <ele>942.40002441406</ele>
        <time>2019-06-27T18:15:42.000Z</time>
      </trkpt>
      <trkpt lat="43.92886" lon="1.81584">
        <ele>942.40002441406</ele>
        <time>2019-06-27T18:15:43.000Z</time>
      </trkpt>
      <trkpt lat="43.92886" lon="1.81584">
        <ele>942.40002441406</ele>
        <time>2019-06-27T18:15:44.000Z</time>
      </trkpt>
      <trkpt lat="43.92886" lon="1.81584">
        <ele>942.40002441406</ele>
        <time>2019-06-27T18:15:45.000Z</time>
      </trkpt>
      <trkpt lat="43.92886" lon="1.81584">
        <ele>942.59997558594</ele>
        <time>2019-06-27T18:15:46.000Z</time>
      </trkpt>
      <trkpt lat="43.92886" lon="1.81584">
        <ele>942.40002441406</ele>
        <time>2019-06-27T18:15:47.000Z</time>
      </trkpt>
      <trkpt lat="43.92886" lon="1.81584">
        <ele>942.40002441406</ele>
        <time>2019-06-27T18:15:48.000Z</time>
      </trkpt>
      <trkpt lat="43.92886" lon="1.81584">
        <ele>942.40002441406</ele>
        <time>2019-06-27T18:15:49.000Z</time>
      </trkpt>
      <trkpt lat="43.92886" lon="1.81584">
        <ele>942.40002441406</ele>
        <time>2019-06-27T18:15:50.000Z</time>
      </trkpt>
      <trkpt lat="43.92886" lon="1.81584">
        <ele>942.40002441406</ele>
        <time>2019-06-27T18:15:51.000Z</time>
      </trkpt>
      <trkpt lat="43.92886" lon="1.81584">
        <ele>942.40002441406</ele>
        <time>2019-06-27T18:15:52.000Z</time>
      </trkpt>
      <trkpt lat="43.92886" lon="1.81584">
        <ele>942.40002441406</ele>
        <time>2019-06-27T18:15:53.000Z</time>
      </trkpt>
      <trkpt lat="43.92886" lon="1.81584">
        <ele>942.40002441406</ele>
        <time>2019-06-27T18:15:54.000Z</time>
      </trkpt>
      <trkpt lat="43.92886" lon="1.81584">
        <ele>942.40002441406</ele>
        <time>2019-06-27T18:15:55.000Z</time>
      </trkpt>
      <trkpt lat="43.92886" lon="1.81584">
        <ele>942.40002441406</ele>
        <time>2019-06-27T18:15:56.000Z</time>
      </trkpt>
      <trkpt lat="43.92886" lon="1.81584">
        <ele>942.40002441406</ele>
        <time>2019-06-27T18:15:57.000Z</time>
      </trkpt>
      <trkpt lat="43.92886" lon="1.81584">
        <ele>942.40002441406</ele>
        <time>2019-06-27T18:15:58.000Z</time>
      </trkpt>
      <trkpt lat="43.92886" lon="1.81584">
        <ele>942.40002441406</ele>
        <time>2019-06-27T18:15:59.000Z</time>
      </trkpt>
      <trkpt lat="43.92886" lon="1.81584">
        <ele>942.40002441406</ele>
        <time>2019-06-27T18:16:00.000Z</time>
      </trkpt>
      <trkpt lat="43.92886" lon="1.81584">
        <ele>942.40002441406</ele>
        <time>2019-06-27T18:16:01.000Z</time>
      </trkpt>
      <trkpt lat="43.92886" lon="1.81584">
        <ele>942.40002441406</ele>
        <time>2019-06-27T18:16:02.000Z</time>
      </trkpt>
      <trkpt lat="43.92886" lon="1.81584">
        <ele>942.40002441406</ele>
        <time>2019-06-27T18:16:03.000Z</time>
      </trkpt>
      <trkpt lat="43.92886" lon="1.81584">
        <ele>942.40002441406</ele>
        <time>2019-06-27T18:16:04.000Z</time>
      </trkpt>
      <trkpt lat="43.92886" lon="1.81584">
        <ele>942.40002441406</ele>
        <time>2019-06-27T18:16:05.000Z</time>
      </trkpt>
      <trkpt lat="43.92886" lon="1.81584">
        <ele>942.40002441406</ele>
        <time>2019-06-27T18:16:06.000Z</time>
      </trkpt>
      <trkpt lat="43.92886" lon="1.81584">
        <ele>942.40002441406</ele>
        <time>2019-06-27T18:16:07.000Z</time>
      </trkpt>
      <trkpt lat="43.92886" lon="1.81584">
        <ele>942.40002441406</ele>
        <time>2019-06-27T18:16:08.000Z</time>
      </trkpt>
      <trkpt lat="43.92886" lon="1.81584">
        <ele>942.40002441406</ele>
        <time>2019-06-27T18:16:09.000Z</time>
      </trkpt>
      <trkpt lat="43.92886" lon="1.81584">
        <ele>942.40002441406</ele>
        <time>2019-06-27T18:16:10.000Z</time>
      </trkpt>
      <trkpt lat="43.92886" lon="1.81584">
        <ele>942.40002441406</ele>
        <time>2019-06-27T18:16:11.000Z</time>
      </trkpt>
      <trkpt lat="43.92886" lon="1.81584">
        <ele>942.40002441406</ele>
        <time>2019-06-27T18:16:12.000Z</time>
      </trkpt>
      <trkpt lat="43.92886" lon="1.81584">
        <ele>942.40002441406</ele>
        <time>2019-06-27T18:16:13.000Z</time>
      </trkpt>
      <trkpt lat="43.92886" lon="1.81584">
        <ele>942.40002441406</ele>
        <time>2019-06-27T18:16:14.000Z</time>
      </trkpt>
      <trkpt lat="43.92886" lon="1.81584">
        <ele>942.40002441406</ele>
        <time>2019-06-27T18:16:15.000Z</time>
      </trkpt>
      <trkpt lat="43.92886" lon="1.81584">
        <ele>942.40002441406</ele>
        <time>2019-06-27T18:16:16.000Z</time>
      </trkpt>
      <trkpt lat="43.92886" lon="1.81583">
        <ele>942.40002441406</ele>
        <time>2019-06-27T18:16:17.000Z</time>
      </trkpt>
      <trkpt lat="43.92886" lon="1.81583">
        <ele>942.40002441406</ele>
        <time>2019-06-27T18:16:18.000Z</time>
      </trkpt>
      <trkpt lat="43.92886" lon="1.81583">
        <ele>942.40002441406</ele>
        <time>2019-06-27T18:16:19.000Z</time>
      </trkpt>
      <trkpt lat="43.92886" lon="1.81583">
        <ele>942.20001220703</ele>
        <time>2019-06-27T18:16:20.000Z</time>
      </trkpt>
      <trkpt lat="43.92886" lon="1.81583">
        <ele>942.40002441406</ele>
        <time>2019-06-27T18:16:21.000Z</time>
      </trkpt>
      <trkpt lat="43.92886" lon="1.81583">
        <ele>942.40002441406</ele>
        <time>2019-06-27T18:16:22.000Z</time>
      </trkpt>
      <trkpt lat="43.92886" lon="1.81583">
        <ele>942.40002441406</ele>
        <time>2019-06-27T18:16:23.000Z</time>
      </trkpt>
      <trkpt lat="43.92886" lon="1.81583">
        <ele>942.40002441406</ele>
        <time>2019-06-27T18:16:24.000Z</time>
      </trkpt>
      <trkpt lat="43.92886" lon="1.81583">
        <ele>942.40002441406</ele>
        <time>2019-06-27T18:16:25.000Z</time>
      </trkpt>
      <trkpt lat="43.92886" lon="1.81583">
        <ele>942.40002441406</ele>
        <time>2019-06-27T18:16:26.000Z</time>
      </trkpt>
      <trkpt lat="43.92886" lon="1.81583">
        <ele>942.40002441406</ele>
        <time>2019-06-27T18:16:27.000Z</time>
      </trkpt>
      <trkpt lat="43.92886" lon="1.81583">
        <ele>942.40002441406</ele>
        <time>2019-06-27T18:16:28.000Z</time>
      </trkpt>
      <trkpt lat="43.92886" lon="1.81583">
        <ele>942.40002441406</ele>
        <time>2019-06-27T18:16:29.000Z</time>
      </trkpt>
      <trkpt lat="43.92886" lon="1.81583">
        <ele>942.40002441406</ele>
        <time>2019-06-27T18:16:30.000Z</time>
      </trkpt>
      <trkpt lat="43.92886" lon="1.81583">
        <ele>942.40002441406</ele>
        <time>2019-06-27T18:16:31.000Z</time>
      </trkpt>
      <trkpt lat="43.92886" lon="1.81583">
        <ele>942.40002441406</ele>
        <time>2019-06-27T18:16:32.000Z</time>
      </trkpt>
      <trkpt lat="43.92886" lon="1.81583">
        <ele>942.40002441406</ele>
        <time>2019-06-27T18:16:33.000Z</time>
      </trkpt>
      <trkpt lat="43.92886" lon="1.81583">
        <ele>942.40002441406</ele>
        <time>2019-06-27T18:16:34.000Z</time>
      </trkpt>
      <trkpt lat="43.92886" lon="1.81583">
        <ele>942.40002441406</ele>
        <time>2019-06-27T18:16:35.000Z</time>
      </trkpt>
      <trkpt lat="43.92886" lon="1.81583">
        <ele>942.20001220703</ele>
        <time>2019-06-27T18:16:36.000Z</time>
      </trkpt>
      <trkpt lat="43.92886" lon="1.81583">
        <ele>942.20001220703</ele>
        <time>2019-06-27T18:16:37.000Z</time>
      </trkpt>
      <trkpt lat="43.92886" lon="1.81583">
        <ele>942.40002441406</ele>
        <time>2019-06-27T18:16:38.000Z</time>
      </trkpt>
      <trkpt lat="43.92886" lon="1.81583">
        <ele>942.40002441406</ele>
        <time>2019-06-27T18:16:39.000Z</time>
      </trkpt>
      <trkpt lat="43.92886" lon="1.81583">
        <ele>942.20001220703</ele>
        <time>2019-06-27T18:16:40.000Z</time>
      </trkpt>
      <trkpt lat="43.92887" lon="1.8158">
        <ele>942.20001220703</ele>
        <time>2019-06-27T18:16:41.000Z</time>
      </trkpt>
      <trkpt lat="43.92887" lon="1.81575">
        <ele>942.20001220703</ele>
        <time>2019-06-27T18:16:42.000Z</time>
      </trkpt>
      <trkpt lat="43.92887" lon="1.81571">
        <ele>942.20001220703</ele>
        <time>2019-06-27T18:16:43.000Z</time>
      </trkpt>
      <trkpt lat="43.92887" lon="1.81567">
        <ele>942</ele>
        <time>2019-06-27T18:16:44.000Z</time>
      </trkpt>
      <trkpt lat="43.92887" lon="1.81563">
        <ele>942.20001220703</ele>
        <time>2019-06-27T18:16:45.000Z</time>
      </trkpt>
      <trkpt lat="43.92886" lon="1.81559">
        <ele>942.20001220703</ele>
        <time>2019-06-27T18:16:46.000Z</time>
      </trkpt>
      <trkpt lat="43.92886" lon="1.81555">
        <ele>942.40002441406</ele>
        <time>2019-06-27T18:16:47.000Z</time>
      </trkpt>
      <trkpt lat="43.92885" lon="1.8155">
        <ele>942.20001220703</ele>
        <time>2019-06-27T18:16:48.000Z</time>
      </trkpt>
      <trkpt lat="43.92885" lon="1.81546">
        <ele>942.20001220703</ele>
        <time>2019-06-27T18:16:49.000Z</time>
      </trkpt>
      <trkpt lat="43.92884" lon="1.81541">
        <ele>942.20001220703</ele>
        <time>2019-06-27T18:16:50.000Z</time>
      </trkpt>
      <trkpt lat="43.92884" lon="1.81536">
        <ele>942.20001220703</ele>
        <time>2019-06-27T18:16:51.000Z</time>
      </trkpt>
      <trkpt lat="43.92883" lon="1.8153">
        <ele>942.20001220703</ele>
        <time>2019-06-27T18:16:52.000Z</time>
      </trkpt>
      <trkpt lat="43.92882" lon="1.81524">
        <ele>942</ele>
        <time>2019-06-27T18:16:53.000Z</time>
      </trkpt>
      <trkpt lat="43.92882" lon="1.81519">
        <ele>941.79998779297</ele>
        <time>2019-06-27T18:16:54.000Z</time>
      </trkpt>
      <trkpt lat="43.92881" lon="1.81513">
        <ele>941.59997558594</ele>
        <time>2019-06-27T18:16:55.000Z</time>
      </trkpt>
      <trkpt lat="43.9288" lon="1.81508">
        <ele>941.59997558594</ele>
        <time>2019-06-27T18:16:56.000Z</time>
      </trkpt>
      <trkpt lat="43.92879" lon="1.81503">
        <ele>941.40002441406</ele>
        <time>2019-06-27T18:16:57.000Z</time>
      </trkpt>
      <trkpt lat="43.92877" lon="1.81498">
        <ele>941.20001220703</ele>
        <time>2019-06-27T18:16:58.000Z</time>
      </trkpt>
      <trkpt lat="43.92876" lon="1.81494">
        <ele>941</ele>
        <time>2019-06-27T18:16:59.000Z</time>
      </trkpt>
      <trkpt lat="43.92875" lon="1.81491">
        <ele>940.79998779297</ele>
        <time>2019-06-27T18:17:00.000Z</time>
      </trkpt>
      <trkpt lat="43.92874" lon="1.81488">
        <ele>940.79998779297</ele>
        <time>2019-06-27T18:17:01.000Z</time>
      </trkpt>
      <trkpt lat="43.92874" lon="1.81484">
        <ele>940.79998779297</ele>
        <time>2019-06-27T18:17:02.000Z</time>
      </trkpt>
      <trkpt lat="43.92873" lon="1.81481">
        <ele>940.79998779297</ele>
        <time>2019-06-27T18:17:03.000Z</time>
      </trkpt>
      <trkpt lat="43.92872" lon="1.81477">
        <ele>940.79998779297</ele>
        <time>2019-06-27T18:17:04.000Z</time>
      </trkpt>
      <trkpt lat="43.92872" lon="1.81473">
        <ele>940.79998779297</ele>
        <time>2019-06-27T18:17:05.000Z</time>
      </trkpt>
      <trkpt lat="43.92871" lon="1.81468">
        <ele>941</ele>
        <time>2019-06-27T18:17:06.000Z</time>
      </trkpt>
      <trkpt lat="43.92869" lon="1.81464">
        <ele>941</ele>
        <time>2019-06-27T18:17:07.000Z</time>
      </trkpt>
      <trkpt lat="43.92868" lon="1.81458">
        <ele>941</ele>
        <time>2019-06-27T18:17:08.000Z</time>
      </trkpt>
      <trkpt lat="43.92866" lon="1.81452">
        <ele>941</ele>
        <time>2019-06-27T18:17:09.000Z</time>
      </trkpt>
      <trkpt lat="43.92864" lon="1.81446">
        <ele>941</ele>
        <time>2019-06-27T18:17:10.000Z</time>
      </trkpt>
      <trkpt lat="43.92862" lon="1.8144">
        <ele>941</ele>
        <time>2019-06-27T18:17:11.000Z</time>
      </trkpt>
      <trkpt lat="43.9286" lon="1.81434">
        <ele>941.20001220703</ele>
        <time>2019-06-27T18:17:12.000Z</time>
      </trkpt>
      <trkpt lat="43.92858" lon="1.81427">
        <ele>941.20001220703</ele>
        <time>2019-06-27T18:17:13.000Z</time>
      </trkpt>
      <trkpt lat="43.92856" lon="1.81422">
        <ele>941.40002441406</ele>
        <time>2019-06-27T18:17:14.000Z</time>
      </trkpt>
      <trkpt lat="43.92854" lon="1.81416">
        <ele>941.40002441406</ele>
        <time>2019-06-27T18:17:15.000Z</time>
      </trkpt>
      <trkpt lat="43.92852" lon="1.81411">
        <ele>941.59997558594</ele>
        <time>2019-06-27T18:17:16.000Z</time>
      </trkpt>
      <trkpt lat="43.9285" lon="1.81406">
        <ele>941.40002441406</ele>
        <time>2019-06-27T18:17:17.000Z</time>
      </trkpt>
      <trkpt lat="43.92848" lon="1.81402">
        <ele>941.40002441406</ele>
        <time>2019-06-27T18:17:18.000Z</time>
      </trkpt>
      <trkpt lat="43.92847" lon="1.81397">
        <ele>941.20001220703</ele>
        <time>2019-06-27T18:17:19.000Z</time>
      </trkpt>
      <trkpt lat="43.92845" lon="1.81393">
        <ele>941.20001220703</ele>
        <time>2019-06-27T18:17:20.000Z</time>
      </trkpt>
      <trkpt lat="43.92843" lon="1.81388">
        <ele>941.40002441406</ele>
        <time>2019-06-27T18:17:21.000Z</time>
      </trkpt>
      <trkpt lat="43.92841" lon="1.81382">
        <ele>941.59997558594</ele>
        <time>2019-06-27T18:17:22.000Z</time>
      </trkpt>
      <trkpt lat="43.92839" lon="1.81376">
        <ele>941.79998779297</ele>
        <time>2019-06-27T18:17:23.000Z</time>
      </trkpt>
      <trkpt lat="43.92836" lon="1.8137">
        <ele>941.79998779297</ele>
        <time>2019-06-27T18:17:24.000Z</time>
      </trkpt>
      <trkpt lat="43.92834" lon="1.81364">
        <ele>941.79998779297</ele>
        <time>2019-06-27T18:17:25.000Z</time>
      </trkpt>
      <trkpt lat="43.92832" lon="1.81358">
        <ele>942</ele>
        <time>2019-06-27T18:17:26.000Z</time>
      </trkpt>
      <trkpt lat="43.9283" lon="1.81353">
        <ele>942.20001220703</ele>
        <time>2019-06-27T18:17:27.000Z</time>
      </trkpt>
      <trkpt lat="43.92828" lon="1.81347">
        <ele>942.40002441406</ele>
        <time>2019-06-27T18:17:28.000Z</time>
      </trkpt>
      <trkpt lat="43.92827" lon="1.81342">
        <ele>942.40002441406</ele>
        <time>2019-06-27T18:17:29.000Z</time>
      </trkpt>
      <trkpt lat="43.92825" lon="1.81337">
        <ele>942.59997558594</ele>
        <time>2019-06-27T18:17:30.000Z</time>
      </trkpt>
      <trkpt lat="43.92823" lon="1.81331">
        <ele>942.59997558594</ele>
        <time>2019-06-27T18:17:31.000Z</time>
      </trkpt>
      <trkpt lat="43.92822" lon="1.81325">
        <ele>942.59997558594</ele>
        <time>2019-06-27T18:17:32.000Z</time>
      </trkpt>
      <trkpt lat="43.9282" lon="1.81318">
        <ele>942.59997558594</ele>
        <time>2019-06-27T18:17:33.000Z</time>
      </trkpt>
      <trkpt lat="43.92819" lon="1.81311">
        <ele>942.59997558594</ele>
        <time>2019-06-27T18:17:34.000Z</time>
      </trkpt>
      <trkpt lat="43.92817" lon="1.81305">
        <ele>942.40002441406</ele>
        <time>2019-06-27T18:17:35.000Z</time>
      </trkpt>
      <trkpt lat="43.92815" lon="1.81299">
        <ele>942.20001220703</ele>
        <time>2019-06-27T18:17:36.000Z</time>
      </trkpt>
      <trkpt lat="43.92813" lon="1.81292">
        <ele>942</ele>
        <time>2019-06-27T18:17:37.000Z</time>
      </trkpt>
      <trkpt lat="43.92811" lon="1.81286">
        <ele>941.79998779297</ele>
        <time>2019-06-27T18:17:38.000Z</time>
      </trkpt>
      <trkpt lat="43.9281" lon="1.8128">
        <ele>941.59997558594</ele>
        <time>2019-06-27T18:17:39.000Z</time>
      </trkpt>
      <trkpt lat="43.92808" lon="1.81274">
        <ele>941.20001220703</ele>
        <time>2019-06-27T18:17:40.000Z</time>
      </trkpt>
      <trkpt lat="43.92807" lon="1.81269">
        <ele>940.79998779297</ele>
        <time>2019-06-27T18:17:41.000Z</time>
      </trkpt>
      <trkpt lat="43.92805" lon="1.81264">
        <ele>940.40002441406</ele>
        <time>2019-06-27T18:17:42.000Z</time>
      </trkpt>
      <trkpt lat="43.92804" lon="1.81259">
        <ele>940</ele>
        <time>2019-06-27T18:17:43.000Z</time>
      </trkpt>
      <trkpt lat="43.92803" lon="1.81254">
        <ele>939.59997558594</ele>
        <time>2019-06-27T18:17:44.000Z</time>
      </trkpt>
      <trkpt lat="43.92803" lon="1.8125">
        <ele>939</ele>
        <time>2019-06-27T18:17:45.000Z</time>
      </trkpt>
      <trkpt lat="43.92803" lon="1.81247">
        <ele>938.59997558594</ele>
        <time>2019-06-27T18:17:46.000Z</time>
      </trkpt>
      <trkpt lat="43.92804" lon="1.81244">
        <ele>937.79998779297</ele>
        <time>2019-06-27T18:17:47.000Z</time>
      </trkpt>
      <trkpt lat="43.92805" lon="1.81242">
        <ele>937.59997558594</ele>
        <time>2019-06-27T18:17:48.000Z</time>
      </trkpt>
      <trkpt lat="43.92806" lon="1.8124">
        <ele>937.40002441406</ele>
        <time>2019-06-27T18:17:49.000Z</time>
      </trkpt>
      <trkpt lat="43.92805" lon="1.81241">
        <ele>937.20001220703</ele>
        <time>2019-06-27T18:17:50.000Z</time>
      </trkpt>
      <trkpt lat="43.92806" lon="1.81239">
        <ele>937</ele>
        <time>2019-06-27T18:17:51.000Z</time>
      </trkpt>
      <trkpt lat="43.92806" lon="1.81239">
        <ele>937</ele>
        <time>2019-06-27T18:17:52.000Z</time>
      </trkpt>
      <trkpt lat="43.92806" lon="1.81239">
        <ele>936.79998779297</ele>
        <time>2019-06-27T18:17:53.000Z</time>
      </trkpt>
      <trkpt lat="43.92806" lon="1.81239">
        <ele>936.79998779297</ele>
        <time>2019-06-27T18:17:54.000Z</time>
      </trkpt>
      <trkpt lat="43.92806" lon="1.81239">
        <ele>936.79998779297</ele>
        <time>2019-06-27T18:17:55.000Z</time>
      </trkpt>
      <trkpt lat="43.92806" lon="1.81239">
        <ele>936.79998779297</ele>
        <time>2019-06-27T18:17:56.000Z</time>
      </trkpt>
      <trkpt lat="43.92806" lon="1.81239">
        <ele>936.79998779297</ele>
        <time>2019-06-27T18:17:57.000Z</time>
      </trkpt>
      <trkpt lat="43.92806" lon="1.81239">
        <ele>936.79998779297</ele>
        <time>2019-06-27T18:17:58.000Z</time>
      </trkpt>
      <trkpt lat="43.92806" lon="1.81239">
        <ele>936.79998779297</ele>
        <time>2019-06-27T18:17:59.000Z</time>
      </trkpt>
      <trkpt lat="43.92806" lon="1.81239">
        <ele>936.79998779297</ele>
        <time>2019-06-27T18:18:00.000Z</time>
      </trkpt>
      <trkpt lat="43.92806" lon="1.81239">
        <ele>936.79998779297</ele>
        <time>2019-06-27T18:18:01.000Z</time>
      </trkpt>
      <trkpt lat="43.92806" lon="1.81239">
        <ele>936.79998779297</ele>
        <time>2019-06-27T18:18:02.000Z</time>
      </trkpt>
      <trkpt lat="43.92806" lon="1.81239">
        <ele>936.79998779297</ele>
        <time>2019-06-27T18:18:03.000Z</time>
      </trkpt>
      <trkpt lat="43.92808" lon="1.81237">
        <ele>936.79998779297</ele>
        <time>2019-06-27T18:18:04.000Z</time>
      </trkpt>
      <trkpt lat="43.9281" lon="1.81234">
        <ele>936.59997558594</ele>
        <time>2019-06-27T18:18:05.000Z</time>
      </trkpt>
      <trkpt lat="43.92811" lon="1.81231">
        <ele>936.40002441406</ele>
        <time>2019-06-27T18:18:06.000Z</time>
      </trkpt>
      <trkpt lat="43.92814" lon="1.81228">
        <ele>936.20001220703</ele>
        <time>2019-06-27T18:18:07.000Z</time>
      </trkpt>
      <trkpt lat="43.92816" lon="1.81224">
        <ele>935.79998779297</ele>
        <time>2019-06-27T18:18:08.000Z</time>
      </trkpt>
      <trkpt lat="43.92819" lon="1.8122">
        <ele>935.40002441406</ele>
        <time>2019-06-27T18:18:09.000Z</time>
      </trkpt>
      <trkpt lat="43.92821" lon="1.81216">
        <ele>935.20001220703</ele>
        <time>2019-06-27T18:18:10.000Z</time>
      </trkpt>
      <trkpt lat="43.92823" lon="1.81212">
        <ele>934.40002441406</ele>
        <time>2019-06-27T18:18:11.000Z</time>
      </trkpt>
      <trkpt lat="43.92825" lon="1.81208">
        <ele>934</ele>
        <time>2019-06-27T18:18:12.000Z</time>
      </trkpt>
      <trkpt lat="43.92827" lon="1.81205">
        <ele>933.59997558594</ele>
        <time>2019-06-27T18:18:13.000Z</time>
      </trkpt>
      <trkpt lat="43.92829" lon="1.81201">
        <ele>933.20001220703</ele>
        <time>2019-06-27T18:18:14.000Z</time>
      </trkpt>
      <trkpt lat="43.92831" lon="1.81198">
        <ele>932.40002441406</ele>
        <time>2019-06-27T18:18:15.000Z</time>
      </trkpt>
      <trkpt lat="43.92833" lon="1.81195">
        <ele>932</ele>
        <time>2019-06-27T18:18:16.000Z</time>
      </trkpt>
      <trkpt lat="43.92835" lon="1.81192">
        <ele>931.59997558594</ele>
        <time>2019-06-27T18:18:17.000Z</time>
      </trkpt>
      <trkpt lat="43.92836" lon="1.81189">
        <ele>931.20001220703</ele>
        <time>2019-06-27T18:18:18.000Z</time>
      </trkpt>
      <trkpt lat="43.92838" lon="1.81187">
        <ele>930.79998779297</ele>
        <time>2019-06-27T18:18:19.000Z</time>
      </trkpt>
      <trkpt lat="43.9284" lon="1.81185">
        <ele>930.20001220703</ele>
        <time>2019-06-27T18:18:20.000Z</time>
      </trkpt>
      <trkpt lat="43.92843" lon="1.81182">
        <ele>929.79998779297</ele>
        <time>2019-06-27T18:18:21.000Z</time>
      </trkpt>
      <trkpt lat="43.92845" lon="1.81179">
        <ele>929.20001220703</ele>
        <time>2019-06-27T18:18:22.000Z</time>
      </trkpt>
      <trkpt lat="43.92847" lon="1.81177">
        <ele>928.59997558594</ele>
        <time>2019-06-27T18:18:23.000Z</time>
      </trkpt>
      <trkpt lat="43.9285" lon="1.81174">
        <ele>928</ele>
        <time>2019-06-27T18:18:24.000Z</time>
      </trkpt>
      <trkpt lat="43.92852" lon="1.81172">
        <ele>927.20001220703</ele>
        <time>2019-06-27T18:18:25.000Z</time>
      </trkpt>
      <trkpt lat="43.92854" lon="1.81168">
        <ele>926.40002441406</ele>
        <time>2019-06-27T18:18:26.000Z</time>
      </trkpt>
      <trkpt lat="43.92856" lon="1.81165">
        <ele>925.79998779297</ele>
        <time>2019-06-27T18:18:27.000Z</time>
      </trkpt>
      <trkpt lat="43.92858" lon="1.81162">
        <ele>925.20001220703</ele>
        <time>2019-06-27T18:18:28.000Z</time>
      </trkpt>
      <trkpt lat="43.9286" lon="1.81159">
        <ele>924.79998779297</ele>
        <time>2019-06-27T18:18:29.000Z</time>
      </trkpt>
      <trkpt lat="43.92862" lon="1.81155">
        <ele>924</ele>
        <time>2019-06-27T18:18:30.000Z</time>
      </trkpt>
      <trkpt lat="43.92864" lon="1.81151">
        <ele>923.59997558594</ele>
        <time>2019-06-27T18:18:31.000Z</time>
      </trkpt>
      <trkpt lat="43.92865" lon="1.81147">
        <ele>923</ele>
        <time>2019-06-27T18:18:32.000Z</time>
      </trkpt>
      <trkpt lat="43.92867" lon="1.81143">
        <ele>922.59997558594</ele>
        <time>2019-06-27T18:18:33.000Z</time>
      </trkpt>
      <trkpt lat="43.92869" lon="1.81138">
        <ele>922.20001220703</ele>
        <time>2019-06-27T18:18:34.000Z</time>
      </trkpt>
      <trkpt lat="43.92871" lon="1.81134">
        <ele>921.79998779297</ele>
        <time>2019-06-27T18:18:35.000Z</time>
      </trkpt>
      <trkpt lat="43.92872" lon="1.81129">
        <ele>921.40002441406</ele>
        <time>2019-06-27T18:18:36.000Z</time>
      </trkpt>
      <trkpt lat="43.92873" lon="1.81125">
        <ele>921</ele>
        <time>2019-06-27T18:18:37.000Z</time>
      </trkpt>
      <trkpt lat="43.92873" lon="1.8112">
        <ele>920.59997558594</ele>
        <time>2019-06-27T18:18:38.000Z</time>
      </trkpt>
      <trkpt lat="43.92874" lon="1.81114">
        <ele>920.40002441406</ele>
        <time>2019-06-27T18:18:39.000Z</time>
      </trkpt>
      <trkpt lat="43.92874" lon="1.81108">
        <ele>920.20001220703</ele>
        <time>2019-06-27T18:18:40.000Z</time>
      </trkpt>
      <trkpt lat="43.92874" lon="1.81102">
        <ele>920</ele>
        <time>2019-06-27T18:18:41.000Z</time>
      </trkpt>
      <trkpt lat="43.92874" lon="1.81096">
        <ele>920</ele>
        <time>2019-06-27T18:18:42.000Z</time>
      </trkpt>
      <trkpt lat="43.92875" lon="1.8109">
        <ele>919.79998779297</ele>
        <time>2019-06-27T18:18:43.000Z</time>
      </trkpt>
      <trkpt lat="43.92876" lon="1.81085">
        <ele>919.59997558594</ele>
        <time>2019-06-27T18:18:44.000Z</time>
      </trkpt>
      <trkpt lat="43.92876" lon="1.8108">
        <ele>919.40002441406</ele>
        <time>2019-06-27T18:18:45.000Z</time>
      </trkpt>
      <trkpt lat="43.92876" lon="1.81075">
        <ele>919.20001220703</ele>
        <time>2019-06-27T18:18:46.000Z</time>
      </trkpt>
      <trkpt lat="43.92876" lon="1.81071">
        <ele>919.20001220703</ele>
        <time>2019-06-27T18:18:47.000Z</time>
      </trkpt>
      <trkpt lat="43.92877" lon="1.81068">
        <ele>919</ele>
        <time>2019-06-27T18:18:48.000Z</time>
      </trkpt>
      <trkpt lat="43.92877" lon="1.81069">
        <ele>919</ele>
        <time>2019-06-27T18:18:49.000Z</time>
      </trkpt>
      <trkpt lat="43.92878" lon="1.81065">
        <ele>919</ele>
        <time>2019-06-27T18:18:50.000Z</time>
      </trkpt>
      <trkpt lat="43.92879" lon="1.81063">
        <ele>919</ele>
        <time>2019-06-27T18:18:51.000Z</time>
      </trkpt>
      <trkpt lat="43.92879" lon="1.81061">
        <ele>919</ele>
        <time>2019-06-27T18:18:52.000Z</time>
      </trkpt>
      <trkpt lat="43.9288" lon="1.81058">
        <ele>918.79998779297</ele>
        <time>2019-06-27T18:18:53.000Z</time>
      </trkpt>
      <trkpt lat="43.9288" lon="1.81059">
        <ele>918.79998779297</ele>
        <time>2019-06-27T18:18:54.000Z</time>
      </trkpt>
      <trkpt lat="43.92881" lon="1.81054">
        <ele>919</ele>
        <time>2019-06-27T18:18:55.000Z</time>
      </trkpt>
      <trkpt lat="43.92881" lon="1.81052">
        <ele>919</ele>
        <time>2019-06-27T18:18:56.000Z</time>
      </trkpt>
      <trkpt lat="43.92881" lon="1.81049">
        <ele>919</ele>
        <time>2019-06-27T18:18:57.000Z</time>
      </trkpt>
      <trkpt lat="43.92881" lon="1.81046">
        <ele>919</ele>
        <time>2019-06-27T18:18:58.000Z</time>
      </trkpt>
      <trkpt lat="43.9288" lon="1.81044">
        <ele>919</ele>
        <time>2019-06-27T18:18:59.000Z</time>
      </trkpt>
      <trkpt lat="43.9288" lon="1.81042">
        <ele>919</ele>
        <time>2019-06-27T18:19:00.000Z</time>
      </trkpt>
      <trkpt lat="43.92879" lon="1.81039">
        <ele>919.20001220703</ele>
        <time>2019-06-27T18:19:01.000Z</time>
      </trkpt>
      <trkpt lat="43.92879" lon="1.81037">
        <ele>919.20001220703</ele>
        <time>2019-06-27T18:19:02.000Z</time>
      </trkpt>
      <trkpt lat="43.92879" lon="1.81034">
        <ele>919.40002441406</ele>
        <time>2019-06-27T18:19:03.000Z</time>
      </trkpt>
      <trkpt lat="43.92879" lon="1.81031">
        <ele>919.59997558594</ele>
        <time>2019-06-27T18:19:04.000Z</time>
      </trkpt>
      <trkpt lat="43.92878" lon="1.81029">
        <ele>919.79998779297</ele>
        <time>2019-06-27T18:19:05.000Z</time>
      </trkpt>
      <trkpt lat="43.92878" lon="1.81026">
        <ele>919.79998779297</ele>
        <time>2019-06-27T18:19:06.000Z</time>
      </trkpt>
      <trkpt lat="43.92877" lon="1.81023">
        <ele>919.79998779297</ele>
        <time>2019-06-27T18:19:07.000Z</time>
      </trkpt>
      <trkpt lat="43.92877" lon="1.81021">
        <ele>920</ele>
        <time>2019-06-27T18:19:08.000Z</time>
      </trkpt>
      <trkpt lat="43.92876" lon="1.81018">
        <ele>920</ele>
        <time>2019-06-27T18:19:09.000Z</time>
      </trkpt>
      <trkpt lat="43.92876" lon="1.81015">
        <ele>920.20001220703</ele>
        <time>2019-06-27T18:19:10.000Z</time>
      </trkpt>
      <trkpt lat="43.92876" lon="1.81013">
        <ele>920.40002441406</ele>
        <time>2019-06-27T18:19:11.000Z</time>
      </trkpt>
      <trkpt lat="43.92875" lon="1.81011">
        <ele>920.59997558594</ele>
        <time>2019-06-27T18:19:12.000Z</time>
      </trkpt>
      <trkpt lat="43.92874" lon="1.81009">
        <ele>920.59997558594</ele>
        <time>2019-06-27T18:19:13.000Z</time>
      </trkpt>
      <trkpt lat="43.92873" lon="1.81007">
        <ele>920.59997558594</ele>
        <time>2019-06-27T18:19:14.000Z</time>
      </trkpt>
      <trkpt lat="43.92873" lon="1.81005">
        <ele>920.79998779297</ele>
        <time>2019-06-27T18:19:15.000Z</time>
      </trkpt>
      <trkpt lat="43.92873" lon="1.81003">
        <ele>920.79998779297</ele>
        <time>2019-06-27T18:19:16.000Z</time>
      </trkpt>
      <trkpt lat="43.92873" lon="1.81">
        <ele>921.20001220703</ele>
        <time>2019-06-27T18:19:17.000Z</time>
      </trkpt>
      <trkpt lat="43.92872" lon="1.80998">
        <ele>921.20001220703</ele>
        <time>2019-06-27T18:19:18.000Z</time>
      </trkpt>
      <trkpt lat="43.92871" lon="1.80996">
        <ele>921.40002441406</ele>
        <time>2019-06-27T18:19:19.000Z</time>
      </trkpt>
      <trkpt lat="43.92871" lon="1.80994">
        <ele>921.59997558594</ele>
        <time>2019-06-27T18:19:20.000Z</time>
      </trkpt>
      <trkpt lat="43.92869" lon="1.80991">
        <ele>921.79998779297</ele>
        <time>2019-06-27T18:19:21.000Z</time>
      </trkpt>
      <trkpt lat="43.92869" lon="1.80989">
        <ele>921.79998779297</ele>
        <time>2019-06-27T18:19:22.000Z</time>
      </trkpt>
      <trkpt lat="43.92867" lon="1.80987">
        <ele>922</ele>
        <time>2019-06-27T18:19:23.000Z</time>
      </trkpt>
      <trkpt lat="43.92866" lon="1.80985">
        <ele>922.40002441406</ele>
        <time>2019-06-27T18:19:24.000Z</time>
      </trkpt>
      <trkpt lat="43.92865" lon="1.80982">
        <ele>922.59997558594</ele>
        <time>2019-06-27T18:19:25.000Z</time>
      </trkpt>
      <trkpt lat="43.92865" lon="1.8098">
        <ele>922.59997558594</ele>
        <time>2019-06-27T18:19:26.000Z</time>
      </trkpt>
      <trkpt lat="43.92864" lon="1.80977">
        <ele>922.79998779297</ele>
        <time>2019-06-27T18:19:27.000Z</time>
      </trkpt>
      <trkpt lat="43.92862" lon="1.80975">
        <ele>923</ele>
        <time>2019-06-27T18:19:28.000Z</time>
      </trkpt>
      <trkpt lat="43.92861" lon="1.80973">
        <ele>923.40002441406</ele>
        <time>2019-06-27T18:19:29.000Z</time>
      </trkpt>
      <trkpt lat="43.9286" lon="1.80971">
        <ele>923.59997558594</ele>
        <time>2019-06-27T18:19:30.000Z</time>
      </trkpt>
      <trkpt lat="43.92859" lon="1.80969">
        <ele>923.79998779297</ele>
        <time>2019-06-27T18:19:31.000Z</time>
      </trkpt>
      <trkpt lat="43.92857" lon="1.80967">
        <ele>924</ele>
        <time>2019-06-27T18:19:32.000Z</time>
      </trkpt>
      <trkpt lat="43.92856" lon="1.80965">
        <ele>924.20001220703</ele>
        <time>2019-06-27T18:19:33.000Z</time>
      </trkpt>
      <trkpt lat="43.92855" lon="1.80963">
        <ele>924.40002441406</ele>
        <time>2019-06-27T18:19:34.000Z</time>
      </trkpt>
      <trkpt lat="43.92853" lon="1.80961">
        <ele>924.79998779297</ele>
        <time>2019-06-27T18:19:35.000Z</time>
      </trkpt>
      <trkpt lat="43.92851" lon="1.80959">
        <ele>925</ele>
        <time>2019-06-27T18:19:36.000Z</time>
      </trkpt>
      <trkpt lat="43.9285" lon="1.80956">
        <ele>925</ele>
        <time>2019-06-27T18:19:37.000Z</time>
      </trkpt>
      <trkpt lat="43.92849" lon="1.80955">
        <ele>925.20001220703</ele>
        <time>2019-06-27T18:19:38.000Z</time>
      </trkpt>
      <trkpt lat="43.92848" lon="1.80952">
        <ele>925.40002441406</ele>
        <time>2019-06-27T18:19:39.000Z</time>
      </trkpt>
      <trkpt lat="43.92847" lon="1.80949">
        <ele>925.79998779297</ele>
        <time>2019-06-27T18:19:40.000Z</time>
      </trkpt>
      <trkpt lat="43.92847" lon="1.80947">
        <ele>926</ele>
        <time>2019-06-27T18:19:41.000Z</time>
      </trkpt>
      <trkpt lat="43.92846" lon="1.80944">
        <ele>926.20001220703</ele>
        <time>2019-06-27T18:19:42.000Z</time>
      </trkpt>
      <trkpt lat="43.92846" lon="1.80941">
        <ele>926.20001220703</ele>
        <time>2019-06-27T18:19:43.000Z</time>
      </trkpt>
      <trkpt lat="43.92847" lon="1.80939">
        <ele>926.40002441406</ele>
        <time>2019-06-27T18:19:44.000Z</time>
      </trkpt>
      <trkpt lat="43.92847" lon="1.80936">
        <ele>926.59997558594</ele>
        <time>2019-06-27T18:19:45.000Z</time>
      </trkpt>
      <trkpt lat="43.92847" lon="1.80934">
        <ele>926.79998779297</ele>
        <time>2019-06-27T18:19:46.000Z</time>
      </trkpt>
      <trkpt lat="43.92847" lon="1.80932">
        <ele>927</ele>
        <time>2019-06-27T18:19:47.000Z</time>
      </trkpt>
      <trkpt lat="43.92847" lon="1.80929">
        <ele>927.40002441406</ele>
        <time>2019-06-27T18:19:48.000Z</time>
      </trkpt>
      <trkpt lat="43.92847" lon="1.80927">
        <ele>927.79998779297</ele>
        <time>2019-06-27T18:19:49.000Z</time>
      </trkpt>
      <trkpt lat="43.92847" lon="1.80925">
        <ele>927.59997558594</ele>
        <time>2019-06-27T18:19:50.000Z</time>
      </trkpt>
      <trkpt lat="43.92848" lon="1.80922">
        <ele>927.79998779297</ele>
        <time>2019-06-27T18:19:51.000Z</time>
      </trkpt>
      <trkpt lat="43.92848" lon="1.8092">
        <ele>927.79998779297</ele>
        <time>2019-06-27T18:19:52.000Z</time>
      </trkpt>
      <trkpt lat="43.92848" lon="1.80918">
        <ele>927.79998779297</ele>
        <time>2019-06-27T18:19:53.000Z</time>
      </trkpt>
      <trkpt lat="43.92848" lon="1.80917">
        <ele>928</ele>
        <time>2019-06-27T18:19:54.000Z</time>
      </trkpt>
      <trkpt lat="43.92847" lon="1.80915">
        <ele>928</ele>
        <time>2019-06-27T18:19:55.000Z</time>
      </trkpt>
      <trkpt lat="43.92847" lon="1.80913">
        <ele>928</ele>
        <time>2019-06-27T18:19:56.000Z</time>
      </trkpt>
      <trkpt lat="43.92848" lon="1.80912">
        <ele>928</ele>
        <time>2019-06-27T18:19:57.000Z</time>
      </trkpt>
      <trkpt lat="43.92849" lon="1.80911">
        <ele>928</ele>
        <time>2019-06-27T18:19:58.000Z</time>
      </trkpt>
      <trkpt lat="43.9285" lon="1.8091">
        <ele>928</ele>
        <time>2019-06-27T18:19:59.000Z</time>
      </trkpt>
      <trkpt lat="43.92851" lon="1.80909">
        <ele>928</ele>
        <time>2019-06-27T18:20:00.000Z</time>
      </trkpt>
      <trkpt lat="43.92851" lon="1.80908">
        <ele>928</ele>
        <time>2019-06-27T18:20:01.000Z</time>
      </trkpt>
      <trkpt lat="43.92851" lon="1.80906">
        <ele>928.20001220703</ele>
        <time>2019-06-27T18:20:02.000Z</time>
      </trkpt>
      <trkpt lat="43.92852" lon="1.80905">
        <ele>928.20001220703</ele>
        <time>2019-06-27T18:20:03.000Z</time>
      </trkpt>
      <trkpt lat="43.92852" lon="1.80903">
        <ele>928.20001220703</ele>
        <time>2019-06-27T18:20:04.000Z</time>
      </trkpt>
      <trkpt lat="43.92853" lon="1.80901">
        <ele>928.20001220703</ele>
        <time>2019-06-27T18:20:05.000Z</time>
      </trkpt>
      <trkpt lat="43.92853" lon="1.809">
        <ele>928.40002441406</ele>
        <time>2019-06-27T18:20:06.000Z</time>
      </trkpt>
      <trkpt lat="43.92853" lon="1.80898">
        <ele>928.40002441406</ele>
        <time>2019-06-27T18:20:07.000Z</time>
      </trkpt>
      <trkpt lat="43.92854" lon="1.80897">
        <ele>928.40002441406</ele>
        <time>2019-06-27T18:20:08.000Z</time>
      </trkpt>
      <trkpt lat="43.92854" lon="1.80896">
        <ele>928.40002441406</ele>
        <time>2019-06-27T18:20:09.000Z</time>
      </trkpt>
      <trkpt lat="43.92854" lon="1.80894">
        <ele>928.40002441406</ele>
        <time>2019-06-27T18:20:10.000Z</time>
      </trkpt>
      <trkpt lat="43.92854" lon="1.80893">
        <ele>928.40002441406</ele>
        <time>2019-06-27T18:20:11.000Z</time>
      </trkpt>
      <trkpt lat="43.92853" lon="1.80892">
        <ele>928.40002441406</ele>
        <time>2019-06-27T18:20:12.000Z</time>
      </trkpt>
      <trkpt lat="43.92853" lon="1.80892">
        <ele>928.40002441406</ele>
        <time>2019-06-27T18:20:13.000Z</time>
      </trkpt>
      <trkpt lat="43.92853" lon="1.8089">
        <ele>928.40002441406</ele>
        <time>2019-06-27T18:20:14.000Z</time>
      </trkpt>
      <trkpt lat="43.92854" lon="1.8089">
        <ele>928.40002441406</ele>
        <time>2019-06-27T18:20:15.000Z</time>
      </trkpt>
      <trkpt lat="43.92855" lon="1.8089">
        <ele>928.59997558594</ele>
        <time>2019-06-27T18:20:16.000Z</time>
      </trkpt>
      <trkpt lat="43.92856" lon="1.8089">
        <ele>928.59997558594</ele>
        <time>2019-06-27T18:20:17.000Z</time>
      </trkpt>
      <trkpt lat="43.92857" lon="1.80892">
        <ele>928.59997558594</ele>
        <time>2019-06-27T18:20:18.000Z</time>
      </trkpt>
      <trkpt lat="43.92857" lon="1.80894">
        <ele>928.59997558594</ele>
        <time>2019-06-27T18:20:19.000Z</time>
      </trkpt>
      <trkpt lat="43.92857" lon="1.80895">
        <ele>928.40002441406</ele>
        <time>2019-06-27T18:20:20.000Z</time>
      </trkpt>
      <trkpt lat="43.92856" lon="1.80897">
        <ele>928.40002441406</ele>
        <time>2019-06-27T18:20:21.000Z</time>
      </trkpt>
      <trkpt lat="43.92855" lon="1.80898">
        <ele>928.40002441406</ele>
        <time>2019-06-27T18:20:22.000Z</time>
      </trkpt>
      <trkpt lat="43.92854" lon="1.80898">
        <ele>928.40002441406</ele>
        <time>2019-06-27T18:20:23.000Z</time>
      </trkpt>
      <trkpt lat="43.92853" lon="1.80899">
        <ele>928.40002441406</ele>
        <time>2019-06-27T18:20:24.000Z</time>
      </trkpt>
      <trkpt lat="43.92852" lon="1.80901">
        <ele>928.40002441406</ele>
        <time>2019-06-27T18:20:25.000Z</time>
      </trkpt>
      <trkpt lat="43.92851" lon="1.80902">
        <ele>928.40002441406</ele>
        <time>2019-06-27T18:20:26.000Z</time>
      </trkpt>
      <trkpt lat="43.9285" lon="1.80904">
        <ele>928.40002441406</ele>
        <time>2019-06-27T18:20:27.000Z</time>
      </trkpt>
      <trkpt lat="43.92849" lon="1.80907">
        <ele>928.40002441406</ele>
        <time>2019-06-27T18:20:28.000Z</time>
      </trkpt>
      <trkpt lat="43.92848" lon="1.80909">
        <ele>928.40002441406</ele>
        <time>2019-06-27T18:20:29.000Z</time>
      </trkpt>
      <trkpt lat="43.92848" lon="1.80911">
        <ele>928.20001220703</ele>
        <time>2019-06-27T18:20:30.000Z</time>
      </trkpt>
      <trkpt lat="43.92847" lon="1.80913">
        <ele>928.20001220703</ele>
        <time>2019-06-27T18:20:31.000Z</time>
      </trkpt>
      <trkpt lat="43.92845" lon="1.80915">
        <ele>928.20001220703</ele>
        <time>2019-06-27T18:20:32.000Z</time>
      </trkpt>
      <trkpt lat="43.92844" lon="1.80916">
        <ele>928.20001220703</ele>
        <time>2019-06-27T18:20:33.000Z</time>
      </trkpt>
      <trkpt lat="43.92844" lon="1.80918">
        <ele>928</ele>
        <time>2019-06-27T18:20:34.000Z</time>
      </trkpt>
      <trkpt lat="43.92843" lon="1.80919">
        <ele>927.79998779297</ele>
        <time>2019-06-27T18:20:35.000Z</time>
      </trkpt>
      <trkpt lat="43.92844" lon="1.80921">
        <ele>927.79998779297</ele>
        <time>2019-06-27T18:20:36.000Z</time>
      </trkpt>
      <trkpt lat="43.92845" lon="1.80921">
        <ele>927.79998779297</ele>
        <time>2019-06-27T18:20:37.000Z</time>
      </trkpt>
      <trkpt lat="43.92846" lon="1.80921">
        <ele>927.79998779297</ele>
        <time>2019-06-27T18:20:38.000Z</time>
      </trkpt>
      <trkpt lat="43.92847" lon="1.8092">
        <ele>927.79998779297</ele>
        <time>2019-06-27T18:20:39.000Z</time>
      </trkpt>
      <trkpt lat="43.92847" lon="1.80919">
        <ele>928</ele>
        <time>2019-06-27T18:20:40.000Z</time>
      </trkpt>
      <trkpt lat="43.92848" lon="1.80918">
        <ele>928</ele>
        <time>2019-06-27T18:20:41.000Z</time>
      </trkpt>
      <trkpt lat="43.92847" lon="1.80917">
        <ele>928</ele>
        <time>2019-06-27T18:20:42.000Z</time>
      </trkpt>
      <trkpt lat="43.92846" lon="1.80916">
        <ele>928</ele>
        <time>2019-06-27T18:20:43.000Z</time>
      </trkpt>
      <trkpt lat="43.92845" lon="1.80915">
        <ele>928</ele>
        <time>2019-06-27T18:20:44.000Z</time>
      </trkpt>
      <trkpt lat="43.92845" lon="1.80914">
        <ele>928</ele>
        <time>2019-06-27T18:20:45.000Z</time>
      </trkpt>
      <trkpt lat="43.92846" lon="1.80912">
        <ele>928</ele>
        <time>2019-06-27T18:20:46.000Z</time>
      </trkpt>
      <trkpt lat="43.92847" lon="1.80911">
        <ele>927.79998779297</ele>
        <time>2019-06-27T18:20:47.000Z</time>
      </trkpt>
      <trkpt lat="43.92848" lon="1.8091">
        <ele>927.79998779297</ele>
        <time>2019-06-27T18:20:48.000Z</time>
      </trkpt>
      <trkpt lat="43.92849" lon="1.8091">
        <ele>928</ele>
        <time>2019-06-27T18:20:49.000Z</time>
      </trkpt>
      <trkpt lat="43.9285" lon="1.80911">
        <ele>928</ele>
        <time>2019-06-27T18:20:50.000Z</time>
      </trkpt>
      <trkpt lat="43.92851" lon="1.80912">
        <ele>928</ele>
        <time>2019-06-27T18:20:51.000Z</time>
      </trkpt>
      <trkpt lat="43.92851" lon="1.80913">
        <ele>928</ele>
        <time>2019-06-27T18:20:52.000Z</time>
      </trkpt>
      <trkpt lat="43.9285" lon="1.80914">
        <ele>928</ele>
        <time>2019-06-27T18:20:53.000Z</time>
      </trkpt>
      <trkpt lat="43.92849" lon="1.80915">
        <ele>928.20001220703</ele>
        <time>2019-06-27T18:20:54.000Z</time>
      </trkpt>
      <trkpt lat="43.92848" lon="1.80916">
        <ele>928</ele>
        <time>2019-06-27T18:20:55.000Z</time>
      </trkpt>
      <trkpt lat="43.92847" lon="1.80917">
        <ele>928</ele>
        <time>2019-06-27T18:20:56.000Z</time>
      </trkpt>
      <trkpt lat="43.92846" lon="1.80917">
        <ele>928</ele>
        <time>2019-06-27T18:20:57.000Z</time>
      </trkpt>
      <trkpt lat="43.92845" lon="1.80915">
        <ele>927.79998779297</ele>
        <time>2019-06-27T18:20:58.000Z</time>
      </trkpt>
      <trkpt lat="43.92844" lon="1.80913">
        <ele>927.79998779297</ele>
        <time>2019-06-27T18:20:59.000Z</time>
      </trkpt>
      <trkpt lat="43.92845" lon="1.80912">
        <ele>928</ele>
        <time>2019-06-27T18:21:00.000Z</time>
      </trkpt>
      <trkpt lat="43.92846" lon="1.80911">
        <ele>928</ele>
        <time>2019-06-27T18:21:01.000Z</time>
      </trkpt>
      <trkpt lat="43.92847" lon="1.80909">
        <ele>928</ele>
        <time>2019-06-27T18:21:02.000Z</time>
      </trkpt>
      <trkpt lat="43.92848" lon="1.80908">
        <ele>928</ele>
        <time>2019-06-27T18:21:03.000Z</time>
      </trkpt>
      <trkpt lat="43.92849" lon="1.80906">
        <ele>928</ele>
        <time>2019-06-27T18:21:04.000Z</time>
      </trkpt>
      <trkpt lat="43.92849" lon="1.80904">
        <ele>928</ele>
        <time>2019-06-27T18:21:05.000Z</time>
      </trkpt>
      <trkpt lat="43.9285" lon="1.80902">
        <ele>928</ele>
        <time>2019-06-27T18:21:06.000Z</time>
      </trkpt>
      <trkpt lat="43.92851" lon="1.809">
        <ele>928.20001220703</ele>
        <time>2019-06-27T18:21:07.000Z</time>
      </trkpt>
      <trkpt lat="43.92851" lon="1.80897">
        <ele>928.20001220703</ele>
        <time>2019-06-27T18:21:08.000Z</time>
      </trkpt>
      <trkpt lat="43.92851" lon="1.80895">
        <ele>928.20001220703</ele>
        <time>2019-06-27T18:21:09.000Z</time>
      </trkpt>
      <trkpt lat="43.92852" lon="1.80893">
        <ele>928.20001220703</ele>
        <time>2019-06-27T18:21:10.000Z</time>
      </trkpt>
      <trkpt lat="43.92852" lon="1.80891">
        <ele>928.40002441406</ele>
        <time>2019-06-27T18:21:11.000Z</time>
      </trkpt>
      <trkpt lat="43.92852" lon="1.80888">
        <ele>928.40002441406</ele>
        <time>2019-06-27T18:21:12.000Z</time>
      </trkpt>
      <trkpt lat="43.92852" lon="1.80886">
        <ele>928.40002441406</ele>
        <time>2019-06-27T18:21:13.000Z</time>
      </trkpt>
      <trkpt lat="43.92852" lon="1.80883">
        <ele>928.59997558594</ele>
        <time>2019-06-27T18:21:14.000Z</time>
      </trkpt>
      <trkpt lat="43.92852" lon="1.80881">
        <ele>928.59997558594</ele>
        <time>2019-06-27T18:21:15.000Z</time>
      </trkpt>
      <trkpt lat="43.92852" lon="1.80879">
        <ele>928.79998779297</ele>
        <time>2019-06-27T18:21:16.000Z</time>
      </trkpt>
      <trkpt lat="43.92852" lon="1.80876">
        <ele>928.79998779297</ele>
        <time>2019-06-27T18:21:17.000Z</time>
      </trkpt>
      <trkpt lat="43.92851" lon="1.80874">
        <ele>929</ele>
        <time>2019-06-27T18:21:18.000Z</time>
      </trkpt>
      <trkpt lat="43.9285" lon="1.80872">
        <ele>929</ele>
        <time>2019-06-27T18:21:19.000Z</time>
      </trkpt>
      <trkpt lat="43.9285" lon="1.8087">
        <ele>929.20001220703</ele>
        <time>2019-06-27T18:21:20.000Z</time>
      </trkpt>
      <trkpt lat="43.92849" lon="1.80868">
        <ele>929.20001220703</ele>
        <time>2019-06-27T18:21:21.000Z</time>
      </trkpt>
      <trkpt lat="43.92848" lon="1.80866">
        <ele>929.20001220703</ele>
        <time>2019-06-27T18:21:22.000Z</time>
      </trkpt>
      <trkpt lat="43.92847" lon="1.80863">
        <ele>929.40002441406</ele>
        <time>2019-06-27T18:21:23.000Z</time>
      </trkpt>
      <trkpt lat="43.92846" lon="1.80861">
        <ele>929.40002441406</ele>
        <time>2019-06-27T18:21:24.000Z</time>
      </trkpt>
      <trkpt lat="43.92845" lon="1.80859">
        <ele>929.40002441406</ele>
        <time>2019-06-27T18:21:25.000Z</time>
      </trkpt>
      <trkpt lat="43.92843" lon="1.80856">
        <ele>929.59997558594</ele>
        <time>2019-06-27T18:21:26.000Z</time>
      </trkpt>
      <trkpt lat="43.92842" lon="1.80854">
        <ele>929.59997558594</ele>
        <time>2019-06-27T18:21:27.000Z</time>
      </trkpt>
      <trkpt lat="43.92841" lon="1.80852">
        <ele>929.59997558594</ele>
        <time>2019-06-27T18:21:28.000Z</time>
      </trkpt>
      <trkpt lat="43.92839" lon="1.80851">
        <ele>929.79998779297</ele>
        <time>2019-06-27T18:21:29.000Z</time>
      </trkpt>
      <trkpt lat="43.92838" lon="1.80849">
        <ele>929.79998779297</ele>
        <time>2019-06-27T18:21:30.000Z</time>
      </trkpt>
      <trkpt lat="43.92837" lon="1.80846">
        <ele>929.79998779297</ele>
        <time>2019-06-27T18:21:31.000Z</time>
      </trkpt>
      <trkpt lat="43.92836" lon="1.80844">
        <ele>929.79998779297</ele>
        <time>2019-06-27T18:21:32.000Z</time>
      </trkpt>
      <trkpt lat="43.92835" lon="1.80843">
        <ele>930</ele>
        <time>2019-06-27T18:21:33.000Z</time>
      </trkpt>
      <trkpt lat="43.92834" lon="1.80841">
        <ele>930.20001220703</ele>
        <time>2019-06-27T18:21:34.000Z</time>
      </trkpt>
      <trkpt lat="43.92833" lon="1.80839">
        <ele>930.20001220703</ele>
        <time>2019-06-27T18:21:35.000Z</time>
      </trkpt>
      <trkpt lat="43.92832" lon="1.80836">
        <ele>930.20001220703</ele>
        <time>2019-06-27T18:21:36.000Z</time>
      </trkpt>
      <trkpt lat="43.92831" lon="1.80833">
        <ele>930.20001220703</ele>
        <time>2019-06-27T18:21:37.000Z</time>
      </trkpt>
      <trkpt lat="43.9283" lon="1.80831">
        <ele>930.40002441406</ele>
        <time>2019-06-27T18:21:38.000Z</time>
      </trkpt>
      <trkpt lat="43.92829" lon="1.80829">
        <ele>930.40002441406</ele>
        <time>2019-06-27T18:21:39.000Z</time>
      </trkpt>
      <trkpt lat="43.92828" lon="1.80828">
        <ele>930.59997558594</ele>
        <time>2019-06-27T18:21:40.000Z</time>
      </trkpt>
      <trkpt lat="43.92827" lon="1.80826">
        <ele>930.59997558594</ele>
        <time>2019-06-27T18:21:41.000Z</time>
      </trkpt>
      <trkpt lat="43.92826" lon="1.80824">
        <ele>930.79998779297</ele>
        <time>2019-06-27T18:21:42.000Z</time>
      </trkpt>
      <trkpt lat="43.92825" lon="1.80822">
        <ele>930.79998779297</ele>
        <time>2019-06-27T18:21:43.000Z</time>
      </trkpt>
      <trkpt lat="43.92824" lon="1.8082">
        <ele>930.79998779297</ele>
        <time>2019-06-27T18:21:44.000Z</time>
      </trkpt>
      <trkpt lat="43.92824" lon="1.80818">
        <ele>930.79998779297</ele>
        <time>2019-06-27T18:21:45.000Z</time>
      </trkpt>
      <trkpt lat="43.92823" lon="1.80816">
        <ele>930.79998779297</ele>
        <time>2019-06-27T18:21:46.000Z</time>
      </trkpt>
      <trkpt lat="43.92822" lon="1.80815">
        <ele>930.79998779297</ele>
        <time>2019-06-27T18:21:47.000Z</time>
      </trkpt>
      <trkpt lat="43.92821" lon="1.80813">
        <ele>930.79998779297</ele>
        <time>2019-06-27T18:21:48.000Z</time>
      </trkpt>
      <trkpt lat="43.92819" lon="1.80811">
        <ele>930.79998779297</ele>
        <time>2019-06-27T18:21:49.000Z</time>
      </trkpt>
      <trkpt lat="43.92818" lon="1.80808">
        <ele>930.79998779297</ele>
        <time>2019-06-27T18:21:50.000Z</time>
      </trkpt>
      <trkpt lat="43.92817" lon="1.80806">
        <ele>930.79998779297</ele>
        <time>2019-06-27T18:21:51.000Z</time>
      </trkpt>
      <trkpt lat="43.92816" lon="1.80803">
        <ele>930.79998779297</ele>
        <time>2019-06-27T18:21:52.000Z</time>
      </trkpt>
      <trkpt lat="43.92815" lon="1.808">
        <ele>930.79998779297</ele>
        <time>2019-06-27T18:21:53.000Z</time>
      </trkpt>
      <trkpt lat="43.92814" lon="1.80797">
        <ele>931</ele>
        <time>2019-06-27T18:21:54.000Z</time>
      </trkpt>
      <trkpt lat="43.92813" lon="1.80794">
        <ele>931</ele>
        <time>2019-06-27T18:21:55.000Z</time>
      </trkpt>
      <trkpt lat="43.92812" lon="1.80791">
        <ele>931</ele>
        <time>2019-06-27T18:21:56.000Z</time>
      </trkpt>
      <trkpt lat="43.92812" lon="1.80788">
        <ele>931</ele>
        <time>2019-06-27T18:21:57.000Z</time>
      </trkpt>
      <trkpt lat="43.92811" lon="1.80785">
        <ele>930.79998779297</ele>
        <time>2019-06-27T18:21:58.000Z</time>
      </trkpt>
      <trkpt lat="43.9281" lon="1.80782">
        <ele>930.79998779297</ele>
        <time>2019-06-27T18:21:59.000Z</time>
      </trkpt>
      <trkpt lat="43.9281" lon="1.80778">
        <ele>931</ele>
        <time>2019-06-27T18:22:00.000Z</time>
      </trkpt>
      <trkpt lat="43.9281" lon="1.80775">
        <ele>931</ele>
        <time>2019-06-27T18:22:01.000Z</time>
      </trkpt>
      <trkpt lat="43.92811" lon="1.80771">
        <ele>931</ele>
        <time>2019-06-27T18:22:02.000Z</time>
      </trkpt>
      <trkpt lat="43.92811" lon="1.80768">
        <ele>930.79998779297</ele>
        <time>2019-06-27T18:22:03.000Z</time>
      </trkpt>
      <trkpt lat="43.92813" lon="1.80763">
        <ele>930.59997558594</ele>
        <time>2019-06-27T18:22:04.000Z</time>
      </trkpt>
      <trkpt lat="43.92814" lon="1.80757">
        <ele>930.20001220703</ele>
        <time>2019-06-27T18:22:05.000Z</time>
      </trkpt>
      <trkpt lat="43.92816" lon="1.80751">
        <ele>929.40002441406</ele>
        <time>2019-06-27T18:22:06.000Z</time>
      </trkpt>
      <trkpt lat="43.92819" lon="1.80744">
        <ele>928.79998779297</ele>
        <time>2019-06-27T18:22:07.000Z</time>
      </trkpt>
      <trkpt lat="43.92823" lon="1.80735">
        <ele>928</ele>
        <time>2019-06-27T18:22:08.000Z</time>
      </trkpt>
      <trkpt lat="43.92827" lon="1.80727">
        <ele>927.20001220703</ele>
        <time>2019-06-27T18:22:09.000Z</time>
      </trkpt>
      <trkpt lat="43.92831" lon="1.8072">
        <ele>926.59997558594</ele>
        <time>2019-06-27T18:22:10.000Z</time>
      </trkpt>
      <trkpt lat="43.92835" lon="1.80713">
        <ele>926</ele>
        <time>2019-06-27T18:22:11.000Z</time>
      </trkpt>
      <trkpt lat="43.92838" lon="1.80708">
        <ele>924.40002441406</ele>
        <time>2019-06-27T18:22:12.000Z</time>
      </trkpt>
      <trkpt lat="43.92841" lon="1.80703">
        <ele>923.59997558594</ele>
        <time>2019-06-27T18:22:13.000Z</time>
      </trkpt>
      <trkpt lat="43.92843" lon="1.80697">
        <ele>922.79998779297</ele>
        <time>2019-06-27T18:22:14.000Z</time>
      </trkpt>
      <trkpt lat="43.92845" lon="1.80692">
        <ele>921.79998779297</ele>
        <time>2019-06-27T18:22:15.000Z</time>
      </trkpt>
      <trkpt lat="43.92844" lon="1.80686">
        <ele>920.59997558594</ele>
        <time>2019-06-27T18:22:16.000Z</time>
      </trkpt>
      <trkpt lat="43.92844" lon="1.80679">
        <ele>919.40002441406</ele>
        <time>2019-06-27T18:22:17.000Z</time>
      </trkpt>
      <trkpt lat="43.92844" lon="1.80672">
        <ele>918.20001220703</ele>
        <time>2019-06-27T18:22:18.000Z</time>
      </trkpt>
      <trkpt lat="43.92843" lon="1.80665">
        <ele>917.20001220703</ele>
        <time>2019-06-27T18:22:19.000Z</time>
      </trkpt>
      <trkpt lat="43.92843" lon="1.80656">
        <ele>916</ele>
        <time>2019-06-27T18:22:20.000Z</time>
      </trkpt>
      <trkpt lat="43.92843" lon="1.80648">
        <ele>914.59997558594</ele>
        <time>2019-06-27T18:22:21.000Z</time>
      </trkpt>
      <trkpt lat="43.92844" lon="1.8064">
        <ele>913.59997558594</ele>
        <time>2019-06-27T18:22:22.000Z</time>
      </trkpt>
      <trkpt lat="43.92844" lon="1.80631">
        <ele>912.59997558594</ele>
        <time>2019-06-27T18:22:23.000Z</time>
      </trkpt>
      <trkpt lat="43.92844" lon="1.80623">
        <ele>911.59997558594</ele>
        <time>2019-06-27T18:22:24.000Z</time>
      </trkpt>
      <trkpt lat="43.92845" lon="1.80616">
        <ele>910.79998779297</ele>
        <time>2019-06-27T18:22:25.000Z</time>
      </trkpt>
      <trkpt lat="43.92846" lon="1.8061">
        <ele>910.20001220703</ele>
        <time>2019-06-27T18:22:26.000Z</time>
      </trkpt>
      <trkpt lat="43.92847" lon="1.80605">
        <ele>909.79998779297</ele>
        <time>2019-06-27T18:22:27.000Z</time>
      </trkpt>
      <trkpt lat="43.92848" lon="1.80598">
        <ele>909.40002441406</ele>
        <time>2019-06-27T18:22:28.000Z</time>
      </trkpt>
      <trkpt lat="43.92849" lon="1.80593">
        <ele>908.79998779297</ele>
        <time>2019-06-27T18:22:29.000Z</time>
      </trkpt>
      <trkpt lat="43.9285" lon="1.80589">
        <ele>908.40002441406</ele>
        <time>2019-06-27T18:22:30.000Z</time>
      </trkpt>
      <trkpt lat="43.9285" lon="1.80584">
        <ele>907.79998779297</ele>
        <time>2019-06-27T18:22:31.000Z</time>
      </trkpt>
      <trkpt lat="43.92851" lon="1.8058">
        <ele>907.20001220703</ele>
        <time>2019-06-27T18:22:32.000Z</time>
      </trkpt>
      <trkpt lat="43.92853" lon="1.80576">
        <ele>906.79998779297</ele>
        <time>2019-06-27T18:22:33.000Z</time>
      </trkpt>
      <trkpt lat="43.92854" lon="1.80572">
        <ele>906.20001220703</ele>
        <time>2019-06-27T18:22:34.000Z</time>
      </trkpt>
      <trkpt lat="43.92856" lon="1.80568">
        <ele>905.79998779297</ele>
        <time>2019-06-27T18:22:35.000Z</time>
      </trkpt>
      <trkpt lat="43.92858" lon="1.80565">
        <ele>904.59997558594</ele>
        <time>2019-06-27T18:22:36.000Z</time>
      </trkpt>
      <trkpt lat="43.92859" lon="1.80563">
        <ele>903.79998779297</ele>
        <time>2019-06-27T18:22:37.000Z</time>
      </trkpt>
      <trkpt lat="43.92858" lon="1.80564">
        <ele>903.40002441406</ele>
        <time>2019-06-27T18:22:38.000Z</time>
      </trkpt>
      <trkpt lat="43.92859" lon="1.80562">
        <ele>903</ele>
        <time>2019-06-27T18:22:39.000Z</time>
      </trkpt>
      <trkpt lat="43.92859" lon="1.80562">
        <ele>902.79998779297</ele>
        <time>2019-06-27T18:22:40.000Z</time>
      </trkpt>
      <trkpt lat="43.92859" lon="1.80562">
        <ele>902.79998779297</ele>
        <time>2019-06-27T18:22:41.000Z</time>
      </trkpt>
      <trkpt lat="43.92859" lon="1.80562">
        <ele>902.79998779297</ele>
        <time>2019-06-27T18:22:42.000Z</time>
      </trkpt>
      <trkpt lat="43.92859" lon="1.80562">
        <ele>902.79998779297</ele>
        <time>2019-06-27T18:22:43.000Z</time>
      </trkpt>
      <trkpt lat="43.92859" lon="1.80562">
        <ele>902.79998779297</ele>
        <time>2019-06-27T18:22:44.000Z</time>
      </trkpt>
      <trkpt lat="43.92859" lon="1.80562">
        <ele>902.59997558594</ele>
        <time>2019-06-27T18:22:45.000Z</time>
      </trkpt>
      <trkpt lat="43.92859" lon="1.80562">
        <ele>902.59997558594</ele>
        <time>2019-06-27T18:22:46.000Z</time>
      </trkpt>
      <trkpt lat="43.92859" lon="1.80562">
        <ele>902.59997558594</ele>
        <time>2019-06-27T18:22:47.000Z</time>
      </trkpt>
      <trkpt lat="43.92859" lon="1.80562">
        <ele>902.79998779297</ele>
        <time>2019-06-27T18:22:48.000Z</time>
      </trkpt>
      <trkpt lat="43.92859" lon="1.80562">
        <ele>902.79998779297</ele>
        <time>2019-06-27T18:22:49.000Z</time>
      </trkpt>
      <trkpt lat="43.92859" lon="1.80562">
        <ele>902.59997558594</ele>
        <time>2019-06-27T18:22:50.000Z</time>
      </trkpt>
      <trkpt lat="43.92859" lon="1.80562">
        <ele>902.59997558594</ele>
        <time>2019-06-27T18:22:51.000Z</time>
      </trkpt>
      <trkpt lat="43.92859" lon="1.80562">
        <ele>902.59997558594</ele>
        <time>2019-06-27T18:22:52.000Z</time>
      </trkpt>
      <trkpt lat="43.9286" lon="1.80559">
        <ele>902.40002441406</ele>
        <time>2019-06-27T18:22:53.000Z</time>
      </trkpt>
      <trkpt lat="43.92861" lon="1.80555">
        <ele>902</ele>
        <time>2019-06-27T18:22:54.000Z</time>
      </trkpt>
      <trkpt lat="43.92864" lon="1.80552">
        <ele>901.79998779297</ele>
        <time>2019-06-27T18:22:55.000Z</time>
      </trkpt>
      <trkpt lat="43.92867" lon="1.80548">
        <ele>901.20001220703</ele>
        <time>2019-06-27T18:22:56.000Z</time>
      </trkpt>
      <trkpt lat="43.92871" lon="1.80543">
        <ele>900.79998779297</ele>
        <time>2019-06-27T18:22:57.000Z</time>
      </trkpt>
      <trkpt lat="43.92875" lon="1.80538">
        <ele>900.20001220703</ele>
        <time>2019-06-27T18:22:58.000Z</time>
      </trkpt>
      <trkpt lat="43.92879" lon="1.80533">
        <ele>900</ele>
        <time>2019-06-27T18:22:59.000Z</time>
      </trkpt>
      <trkpt lat="43.92883" lon="1.80528">
        <ele>897.40002441406</ele>
        <time>2019-06-27T18:23:00.000Z</time>
      </trkpt>
      <trkpt lat="43.92887" lon="1.80521">
        <ele>895.79998779297</ele>
        <time>2019-06-27T18:23:01.000Z</time>
      </trkpt>
      <trkpt lat="43.92891" lon="1.80516">
        <ele>894.40002441406</ele>
        <time>2019-06-27T18:23:02.000Z</time>
      </trkpt>
      <trkpt lat="43.92894" lon="1.80511">
        <ele>893.59997558594</ele>
        <time>2019-06-27T18:23:03.000Z</time>
      </trkpt>
      <trkpt lat="43.92897" lon="1.80507">
        <ele>892.59997558594</ele>
        <time>2019-06-27T18:23:04.000Z</time>
      </trkpt>
      <trkpt lat="43.929" lon="1.80502">
        <ele>891.79998779297</ele>
        <time>2019-06-27T18:23:05.000Z</time>
      </trkpt>
      <trkpt lat="43.92903" lon="1.80498">
        <ele>891</ele>
        <time>2019-06-27T18:23:06.000Z</time>
      </trkpt>
      <trkpt lat="43.92906" lon="1.80494">
        <ele>889.79998779297</ele>
        <time>2019-06-27T18:23:07.000Z</time>
      </trkpt>
      <trkpt lat="43.92908" lon="1.80491">
        <ele>889</ele>
        <time>2019-06-27T18:23:08.000Z</time>
      </trkpt>
      <trkpt lat="43.92911" lon="1.80488">
        <ele>887.79998779297</ele>
        <time>2019-06-27T18:23:09.000Z</time>
      </trkpt>
      <trkpt lat="43.92913" lon="1.80486">
        <ele>887.20001220703</ele>
        <time>2019-06-27T18:23:10.000Z</time>
      </trkpt>
      <trkpt lat="43.92915" lon="1.80485">
        <ele>886.20001220703</ele>
        <time>2019-06-27T18:23:11.000Z</time>
      </trkpt>
      <trkpt lat="43.92916" lon="1.80485">
        <ele>885.79998779297</ele>
        <time>2019-06-27T18:23:12.000Z</time>
      </trkpt>
      <trkpt lat="43.92918" lon="1.80484">
        <ele>885.59997558594</ele>
        <time>2019-06-27T18:23:13.000Z</time>
      </trkpt>
      <trkpt lat="43.92917" lon="1.80484">
        <ele>885.20001220703</ele>
        <time>2019-06-27T18:23:14.000Z</time>
      </trkpt>
      <trkpt lat="43.92918" lon="1.80483">
        <ele>885</ele>
        <time>2019-06-27T18:23:15.000Z</time>
      </trkpt>
      <trkpt lat="43.92918" lon="1.80483">
        <ele>885</ele>
        <time>2019-06-27T18:23:16.000Z</time>
      </trkpt>
      <trkpt lat="43.92919" lon="1.80482">
        <ele>884.79998779297</ele>
        <time>2019-06-27T18:23:17.000Z</time>
      </trkpt>
      <trkpt lat="43.92919" lon="1.80482">
        <ele>884.79998779297</ele>
        <time>2019-06-27T18:23:18.000Z</time>
      </trkpt>
      <trkpt lat="43.92919" lon="1.80482">
        <ele>884.79998779297</ele>
        <time>2019-06-27T18:23:19.000Z</time>
      </trkpt>
      <trkpt lat="43.92919" lon="1.80482">
        <ele>884.79998779297</ele>
        <time>2019-06-27T18:23:20.000Z</time>
      </trkpt>
      <trkpt lat="43.92919" lon="1.80482">
        <ele>884.79998779297</ele>
        <time>2019-06-27T18:23:21.000Z</time>
      </trkpt>
      <trkpt lat="43.9292" lon="1.80481">
        <ele>884.79998779297</ele>
        <time>2019-06-27T18:23:22.000Z</time>
      </trkpt>
      <trkpt lat="43.92921" lon="1.80479">
        <ele>884.79998779297</ele>
        <time>2019-06-27T18:23:23.000Z</time>
      </trkpt>
      <trkpt lat="43.92921" lon="1.80479">
        <ele>884.79998779297</ele>
        <time>2019-06-27T18:23:24.000Z</time>
      </trkpt>
      <trkpt lat="43.92921" lon="1.80479">
        <ele>884.79998779297</ele>
        <time>2019-06-27T18:23:25.000Z</time>
      </trkpt>
      <trkpt lat="43.92922" lon="1.80478">
        <ele>884.79998779297</ele>
        <time>2019-06-27T18:23:26.000Z</time>
      </trkpt>
      <trkpt lat="43.92922" lon="1.80478">
        <ele>884.79998779297</ele>
        <time>2019-06-27T18:23:27.000Z</time>
      </trkpt>
      <trkpt lat="43.92922" lon="1.80478">
        <ele>884.79998779297</ele>
        <time>2019-06-27T18:23:28.000Z</time>
      </trkpt>
      <trkpt lat="43.92922" lon="1.80478">
        <ele>884.79998779297</ele>
        <time>2019-06-27T18:23:29.000Z</time>
      </trkpt>
      <trkpt lat="43.92923" lon="1.80477">
        <ele>884.79998779297</ele>
        <time>2019-06-27T18:23:30.000Z</time>
      </trkpt>
      <trkpt lat="43.92924" lon="1.80476">
        <ele>884.79998779297</ele>
        <time>2019-06-27T18:23:31.000Z</time>
      </trkpt>
      <trkpt lat="43.92925" lon="1.80475">
        <ele>884.79998779297</ele>
        <time>2019-06-27T18:23:32.000Z</time>
      </trkpt>
      <trkpt lat="43.92926" lon="1.80474">
        <ele>884.79998779297</ele>
        <time>2019-06-27T18:23:33.000Z</time>
      </trkpt>
      <trkpt lat="43.92927" lon="1.80473">
        <ele>884.79998779297</ele>
        <time>2019-06-27T18:23:34.000Z</time>
      </trkpt>
      <trkpt lat="43.92928" lon="1.80473">
        <ele>884.79998779297</ele>
        <time>2019-06-27T18:23:35.000Z</time>
      </trkpt>
      <trkpt lat="43.92929" lon="1.80472">
        <ele>884.79998779297</ele>
        <time>2019-06-27T18:23:36.000Z</time>
      </trkpt>
      <trkpt lat="43.92929" lon="1.80472">
        <ele>884.59997558594</ele>
        <time>2019-06-27T18:23:37.000Z</time>
      </trkpt>
      <trkpt lat="43.92929" lon="1.80472">
        <ele>884.40002441406</ele>
        <time>2019-06-27T18:23:38.000Z</time>
      </trkpt>
      <trkpt lat="43.92929" lon="1.80472">
        <ele>884.40002441406</ele>
        <time>2019-06-27T18:23:39.000Z</time>
      </trkpt>
      <trkpt lat="43.92929" lon="1.80472">
        <ele>884.59997558594</ele>
        <time>2019-06-27T18:23:40.000Z</time>
      </trkpt>
      <trkpt lat="43.92929" lon="1.80472">
        <ele>885</ele>
        <time>2019-06-27T18:23:41.000Z</time>
      </trkpt>
      <trkpt lat="43.92929" lon="1.80472">
        <ele>884.79998779297</ele>
        <time>2019-06-27T18:23:42.000Z</time>
      </trkpt>
      <trkpt lat="43.92929" lon="1.80472">
        <ele>884.79998779297</ele>
        <time>2019-06-27T18:23:43.000Z</time>
      </trkpt>
      <trkpt lat="43.92929" lon="1.80472">
        <ele>884.59997558594</ele>
        <time>2019-06-27T18:23:44.000Z</time>
      </trkpt>
      <trkpt lat="43.9293" lon="1.80471">
        <ele>884.59997558594</ele>
        <time>2019-06-27T18:23:45.000Z</time>
      </trkpt>
      <trkpt lat="43.92931" lon="1.8047">
        <ele>884.59997558594</ele>
        <time>2019-06-27T18:23:46.000Z</time>
      </trkpt>
      <trkpt lat="43.92933" lon="1.80469">
        <ele>884.59997558594</ele>
        <time>2019-06-27T18:23:47.000Z</time>
      </trkpt>
      <trkpt lat="43.92935" lon="1.80467">
        <ele>884.59997558594</ele>
        <time>2019-06-27T18:23:48.000Z</time>
      </trkpt>
      <trkpt lat="43.92937" lon="1.80466">
        <ele>884.59997558594</ele>
        <time>2019-06-27T18:23:49.000Z</time>
      </trkpt>
      <trkpt lat="43.92942" lon="1.8046">
        <ele>884.40002441406</ele>
        <time>2019-06-27T18:23:50.000Z</time>
      </trkpt>
      <trkpt lat="43.92941" lon="1.80461">
        <ele>884.59997558594</ele>
        <time>2019-06-27T18:23:51.000Z</time>
      </trkpt>
      <trkpt lat="43.92947" lon="1.80452">
        <ele>884.59997558594</ele>
        <time>2019-06-27T18:23:52.000Z</time>
      </trkpt>
      <trkpt lat="43.92947" lon="1.80453">
        <ele>884.59997558594</ele>
        <time>2019-06-27T18:23:53.000Z</time>
      </trkpt>
      <trkpt lat="43.9295" lon="1.8045">
        <ele>884.79998779297</ele>
        <time>2019-06-27T18:23:54.000Z</time>
      </trkpt>
      <trkpt lat="43.92952" lon="1.80448">
        <ele>884.59997558594</ele>
        <time>2019-06-27T18:23:55.000Z</time>
      </trkpt>
      <trkpt lat="43.92953" lon="1.80446">
        <ele>884.79998779297</ele>
        <time>2019-06-27T18:23:56.000Z</time>
      </trkpt>
      <trkpt lat="43.92953" lon="1.80447">
        <ele>884.79998779297</ele>
        <time>2019-06-27T18:23:57.000Z</time>
      </trkpt>
      <trkpt lat="43.92956" lon="1.80443">
        <ele>884.79998779297</ele>
        <time>2019-06-27T18:23:58.000Z</time>
      </trkpt>
      <trkpt lat="43.92957" lon="1.80442">
        <ele>884.79998779297</ele>
        <time>2019-06-27T18:23:59.000Z</time>
      </trkpt>
      <trkpt lat="43.92958" lon="1.80441">
        <ele>884.79998779297</ele>
        <time>2019-06-27T18:24:00.000Z</time>
      </trkpt>
      <trkpt lat="43.92959" lon="1.80441">
        <ele>884.79998779297</ele>
        <time>2019-06-27T18:24:01.000Z</time>
      </trkpt>
      <trkpt lat="43.9296" lon="1.8044">
        <ele>885</ele>
        <time>2019-06-27T18:24:02.000Z</time>
      </trkpt>
      <trkpt lat="43.92961" lon="1.8044">
        <ele>885</ele>
        <time>2019-06-27T18:24:03.000Z</time>
      </trkpt>
      <trkpt lat="43.92962" lon="1.80438">
        <ele>885</ele>
        <time>2019-06-27T18:24:04.000Z</time>
      </trkpt>
      <trkpt lat="43.92964" lon="1.80436">
        <ele>885</ele>
        <time>2019-06-27T18:24:05.000Z</time>
      </trkpt>
      <trkpt lat="43.92965" lon="1.80435">
        <ele>885</ele>
        <time>2019-06-27T18:24:06.000Z</time>
      </trkpt>
      <trkpt lat="43.92967" lon="1.80433">
        <ele>885</ele>
        <time>2019-06-27T18:24:07.000Z</time>
      </trkpt>
      <trkpt lat="43.92968" lon="1.80431">
        <ele>885</ele>
        <time>2019-06-27T18:24:08.000Z</time>
      </trkpt>
      <trkpt lat="43.92969" lon="1.8043">
        <ele>885.20001220703</ele>
        <time>2019-06-27T18:24:09.000Z</time>
      </trkpt>
      <trkpt lat="43.92969" lon="1.80428">
        <ele>885.20001220703</ele>
        <time>2019-06-27T18:24:10.000Z</time>
      </trkpt>
      <trkpt lat="43.9297" lon="1.80426">
        <ele>885.20001220703</ele>
        <time>2019-06-27T18:24:11.000Z</time>
      </trkpt>
      <trkpt lat="43.9297" lon="1.80425">
        <ele>885.40002441406</ele>
        <time>2019-06-27T18:24:12.000Z</time>
      </trkpt>
      <trkpt lat="43.92971" lon="1.80423">
        <ele>885.40002441406</ele>
        <time>2019-06-27T18:24:13.000Z</time>
      </trkpt>
      <trkpt lat="43.92972" lon="1.80421">
        <ele>885.59997558594</ele>
        <time>2019-06-27T18:24:14.000Z</time>
      </trkpt>
      <trkpt lat="43.92973" lon="1.80419">
        <ele>885.59997558594</ele>
        <time>2019-06-27T18:24:15.000Z</time>
      </trkpt>
      <trkpt lat="43.92974" lon="1.80417">
        <ele>885.59997558594</ele>
        <time>2019-06-27T18:24:16.000Z</time>
      </trkpt>
      <trkpt lat="43.92975" lon="1.80416">
        <ele>885.59997558594</ele>
        <time>2019-06-27T18:24:17.000Z</time>
      </trkpt>
      <trkpt lat="43.92976" lon="1.80415">
        <ele>885.59997558594</ele>
        <time>2019-06-27T18:24:18.000Z</time>
      </trkpt>
      <trkpt lat="43.92977" lon="1.80413">
        <ele>885.79998779297</ele>
        <time>2019-06-27T18:24:19.000Z</time>
      </trkpt>
      <trkpt lat="43.92979" lon="1.80412">
        <ele>885.79998779297</ele>
        <time>2019-06-27T18:24:20.000Z</time>
      </trkpt>
      <trkpt lat="43.9298" lon="1.80411">
        <ele>885.79998779297</ele>
        <time>2019-06-27T18:24:21.000Z</time>
      </trkpt>
      <trkpt lat="43.92981" lon="1.80409">
        <ele>885.79998779297</ele>
        <time>2019-06-27T18:24:22.000Z</time>
      </trkpt>
      <trkpt lat="43.92982" lon="1.80408">
        <ele>885.79998779297</ele>
        <time>2019-06-27T18:24:23.000Z</time>
      </trkpt>
      <trkpt lat="43.92983" lon="1.80407">
        <ele>886</ele>
        <time>2019-06-27T18:24:24.000Z</time>
      </trkpt>
      <trkpt lat="43.92984" lon="1.80406">
        <ele>886.20001220703</ele>
        <time>2019-06-27T18:24:25.000Z</time>
      </trkpt>
      <trkpt lat="43.92985" lon="1.80405">
        <ele>886.20001220703</ele>
        <time>2019-06-27T18:24:26.000Z</time>
      </trkpt>
      <trkpt lat="43.92987" lon="1.80404">
        <ele>886.20001220703</ele>
        <time>2019-06-27T18:24:27.000Z</time>
      </trkpt>
      <trkpt lat="43.92988" lon="1.80402">
        <ele>886.20001220703</ele>
        <time>2019-06-27T18:24:28.000Z</time>
      </trkpt>
      <trkpt lat="43.92989" lon="1.804">
        <ele>886.20001220703</ele>
        <time>2019-06-27T18:24:29.000Z</time>
      </trkpt>
      <trkpt lat="43.92991" lon="1.80398">
        <ele>886.20001220703</ele>
        <time>2019-06-27T18:24:30.000Z</time>
      </trkpt>
      <trkpt lat="43.92992" lon="1.80396">
        <ele>886.40002441406</ele>
        <time>2019-06-27T18:24:31.000Z</time>
      </trkpt>
      <trkpt lat="43.92994" lon="1.80394">
        <ele>886.40002441406</ele>
        <time>2019-06-27T18:24:32.000Z</time>
      </trkpt>
      <trkpt lat="43.92996" lon="1.80391">
        <ele>886.59997558594</ele>
        <time>2019-06-27T18:24:33.000Z</time>
      </trkpt>
      <trkpt lat="43.92997" lon="1.80389">
        <ele>886.79998779297</ele>
        <time>2019-06-27T18:24:34.000Z</time>
      </trkpt>
      <trkpt lat="43.92999" lon="1.80386">
        <ele>886.79998779297</ele>
        <time>2019-06-27T18:24:35.000Z</time>
      </trkpt>
      <trkpt lat="43.93" lon="1.80384">
        <ele>886.79998779297</ele>
        <time>2019-06-27T18:24:36.000Z</time>
      </trkpt>
      <trkpt lat="43.93002" lon="1.80383">
        <ele>887</ele>
        <time>2019-06-27T18:24:37.000Z</time>
      </trkpt>
      <trkpt lat="43.93003" lon="1.80381">
        <ele>887</ele>
        <time>2019-06-27T18:24:38.000Z</time>
      </trkpt>
      <trkpt lat="43.93005" lon="1.80379">
        <ele>887.20001220703</ele>
        <time>2019-06-27T18:24:39.000Z</time>
      </trkpt>
      <trkpt lat="43.93006" lon="1.80377">
        <ele>887.20001220703</ele>
        <time>2019-06-27T18:24:40.000Z</time>
      </trkpt>
      <trkpt lat="43.93007" lon="1.80375">
        <ele>887.20001220703</ele>
        <time>2019-06-27T18:24:41.000Z</time>
      </trkpt>
      <trkpt lat="43.93009" lon="1.80373">
        <ele>887.40002441406</ele>
        <time>2019-06-27T18:24:42.000Z</time>
      </trkpt>
      <trkpt lat="43.9301" lon="1.80371">
        <ele>887.40002441406</ele>
        <time>2019-06-27T18:24:43.000Z</time>
      </trkpt>
      <trkpt lat="43.93012" lon="1.80369">
        <ele>887.59997558594</ele>
        <time>2019-06-27T18:24:44.000Z</time>
      </trkpt>
      <trkpt lat="43.93013" lon="1.80368">
        <ele>887.79998779297</ele>
        <time>2019-06-27T18:24:45.000Z</time>
      </trkpt>
      <trkpt lat="43.93014" lon="1.80366">
        <ele>887.79998779297</ele>
        <time>2019-06-27T18:24:46.000Z</time>
      </trkpt>
      <trkpt lat="43.93015" lon="1.80364">
        <ele>887.79998779297</ele>
        <time>2019-06-27T18:24:47.000Z</time>
      </trkpt>
      <trkpt lat="43.93016" lon="1.80363">
        <ele>888</ele>
        <time>2019-06-27T18:24:48.000Z</time>
      </trkpt>
      <trkpt lat="43.93018" lon="1.80361">
        <ele>888</ele>
        <time>2019-06-27T18:24:49.000Z</time>
      </trkpt>
      <trkpt lat="43.93019" lon="1.80359">
        <ele>888.20001220703</ele>
        <time>2019-06-27T18:24:50.000Z</time>
      </trkpt>
      <trkpt lat="43.9302" lon="1.80357">
        <ele>888.20001220703</ele>
        <time>2019-06-27T18:24:51.000Z</time>
      </trkpt>
      <trkpt lat="43.93022" lon="1.80355">
        <ele>888.40002441406</ele>
        <time>2019-06-27T18:24:52.000Z</time>
      </trkpt>
      <trkpt lat="43.93023" lon="1.80354">
        <ele>888.79998779297</ele>
        <time>2019-06-27T18:24:53.000Z</time>
      </trkpt>
      <trkpt lat="43.93025" lon="1.80352">
        <ele>888.79998779297</ele>
        <time>2019-06-27T18:24:54.000Z</time>
      </trkpt>
      <trkpt lat="43.93026" lon="1.8035">
        <ele>889</ele>
        <time>2019-06-27T18:24:55.000Z</time>
      </trkpt>
      <trkpt lat="43.93027" lon="1.80348">
        <ele>889</ele>
        <time>2019-06-27T18:24:56.000Z</time>
      </trkpt>
      <trkpt lat="43.93029" lon="1.80346">
        <ele>889.20001220703</ele>
        <time>2019-06-27T18:24:57.000Z</time>
      </trkpt>
      <trkpt lat="43.9303" lon="1.80344">
        <ele>889.20001220703</ele>
        <time>2019-06-27T18:24:58.000Z</time>
      </trkpt>
      <trkpt lat="43.93031" lon="1.80342">
        <ele>889.40002441406</ele>
        <time>2019-06-27T18:24:59.000Z</time>
      </trkpt>
      <trkpt lat="43.93032" lon="1.8034">
        <ele>889.59997558594</ele>
        <time>2019-06-27T18:25:00.000Z</time>
      </trkpt>
      <trkpt lat="43.93034" lon="1.80338">
        <ele>889.79998779297</ele>
        <time>2019-06-27T18:25:01.000Z</time>
      </trkpt>
      <trkpt lat="43.93035" lon="1.80336">
        <ele>890</ele>
        <time>2019-06-27T18:25:02.000Z</time>
      </trkpt>
      <trkpt lat="43.93036" lon="1.80333">
        <ele>890.20001220703</ele>
        <time>2019-06-27T18:25:03.000Z</time>
      </trkpt>
      <trkpt lat="43.93038" lon="1.80331">
        <ele>890.40002441406</ele>
        <time>2019-06-27T18:25:04.000Z</time>
      </trkpt>
      <trkpt lat="43.93039" lon="1.80329">
        <ele>890.59997558594</ele>
        <time>2019-06-27T18:25:05.000Z</time>
      </trkpt>
      <trkpt lat="43.93041" lon="1.80327">
        <ele>890.79998779297</ele>
        <time>2019-06-27T18:25:06.000Z</time>
      </trkpt>
      <trkpt lat="43.93042" lon="1.80325">
        <ele>891</ele>
        <time>2019-06-27T18:25:07.000Z</time>
      </trkpt>
      <trkpt lat="43.93043" lon="1.80324">
        <ele>891.20001220703</ele>
        <time>2019-06-27T18:25:08.000Z</time>
      </trkpt>
      <trkpt lat="43.93045" lon="1.80322">
        <ele>891.40002441406</ele>
        <time>2019-06-27T18:25:09.000Z</time>
      </trkpt>
      <trkpt lat="43.93046" lon="1.8032">
        <ele>891.59997558594</ele>
        <time>2019-06-27T18:25:10.000Z</time>
      </trkpt>
      <trkpt lat="43.93047" lon="1.80318">
        <ele>891.79998779297</ele>
        <time>2019-06-27T18:25:11.000Z</time>
      </trkpt>
      <trkpt lat="43.93048" lon="1.80316">
        <ele>892</ele>
        <time>2019-06-27T18:25:12.000Z</time>
      </trkpt>
      <trkpt lat="43.9305" lon="1.80314">
        <ele>892.20001220703</ele>
        <time>2019-06-27T18:25:13.000Z</time>
      </trkpt>
      <trkpt lat="43.93051" lon="1.80313">
        <ele>892.20001220703</ele>
        <time>2019-06-27T18:25:14.000Z</time>
      </trkpt>
      <trkpt lat="43.93053" lon="1.80311">
        <ele>892.40002441406</ele>
        <time>2019-06-27T18:25:15.000Z</time>
      </trkpt>
      <trkpt lat="43.93054" lon="1.80309">
        <ele>892.40002441406</ele>
        <time>2019-06-27T18:25:16.000Z</time>
      </trkpt>
      <trkpt lat="43.93055" lon="1.80307">
        <ele>892.79998779297</ele>
        <time>2019-06-27T18:25:17.000Z</time>
      </trkpt>
      <trkpt lat="43.93057" lon="1.80306">
        <ele>893</ele>
        <time>2019-06-27T18:25:18.000Z</time>
      </trkpt>
      <trkpt lat="43.93058" lon="1.80304">
        <ele>893.20001220703</ele>
        <time>2019-06-27T18:25:19.000Z</time>
      </trkpt>
      <trkpt lat="43.93059" lon="1.80302">
        <ele>893.40002441406</ele>
        <time>2019-06-27T18:25:20.000Z</time>
      </trkpt>
      <trkpt lat="43.9306" lon="1.803">
        <ele>893.40002441406</ele>
        <time>2019-06-27T18:25:21.000Z</time>
      </trkpt>
      <trkpt lat="43.93062" lon="1.80298">
        <ele>893.59997558594</ele>
        <time>2019-06-27T18:25:22.000Z</time>
      </trkpt>
      <trkpt lat="43.93063" lon="1.80296">
        <ele>893.79998779297</ele>
        <time>2019-06-27T18:25:23.000Z</time>
      </trkpt>
      <trkpt lat="43.93065" lon="1.80294">
        <ele>894</ele>
        <time>2019-06-27T18:25:24.000Z</time>
      </trkpt>
      <trkpt lat="43.93066" lon="1.80292">
        <ele>894.20001220703</ele>
        <time>2019-06-27T18:25:25.000Z</time>
      </trkpt>
      <trkpt lat="43.93067" lon="1.8029">
        <ele>894.20001220703</ele>
        <time>2019-06-27T18:25:26.000Z</time>
      </trkpt>
      <trkpt lat="43.93069" lon="1.80288">
        <ele>894.40002441406</ele>
        <time>2019-06-27T18:25:27.000Z</time>
      </trkpt>
      <trkpt lat="43.9307" lon="1.80286">
        <ele>894.59997558594</ele>
        <time>2019-06-27T18:25:28.000Z</time>
      </trkpt>
      <trkpt lat="43.93072" lon="1.80284">
        <ele>894.79998779297</ele>
        <time>2019-06-27T18:25:29.000Z</time>
      </trkpt>
      <trkpt lat="43.93073" lon="1.80282">
        <ele>895</ele>
        <time>2019-06-27T18:25:30.000Z</time>
      </trkpt>
      <trkpt lat="43.93074" lon="1.8028">
        <ele>895</ele>
        <time>2019-06-27T18:25:31.000Z</time>
      </trkpt>
      <trkpt lat="43.93074" lon="1.80279">
        <ele>895.20001220703</ele>
        <time>2019-06-27T18:25:32.000Z</time>
      </trkpt>
      <trkpt lat="43.93075" lon="1.80277">
        <ele>895.20001220703</ele>
        <time>2019-06-27T18:25:33.000Z</time>
      </trkpt>
      <trkpt lat="43.93075" lon="1.80276">
        <ele>895.20001220703</ele>
        <time>2019-06-27T18:25:34.000Z</time>
      </trkpt>
      <trkpt lat="43.93075" lon="1.80274">
        <ele>895.20001220703</ele>
        <time>2019-06-27T18:25:35.000Z</time>
      </trkpt>
      <trkpt lat="43.93074" lon="1.80273">
        <ele>895.20001220703</ele>
        <time>2019-06-27T18:25:36.000Z</time>
      </trkpt>
      <trkpt lat="43.93073" lon="1.80271">
        <ele>895</ele>
        <time>2019-06-27T18:25:37.000Z</time>
      </trkpt>
      <trkpt lat="43.93072" lon="1.8027">
        <ele>895</ele>
        <time>2019-06-27T18:25:38.000Z</time>
      </trkpt>
      <trkpt lat="43.93072" lon="1.80269">
        <ele>895</ele>
        <time>2019-06-27T18:25:39.000Z</time>
      </trkpt>
      <trkpt lat="43.93071" lon="1.80268">
        <ele>895.20001220703</ele>
        <time>2019-06-27T18:25:40.000Z</time>
      </trkpt>
      <trkpt lat="43.9307" lon="1.80266">
        <ele>895.20001220703</ele>
        <time>2019-06-27T18:25:41.000Z</time>
      </trkpt>
      <trkpt lat="43.93069" lon="1.80266">
        <ele>895</ele>
        <time>2019-06-27T18:25:42.000Z</time>
      </trkpt>
      <trkpt lat="43.93067" lon="1.80265">
        <ele>895</ele>
        <time>2019-06-27T18:25:43.000Z</time>
      </trkpt>
      <trkpt lat="43.93066" lon="1.80265">
        <ele>894.79998779297</ele>
        <time>2019-06-27T18:25:44.000Z</time>
      </trkpt>
      <trkpt lat="43.93066" lon="1.80264">
        <ele>894.79998779297</ele>
        <time>2019-06-27T18:25:45.000Z</time>
      </trkpt>
      <trkpt lat="43.93066" lon="1.80264">
        <ele>894.79998779297</ele>
        <time>2019-06-27T18:25:46.000Z</time>
      </trkpt>
      <trkpt lat="43.93066" lon="1.80264">
        <ele>895</ele>
        <time>2019-06-27T18:25:47.000Z</time>
      </trkpt>
      <trkpt lat="43.93066" lon="1.80264">
        <ele>895</ele>
        <time>2019-06-27T18:25:48.000Z</time>
      </trkpt>
      <trkpt lat="43.93066" lon="1.80264">
        <ele>895</ele>
        <time>2019-06-27T18:25:49.000Z</time>
      </trkpt>
      <trkpt lat="43.93066" lon="1.80264">
        <ele>895</ele>
        <time>2019-06-27T18:25:50.000Z</time>
      </trkpt>
      <trkpt lat="43.93066" lon="1.80264">
        <ele>895</ele>
        <time>2019-06-27T18:25:51.000Z</time>
      </trkpt>
      <trkpt lat="43.93066" lon="1.80264">
        <ele>894.79998779297</ele>
        <time>2019-06-27T18:25:52.000Z</time>
      </trkpt>
      <trkpt lat="43.93066" lon="1.80264">
        <ele>894.79998779297</ele>
        <time>2019-06-27T18:25:53.000Z</time>
      </trkpt>
      <trkpt lat="43.93066" lon="1.80264">
        <ele>894.79998779297</ele>
        <time>2019-06-27T18:25:54.000Z</time>
      </trkpt>
      <trkpt lat="43.93066" lon="1.80264">
        <ele>894.79998779297</ele>
        <time>2019-06-27T18:25:55.000Z</time>
      </trkpt>
      <trkpt lat="43.93066" lon="1.80264">
        <ele>894.79998779297</ele>
        <time>2019-06-27T18:25:56.000Z</time>
      </trkpt>
      <trkpt lat="43.93066" lon="1.80264">
        <ele>894.79998779297</ele>
        <time>2019-06-27T18:25:57.000Z</time>
      </trkpt>
      <trkpt lat="43.93066" lon="1.80264">
        <ele>895</ele>
        <time>2019-06-27T18:25:58.000Z</time>
      </trkpt>
      <trkpt lat="43.93066" lon="1.80264">
        <ele>895</ele>
        <time>2019-06-27T18:25:59.000Z</time>
      </trkpt>
      <trkpt lat="43.93066" lon="1.80264">
        <ele>895</ele>
        <time>2019-06-27T18:26:00.000Z</time>
      </trkpt>
      <trkpt lat="43.93066" lon="1.80264">
        <ele>894.79998779297</ele>
        <time>2019-06-27T18:26:01.000Z</time>
      </trkpt>
      <trkpt lat="43.93066" lon="1.80264">
        <ele>895</ele>
        <time>2019-06-27T18:26:02.000Z</time>
      </trkpt>
      <trkpt lat="43.93066" lon="1.80264">
        <ele>894.79998779297</ele>
        <time>2019-06-27T18:26:03.000Z</time>
      </trkpt>
      <trkpt lat="43.93066" lon="1.80264">
        <ele>894.79998779297</ele>
        <time>2019-06-27T18:26:04.000Z</time>
      </trkpt>
      <trkpt lat="43.93066" lon="1.80264">
        <ele>894.79998779297</ele>
        <time>2019-06-27T18:26:05.000Z</time>
      </trkpt>
      <trkpt lat="43.93066" lon="1.80264">
        <ele>894.79998779297</ele>
        <time>2019-06-27T18:26:06.000Z</time>
      </trkpt>
      <trkpt lat="43.93066" lon="1.80264">
        <ele>894.79998779297</ele>
        <time>2019-06-27T18:26:07.000Z</time>
      </trkpt>
      <trkpt lat="43.93066" lon="1.80264">
        <ele>894.79998779297</ele>
        <time>2019-06-27T18:26:08.000Z</time>
      </trkpt>
      <trkpt lat="43.93066" lon="1.80264">
        <ele>894.79998779297</ele>
        <time>2019-06-27T18:26:09.000Z</time>
      </trkpt>
      <trkpt lat="43.93066" lon="1.80264">
        <ele>894.79998779297</ele>
        <time>2019-06-27T18:26:10.000Z</time>
      </trkpt>
      <trkpt lat="43.93066" lon="1.80264">
        <ele>894.79998779297</ele>
        <time>2019-06-27T18:26:11.000Z</time>
      </trkpt>
      <trkpt lat="43.93066" lon="1.80264">
        <ele>894.79998779297</ele>
        <time>2019-06-27T18:26:12.000Z</time>
      </trkpt>
      <trkpt lat="43.93066" lon="1.80264">
        <ele>894.79998779297</ele>
        <time>2019-06-27T18:26:13.000Z</time>
      </trkpt>
      <trkpt lat="43.93066" lon="1.80264">
        <ele>894.79998779297</ele>
        <time>2019-06-27T18:26:14.000Z</time>
      </trkpt>
      <trkpt lat="43.93066" lon="1.80264">
        <ele>894.79998779297</ele>
        <time>2019-06-27T18:26:15.000Z</time>
      </trkpt>
      <trkpt lat="43.93066" lon="1.80264">
        <ele>894.79998779297</ele>
        <time>2019-06-27T18:26:16.000Z</time>
      </trkpt>
      <trkpt lat="43.93066" lon="1.80264">
        <ele>894.79998779297</ele>
        <time>2019-06-27T18:26:17.000Z</time>
      </trkpt>
      <trkpt lat="43.93066" lon="1.80264">
        <ele>894.79998779297</ele>
        <time>2019-06-27T18:26:18.000Z</time>
      </trkpt>
      <trkpt lat="43.93066" lon="1.80264">
        <ele>894.79998779297</ele>
        <time>2019-06-27T18:26:19.000Z</time>
      </trkpt>
      <trkpt lat="43.93066" lon="1.80264">
        <ele>894.79998779297</ele>
        <time>2019-06-27T18:26:20.000Z</time>
      </trkpt>
      <trkpt lat="43.93066" lon="1.80264">
        <ele>894.79998779297</ele>
        <time>2019-06-27T18:26:21.000Z</time>
      </trkpt>
      <trkpt lat="43.93066" lon="1.80264">
        <ele>894.79998779297</ele>
        <time>2019-06-27T18:26:22.000Z</time>
      </trkpt>
      <trkpt lat="43.93066" lon="1.80264">
        <ele>894.79998779297</ele>
        <time>2019-06-27T18:26:23.000Z</time>
      </trkpt>
      <trkpt lat="43.93066" lon="1.80264">
        <ele>894.79998779297</ele>
        <time>2019-06-27T18:26:24.000Z</time>
      </trkpt>
      <trkpt lat="43.93066" lon="1.80264">
        <ele>894.79998779297</ele>
        <time>2019-06-27T18:26:25.000Z</time>
      </trkpt>
      <trkpt lat="43.93066" lon="1.80264">
        <ele>894.79998779297</ele>
        <time>2019-06-27T18:26:26.000Z</time>
      </trkpt>
      <trkpt lat="43.93066" lon="1.80264">
        <ele>894.79998779297</ele>
        <time>2019-06-27T18:26:27.000Z</time>
      </trkpt>
      <trkpt lat="43.93066" lon="1.80264">
        <ele>894.79998779297</ele>
        <time>2019-06-27T18:26:28.000Z</time>
      </trkpt>
      <trkpt lat="43.93066" lon="1.80264">
        <ele>894.79998779297</ele>
        <time>2019-06-27T18:26:29.000Z</time>
      </trkpt>
      <trkpt lat="43.93066" lon="1.80264">
        <ele>894.79998779297</ele>
        <time>2019-06-27T18:26:30.000Z</time>
      </trkpt>
      <trkpt lat="43.93066" lon="1.80264">
        <ele>894.79998779297</ele>
        <time>2019-06-27T18:26:31.000Z</time>
      </trkpt>
      <trkpt lat="43.93066" lon="1.80264">
        <ele>894.79998779297</ele>
        <time>2019-06-27T18:26:32.000Z</time>
      </trkpt>
      <trkpt lat="43.93066" lon="1.80264">
        <ele>894.79998779297</ele>
        <time>2019-06-27T18:26:33.000Z</time>
      </trkpt>
      <trkpt lat="43.93066" lon="1.80264">
        <ele>894.79998779297</ele>
        <time>2019-06-27T18:26:34.000Z</time>
      </trkpt>
      <trkpt lat="43.93066" lon="1.80264">
        <ele>894.79998779297</ele>
        <time>2019-06-27T18:26:35.000Z</time>
      </trkpt>
      <trkpt lat="43.93066" lon="1.80264">
        <ele>894.79998779297</ele>
        <time>2019-06-27T18:26:36.000Z</time>
      </trkpt>
      <trkpt lat="43.93066" lon="1.80264">
        <ele>894.79998779297</ele>
        <time>2019-06-27T18:26:37.000Z</time>
      </trkpt>
      <trkpt lat="43.93066" lon="1.80264">
        <ele>894.79998779297</ele>
        <time>2019-06-27T18:26:38.000Z</time>
      </trkpt>
      <trkpt lat="43.93066" lon="1.80264">
        <ele>894.79998779297</ele>
        <time>2019-06-27T18:26:39.000Z</time>
      </trkpt>
      <trkpt lat="43.93066" lon="1.80264">
        <ele>894.79998779297</ele>
        <time>2019-06-27T18:26:40.000Z</time>
      </trkpt>
      <trkpt lat="43.93066" lon="1.80264">
        <ele>894.79998779297</ele>
        <time>2019-06-27T18:26:41.000Z</time>
      </trkpt>
      <trkpt lat="43.93066" lon="1.80264">
        <ele>894.79998779297</ele>
        <time>2019-06-27T18:26:42.000Z</time>
      </trkpt>
      <trkpt lat="43.93066" lon="1.80264">
        <ele>894.79998779297</ele>
        <time>2019-06-27T18:26:43.000Z</time>
      </trkpt>
      <trkpt lat="43.93066" lon="1.80264">
        <ele>894.79998779297</ele>
        <time>2019-06-27T18:26:44.000Z</time>
      </trkpt>
      <trkpt lat="43.93066" lon="1.80264">
        <ele>894.79998779297</ele>
        <time>2019-06-27T18:26:45.000Z</time>
      </trkpt>
      <trkpt lat="43.93066" lon="1.80264">
        <ele>894.79998779297</ele>
        <time>2019-06-27T18:26:46.000Z</time>
      </trkpt>
      <trkpt lat="43.93066" lon="1.80264">
        <ele>894.79998779297</ele>
        <time>2019-06-27T18:26:47.000Z</time>
      </trkpt>
      <trkpt lat="43.93066" lon="1.80264">
        <ele>894.79998779297</ele>
        <time>2019-06-27T18:26:48.000Z</time>
      </trkpt>
      <trkpt lat="43.93066" lon="1.80264">
        <ele>894.79998779297</ele>
        <time>2019-06-27T18:26:49.000Z</time>
      </trkpt>
      <trkpt lat="43.93066" lon="1.80264">
        <ele>894.79998779297</ele>
        <time>2019-06-27T18:26:50.000Z</time>
      </trkpt>
      <trkpt lat="43.93066" lon="1.80264">
        <ele>894.79998779297</ele>
        <time>2019-06-27T18:26:51.000Z</time>
      </trkpt>
      <trkpt lat="43.93066" lon="1.80264">
        <ele>894.79998779297</ele>
        <time>2019-06-27T18:26:52.000Z</time>
      </trkpt>
      <trkpt lat="43.93066" lon="1.80264">
        <ele>894.79998779297</ele>
        <time>2019-06-27T18:26:53.000Z</time>
      </trkpt>
      <trkpt lat="43.93066" lon="1.80264">
        <ele>894.79998779297</ele>
        <time>2019-06-27T18:26:54.000Z</time>
      </trkpt>
      <trkpt lat="43.93066" lon="1.80264">
        <ele>894.79998779297</ele>
        <time>2019-06-27T18:26:55.000Z</time>
      </trkpt>
      <trkpt lat="43.93066" lon="1.80264">
        <ele>894.79998779297</ele>
        <time>2019-06-27T18:26:56.000Z</time>
      </trkpt>
      <trkpt lat="43.93066" lon="1.80264">
        <ele>894.79998779297</ele>
        <time>2019-06-27T18:26:57.000Z</time>
      </trkpt>
      <trkpt lat="43.93066" lon="1.80264">
        <ele>894.79998779297</ele>
        <time>2019-06-27T18:26:58.000Z</time>
      </trkpt>
      <trkpt lat="43.93066" lon="1.80264">
        <ele>894.79998779297</ele>
        <time>2019-06-27T18:26:59.000Z</time>
      </trkpt>
      <trkpt lat="43.93066" lon="1.80264">
        <ele>894.79998779297</ele>
        <time>2019-06-27T18:27:00.000Z</time>
      </trkpt>
      <trkpt lat="43.93066" lon="1.80264">
        <ele>894.79998779297</ele>
        <time>2019-06-27T18:27:01.000Z</time>
      </trkpt>
      <trkpt lat="43.93066" lon="1.80264">
        <ele>894.79998779297</ele>
        <time>2019-06-27T18:27:02.000Z</time>
      </trkpt>
      <trkpt lat="43.93066" lon="1.80264">
        <ele>894.79998779297</ele>
        <time>2019-06-27T18:27:03.000Z</time>
      </trkpt>
      <trkpt lat="43.93066" lon="1.80264">
        <ele>894.79998779297</ele>
        <time>2019-06-27T18:27:04.000Z</time>
      </trkpt>
      <trkpt lat="43.93066" lon="1.80264">
        <ele>894.79998779297</ele>
        <time>2019-06-27T18:27:05.000Z</time>
      </trkpt>
      <trkpt lat="43.93066" lon="1.80264">
        <ele>894.79998779297</ele>
        <time>2019-06-27T18:27:06.000Z</time>
      </trkpt>
      <trkpt lat="43.93066" lon="1.80264">
        <ele>894.79998779297</ele>
        <time>2019-06-27T18:27:07.000Z</time>
      </trkpt>
      <trkpt lat="43.93066" lon="1.80264">
        <ele>894.79998779297</ele>
        <time>2019-06-27T18:27:08.000Z</time>
      </trkpt>
      <trkpt lat="43.93066" lon="1.80264">
        <ele>894.79998779297</ele>
        <time>2019-06-27T18:27:09.000Z</time>
      </trkpt>
      <trkpt lat="43.93066" lon="1.80264">
        <ele>894.79998779297</ele>
        <time>2019-06-27T18:27:10.000Z</time>
      </trkpt>
      <trkpt lat="43.93066" lon="1.80264">
        <ele>894.79998779297</ele>
        <time>2019-06-27T18:27:11.000Z</time>
      </trkpt>
      <trkpt lat="43.93066" lon="1.80264">
        <ele>894.79998779297</ele>
        <time>2019-06-27T18:27:12.000Z</time>
      </trkpt>
      <trkpt lat="43.93066" lon="1.80264">
        <ele>894.79998779297</ele>
        <time>2019-06-27T18:27:13.000Z</time>
      </trkpt>
      <trkpt lat="43.93066" lon="1.80264">
        <ele>894.79998779297</ele>
        <time>2019-06-27T18:27:14.000Z</time>
      </trkpt>
      <trkpt lat="43.93066" lon="1.80264">
        <ele>894.79998779297</ele>
        <time>2019-06-27T18:27:15.000Z</time>
      </trkpt>
      <trkpt lat="43.93066" lon="1.80264">
        <ele>894.79998779297</ele>
        <time>2019-06-27T18:27:16.000Z</time>
      </trkpt>
      <trkpt lat="43.93066" lon="1.80264">
        <ele>894.79998779297</ele>
        <time>2019-06-27T18:27:17.000Z</time>
      </trkpt>
      <trkpt lat="43.93066" lon="1.80264">
        <ele>894.79998779297</ele>
        <time>2019-06-27T18:27:18.000Z</time>
      </trkpt>
      <trkpt lat="43.93066" lon="1.80264">
        <ele>894.79998779297</ele>
        <time>2019-06-27T18:27:19.000Z</time>
      </trkpt>
      <trkpt lat="43.93066" lon="1.80264">
        <ele>894.79998779297</ele>
        <time>2019-06-27T18:27:20.000Z</time>
      </trkpt>
      <trkpt lat="43.93066" lon="1.80264">
        <ele>894.79998779297</ele>
        <time>2019-06-27T18:27:21.000Z</time>
      </trkpt>
      <trkpt lat="43.93066" lon="1.80264">
        <ele>894.79998779297</ele>
        <time>2019-06-27T18:27:22.000Z</time>
      </trkpt>
      <trkpt lat="43.93066" lon="1.80264">
        <ele>894.79998779297</ele>
        <time>2019-06-27T18:27:23.000Z</time>
      </trkpt>
      <trkpt lat="43.93066" lon="1.80264">
        <ele>894.79998779297</ele>
        <time>2019-06-27T18:27:24.000Z</time>
      </trkpt>
      <trkpt lat="43.93066" lon="1.80263">
        <ele>894.79998779297</ele>
        <time>2019-06-27T18:27:25.000Z</time>
      </trkpt>
      <trkpt lat="43.93066" lon="1.80261">
        <ele>894.79998779297</ele>
        <time>2019-06-27T18:27:26.000Z</time>
      </trkpt>
      <trkpt lat="43.93065" lon="1.8026">
        <ele>894.79998779297</ele>
        <time>2019-06-27T18:27:27.000Z</time>
      </trkpt>
      <trkpt lat="43.93064" lon="1.80258">
        <ele>894.79998779297</ele>
        <time>2019-06-27T18:27:28.000Z</time>
      </trkpt>
      <trkpt lat="43.93063" lon="1.80257">
        <ele>894.79998779297</ele>
        <time>2019-06-27T18:27:29.000Z</time>
      </trkpt>
      <trkpt lat="43.93062" lon="1.80255">
        <ele>894.79998779297</ele>
        <time>2019-06-27T18:27:30.000Z</time>
      </trkpt>
      <trkpt lat="43.93061" lon="1.80254">
        <ele>894.79998779297</ele>
        <time>2019-06-27T18:27:31.000Z</time>
      </trkpt>
      <trkpt lat="43.9306" lon="1.80256">
        <ele>894.79998779297</ele>
        <time>2019-06-27T18:27:32.000Z</time>
      </trkpt>
      <trkpt lat="43.9306" lon="1.80257">
        <ele>894.79998779297</ele>
        <time>2019-06-27T18:27:33.000Z</time>
      </trkpt>
      <trkpt lat="43.93061" lon="1.80258">
        <ele>894.79998779297</ele>
        <time>2019-06-27T18:27:34.000Z</time>
      </trkpt>
      <trkpt lat="43.93062" lon="1.80258">
        <ele>894.79998779297</ele>
        <time>2019-06-27T18:27:35.000Z</time>
      </trkpt>
      <trkpt lat="43.93063" lon="1.8026">
        <ele>894.79998779297</ele>
        <time>2019-06-27T18:27:36.000Z</time>
      </trkpt>
      <trkpt lat="43.93064" lon="1.80261">
        <ele>894.79998779297</ele>
        <time>2019-06-27T18:27:37.000Z</time>
      </trkpt>
      <trkpt lat="43.93065" lon="1.80262">
        <ele>894.79998779297</ele>
        <time>2019-06-27T18:27:38.000Z</time>
      </trkpt>
      <trkpt lat="43.93066" lon="1.80261">
        <ele>894.79998779297</ele>
        <time>2019-06-27T18:27:39.000Z</time>
      </trkpt>
      <trkpt lat="43.93068" lon="1.8026">
        <ele>895</ele>
        <time>2019-06-27T18:27:40.000Z</time>
      </trkpt>
      <trkpt lat="43.93068" lon="1.80258">
        <ele>895</ele>
        <time>2019-06-27T18:27:41.000Z</time>
      </trkpt>
      <trkpt lat="43.93069" lon="1.80257">
        <ele>895.20001220703</ele>
        <time>2019-06-27T18:27:42.000Z</time>
      </trkpt>
      <trkpt lat="43.9307" lon="1.80256">
        <ele>895.20001220703</ele>
        <time>2019-06-27T18:27:43.000Z</time>
      </trkpt>
      <trkpt lat="43.93071" lon="1.80255">
        <ele>895.40002441406</ele>
        <time>2019-06-27T18:27:44.000Z</time>
      </trkpt>
      <trkpt lat="43.93071" lon="1.80253">
        <ele>895.40002441406</ele>
        <time>2019-06-27T18:27:45.000Z</time>
      </trkpt>
      <trkpt lat="43.93072" lon="1.80252">
        <ele>895.40002441406</ele>
        <time>2019-06-27T18:27:46.000Z</time>
      </trkpt>
      <trkpt lat="43.93072" lon="1.8025">
        <ele>895.59997558594</ele>
        <time>2019-06-27T18:27:47.000Z</time>
      </trkpt>
      <trkpt lat="43.93073" lon="1.80249">
        <ele>896</ele>
        <time>2019-06-27T18:27:48.000Z</time>
      </trkpt>
      <trkpt lat="43.93074" lon="1.80248">
        <ele>896</ele>
        <time>2019-06-27T18:27:49.000Z</time>
      </trkpt>
      <trkpt lat="43.93073" lon="1.80249">
        <ele>896.40002441406</ele>
        <time>2019-06-27T18:27:50.000Z</time>
      </trkpt>
      <trkpt lat="43.93074" lon="1.80247">
        <ele>896.40002441406</ele>
        <time>2019-06-27T18:27:51.000Z</time>
      </trkpt>
      <trkpt lat="43.93076" lon="1.80246">
        <ele>896.59997558594</ele>
        <time>2019-06-27T18:27:52.000Z</time>
      </trkpt>
      <trkpt lat="43.93075" lon="1.80246">
        <ele>896.79998779297</ele>
        <time>2019-06-27T18:27:53.000Z</time>
      </trkpt>
      <trkpt lat="43.93077" lon="1.80244">
        <ele>896.79998779297</ele>
        <time>2019-06-27T18:27:54.000Z</time>
      </trkpt>
      <trkpt lat="43.93078" lon="1.80243">
        <ele>897</ele>
        <time>2019-06-27T18:27:55.000Z</time>
      </trkpt>
      <trkpt lat="43.93079" lon="1.80243">
        <ele>897</ele>
        <time>2019-06-27T18:27:56.000Z</time>
      </trkpt>
      <trkpt lat="43.9308" lon="1.80243">
        <ele>897.20001220703</ele>
        <time>2019-06-27T18:27:57.000Z</time>
      </trkpt>
      <trkpt lat="43.93081" lon="1.80242">
        <ele>897.40002441406</ele>
        <time>2019-06-27T18:27:58.000Z</time>
      </trkpt>
      <trkpt lat="43.93082" lon="1.80241">
        <ele>897.40002441406</ele>
        <time>2019-06-27T18:27:59.000Z</time>
      </trkpt>
      <trkpt lat="43.93082" lon="1.8024">
        <ele>897.59997558594</ele>
        <time>2019-06-27T18:28:00.000Z</time>
      </trkpt>
      <trkpt lat="43.93083" lon="1.80239">
        <ele>897.79998779297</ele>
        <time>2019-06-27T18:28:01.000Z</time>
      </trkpt>
      <trkpt lat="43.93085" lon="1.80238">
        <ele>898</ele>
        <time>2019-06-27T18:28:02.000Z</time>
      </trkpt>
      <trkpt lat="43.93084" lon="1.80239">
        <ele>898.20001220703</ele>
        <time>2019-06-27T18:28:03.000Z</time>
      </trkpt>
      <trkpt lat="43.93086" lon="1.80237">
        <ele>898.20001220703</ele>
        <time>2019-06-27T18:28:04.000Z</time>
      </trkpt>
      <trkpt lat="43.93087" lon="1.80237">
        <ele>898.40002441406</ele>
        <time>2019-06-27T18:28:05.000Z</time>
      </trkpt>
      <trkpt lat="43.93088" lon="1.80236">
        <ele>898.59997558594</ele>
        <time>2019-06-27T18:28:06.000Z</time>
      </trkpt>
      <trkpt lat="43.93089" lon="1.80235">
        <ele>898.79998779297</ele>
        <time>2019-06-27T18:28:07.000Z</time>
      </trkpt>
      <trkpt lat="43.9309" lon="1.80234">
        <ele>899</ele>
        <time>2019-06-27T18:28:08.000Z</time>
      </trkpt>
      <trkpt lat="43.93091" lon="1.80233">
        <ele>899.20001220703</ele>
        <time>2019-06-27T18:28:09.000Z</time>
      </trkpt>
      <trkpt lat="43.93092" lon="1.80232">
        <ele>899.40002441406</ele>
        <time>2019-06-27T18:28:10.000Z</time>
      </trkpt>
      <trkpt lat="43.93091" lon="1.80233">
        <ele>899.59997558594</ele>
        <time>2019-06-27T18:28:11.000Z</time>
      </trkpt>
      <trkpt lat="43.93093" lon="1.80231">
        <ele>900.20001220703</ele>
        <time>2019-06-27T18:28:12.000Z</time>
      </trkpt>
      <trkpt lat="43.93094" lon="1.80229">
        <ele>900.59997558594</ele>
        <time>2019-06-27T18:28:13.000Z</time>
      </trkpt>
      <trkpt lat="43.93096" lon="1.80228">
        <ele>900.79998779297</ele>
        <time>2019-06-27T18:28:14.000Z</time>
      </trkpt>
      <trkpt lat="43.93097" lon="1.80227">
        <ele>901</ele>
        <time>2019-06-27T18:28:15.000Z</time>
      </trkpt>
      <trkpt lat="43.93098" lon="1.80225">
        <ele>901.40002441406</ele>
        <time>2019-06-27T18:28:16.000Z</time>
      </trkpt>
      <trkpt lat="43.93099" lon="1.80224">
        <ele>901.40002441406</ele>
        <time>2019-06-27T18:28:17.000Z</time>
      </trkpt>
      <trkpt lat="43.931" lon="1.80222">
        <ele>901.79998779297</ele>
        <time>2019-06-27T18:28:18.000Z</time>
      </trkpt>
      <trkpt lat="43.931" lon="1.80221">
        <ele>902</ele>
        <time>2019-06-27T18:28:19.000Z</time>
      </trkpt>
      <trkpt lat="43.931" lon="1.80222">
        <ele>902.20001220703</ele>
        <time>2019-06-27T18:28:20.000Z</time>
      </trkpt>
      <trkpt lat="43.93101" lon="1.8022">
        <ele>902.40002441406</ele>
        <time>2019-06-27T18:28:21.000Z</time>
      </trkpt>
      <trkpt lat="43.93102" lon="1.80218">
        <ele>902.59997558594</ele>
        <time>2019-06-27T18:28:22.000Z</time>
      </trkpt>
      <trkpt lat="43.93103" lon="1.80216">
        <ele>902.59997558594</ele>
        <time>2019-06-27T18:28:23.000Z</time>
      </trkpt>
      <trkpt lat="43.93104" lon="1.80214">
        <ele>902.59997558594</ele>
        <time>2019-06-27T18:28:24.000Z</time>
      </trkpt>
      <trkpt lat="43.93105" lon="1.80213">
        <ele>902.79998779297</ele>
        <time>2019-06-27T18:28:25.000Z</time>
      </trkpt>
      <trkpt lat="43.93105" lon="1.80211">
        <ele>903</ele>
        <time>2019-06-27T18:28:26.000Z</time>
      </trkpt>
      <trkpt lat="43.93105" lon="1.80212">
        <ele>903.20001220703</ele>
        <time>2019-06-27T18:28:27.000Z</time>
      </trkpt>
      <trkpt lat="43.93105" lon="1.80209">
        <ele>903.20001220703</ele>
        <time>2019-06-27T18:28:28.000Z</time>
      </trkpt>
      <trkpt lat="43.93105" lon="1.80208">
        <ele>903.20001220703</ele>
        <time>2019-06-27T18:28:29.000Z</time>
      </trkpt>
      <trkpt lat="43.93105" lon="1.80207">
        <ele>903.40002441406</ele>
        <time>2019-06-27T18:28:30.000Z</time>
      </trkpt>
      <trkpt lat="43.93105" lon="1.80204">
        <ele>903.40002441406</ele>
        <time>2019-06-27T18:28:31.000Z</time>
      </trkpt>
      <trkpt lat="43.93106" lon="1.80202">
        <ele>903.59997558594</ele>
        <time>2019-06-27T18:28:32.000Z</time>
      </trkpt>
      <trkpt lat="43.93107" lon="1.802">
        <ele>904</ele>
        <time>2019-06-27T18:28:33.000Z</time>
      </trkpt>
      <trkpt lat="43.93107" lon="1.80198">
        <ele>904.20001220703</ele>
        <time>2019-06-27T18:28:34.000Z</time>
      </trkpt>
      <trkpt lat="43.93108" lon="1.80196">
        <ele>904.20001220703</ele>
        <time>2019-06-27T18:28:35.000Z</time>
      </trkpt>
      <trkpt lat="43.93109" lon="1.80194">
        <ele>904.59997558594</ele>
        <time>2019-06-27T18:28:36.000Z</time>
      </trkpt>
      <trkpt lat="43.9311" lon="1.80193">
        <ele>905</ele>
        <time>2019-06-27T18:28:37.000Z</time>
      </trkpt>
      <trkpt lat="43.93111" lon="1.80191">
        <ele>905.20001220703</ele>
        <time>2019-06-27T18:28:38.000Z</time>
      </trkpt>
      <trkpt lat="43.93112" lon="1.8019">
        <ele>905.59997558594</ele>
        <time>2019-06-27T18:28:39.000Z</time>
      </trkpt>
      <trkpt lat="43.93113" lon="1.80188">
        <ele>905.59997558594</ele>
        <time>2019-06-27T18:28:40.000Z</time>
      </trkpt>
      <trkpt lat="43.93114" lon="1.80186">
        <ele>906</ele>
        <time>2019-06-27T18:28:41.000Z</time>
      </trkpt>
      <trkpt lat="43.93113" lon="1.80187">
        <ele>906</ele>
        <time>2019-06-27T18:28:42.000Z</time>
      </trkpt>
      <trkpt lat="43.93115" lon="1.80183">
        <ele>906.20001220703</ele>
        <time>2019-06-27T18:28:43.000Z</time>
      </trkpt>
      <trkpt lat="43.93115" lon="1.80182">
        <ele>906.40002441406</ele>
        <time>2019-06-27T18:28:44.000Z</time>
      </trkpt>
      <trkpt lat="43.93116" lon="1.8018">
        <ele>906.40002441406</ele>
        <time>2019-06-27T18:28:45.000Z</time>
      </trkpt>
      <trkpt lat="43.93117" lon="1.80178">
        <ele>906.59997558594</ele>
        <time>2019-06-27T18:28:46.000Z</time>
      </trkpt>
      <trkpt lat="43.93118" lon="1.80176">
        <ele>906.59997558594</ele>
        <time>2019-06-27T18:28:47.000Z</time>
      </trkpt>
      <trkpt lat="43.93119" lon="1.80175">
        <ele>906.79998779297</ele>
        <time>2019-06-27T18:28:48.000Z</time>
      </trkpt>
      <trkpt lat="43.9312" lon="1.80174">
        <ele>907</ele>
        <time>2019-06-27T18:28:49.000Z</time>
      </trkpt>
      <trkpt lat="43.9312" lon="1.80172">
        <ele>907.20001220703</ele>
        <time>2019-06-27T18:28:50.000Z</time>
      </trkpt>
      <trkpt lat="43.93122" lon="1.80172">
        <ele>907.20001220703</ele>
        <time>2019-06-27T18:28:51.000Z</time>
      </trkpt>
      <trkpt lat="43.93122" lon="1.80171">
        <ele>907.20001220703</ele>
        <time>2019-06-27T18:28:52.000Z</time>
      </trkpt>
      <trkpt lat="43.93123" lon="1.8017">
        <ele>907.40002441406</ele>
        <time>2019-06-27T18:28:53.000Z</time>
      </trkpt>
      <trkpt lat="43.93124" lon="1.80169">
        <ele>907.59997558594</ele>
        <time>2019-06-27T18:28:54.000Z</time>
      </trkpt>
      <trkpt lat="43.93125" lon="1.80168">
        <ele>907.59997558594</ele>
        <time>2019-06-27T18:28:55.000Z</time>
      </trkpt>
      <trkpt lat="43.93124" lon="1.80169">
        <ele>907.59997558594</ele>
        <time>2019-06-27T18:28:56.000Z</time>
      </trkpt>
      <trkpt lat="43.93126" lon="1.80166">
        <ele>907.59997558594</ele>
        <time>2019-06-27T18:28:57.000Z</time>
      </trkpt>
      <trkpt lat="43.93127" lon="1.80164">
        <ele>907.79998779297</ele>
        <time>2019-06-27T18:28:58.000Z</time>
      </trkpt>
      <trkpt lat="43.93127" lon="1.80162">
        <ele>908</ele>
        <time>2019-06-27T18:28:59.000Z</time>
      </trkpt>
      <trkpt lat="43.93127" lon="1.8016">
        <ele>908.20001220703</ele>
        <time>2019-06-27T18:29:00.000Z</time>
      </trkpt>
      <trkpt lat="43.93127" lon="1.80161">
        <ele>908.20001220703</ele>
        <time>2019-06-27T18:29:01.000Z</time>
      </trkpt>
      <trkpt lat="43.93127" lon="1.80157">
        <ele>908.40002441406</ele>
        <time>2019-06-27T18:29:02.000Z</time>
      </trkpt>
      <trkpt lat="43.93127" lon="1.80158">
        <ele>908.40002441406</ele>
        <time>2019-06-27T18:29:03.000Z</time>
      </trkpt>
      <trkpt lat="43.93128" lon="1.80156">
        <ele>908.59997558594</ele>
        <time>2019-06-27T18:29:04.000Z</time>
      </trkpt>
      <trkpt lat="43.93129" lon="1.80154">
        <ele>908.79998779297</ele>
        <time>2019-06-27T18:29:05.000Z</time>
      </trkpt>
      <trkpt lat="43.93129" lon="1.80153">
        <ele>908.79998779297</ele>
        <time>2019-06-27T18:29:06.000Z</time>
      </trkpt>
      <trkpt lat="43.9313" lon="1.80152">
        <ele>909</ele>
        <time>2019-06-27T18:29:07.000Z</time>
      </trkpt>
      <trkpt lat="43.9313" lon="1.8015">
        <ele>909.20001220703</ele>
        <time>2019-06-27T18:29:08.000Z</time>
      </trkpt>
      <trkpt lat="43.93131" lon="1.80149">
        <ele>909.40002441406</ele>
        <time>2019-06-27T18:29:09.000Z</time>
      </trkpt>
      <trkpt lat="43.93132" lon="1.80148">
        <ele>909.40002441406</ele>
        <time>2019-06-27T18:29:10.000Z</time>
      </trkpt>
      <trkpt lat="43.93132" lon="1.80145">
        <ele>909.59997558594</ele>
        <time>2019-06-27T18:29:11.000Z</time>
      </trkpt>
      <trkpt lat="43.93132" lon="1.80146">
        <ele>909.59997558594</ele>
        <time>2019-06-27T18:29:12.000Z</time>
      </trkpt>
      <trkpt lat="43.93133" lon="1.80142">
        <ele>909.79998779297</ele>
        <time>2019-06-27T18:29:13.000Z</time>
      </trkpt>
      <trkpt lat="43.93134" lon="1.8014">
        <ele>910</ele>
        <time>2019-06-27T18:29:14.000Z</time>
      </trkpt>
      <trkpt lat="43.93134" lon="1.80139">
        <ele>910.20001220703</ele>
        <time>2019-06-27T18:29:15.000Z</time>
      </trkpt>
      <trkpt lat="43.93134" lon="1.8014">
        <ele>910.20001220703</ele>
        <time>2019-06-27T18:29:16.000Z</time>
      </trkpt>
      <trkpt lat="43.93135" lon="1.80137">
        <ele>910.20001220703</ele>
        <time>2019-06-27T18:29:17.000Z</time>
      </trkpt>
      <trkpt lat="43.93135" lon="1.80135">
        <ele>910.40002441406</ele>
        <time>2019-06-27T18:29:18.000Z</time>
      </trkpt>
      <trkpt lat="43.93136" lon="1.80133">
        <ele>910.40002441406</ele>
        <time>2019-06-27T18:29:19.000Z</time>
      </trkpt>
      <trkpt lat="43.93137" lon="1.80131">
        <ele>910.59997558594</ele>
        <time>2019-06-27T18:29:20.000Z</time>
      </trkpt>
      <trkpt lat="43.93137" lon="1.80129">
        <ele>910.59997558594</ele>
        <time>2019-06-27T18:29:21.000Z</time>
      </trkpt>
      <trkpt lat="43.93137" lon="1.80128">
        <ele>910.79998779297</ele>
        <time>2019-06-27T18:29:22.000Z</time>
      </trkpt>
      <trkpt lat="43.93138" lon="1.80126">
        <ele>910.79998779297</ele>
        <time>2019-06-27T18:29:23.000Z</time>
      </trkpt>
      <trkpt lat="43.93139" lon="1.80124">
        <ele>911.20001220703</ele>
        <time>2019-06-27T18:29:24.000Z</time>
      </trkpt>
      <trkpt lat="43.93139" lon="1.80123">
        <ele>911.40002441406</ele>
        <time>2019-06-27T18:29:25.000Z</time>
      </trkpt>
      <trkpt lat="43.93139" lon="1.80122">
        <ele>911.40002441406</ele>
        <time>2019-06-27T18:29:26.000Z</time>
      </trkpt>
      <trkpt lat="43.9314" lon="1.8012">
        <ele>911.59997558594</ele>
        <time>2019-06-27T18:29:27.000Z</time>
      </trkpt>
      <trkpt lat="43.9314" lon="1.80119">
        <ele>911.79998779297</ele>
        <time>2019-06-27T18:29:28.000Z</time>
      </trkpt>
      <trkpt lat="43.93141" lon="1.80118">
        <ele>911.79998779297</ele>
        <time>2019-06-27T18:29:29.000Z</time>
      </trkpt>
      <trkpt lat="43.93142" lon="1.80117">
        <ele>912</ele>
        <time>2019-06-27T18:29:30.000Z</time>
      </trkpt>
      <trkpt lat="43.93143" lon="1.80115">
        <ele>912</ele>
        <time>2019-06-27T18:29:31.000Z</time>
      </trkpt>
      <trkpt lat="43.93143" lon="1.80114">
        <ele>912</ele>
        <time>2019-06-27T18:29:32.000Z</time>
      </trkpt>
      <trkpt lat="43.93144" lon="1.80112">
        <ele>912.20001220703</ele>
        <time>2019-06-27T18:29:33.000Z</time>
      </trkpt>
      <trkpt lat="43.93145" lon="1.80111">
        <ele>912.40002441406</ele>
        <time>2019-06-27T18:29:34.000Z</time>
      </trkpt>
      <trkpt lat="43.93145" lon="1.80109">
        <ele>912.40002441406</ele>
        <time>2019-06-27T18:29:35.000Z</time>
      </trkpt>
      <trkpt lat="43.93146" lon="1.80107">
        <ele>912.59997558594</ele>
        <time>2019-06-27T18:29:36.000Z</time>
      </trkpt>
      <trkpt lat="43.93147" lon="1.80104">
        <ele>912.79998779297</ele>
        <time>2019-06-27T18:29:37.000Z</time>
      </trkpt>
      <trkpt lat="43.93148" lon="1.80102">
        <ele>913</ele>
        <time>2019-06-27T18:29:38.000Z</time>
      </trkpt>
      <trkpt lat="43.93149" lon="1.801">
        <ele>913.20001220703</ele>
        <time>2019-06-27T18:29:39.000Z</time>
      </trkpt>
      <trkpt lat="43.9315" lon="1.80099">
        <ele>913.20001220703</ele>
        <time>2019-06-27T18:29:40.000Z</time>
      </trkpt>
      <trkpt lat="43.93151" lon="1.80097">
        <ele>913.40002441406</ele>
        <time>2019-06-27T18:29:41.000Z</time>
      </trkpt>
      <trkpt lat="43.9315" lon="1.80098">
        <ele>913.40002441406</ele>
        <time>2019-06-27T18:29:42.000Z</time>
      </trkpt>
      <trkpt lat="43.93152" lon="1.80094">
        <ele>913.59997558594</ele>
        <time>2019-06-27T18:29:43.000Z</time>
      </trkpt>
      <trkpt lat="43.93152" lon="1.80093">
        <ele>913.79998779297</ele>
        <time>2019-06-27T18:29:44.000Z</time>
      </trkpt>
      <trkpt lat="43.93153" lon="1.80092">
        <ele>914</ele>
        <time>2019-06-27T18:29:45.000Z</time>
      </trkpt>
      <trkpt lat="43.93154" lon="1.8009">
        <ele>914</ele>
        <time>2019-06-27T18:29:46.000Z</time>
      </trkpt>
      <trkpt lat="43.93156" lon="1.80088">
        <ele>914</ele>
        <time>2019-06-27T18:29:47.000Z</time>
      </trkpt>
      <trkpt lat="43.93157" lon="1.80086">
        <ele>914.59997558594</ele>
        <time>2019-06-27T18:29:48.000Z</time>
      </trkpt>
      <trkpt lat="43.93159" lon="1.80085">
        <ele>914.79998779297</ele>
        <time>2019-06-27T18:29:49.000Z</time>
      </trkpt>
      <trkpt lat="43.9316" lon="1.80083">
        <ele>914.79998779297</ele>
        <time>2019-06-27T18:29:50.000Z</time>
      </trkpt>
      <trkpt lat="43.93161" lon="1.80082">
        <ele>915</ele>
        <time>2019-06-27T18:29:51.000Z</time>
      </trkpt>
      <trkpt lat="43.93163" lon="1.80081">
        <ele>915.20001220703</ele>
        <time>2019-06-27T18:29:52.000Z</time>
      </trkpt>
      <trkpt lat="43.93165" lon="1.8008">
        <ele>915.20001220703</ele>
        <time>2019-06-27T18:29:53.000Z</time>
      </trkpt>
      <trkpt lat="43.93166" lon="1.80079">
        <ele>915.20001220703</ele>
        <time>2019-06-27T18:29:54.000Z</time>
      </trkpt>
      <trkpt lat="43.93167" lon="1.80077">
        <ele>915.40002441406</ele>
        <time>2019-06-27T18:29:55.000Z</time>
      </trkpt>
      <trkpt lat="43.93169" lon="1.80076">
        <ele>915.59997558594</ele>
        <time>2019-06-27T18:29:56.000Z</time>
      </trkpt>
      <trkpt lat="43.9317" lon="1.80075">
        <ele>915.79998779297</ele>
        <time>2019-06-27T18:29:57.000Z</time>
      </trkpt>
      <trkpt lat="43.93171" lon="1.80074">
        <ele>915.79998779297</ele>
        <time>2019-06-27T18:29:58.000Z</time>
      </trkpt>
      <trkpt lat="43.9317" lon="1.80075">
        <ele>916</ele>
        <time>2019-06-27T18:29:59.000Z</time>
      </trkpt>
      <trkpt lat="43.93172" lon="1.80073">
        <ele>916.20001220703</ele>
        <time>2019-06-27T18:30:00.000Z</time>
      </trkpt>
      <trkpt lat="43.93174" lon="1.80072">
        <ele>916.40002441406</ele>
        <time>2019-06-27T18:30:01.000Z</time>
      </trkpt>
      <trkpt lat="43.93175" lon="1.80072">
        <ele>916.40002441406</ele>
        <time>2019-06-27T18:30:02.000Z</time>
      </trkpt>
      <trkpt lat="43.93176" lon="1.80071">
        <ele>916.59997558594</ele>
        <time>2019-06-27T18:30:03.000Z</time>
      </trkpt>
      <trkpt lat="43.93177" lon="1.80071">
        <ele>916.59997558594</ele>
        <time>2019-06-27T18:30:04.000Z</time>
      </trkpt>
      <trkpt lat="43.93179" lon="1.8007">
        <ele>916.59997558594</ele>
        <time>2019-06-27T18:30:05.000Z</time>
      </trkpt>
      <trkpt lat="43.9318" lon="1.80069">
        <ele>916.79998779297</ele>
        <time>2019-06-27T18:30:06.000Z</time>
      </trkpt>
      <trkpt lat="43.93182" lon="1.80068">
        <ele>917</ele>
        <time>2019-06-27T18:30:07.000Z</time>
      </trkpt>
      <trkpt lat="43.93183" lon="1.80067">
        <ele>917</ele>
        <time>2019-06-27T18:30:08.000Z</time>
      </trkpt>
      <trkpt lat="43.93184" lon="1.80066">
        <ele>917.20001220703</ele>
        <time>2019-06-27T18:30:09.000Z</time>
      </trkpt>
      <trkpt lat="43.93184" lon="1.80066">
        <ele>917.40002441406</ele>
        <time>2019-06-27T18:30:10.000Z</time>
      </trkpt>
      <trkpt lat="43.93186" lon="1.80065">
        <ele>917.40002441406</ele>
        <time>2019-06-27T18:30:11.000Z</time>
      </trkpt>
      <trkpt lat="43.93188" lon="1.80065">
        <ele>917.59997558594</ele>
        <time>2019-06-27T18:30:12.000Z</time>
      </trkpt>
      <trkpt lat="43.9319" lon="1.80064">
        <ele>917.59997558594</ele>
        <time>2019-06-27T18:30:13.000Z</time>
      </trkpt>
      <trkpt lat="43.93191" lon="1.80064">
        <ele>917.59997558594</ele>
        <time>2019-06-27T18:30:14.000Z</time>
      </trkpt>
      <trkpt lat="43.93191" lon="1.80064">
        <ele>918</ele>
        <time>2019-06-27T18:30:15.000Z</time>
      </trkpt>
      <trkpt lat="43.93195" lon="1.80063">
        <ele>918</ele>
        <time>2019-06-27T18:30:16.000Z</time>
      </trkpt>
      <trkpt lat="43.93197" lon="1.80062">
        <ele>918.40002441406</ele>
        <time>2019-06-27T18:30:17.000Z</time>
      </trkpt>
      <trkpt lat="43.93199" lon="1.80061">
        <ele>918.40002441406</ele>
        <time>2019-06-27T18:30:18.000Z</time>
      </trkpt>
      <trkpt lat="43.93201" lon="1.8006">
        <ele>918.59997558594</ele>
        <time>2019-06-27T18:30:19.000Z</time>
      </trkpt>
      <trkpt lat="43.93204" lon="1.8006">
        <ele>918.59997558594</ele>
        <time>2019-06-27T18:30:20.000Z</time>
      </trkpt>
      <trkpt lat="43.93205" lon="1.80061">
        <ele>918.79998779297</ele>
        <time>2019-06-27T18:30:21.000Z</time>
      </trkpt>
      <trkpt lat="43.93207" lon="1.80062">
        <ele>919</ele>
        <time>2019-06-27T18:30:22.000Z</time>
      </trkpt>
      <trkpt lat="43.93209" lon="1.80063">
        <ele>919.20001220703</ele>
        <time>2019-06-27T18:30:23.000Z</time>
      </trkpt>
      <trkpt lat="43.93211" lon="1.80064">
        <ele>919.20001220703</ele>
        <time>2019-06-27T18:30:24.000Z</time>
      </trkpt>
      <trkpt lat="43.93212" lon="1.80065">
        <ele>919.40002441406</ele>
        <time>2019-06-27T18:30:25.000Z</time>
      </trkpt>
      <trkpt lat="43.93214" lon="1.80067">
        <ele>919.40002441406</ele>
        <time>2019-06-27T18:30:26.000Z</time>
      </trkpt>
      <trkpt lat="43.93215" lon="1.80068">
        <ele>919.59997558594</ele>
        <time>2019-06-27T18:30:27.000Z</time>
      </trkpt>
      <trkpt lat="43.93216" lon="1.80068">
        <ele>919.79998779297</ele>
        <time>2019-06-27T18:30:28.000Z</time>
      </trkpt>
      <trkpt lat="43.93217" lon="1.80069">
        <ele>919.79998779297</ele>
        <time>2019-06-27T18:30:29.000Z</time>
      </trkpt>
      <trkpt lat="43.93218" lon="1.80071">
        <ele>920</ele>
        <time>2019-06-27T18:30:30.000Z</time>
      </trkpt>
      <trkpt lat="43.93219" lon="1.80072">
        <ele>920</ele>
        <time>2019-06-27T18:30:31.000Z</time>
      </trkpt>
      <trkpt lat="43.93221" lon="1.80072">
        <ele>920.20001220703</ele>
        <time>2019-06-27T18:30:32.000Z</time>
      </trkpt>
      <trkpt lat="43.93222" lon="1.80073">
        <ele>920.40002441406</ele>
        <time>2019-06-27T18:30:33.000Z</time>
      </trkpt>
      <trkpt lat="43.93223" lon="1.80074">
        <ele>920.40002441406</ele>
        <time>2019-06-27T18:30:34.000Z</time>
      </trkpt>
      <trkpt lat="43.93225" lon="1.80074">
        <ele>920.40002441406</ele>
        <time>2019-06-27T18:30:35.000Z</time>
      </trkpt>
      <trkpt lat="43.93227" lon="1.80074">
        <ele>920.79998779297</ele>
        <time>2019-06-27T18:30:36.000Z</time>
      </trkpt>
      <trkpt lat="43.93228" lon="1.80074">
        <ele>920.79998779297</ele>
        <time>2019-06-27T18:30:37.000Z</time>
      </trkpt>
      <trkpt lat="43.9323" lon="1.80075">
        <ele>920.79998779297</ele>
        <time>2019-06-27T18:30:38.000Z</time>
      </trkpt>
      <trkpt lat="43.93232" lon="1.80074">
        <ele>921</ele>
        <time>2019-06-27T18:30:39.000Z</time>
      </trkpt>
      <trkpt lat="43.93233" lon="1.80074">
        <ele>921</ele>
        <time>2019-06-27T18:30:40.000Z</time>
      </trkpt>
      <trkpt lat="43.93234" lon="1.80073">
        <ele>921.20001220703</ele>
        <time>2019-06-27T18:30:41.000Z</time>
      </trkpt>
      <trkpt lat="43.93236" lon="1.80073">
        <ele>921.20001220703</ele>
        <time>2019-06-27T18:30:42.000Z</time>
      </trkpt>
      <trkpt lat="43.93237" lon="1.80072">
        <ele>921.40002441406</ele>
        <time>2019-06-27T18:30:43.000Z</time>
      </trkpt>
      <trkpt lat="43.93236" lon="1.80073">
        <ele>921.40002441406</ele>
        <time>2019-06-27T18:30:44.000Z</time>
      </trkpt>
      <trkpt lat="43.9324" lon="1.80072">
        <ele>921.40002441406</ele>
        <time>2019-06-27T18:30:45.000Z</time>
      </trkpt>
      <trkpt lat="43.93239" lon="1.80072">
        <ele>921.59997558594</ele>
        <time>2019-06-27T18:30:46.000Z</time>
      </trkpt>
      <trkpt lat="43.93242" lon="1.8007">
        <ele>921.59997558594</ele>
        <time>2019-06-27T18:30:47.000Z</time>
      </trkpt>
      <trkpt lat="43.93244" lon="1.80069">
        <ele>921.79998779297</ele>
        <time>2019-06-27T18:30:48.000Z</time>
      </trkpt>
      <trkpt lat="43.93245" lon="1.80067">
        <ele>921.79998779297</ele>
        <time>2019-06-27T18:30:49.000Z</time>
      </trkpt>
      <trkpt lat="43.93247" lon="1.80066">
        <ele>922</ele>
        <time>2019-06-27T18:30:50.000Z</time>
      </trkpt>
      <trkpt lat="43.93249" lon="1.80065">
        <ele>922.20001220703</ele>
        <time>2019-06-27T18:30:51.000Z</time>
      </trkpt>
      <trkpt lat="43.9325" lon="1.80063">
        <ele>922.20001220703</ele>
        <time>2019-06-27T18:30:52.000Z</time>
      </trkpt>
      <trkpt lat="43.93251" lon="1.80062">
        <ele>922.20001220703</ele>
        <time>2019-06-27T18:30:53.000Z</time>
      </trkpt>
      <trkpt lat="43.93253" lon="1.80061">
        <ele>922.40002441406</ele>
        <time>2019-06-27T18:30:54.000Z</time>
      </trkpt>
      <trkpt lat="43.93254" lon="1.8006">
        <ele>922.59997558594</ele>
        <time>2019-06-27T18:30:55.000Z</time>
      </trkpt>
      <trkpt lat="43.93255" lon="1.8006">
        <ele>922.79998779297</ele>
        <time>2019-06-27T18:30:56.000Z</time>
      </trkpt>
      <trkpt lat="43.93257" lon="1.80059">
        <ele>923</ele>
        <time>2019-06-27T18:30:57.000Z</time>
      </trkpt>
      <trkpt lat="43.93258" lon="1.80058">
        <ele>923.20001220703</ele>
        <time>2019-06-27T18:30:58.000Z</time>
      </trkpt>
      <trkpt lat="43.93259" lon="1.80057">
        <ele>923.20001220703</ele>
        <time>2019-06-27T18:30:59.000Z</time>
      </trkpt>
      <trkpt lat="43.93261" lon="1.80056">
        <ele>923.59997558594</ele>
        <time>2019-06-27T18:31:00.000Z</time>
      </trkpt>
      <trkpt lat="43.93262" lon="1.80056">
        <ele>924</ele>
        <time>2019-06-27T18:31:01.000Z</time>
      </trkpt>
      <trkpt lat="43.93263" lon="1.80055">
        <ele>924</ele>
        <time>2019-06-27T18:31:02.000Z</time>
      </trkpt>
      <trkpt lat="43.93265" lon="1.80053">
        <ele>924.20001220703</ele>
        <time>2019-06-27T18:31:03.000Z</time>
      </trkpt>
      <trkpt lat="43.93266" lon="1.80052">
        <ele>924.40002441406</ele>
        <time>2019-06-27T18:31:04.000Z</time>
      </trkpt>
      <trkpt lat="43.93267" lon="1.80051">
        <ele>924.59997558594</ele>
        <time>2019-06-27T18:31:05.000Z</time>
      </trkpt>
      <trkpt lat="43.93268" lon="1.8005">
        <ele>924.59997558594</ele>
        <time>2019-06-27T18:31:06.000Z</time>
      </trkpt>
      <trkpt lat="43.93268" lon="1.8005">
        <ele>924.79998779297</ele>
        <time>2019-06-27T18:31:07.000Z</time>
      </trkpt>
      <trkpt lat="43.9327" lon="1.80048">
        <ele>925</ele>
        <time>2019-06-27T18:31:08.000Z</time>
      </trkpt>
      <trkpt lat="43.93272" lon="1.80046">
        <ele>925.20001220703</ele>
        <time>2019-06-27T18:31:09.000Z</time>
      </trkpt>
      <trkpt lat="43.93273" lon="1.80044">
        <ele>925.40002441406</ele>
        <time>2019-06-27T18:31:10.000Z</time>
      </trkpt>
      <trkpt lat="43.93274" lon="1.80043">
        <ele>925.40002441406</ele>
        <time>2019-06-27T18:31:11.000Z</time>
      </trkpt>
      <trkpt lat="43.93275" lon="1.80041">
        <ele>925.59997558594</ele>
        <time>2019-06-27T18:31:12.000Z</time>
      </trkpt>
      <trkpt lat="43.93277" lon="1.80041">
        <ele>925.59997558594</ele>
        <time>2019-06-27T18:31:13.000Z</time>
      </trkpt>
      <trkpt lat="43.93278" lon="1.80039">
        <ele>925.59997558594</ele>
        <time>2019-06-27T18:31:14.000Z</time>
      </trkpt>
      <trkpt lat="43.9328" lon="1.80038">
        <ele>925.59997558594</ele>
        <time>2019-06-27T18:31:15.000Z</time>
      </trkpt>
      <trkpt lat="43.93281" lon="1.80036">
        <ele>926</ele>
        <time>2019-06-27T18:31:16.000Z</time>
      </trkpt>
      <trkpt lat="43.93282" lon="1.80034">
        <ele>926</ele>
        <time>2019-06-27T18:31:17.000Z</time>
      </trkpt>
      <trkpt lat="43.93283" lon="1.80032">
        <ele>926.20001220703</ele>
        <time>2019-06-27T18:31:18.000Z</time>
      </trkpt>
      <trkpt lat="43.93285" lon="1.80031">
        <ele>926.40002441406</ele>
        <time>2019-06-27T18:31:19.000Z</time>
      </trkpt>
      <trkpt lat="43.93286" lon="1.80029">
        <ele>926.59997558594</ele>
        <time>2019-06-27T18:31:20.000Z</time>
      </trkpt>
      <trkpt lat="43.93287" lon="1.80028">
        <ele>926.59997558594</ele>
        <time>2019-06-27T18:31:21.000Z</time>
      </trkpt>
      <trkpt lat="43.93289" lon="1.80026">
        <ele>926.59997558594</ele>
        <time>2019-06-27T18:31:22.000Z</time>
      </trkpt>
      <trkpt lat="43.9329" lon="1.80024">
        <ele>926.59997558594</ele>
        <time>2019-06-27T18:31:23.000Z</time>
      </trkpt>
      <trkpt lat="43.93292" lon="1.80023">
        <ele>926.79998779297</ele>
        <time>2019-06-27T18:31:24.000Z</time>
      </trkpt>
      <trkpt lat="43.93293" lon="1.80021">
        <ele>926.79998779297</ele>
        <time>2019-06-27T18:31:25.000Z</time>
      </trkpt>
      <trkpt lat="43.93295" lon="1.80019">
        <ele>926.79998779297</ele>
        <time>2019-06-27T18:31:26.000Z</time>
      </trkpt>
      <trkpt lat="43.93297" lon="1.80017">
        <ele>926.79998779297</ele>
        <time>2019-06-27T18:31:27.000Z</time>
      </trkpt>
      <trkpt lat="43.93298" lon="1.80016">
        <ele>926.79998779297</ele>
        <time>2019-06-27T18:31:28.000Z</time>
      </trkpt>
      <trkpt lat="43.933" lon="1.80013">
        <ele>927</ele>
        <time>2019-06-27T18:31:29.000Z</time>
      </trkpt>
      <trkpt lat="43.93302" lon="1.80011">
        <ele>927</ele>
        <time>2019-06-27T18:31:30.000Z</time>
      </trkpt>
      <trkpt lat="43.93303" lon="1.80009">
        <ele>927.20001220703</ele>
        <time>2019-06-27T18:31:31.000Z</time>
      </trkpt>
      <trkpt lat="43.93304" lon="1.80007">
        <ele>927</ele>
        <time>2019-06-27T18:31:32.000Z</time>
      </trkpt>
      <trkpt lat="43.93305" lon="1.80005">
        <ele>927</ele>
        <time>2019-06-27T18:31:33.000Z</time>
      </trkpt>
      <trkpt lat="43.93306" lon="1.80001">
        <ele>927</ele>
        <time>2019-06-27T18:31:34.000Z</time>
      </trkpt>
      <trkpt lat="43.93307" lon="1.79997">
        <ele>927</ele>
        <time>2019-06-27T18:31:35.000Z</time>
      </trkpt>
      <trkpt lat="43.93308" lon="1.79994">
        <ele>927</ele>
        <time>2019-06-27T18:31:36.000Z</time>
      </trkpt>
      <trkpt lat="43.93309" lon="1.79992">
        <ele>927</ele>
        <time>2019-06-27T18:31:37.000Z</time>
      </trkpt>
      <trkpt lat="43.93309" lon="1.79989">
        <ele>926.79998779297</ele>
        <time>2019-06-27T18:31:38.000Z</time>
      </trkpt>
      <trkpt lat="43.93311" lon="1.79988">
        <ele>927</ele>
        <time>2019-06-27T18:31:39.000Z</time>
      </trkpt>
      <trkpt lat="43.93313" lon="1.79987">
        <ele>927.20001220703</ele>
        <time>2019-06-27T18:31:40.000Z</time>
      </trkpt>
      <trkpt lat="43.93315" lon="1.79986">
        <ele>927.40002441406</ele>
        <time>2019-06-27T18:31:41.000Z</time>
      </trkpt>
      <trkpt lat="43.93317" lon="1.79985">
        <ele>927.40002441406</ele>
        <time>2019-06-27T18:31:42.000Z</time>
      </trkpt>
      <trkpt lat="43.9332" lon="1.79984">
        <ele>927.59997558594</ele>
        <time>2019-06-27T18:31:43.000Z</time>
      </trkpt>
      <trkpt lat="43.93323" lon="1.79983">
        <ele>927.59997558594</ele>
        <time>2019-06-27T18:31:44.000Z</time>
      </trkpt>
      <trkpt lat="43.93327" lon="1.79983">
        <ele>927.59997558594</ele>
        <time>2019-06-27T18:31:45.000Z</time>
      </trkpt>
      <trkpt lat="43.93331" lon="1.79982">
        <ele>927.59997558594</ele>
        <time>2019-06-27T18:31:46.000Z</time>
      </trkpt>
      <trkpt lat="43.93334" lon="1.79979">
        <ele>927.79998779297</ele>
        <time>2019-06-27T18:31:47.000Z</time>
      </trkpt>
      <trkpt lat="43.93337" lon="1.79976">
        <ele>927.79998779297</ele>
        <time>2019-06-27T18:31:48.000Z</time>
      </trkpt>
      <trkpt lat="43.93339" lon="1.79973">
        <ele>927.79998779297</ele>
        <time>2019-06-27T18:31:49.000Z</time>
      </trkpt>
      <trkpt lat="43.93342" lon="1.7997">
        <ele>928</ele>
        <time>2019-06-27T18:31:50.000Z</time>
      </trkpt>
      <trkpt lat="43.93344" lon="1.79966">
        <ele>927.79998779297</ele>
        <time>2019-06-27T18:31:51.000Z</time>
      </trkpt>
      <trkpt lat="43.93346" lon="1.79962">
        <ele>928</ele>
        <time>2019-06-27T18:31:52.000Z</time>
      </trkpt>
      <trkpt lat="43.93348" lon="1.7996">
        <ele>928</ele>
        <time>2019-06-27T18:31:53.000Z</time>
      </trkpt>
      <trkpt lat="43.93351" lon="1.79957">
        <ele>928</ele>
        <time>2019-06-27T18:31:54.000Z</time>
      </trkpt>
      <trkpt lat="43.93354" lon="1.79954">
        <ele>928</ele>
        <time>2019-06-27T18:31:55.000Z</time>
      </trkpt>
      <trkpt lat="43.93357" lon="1.79952">
        <ele>928</ele>
        <time>2019-06-27T18:31:56.000Z</time>
      </trkpt>
      <trkpt lat="43.9336" lon="1.79949">
        <ele>927.79998779297</ele>
        <time>2019-06-27T18:31:57.000Z</time>
      </trkpt>
      <trkpt lat="43.93362" lon="1.79946">
        <ele>927.79998779297</ele>
        <time>2019-06-27T18:31:58.000Z</time>
      </trkpt>
      <trkpt lat="43.93364" lon="1.79943">
        <ele>927.79998779297</ele>
        <time>2019-06-27T18:31:59.000Z</time>
      </trkpt>
      <trkpt lat="43.93365" lon="1.79941">
        <ele>928</ele>
        <time>2019-06-27T18:32:00.000Z</time>
      </trkpt>
      <trkpt lat="43.93366" lon="1.79939">
        <ele>928</ele>
        <time>2019-06-27T18:32:01.000Z</time>
      </trkpt>
      <trkpt lat="43.93366" lon="1.7994">
        <ele>928.20001220703</ele>
        <time>2019-06-27T18:32:02.000Z</time>
      </trkpt>
      <trkpt lat="43.93367" lon="1.79936">
        <ele>928</ele>
        <time>2019-06-27T18:32:03.000Z</time>
      </trkpt>
      <trkpt lat="43.93368" lon="1.79934">
        <ele>928</ele>
        <time>2019-06-27T18:32:04.000Z</time>
      </trkpt>
      <trkpt lat="43.9337" lon="1.79932">
        <ele>928</ele>
        <time>2019-06-27T18:32:05.000Z</time>
      </trkpt>
      <trkpt lat="43.93371" lon="1.7993">
        <ele>928.20001220703</ele>
        <time>2019-06-27T18:32:06.000Z</time>
      </trkpt>
      <trkpt lat="43.93374" lon="1.79927">
        <ele>928.40002441406</ele>
        <time>2019-06-27T18:32:07.000Z</time>
      </trkpt>
      <trkpt lat="43.93376" lon="1.79923">
        <ele>928.79998779297</ele>
        <time>2019-06-27T18:32:08.000Z</time>
      </trkpt>
      <trkpt lat="43.93378" lon="1.7992">
        <ele>929</ele>
        <time>2019-06-27T18:32:09.000Z</time>
      </trkpt>
      <trkpt lat="43.9338" lon="1.79917">
        <ele>929.20001220703</ele>
        <time>2019-06-27T18:32:10.000Z</time>
      </trkpt>
      <trkpt lat="43.93382" lon="1.79914">
        <ele>929.40002441406</ele>
        <time>2019-06-27T18:32:11.000Z</time>
      </trkpt>
      <trkpt lat="43.93384" lon="1.7991">
        <ele>929.59997558594</ele>
        <time>2019-06-27T18:32:12.000Z</time>
      </trkpt>
      <trkpt lat="43.93386" lon="1.79908">
        <ele>930.20001220703</ele>
        <time>2019-06-27T18:32:13.000Z</time>
      </trkpt>
      <trkpt lat="43.93389" lon="1.79905">
        <ele>930.59997558594</ele>
        <time>2019-06-27T18:32:14.000Z</time>
      </trkpt>
      <trkpt lat="43.9339" lon="1.79903">
        <ele>930.59997558594</ele>
        <time>2019-06-27T18:32:15.000Z</time>
      </trkpt>
      <trkpt lat="43.93392" lon="1.799">
        <ele>930.79998779297</ele>
        <time>2019-06-27T18:32:16.000Z</time>
      </trkpt>
      <trkpt lat="43.93394" lon="1.79898">
        <ele>930.79998779297</ele>
        <time>2019-06-27T18:32:17.000Z</time>
      </trkpt>
      <trkpt lat="43.93395" lon="1.79895">
        <ele>931.20001220703</ele>
        <time>2019-06-27T18:32:18.000Z</time>
      </trkpt>
      <trkpt lat="43.93397" lon="1.79893">
        <ele>931.40002441406</ele>
        <time>2019-06-27T18:32:19.000Z</time>
      </trkpt>
      <trkpt lat="43.93399" lon="1.79891">
        <ele>931.59997558594</ele>
        <time>2019-06-27T18:32:20.000Z</time>
      </trkpt>
      <trkpt lat="43.93403" lon="1.7989">
        <ele>931.59997558594</ele>
        <time>2019-06-27T18:32:21.000Z</time>
      </trkpt>
      <trkpt lat="43.93405" lon="1.79887">
        <ele>931.59997558594</ele>
        <time>2019-06-27T18:32:22.000Z</time>
      </trkpt>
      <trkpt lat="43.93408" lon="1.79885">
        <ele>931.79998779297</ele>
        <time>2019-06-27T18:32:23.000Z</time>
      </trkpt>
      <trkpt lat="43.9341" lon="1.79882">
        <ele>931.79998779297</ele>
        <time>2019-06-27T18:32:24.000Z</time>
      </trkpt>
      <trkpt lat="43.93412" lon="1.79879">
        <ele>932</ele>
        <time>2019-06-27T18:32:25.000Z</time>
      </trkpt>
      <trkpt lat="43.93415" lon="1.79876">
        <ele>932</ele>
        <time>2019-06-27T18:32:26.000Z</time>
      </trkpt>
      <trkpt lat="43.93416" lon="1.79874">
        <ele>932.20001220703</ele>
        <time>2019-06-27T18:32:27.000Z</time>
      </trkpt>
      <trkpt lat="43.93419" lon="1.79872">
        <ele>932.40002441406</ele>
        <time>2019-06-27T18:32:28.000Z</time>
      </trkpt>
      <trkpt lat="43.93421" lon="1.79871">
        <ele>932.40002441406</ele>
        <time>2019-06-27T18:32:29.000Z</time>
      </trkpt>
      <trkpt lat="43.93423" lon="1.79869">
        <ele>932.59997558594</ele>
        <time>2019-06-27T18:32:30.000Z</time>
      </trkpt>
      <trkpt lat="43.93426" lon="1.79866">
        <ele>932.59997558594</ele>
        <time>2019-06-27T18:32:31.000Z</time>
      </trkpt>
      <trkpt lat="43.93428" lon="1.79864">
        <ele>932.79998779297</ele>
        <time>2019-06-27T18:32:32.000Z</time>
      </trkpt>
      <trkpt lat="43.9343" lon="1.79861">
        <ele>932.79998779297</ele>
        <time>2019-06-27T18:32:33.000Z</time>
      </trkpt>
      <trkpt lat="43.93432" lon="1.79858">
        <ele>932.79998779297</ele>
        <time>2019-06-27T18:32:34.000Z</time>
      </trkpt>
      <trkpt lat="43.93434" lon="1.79856">
        <ele>933</ele>
        <time>2019-06-27T18:32:35.000Z</time>
      </trkpt>
      <trkpt lat="43.93435" lon="1.79852">
        <ele>933</ele>
        <time>2019-06-27T18:32:36.000Z</time>
      </trkpt>
      <trkpt lat="43.93437" lon="1.79848">
        <ele>933.20001220703</ele>
        <time>2019-06-27T18:32:37.000Z</time>
      </trkpt>
      <trkpt lat="43.93438" lon="1.79844">
        <ele>933.40002441406</ele>
        <time>2019-06-27T18:32:38.000Z</time>
      </trkpt>
      <trkpt lat="43.93439" lon="1.79841">
        <ele>933.59997558594</ele>
        <time>2019-06-27T18:32:39.000Z</time>
      </trkpt>
      <trkpt lat="43.9344" lon="1.79838">
        <ele>933.59997558594</ele>
        <time>2019-06-27T18:32:40.000Z</time>
      </trkpt>
      <trkpt lat="43.93442" lon="1.79835">
        <ele>933.59997558594</ele>
        <time>2019-06-27T18:32:41.000Z</time>
      </trkpt>
      <trkpt lat="43.93443" lon="1.79833">
        <ele>933.59997558594</ele>
        <time>2019-06-27T18:32:42.000Z</time>
      </trkpt>
      <trkpt lat="43.93445" lon="1.7983">
        <ele>933.79998779297</ele>
        <time>2019-06-27T18:32:43.000Z</time>
      </trkpt>
      <trkpt lat="43.93446" lon="1.79828">
        <ele>934</ele>
        <time>2019-06-27T18:32:44.000Z</time>
      </trkpt>
      <trkpt lat="43.93448" lon="1.79826">
        <ele>934.20001220703</ele>
        <time>2019-06-27T18:32:45.000Z</time>
      </trkpt>
      <trkpt lat="43.93451" lon="1.79825">
        <ele>934.20001220703</ele>
        <time>2019-06-27T18:32:46.000Z</time>
      </trkpt>
      <trkpt lat="43.93453" lon="1.79822">
        <ele>934.20001220703</ele>
        <time>2019-06-27T18:32:47.000Z</time>
      </trkpt>
      <trkpt lat="43.93455" lon="1.7982">
        <ele>934.40002441406</ele>
        <time>2019-06-27T18:32:48.000Z</time>
      </trkpt>
      <trkpt lat="43.93456" lon="1.79817">
        <ele>934.40002441406</ele>
        <time>2019-06-27T18:32:49.000Z</time>
      </trkpt>
      <trkpt lat="43.93458" lon="1.79814">
        <ele>934.59997558594</ele>
        <time>2019-06-27T18:32:50.000Z</time>
      </trkpt>
      <trkpt lat="43.9346" lon="1.79811">
        <ele>934.59997558594</ele>
        <time>2019-06-27T18:32:51.000Z</time>
      </trkpt>
      <trkpt lat="43.93462" lon="1.79808">
        <ele>934.59997558594</ele>
        <time>2019-06-27T18:32:52.000Z</time>
      </trkpt>
      <trkpt lat="43.93464" lon="1.79805">
        <ele>934.79998779297</ele>
        <time>2019-06-27T18:32:53.000Z</time>
      </trkpt>
      <trkpt lat="43.93466" lon="1.79802">
        <ele>934.59997558594</ele>
        <time>2019-06-27T18:32:54.000Z</time>
      </trkpt>
      <trkpt lat="43.93469" lon="1.798">
        <ele>934.59997558594</ele>
        <time>2019-06-27T18:32:55.000Z</time>
      </trkpt>
      <trkpt lat="43.93471" lon="1.79798">
        <ele>934.59997558594</ele>
        <time>2019-06-27T18:32:56.000Z</time>
      </trkpt>
      <trkpt lat="43.93473" lon="1.79796">
        <ele>934.59997558594</ele>
        <time>2019-06-27T18:32:57.000Z</time>
      </trkpt>
      <trkpt lat="43.93475" lon="1.79793">
        <ele>934.40002441406</ele>
        <time>2019-06-27T18:32:58.000Z</time>
      </trkpt>
      <trkpt lat="43.93477" lon="1.79791">
        <ele>934.40002441406</ele>
        <time>2019-06-27T18:32:59.000Z</time>
      </trkpt>
      <trkpt lat="43.93479" lon="1.79789">
        <ele>934.20001220703</ele>
        <time>2019-06-27T18:33:00.000Z</time>
      </trkpt>
      <trkpt lat="43.93481" lon="1.79787">
        <ele>934</ele>
        <time>2019-06-27T18:33:01.000Z</time>
      </trkpt>
      <trkpt lat="43.93482" lon="1.79785">
        <ele>934</ele>
        <time>2019-06-27T18:33:02.000Z</time>
      </trkpt>
      <trkpt lat="43.93484" lon="1.79784">
        <ele>934</ele>
        <time>2019-06-27T18:33:03.000Z</time>
      </trkpt>
      <trkpt lat="43.93485" lon="1.79783">
        <ele>934</ele>
        <time>2019-06-27T18:33:04.000Z</time>
      </trkpt>
      <trkpt lat="43.93484" lon="1.79783">
        <ele>934</ele>
        <time>2019-06-27T18:33:05.000Z</time>
      </trkpt>
      <trkpt lat="43.93486" lon="1.79781">
        <ele>934</ele>
        <time>2019-06-27T18:33:06.000Z</time>
      </trkpt>
      <trkpt lat="43.93488" lon="1.7978">
        <ele>934</ele>
        <time>2019-06-27T18:33:07.000Z</time>
      </trkpt>
      <trkpt lat="43.9349" lon="1.79779">
        <ele>934</ele>
        <time>2019-06-27T18:33:08.000Z</time>
      </trkpt>
      <trkpt lat="43.93492" lon="1.79778">
        <ele>934</ele>
        <time>2019-06-27T18:33:09.000Z</time>
      </trkpt>
      <trkpt lat="43.93493" lon="1.79777">
        <ele>934.20001220703</ele>
        <time>2019-06-27T18:33:10.000Z</time>
      </trkpt>
      <trkpt lat="43.93495" lon="1.79776">
        <ele>934</ele>
        <time>2019-06-27T18:33:11.000Z</time>
      </trkpt>
      <trkpt lat="43.93494" lon="1.79776">
        <ele>934</ele>
        <time>2019-06-27T18:33:12.000Z</time>
      </trkpt>
      <trkpt lat="43.93497" lon="1.79774">
        <ele>933.79998779297</ele>
        <time>2019-06-27T18:33:13.000Z</time>
      </trkpt>
      <trkpt lat="43.93499" lon="1.79772">
        <ele>933.79998779297</ele>
        <time>2019-06-27T18:33:14.000Z</time>
      </trkpt>
      <trkpt lat="43.935" lon="1.79771">
        <ele>933.79998779297</ele>
        <time>2019-06-27T18:33:15.000Z</time>
      </trkpt>
      <trkpt lat="43.935" lon="1.79772">
        <ele>934</ele>
        <time>2019-06-27T18:33:16.000Z</time>
      </trkpt>
      <trkpt lat="43.93504" lon="1.79769">
        <ele>934</ele>
        <time>2019-06-27T18:33:17.000Z</time>
      </trkpt>
      <trkpt lat="43.93505" lon="1.79768">
        <ele>934</ele>
        <time>2019-06-27T18:33:18.000Z</time>
      </trkpt>
      <trkpt lat="43.93507" lon="1.79767">
        <ele>934.20001220703</ele>
        <time>2019-06-27T18:33:19.000Z</time>
      </trkpt>
      <trkpt lat="43.93508" lon="1.79766">
        <ele>934</ele>
        <time>2019-06-27T18:33:20.000Z</time>
      </trkpt>
      <trkpt lat="43.9351" lon="1.79764">
        <ele>934.20001220703</ele>
        <time>2019-06-27T18:33:21.000Z</time>
      </trkpt>
      <trkpt lat="43.93511" lon="1.79763">
        <ele>934.20001220703</ele>
        <time>2019-06-27T18:33:22.000Z</time>
      </trkpt>
      <trkpt lat="43.93513" lon="1.79762">
        <ele>934.20001220703</ele>
        <time>2019-06-27T18:33:23.000Z</time>
      </trkpt>
      <trkpt lat="43.93514" lon="1.79761">
        <ele>934.20001220703</ele>
        <time>2019-06-27T18:33:24.000Z</time>
      </trkpt>
      <trkpt lat="43.93516" lon="1.7976">
        <ele>934.20001220703</ele>
        <time>2019-06-27T18:33:25.000Z</time>
      </trkpt>
      <trkpt lat="43.93518" lon="1.79759">
        <ele>934.40002441406</ele>
        <time>2019-06-27T18:33:26.000Z</time>
      </trkpt>
      <trkpt lat="43.9352" lon="1.79757">
        <ele>934.40002441406</ele>
        <time>2019-06-27T18:33:27.000Z</time>
      </trkpt>
      <trkpt lat="43.93521" lon="1.79756">
        <ele>934.40002441406</ele>
        <time>2019-06-27T18:33:28.000Z</time>
      </trkpt>
      <trkpt lat="43.93523" lon="1.79754">
        <ele>934.40002441406</ele>
        <time>2019-06-27T18:33:29.000Z</time>
      </trkpt>
      <trkpt lat="43.93524" lon="1.79753">
        <ele>934.40002441406</ele>
        <time>2019-06-27T18:33:30.000Z</time>
      </trkpt>
      <trkpt lat="43.93526" lon="1.7975">
        <ele>934.40002441406</ele>
        <time>2019-06-27T18:33:31.000Z</time>
      </trkpt>
      <trkpt lat="43.93528" lon="1.79748">
        <ele>934.59997558594</ele>
        <time>2019-06-27T18:33:32.000Z</time>
      </trkpt>
      <trkpt lat="43.9353" lon="1.79747">
        <ele>934.59997558594</ele>
        <time>2019-06-27T18:33:33.000Z</time>
      </trkpt>
      <trkpt lat="43.93531" lon="1.79745">
        <ele>934.59997558594</ele>
        <time>2019-06-27T18:33:34.000Z</time>
      </trkpt>
      <trkpt lat="43.93533" lon="1.79743">
        <ele>934.59997558594</ele>
        <time>2019-06-27T18:33:35.000Z</time>
      </trkpt>
      <trkpt lat="43.93535" lon="1.79741">
        <ele>934.59997558594</ele>
        <time>2019-06-27T18:33:36.000Z</time>
      </trkpt>
      <trkpt lat="43.93538" lon="1.79739">
        <ele>934.59997558594</ele>
        <time>2019-06-27T18:33:37.000Z</time>
      </trkpt>
      <trkpt lat="43.93541" lon="1.79738">
        <ele>934.79998779297</ele>
        <time>2019-06-27T18:33:38.000Z</time>
      </trkpt>
      <trkpt lat="43.93544" lon="1.79736">
        <ele>934.79998779297</ele>
        <time>2019-06-27T18:33:39.000Z</time>
      </trkpt>
      <trkpt lat="43.93546" lon="1.79735">
        <ele>935.20001220703</ele>
        <time>2019-06-27T18:33:40.000Z</time>
      </trkpt>
      <trkpt lat="43.93549" lon="1.79733">
        <ele>935</ele>
        <time>2019-06-27T18:33:41.000Z</time>
      </trkpt>
      <trkpt lat="43.93551" lon="1.79731">
        <ele>935.20001220703</ele>
        <time>2019-06-27T18:33:42.000Z</time>
      </trkpt>
      <trkpt lat="43.93554" lon="1.79729">
        <ele>935.20001220703</ele>
        <time>2019-06-27T18:33:43.000Z</time>
      </trkpt>
      <trkpt lat="43.93556" lon="1.79726">
        <ele>935.20001220703</ele>
        <time>2019-06-27T18:33:44.000Z</time>
      </trkpt>
      <trkpt lat="43.93559" lon="1.79724">
        <ele>935.40002441406</ele>
        <time>2019-06-27T18:33:45.000Z</time>
      </trkpt>
      <trkpt lat="43.93561" lon="1.79723">
        <ele>935.40002441406</ele>
        <time>2019-06-27T18:33:46.000Z</time>
      </trkpt>
      <trkpt lat="43.93563" lon="1.79721">
        <ele>935.59997558594</ele>
        <time>2019-06-27T18:33:47.000Z</time>
      </trkpt>
      <trkpt lat="43.93565" lon="1.79719">
        <ele>935.59997558594</ele>
        <time>2019-06-27T18:33:48.000Z</time>
      </trkpt>
      <trkpt lat="43.93567" lon="1.79718">
        <ele>935.79998779297</ele>
        <time>2019-06-27T18:33:49.000Z</time>
      </trkpt>
      <trkpt lat="43.9357" lon="1.79717">
        <ele>935.79998779297</ele>
        <time>2019-06-27T18:33:50.000Z</time>
      </trkpt>
      <trkpt lat="43.93572" lon="1.79715">
        <ele>935.79998779297</ele>
        <time>2019-06-27T18:33:51.000Z</time>
      </trkpt>
      <trkpt lat="43.93575" lon="1.79713">
        <ele>935.79998779297</ele>
        <time>2019-06-27T18:33:52.000Z</time>
      </trkpt>
      <trkpt lat="43.93577" lon="1.79711">
        <ele>935.79998779297</ele>
        <time>2019-06-27T18:33:53.000Z</time>
      </trkpt>
      <trkpt lat="43.93579" lon="1.7971">
        <ele>935.79998779297</ele>
        <time>2019-06-27T18:33:54.000Z</time>
      </trkpt>
      <trkpt lat="43.93581" lon="1.79708">
        <ele>936</ele>
        <time>2019-06-27T18:33:55.000Z</time>
      </trkpt>
      <trkpt lat="43.93583" lon="1.79705">
        <ele>936.20001220703</ele>
        <time>2019-06-27T18:33:56.000Z</time>
      </trkpt>
      <trkpt lat="43.93585" lon="1.79703">
        <ele>936.20001220703</ele>
        <time>2019-06-27T18:33:57.000Z</time>
      </trkpt>
      <trkpt lat="43.93587" lon="1.79701">
        <ele>936.20001220703</ele>
        <time>2019-06-27T18:33:58.000Z</time>
      </trkpt>
      <trkpt lat="43.93589" lon="1.79698">
        <ele>936.40002441406</ele>
        <time>2019-06-27T18:33:59.000Z</time>
      </trkpt>
      <trkpt lat="43.93591" lon="1.79696">
        <ele>936.20001220703</ele>
        <time>2019-06-27T18:34:00.000Z</time>
      </trkpt>
      <trkpt lat="43.93594" lon="1.79693">
        <ele>936</ele>
        <time>2019-06-27T18:34:01.000Z</time>
      </trkpt>
      <trkpt lat="43.93597" lon="1.7969">
        <ele>936</ele>
        <time>2019-06-27T18:34:02.000Z</time>
      </trkpt>
      <trkpt lat="43.936" lon="1.79688">
        <ele>936</ele>
        <time>2019-06-27T18:34:03.000Z</time>
      </trkpt>
      <trkpt lat="43.93603" lon="1.79685">
        <ele>935.79998779297</ele>
        <time>2019-06-27T18:34:04.000Z</time>
      </trkpt>
      <trkpt lat="43.93606" lon="1.79681">
        <ele>935.79998779297</ele>
        <time>2019-06-27T18:34:05.000Z</time>
      </trkpt>
      <trkpt lat="43.93607" lon="1.79677">
        <ele>935.59997558594</ele>
        <time>2019-06-27T18:34:06.000Z</time>
      </trkpt>
      <trkpt lat="43.93609" lon="1.79673">
        <ele>935.79998779297</ele>
        <time>2019-06-27T18:34:07.000Z</time>
      </trkpt>
      <trkpt lat="43.93611" lon="1.79669">
        <ele>935.59997558594</ele>
        <time>2019-06-27T18:34:08.000Z</time>
      </trkpt>
      <trkpt lat="43.93613" lon="1.79666">
        <ele>935.40002441406</ele>
        <time>2019-06-27T18:34:09.000Z</time>
      </trkpt>
      <trkpt lat="43.93615" lon="1.79665">
        <ele>935</ele>
        <time>2019-06-27T18:34:10.000Z</time>
      </trkpt>
      <trkpt lat="43.93617" lon="1.79665">
        <ele>934.79998779297</ele>
        <time>2019-06-27T18:34:11.000Z</time>
      </trkpt>
      <trkpt lat="43.93619" lon="1.79665">
        <ele>934.79998779297</ele>
        <time>2019-06-27T18:34:12.000Z</time>
      </trkpt>
      <trkpt lat="43.9362" lon="1.79664">
        <ele>934.79998779297</ele>
        <time>2019-06-27T18:34:13.000Z</time>
      </trkpt>
      <trkpt lat="43.93622" lon="1.79664">
        <ele>934.59997558594</ele>
        <time>2019-06-27T18:34:14.000Z</time>
      </trkpt>
      <trkpt lat="43.93623" lon="1.79663">
        <ele>934.59997558594</ele>
        <time>2019-06-27T18:34:15.000Z</time>
      </trkpt>
      <trkpt lat="43.93623" lon="1.79663">
        <ele>934.59997558594</ele>
        <time>2019-06-27T18:34:16.000Z</time>
      </trkpt>
      <trkpt lat="43.93625" lon="1.7966">
        <ele>934.40002441406</ele>
        <time>2019-06-27T18:34:17.000Z</time>
      </trkpt>
      <trkpt lat="43.93627" lon="1.79658">
        <ele>934.40002441406</ele>
        <time>2019-06-27T18:34:18.000Z</time>
      </trkpt>
      <trkpt lat="43.93628" lon="1.79657">
        <ele>934.40002441406</ele>
        <time>2019-06-27T18:34:19.000Z</time>
      </trkpt>
      <trkpt lat="43.9363" lon="1.79656">
        <ele>934.40002441406</ele>
        <time>2019-06-27T18:34:20.000Z</time>
      </trkpt>
      <trkpt lat="43.93631" lon="1.79653">
        <ele>934.40002441406</ele>
        <time>2019-06-27T18:34:21.000Z</time>
      </trkpt>
      <trkpt lat="43.93632" lon="1.79649">
        <ele>934.40002441406</ele>
        <time>2019-06-27T18:34:22.000Z</time>
      </trkpt>
      <trkpt lat="43.93634" lon="1.79648">
        <ele>934.20001220703</ele>
        <time>2019-06-27T18:34:23.000Z</time>
      </trkpt>
      <trkpt lat="43.93635" lon="1.79647">
        <ele>934</ele>
        <time>2019-06-27T18:34:24.000Z</time>
      </trkpt>
      <trkpt lat="43.93636" lon="1.79646">
        <ele>934</ele>
        <time>2019-06-27T18:34:25.000Z</time>
      </trkpt>
      <trkpt lat="43.93638" lon="1.79646">
        <ele>934.20001220703</ele>
        <time>2019-06-27T18:34:26.000Z</time>
      </trkpt>
      <trkpt lat="43.93639" lon="1.79645">
        <ele>934.59997558594</ele>
        <time>2019-06-27T18:34:27.000Z</time>
      </trkpt>
      <trkpt lat="43.9364" lon="1.79644">
        <ele>934.59997558594</ele>
        <time>2019-06-27T18:34:28.000Z</time>
      </trkpt>
      <trkpt lat="43.93642" lon="1.79644">
        <ele>934.79998779297</ele>
        <time>2019-06-27T18:34:29.000Z</time>
      </trkpt>
      <trkpt lat="43.93641" lon="1.79644">
        <ele>935</ele>
        <time>2019-06-27T18:34:30.000Z</time>
      </trkpt>
      <trkpt lat="43.93644" lon="1.79643">
        <ele>935.20001220703</ele>
        <time>2019-06-27T18:34:31.000Z</time>
      </trkpt>
      <trkpt lat="43.93646" lon="1.79643">
        <ele>935.40002441406</ele>
        <time>2019-06-27T18:34:32.000Z</time>
      </trkpt>
      <trkpt lat="43.93648" lon="1.79643">
        <ele>935.59997558594</ele>
        <time>2019-06-27T18:34:33.000Z</time>
      </trkpt>
      <trkpt lat="43.93649" lon="1.79642">
        <ele>935.79998779297</ele>
        <time>2019-06-27T18:34:34.000Z</time>
      </trkpt>
      <trkpt lat="43.93651" lon="1.7964">
        <ele>936</ele>
        <time>2019-06-27T18:34:35.000Z</time>
      </trkpt>
      <trkpt lat="43.93652" lon="1.79639">
        <ele>936</ele>
        <time>2019-06-27T18:34:36.000Z</time>
      </trkpt>
      <trkpt lat="43.93651" lon="1.7964">
        <ele>936.40002441406</ele>
        <time>2019-06-27T18:34:37.000Z</time>
      </trkpt>
      <trkpt lat="43.93655" lon="1.79637">
        <ele>936.40002441406</ele>
        <time>2019-06-27T18:34:38.000Z</time>
      </trkpt>
      <trkpt lat="43.93654" lon="1.79638">
        <ele>936.40002441406</ele>
        <time>2019-06-27T18:34:39.000Z</time>
      </trkpt>
      <trkpt lat="43.93657" lon="1.79637">
        <ele>936.59997558594</ele>
        <time>2019-06-27T18:34:40.000Z</time>
      </trkpt>
      <trkpt lat="43.93657" lon="1.79637">
        <ele>937</ele>
        <time>2019-06-27T18:34:41.000Z</time>
      </trkpt>
      <trkpt lat="43.93658" lon="1.79637">
        <ele>937.20001220703</ele>
        <time>2019-06-27T18:34:42.000Z</time>
      </trkpt>
      <trkpt lat="43.93658" lon="1.79637">
        <ele>937.20001220703</ele>
        <time>2019-06-27T18:34:43.000Z</time>
      </trkpt>
      <trkpt lat="43.93658" lon="1.79637">
        <ele>936.79998779297</ele>
        <time>2019-06-27T18:34:44.000Z</time>
      </trkpt>
      <trkpt lat="43.93659" lon="1.79637">
        <ele>936.79998779297</ele>
        <time>2019-06-27T18:34:45.000Z</time>
      </trkpt>
      <trkpt lat="43.9366" lon="1.79634">
        <ele>936.79998779297</ele>
        <time>2019-06-27T18:34:46.000Z</time>
      </trkpt>
      <trkpt lat="43.9366" lon="1.79635">
        <ele>937</ele>
        <time>2019-06-27T18:34:47.000Z</time>
      </trkpt>
      <trkpt lat="43.93661" lon="1.79633">
        <ele>937</ele>
        <time>2019-06-27T18:34:48.000Z</time>
      </trkpt>
      <trkpt lat="43.93662" lon="1.79631">
        <ele>937.20001220703</ele>
        <time>2019-06-27T18:34:49.000Z</time>
      </trkpt>
      <trkpt lat="43.93662" lon="1.79629">
        <ele>937.40002441406</ele>
        <time>2019-06-27T18:34:50.000Z</time>
      </trkpt>
      <trkpt lat="43.93662" lon="1.7963">
        <ele>937.40002441406</ele>
        <time>2019-06-27T18:34:51.000Z</time>
      </trkpt>
      <trkpt lat="43.93663" lon="1.79627">
        <ele>937.40002441406</ele>
        <time>2019-06-27T18:34:52.000Z</time>
      </trkpt>
      <trkpt lat="43.93663" lon="1.79627">
        <ele>937.40002441406</ele>
        <time>2019-06-27T18:34:53.000Z</time>
      </trkpt>
      <trkpt lat="43.93664" lon="1.79625">
        <ele>937.20001220703</ele>
        <time>2019-06-27T18:34:54.000Z</time>
      </trkpt>
      <trkpt lat="43.93665" lon="1.79623">
        <ele>937.20001220703</ele>
        <time>2019-06-27T18:34:55.000Z</time>
      </trkpt>
      <trkpt lat="43.93664" lon="1.79624">
        <ele>937.20001220703</ele>
        <time>2019-06-27T18:34:56.000Z</time>
      </trkpt>
      <trkpt lat="43.93666" lon="1.79622">
        <ele>937.20001220703</ele>
        <time>2019-06-27T18:34:57.000Z</time>
      </trkpt>
      <trkpt lat="43.93666" lon="1.79619">
        <ele>937.20001220703</ele>
        <time>2019-06-27T18:34:58.000Z</time>
      </trkpt>
      <trkpt lat="43.93666" lon="1.7962">
        <ele>937.40002441406</ele>
        <time>2019-06-27T18:34:59.000Z</time>
      </trkpt>
      <trkpt lat="43.93667" lon="1.79618">
        <ele>937.40002441406</ele>
        <time>2019-06-27T18:35:00.000Z</time>
      </trkpt>
      <trkpt lat="43.93668" lon="1.79616">
        <ele>937.59997558594</ele>
        <time>2019-06-27T18:35:01.000Z</time>
      </trkpt>
      <trkpt lat="43.93667" lon="1.79617">
        <ele>937.59997558594</ele>
        <time>2019-06-27T18:35:02.000Z</time>
      </trkpt>
      <trkpt lat="43.93669" lon="1.79614">
        <ele>938</ele>
        <time>2019-06-27T18:35:03.000Z</time>
      </trkpt>
      <trkpt lat="43.93669" lon="1.79612">
        <ele>938.20001220703</ele>
        <time>2019-06-27T18:35:04.000Z</time>
      </trkpt>
      <trkpt lat="43.93669" lon="1.79609">
        <ele>938.40002441406</ele>
        <time>2019-06-27T18:35:05.000Z</time>
      </trkpt>
      <trkpt lat="43.93669" lon="1.79606">
        <ele>938.40002441406</ele>
        <time>2019-06-27T18:35:06.000Z</time>
      </trkpt>
      <trkpt lat="43.93669" lon="1.79603">
        <ele>938.40002441406</ele>
        <time>2019-06-27T18:35:07.000Z</time>
      </trkpt>
      <trkpt lat="43.9367" lon="1.79601">
        <ele>938.40002441406</ele>
        <time>2019-06-27T18:35:08.000Z</time>
      </trkpt>
      <trkpt lat="43.93671" lon="1.796">
        <ele>938.40002441406</ele>
        <time>2019-06-27T18:35:09.000Z</time>
      </trkpt>
      <trkpt lat="43.93672" lon="1.79597">
        <ele>938.40002441406</ele>
        <time>2019-06-27T18:35:10.000Z</time>
      </trkpt>
      <trkpt lat="43.93673" lon="1.79596">
        <ele>938.40002441406</ele>
        <time>2019-06-27T18:35:11.000Z</time>
      </trkpt>
      <trkpt lat="43.93674" lon="1.79596">
        <ele>938.59997558594</ele>
        <time>2019-06-27T18:35:12.000Z</time>
      </trkpt>
      <trkpt lat="43.93675" lon="1.79594">
        <ele>938.59997558594</ele>
        <time>2019-06-27T18:35:13.000Z</time>
      </trkpt>
      <trkpt lat="43.93676" lon="1.79593">
        <ele>938.79998779297</ele>
        <time>2019-06-27T18:35:14.000Z</time>
      </trkpt>
      <trkpt lat="43.93677" lon="1.79592">
        <ele>939</ele>
        <time>2019-06-27T18:35:15.000Z</time>
      </trkpt>
      <trkpt lat="43.93678" lon="1.79591">
        <ele>939</ele>
        <time>2019-06-27T18:35:16.000Z</time>
      </trkpt>
      <trkpt lat="43.93677" lon="1.79592">
        <ele>939.20001220703</ele>
        <time>2019-06-27T18:35:17.000Z</time>
      </trkpt>
      <trkpt lat="43.93678" lon="1.79587">
        <ele>939</ele>
        <time>2019-06-27T18:35:18.000Z</time>
      </trkpt>
      <trkpt lat="43.93679" lon="1.79585">
        <ele>939</ele>
        <time>2019-06-27T18:35:19.000Z</time>
      </trkpt>
      <trkpt lat="43.9368" lon="1.79584">
        <ele>939</ele>
        <time>2019-06-27T18:35:20.000Z</time>
      </trkpt>
      <trkpt lat="43.93681" lon="1.79582">
        <ele>939.20001220703</ele>
        <time>2019-06-27T18:35:21.000Z</time>
      </trkpt>
      <trkpt lat="43.93682" lon="1.7958">
        <ele>939.20001220703</ele>
        <time>2019-06-27T18:35:22.000Z</time>
      </trkpt>
      <trkpt lat="43.93682" lon="1.79579">
        <ele>939.20001220703</ele>
        <time>2019-06-27T18:35:23.000Z</time>
      </trkpt>
      <trkpt lat="43.93683" lon="1.79578">
        <ele>939.20001220703</ele>
        <time>2019-06-27T18:35:24.000Z</time>
      </trkpt>
      <trkpt lat="43.93682" lon="1.79579">
        <ele>939.20001220703</ele>
        <time>2019-06-27T18:35:25.000Z</time>
      </trkpt>
      <trkpt lat="43.93685" lon="1.79575">
        <ele>939.40002441406</ele>
        <time>2019-06-27T18:35:26.000Z</time>
      </trkpt>
      <trkpt lat="43.93686" lon="1.79574">
        <ele>939.59997558594</ele>
        <time>2019-06-27T18:35:27.000Z</time>
      </trkpt>
      <trkpt lat="43.93687" lon="1.79572">
        <ele>939.59997558594</ele>
        <time>2019-06-27T18:35:28.000Z</time>
      </trkpt>
      <trkpt lat="43.93689" lon="1.7957">
        <ele>939.59997558594</ele>
        <time>2019-06-27T18:35:29.000Z</time>
      </trkpt>
      <trkpt lat="43.9369" lon="1.79569">
        <ele>939.59997558594</ele>
        <time>2019-06-27T18:35:30.000Z</time>
      </trkpt>
      <trkpt lat="43.93691" lon="1.79568">
        <ele>939.79998779297</ele>
        <time>2019-06-27T18:35:31.000Z</time>
      </trkpt>
      <trkpt lat="43.93692" lon="1.79566">
        <ele>939.79998779297</ele>
        <time>2019-06-27T18:35:32.000Z</time>
      </trkpt>
      <trkpt lat="43.93694" lon="1.79564">
        <ele>940</ele>
        <time>2019-06-27T18:35:33.000Z</time>
      </trkpt>
      <trkpt lat="43.93695" lon="1.79562">
        <ele>940</ele>
        <time>2019-06-27T18:35:34.000Z</time>
      </trkpt>
      <trkpt lat="43.93694" lon="1.79563">
        <ele>940</ele>
        <time>2019-06-27T18:35:35.000Z</time>
      </trkpt>
      <trkpt lat="43.93698" lon="1.7956">
        <ele>940.20001220703</ele>
        <time>2019-06-27T18:35:36.000Z</time>
      </trkpt>
      <trkpt lat="43.937" lon="1.79558">
        <ele>940.20001220703</ele>
        <time>2019-06-27T18:35:37.000Z</time>
      </trkpt>
      <trkpt lat="43.93699" lon="1.79559">
        <ele>940.20001220703</ele>
        <time>2019-06-27T18:35:38.000Z</time>
      </trkpt>
      <trkpt lat="43.93702" lon="1.79555">
        <ele>940.20001220703</ele>
        <time>2019-06-27T18:35:39.000Z</time>
      </trkpt>
      <trkpt lat="43.93704" lon="1.79552">
        <ele>940.40002441406</ele>
        <time>2019-06-27T18:35:40.000Z</time>
      </trkpt>
      <trkpt lat="43.93705" lon="1.79552">
        <ele>940.40002441406</ele>
        <time>2019-06-27T18:35:41.000Z</time>
      </trkpt>
      <trkpt lat="43.93707" lon="1.7955">
        <ele>940.40002441406</ele>
        <time>2019-06-27T18:35:42.000Z</time>
      </trkpt>
      <trkpt lat="43.93708" lon="1.79549">
        <ele>940.40002441406</ele>
        <time>2019-06-27T18:35:43.000Z</time>
      </trkpt>
      <trkpt lat="43.93709" lon="1.79547">
        <ele>940.20001220703</ele>
        <time>2019-06-27T18:35:44.000Z</time>
      </trkpt>
      <trkpt lat="43.9371" lon="1.79544">
        <ele>940</ele>
        <time>2019-06-27T18:35:45.000Z</time>
      </trkpt>
      <trkpt lat="43.93712" lon="1.79542">
        <ele>940</ele>
        <time>2019-06-27T18:35:46.000Z</time>
      </trkpt>
      <trkpt lat="43.93713" lon="1.79541">
        <ele>940.40002441406</ele>
        <time>2019-06-27T18:35:47.000Z</time>
      </trkpt>
      <trkpt lat="43.93715" lon="1.7954">
        <ele>940.40002441406</ele>
        <time>2019-06-27T18:35:48.000Z</time>
      </trkpt>
      <trkpt lat="43.93716" lon="1.79539">
        <ele>940.40002441406</ele>
        <time>2019-06-27T18:35:49.000Z</time>
      </trkpt>
      <trkpt lat="43.93717" lon="1.79538">
        <ele>940.59997558594</ele>
        <time>2019-06-27T18:35:50.000Z</time>
      </trkpt>
      <trkpt lat="43.93717" lon="1.79538">
        <ele>940.59997558594</ele>
        <time>2019-06-27T18:35:51.000Z</time>
      </trkpt>
      <trkpt lat="43.93721" lon="1.79534">
        <ele>940.40002441406</ele>
        <time>2019-06-27T18:35:52.000Z</time>
      </trkpt>
      <trkpt lat="43.93723" lon="1.79533">
        <ele>940.40002441406</ele>
        <time>2019-06-27T18:35:53.000Z</time>
      </trkpt>
      <trkpt lat="43.93722" lon="1.79534">
        <ele>940.40002441406</ele>
        <time>2019-06-27T18:35:54.000Z</time>
      </trkpt>
      <trkpt lat="43.93725" lon="1.79532">
        <ele>940.20001220703</ele>
        <time>2019-06-27T18:35:55.000Z</time>
      </trkpt>
      <trkpt lat="43.93727" lon="1.79531">
        <ele>940.20001220703</ele>
        <time>2019-06-27T18:35:56.000Z</time>
      </trkpt>
      <trkpt lat="43.93728" lon="1.79531">
        <ele>940.20001220703</ele>
        <time>2019-06-27T18:35:57.000Z</time>
      </trkpt>
      <trkpt lat="43.9373" lon="1.79529">
        <ele>940.40002441406</ele>
        <time>2019-06-27T18:35:58.000Z</time>
      </trkpt>
      <trkpt lat="43.93732" lon="1.79528">
        <ele>940.40002441406</ele>
        <time>2019-06-27T18:35:59.000Z</time>
      </trkpt>
      <trkpt lat="43.93734" lon="1.79526">
        <ele>940.59997558594</ele>
        <time>2019-06-27T18:36:00.000Z</time>
      </trkpt>
      <trkpt lat="43.93735" lon="1.79525">
        <ele>940.20001220703</ele>
        <time>2019-06-27T18:36:01.000Z</time>
      </trkpt>
      <trkpt lat="43.93736" lon="1.79523">
        <ele>940.20001220703</ele>
        <time>2019-06-27T18:36:02.000Z</time>
      </trkpt>
      <trkpt lat="43.93737" lon="1.79521">
        <ele>940.20001220703</ele>
        <time>2019-06-27T18:36:03.000Z</time>
      </trkpt>
      <trkpt lat="43.93738" lon="1.79519">
        <ele>940.40002441406</ele>
        <time>2019-06-27T18:36:04.000Z</time>
      </trkpt>
      <trkpt lat="43.9374" lon="1.79518">
        <ele>940.40002441406</ele>
        <time>2019-06-27T18:36:05.000Z</time>
      </trkpt>
      <trkpt lat="43.93741" lon="1.79517">
        <ele>940.20001220703</ele>
        <time>2019-06-27T18:36:06.000Z</time>
      </trkpt>
      <trkpt lat="43.93743" lon="1.79516">
        <ele>940.40002441406</ele>
        <time>2019-06-27T18:36:07.000Z</time>
      </trkpt>
      <trkpt lat="43.93744" lon="1.79515">
        <ele>940.40002441406</ele>
        <time>2019-06-27T18:36:08.000Z</time>
      </trkpt>
      <trkpt lat="43.93745" lon="1.79514">
        <ele>940.40002441406</ele>
        <time>2019-06-27T18:36:09.000Z</time>
      </trkpt>
      <trkpt lat="43.93744" lon="1.79514">
        <ele>940.40002441406</ele>
        <time>2019-06-27T18:36:10.000Z</time>
      </trkpt>
      <trkpt lat="43.93748" lon="1.79511">
        <ele>940.59997558594</ele>
        <time>2019-06-27T18:36:11.000Z</time>
      </trkpt>
      <trkpt lat="43.9375" lon="1.7951">
        <ele>940.59997558594</ele>
        <time>2019-06-27T18:36:12.000Z</time>
      </trkpt>
      <trkpt lat="43.93752" lon="1.79509">
        <ele>940.59997558594</ele>
        <time>2019-06-27T18:36:13.000Z</time>
      </trkpt>
      <trkpt lat="43.93754" lon="1.79508">
        <ele>940.59997558594</ele>
        <time>2019-06-27T18:36:14.000Z</time>
      </trkpt>
      <trkpt lat="43.93755" lon="1.79506">
        <ele>940.59997558594</ele>
        <time>2019-06-27T18:36:15.000Z</time>
      </trkpt>
      <trkpt lat="43.93757" lon="1.79504">
        <ele>940.59997558594</ele>
        <time>2019-06-27T18:36:16.000Z</time>
      </trkpt>
      <trkpt lat="43.93759" lon="1.79503">
        <ele>940.59997558594</ele>
        <time>2019-06-27T18:36:17.000Z</time>
      </trkpt>
      <trkpt lat="43.9376" lon="1.79503">
        <ele>940.59997558594</ele>
        <time>2019-06-27T18:36:18.000Z</time>
      </trkpt>
      <trkpt lat="43.93762" lon="1.79502">
        <ele>940.59997558594</ele>
        <time>2019-06-27T18:36:19.000Z</time>
      </trkpt>
      <trkpt lat="43.93764" lon="1.79502">
        <ele>940.59997558594</ele>
        <time>2019-06-27T18:36:20.000Z</time>
      </trkpt>
      <trkpt lat="43.93766" lon="1.79502">
        <ele>940.59997558594</ele>
        <time>2019-06-27T18:36:21.000Z</time>
      </trkpt>
      <trkpt lat="43.93768" lon="1.79501">
        <ele>940.79998779297</ele>
        <time>2019-06-27T18:36:22.000Z</time>
      </trkpt>
      <trkpt lat="43.9377" lon="1.79499">
        <ele>940.59997558594</ele>
        <time>2019-06-27T18:36:23.000Z</time>
      </trkpt>
      <trkpt lat="43.93772" lon="1.79499">
        <ele>940.59997558594</ele>
        <time>2019-06-27T18:36:24.000Z</time>
      </trkpt>
      <trkpt lat="43.93775" lon="1.79498">
        <ele>940.40002441406</ele>
        <time>2019-06-27T18:36:25.000Z</time>
      </trkpt>
      <trkpt lat="43.93777" lon="1.79497">
        <ele>940.40002441406</ele>
        <time>2019-06-27T18:36:26.000Z</time>
      </trkpt>
      <trkpt lat="43.9378" lon="1.79496">
        <ele>940.40002441406</ele>
        <time>2019-06-27T18:36:27.000Z</time>
      </trkpt>
      <trkpt lat="43.93782" lon="1.79495">
        <ele>940.59997558594</ele>
        <time>2019-06-27T18:36:28.000Z</time>
      </trkpt>
      <trkpt lat="43.93785" lon="1.79494">
        <ele>940.59997558594</ele>
        <time>2019-06-27T18:36:29.000Z</time>
      </trkpt>
      <trkpt lat="43.93788" lon="1.79493">
        <ele>940.79998779297</ele>
        <time>2019-06-27T18:36:30.000Z</time>
      </trkpt>
      <trkpt lat="43.93791" lon="1.79491">
        <ele>940.79998779297</ele>
        <time>2019-06-27T18:36:31.000Z</time>
      </trkpt>
      <trkpt lat="43.93795" lon="1.79489">
        <ele>940.79998779297</ele>
        <time>2019-06-27T18:36:32.000Z</time>
      </trkpt>
      <trkpt lat="43.93798" lon="1.79486">
        <ele>940.79998779297</ele>
        <time>2019-06-27T18:36:33.000Z</time>
      </trkpt>
      <trkpt lat="43.938" lon="1.79484">
        <ele>940.79998779297</ele>
        <time>2019-06-27T18:36:34.000Z</time>
      </trkpt>
      <trkpt lat="43.93803" lon="1.79481">
        <ele>940.79998779297</ele>
        <time>2019-06-27T18:36:35.000Z</time>
      </trkpt>
      <trkpt lat="43.93806" lon="1.79477">
        <ele>940.79998779297</ele>
        <time>2019-06-27T18:36:36.000Z</time>
      </trkpt>
      <trkpt lat="43.93809" lon="1.79474">
        <ele>940.59997558594</ele>
        <time>2019-06-27T18:36:37.000Z</time>
      </trkpt>
      <trkpt lat="43.93812" lon="1.7947">
        <ele>940.79998779297</ele>
        <time>2019-06-27T18:36:38.000Z</time>
      </trkpt>
      <trkpt lat="43.93817" lon="1.79469">
        <ele>940.79998779297</ele>
        <time>2019-06-27T18:36:39.000Z</time>
      </trkpt>
      <trkpt lat="43.93822" lon="1.79467">
        <ele>940.79998779297</ele>
        <time>2019-06-27T18:36:40.000Z</time>
      </trkpt>
      <trkpt lat="43.93827" lon="1.79465">
        <ele>941</ele>
        <time>2019-06-27T18:36:41.000Z</time>
      </trkpt>
      <trkpt lat="43.93831" lon="1.79462">
        <ele>941.20001220703</ele>
        <time>2019-06-27T18:36:42.000Z</time>
      </trkpt>
      <trkpt lat="43.93836" lon="1.7946">
        <ele>941.40002441406</ele>
        <time>2019-06-27T18:36:43.000Z</time>
      </trkpt>
      <trkpt lat="43.9384" lon="1.79458">
        <ele>941.59997558594</ele>
        <time>2019-06-27T18:36:44.000Z</time>
      </trkpt>
      <trkpt lat="43.93844" lon="1.79455">
        <ele>941.40002441406</ele>
        <time>2019-06-27T18:36:45.000Z</time>
      </trkpt>
      <trkpt lat="43.93848" lon="1.79452">
        <ele>941.59997558594</ele>
        <time>2019-06-27T18:36:46.000Z</time>
      </trkpt>
      <trkpt lat="43.93852" lon="1.79448">
        <ele>941.40002441406</ele>
        <time>2019-06-27T18:36:47.000Z</time>
      </trkpt>
      <trkpt lat="43.93856" lon="1.79445">
        <ele>941.40002441406</ele>
        <time>2019-06-27T18:36:48.000Z</time>
      </trkpt>
      <trkpt lat="43.93859" lon="1.79443">
        <ele>941.20001220703</ele>
        <time>2019-06-27T18:36:49.000Z</time>
      </trkpt>
      <trkpt lat="43.93863" lon="1.7944">
        <ele>941.40002441406</ele>
        <time>2019-06-27T18:36:50.000Z</time>
      </trkpt>
      <trkpt lat="43.93867" lon="1.79437">
        <ele>941.40002441406</ele>
        <time>2019-06-27T18:36:51.000Z</time>
      </trkpt>
      <trkpt lat="43.93871" lon="1.79434">
        <ele>941.59997558594</ele>
        <time>2019-06-27T18:36:52.000Z</time>
      </trkpt>
      <trkpt lat="43.93874" lon="1.79432">
        <ele>941.59997558594</ele>
        <time>2019-06-27T18:36:53.000Z</time>
      </trkpt>
      <trkpt lat="43.93878" lon="1.79429">
        <ele>941.59997558594</ele>
        <time>2019-06-27T18:36:54.000Z</time>
      </trkpt>
      <trkpt lat="43.93881" lon="1.79427">
        <ele>941.79998779297</ele>
        <time>2019-06-27T18:36:55.000Z</time>
      </trkpt>
      <trkpt lat="43.93885" lon="1.79425">
        <ele>942</ele>
        <time>2019-06-27T18:36:56.000Z</time>
      </trkpt>
      <trkpt lat="43.93889" lon="1.79422">
        <ele>942</ele>
        <time>2019-06-27T18:36:57.000Z</time>
      </trkpt>
      <trkpt lat="43.93893" lon="1.79419">
        <ele>942</ele>
        <time>2019-06-27T18:36:58.000Z</time>
      </trkpt>
      <trkpt lat="43.93897" lon="1.79416">
        <ele>942.20001220703</ele>
        <time>2019-06-27T18:36:59.000Z</time>
      </trkpt>
      <trkpt lat="43.93901" lon="1.79414">
        <ele>942.20001220703</ele>
        <time>2019-06-27T18:37:00.000Z</time>
      </trkpt>
      <trkpt lat="43.93905" lon="1.79412">
        <ele>941.79998779297</ele>
        <time>2019-06-27T18:37:01.000Z</time>
      </trkpt>
      <trkpt lat="43.93909" lon="1.79411">
        <ele>941.59997558594</ele>
        <time>2019-06-27T18:37:02.000Z</time>
      </trkpt>
      <trkpt lat="43.93913" lon="1.79409">
        <ele>941.79998779297</ele>
        <time>2019-06-27T18:37:03.000Z</time>
      </trkpt>
      <trkpt lat="43.93916" lon="1.79407">
        <ele>941.20001220703</ele>
        <time>2019-06-27T18:37:04.000Z</time>
      </trkpt>
      <trkpt lat="43.93921" lon="1.79405">
        <ele>941.59997558594</ele>
        <time>2019-06-27T18:37:05.000Z</time>
      </trkpt>
      <trkpt lat="43.93924" lon="1.79403">
        <ele>941.79998779297</ele>
        <time>2019-06-27T18:37:06.000Z</time>
      </trkpt>
      <trkpt lat="43.93928" lon="1.79401">
        <ele>942</ele>
        <time>2019-06-27T18:37:07.000Z</time>
      </trkpt>
      <trkpt lat="43.93932" lon="1.794">
        <ele>942</ele>
        <time>2019-06-27T18:37:08.000Z</time>
      </trkpt>
      <trkpt lat="43.93935" lon="1.79399">
        <ele>942</ele>
        <time>2019-06-27T18:37:09.000Z</time>
      </trkpt>
      <trkpt lat="43.93939" lon="1.79397">
        <ele>941.79998779297</ele>
        <time>2019-06-27T18:37:10.000Z</time>
      </trkpt>
      <trkpt lat="43.93942" lon="1.79395">
        <ele>942</ele>
        <time>2019-06-27T18:37:11.000Z</time>
      </trkpt>
      <trkpt lat="43.93946" lon="1.79393">
        <ele>942.20001220703</ele>
        <time>2019-06-27T18:37:12.000Z</time>
      </trkpt>
      <trkpt lat="43.93949" lon="1.7939">
        <ele>942.20001220703</ele>
        <time>2019-06-27T18:37:13.000Z</time>
      </trkpt>
      <trkpt lat="43.93953" lon="1.79389">
        <ele>942.40002441406</ele>
        <time>2019-06-27T18:37:14.000Z</time>
      </trkpt>
      <trkpt lat="43.93957" lon="1.79387">
        <ele>942.59997558594</ele>
        <time>2019-06-27T18:37:15.000Z</time>
      </trkpt>
      <trkpt lat="43.9396" lon="1.79384">
        <ele>942.79998779297</ele>
        <time>2019-06-27T18:37:16.000Z</time>
      </trkpt>
      <trkpt lat="43.93964" lon="1.79381">
        <ele>942.59997558594</ele>
        <time>2019-06-27T18:37:17.000Z</time>
      </trkpt>
      <trkpt lat="43.93967" lon="1.79379">
        <ele>942.40002441406</ele>
        <time>2019-06-27T18:37:18.000Z</time>
      </trkpt>
      <trkpt lat="43.93971" lon="1.79377">
        <ele>942.79998779297</ele>
        <time>2019-06-27T18:37:19.000Z</time>
      </trkpt>
      <trkpt lat="43.93974" lon="1.79376">
        <ele>943</ele>
        <time>2019-06-27T18:37:20.000Z</time>
      </trkpt>
      <trkpt lat="43.93978" lon="1.79374">
        <ele>943</ele>
        <time>2019-06-27T18:37:21.000Z</time>
      </trkpt>
      <trkpt lat="43.93981" lon="1.79371">
        <ele>943</ele>
        <time>2019-06-27T18:37:22.000Z</time>
      </trkpt>
      <trkpt lat="43.93984" lon="1.79369">
        <ele>943</ele>
        <time>2019-06-27T18:37:23.000Z</time>
      </trkpt>
      <trkpt lat="43.93988" lon="1.79368">
        <ele>943</ele>
        <time>2019-06-27T18:37:24.000Z</time>
      </trkpt>
      <trkpt lat="43.93992" lon="1.79368">
        <ele>943</ele>
        <time>2019-06-27T18:37:25.000Z</time>
      </trkpt>
      <trkpt lat="43.93996" lon="1.79367">
        <ele>943.40002441406</ele>
        <time>2019-06-27T18:37:26.000Z</time>
      </trkpt>
      <trkpt lat="43.93999" lon="1.79365">
        <ele>943.40002441406</ele>
        <time>2019-06-27T18:37:27.000Z</time>
      </trkpt>
      <trkpt lat="43.94003" lon="1.79363">
        <ele>943.59997558594</ele>
        <time>2019-06-27T18:37:28.000Z</time>
      </trkpt>
      <trkpt lat="43.94007" lon="1.79361">
        <ele>943.59997558594</ele>
        <time>2019-06-27T18:37:29.000Z</time>
      </trkpt>
      <trkpt lat="43.94011" lon="1.79359">
        <ele>944</ele>
        <time>2019-06-27T18:37:30.000Z</time>
      </trkpt>
      <trkpt lat="43.94014" lon="1.79357">
        <ele>944.40002441406</ele>
        <time>2019-06-27T18:37:31.000Z</time>
      </trkpt>
      <trkpt lat="43.94018" lon="1.79354">
        <ele>944.59997558594</ele>
        <time>2019-06-27T18:37:32.000Z</time>
      </trkpt>
      <trkpt lat="43.94021" lon="1.79352">
        <ele>944.79998779297</ele>
        <time>2019-06-27T18:37:33.000Z</time>
      </trkpt>
      <trkpt lat="43.94025" lon="1.7935">
        <ele>945</ele>
        <time>2019-06-27T18:37:34.000Z</time>
      </trkpt>
      <trkpt lat="43.94028" lon="1.79348">
        <ele>945.59997558594</ele>
        <time>2019-06-27T18:37:35.000Z</time>
      </trkpt>
      <trkpt lat="43.94031" lon="1.79347">
        <ele>946</ele>
        <time>2019-06-27T18:37:36.000Z</time>
      </trkpt>
      <trkpt lat="43.94034" lon="1.79345">
        <ele>946.59997558594</ele>
        <time>2019-06-27T18:37:37.000Z</time>
      </trkpt>
      <trkpt lat="43.94037" lon="1.79344">
        <ele>946.79998779297</ele>
        <time>2019-06-27T18:37:38.000Z</time>
      </trkpt>
      <trkpt lat="43.9404" lon="1.79342">
        <ele>947</ele>
        <time>2019-06-27T18:37:39.000Z</time>
      </trkpt>
      <trkpt lat="43.94043" lon="1.7934">
        <ele>947.20001220703</ele>
        <time>2019-06-27T18:37:40.000Z</time>
      </trkpt>
      <trkpt lat="43.94046" lon="1.79339">
        <ele>947.20001220703</ele>
        <time>2019-06-27T18:37:41.000Z</time>
      </trkpt>
      <trkpt lat="43.94049" lon="1.79336">
        <ele>947.79998779297</ele>
        <time>2019-06-27T18:37:42.000Z</time>
      </trkpt>
      <trkpt lat="43.94052" lon="1.79334">
        <ele>948</ele>
        <time>2019-06-27T18:37:43.000Z</time>
      </trkpt>
      <trkpt lat="43.94055" lon="1.79332">
        <ele>948.20001220703</ele>
        <time>2019-06-27T18:37:44.000Z</time>
      </trkpt>
      <trkpt lat="43.94058" lon="1.7933">
        <ele>948.20001220703</ele>
        <time>2019-06-27T18:37:45.000Z</time>
      </trkpt>
      <trkpt lat="43.94061" lon="1.79328">
        <ele>948.20001220703</ele>
        <time>2019-06-27T18:37:46.000Z</time>
      </trkpt>
      <trkpt lat="43.94064" lon="1.79326">
        <ele>948.40002441406</ele>
        <time>2019-06-27T18:37:47.000Z</time>
      </trkpt>
      <trkpt lat="43.94068" lon="1.79326">
        <ele>948.59997558594</ele>
        <time>2019-06-27T18:37:48.000Z</time>
      </trkpt>
      <trkpt lat="43.94071" lon="1.79325">
        <ele>948.79998779297</ele>
        <time>2019-06-27T18:37:49.000Z</time>
      </trkpt>
      <trkpt lat="43.94074" lon="1.79323">
        <ele>949</ele>
        <time>2019-06-27T18:37:50.000Z</time>
      </trkpt>
      <trkpt lat="43.94077" lon="1.79321">
        <ele>948.79998779297</ele>
        <time>2019-06-27T18:37:51.000Z</time>
      </trkpt>
      <trkpt lat="43.9408" lon="1.7932">
        <ele>949</ele>
        <time>2019-06-27T18:37:52.000Z</time>
      </trkpt>
      <trkpt lat="43.94083" lon="1.79318">
        <ele>949.20001220703</ele>
        <time>2019-06-27T18:37:53.000Z</time>
      </trkpt>
      <trkpt lat="43.94086" lon="1.79316">
        <ele>949.20001220703</ele>
        <time>2019-06-27T18:37:54.000Z</time>
      </trkpt>
      <trkpt lat="43.94089" lon="1.79314">
        <ele>949.40002441406</ele>
        <time>2019-06-27T18:37:55.000Z</time>
      </trkpt>
      <trkpt lat="43.94092" lon="1.79312">
        <ele>949.40002441406</ele>
        <time>2019-06-27T18:37:56.000Z</time>
      </trkpt>
      <trkpt lat="43.94095" lon="1.7931">
        <ele>949.59997558594</ele>
        <time>2019-06-27T18:37:57.000Z</time>
      </trkpt>
      <trkpt lat="43.94099" lon="1.79308">
        <ele>949.59997558594</ele>
        <time>2019-06-27T18:37:58.000Z</time>
      </trkpt>
      <trkpt lat="43.94102" lon="1.79306">
        <ele>949.79998779297</ele>
        <time>2019-06-27T18:37:59.000Z</time>
      </trkpt>
      <trkpt lat="43.94105" lon="1.79304">
        <ele>950</ele>
        <time>2019-06-27T18:38:00.000Z</time>
      </trkpt>
      <trkpt lat="43.94108" lon="1.79303">
        <ele>950</ele>
        <time>2019-06-27T18:38:01.000Z</time>
      </trkpt>
      <trkpt lat="43.94111" lon="1.79301">
        <ele>950.20001220703</ele>
        <time>2019-06-27T18:38:02.000Z</time>
      </trkpt>
      <trkpt lat="43.94114" lon="1.79299">
        <ele>950.40002441406</ele>
        <time>2019-06-27T18:38:03.000Z</time>
      </trkpt>
      <trkpt lat="43.94117" lon="1.79297">
        <ele>950.59997558594</ele>
        <time>2019-06-27T18:38:04.000Z</time>
      </trkpt>
      <trkpt lat="43.9412" lon="1.79296">
        <ele>950.59997558594</ele>
        <time>2019-06-27T18:38:05.000Z</time>
      </trkpt>
      <trkpt lat="43.94123" lon="1.79294">
        <ele>950.59997558594</ele>
        <time>2019-06-27T18:38:06.000Z</time>
      </trkpt>
      <trkpt lat="43.94126" lon="1.79292">
        <ele>950.79998779297</ele>
        <time>2019-06-27T18:38:07.000Z</time>
      </trkpt>
      <trkpt lat="43.9413" lon="1.7929">
        <ele>950.79998779297</ele>
        <time>2019-06-27T18:38:08.000Z</time>
      </trkpt>
      <trkpt lat="43.94133" lon="1.79288">
        <ele>950.79998779297</ele>
        <time>2019-06-27T18:38:09.000Z</time>
      </trkpt>
      <trkpt lat="43.94136" lon="1.79287">
        <ele>951</ele>
        <time>2019-06-27T18:38:10.000Z</time>
      </trkpt>
      <trkpt lat="43.94139" lon="1.79285">
        <ele>950.79998779297</ele>
        <time>2019-06-27T18:38:11.000Z</time>
      </trkpt>
      <trkpt lat="43.94143" lon="1.79283">
        <ele>951</ele>
        <time>2019-06-27T18:38:12.000Z</time>
      </trkpt>
      <trkpt lat="43.94146" lon="1.79282">
        <ele>951.20001220703</ele>
        <time>2019-06-27T18:38:13.000Z</time>
      </trkpt>
      <trkpt lat="43.9415" lon="1.7928">
        <ele>951.40002441406</ele>
        <time>2019-06-27T18:38:14.000Z</time>
      </trkpt>
      <trkpt lat="43.94153" lon="1.79279">
        <ele>951.40002441406</ele>
        <time>2019-06-27T18:38:15.000Z</time>
      </trkpt>
      <trkpt lat="43.94157" lon="1.79278">
        <ele>951.59997558594</ele>
        <time>2019-06-27T18:38:16.000Z</time>
      </trkpt>
      <trkpt lat="43.9416" lon="1.79276">
        <ele>951.40002441406</ele>
        <time>2019-06-27T18:38:17.000Z</time>
      </trkpt>
      <trkpt lat="43.94164" lon="1.79275">
        <ele>951.59997558594</ele>
        <time>2019-06-27T18:38:18.000Z</time>
      </trkpt>
      <trkpt lat="43.94168" lon="1.79273">
        <ele>951.59997558594</ele>
        <time>2019-06-27T18:38:19.000Z</time>
      </trkpt>
      <trkpt lat="43.94172" lon="1.79273">
        <ele>951.59997558594</ele>
        <time>2019-06-27T18:38:20.000Z</time>
      </trkpt>
      <trkpt lat="43.94176" lon="1.79272">
        <ele>951.40002441406</ele>
        <time>2019-06-27T18:38:21.000Z</time>
      </trkpt>
      <trkpt lat="43.9418" lon="1.7927">
        <ele>951.40002441406</ele>
        <time>2019-06-27T18:38:22.000Z</time>
      </trkpt>
      <trkpt lat="43.94185" lon="1.79269">
        <ele>951.20001220703</ele>
        <time>2019-06-27T18:38:23.000Z</time>
      </trkpt>
      <trkpt lat="43.94189" lon="1.79268">
        <ele>951.20001220703</ele>
        <time>2019-06-27T18:38:24.000Z</time>
      </trkpt>
      <trkpt lat="43.94193" lon="1.79266">
        <ele>951.20001220703</ele>
        <time>2019-06-27T18:38:25.000Z</time>
      </trkpt>
      <trkpt lat="43.94197" lon="1.79265">
        <ele>951</ele>
        <time>2019-06-27T18:38:26.000Z</time>
      </trkpt>
      <trkpt lat="43.94202" lon="1.79263">
        <ele>951</ele>
        <time>2019-06-27T18:38:27.000Z</time>
      </trkpt>
      <trkpt lat="43.94206" lon="1.79262">
        <ele>951</ele>
        <time>2019-06-27T18:38:28.000Z</time>
      </trkpt>
      <trkpt lat="43.94211" lon="1.7926">
        <ele>951</ele>
        <time>2019-06-27T18:38:29.000Z</time>
      </trkpt>
      <trkpt lat="43.94216" lon="1.79258">
        <ele>950.79998779297</ele>
        <time>2019-06-27T18:38:30.000Z</time>
      </trkpt>
      <trkpt lat="43.94221" lon="1.79256">
        <ele>950.79998779297</ele>
        <time>2019-06-27T18:38:31.000Z</time>
      </trkpt>
      <trkpt lat="43.94226" lon="1.79254">
        <ele>950.59997558594</ele>
        <time>2019-06-27T18:38:32.000Z</time>
      </trkpt>
      <trkpt lat="43.9423" lon="1.79252">
        <ele>950.40002441406</ele>
        <time>2019-06-27T18:38:33.000Z</time>
      </trkpt>
      <trkpt lat="43.94235" lon="1.79251">
        <ele>950.20001220703</ele>
        <time>2019-06-27T18:38:34.000Z</time>
      </trkpt>
      <trkpt lat="43.94239" lon="1.79249">
        <ele>950.40002441406</ele>
        <time>2019-06-27T18:38:35.000Z</time>
      </trkpt>
      <trkpt lat="43.94244" lon="1.79248">
        <ele>950.20001220703</ele>
        <time>2019-06-27T18:38:36.000Z</time>
      </trkpt>
      <trkpt lat="43.94249" lon="1.79246">
        <ele>950</ele>
        <time>2019-06-27T18:38:37.000Z</time>
      </trkpt>
      <trkpt lat="43.94253" lon="1.79244">
        <ele>949.79998779297</ele>
        <time>2019-06-27T18:38:38.000Z</time>
      </trkpt>
      <trkpt lat="43.94257" lon="1.79243">
        <ele>949.79998779297</ele>
        <time>2019-06-27T18:38:39.000Z</time>
      </trkpt>
      <trkpt lat="43.94261" lon="1.79241">
        <ele>949.79998779297</ele>
        <time>2019-06-27T18:38:40.000Z</time>
      </trkpt>
      <trkpt lat="43.94266" lon="1.79239">
        <ele>949.79998779297</ele>
        <time>2019-06-27T18:38:41.000Z</time>
      </trkpt>
      <trkpt lat="43.9427" lon="1.79237">
        <ele>949.59997558594</ele>
        <time>2019-06-27T18:38:42.000Z</time>
      </trkpt>
      <trkpt lat="43.94274" lon="1.79235">
        <ele>949.59997558594</ele>
        <time>2019-06-27T18:38:43.000Z</time>
      </trkpt>
      <trkpt lat="43.94279" lon="1.79234">
        <ele>949.59997558594</ele>
        <time>2019-06-27T18:38:44.000Z</time>
      </trkpt>
      <trkpt lat="43.94283" lon="1.79233">
        <ele>949.59997558594</ele>
        <time>2019-06-27T18:38:45.000Z</time>
      </trkpt>
      <trkpt lat="43.94288" lon="1.79231">
        <ele>949.79998779297</ele>
        <time>2019-06-27T18:38:46.000Z</time>
      </trkpt>
      <trkpt lat="43.94293" lon="1.7923">
        <ele>949.79998779297</ele>
        <time>2019-06-27T18:38:47.000Z</time>
      </trkpt>
      <trkpt lat="43.94297" lon="1.79228">
        <ele>949.79998779297</ele>
        <time>2019-06-27T18:38:48.000Z</time>
      </trkpt>
      <trkpt lat="43.94301" lon="1.79227">
        <ele>949.59997558594</ele>
        <time>2019-06-27T18:38:49.000Z</time>
      </trkpt>
      <trkpt lat="43.94305" lon="1.79226">
        <ele>949.59997558594</ele>
        <time>2019-06-27T18:38:50.000Z</time>
      </trkpt>
      <trkpt lat="43.9431" lon="1.79225">
        <ele>949.59997558594</ele>
        <time>2019-06-27T18:38:51.000Z</time>
      </trkpt>
      <trkpt lat="43.94315" lon="1.79223">
        <ele>949.59997558594</ele>
        <time>2019-06-27T18:38:52.000Z</time>
      </trkpt>
      <trkpt lat="43.94319" lon="1.79222">
        <ele>949.59997558594</ele>
        <time>2019-06-27T18:38:53.000Z</time>
      </trkpt>
      <trkpt lat="43.94323" lon="1.79221">
        <ele>949.40002441406</ele>
        <time>2019-06-27T18:38:54.000Z</time>
      </trkpt>
      <trkpt lat="43.94327" lon="1.79219">
        <ele>949.40002441406</ele>
        <time>2019-06-27T18:38:55.000Z</time>
      </trkpt>
      <trkpt lat="43.94331" lon="1.79218">
        <ele>949.40002441406</ele>
        <time>2019-06-27T18:38:56.000Z</time>
      </trkpt>
      <trkpt lat="43.94335" lon="1.79217">
        <ele>949.40002441406</ele>
        <time>2019-06-27T18:38:57.000Z</time>
      </trkpt>
      <trkpt lat="43.94339" lon="1.79216">
        <ele>949.59997558594</ele>
        <time>2019-06-27T18:38:58.000Z</time>
      </trkpt>
      <trkpt lat="43.94344" lon="1.79215">
        <ele>949.79998779297</ele>
        <time>2019-06-27T18:38:59.000Z</time>
      </trkpt>
      <trkpt lat="43.94348" lon="1.79215">
        <ele>950.20001220703</ele>
        <time>2019-06-27T18:39:00.000Z</time>
      </trkpt>
      <trkpt lat="43.94352" lon="1.79215">
        <ele>950</ele>
        <time>2019-06-27T18:39:01.000Z</time>
      </trkpt>
      <trkpt lat="43.94356" lon="1.79215">
        <ele>950.20001220703</ele>
        <time>2019-06-27T18:39:02.000Z</time>
      </trkpt>
      <trkpt lat="43.9436" lon="1.79215">
        <ele>950.40002441406</ele>
        <time>2019-06-27T18:39:03.000Z</time>
      </trkpt>
      <trkpt lat="43.94365" lon="1.79216">
        <ele>950.59997558594</ele>
        <time>2019-06-27T18:39:04.000Z</time>
      </trkpt>
      <trkpt lat="43.94369" lon="1.79217">
        <ele>950.79998779297</ele>
        <time>2019-06-27T18:39:05.000Z</time>
      </trkpt>
      <trkpt lat="43.94373" lon="1.79218">
        <ele>950.59997558594</ele>
        <time>2019-06-27T18:39:06.000Z</time>
      </trkpt>
      <trkpt lat="43.94378" lon="1.79218">
        <ele>950.59997558594</ele>
        <time>2019-06-27T18:39:07.000Z</time>
      </trkpt>
      <trkpt lat="43.94382" lon="1.79219">
        <ele>950.79998779297</ele>
        <time>2019-06-27T18:39:08.000Z</time>
      </trkpt>
      <trkpt lat="43.94387" lon="1.79219">
        <ele>951</ele>
        <time>2019-06-27T18:39:09.000Z</time>
      </trkpt>
      <trkpt lat="43.94392" lon="1.79217">
        <ele>951.40002441406</ele>
        <time>2019-06-27T18:39:10.000Z</time>
      </trkpt>
      <trkpt lat="43.94396" lon="1.79216">
        <ele>951.20001220703</ele>
        <time>2019-06-27T18:39:11.000Z</time>
      </trkpt>
      <trkpt lat="43.944" lon="1.79213">
        <ele>951.20001220703</ele>
        <time>2019-06-27T18:39:12.000Z</time>
      </trkpt>
      <trkpt lat="43.94405" lon="1.79211">
        <ele>951.40002441406</ele>
        <time>2019-06-27T18:39:13.000Z</time>
      </trkpt>
      <trkpt lat="43.94409" lon="1.79209">
        <ele>951.40002441406</ele>
        <time>2019-06-27T18:39:14.000Z</time>
      </trkpt>
      <trkpt lat="43.94413" lon="1.79207">
        <ele>951.40002441406</ele>
        <time>2019-06-27T18:39:15.000Z</time>
      </trkpt>
      <trkpt lat="43.94418" lon="1.79205">
        <ele>951.40002441406</ele>
        <time>2019-06-27T18:39:16.000Z</time>
      </trkpt>
      <trkpt lat="43.94422" lon="1.79204">
        <ele>951.40002441406</ele>
        <time>2019-06-27T18:39:17.000Z</time>
      </trkpt>
      <trkpt lat="43.94427" lon="1.79204">
        <ele>951.40002441406</ele>
        <time>2019-06-27T18:39:18.000Z</time>
      </trkpt>
      <trkpt lat="43.94431" lon="1.79203">
        <ele>951.40002441406</ele>
        <time>2019-06-27T18:39:19.000Z</time>
      </trkpt>
      <trkpt lat="43.94435" lon="1.79202">
        <ele>951.40002441406</ele>
        <time>2019-06-27T18:39:20.000Z</time>
      </trkpt>
      <trkpt lat="43.9444" lon="1.79202">
        <ele>951.79998779297</ele>
        <time>2019-06-27T18:39:21.000Z</time>
      </trkpt>
      <trkpt lat="43.94444" lon="1.79202">
        <ele>951.79998779297</ele>
        <time>2019-06-27T18:39:22.000Z</time>
      </trkpt>
      <trkpt lat="43.94449" lon="1.79201">
        <ele>951.79998779297</ele>
        <time>2019-06-27T18:39:23.000Z</time>
      </trkpt>
      <trkpt lat="43.94454" lon="1.792">
        <ele>951.59997558594</ele>
        <time>2019-06-27T18:39:24.000Z</time>
      </trkpt>
      <trkpt lat="43.94458" lon="1.792">
        <ele>951.40002441406</ele>
        <time>2019-06-27T18:39:25.000Z</time>
      </trkpt>
      <trkpt lat="43.94463" lon="1.79199">
        <ele>951.40002441406</ele>
        <time>2019-06-27T18:39:26.000Z</time>
      </trkpt>
      <trkpt lat="43.94467" lon="1.79197">
        <ele>951.59997558594</ele>
        <time>2019-06-27T18:39:27.000Z</time>
      </trkpt>
      <trkpt lat="43.94471" lon="1.79194">
        <ele>951.59997558594</ele>
        <time>2019-06-27T18:39:28.000Z</time>
      </trkpt>
      <trkpt lat="43.94474" lon="1.7919">
        <ele>951.59997558594</ele>
        <time>2019-06-27T18:39:29.000Z</time>
      </trkpt>
      <trkpt lat="43.94477" lon="1.79187">
        <ele>951.40002441406</ele>
        <time>2019-06-27T18:39:30.000Z</time>
      </trkpt>
      <trkpt lat="43.94479" lon="1.79183">
        <ele>951.40002441406</ele>
        <time>2019-06-27T18:39:31.000Z</time>
      </trkpt>
      <trkpt lat="43.94481" lon="1.7918">
        <ele>951.40002441406</ele>
        <time>2019-06-27T18:39:32.000Z</time>
      </trkpt>
      <trkpt lat="43.94482" lon="1.79176">
        <ele>951.40002441406</ele>
        <time>2019-06-27T18:39:33.000Z</time>
      </trkpt>
      <trkpt lat="43.94484" lon="1.79173">
        <ele>951.20001220703</ele>
        <time>2019-06-27T18:39:34.000Z</time>
      </trkpt>
      <trkpt lat="43.94485" lon="1.7917">
        <ele>951.20001220703</ele>
        <time>2019-06-27T18:39:35.000Z</time>
      </trkpt>
      <trkpt lat="43.94487" lon="1.79167">
        <ele>951.20001220703</ele>
        <time>2019-06-27T18:39:36.000Z</time>
      </trkpt>
      <trkpt lat="43.94487" lon="1.79165">
        <ele>951.20001220703</ele>
        <time>2019-06-27T18:39:37.000Z</time>
      </trkpt>
      <trkpt lat="43.94488" lon="1.79162">
        <ele>951.20001220703</ele>
        <time>2019-06-27T18:39:38.000Z</time>
      </trkpt>
      <trkpt lat="43.94486" lon="1.7916">
        <ele>951.20001220703</ele>
        <time>2019-06-27T18:39:39.000Z</time>
      </trkpt>
      <trkpt lat="43.94485" lon="1.79161">
        <ele>951.20001220703</ele>
        <time>2019-06-27T18:39:40.000Z</time>
      </trkpt>
      <trkpt lat="43.94484" lon="1.79162">
        <ele>951.20001220703</ele>
        <time>2019-06-27T18:39:41.000Z</time>
      </trkpt>
      <trkpt lat="43.94484" lon="1.79163">
        <ele>951.20001220703</ele>
        <time>2019-06-27T18:39:42.000Z</time>
      </trkpt>
      <trkpt lat="43.94484" lon="1.79162">
        <ele>951.20001220703</ele>
        <time>2019-06-27T18:39:43.000Z</time>
      </trkpt>
      <trkpt lat="43.94484" lon="1.79163">
        <ele>951.20001220703</ele>
        <time>2019-06-27T18:39:44.000Z</time>
      </trkpt>
      <trkpt lat="43.94484" lon="1.79163">
        <ele>951.20001220703</ele>
        <time>2019-06-27T18:39:45.000Z</time>
      </trkpt>
      <trkpt lat="43.94484" lon="1.79163">
        <ele>951.20001220703</ele>
        <time>2019-06-27T18:39:46.000Z</time>
      </trkpt>
      <trkpt lat="43.94484" lon="1.79163">
        <ele>951.20001220703</ele>
        <time>2019-06-27T18:39:47.000Z</time>
      </trkpt>
      <trkpt lat="43.94484" lon="1.79163">
        <ele>951.20001220703</ele>
        <time>2019-06-27T18:39:48.000Z</time>
      </trkpt>
      <trkpt lat="43.94484" lon="1.79163">
        <ele>951.20001220703</ele>
        <time>2019-06-27T18:39:49.000Z</time>
      </trkpt>
      <trkpt lat="43.94484" lon="1.79163">
        <ele>951.20001220703</ele>
        <time>2019-06-27T18:39:50.000Z</time>
      </trkpt>
      <trkpt lat="43.94484" lon="1.79163">
        <ele>951.20001220703</ele>
        <time>2019-06-27T18:39:51.000Z</time>
      </trkpt>
      <trkpt lat="43.94484" lon="1.79163">
        <ele>951.20001220703</ele>
        <time>2019-06-27T18:39:52.000Z</time>
      </trkpt>
      <trkpt lat="43.94484" lon="1.79163">
        <ele>951.20001220703</ele>
        <time>2019-06-27T18:39:53.000Z</time>
      </trkpt>
      <trkpt lat="43.94484" lon="1.79163">
        <ele>951.20001220703</ele>
        <time>2019-06-27T18:39:54.000Z</time>
      </trkpt>
      <trkpt lat="43.94484" lon="1.79163">
        <ele>951.20001220703</ele>
        <time>2019-06-27T18:39:55.000Z</time>
      </trkpt>
      <trkpt lat="43.94484" lon="1.79163">
        <ele>951.20001220703</ele>
        <time>2019-06-27T18:39:56.000Z</time>
      </trkpt>
      <trkpt lat="43.94484" lon="1.79163">
        <ele>951.20001220703</ele>
        <time>2019-06-27T18:39:57.000Z</time>
      </trkpt>
      <trkpt lat="43.94484" lon="1.79163">
        <ele>951.20001220703</ele>
        <time>2019-06-27T18:39:58.000Z</time>
      </trkpt>
      <trkpt lat="43.94484" lon="1.79163">
        <ele>951.20001220703</ele>
        <time>2019-06-27T18:39:59.000Z</time>
      </trkpt>
      <trkpt lat="43.94484" lon="1.79163">
        <ele>951.20001220703</ele>
        <time>2019-06-27T18:40:00.000Z</time>
      </trkpt>
      <trkpt lat="43.94484" lon="1.79163">
        <ele>951.20001220703</ele>
        <time>2019-06-27T18:40:01.000Z</time>
      </trkpt>
      <trkpt lat="43.94484" lon="1.79163">
        <ele>951.20001220703</ele>
        <time>2019-06-27T18:40:02.000Z</time>
      </trkpt>
      <trkpt lat="43.94484" lon="1.79163">
        <ele>951.20001220703</ele>
        <time>2019-06-27T18:40:03.000Z</time>
      </trkpt>
      <trkpt lat="43.94484" lon="1.79163">
        <ele>951.20001220703</ele>
        <time>2019-06-27T18:40:04.000Z</time>
      </trkpt>
      <trkpt lat="43.94484" lon="1.79163">
        <ele>951.20001220703</ele>
        <time>2019-06-27T18:40:05.000Z</time>
      </trkpt>
      <trkpt lat="43.94484" lon="1.79163">
        <ele>951.20001220703</ele>
        <time>2019-06-27T18:40:06.000Z</time>
      </trkpt>
      <trkpt lat="43.94484" lon="1.79163">
        <ele>951.20001220703</ele>
        <time>2019-06-27T18:40:07.000Z</time>
      </trkpt>
      <trkpt lat="43.94484" lon="1.79163">
        <ele>951.20001220703</ele>
        <time>2019-06-27T18:40:08.000Z</time>
      </trkpt>
      <trkpt lat="43.94484" lon="1.79163">
        <ele>951.20001220703</ele>
        <time>2019-06-27T18:40:09.000Z</time>
      </trkpt>
      <trkpt lat="43.94484" lon="1.79163">
        <ele>951.20001220703</ele>
        <time>2019-06-27T18:40:10.000Z</time>
      </trkpt>
      <trkpt lat="43.94484" lon="1.79163">
        <ele>951.20001220703</ele>
        <time>2019-06-27T18:40:11.000Z</time>
      </trkpt>
      <trkpt lat="43.94484" lon="1.79163">
        <ele>951.20001220703</ele>
        <time>2019-06-27T18:40:12.000Z</time>
      </trkpt>
      <trkpt lat="43.94484" lon="1.79163">
        <ele>951.20001220703</ele>
        <time>2019-06-27T18:40:13.000Z</time>
      </trkpt>
      <trkpt lat="43.94484" lon="1.79163">
        <ele>951.20001220703</ele>
        <time>2019-06-27T18:40:14.000Z</time>
      </trkpt>
      <trkpt lat="43.94484" lon="1.79163">
        <ele>951.20001220703</ele>
        <time>2019-06-27T18:40:15.000Z</time>
      </trkpt>
      <trkpt lat="43.94484" lon="1.79163">
        <ele>951.40002441406</ele>
        <time>2019-06-27T18:40:16.000Z</time>
      </trkpt>
      <trkpt lat="43.94484" lon="1.79163">
        <ele>951.20001220703</ele>
        <time>2019-06-27T18:40:17.000Z</time>
      </trkpt>
      <trkpt lat="43.94484" lon="1.79163">
        <ele>951.20001220703</ele>
        <time>2019-06-27T18:40:18.000Z</time>
      </trkpt>
      <trkpt lat="43.94484" lon="1.79163">
        <ele>951.20001220703</ele>
        <time>2019-06-27T18:40:19.000Z</time>
      </trkpt>
      <trkpt lat="43.94484" lon="1.79163">
        <ele>951.20001220703</ele>
        <time>2019-06-27T18:40:20.000Z</time>
      </trkpt>
      <trkpt lat="43.94484" lon="1.79163">
        <ele>951.20001220703</ele>
        <time>2019-06-27T18:40:21.000Z</time>
      </trkpt>
      <trkpt lat="43.94484" lon="1.79163">
        <ele>951.20001220703</ele>
        <time>2019-06-27T18:40:22.000Z</time>
      </trkpt>
      <trkpt lat="43.94483" lon="1.79163">
        <ele>951.20001220703</ele>
        <time>2019-06-27T18:40:23.000Z</time>
      </trkpt>
      <trkpt lat="43.94483" lon="1.79163">
        <ele>951.20001220703</ele>
        <time>2019-06-27T18:40:24.000Z</time>
      </trkpt>
      <trkpt lat="43.94483" lon="1.79163">
        <ele>951.20001220703</ele>
        <time>2019-06-27T18:40:25.000Z</time>
      </trkpt>
      <trkpt lat="43.94483" lon="1.79163">
        <ele>951.20001220703</ele>
        <time>2019-06-27T18:40:26.000Z</time>
      </trkpt>
      <trkpt lat="43.94483" lon="1.79163">
        <ele>951.20001220703</ele>
        <time>2019-06-27T18:40:27.000Z</time>
      </trkpt>
      <trkpt lat="43.94483" lon="1.79163">
        <ele>951.20001220703</ele>
        <time>2019-06-27T18:40:28.000Z</time>
      </trkpt>
      <trkpt lat="43.94483" lon="1.79163">
        <ele>951.20001220703</ele>
        <time>2019-06-27T18:40:29.000Z</time>
      </trkpt>
      <trkpt lat="43.94483" lon="1.79163">
        <ele>951.20001220703</ele>
        <time>2019-06-27T18:40:30.000Z</time>
      </trkpt>
      <trkpt lat="43.94483" lon="1.79163">
        <ele>951.20001220703</ele>
        <time>2019-06-27T18:40:31.000Z</time>
      </trkpt>
      <trkpt lat="43.94483" lon="1.79163">
        <ele>951.20001220703</ele>
        <time>2019-06-27T18:40:32.000Z</time>
      </trkpt>
      <trkpt lat="43.94483" lon="1.79163">
        <ele>951.20001220703</ele>
        <time>2019-06-27T18:40:33.000Z</time>
      </trkpt>
      <trkpt lat="43.94483" lon="1.79163">
        <ele>951.20001220703</ele>
        <time>2019-06-27T18:40:34.000Z</time>
      </trkpt>
      <trkpt lat="43.94483" lon="1.79163">
        <ele>951.20001220703</ele>
        <time>2019-06-27T18:40:35.000Z</time>
      </trkpt>
      <trkpt lat="43.94483" lon="1.79163">
        <ele>951.20001220703</ele>
        <time>2019-06-27T18:40:36.000Z</time>
      </trkpt>
      <trkpt lat="43.94483" lon="1.79163">
        <ele>951.20001220703</ele>
        <time>2019-06-27T18:40:37.000Z</time>
      </trkpt>
      <trkpt lat="43.94483" lon="1.79163">
        <ele>951.20001220703</ele>
        <time>2019-06-27T18:40:38.000Z</time>
      </trkpt>
      <trkpt lat="43.94483" lon="1.79163">
        <ele>951.20001220703</ele>
        <time>2019-06-27T18:40:39.000Z</time>
      </trkpt>
      <trkpt lat="43.94483" lon="1.79163">
        <ele>951.20001220703</ele>
        <time>2019-06-27T18:40:40.000Z</time>
      </trkpt>
      <trkpt lat="43.94483" lon="1.79163">
        <ele>951.20001220703</ele>
        <time>2019-06-27T18:40:41.000Z</time>
      </trkpt>
      <trkpt lat="43.94483" lon="1.79163">
        <ele>951.20001220703</ele>
        <time>2019-06-27T18:40:42.000Z</time>
      </trkpt>
      <trkpt lat="43.94483" lon="1.79163">
        <ele>951.20001220703</ele>
        <time>2019-06-27T18:40:43.000Z</time>
      </trkpt>
      <trkpt lat="43.94483" lon="1.79163">
        <ele>951.20001220703</ele>
        <time>2019-06-27T18:40:44.000Z</time>
      </trkpt>
      <trkpt lat="43.94483" lon="1.79163">
        <ele>951.20001220703</ele>
        <time>2019-06-27T18:40:45.000Z</time>
      </trkpt>
      <trkpt lat="43.94483" lon="1.79163">
        <ele>951.20001220703</ele>
        <time>2019-06-27T18:40:46.000Z</time>
      </trkpt>
      <trkpt lat="43.94483" lon="1.79163">
        <ele>951.40002441406</ele>
        <time>2019-06-27T18:40:47.000Z</time>
      </trkpt>
      <trkpt lat="43.94483" lon="1.79163">
        <ele>951.20001220703</ele>
        <time>2019-06-27T18:40:48.000Z</time>
      </trkpt>
      <trkpt lat="43.94483" lon="1.79163">
        <ele>951.20001220703</ele>
        <time>2019-06-27T18:40:49.000Z</time>
      </trkpt>
      <trkpt lat="43.94483" lon="1.79163">
        <ele>951</ele>
        <time>2019-06-27T18:40:50.000Z</time>
      </trkpt>
      <trkpt lat="43.94483" lon="1.79163">
        <ele>951.20001220703</ele>
        <time>2019-06-27T18:40:51.000Z</time>
      </trkpt>
      <trkpt lat="43.94483" lon="1.79163">
        <ele>951.20001220703</ele>
        <time>2019-06-27T18:40:52.000Z</time>
      </trkpt>
      <trkpt lat="43.94483" lon="1.79163">
        <ele>951.20001220703</ele>
        <time>2019-06-27T18:40:53.000Z</time>
      </trkpt>
      <trkpt lat="43.94483" lon="1.79163">
        <ele>951.20001220703</ele>
        <time>2019-06-27T18:40:54.000Z</time>
      </trkpt>
      <trkpt lat="43.94483" lon="1.79163">
        <ele>951.20001220703</ele>
        <time>2019-06-27T18:40:55.000Z</time>
      </trkpt>
      <trkpt lat="43.94483" lon="1.79163">
        <ele>951.20001220703</ele>
        <time>2019-06-27T18:40:56.000Z</time>
      </trkpt>
      <trkpt lat="43.94483" lon="1.79163">
        <ele>951.20001220703</ele>
        <time>2019-06-27T18:40:57.000Z</time>
      </trkpt>
      <trkpt lat="43.94483" lon="1.79163">
        <ele>951.20001220703</ele>
        <time>2019-06-27T18:40:58.000Z</time>
      </trkpt>
      <trkpt lat="43.94483" lon="1.79163">
        <ele>951.20001220703</ele>
        <time>2019-06-27T18:40:59.000Z</time>
      </trkpt>
      <trkpt lat="43.94483" lon="1.79163">
        <ele>951.20001220703</ele>
        <time>2019-06-27T18:41:00.000Z</time>
      </trkpt>
      <trkpt lat="43.94483" lon="1.79163">
        <ele>951.20001220703</ele>
        <time>2019-06-27T18:41:01.000Z</time>
      </trkpt>
      <trkpt lat="43.94483" lon="1.79163">
        <ele>951.20001220703</ele>
        <time>2019-06-27T18:41:02.000Z</time>
      </trkpt>
      <trkpt lat="43.94484" lon="1.79163">
        <ele>951.20001220703</ele>
        <time>2019-06-27T18:41:03.000Z</time>
      </trkpt>
      <trkpt lat="43.94484" lon="1.79163">
        <ele>951.20001220703</ele>
        <time>2019-06-27T18:41:04.000Z</time>
      </trkpt>
      <trkpt lat="43.94484" lon="1.79163">
        <ele>951.20001220703</ele>
        <time>2019-06-27T18:41:05.000Z</time>
      </trkpt>
      <trkpt lat="43.94484" lon="1.79163">
        <ele>951.20001220703</ele>
        <time>2019-06-27T18:41:06.000Z</time>
      </trkpt>
      <trkpt lat="43.94484" lon="1.79163">
        <ele>951.20001220703</ele>
        <time>2019-06-27T18:41:07.000Z</time>
      </trkpt>
      <trkpt lat="43.94484" lon="1.79163">
        <ele>951.20001220703</ele>
        <time>2019-06-27T18:41:08.000Z</time>
      </trkpt>
      <trkpt lat="43.94484" lon="1.79163">
        <ele>951.20001220703</ele>
        <time>2019-06-27T18:41:09.000Z</time>
      </trkpt>
      <trkpt lat="43.94484" lon="1.79163">
        <ele>951.20001220703</ele>
        <time>2019-06-27T18:41:10.000Z</time>
      </trkpt>
      <trkpt lat="43.94484" lon="1.79163">
        <ele>951.20001220703</ele>
        <time>2019-06-27T18:41:11.000Z</time>
      </trkpt>
      <trkpt lat="43.94484" lon="1.79163">
        <ele>951.20001220703</ele>
        <time>2019-06-27T18:41:12.000Z</time>
      </trkpt>
      <trkpt lat="43.94484" lon="1.79163">
        <ele>951.20001220703</ele>
        <time>2019-06-27T18:41:13.000Z</time>
      </trkpt>
      <trkpt lat="43.94484" lon="1.79163">
        <ele>951.20001220703</ele>
        <time>2019-06-27T18:41:14.000Z</time>
      </trkpt>
      <trkpt lat="43.94484" lon="1.79163">
        <ele>951.20001220703</ele>
        <time>2019-06-27T18:41:15.000Z</time>
      </trkpt>
      <trkpt lat="43.94484" lon="1.79163">
        <ele>951.20001220703</ele>
        <time>2019-06-27T18:41:16.000Z</time>
      </trkpt>
      <trkpt lat="43.94484" lon="1.79163">
        <ele>951.20001220703</ele>
        <time>2019-06-27T18:41:17.000Z</time>
      </trkpt>
      <trkpt lat="43.94484" lon="1.79163">
        <ele>951.20001220703</ele>
        <time>2019-06-27T18:41:18.000Z</time>
      </trkpt>
      <trkpt lat="43.94484" lon="1.79163">
        <ele>951.20001220703</ele>
        <time>2019-06-27T18:41:19.000Z</time>
      </trkpt>
      <trkpt lat="43.94484" lon="1.79163">
        <ele>951.20001220703</ele>
        <time>2019-06-27T18:41:20.000Z</time>
      </trkpt>
      <trkpt lat="43.94484" lon="1.79163">
        <ele>951.20001220703</ele>
        <time>2019-06-27T18:41:21.000Z</time>
      </trkpt>
      <trkpt lat="43.94484" lon="1.79163">
        <ele>951.40002441406</ele>
        <time>2019-06-27T18:41:22.000Z</time>
      </trkpt>
      <trkpt lat="43.94484" lon="1.79163">
        <ele>951.20001220703</ele>
        <time>2019-06-27T18:41:23.000Z</time>
      </trkpt>
      <trkpt lat="43.94484" lon="1.79163">
        <ele>951.20001220703</ele>
        <time>2019-06-27T18:41:24.000Z</time>
      </trkpt>
      <trkpt lat="43.94484" lon="1.79163">
        <ele>951.40002441406</ele>
        <time>2019-06-27T18:41:25.000Z</time>
      </trkpt>
      <trkpt lat="43.94484" lon="1.79163">
        <ele>951.20001220703</ele>
        <time>2019-06-27T18:41:26.000Z</time>
      </trkpt>
      <trkpt lat="43.94484" lon="1.79163">
        <ele>951.20001220703</ele>
        <time>2019-06-27T18:41:27.000Z</time>
      </trkpt>
      <trkpt lat="43.94484" lon="1.79163">
        <ele>951.20001220703</ele>
        <time>2019-06-27T18:41:28.000Z</time>
      </trkpt>
      <trkpt lat="43.94484" lon="1.79163">
        <ele>951.20001220703</ele>
        <time>2019-06-27T18:41:29.000Z</time>
      </trkpt>
      <trkpt lat="43.94484" lon="1.79163">
        <ele>951.20001220703</ele>
        <time>2019-06-27T18:41:30.000Z</time>
      </trkpt>
      <trkpt lat="43.94484" lon="1.79163">
        <ele>951.20001220703</ele>
        <time>2019-06-27T18:41:31.000Z</time>
      </trkpt>
      <trkpt lat="43.94484" lon="1.79163">
        <ele>951.20001220703</ele>
        <time>2019-06-27T18:41:32.000Z</time>
      </trkpt>
      <trkpt lat="43.94483" lon="1.79164">
        <ele>951.20001220703</ele>
        <time>2019-06-27T18:41:33.000Z</time>
      </trkpt>
      <trkpt lat="43.94482" lon="1.79166">
        <ele>951.20001220703</ele>
        <time>2019-06-27T18:41:34.000Z</time>
      </trkpt>
      <trkpt lat="43.94482" lon="1.79168">
        <ele>951.20001220703</ele>
        <time>2019-06-27T18:41:35.000Z</time>
      </trkpt>
      <trkpt lat="43.94481" lon="1.79171">
        <ele>951.20001220703</ele>
        <time>2019-06-27T18:41:36.000Z</time>
      </trkpt>
      <trkpt lat="43.94481" lon="1.79174">
        <ele>951.20001220703</ele>
        <time>2019-06-27T18:41:37.000Z</time>
      </trkpt>
      <trkpt lat="43.9448" lon="1.79177">
        <ele>951.20001220703</ele>
        <time>2019-06-27T18:41:38.000Z</time>
      </trkpt>
      <trkpt lat="43.94479" lon="1.7918">
        <ele>951.20001220703</ele>
        <time>2019-06-27T18:41:39.000Z</time>
      </trkpt>
      <trkpt lat="43.94477" lon="1.79183">
        <ele>951.40002441406</ele>
        <time>2019-06-27T18:41:40.000Z</time>
      </trkpt>
      <trkpt lat="43.94476" lon="1.79187">
        <ele>951.20001220703</ele>
        <time>2019-06-27T18:41:41.000Z</time>
      </trkpt>
      <trkpt lat="43.94474" lon="1.79189">
        <ele>951.40002441406</ele>
        <time>2019-06-27T18:41:42.000Z</time>
      </trkpt>
      <trkpt lat="43.94473" lon="1.79192">
        <ele>951.40002441406</ele>
        <time>2019-06-27T18:41:43.000Z</time>
      </trkpt>
      <trkpt lat="43.94471" lon="1.79194">
        <ele>951.20001220703</ele>
        <time>2019-06-27T18:41:44.000Z</time>
      </trkpt>
      <trkpt lat="43.94468" lon="1.79196">
        <ele>951.40002441406</ele>
        <time>2019-06-27T18:41:45.000Z</time>
      </trkpt>
      <trkpt lat="43.94465" lon="1.79197">
        <ele>951.20001220703</ele>
        <time>2019-06-27T18:41:46.000Z</time>
      </trkpt>
      <trkpt lat="43.94462" lon="1.79199">
        <ele>951.20001220703</ele>
        <time>2019-06-27T18:41:47.000Z</time>
      </trkpt>
      <trkpt lat="43.9446" lon="1.792">
        <ele>951.20001220703</ele>
        <time>2019-06-27T18:41:48.000Z</time>
      </trkpt>
      <trkpt lat="43.94457" lon="1.792">
        <ele>951.20001220703</ele>
        <time>2019-06-27T18:41:49.000Z</time>
      </trkpt>
      <trkpt lat="43.94454" lon="1.79201">
        <ele>951.20001220703</ele>
        <time>2019-06-27T18:41:50.000Z</time>
      </trkpt>
      <trkpt lat="43.94452" lon="1.79201">
        <ele>951.20001220703</ele>
        <time>2019-06-27T18:41:51.000Z</time>
      </trkpt>
      <trkpt lat="43.94449" lon="1.79201">
        <ele>951.20001220703</ele>
        <time>2019-06-27T18:41:52.000Z</time>
      </trkpt>
      <trkpt lat="43.94446" lon="1.79202">
        <ele>951.20001220703</ele>
        <time>2019-06-27T18:41:53.000Z</time>
      </trkpt>
      <trkpt lat="43.94444" lon="1.79202">
        <ele>951.20001220703</ele>
        <time>2019-06-27T18:41:54.000Z</time>
      </trkpt>
      <trkpt lat="43.94441" lon="1.79202">
        <ele>951.20001220703</ele>
        <time>2019-06-27T18:41:55.000Z</time>
      </trkpt>
      <trkpt lat="43.94439" lon="1.79202">
        <ele>951.20001220703</ele>
        <time>2019-06-27T18:41:56.000Z</time>
      </trkpt>
      <trkpt lat="43.94436" lon="1.79202">
        <ele>951.20001220703</ele>
        <time>2019-06-27T18:41:57.000Z</time>
      </trkpt>
      <trkpt lat="43.94433" lon="1.79203">
        <ele>951.40002441406</ele>
        <time>2019-06-27T18:41:58.000Z</time>
      </trkpt>
      <trkpt lat="43.9443" lon="1.79203">
        <ele>951.20001220703</ele>
        <time>2019-06-27T18:41:59.000Z</time>
      </trkpt>
      <trkpt lat="43.94428" lon="1.79204">
        <ele>951.20001220703</ele>
        <time>2019-06-27T18:42:00.000Z</time>
      </trkpt>
      <trkpt lat="43.94425" lon="1.79204">
        <ele>951.20001220703</ele>
        <time>2019-06-27T18:42:01.000Z</time>
      </trkpt>
      <trkpt lat="43.94422" lon="1.79204">
        <ele>951.40002441406</ele>
        <time>2019-06-27T18:42:02.000Z</time>
      </trkpt>
      <trkpt lat="43.9442" lon="1.79205">
        <ele>951.40002441406</ele>
        <time>2019-06-27T18:42:03.000Z</time>
      </trkpt>
      <trkpt lat="43.94417" lon="1.79206">
        <ele>951.40002441406</ele>
        <time>2019-06-27T18:42:04.000Z</time>
      </trkpt>
      <trkpt lat="43.94414" lon="1.79207">
        <ele>951.40002441406</ele>
        <time>2019-06-27T18:42:05.000Z</time>
      </trkpt>
      <trkpt lat="43.94411" lon="1.79208">
        <ele>951.40002441406</ele>
        <time>2019-06-27T18:42:06.000Z</time>
      </trkpt>
      <trkpt lat="43.94408" lon="1.79209">
        <ele>951.40002441406</ele>
        <time>2019-06-27T18:42:07.000Z</time>
      </trkpt>
      <trkpt lat="43.94405" lon="1.7921">
        <ele>951.20001220703</ele>
        <time>2019-06-27T18:42:08.000Z</time>
      </trkpt>
      <trkpt lat="43.94402" lon="1.79211">
        <ele>951</ele>
        <time>2019-06-27T18:42:09.000Z</time>
      </trkpt>
      <trkpt lat="43.94399" lon="1.79212">
        <ele>951</ele>
        <time>2019-06-27T18:42:10.000Z</time>
      </trkpt>
      <trkpt lat="43.94396" lon="1.79214">
        <ele>951</ele>
        <time>2019-06-27T18:42:11.000Z</time>
      </trkpt>
      <trkpt lat="43.94393" lon="1.79215">
        <ele>951.20001220703</ele>
        <time>2019-06-27T18:42:12.000Z</time>
      </trkpt>
      <trkpt lat="43.9439" lon="1.79216">
        <ele>951.20001220703</ele>
        <time>2019-06-27T18:42:13.000Z</time>
      </trkpt>
      <trkpt lat="43.94387" lon="1.79217">
        <ele>951</ele>
        <time>2019-06-27T18:42:14.000Z</time>
      </trkpt>
      <trkpt lat="43.94384" lon="1.79217">
        <ele>951</ele>
        <time>2019-06-27T18:42:15.000Z</time>
      </trkpt>
      <trkpt lat="43.94381" lon="1.79218">
        <ele>951</ele>
        <time>2019-06-27T18:42:16.000Z</time>
      </trkpt>
      <trkpt lat="43.94377" lon="1.79217">
        <ele>951</ele>
        <time>2019-06-27T18:42:17.000Z</time>
      </trkpt>
      <trkpt lat="43.94374" lon="1.79217">
        <ele>951</ele>
        <time>2019-06-27T18:42:18.000Z</time>
      </trkpt>
      <trkpt lat="43.94371" lon="1.79216">
        <ele>950.79998779297</ele>
        <time>2019-06-27T18:42:19.000Z</time>
      </trkpt>
      <trkpt lat="43.94368" lon="1.79215">
        <ele>950.79998779297</ele>
        <time>2019-06-27T18:42:20.000Z</time>
      </trkpt>
      <trkpt lat="43.94365" lon="1.79214">
        <ele>950.59997558594</ele>
        <time>2019-06-27T18:42:21.000Z</time>
      </trkpt>
      <trkpt lat="43.94362" lon="1.79213">
        <ele>950.59997558594</ele>
        <time>2019-06-27T18:42:22.000Z</time>
      </trkpt>
      <trkpt lat="43.94359" lon="1.79213">
        <ele>950.79998779297</ele>
        <time>2019-06-27T18:42:23.000Z</time>
      </trkpt>
      <trkpt lat="43.94355" lon="1.79213">
        <ele>950.79998779297</ele>
        <time>2019-06-27T18:42:24.000Z</time>
      </trkpt>
      <trkpt lat="43.94352" lon="1.79213">
        <ele>950.79998779297</ele>
        <time>2019-06-27T18:42:25.000Z</time>
      </trkpt>
      <trkpt lat="43.94349" lon="1.79213">
        <ele>950.59997558594</ele>
        <time>2019-06-27T18:42:26.000Z</time>
      </trkpt>
      <trkpt lat="43.94345" lon="1.79214">
        <ele>950.59997558594</ele>
        <time>2019-06-27T18:42:27.000Z</time>
      </trkpt>
      <trkpt lat="43.94342" lon="1.79214">
        <ele>950.40002441406</ele>
        <time>2019-06-27T18:42:28.000Z</time>
      </trkpt>
      <trkpt lat="43.94339" lon="1.79215">
        <ele>950.40002441406</ele>
        <time>2019-06-27T18:42:29.000Z</time>
      </trkpt>
      <trkpt lat="43.94335" lon="1.79216">
        <ele>950.20001220703</ele>
        <time>2019-06-27T18:42:30.000Z</time>
      </trkpt>
      <trkpt lat="43.94332" lon="1.79217">
        <ele>950.20001220703</ele>
        <time>2019-06-27T18:42:31.000Z</time>
      </trkpt>
      <trkpt lat="43.94328" lon="1.79218">
        <ele>950.20001220703</ele>
        <time>2019-06-27T18:42:32.000Z</time>
      </trkpt>
      <trkpt lat="43.94324" lon="1.7922">
        <ele>950</ele>
        <time>2019-06-27T18:42:33.000Z</time>
      </trkpt>
      <trkpt lat="43.9432" lon="1.79221">
        <ele>950</ele>
        <time>2019-06-27T18:42:34.000Z</time>
      </trkpt>
      <trkpt lat="43.94316" lon="1.79222">
        <ele>950</ele>
        <time>2019-06-27T18:42:35.000Z</time>
      </trkpt>
      <trkpt lat="43.94313" lon="1.79224">
        <ele>950</ele>
        <time>2019-06-27T18:42:36.000Z</time>
      </trkpt>
      <trkpt lat="43.94309" lon="1.79225">
        <ele>949.79998779297</ele>
        <time>2019-06-27T18:42:37.000Z</time>
      </trkpt>
      <trkpt lat="43.94306" lon="1.79225">
        <ele>949.79998779297</ele>
        <time>2019-06-27T18:42:38.000Z</time>
      </trkpt>
      <trkpt lat="43.94302" lon="1.79226">
        <ele>949.79998779297</ele>
        <time>2019-06-27T18:42:39.000Z</time>
      </trkpt>
      <trkpt lat="43.94299" lon="1.79227">
        <ele>949.79998779297</ele>
        <time>2019-06-27T18:42:40.000Z</time>
      </trkpt>
      <trkpt lat="43.94295" lon="1.79228">
        <ele>949.59997558594</ele>
        <time>2019-06-27T18:42:41.000Z</time>
      </trkpt>
      <trkpt lat="43.94292" lon="1.79229">
        <ele>949.59997558594</ele>
        <time>2019-06-27T18:42:42.000Z</time>
      </trkpt>
      <trkpt lat="43.94289" lon="1.7923">
        <ele>949.59997558594</ele>
        <time>2019-06-27T18:42:43.000Z</time>
      </trkpt>
      <trkpt lat="43.94285" lon="1.79231">
        <ele>949.59997558594</ele>
        <time>2019-06-27T18:42:44.000Z</time>
      </trkpt>
      <trkpt lat="43.94282" lon="1.79232">
        <ele>949.79998779297</ele>
        <time>2019-06-27T18:42:45.000Z</time>
      </trkpt>
      <trkpt lat="43.94278" lon="1.79233">
        <ele>949.59997558594</ele>
        <time>2019-06-27T18:42:46.000Z</time>
      </trkpt>
      <trkpt lat="43.94275" lon="1.79234">
        <ele>949.59997558594</ele>
        <time>2019-06-27T18:42:47.000Z</time>
      </trkpt>
      <trkpt lat="43.94272" lon="1.79235">
        <ele>949.59997558594</ele>
        <time>2019-06-27T18:42:48.000Z</time>
      </trkpt>
      <trkpt lat="43.94269" lon="1.79237">
        <ele>950</ele>
        <time>2019-06-27T18:42:49.000Z</time>
      </trkpt>
      <trkpt lat="43.94265" lon="1.79238">
        <ele>949.79998779297</ele>
        <time>2019-06-27T18:42:50.000Z</time>
      </trkpt>
      <trkpt lat="43.94262" lon="1.79239">
        <ele>950</ele>
        <time>2019-06-27T18:42:51.000Z</time>
      </trkpt>
      <trkpt lat="43.94258" lon="1.79241">
        <ele>949.79998779297</ele>
        <time>2019-06-27T18:42:52.000Z</time>
      </trkpt>
      <trkpt lat="43.94255" lon="1.79242">
        <ele>949.79998779297</ele>
        <time>2019-06-27T18:42:53.000Z</time>
      </trkpt>
      <trkpt lat="43.94251" lon="1.79244">
        <ele>949.79998779297</ele>
        <time>2019-06-27T18:42:54.000Z</time>
      </trkpt>
      <trkpt lat="43.94248" lon="1.79245">
        <ele>949.79998779297</ele>
        <time>2019-06-27T18:42:55.000Z</time>
      </trkpt>
      <trkpt lat="43.94244" lon="1.79246">
        <ele>949.79998779297</ele>
        <time>2019-06-27T18:42:56.000Z</time>
      </trkpt>
      <trkpt lat="43.9424" lon="1.79248">
        <ele>949.79998779297</ele>
        <time>2019-06-27T18:42:57.000Z</time>
      </trkpt>
      <trkpt lat="43.94237" lon="1.79248">
        <ele>949.79998779297</ele>
        <time>2019-06-27T18:42:58.000Z</time>
      </trkpt>
      <trkpt lat="43.94233" lon="1.7925">
        <ele>950</ele>
        <time>2019-06-27T18:42:59.000Z</time>
      </trkpt>
      <trkpt lat="43.9423" lon="1.79251">
        <ele>950</ele>
        <time>2019-06-27T18:43:00.000Z</time>
      </trkpt>
      <trkpt lat="43.94227" lon="1.79252">
        <ele>950.20001220703</ele>
        <time>2019-06-27T18:43:01.000Z</time>
      </trkpt>
      <trkpt lat="43.94223" lon="1.79253">
        <ele>950.20001220703</ele>
        <time>2019-06-27T18:43:02.000Z</time>
      </trkpt>
      <trkpt lat="43.9422" lon="1.79254">
        <ele>950.40002441406</ele>
        <time>2019-06-27T18:43:03.000Z</time>
      </trkpt>
      <trkpt lat="43.94216" lon="1.79256">
        <ele>950.20001220703</ele>
        <time>2019-06-27T18:43:04.000Z</time>
      </trkpt>
      <trkpt lat="43.94213" lon="1.79257">
        <ele>950.40002441406</ele>
        <time>2019-06-27T18:43:05.000Z</time>
      </trkpt>
      <trkpt lat="43.9421" lon="1.79259">
        <ele>950.40002441406</ele>
        <time>2019-06-27T18:43:06.000Z</time>
      </trkpt>
      <trkpt lat="43.94206" lon="1.7926">
        <ele>950.59997558594</ele>
        <time>2019-06-27T18:43:07.000Z</time>
      </trkpt>
      <trkpt lat="43.94203" lon="1.79261">
        <ele>950.59997558594</ele>
        <time>2019-06-27T18:43:08.000Z</time>
      </trkpt>
      <trkpt lat="43.94199" lon="1.79262">
        <ele>950.59997558594</ele>
        <time>2019-06-27T18:43:09.000Z</time>
      </trkpt>
      <trkpt lat="43.94196" lon="1.79263">
        <ele>950.79998779297</ele>
        <time>2019-06-27T18:43:10.000Z</time>
      </trkpt>
      <trkpt lat="43.94193" lon="1.79264">
        <ele>951</ele>
        <time>2019-06-27T18:43:11.000Z</time>
      </trkpt>
      <trkpt lat="43.94189" lon="1.79266">
        <ele>951.20001220703</ele>
        <time>2019-06-27T18:43:12.000Z</time>
      </trkpt>
      <trkpt lat="43.94186" lon="1.79267">
        <ele>951.20001220703</ele>
        <time>2019-06-27T18:43:13.000Z</time>
      </trkpt>
      <trkpt lat="43.94182" lon="1.79268">
        <ele>951.20001220703</ele>
        <time>2019-06-27T18:43:14.000Z</time>
      </trkpt>
      <trkpt lat="43.94179" lon="1.79269">
        <ele>951.40002441406</ele>
        <time>2019-06-27T18:43:15.000Z</time>
      </trkpt>
      <trkpt lat="43.94176" lon="1.7927">
        <ele>951.40002441406</ele>
        <time>2019-06-27T18:43:16.000Z</time>
      </trkpt>
      <trkpt lat="43.94172" lon="1.79271">
        <ele>951.40002441406</ele>
        <time>2019-06-27T18:43:17.000Z</time>
      </trkpt>
      <trkpt lat="43.94169" lon="1.79272">
        <ele>951.40002441406</ele>
        <time>2019-06-27T18:43:18.000Z</time>
      </trkpt>
      <trkpt lat="43.94166" lon="1.79273">
        <ele>951.59997558594</ele>
        <time>2019-06-27T18:43:19.000Z</time>
      </trkpt>
      <trkpt lat="43.94163" lon="1.79274">
        <ele>951.79998779297</ele>
        <time>2019-06-27T18:43:20.000Z</time>
      </trkpt>
      <trkpt lat="43.94159" lon="1.79275">
        <ele>951.79998779297</ele>
        <time>2019-06-27T18:43:21.000Z</time>
      </trkpt>
      <trkpt lat="43.94156" lon="1.79276">
        <ele>951.79998779297</ele>
        <time>2019-06-27T18:43:22.000Z</time>
      </trkpt>
      <trkpt lat="43.94153" lon="1.79277">
        <ele>951.59997558594</ele>
        <time>2019-06-27T18:43:23.000Z</time>
      </trkpt>
      <trkpt lat="43.9415" lon="1.79278">
        <ele>951.59997558594</ele>
        <time>2019-06-27T18:43:24.000Z</time>
      </trkpt>
      <trkpt lat="43.94146" lon="1.79279">
        <ele>951.59997558594</ele>
        <time>2019-06-27T18:43:25.000Z</time>
      </trkpt>
      <trkpt lat="43.94143" lon="1.79281">
        <ele>951.79998779297</ele>
        <time>2019-06-27T18:43:26.000Z</time>
      </trkpt>
      <trkpt lat="43.9414" lon="1.79282">
        <ele>951.79998779297</ele>
        <time>2019-06-27T18:43:27.000Z</time>
      </trkpt>
      <trkpt lat="43.94137" lon="1.79284">
        <ele>951.79998779297</ele>
        <time>2019-06-27T18:43:28.000Z</time>
      </trkpt>
      <trkpt lat="43.94133" lon="1.79286">
        <ele>951.59997558594</ele>
        <time>2019-06-27T18:43:29.000Z</time>
      </trkpt>
      <trkpt lat="43.94129" lon="1.79288">
        <ele>951.59997558594</ele>
        <time>2019-06-27T18:43:30.000Z</time>
      </trkpt>
      <trkpt lat="43.94126" lon="1.7929">
        <ele>951.40002441406</ele>
        <time>2019-06-27T18:43:31.000Z</time>
      </trkpt>
      <trkpt lat="43.94122" lon="1.79291">
        <ele>951.40002441406</ele>
        <time>2019-06-27T18:43:32.000Z</time>
      </trkpt>
      <trkpt lat="43.94119" lon="1.79293">
        <ele>951.20001220703</ele>
        <time>2019-06-27T18:43:33.000Z</time>
      </trkpt>
      <trkpt lat="43.94115" lon="1.79295">
        <ele>951.20001220703</ele>
        <time>2019-06-27T18:43:34.000Z</time>
      </trkpt>
      <trkpt lat="43.94112" lon="1.79297">
        <ele>951</ele>
        <time>2019-06-27T18:43:35.000Z</time>
      </trkpt>
      <trkpt lat="43.94108" lon="1.79299">
        <ele>951</ele>
        <time>2019-06-27T18:43:36.000Z</time>
      </trkpt>
      <trkpt lat="43.94105" lon="1.79301">
        <ele>950.79998779297</ele>
        <time>2019-06-27T18:43:37.000Z</time>
      </trkpt>
      <trkpt lat="43.94102" lon="1.79303">
        <ele>950.79998779297</ele>
        <time>2019-06-27T18:43:38.000Z</time>
      </trkpt>
      <trkpt lat="43.94099" lon="1.79304">
        <ele>950.79998779297</ele>
        <time>2019-06-27T18:43:39.000Z</time>
      </trkpt>
      <trkpt lat="43.94097" lon="1.79305">
        <ele>950.59997558594</ele>
        <time>2019-06-27T18:43:40.000Z</time>
      </trkpt>
      <trkpt lat="43.94096" lon="1.79305">
        <ele>950.59997558594</ele>
        <time>2019-06-27T18:43:41.000Z</time>
      </trkpt>
      <trkpt lat="43.94094" lon="1.79305">
        <ele>950.40002441406</ele>
        <time>2019-06-27T18:43:42.000Z</time>
      </trkpt>
      <trkpt lat="43.94092" lon="1.79305">
        <ele>950.20001220703</ele>
        <time>2019-06-27T18:43:43.000Z</time>
      </trkpt>
      <trkpt lat="43.94091" lon="1.79305">
        <ele>950.20001220703</ele>
        <time>2019-06-27T18:43:44.000Z</time>
      </trkpt>
      <trkpt lat="43.94091" lon="1.79307">
        <ele>950.20001220703</ele>
        <time>2019-06-27T18:43:45.000Z</time>
      </trkpt>
      <trkpt lat="43.94092" lon="1.79309">
        <ele>950.40002441406</ele>
        <time>2019-06-27T18:43:46.000Z</time>
      </trkpt>
      <trkpt lat="43.94094" lon="1.7931">
        <ele>950.20001220703</ele>
        <time>2019-06-27T18:43:47.000Z</time>
      </trkpt>
      <trkpt lat="43.94096" lon="1.79309">
        <ele>950.20001220703</ele>
        <time>2019-06-27T18:43:48.000Z</time>
      </trkpt>
      <trkpt lat="43.94099" lon="1.79307">
        <ele>950.20001220703</ele>
        <time>2019-06-27T18:43:49.000Z</time>
      </trkpt>
      <trkpt lat="43.94101" lon="1.79304">
        <ele>950.20001220703</ele>
        <time>2019-06-27T18:43:50.000Z</time>
      </trkpt>
      <trkpt lat="43.94103" lon="1.79303">
        <ele>950</ele>
        <time>2019-06-27T18:43:51.000Z</time>
      </trkpt>
      <trkpt lat="43.94105" lon="1.79301">
        <ele>950.20001220703</ele>
        <time>2019-06-27T18:43:52.000Z</time>
      </trkpt>
      <trkpt lat="43.94107" lon="1.793">
        <ele>950.20001220703</ele>
        <time>2019-06-27T18:43:53.000Z</time>
      </trkpt>
      <trkpt lat="43.9411" lon="1.79299">
        <ele>950.40002441406</ele>
        <time>2019-06-27T18:43:54.000Z</time>
      </trkpt>
      <trkpt lat="43.94112" lon="1.79298">
        <ele>950.40002441406</ele>
        <time>2019-06-27T18:43:55.000Z</time>
      </trkpt>
      <trkpt lat="43.94114" lon="1.79296">
        <ele>950.40002441406</ele>
        <time>2019-06-27T18:43:56.000Z</time>
      </trkpt>
      <trkpt lat="43.94116" lon="1.79295">
        <ele>950.59997558594</ele>
        <time>2019-06-27T18:43:57.000Z</time>
      </trkpt>
      <trkpt lat="43.94118" lon="1.79294">
        <ele>950.59997558594</ele>
        <time>2019-06-27T18:43:58.000Z</time>
      </trkpt>
      <trkpt lat="43.9412" lon="1.79293">
        <ele>950.59997558594</ele>
        <time>2019-06-27T18:43:59.000Z</time>
      </trkpt>
      <trkpt lat="43.94122" lon="1.79292">
        <ele>950.79998779297</ele>
        <time>2019-06-27T18:44:00.000Z</time>
      </trkpt>
      <trkpt lat="43.94125" lon="1.79291">
        <ele>950.79998779297</ele>
        <time>2019-06-27T18:44:01.000Z</time>
      </trkpt>
      <trkpt lat="43.94127" lon="1.7929">
        <ele>950.79998779297</ele>
        <time>2019-06-27T18:44:02.000Z</time>
      </trkpt>
      <trkpt lat="43.94129" lon="1.79289">
        <ele>950.79998779297</ele>
        <time>2019-06-27T18:44:03.000Z</time>
      </trkpt>
      <trkpt lat="43.94131" lon="1.79288">
        <ele>950.79998779297</ele>
        <time>2019-06-27T18:44:04.000Z</time>
      </trkpt>
      <trkpt lat="43.94133" lon="1.79287">
        <ele>951</ele>
        <time>2019-06-27T18:44:05.000Z</time>
      </trkpt>
      <trkpt lat="43.94135" lon="1.79285">
        <ele>951</ele>
        <time>2019-06-27T18:44:06.000Z</time>
      </trkpt>
      <trkpt lat="43.94137" lon="1.79284">
        <ele>950.79998779297</ele>
        <time>2019-06-27T18:44:07.000Z</time>
      </trkpt>
      <trkpt lat="43.9414" lon="1.79283">
        <ele>950.79998779297</ele>
        <time>2019-06-27T18:44:08.000Z</time>
      </trkpt>
      <trkpt lat="43.94142" lon="1.79282">
        <ele>951</ele>
        <time>2019-06-27T18:44:09.000Z</time>
      </trkpt>
      <trkpt lat="43.94144" lon="1.79281">
        <ele>951</ele>
        <time>2019-06-27T18:44:10.000Z</time>
      </trkpt>
      <trkpt lat="43.94146" lon="1.7928">
        <ele>951.20001220703</ele>
        <time>2019-06-27T18:44:11.000Z</time>
      </trkpt>
      <trkpt lat="43.94148" lon="1.79279">
        <ele>951.20001220703</ele>
        <time>2019-06-27T18:44:12.000Z</time>
      </trkpt>
      <trkpt lat="43.9415" lon="1.79278">
        <ele>951.20001220703</ele>
        <time>2019-06-27T18:44:13.000Z</time>
      </trkpt>
      <trkpt lat="43.94153" lon="1.79277">
        <ele>951.40002441406</ele>
        <time>2019-06-27T18:44:14.000Z</time>
      </trkpt>
      <trkpt lat="43.94155" lon="1.79277">
        <ele>951.20001220703</ele>
        <time>2019-06-27T18:44:15.000Z</time>
      </trkpt>
      <trkpt lat="43.94157" lon="1.79275">
        <ele>951.20001220703</ele>
        <time>2019-06-27T18:44:16.000Z</time>
      </trkpt>
      <trkpt lat="43.94159" lon="1.79275">
        <ele>951.40002441406</ele>
        <time>2019-06-27T18:44:17.000Z</time>
      </trkpt>
      <trkpt lat="43.94161" lon="1.79274">
        <ele>951.59997558594</ele>
        <time>2019-06-27T18:44:18.000Z</time>
      </trkpt>
      <trkpt lat="43.94164" lon="1.79273">
        <ele>951.59997558594</ele>
        <time>2019-06-27T18:44:19.000Z</time>
      </trkpt>
      <trkpt lat="43.94166" lon="1.79272">
        <ele>951.59997558594</ele>
        <time>2019-06-27T18:44:20.000Z</time>
      </trkpt>
      <trkpt lat="43.94169" lon="1.79271">
        <ele>951.59997558594</ele>
        <time>2019-06-27T18:44:21.000Z</time>
      </trkpt>
      <trkpt lat="43.94171" lon="1.79271">
        <ele>951.40002441406</ele>
        <time>2019-06-27T18:44:22.000Z</time>
      </trkpt>
      <trkpt lat="43.94173" lon="1.7927">
        <ele>951.59997558594</ele>
        <time>2019-06-27T18:44:23.000Z</time>
      </trkpt>
      <trkpt lat="43.94176" lon="1.79269">
        <ele>951.59997558594</ele>
        <time>2019-06-27T18:44:24.000Z</time>
      </trkpt>
      <trkpt lat="43.94178" lon="1.79269">
        <ele>951.59997558594</ele>
        <time>2019-06-27T18:44:25.000Z</time>
      </trkpt>
      <trkpt lat="43.94181" lon="1.79268">
        <ele>951.40002441406</ele>
        <time>2019-06-27T18:44:26.000Z</time>
      </trkpt>
      <trkpt lat="43.94184" lon="1.79267">
        <ele>951.40002441406</ele>
        <time>2019-06-27T18:44:27.000Z</time>
      </trkpt>
      <trkpt lat="43.94186" lon="1.79266">
        <ele>951.40002441406</ele>
        <time>2019-06-27T18:44:28.000Z</time>
      </trkpt>
      <trkpt lat="43.94189" lon="1.79265">
        <ele>951.20001220703</ele>
        <time>2019-06-27T18:44:29.000Z</time>
      </trkpt>
      <trkpt lat="43.94192" lon="1.79265">
        <ele>951.20001220703</ele>
        <time>2019-06-27T18:44:30.000Z</time>
      </trkpt>
      <trkpt lat="43.94195" lon="1.79264">
        <ele>951</ele>
        <time>2019-06-27T18:44:31.000Z</time>
      </trkpt>
      <trkpt lat="43.94197" lon="1.79263">
        <ele>951</ele>
        <time>2019-06-27T18:44:32.000Z</time>
      </trkpt>
      <trkpt lat="43.94201" lon="1.79261">
        <ele>951</ele>
        <time>2019-06-27T18:44:33.000Z</time>
      </trkpt>
      <trkpt lat="43.94204" lon="1.7926">
        <ele>950.79998779297</ele>
        <time>2019-06-27T18:44:34.000Z</time>
      </trkpt>
      <trkpt lat="43.94207" lon="1.79259">
        <ele>950.79998779297</ele>
        <time>2019-06-27T18:44:35.000Z</time>
      </trkpt>
      <trkpt lat="43.94211" lon="1.79258">
        <ele>950.79998779297</ele>
        <time>2019-06-27T18:44:36.000Z</time>
      </trkpt>
      <trkpt lat="43.94214" lon="1.79256">
        <ele>950.79998779297</ele>
        <time>2019-06-27T18:44:37.000Z</time>
      </trkpt>
      <trkpt lat="43.94218" lon="1.79255">
        <ele>950.59997558594</ele>
        <time>2019-06-27T18:44:38.000Z</time>
      </trkpt>
      <trkpt lat="43.94221" lon="1.79254">
        <ele>950.59997558594</ele>
        <time>2019-06-27T18:44:39.000Z</time>
      </trkpt>
      <trkpt lat="43.94225" lon="1.79252">
        <ele>950.40002441406</ele>
        <time>2019-06-27T18:44:40.000Z</time>
      </trkpt>
      <trkpt lat="43.94228" lon="1.79251">
        <ele>950.20001220703</ele>
        <time>2019-06-27T18:44:41.000Z</time>
      </trkpt>
      <trkpt lat="43.94232" lon="1.7925">
        <ele>950.20001220703</ele>
        <time>2019-06-27T18:44:42.000Z</time>
      </trkpt>
      <trkpt lat="43.94236" lon="1.79248">
        <ele>950</ele>
        <time>2019-06-27T18:44:43.000Z</time>
      </trkpt>
      <trkpt lat="43.94239" lon="1.79247">
        <ele>950</ele>
        <time>2019-06-27T18:44:44.000Z</time>
      </trkpt>
      <trkpt lat="43.94243" lon="1.79246">
        <ele>950</ele>
        <time>2019-06-27T18:44:45.000Z</time>
      </trkpt>
      <trkpt lat="43.94247" lon="1.79245">
        <ele>950</ele>
        <time>2019-06-27T18:44:46.000Z</time>
      </trkpt>
      <trkpt lat="43.9425" lon="1.79243">
        <ele>949.79998779297</ele>
        <time>2019-06-27T18:44:47.000Z</time>
      </trkpt>
      <trkpt lat="43.94254" lon="1.79242">
        <ele>949.79998779297</ele>
        <time>2019-06-27T18:44:48.000Z</time>
      </trkpt>
      <trkpt lat="43.94258" lon="1.7924">
        <ele>949.79998779297</ele>
        <time>2019-06-27T18:44:49.000Z</time>
      </trkpt>
      <trkpt lat="43.94261" lon="1.79239">
        <ele>949.79998779297</ele>
        <time>2019-06-27T18:44:50.000Z</time>
      </trkpt>
      <trkpt lat="43.94265" lon="1.79237">
        <ele>949.79998779297</ele>
        <time>2019-06-27T18:44:51.000Z</time>
      </trkpt>
      <trkpt lat="43.94268" lon="1.79236">
        <ele>949.79998779297</ele>
        <time>2019-06-27T18:44:52.000Z</time>
      </trkpt>
      <trkpt lat="43.94271" lon="1.79234">
        <ele>949.59997558594</ele>
        <time>2019-06-27T18:44:53.000Z</time>
      </trkpt>
      <trkpt lat="43.94275" lon="1.79233">
        <ele>949.59997558594</ele>
        <time>2019-06-27T18:44:54.000Z</time>
      </trkpt>
      <trkpt lat="43.94278" lon="1.79232">
        <ele>949.59997558594</ele>
        <time>2019-06-27T18:44:55.000Z</time>
      </trkpt>
      <trkpt lat="43.94281" lon="1.79231">
        <ele>949.59997558594</ele>
        <time>2019-06-27T18:44:56.000Z</time>
      </trkpt>
      <trkpt lat="43.94285" lon="1.7923">
        <ele>949.40002441406</ele>
        <time>2019-06-27T18:44:57.000Z</time>
      </trkpt>
      <trkpt lat="43.94288" lon="1.79229">
        <ele>949.59997558594</ele>
        <time>2019-06-27T18:44:58.000Z</time>
      </trkpt>
      <trkpt lat="43.94291" lon="1.79228">
        <ele>949.59997558594</ele>
        <time>2019-06-27T18:44:59.000Z</time>
      </trkpt>
      <trkpt lat="43.94294" lon="1.79228">
        <ele>949.79998779297</ele>
        <time>2019-06-27T18:45:00.000Z</time>
      </trkpt>
      <trkpt lat="43.94297" lon="1.79227">
        <ele>949.59997558594</ele>
        <time>2019-06-27T18:45:01.000Z</time>
      </trkpt>
      <trkpt lat="43.94301" lon="1.79226">
        <ele>949.59997558594</ele>
        <time>2019-06-27T18:45:02.000Z</time>
      </trkpt>
      <trkpt lat="43.94304" lon="1.79225">
        <ele>949.59997558594</ele>
        <time>2019-06-27T18:45:03.000Z</time>
      </trkpt>
      <trkpt lat="43.94307" lon="1.79224">
        <ele>949.59997558594</ele>
        <time>2019-06-27T18:45:04.000Z</time>
      </trkpt>
      <trkpt lat="43.9431" lon="1.79223">
        <ele>949.40002441406</ele>
        <time>2019-06-27T18:45:05.000Z</time>
      </trkpt>
      <trkpt lat="43.94313" lon="1.79223">
        <ele>949.40002441406</ele>
        <time>2019-06-27T18:45:06.000Z</time>
      </trkpt>
      <trkpt lat="43.94316" lon="1.79222">
        <ele>949.40002441406</ele>
        <time>2019-06-27T18:45:07.000Z</time>
      </trkpt>
      <trkpt lat="43.94319" lon="1.79221">
        <ele>949.40002441406</ele>
        <time>2019-06-27T18:45:08.000Z</time>
      </trkpt>
      <trkpt lat="43.94322" lon="1.7922">
        <ele>949.40002441406</ele>
        <time>2019-06-27T18:45:09.000Z</time>
      </trkpt>
      <trkpt lat="43.94325" lon="1.79219">
        <ele>949.59997558594</ele>
        <time>2019-06-27T18:45:10.000Z</time>
      </trkpt>
      <trkpt lat="43.94328" lon="1.79218">
        <ele>949.79998779297</ele>
        <time>2019-06-27T18:45:11.000Z</time>
      </trkpt>
      <trkpt lat="43.94331" lon="1.79217">
        <ele>949.79998779297</ele>
        <time>2019-06-27T18:45:12.000Z</time>
      </trkpt>
      <trkpt lat="43.94334" lon="1.79216">
        <ele>949.79998779297</ele>
        <time>2019-06-27T18:45:13.000Z</time>
      </trkpt>
      <trkpt lat="43.94336" lon="1.79215">
        <ele>949.79998779297</ele>
        <time>2019-06-27T18:45:14.000Z</time>
      </trkpt>
      <trkpt lat="43.94339" lon="1.79215">
        <ele>949.79998779297</ele>
        <time>2019-06-27T18:45:15.000Z</time>
      </trkpt>
      <trkpt lat="43.94342" lon="1.79215">
        <ele>949.79998779297</ele>
        <time>2019-06-27T18:45:16.000Z</time>
      </trkpt>
      <trkpt lat="43.94345" lon="1.79214">
        <ele>949.79998779297</ele>
        <time>2019-06-27T18:45:17.000Z</time>
      </trkpt>
      <trkpt lat="43.94348" lon="1.79214">
        <ele>950</ele>
        <time>2019-06-27T18:45:18.000Z</time>
      </trkpt>
      <trkpt lat="43.94351" lon="1.79213">
        <ele>950.20001220703</ele>
        <time>2019-06-27T18:45:19.000Z</time>
      </trkpt>
      <trkpt lat="43.94354" lon="1.79213">
        <ele>950.40002441406</ele>
        <time>2019-06-27T18:45:20.000Z</time>
      </trkpt>
      <trkpt lat="43.94358" lon="1.79212">
        <ele>950.40002441406</ele>
        <time>2019-06-27T18:45:21.000Z</time>
      </trkpt>
      <trkpt lat="43.94361" lon="1.79213">
        <ele>950.59997558594</ele>
        <time>2019-06-27T18:45:22.000Z</time>
      </trkpt>
      <trkpt lat="43.94364" lon="1.79213">
        <ele>950.59997558594</ele>
        <time>2019-06-27T18:45:23.000Z</time>
      </trkpt>
      <trkpt lat="43.94366" lon="1.79214">
        <ele>951</ele>
        <time>2019-06-27T18:45:24.000Z</time>
      </trkpt>
      <trkpt lat="43.94369" lon="1.79215">
        <ele>950.79998779297</ele>
        <time>2019-06-27T18:45:25.000Z</time>
      </trkpt>
      <trkpt lat="43.94373" lon="1.79216">
        <ele>950.59997558594</ele>
        <time>2019-06-27T18:45:26.000Z</time>
      </trkpt>
      <trkpt lat="43.94376" lon="1.79217">
        <ele>950.79998779297</ele>
        <time>2019-06-27T18:45:27.000Z</time>
      </trkpt>
      <trkpt lat="43.94379" lon="1.79217">
        <ele>950.79998779297</ele>
        <time>2019-06-27T18:45:28.000Z</time>
      </trkpt>
      <trkpt lat="43.94382" lon="1.79217">
        <ele>951</ele>
        <time>2019-06-27T18:45:29.000Z</time>
      </trkpt>
      <trkpt lat="43.94385" lon="1.79216">
        <ele>951</ele>
        <time>2019-06-27T18:45:30.000Z</time>
      </trkpt>
      <trkpt lat="43.94388" lon="1.79215">
        <ele>951</ele>
        <time>2019-06-27T18:45:31.000Z</time>
      </trkpt>
      <trkpt lat="43.94391" lon="1.79214">
        <ele>951</ele>
        <time>2019-06-27T18:45:32.000Z</time>
      </trkpt>
      <trkpt lat="43.94394" lon="1.79213">
        <ele>951.20001220703</ele>
        <time>2019-06-27T18:45:33.000Z</time>
      </trkpt>
      <trkpt lat="43.94397" lon="1.79211">
        <ele>951</ele>
        <time>2019-06-27T18:45:34.000Z</time>
      </trkpt>
      <trkpt lat="43.944" lon="1.7921">
        <ele>951</ele>
        <time>2019-06-27T18:45:35.000Z</time>
      </trkpt>
      <trkpt lat="43.94403" lon="1.79209">
        <ele>951</ele>
        <time>2019-06-27T18:45:36.000Z</time>
      </trkpt>
      <trkpt lat="43.94406" lon="1.79208">
        <ele>951</ele>
        <time>2019-06-27T18:45:37.000Z</time>
      </trkpt>
      <trkpt lat="43.94409" lon="1.79207">
        <ele>951.20001220703</ele>
        <time>2019-06-27T18:45:38.000Z</time>
      </trkpt>
      <trkpt lat="43.94412" lon="1.79206">
        <ele>951.20001220703</ele>
        <time>2019-06-27T18:45:39.000Z</time>
      </trkpt>
      <trkpt lat="43.94414" lon="1.79205">
        <ele>951.40002441406</ele>
        <time>2019-06-27T18:45:40.000Z</time>
      </trkpt>
      <trkpt lat="43.94417" lon="1.79204">
        <ele>951.40002441406</ele>
        <time>2019-06-27T18:45:41.000Z</time>
      </trkpt>
      <trkpt lat="43.9442" lon="1.79203">
        <ele>951.40002441406</ele>
        <time>2019-06-27T18:45:42.000Z</time>
      </trkpt>
      <trkpt lat="43.94423" lon="1.79203">
        <ele>951.40002441406</ele>
        <time>2019-06-27T18:45:43.000Z</time>
      </trkpt>
      <trkpt lat="43.94427" lon="1.79202">
        <ele>951.40002441406</ele>
        <time>2019-06-27T18:45:44.000Z</time>
      </trkpt>
      <trkpt lat="43.9443" lon="1.79201">
        <ele>951.20001220703</ele>
        <time>2019-06-27T18:45:45.000Z</time>
      </trkpt>
      <trkpt lat="43.94433" lon="1.79201">
        <ele>951.20001220703</ele>
        <time>2019-06-27T18:45:46.000Z</time>
      </trkpt>
      <trkpt lat="43.94436" lon="1.792">
        <ele>951.40002441406</ele>
        <time>2019-06-27T18:45:47.000Z</time>
      </trkpt>
      <trkpt lat="43.94439" lon="1.792">
        <ele>951.40002441406</ele>
        <time>2019-06-27T18:45:48.000Z</time>
      </trkpt>
      <trkpt lat="43.94442" lon="1.792">
        <ele>951.40002441406</ele>
        <time>2019-06-27T18:45:49.000Z</time>
      </trkpt>
      <trkpt lat="43.94446" lon="1.792">
        <ele>951.40002441406</ele>
        <time>2019-06-27T18:45:50.000Z</time>
      </trkpt>
      <trkpt lat="43.94449" lon="1.79199">
        <ele>951.59997558594</ele>
        <time>2019-06-27T18:45:51.000Z</time>
      </trkpt>
      <trkpt lat="43.94452" lon="1.79198">
        <ele>951.59997558594</ele>
        <time>2019-06-27T18:45:52.000Z</time>
      </trkpt>
      <trkpt lat="43.94455" lon="1.79198">
        <ele>951.59997558594</ele>
        <time>2019-06-27T18:45:53.000Z</time>
      </trkpt>
      <trkpt lat="43.94458" lon="1.79197">
        <ele>951.40002441406</ele>
        <time>2019-06-27T18:45:54.000Z</time>
      </trkpt>
      <trkpt lat="43.94461" lon="1.79197">
        <ele>951.40002441406</ele>
        <time>2019-06-27T18:45:55.000Z</time>
      </trkpt>
      <trkpt lat="43.94464" lon="1.79196">
        <ele>951.40002441406</ele>
        <time>2019-06-27T18:45:56.000Z</time>
      </trkpt>
      <trkpt lat="43.94467" lon="1.79195">
        <ele>951.40002441406</ele>
        <time>2019-06-27T18:45:57.000Z</time>
      </trkpt>
      <trkpt lat="43.9447" lon="1.79193">
        <ele>951.40002441406</ele>
        <time>2019-06-27T18:45:58.000Z</time>
      </trkpt>
      <trkpt lat="43.94472" lon="1.79192">
        <ele>951.40002441406</ele>
        <time>2019-06-27T18:45:59.000Z</time>
      </trkpt>
      <trkpt lat="43.94475" lon="1.79189">
        <ele>951.40002441406</ele>
        <time>2019-06-27T18:46:00.000Z</time>
      </trkpt>
      <trkpt lat="43.94477" lon="1.79187">
        <ele>951.59997558594</ele>
        <time>2019-06-27T18:46:01.000Z</time>
      </trkpt>
      <trkpt lat="43.94478" lon="1.79183">
        <ele>951.59997558594</ele>
        <time>2019-06-27T18:46:02.000Z</time>
      </trkpt>
      <trkpt lat="43.94479" lon="1.7918">
        <ele>951.59997558594</ele>
        <time>2019-06-27T18:46:03.000Z</time>
      </trkpt>
      <trkpt lat="43.94481" lon="1.79177">
        <ele>951.59997558594</ele>
        <time>2019-06-27T18:46:04.000Z</time>
      </trkpt>
      <trkpt lat="43.94482" lon="1.79174">
        <ele>951.59997558594</ele>
        <time>2019-06-27T18:46:05.000Z</time>
      </trkpt>
      <trkpt lat="43.94483" lon="1.79172">
        <ele>951.59997558594</ele>
        <time>2019-06-27T18:46:06.000Z</time>
      </trkpt>
      <trkpt lat="43.94484" lon="1.79169">
        <ele>951.40002441406</ele>
        <time>2019-06-27T18:46:07.000Z</time>
      </trkpt>
      <trkpt lat="43.94485" lon="1.79167">
        <ele>951.40002441406</ele>
        <time>2019-06-27T18:46:08.000Z</time>
      </trkpt>
      <trkpt lat="43.94486" lon="1.79165">
        <ele>951.40002441406</ele>
        <time>2019-06-27T18:46:09.000Z</time>
      </trkpt>
      <trkpt lat="43.94486" lon="1.79166">
        <ele>951.40002441406</ele>
        <time>2019-06-27T18:46:10.000Z</time>
      </trkpt>
      <trkpt lat="43.94486" lon="1.79165">
        <ele>951.40002441406</ele>
        <time>2019-06-27T18:46:11.000Z</time>
      </trkpt>
      <trkpt lat="43.94486" lon="1.79165">
        <ele>951.40002441406</ele>
        <time>2019-06-27T18:46:12.000Z</time>
      </trkpt>
      <trkpt lat="43.94486" lon="1.79165">
        <ele>951.40002441406</ele>
        <time>2019-06-27T18:46:13.000Z</time>
      </trkpt>
      <trkpt lat="43.94486" lon="1.79165">
        <ele>951.40002441406</ele>
        <time>2019-06-27T18:46:14.000Z</time>
      </trkpt>
      <trkpt lat="43.94486" lon="1.79165">
        <ele>951.40002441406</ele>
        <time>2019-06-27T18:46:15.000Z</time>
      </trkpt>
      <trkpt lat="43.94486" lon="1.79165">
        <ele>951.40002441406</ele>
        <time>2019-06-27T18:46:16.000Z</time>
      </trkpt>
      <trkpt lat="43.94486" lon="1.79165">
        <ele>951.40002441406</ele>
        <time>2019-06-27T18:46:17.000Z</time>
      </trkpt>
      <trkpt lat="43.94486" lon="1.79165">
        <ele>951.20001220703</ele>
        <time>2019-06-27T18:46:18.000Z</time>
      </trkpt>
      <trkpt lat="43.94486" lon="1.79165">
        <ele>951.20001220703</ele>
        <time>2019-06-27T18:46:19.000Z</time>
      </trkpt>
      <trkpt lat="43.94486" lon="1.79165">
        <ele>951.20001220703</ele>
        <time>2019-06-27T18:46:20.000Z</time>
      </trkpt>
      <trkpt lat="43.94486" lon="1.79165">
        <ele>951.20001220703</ele>
        <time>2019-06-27T18:46:21.000Z</time>
      </trkpt>
      <trkpt lat="43.94486" lon="1.79165">
        <ele>951.20001220703</ele>
        <time>2019-06-27T18:46:22.000Z</time>
      </trkpt>
      <trkpt lat="43.94486" lon="1.79165">
        <ele>951.20001220703</ele>
        <time>2019-06-27T18:46:23.000Z</time>
      </trkpt>
      <trkpt lat="43.94486" lon="1.79165">
        <ele>951.20001220703</ele>
        <time>2019-06-27T18:46:24.000Z</time>
      </trkpt>
      <trkpt lat="43.94486" lon="1.79165">
        <ele>951.20001220703</ele>
        <time>2019-06-27T18:46:25.000Z</time>
      </trkpt>
      <trkpt lat="43.94486" lon="1.79165">
        <ele>951.20001220703</ele>
        <time>2019-06-27T18:46:26.000Z</time>
      </trkpt>
      <trkpt lat="43.94486" lon="1.79165">
        <ele>951.20001220703</ele>
        <time>2019-06-27T18:46:27.000Z</time>
      </trkpt>
      <trkpt lat="43.94486" lon="1.79165">
        <ele>951.20001220703</ele>
        <time>2019-06-27T18:46:28.000Z</time>
      </trkpt>
      <trkpt lat="43.94486" lon="1.79165">
        <ele>951.20001220703</ele>
        <time>2019-06-27T18:46:29.000Z</time>
      </trkpt>
      <trkpt lat="43.94486" lon="1.79165">
        <ele>951.20001220703</ele>
        <time>2019-06-27T18:46:30.000Z</time>
      </trkpt>
      <trkpt lat="43.94486" lon="1.79165">
        <ele>951.20001220703</ele>
        <time>2019-06-27T18:46:31.000Z</time>
      </trkpt>
      <trkpt lat="43.94486" lon="1.79165">
        <ele>951.20001220703</ele>
        <time>2019-06-27T18:46:32.000Z</time>
      </trkpt>
      <trkpt lat="43.94487" lon="1.79165">
        <ele>951.20001220703</ele>
        <time>2019-06-27T18:46:33.000Z</time>
      </trkpt>
      <trkpt lat="43.94487" lon="1.79165">
        <ele>951.20001220703</ele>
        <time>2019-06-27T18:46:34.000Z</time>
      </trkpt>
      <trkpt lat="43.94488" lon="1.79164">
        <ele>951.20001220703</ele>
        <time>2019-06-27T18:46:35.000Z</time>
      </trkpt>
      <trkpt lat="43.94489" lon="1.79163">
        <ele>951.20001220703</ele>
        <time>2019-06-27T18:46:36.000Z</time>
      </trkpt>
      <trkpt lat="43.94491" lon="1.79163">
        <ele>951.20001220703</ele>
        <time>2019-06-27T18:46:37.000Z</time>
      </trkpt>
      <trkpt lat="43.94492" lon="1.79163">
        <ele>951.40002441406</ele>
        <time>2019-06-27T18:46:38.000Z</time>
      </trkpt>
      <trkpt lat="43.94493" lon="1.79163">
        <ele>951.40002441406</ele>
        <time>2019-06-27T18:46:39.000Z</time>
      </trkpt>
      <trkpt lat="43.94493" lon="1.79164">
        <ele>951.40002441406</ele>
        <time>2019-06-27T18:46:40.000Z</time>
      </trkpt>
      <trkpt lat="43.94494" lon="1.79165">
        <ele>951.40002441406</ele>
        <time>2019-06-27T18:46:41.000Z</time>
      </trkpt>
      <trkpt lat="43.94496" lon="1.79166">
        <ele>951.59997558594</ele>
        <time>2019-06-27T18:46:42.000Z</time>
      </trkpt>
      <trkpt lat="43.94497" lon="1.79167">
        <ele>951.40002441406</ele>
        <time>2019-06-27T18:46:43.000Z</time>
      </trkpt>
      <trkpt lat="43.94498" lon="1.79168">
        <ele>951.40002441406</ele>
        <time>2019-06-27T18:46:44.000Z</time>
      </trkpt>
      <trkpt lat="43.94498" lon="1.79169">
        <ele>951.59997558594</ele>
        <time>2019-06-27T18:46:45.000Z</time>
      </trkpt>
      <trkpt lat="43.94499" lon="1.7917">
        <ele>951.59997558594</ele>
        <time>2019-06-27T18:46:46.000Z</time>
      </trkpt>
      <trkpt lat="43.945" lon="1.79171">
        <ele>951.59997558594</ele>
        <time>2019-06-27T18:46:47.000Z</time>
      </trkpt>
      <trkpt lat="43.94501" lon="1.79172">
        <ele>951.59997558594</ele>
        <time>2019-06-27T18:46:48.000Z</time>
      </trkpt>
      <trkpt lat="43.94502" lon="1.79173">
        <ele>951.59997558594</ele>
        <time>2019-06-27T18:46:49.000Z</time>
      </trkpt>
      <trkpt lat="43.94503" lon="1.79174">
        <ele>951.59997558594</ele>
        <time>2019-06-27T18:46:50.000Z</time>
      </trkpt>
      <trkpt lat="43.94504" lon="1.79175">
        <ele>951.59997558594</ele>
        <time>2019-06-27T18:46:51.000Z</time>
      </trkpt>
      <trkpt lat="43.94506" lon="1.79177">
        <ele>951.59997558594</ele>
        <time>2019-06-27T18:46:52.000Z</time>
      </trkpt>
      <trkpt lat="43.94507" lon="1.79179">
        <ele>951.59997558594</ele>
        <time>2019-06-27T18:46:53.000Z</time>
      </trkpt>
      <trkpt lat="43.94508" lon="1.7918">
        <ele>951.59997558594</ele>
        <time>2019-06-27T18:46:54.000Z</time>
      </trkpt>
      <trkpt lat="43.94509" lon="1.79182">
        <ele>951.59997558594</ele>
        <time>2019-06-27T18:46:55.000Z</time>
      </trkpt>
      <trkpt lat="43.94511" lon="1.79183">
        <ele>951.59997558594</ele>
        <time>2019-06-27T18:46:56.000Z</time>
      </trkpt>
      <trkpt lat="43.94512" lon="1.79185">
        <ele>951.59997558594</ele>
        <time>2019-06-27T18:46:57.000Z</time>
      </trkpt>
      <trkpt lat="43.94513" lon="1.79187">
        <ele>951.79998779297</ele>
        <time>2019-06-27T18:46:58.000Z</time>
      </trkpt>
      <trkpt lat="43.94514" lon="1.79189">
        <ele>951.79998779297</ele>
        <time>2019-06-27T18:46:59.000Z</time>
      </trkpt>
      <trkpt lat="43.94515" lon="1.79191">
        <ele>951.79998779297</ele>
        <time>2019-06-27T18:47:00.000Z</time>
      </trkpt>
      <trkpt lat="43.94517" lon="1.79192">
        <ele>951.79998779297</ele>
        <time>2019-06-27T18:47:01.000Z</time>
      </trkpt>
      <trkpt lat="43.94519" lon="1.79193">
        <ele>952</ele>
        <time>2019-06-27T18:47:02.000Z</time>
      </trkpt>
      <trkpt lat="43.94521" lon="1.79195">
        <ele>952</ele>
        <time>2019-06-27T18:47:03.000Z</time>
      </trkpt>
      <trkpt lat="43.94523" lon="1.79196">
        <ele>952</ele>
        <time>2019-06-27T18:47:04.000Z</time>
      </trkpt>
      <trkpt lat="43.94525" lon="1.79198">
        <ele>952</ele>
        <time>2019-06-27T18:47:05.000Z</time>
      </trkpt>
      <trkpt lat="43.94527" lon="1.792">
        <ele>952</ele>
        <time>2019-06-27T18:47:06.000Z</time>
      </trkpt>
      <trkpt lat="43.94529" lon="1.79203">
        <ele>952</ele>
        <time>2019-06-27T18:47:07.000Z</time>
      </trkpt>
      <trkpt lat="43.94531" lon="1.79205">
        <ele>952</ele>
        <time>2019-06-27T18:47:08.000Z</time>
      </trkpt>
      <trkpt lat="43.94533" lon="1.79207">
        <ele>952</ele>
        <time>2019-06-27T18:47:09.000Z</time>
      </trkpt>
      <trkpt lat="43.94535" lon="1.79209">
        <ele>952</ele>
        <time>2019-06-27T18:47:10.000Z</time>
      </trkpt>
      <trkpt lat="43.94537" lon="1.79211">
        <ele>952</ele>
        <time>2019-06-27T18:47:11.000Z</time>
      </trkpt>
      <trkpt lat="43.9454" lon="1.79213">
        <ele>952</ele>
        <time>2019-06-27T18:47:12.000Z</time>
      </trkpt>
      <trkpt lat="43.94542" lon="1.79215">
        <ele>952</ele>
        <time>2019-06-27T18:47:13.000Z</time>
      </trkpt>
      <trkpt lat="43.94545" lon="1.79217">
        <ele>952</ele>
        <time>2019-06-27T18:47:14.000Z</time>
      </trkpt>
      <trkpt lat="43.94547" lon="1.79219">
        <ele>952.20001220703</ele>
        <time>2019-06-27T18:47:15.000Z</time>
      </trkpt>
      <trkpt lat="43.9455" lon="1.79222">
        <ele>952.20001220703</ele>
        <time>2019-06-27T18:47:16.000Z</time>
      </trkpt>
      <trkpt lat="43.94552" lon="1.79224">
        <ele>952.20001220703</ele>
        <time>2019-06-27T18:47:17.000Z</time>
      </trkpt>
      <trkpt lat="43.94555" lon="1.79227">
        <ele>952</ele>
        <time>2019-06-27T18:47:18.000Z</time>
      </trkpt>
      <trkpt lat="43.94558" lon="1.7923">
        <ele>952</ele>
        <time>2019-06-27T18:47:19.000Z</time>
      </trkpt>
      <trkpt lat="43.94561" lon="1.79233">
        <ele>952.20001220703</ele>
        <time>2019-06-27T18:47:20.000Z</time>
      </trkpt>
      <trkpt lat="43.94564" lon="1.79236">
        <ele>952.20001220703</ele>
        <time>2019-06-27T18:47:21.000Z</time>
      </trkpt>
      <trkpt lat="43.94567" lon="1.79239">
        <ele>952</ele>
        <time>2019-06-27T18:47:22.000Z</time>
      </trkpt>
      <trkpt lat="43.9457" lon="1.79242">
        <ele>952</ele>
        <time>2019-06-27T18:47:23.000Z</time>
      </trkpt>
      <trkpt lat="43.94573" lon="1.79245">
        <ele>952</ele>
        <time>2019-06-27T18:47:24.000Z</time>
      </trkpt>
      <trkpt lat="43.94576" lon="1.79248">
        <ele>951.79998779297</ele>
        <time>2019-06-27T18:47:25.000Z</time>
      </trkpt>
      <trkpt lat="43.9458" lon="1.79251">
        <ele>951.59997558594</ele>
        <time>2019-06-27T18:47:26.000Z</time>
      </trkpt>
      <trkpt lat="43.94584" lon="1.79254">
        <ele>951.59997558594</ele>
        <time>2019-06-27T18:47:27.000Z</time>
      </trkpt>
      <trkpt lat="43.94587" lon="1.79258">
        <ele>951.40002441406</ele>
        <time>2019-06-27T18:47:28.000Z</time>
      </trkpt>
      <trkpt lat="43.94591" lon="1.79261">
        <ele>951.40002441406</ele>
        <time>2019-06-27T18:47:29.000Z</time>
      </trkpt>
      <trkpt lat="43.94595" lon="1.79265">
        <ele>951.40002441406</ele>
        <time>2019-06-27T18:47:30.000Z</time>
      </trkpt>
      <trkpt lat="43.94599" lon="1.79269">
        <ele>951.20001220703</ele>
        <time>2019-06-27T18:47:31.000Z</time>
      </trkpt>
      <trkpt lat="43.94602" lon="1.79273">
        <ele>951.20001220703</ele>
        <time>2019-06-27T18:47:32.000Z</time>
      </trkpt>
      <trkpt lat="43.94607" lon="1.79276">
        <ele>951.20001220703</ele>
        <time>2019-06-27T18:47:33.000Z</time>
      </trkpt>
      <trkpt lat="43.94611" lon="1.7928">
        <ele>951.20001220703</ele>
        <time>2019-06-27T18:47:34.000Z</time>
      </trkpt>
      <trkpt lat="43.94615" lon="1.79284">
        <ele>951</ele>
        <time>2019-06-27T18:47:35.000Z</time>
      </trkpt>
      <trkpt lat="43.94619" lon="1.79289">
        <ele>951</ele>
        <time>2019-06-27T18:47:36.000Z</time>
      </trkpt>
      <trkpt lat="43.94623" lon="1.79293">
        <ele>950.79998779297</ele>
        <time>2019-06-27T18:47:37.000Z</time>
      </trkpt>
      <trkpt lat="43.94626" lon="1.79297">
        <ele>950.79998779297</ele>
        <time>2019-06-27T18:47:38.000Z</time>
      </trkpt>
      <trkpt lat="43.9463" lon="1.79302">
        <ele>950.59997558594</ele>
        <time>2019-06-27T18:47:39.000Z</time>
      </trkpt>
      <trkpt lat="43.94633" lon="1.79307">
        <ele>950.59997558594</ele>
        <time>2019-06-27T18:47:40.000Z</time>
      </trkpt>
      <trkpt lat="43.94636" lon="1.79312">
        <ele>950.59997558594</ele>
        <time>2019-06-27T18:47:41.000Z</time>
      </trkpt>
      <trkpt lat="43.94639" lon="1.79318">
        <ele>950.59997558594</ele>
        <time>2019-06-27T18:47:42.000Z</time>
      </trkpt>
      <trkpt lat="43.94642" lon="1.79323">
        <ele>950.40002441406</ele>
        <time>2019-06-27T18:47:43.000Z</time>
      </trkpt>
      <trkpt lat="43.94644" lon="1.79329">
        <ele>950.40002441406</ele>
        <time>2019-06-27T18:47:44.000Z</time>
      </trkpt>
      <trkpt lat="43.94647" lon="1.79336">
        <ele>950.40002441406</ele>
        <time>2019-06-27T18:47:45.000Z</time>
      </trkpt>
      <trkpt lat="43.9465" lon="1.79342">
        <ele>950.40002441406</ele>
        <time>2019-06-27T18:47:46.000Z</time>
      </trkpt>
      <trkpt lat="43.94652" lon="1.79349">
        <ele>950.40002441406</ele>
        <time>2019-06-27T18:47:47.000Z</time>
      </trkpt>
      <trkpt lat="43.94655" lon="1.79355">
        <ele>950.40002441406</ele>
        <time>2019-06-27T18:47:48.000Z</time>
      </trkpt>
      <trkpt lat="43.94657" lon="1.79361">
        <ele>950.20001220703</ele>
        <time>2019-06-27T18:47:49.000Z</time>
      </trkpt>
      <trkpt lat="43.9466" lon="1.79368">
        <ele>950.40002441406</ele>
        <time>2019-06-27T18:47:50.000Z</time>
      </trkpt>
      <trkpt lat="43.94662" lon="1.79375">
        <ele>950.59997558594</ele>
        <time>2019-06-27T18:47:51.000Z</time>
      </trkpt>
      <trkpt lat="43.94665" lon="1.79381">
        <ele>950.59997558594</ele>
        <time>2019-06-27T18:47:52.000Z</time>
      </trkpt>
      <trkpt lat="43.94667" lon="1.79388">
        <ele>950.79998779297</ele>
        <time>2019-06-27T18:47:53.000Z</time>
      </trkpt>
      <trkpt lat="43.9467" lon="1.79394">
        <ele>951</ele>
        <time>2019-06-27T18:47:54.000Z</time>
      </trkpt>
      <trkpt lat="43.94672" lon="1.794">
        <ele>951</ele>
        <time>2019-06-27T18:47:55.000Z</time>
      </trkpt>
      <trkpt lat="43.94674" lon="1.79406">
        <ele>951</ele>
        <time>2019-06-27T18:47:56.000Z</time>
      </trkpt>
      <trkpt lat="43.94677" lon="1.79412">
        <ele>951.20001220703</ele>
        <time>2019-06-27T18:47:57.000Z</time>
      </trkpt>
      <trkpt lat="43.94679" lon="1.79417">
        <ele>951.40002441406</ele>
        <time>2019-06-27T18:47:58.000Z</time>
      </trkpt>
      <trkpt lat="43.94681" lon="1.79422">
        <ele>951.59997558594</ele>
        <time>2019-06-27T18:47:59.000Z</time>
      </trkpt>
      <trkpt lat="43.94684" lon="1.79427">
        <ele>951.59997558594</ele>
        <time>2019-06-27T18:48:00.000Z</time>
      </trkpt>
      <trkpt lat="43.94686" lon="1.79433">
        <ele>951.79998779297</ele>
        <time>2019-06-27T18:48:01.000Z</time>
      </trkpt>
      <trkpt lat="43.94688" lon="1.79438">
        <ele>952</ele>
        <time>2019-06-27T18:48:02.000Z</time>
      </trkpt>
      <trkpt lat="43.9469" lon="1.79443">
        <ele>952.20001220703</ele>
        <time>2019-06-27T18:48:03.000Z</time>
      </trkpt>
      <trkpt lat="43.94693" lon="1.79448">
        <ele>952.40002441406</ele>
        <time>2019-06-27T18:48:04.000Z</time>
      </trkpt>
      <trkpt lat="43.94695" lon="1.79452">
        <ele>952.59997558594</ele>
        <time>2019-06-27T18:48:05.000Z</time>
      </trkpt>
      <trkpt lat="43.94698" lon="1.79457">
        <ele>952.59997558594</ele>
        <time>2019-06-27T18:48:06.000Z</time>
      </trkpt>
      <trkpt lat="43.947" lon="1.79462">
        <ele>952.79998779297</ele>
        <time>2019-06-27T18:48:07.000Z</time>
      </trkpt>
      <trkpt lat="43.94703" lon="1.79467">
        <ele>952.79998779297</ele>
        <time>2019-06-27T18:48:08.000Z</time>
      </trkpt>
      <trkpt lat="43.94706" lon="1.79472">
        <ele>953</ele>
        <time>2019-06-27T18:48:09.000Z</time>
      </trkpt>
      <trkpt lat="43.94708" lon="1.79477">
        <ele>953</ele>
        <time>2019-06-27T18:48:10.000Z</time>
      </trkpt>
      <trkpt lat="43.94711" lon="1.79481">
        <ele>953</ele>
        <time>2019-06-27T18:48:11.000Z</time>
      </trkpt>
      <trkpt lat="43.94713" lon="1.79486">
        <ele>953.20001220703</ele>
        <time>2019-06-27T18:48:12.000Z</time>
      </trkpt>
      <trkpt lat="43.94716" lon="1.79491">
        <ele>953.40002441406</ele>
        <time>2019-06-27T18:48:13.000Z</time>
      </trkpt>
      <trkpt lat="43.94719" lon="1.79496">
        <ele>953.79998779297</ele>
        <time>2019-06-27T18:48:14.000Z</time>
      </trkpt>
      <trkpt lat="43.94721" lon="1.79502">
        <ele>953.79998779297</ele>
        <time>2019-06-27T18:48:15.000Z</time>
      </trkpt>
      <trkpt lat="43.94724" lon="1.79507">
        <ele>953.79998779297</ele>
        <time>2019-06-27T18:48:16.000Z</time>
      </trkpt>
      <trkpt lat="43.94726" lon="1.79512">
        <ele>954</ele>
        <time>2019-06-27T18:48:17.000Z</time>
      </trkpt>
      <trkpt lat="43.94729" lon="1.79517">
        <ele>954.20001220703</ele>
        <time>2019-06-27T18:48:18.000Z</time>
      </trkpt>
      <trkpt lat="43.94732" lon="1.79522">
        <ele>954.40002441406</ele>
        <time>2019-06-27T18:48:19.000Z</time>
      </trkpt>
      <trkpt lat="43.94735" lon="1.79527">
        <ele>954.59997558594</ele>
        <time>2019-06-27T18:48:20.000Z</time>
      </trkpt>
      <trkpt lat="43.94737" lon="1.79531">
        <ele>954.59997558594</ele>
        <time>2019-06-27T18:48:21.000Z</time>
      </trkpt>
      <trkpt lat="43.9474" lon="1.79536">
        <ele>954.79998779297</ele>
        <time>2019-06-27T18:48:22.000Z</time>
      </trkpt>
      <trkpt lat="43.94742" lon="1.79541">
        <ele>954.79998779297</ele>
        <time>2019-06-27T18:48:23.000Z</time>
      </trkpt>
      <trkpt lat="43.94745" lon="1.79546">
        <ele>955</ele>
        <time>2019-06-27T18:48:24.000Z</time>
      </trkpt>
      <trkpt lat="43.94747" lon="1.79551">
        <ele>955</ele>
        <time>2019-06-27T18:48:25.000Z</time>
      </trkpt>
      <trkpt lat="43.9475" lon="1.79556">
        <ele>955</ele>
        <time>2019-06-27T18:48:26.000Z</time>
      </trkpt>
      <trkpt lat="43.94752" lon="1.79561">
        <ele>955.20001220703</ele>
        <time>2019-06-27T18:48:27.000Z</time>
      </trkpt>
      <trkpt lat="43.94755" lon="1.79565">
        <ele>955.20001220703</ele>
        <time>2019-06-27T18:48:28.000Z</time>
      </trkpt>
      <trkpt lat="43.94757" lon="1.7957">
        <ele>955.20001220703</ele>
        <time>2019-06-27T18:48:29.000Z</time>
      </trkpt>
      <trkpt lat="43.9476" lon="1.79574">
        <ele>955.40002441406</ele>
        <time>2019-06-27T18:48:30.000Z</time>
      </trkpt>
      <trkpt lat="43.94762" lon="1.79579">
        <ele>955.40002441406</ele>
        <time>2019-06-27T18:48:31.000Z</time>
      </trkpt>
      <trkpt lat="43.94765" lon="1.79583">
        <ele>955.59997558594</ele>
        <time>2019-06-27T18:48:32.000Z</time>
      </trkpt>
      <trkpt lat="43.94767" lon="1.79588">
        <ele>955.79998779297</ele>
        <time>2019-06-27T18:48:33.000Z</time>
      </trkpt>
      <trkpt lat="43.94769" lon="1.79592">
        <ele>955.79998779297</ele>
        <time>2019-06-27T18:48:34.000Z</time>
      </trkpt>
      <trkpt lat="43.94771" lon="1.79597">
        <ele>956</ele>
        <time>2019-06-27T18:48:35.000Z</time>
      </trkpt>
      <trkpt lat="43.94773" lon="1.79602">
        <ele>955.79998779297</ele>
        <time>2019-06-27T18:48:36.000Z</time>
      </trkpt>
      <trkpt lat="43.94776" lon="1.79606">
        <ele>956</ele>
        <time>2019-06-27T18:48:37.000Z</time>
      </trkpt>
      <trkpt lat="43.94778" lon="1.7961">
        <ele>956.20001220703</ele>
        <time>2019-06-27T18:48:38.000Z</time>
      </trkpt>
      <trkpt lat="43.9478" lon="1.79615">
        <ele>956.40002441406</ele>
        <time>2019-06-27T18:48:39.000Z</time>
      </trkpt>
      <trkpt lat="43.94783" lon="1.79619">
        <ele>956.59997558594</ele>
        <time>2019-06-27T18:48:40.000Z</time>
      </trkpt>
      <trkpt lat="43.94785" lon="1.79623">
        <ele>956.59997558594</ele>
        <time>2019-06-27T18:48:41.000Z</time>
      </trkpt>
      <trkpt lat="43.94787" lon="1.79627">
        <ele>956.79998779297</ele>
        <time>2019-06-27T18:48:42.000Z</time>
      </trkpt>
      <trkpt lat="43.94789" lon="1.79631">
        <ele>957</ele>
        <time>2019-06-27T18:48:43.000Z</time>
      </trkpt>
      <trkpt lat="43.94791" lon="1.79636">
        <ele>957</ele>
        <time>2019-06-27T18:48:44.000Z</time>
      </trkpt>
      <trkpt lat="43.94793" lon="1.79639">
        <ele>957.20001220703</ele>
        <time>2019-06-27T18:48:45.000Z</time>
      </trkpt>
      <trkpt lat="43.94795" lon="1.79643">
        <ele>957.20001220703</ele>
        <time>2019-06-27T18:48:46.000Z</time>
      </trkpt>
      <trkpt lat="43.94797" lon="1.79646">
        <ele>957.20001220703</ele>
        <time>2019-06-27T18:48:47.000Z</time>
      </trkpt>
      <trkpt lat="43.94799" lon="1.7965">
        <ele>957.20001220703</ele>
        <time>2019-06-27T18:48:48.000Z</time>
      </trkpt>
      <trkpt lat="43.94801" lon="1.79653">
        <ele>957.20001220703</ele>
        <time>2019-06-27T18:48:49.000Z</time>
      </trkpt>
      <trkpt lat="43.94803" lon="1.79656">
        <ele>957.20001220703</ele>
        <time>2019-06-27T18:48:50.000Z</time>
      </trkpt>
      <trkpt lat="43.94806" lon="1.79658">
        <ele>957.40002441406</ele>
        <time>2019-06-27T18:48:51.000Z</time>
      </trkpt>
      <trkpt lat="43.9481" lon="1.79658">
        <ele>957.40002441406</ele>
        <time>2019-06-27T18:48:52.000Z</time>
      </trkpt>
      <trkpt lat="43.94813" lon="1.79656">
        <ele>957.40002441406</ele>
        <time>2019-06-27T18:48:53.000Z</time>
      </trkpt>
      <trkpt lat="43.94815" lon="1.79653">
        <ele>957.40002441406</ele>
        <time>2019-06-27T18:48:54.000Z</time>
      </trkpt>
      <trkpt lat="43.94818" lon="1.7965">
        <ele>957.59997558594</ele>
        <time>2019-06-27T18:48:55.000Z</time>
      </trkpt>
      <trkpt lat="43.9482" lon="1.79648">
        <ele>958.20001220703</ele>
        <time>2019-06-27T18:48:56.000Z</time>
      </trkpt>
      <trkpt lat="43.94824" lon="1.79645">
        <ele>958.40002441406</ele>
        <time>2019-06-27T18:48:57.000Z</time>
      </trkpt>
      <trkpt lat="43.94827" lon="1.79642">
        <ele>958.59997558594</ele>
        <time>2019-06-27T18:48:58.000Z</time>
      </trkpt>
      <trkpt lat="43.94831" lon="1.79639">
        <ele>958.79998779297</ele>
        <time>2019-06-27T18:48:59.000Z</time>
      </trkpt>
      <trkpt lat="43.94835" lon="1.79635">
        <ele>959</ele>
        <time>2019-06-27T18:49:00.000Z</time>
      </trkpt>
      <trkpt lat="43.94839" lon="1.79632">
        <ele>959</ele>
        <time>2019-06-27T18:49:01.000Z</time>
      </trkpt>
      <trkpt lat="43.94843" lon="1.79629">
        <ele>959.40002441406</ele>
        <time>2019-06-27T18:49:02.000Z</time>
      </trkpt>
      <trkpt lat="43.94847" lon="1.79626">
        <ele>959.40002441406</ele>
        <time>2019-06-27T18:49:03.000Z</time>
      </trkpt>
      <trkpt lat="43.94851" lon="1.79622">
        <ele>959.59997558594</ele>
        <time>2019-06-27T18:49:04.000Z</time>
      </trkpt>
      <trkpt lat="43.94855" lon="1.79619">
        <ele>959.59997558594</ele>
        <time>2019-06-27T18:49:05.000Z</time>
      </trkpt>
      <trkpt lat="43.94858" lon="1.79616">
        <ele>959.79998779297</ele>
        <time>2019-06-27T18:49:06.000Z</time>
      </trkpt>
      <trkpt lat="43.94862" lon="1.79613">
        <ele>959.59997558594</ele>
        <time>2019-06-27T18:49:07.000Z</time>
      </trkpt>
      <trkpt lat="43.94866" lon="1.7961">
        <ele>960</ele>
        <time>2019-06-27T18:49:08.000Z</time>
      </trkpt>
      <trkpt lat="43.94869" lon="1.79607">
        <ele>960.20001220703</ele>
        <time>2019-06-27T18:49:09.000Z</time>
      </trkpt>
      <trkpt lat="43.94872" lon="1.79604">
        <ele>960.59997558594</ele>
        <time>2019-06-27T18:49:10.000Z</time>
      </trkpt>
      <trkpt lat="43.94875" lon="1.79602">
        <ele>960.59997558594</ele>
        <time>2019-06-27T18:49:11.000Z</time>
      </trkpt>
      <trkpt lat="43.94877" lon="1.79601">
        <ele>960.59997558594</ele>
        <time>2019-06-27T18:49:12.000Z</time>
      </trkpt>
      <trkpt lat="43.94879" lon="1.79599">
        <ele>960.59997558594</ele>
        <time>2019-06-27T18:49:13.000Z</time>
      </trkpt>
      <trkpt lat="43.94881" lon="1.79597">
        <ele>960.59997558594</ele>
        <time>2019-06-27T18:49:14.000Z</time>
      </trkpt>
      <trkpt lat="43.94883" lon="1.79596">
        <ele>960.59997558594</ele>
        <time>2019-06-27T18:49:15.000Z</time>
      </trkpt>
      <trkpt lat="43.94885" lon="1.79595">
        <ele>960.59997558594</ele>
        <time>2019-06-27T18:49:16.000Z</time>
      </trkpt>
      <trkpt lat="43.94887" lon="1.79593">
        <ele>960.59997558594</ele>
        <time>2019-06-27T18:49:17.000Z</time>
      </trkpt>
      <trkpt lat="43.94889" lon="1.79591">
        <ele>960.79998779297</ele>
        <time>2019-06-27T18:49:18.000Z</time>
      </trkpt>
      <trkpt lat="43.94892" lon="1.79589">
        <ele>960.79998779297</ele>
        <time>2019-06-27T18:49:19.000Z</time>
      </trkpt>
      <trkpt lat="43.94894" lon="1.79587">
        <ele>960.79998779297</ele>
        <time>2019-06-27T18:49:20.000Z</time>
      </trkpt>
      <trkpt lat="43.94897" lon="1.79585">
        <ele>960.79998779297</ele>
        <time>2019-06-27T18:49:21.000Z</time>
      </trkpt>
      <trkpt lat="43.949" lon="1.79583">
        <ele>960.79998779297</ele>
        <time>2019-06-27T18:49:22.000Z</time>
      </trkpt>
      <trkpt lat="43.94902" lon="1.79582">
        <ele>960.79998779297</ele>
        <time>2019-06-27T18:49:23.000Z</time>
      </trkpt>
      <trkpt lat="43.94905" lon="1.7958">
        <ele>960.79998779297</ele>
        <time>2019-06-27T18:49:24.000Z</time>
      </trkpt>
      <trkpt lat="43.94908" lon="1.79578">
        <ele>960.79998779297</ele>
        <time>2019-06-27T18:49:25.000Z</time>
      </trkpt>
      <trkpt lat="43.94911" lon="1.79575">
        <ele>960.59997558594</ele>
        <time>2019-06-27T18:49:26.000Z</time>
      </trkpt>
      <trkpt lat="43.94914" lon="1.79573">
        <ele>960.79998779297</ele>
        <time>2019-06-27T18:49:27.000Z</time>
      </trkpt>
      <trkpt lat="43.94917" lon="1.7957">
        <ele>960.79998779297</ele>
        <time>2019-06-27T18:49:28.000Z</time>
      </trkpt>
      <trkpt lat="43.9492" lon="1.79568">
        <ele>961</ele>
        <time>2019-06-27T18:49:29.000Z</time>
      </trkpt>
      <trkpt lat="43.94923" lon="1.79566">
        <ele>960.79998779297</ele>
        <time>2019-06-27T18:49:30.000Z</time>
      </trkpt>
      <trkpt lat="43.94926" lon="1.79563">
        <ele>960.79998779297</ele>
        <time>2019-06-27T18:49:31.000Z</time>
      </trkpt>
      <trkpt lat="43.94929" lon="1.7956">
        <ele>960.79998779297</ele>
        <time>2019-06-27T18:49:32.000Z</time>
      </trkpt>
      <trkpt lat="43.94932" lon="1.79557">
        <ele>960.79998779297</ele>
        <time>2019-06-27T18:49:33.000Z</time>
      </trkpt>
      <trkpt lat="43.94935" lon="1.79553">
        <ele>960.59997558594</ele>
        <time>2019-06-27T18:49:34.000Z</time>
      </trkpt>
      <trkpt lat="43.94939" lon="1.79549">
        <ele>960.79998779297</ele>
        <time>2019-06-27T18:49:35.000Z</time>
      </trkpt>
      <trkpt lat="43.94942" lon="1.79545">
        <ele>960.40002441406</ele>
        <time>2019-06-27T18:49:36.000Z</time>
      </trkpt>
      <trkpt lat="43.94945" lon="1.79541">
        <ele>960.20001220703</ele>
        <time>2019-06-27T18:49:37.000Z</time>
      </trkpt>
      <trkpt lat="43.94948" lon="1.79536">
        <ele>960.20001220703</ele>
        <time>2019-06-27T18:49:38.000Z</time>
      </trkpt>
      <trkpt lat="43.94951" lon="1.79531">
        <ele>960.20001220703</ele>
        <time>2019-06-27T18:49:39.000Z</time>
      </trkpt>
      <trkpt lat="43.94954" lon="1.79526">
        <ele>960.20001220703</ele>
        <time>2019-06-27T18:49:40.000Z</time>
      </trkpt>
      <trkpt lat="43.94957" lon="1.79521">
        <ele>960.20001220703</ele>
        <time>2019-06-27T18:49:41.000Z</time>
      </trkpt>
      <trkpt lat="43.9496" lon="1.79515">
        <ele>960</ele>
        <time>2019-06-27T18:49:42.000Z</time>
      </trkpt>
      <trkpt lat="43.94964" lon="1.7951">
        <ele>959.79998779297</ele>
        <time>2019-06-27T18:49:43.000Z</time>
      </trkpt>
      <trkpt lat="43.94967" lon="1.79505">
        <ele>959.59997558594</ele>
        <time>2019-06-27T18:49:44.000Z</time>
      </trkpt>
      <trkpt lat="43.9497" lon="1.79499">
        <ele>959.40002441406</ele>
        <time>2019-06-27T18:49:45.000Z</time>
      </trkpt>
      <trkpt lat="43.94973" lon="1.79494">
        <ele>959.59997558594</ele>
        <time>2019-06-27T18:49:46.000Z</time>
      </trkpt>
      <trkpt lat="43.94976" lon="1.79488">
        <ele>959.59997558594</ele>
        <time>2019-06-27T18:49:47.000Z</time>
      </trkpt>
      <trkpt lat="43.9498" lon="1.79482">
        <ele>959.20001220703</ele>
        <time>2019-06-27T18:49:48.000Z</time>
      </trkpt>
      <trkpt lat="43.94983" lon="1.79477">
        <ele>959.20001220703</ele>
        <time>2019-06-27T18:49:49.000Z</time>
      </trkpt>
      <trkpt lat="43.94986" lon="1.79471">
        <ele>959</ele>
        <time>2019-06-27T18:49:50.000Z</time>
      </trkpt>
      <trkpt lat="43.94989" lon="1.79465">
        <ele>958.79998779297</ele>
        <time>2019-06-27T18:49:51.000Z</time>
      </trkpt>
      <trkpt lat="43.94992" lon="1.79459">
        <ele>958.79998779297</ele>
        <time>2019-06-27T18:49:52.000Z</time>
      </trkpt>
      <trkpt lat="43.94996" lon="1.79454">
        <ele>958.59997558594</ele>
        <time>2019-06-27T18:49:53.000Z</time>
      </trkpt>
      <trkpt lat="43.94999" lon="1.79448">
        <ele>958.59997558594</ele>
        <time>2019-06-27T18:49:54.000Z</time>
      </trkpt>
      <trkpt lat="43.95002" lon="1.79442">
        <ele>958.40002441406</ele>
        <time>2019-06-27T18:49:55.000Z</time>
      </trkpt>
      <trkpt lat="43.95005" lon="1.79436">
        <ele>958.40002441406</ele>
        <time>2019-06-27T18:49:56.000Z</time>
      </trkpt>
      <trkpt lat="43.95009" lon="1.79431">
        <ele>958.20001220703</ele>
        <time>2019-06-27T18:49:57.000Z</time>
      </trkpt>
      <trkpt lat="43.95012" lon="1.79426">
        <ele>958</ele>
        <time>2019-06-27T18:49:58.000Z</time>
      </trkpt>
      <trkpt lat="43.95015" lon="1.7942">
        <ele>957.79998779297</ele>
        <time>2019-06-27T18:49:59.000Z</time>
      </trkpt>
      <trkpt lat="43.95018" lon="1.79416">
        <ele>957.40002441406</ele>
        <time>2019-06-27T18:50:00.000Z</time>
      </trkpt>
      <trkpt lat="43.9502" lon="1.79411">
        <ele>957.40002441406</ele>
        <time>2019-06-27T18:50:01.000Z</time>
      </trkpt>
      <trkpt lat="43.95023" lon="1.79409">
        <ele>957.20001220703</ele>
        <time>2019-06-27T18:50:02.000Z</time>
      </trkpt>
      <trkpt lat="43.95025" lon="1.79409">
        <ele>957.20001220703</ele>
        <time>2019-06-27T18:50:03.000Z</time>
      </trkpt>
      <trkpt lat="43.95026" lon="1.79411">
        <ele>956.79998779297</ele>
        <time>2019-06-27T18:50:04.000Z</time>
      </trkpt>
      <trkpt lat="43.95028" lon="1.79414">
        <ele>956.40002441406</ele>
        <time>2019-06-27T18:50:05.000Z</time>
      </trkpt>
      <trkpt lat="43.95028" lon="1.79418">
        <ele>956.20001220703</ele>
        <time>2019-06-27T18:50:06.000Z</time>
      </trkpt>
      <trkpt lat="43.95028" lon="1.79422">
        <ele>956.20001220703</ele>
        <time>2019-06-27T18:50:07.000Z</time>
      </trkpt>
      <trkpt lat="43.95029" lon="1.79425">
        <ele>956.20001220703</ele>
        <time>2019-06-27T18:50:08.000Z</time>
      </trkpt>
      <trkpt lat="43.9503" lon="1.79428">
        <ele>956</ele>
        <time>2019-06-27T18:50:09.000Z</time>
      </trkpt>
      <trkpt lat="43.9503" lon="1.79432">
        <ele>955.79998779297</ele>
        <time>2019-06-27T18:50:10.000Z</time>
      </trkpt>
      <trkpt lat="43.95031" lon="1.79436">
        <ele>955.79998779297</ele>
        <time>2019-06-27T18:50:11.000Z</time>
      </trkpt>
      <trkpt lat="43.95032" lon="1.79441">
        <ele>955.59997558594</ele>
        <time>2019-06-27T18:50:12.000Z</time>
      </trkpt>
      <trkpt lat="43.95033" lon="1.79446">
        <ele>955.40002441406</ele>
        <time>2019-06-27T18:50:13.000Z</time>
      </trkpt>
      <trkpt lat="43.95034" lon="1.79451">
        <ele>955</ele>
        <time>2019-06-27T18:50:14.000Z</time>
      </trkpt>
      <trkpt lat="43.95035" lon="1.79456">
        <ele>955</ele>
        <time>2019-06-27T18:50:15.000Z</time>
      </trkpt>
      <trkpt lat="43.95036" lon="1.79461">
        <ele>955</ele>
        <time>2019-06-27T18:50:16.000Z</time>
      </trkpt>
      <trkpt lat="43.95038" lon="1.79467">
        <ele>954.79998779297</ele>
        <time>2019-06-27T18:50:17.000Z</time>
      </trkpt>
      <trkpt lat="43.95039" lon="1.79472">
        <ele>954.59997558594</ele>
        <time>2019-06-27T18:50:18.000Z</time>
      </trkpt>
      <trkpt lat="43.9504" lon="1.79478">
        <ele>954.59997558594</ele>
        <time>2019-06-27T18:50:19.000Z</time>
      </trkpt>
      <trkpt lat="43.95041" lon="1.79483">
        <ele>954.59997558594</ele>
        <time>2019-06-27T18:50:20.000Z</time>
      </trkpt>
      <trkpt lat="43.95042" lon="1.79488">
        <ele>954.59997558594</ele>
        <time>2019-06-27T18:50:21.000Z</time>
      </trkpt>
      <trkpt lat="43.95043" lon="1.79493">
        <ele>954.59997558594</ele>
        <time>2019-06-27T18:50:22.000Z</time>
      </trkpt>
      <trkpt lat="43.95044" lon="1.79497">
        <ele>954.59997558594</ele>
        <time>2019-06-27T18:50:23.000Z</time>
      </trkpt>
      <trkpt lat="43.95044" lon="1.79502">
        <ele>954.40002441406</ele>
        <time>2019-06-27T18:50:24.000Z</time>
      </trkpt>
      <trkpt lat="43.95045" lon="1.79506">
        <ele>954.59997558594</ele>
        <time>2019-06-27T18:50:25.000Z</time>
      </trkpt>
      <trkpt lat="43.95046" lon="1.79511">
        <ele>954.59997558594</ele>
        <time>2019-06-27T18:50:26.000Z</time>
      </trkpt>
      <trkpt lat="43.95047" lon="1.79515">
        <ele>954.79998779297</ele>
        <time>2019-06-27T18:50:27.000Z</time>
      </trkpt>
      <trkpt lat="43.95048" lon="1.7952">
        <ele>954.79998779297</ele>
        <time>2019-06-27T18:50:28.000Z</time>
      </trkpt>
      <trkpt lat="43.95049" lon="1.79524">
        <ele>955</ele>
        <time>2019-06-27T18:50:29.000Z</time>
      </trkpt>
      <trkpt lat="43.9505" lon="1.79528">
        <ele>955.20001220703</ele>
        <time>2019-06-27T18:50:30.000Z</time>
      </trkpt>
      <trkpt lat="43.95051" lon="1.79533">
        <ele>955.40002441406</ele>
        <time>2019-06-27T18:50:31.000Z</time>
      </trkpt>
      <trkpt lat="43.95053" lon="1.79536">
        <ele>955.59997558594</ele>
        <time>2019-06-27T18:50:32.000Z</time>
      </trkpt>
      <trkpt lat="43.95054" lon="1.7954">
        <ele>955.79998779297</ele>
        <time>2019-06-27T18:50:33.000Z</time>
      </trkpt>
      <trkpt lat="43.95055" lon="1.79545">
        <ele>955.59997558594</ele>
        <time>2019-06-27T18:50:34.000Z</time>
      </trkpt>
      <trkpt lat="43.95056" lon="1.79549">
        <ele>955.59997558594</ele>
        <time>2019-06-27T18:50:35.000Z</time>
      </trkpt>
      <trkpt lat="43.95058" lon="1.79554">
        <ele>955.59997558594</ele>
        <time>2019-06-27T18:50:36.000Z</time>
      </trkpt>
      <trkpt lat="43.95059" lon="1.79559">
        <ele>955.59997558594</ele>
        <time>2019-06-27T18:50:37.000Z</time>
      </trkpt>
      <trkpt lat="43.95061" lon="1.79563">
        <ele>955.59997558594</ele>
        <time>2019-06-27T18:50:38.000Z</time>
      </trkpt>
      <trkpt lat="43.95062" lon="1.79568">
        <ele>955.40002441406</ele>
        <time>2019-06-27T18:50:39.000Z</time>
      </trkpt>
      <trkpt lat="43.95063" lon="1.79573">
        <ele>955.40002441406</ele>
        <time>2019-06-27T18:50:40.000Z</time>
      </trkpt>
      <trkpt lat="43.95064" lon="1.79578">
        <ele>955.20001220703</ele>
        <time>2019-06-27T18:50:41.000Z</time>
      </trkpt>
      <trkpt lat="43.95065" lon="1.79584">
        <ele>955.59997558594</ele>
        <time>2019-06-27T18:50:42.000Z</time>
      </trkpt>
      <trkpt lat="43.95066" lon="1.79589">
        <ele>955.59997558594</ele>
        <time>2019-06-27T18:50:43.000Z</time>
      </trkpt>
      <trkpt lat="43.95067" lon="1.79593">
        <ele>955.79998779297</ele>
        <time>2019-06-27T18:50:44.000Z</time>
      </trkpt>
      <trkpt lat="43.95068" lon="1.79598">
        <ele>955.59997558594</ele>
        <time>2019-06-27T18:50:45.000Z</time>
      </trkpt>
      <trkpt lat="43.95068" lon="1.79603">
        <ele>955.79998779297</ele>
        <time>2019-06-27T18:50:46.000Z</time>
      </trkpt>
      <trkpt lat="43.95069" lon="1.79607">
        <ele>956</ele>
        <time>2019-06-27T18:50:47.000Z</time>
      </trkpt>
      <trkpt lat="43.9507" lon="1.79612">
        <ele>956</ele>
        <time>2019-06-27T18:50:48.000Z</time>
      </trkpt>
      <trkpt lat="43.95071" lon="1.79616">
        <ele>956</ele>
        <time>2019-06-27T18:50:49.000Z</time>
      </trkpt>
      <trkpt lat="43.95072" lon="1.7962">
        <ele>956.40002441406</ele>
        <time>2019-06-27T18:50:50.000Z</time>
      </trkpt>
      <trkpt lat="43.95073" lon="1.79624">
        <ele>956.40002441406</ele>
        <time>2019-06-27T18:50:51.000Z</time>
      </trkpt>
      <trkpt lat="43.95074" lon="1.79628">
        <ele>956.59997558594</ele>
        <time>2019-06-27T18:50:52.000Z</time>
      </trkpt>
      <trkpt lat="43.95074" lon="1.79632">
        <ele>956.59997558594</ele>
        <time>2019-06-27T18:50:53.000Z</time>
      </trkpt>
      <trkpt lat="43.95075" lon="1.79635">
        <ele>956.79998779297</ele>
        <time>2019-06-27T18:50:54.000Z</time>
      </trkpt>
      <trkpt lat="43.95076" lon="1.79638">
        <ele>956.79998779297</ele>
        <time>2019-06-27T18:50:55.000Z</time>
      </trkpt>
      <trkpt lat="43.95076" lon="1.79642">
        <ele>957</ele>
        <time>2019-06-27T18:50:56.000Z</time>
      </trkpt>
      <trkpt lat="43.95077" lon="1.79645">
        <ele>957</ele>
        <time>2019-06-27T18:50:57.000Z</time>
      </trkpt>
      <trkpt lat="43.95078" lon="1.79648">
        <ele>957</ele>
        <time>2019-06-27T18:50:58.000Z</time>
      </trkpt>
      <trkpt lat="43.95079" lon="1.79651">
        <ele>957</ele>
        <time>2019-06-27T18:50:59.000Z</time>
      </trkpt>
      <trkpt lat="43.95079" lon="1.79655">
        <ele>957</ele>
        <time>2019-06-27T18:51:00.000Z</time>
      </trkpt>
      <trkpt lat="43.9508" lon="1.79658">
        <ele>957.20001220703</ele>
        <time>2019-06-27T18:51:01.000Z</time>
      </trkpt>
      <trkpt lat="43.95081" lon="1.79662">
        <ele>957.40002441406</ele>
        <time>2019-06-27T18:51:02.000Z</time>
      </trkpt>
      <trkpt lat="43.95081" lon="1.79665">
        <ele>957.40002441406</ele>
        <time>2019-06-27T18:51:03.000Z</time>
      </trkpt>
      <trkpt lat="43.95082" lon="1.79669">
        <ele>957.59997558594</ele>
        <time>2019-06-27T18:51:04.000Z</time>
      </trkpt>
      <trkpt lat="43.95082" lon="1.79673">
        <ele>957.59997558594</ele>
        <time>2019-06-27T18:51:05.000Z</time>
      </trkpt>
      <trkpt lat="43.95083" lon="1.79677">
        <ele>957.40002441406</ele>
        <time>2019-06-27T18:51:06.000Z</time>
      </trkpt>
      <trkpt lat="43.95083" lon="1.7968">
        <ele>957.59997558594</ele>
        <time>2019-06-27T18:51:07.000Z</time>
      </trkpt>
      <trkpt lat="43.95084" lon="1.79684">
        <ele>957.79998779297</ele>
        <time>2019-06-27T18:51:08.000Z</time>
      </trkpt>
      <trkpt lat="43.95085" lon="1.79687">
        <ele>958.20001220703</ele>
        <time>2019-06-27T18:51:09.000Z</time>
      </trkpt>
      <trkpt lat="43.95085" lon="1.79691">
        <ele>958.20001220703</ele>
        <time>2019-06-27T18:51:10.000Z</time>
      </trkpt>
      <trkpt lat="43.95086" lon="1.79694">
        <ele>958.40002441406</ele>
        <time>2019-06-27T18:51:11.000Z</time>
      </trkpt>
      <trkpt lat="43.95087" lon="1.79698">
        <ele>958.20001220703</ele>
        <time>2019-06-27T18:51:12.000Z</time>
      </trkpt>
      <trkpt lat="43.95087" lon="1.79702">
        <ele>958.20001220703</ele>
        <time>2019-06-27T18:51:13.000Z</time>
      </trkpt>
      <trkpt lat="43.95088" lon="1.79705">
        <ele>958.20001220703</ele>
        <time>2019-06-27T18:51:14.000Z</time>
      </trkpt>
      <trkpt lat="43.95088" lon="1.79709">
        <ele>958.59997558594</ele>
        <time>2019-06-27T18:51:15.000Z</time>
      </trkpt>
      <trkpt lat="43.95089" lon="1.79713">
        <ele>958.79998779297</ele>
        <time>2019-06-27T18:51:16.000Z</time>
      </trkpt>
      <trkpt lat="43.95089" lon="1.79717">
        <ele>959</ele>
        <time>2019-06-27T18:51:17.000Z</time>
      </trkpt>
      <trkpt lat="43.9509" lon="1.79721">
        <ele>959</ele>
        <time>2019-06-27T18:51:18.000Z</time>
      </trkpt>
      <trkpt lat="43.95091" lon="1.79725">
        <ele>959</ele>
        <time>2019-06-27T18:51:19.000Z</time>
      </trkpt>
      <trkpt lat="43.95092" lon="1.79729">
        <ele>959</ele>
        <time>2019-06-27T18:51:20.000Z</time>
      </trkpt>
      <trkpt lat="43.95092" lon="1.79732">
        <ele>959</ele>
        <time>2019-06-27T18:51:21.000Z</time>
      </trkpt>
      <trkpt lat="43.95093" lon="1.79736">
        <ele>959.20001220703</ele>
        <time>2019-06-27T18:51:22.000Z</time>
      </trkpt>
      <trkpt lat="43.95094" lon="1.7974">
        <ele>959</ele>
        <time>2019-06-27T18:51:23.000Z</time>
      </trkpt>
      <trkpt lat="43.95094" lon="1.79744">
        <ele>959</ele>
        <time>2019-06-27T18:51:24.000Z</time>
      </trkpt>
      <trkpt lat="43.95095" lon="1.79747">
        <ele>959.20001220703</ele>
        <time>2019-06-27T18:51:25.000Z</time>
      </trkpt>
      <trkpt lat="43.95095" lon="1.79751">
        <ele>959.79998779297</ele>
        <time>2019-06-27T18:51:26.000Z</time>
      </trkpt>
      <trkpt lat="43.95096" lon="1.79755">
        <ele>960</ele>
        <time>2019-06-27T18:51:27.000Z</time>
      </trkpt>
      <trkpt lat="43.95097" lon="1.7976">
        <ele>960</ele>
        <time>2019-06-27T18:51:28.000Z</time>
      </trkpt>
      <trkpt lat="43.95097" lon="1.79764">
        <ele>960</ele>
        <time>2019-06-27T18:51:29.000Z</time>
      </trkpt>
      <trkpt lat="43.95098" lon="1.79768">
        <ele>960.20001220703</ele>
        <time>2019-06-27T18:51:30.000Z</time>
      </trkpt>
      <trkpt lat="43.95099" lon="1.79772">
        <ele>960.40002441406</ele>
        <time>2019-06-27T18:51:31.000Z</time>
      </trkpt>
      <trkpt lat="43.951" lon="1.79776">
        <ele>960.40002441406</ele>
        <time>2019-06-27T18:51:32.000Z</time>
      </trkpt>
      <trkpt lat="43.951" lon="1.7978">
        <ele>960.40002441406</ele>
        <time>2019-06-27T18:51:33.000Z</time>
      </trkpt>
      <trkpt lat="43.95101" lon="1.79783">
        <ele>960.40002441406</ele>
        <time>2019-06-27T18:51:34.000Z</time>
      </trkpt>
      <trkpt lat="43.95101" lon="1.79787">
        <ele>960.59997558594</ele>
        <time>2019-06-27T18:51:35.000Z</time>
      </trkpt>
      <trkpt lat="43.95102" lon="1.7979">
        <ele>960.59997558594</ele>
        <time>2019-06-27T18:51:36.000Z</time>
      </trkpt>
      <trkpt lat="43.95103" lon="1.79794">
        <ele>960.79998779297</ele>
        <time>2019-06-27T18:51:37.000Z</time>
      </trkpt>
      <trkpt lat="43.95103" lon="1.79798">
        <ele>961</ele>
        <time>2019-06-27T18:51:38.000Z</time>
      </trkpt>
      <trkpt lat="43.95104" lon="1.79802">
        <ele>961.20001220703</ele>
        <time>2019-06-27T18:51:39.000Z</time>
      </trkpt>
      <trkpt lat="43.95104" lon="1.79806">
        <ele>961.20001220703</ele>
        <time>2019-06-27T18:51:40.000Z</time>
      </trkpt>
      <trkpt lat="43.95105" lon="1.7981">
        <ele>961.20001220703</ele>
        <time>2019-06-27T18:51:41.000Z</time>
      </trkpt>
      <trkpt lat="43.95105" lon="1.79814">
        <ele>961.20001220703</ele>
        <time>2019-06-27T18:51:42.000Z</time>
      </trkpt>
      <trkpt lat="43.95105" lon="1.79818">
        <ele>961.20001220703</ele>
        <time>2019-06-27T18:51:43.000Z</time>
      </trkpt>
      <trkpt lat="43.95106" lon="1.79823">
        <ele>961.20001220703</ele>
        <time>2019-06-27T18:51:44.000Z</time>
      </trkpt>
      <trkpt lat="43.95106" lon="1.79827">
        <ele>961.20001220703</ele>
        <time>2019-06-27T18:51:45.000Z</time>
      </trkpt>
      <trkpt lat="43.95106" lon="1.79831">
        <ele>961.20001220703</ele>
        <time>2019-06-27T18:51:46.000Z</time>
      </trkpt>
      <trkpt lat="43.95107" lon="1.79835">
        <ele>961</ele>
        <time>2019-06-27T18:51:47.000Z</time>
      </trkpt>
      <trkpt lat="43.95107" lon="1.79838">
        <ele>961</ele>
        <time>2019-06-27T18:51:48.000Z</time>
      </trkpt>
      <trkpt lat="43.95107" lon="1.79842">
        <ele>960.79998779297</ele>
        <time>2019-06-27T18:51:49.000Z</time>
      </trkpt>
      <trkpt lat="43.95107" lon="1.79846">
        <ele>961</ele>
        <time>2019-06-27T18:51:50.000Z</time>
      </trkpt>
      <trkpt lat="43.95107" lon="1.7985">
        <ele>961</ele>
        <time>2019-06-27T18:51:51.000Z</time>
      </trkpt>
      <trkpt lat="43.95107" lon="1.79854">
        <ele>961</ele>
        <time>2019-06-27T18:51:52.000Z</time>
      </trkpt>
      <trkpt lat="43.95107" lon="1.79857">
        <ele>961</ele>
        <time>2019-06-27T18:51:53.000Z</time>
      </trkpt>
      <trkpt lat="43.95108" lon="1.7986">
        <ele>961</ele>
        <time>2019-06-27T18:51:54.000Z</time>
      </trkpt>
      <trkpt lat="43.95109" lon="1.79864">
        <ele>961</ele>
        <time>2019-06-27T18:51:55.000Z</time>
      </trkpt>
      <trkpt lat="43.95109" lon="1.79867">
        <ele>961</ele>
        <time>2019-06-27T18:51:56.000Z</time>
      </trkpt>
      <trkpt lat="43.9511" lon="1.79871">
        <ele>960.79998779297</ele>
        <time>2019-06-27T18:51:57.000Z</time>
      </trkpt>
      <trkpt lat="43.95111" lon="1.79875">
        <ele>960.79998779297</ele>
        <time>2019-06-27T18:51:58.000Z</time>
      </trkpt>
      <trkpt lat="43.95111" lon="1.79879">
        <ele>960.79998779297</ele>
        <time>2019-06-27T18:51:59.000Z</time>
      </trkpt>
      <trkpt lat="43.95111" lon="1.79885">
        <ele>960.59997558594</ele>
        <time>2019-06-27T18:52:00.000Z</time>
      </trkpt>
      <trkpt lat="43.95112" lon="1.7989">
        <ele>960.59997558594</ele>
        <time>2019-06-27T18:52:01.000Z</time>
      </trkpt>
      <trkpt lat="43.95112" lon="1.79895">
        <ele>960.59997558594</ele>
        <time>2019-06-27T18:52:02.000Z</time>
      </trkpt>
      <trkpt lat="43.95112" lon="1.79899">
        <ele>960.79998779297</ele>
        <time>2019-06-27T18:52:03.000Z</time>
      </trkpt>
      <trkpt lat="43.95113" lon="1.79905">
        <ele>960.79998779297</ele>
        <time>2019-06-27T18:52:04.000Z</time>
      </trkpt>
      <trkpt lat="43.95114" lon="1.79911">
        <ele>960.59997558594</ele>
        <time>2019-06-27T18:52:05.000Z</time>
      </trkpt>
      <trkpt lat="43.95115" lon="1.79916">
        <ele>960.59997558594</ele>
        <time>2019-06-27T18:52:06.000Z</time>
      </trkpt>
      <trkpt lat="43.95115" lon="1.79921">
        <ele>960.59997558594</ele>
        <time>2019-06-27T18:52:07.000Z</time>
      </trkpt>
      <trkpt lat="43.95116" lon="1.79927">
        <ele>960.59997558594</ele>
        <time>2019-06-27T18:52:08.000Z</time>
      </trkpt>
      <trkpt lat="43.95116" lon="1.79932">
        <ele>960.59997558594</ele>
        <time>2019-06-27T18:52:09.000Z</time>
      </trkpt>
      <trkpt lat="43.95117" lon="1.79938">
        <ele>960.40002441406</ele>
        <time>2019-06-27T18:52:10.000Z</time>
      </trkpt>
      <trkpt lat="43.95117" lon="1.79943">
        <ele>960.20001220703</ele>
        <time>2019-06-27T18:52:11.000Z</time>
      </trkpt>
      <trkpt lat="43.95118" lon="1.79949">
        <ele>960.20001220703</ele>
        <time>2019-06-27T18:52:12.000Z</time>
      </trkpt>
      <trkpt lat="43.95118" lon="1.79956">
        <ele>960.20001220703</ele>
        <time>2019-06-27T18:52:13.000Z</time>
      </trkpt>
      <trkpt lat="43.95119" lon="1.79962">
        <ele>960</ele>
        <time>2019-06-27T18:52:14.000Z</time>
      </trkpt>
      <trkpt lat="43.9512" lon="1.79968">
        <ele>959.79998779297</ele>
        <time>2019-06-27T18:52:15.000Z</time>
      </trkpt>
      <trkpt lat="43.9512" lon="1.79974">
        <ele>960</ele>
        <time>2019-06-27T18:52:16.000Z</time>
      </trkpt>
      <trkpt lat="43.95121" lon="1.7998">
        <ele>959.79998779297</ele>
        <time>2019-06-27T18:52:17.000Z</time>
      </trkpt>
      <trkpt lat="43.95122" lon="1.79986">
        <ele>960</ele>
        <time>2019-06-27T18:52:18.000Z</time>
      </trkpt>
      <trkpt lat="43.95122" lon="1.79991">
        <ele>960</ele>
        <time>2019-06-27T18:52:19.000Z</time>
      </trkpt>
      <trkpt lat="43.95123" lon="1.79996">
        <ele>960</ele>
        <time>2019-06-27T18:52:20.000Z</time>
      </trkpt>
      <trkpt lat="43.95124" lon="1.8">
        <ele>960.20001220703</ele>
        <time>2019-06-27T18:52:21.000Z</time>
      </trkpt>
      <trkpt lat="43.95125" lon="1.80005">
        <ele>960</ele>
        <time>2019-06-27T18:52:22.000Z</time>
      </trkpt>
      <trkpt lat="43.95126" lon="1.8001">
        <ele>960</ele>
        <time>2019-06-27T18:52:23.000Z</time>
      </trkpt>
      <trkpt lat="43.95127" lon="1.80015">
        <ele>960</ele>
        <time>2019-06-27T18:52:24.000Z</time>
      </trkpt>
      <trkpt lat="43.95128" lon="1.8002">
        <ele>959.79998779297</ele>
        <time>2019-06-27T18:52:25.000Z</time>
      </trkpt>
      <trkpt lat="43.95129" lon="1.80025">
        <ele>959.79998779297</ele>
        <time>2019-06-27T18:52:26.000Z</time>
      </trkpt>
      <trkpt lat="43.9513" lon="1.8003">
        <ele>960</ele>
        <time>2019-06-27T18:52:27.000Z</time>
      </trkpt>
      <trkpt lat="43.95132" lon="1.80035">
        <ele>960</ele>
        <time>2019-06-27T18:52:28.000Z</time>
      </trkpt>
      <trkpt lat="43.95133" lon="1.80041">
        <ele>960.20001220703</ele>
        <time>2019-06-27T18:52:29.000Z</time>
      </trkpt>
      <trkpt lat="43.95134" lon="1.80046">
        <ele>960</ele>
        <time>2019-06-27T18:52:30.000Z</time>
      </trkpt>
      <trkpt lat="43.95134" lon="1.80052">
        <ele>960</ele>
        <time>2019-06-27T18:52:31.000Z</time>
      </trkpt>
      <trkpt lat="43.95135" lon="1.80058">
        <ele>959.79998779297</ele>
        <time>2019-06-27T18:52:32.000Z</time>
      </trkpt>
      <trkpt lat="43.95136" lon="1.80064">
        <ele>960</ele>
        <time>2019-06-27T18:52:33.000Z</time>
      </trkpt>
      <trkpt lat="43.95136" lon="1.80071">
        <ele>959.79998779297</ele>
        <time>2019-06-27T18:52:34.000Z</time>
      </trkpt>
      <trkpt lat="43.95137" lon="1.80077">
        <ele>960</ele>
        <time>2019-06-27T18:52:35.000Z</time>
      </trkpt>
      <trkpt lat="43.95137" lon="1.80084">
        <ele>959.79998779297</ele>
        <time>2019-06-27T18:52:36.000Z</time>
      </trkpt>
      <trkpt lat="43.95137" lon="1.80091">
        <ele>960</ele>
        <time>2019-06-27T18:52:37.000Z</time>
      </trkpt>
      <trkpt lat="43.95138" lon="1.80097">
        <ele>959.79998779297</ele>
        <time>2019-06-27T18:52:38.000Z</time>
      </trkpt>
      <trkpt lat="43.95138" lon="1.80104">
        <ele>959.59997558594</ele>
        <time>2019-06-27T18:52:39.000Z</time>
      </trkpt>
      <trkpt lat="43.95138" lon="1.80111">
        <ele>959.79998779297</ele>
        <time>2019-06-27T18:52:40.000Z</time>
      </trkpt>
      <trkpt lat="43.95139" lon="1.80118">
        <ele>959.79998779297</ele>
        <time>2019-06-27T18:52:41.000Z</time>
      </trkpt>
      <trkpt lat="43.9514" lon="1.80125">
        <ele>959.59997558594</ele>
        <time>2019-06-27T18:52:42.000Z</time>
      </trkpt>
      <trkpt lat="43.9514" lon="1.80133">
        <ele>959.40002441406</ele>
        <time>2019-06-27T18:52:43.000Z</time>
      </trkpt>
      <trkpt lat="43.95141" lon="1.8014">
        <ele>959.40002441406</ele>
        <time>2019-06-27T18:52:44.000Z</time>
      </trkpt>
      <trkpt lat="43.95141" lon="1.80148">
        <ele>959.20001220703</ele>
        <time>2019-06-27T18:52:45.000Z</time>
      </trkpt>
      <trkpt lat="43.95141" lon="1.80155">
        <ele>959.20001220703</ele>
        <time>2019-06-27T18:52:46.000Z</time>
      </trkpt>
      <trkpt lat="43.95141" lon="1.80163">
        <ele>959.20001220703</ele>
        <time>2019-06-27T18:52:47.000Z</time>
      </trkpt>
      <trkpt lat="43.95141" lon="1.8017">
        <ele>959.40002441406</ele>
        <time>2019-06-27T18:52:48.000Z</time>
      </trkpt>
      <trkpt lat="43.95141" lon="1.80177">
        <ele>959</ele>
        <time>2019-06-27T18:52:49.000Z</time>
      </trkpt>
      <trkpt lat="43.9514" lon="1.80183">
        <ele>959.20001220703</ele>
        <time>2019-06-27T18:52:50.000Z</time>
      </trkpt>
      <trkpt lat="43.95138" lon="1.80188">
        <ele>959.20001220703</ele>
        <time>2019-06-27T18:52:51.000Z</time>
      </trkpt>
      <trkpt lat="43.95136" lon="1.80193">
        <ele>959.59997558594</ele>
        <time>2019-06-27T18:52:52.000Z</time>
      </trkpt>
      <trkpt lat="43.95135" lon="1.80197">
        <ele>959.59997558594</ele>
        <time>2019-06-27T18:52:53.000Z</time>
      </trkpt>
      <trkpt lat="43.95134" lon="1.80201">
        <ele>959.59997558594</ele>
        <time>2019-06-27T18:52:54.000Z</time>
      </trkpt>
      <trkpt lat="43.95132" lon="1.80205">
        <ele>959.40002441406</ele>
        <time>2019-06-27T18:52:55.000Z</time>
      </trkpt>
      <trkpt lat="43.95131" lon="1.80209">
        <ele>959</ele>
        <time>2019-06-27T18:52:56.000Z</time>
      </trkpt>
      <trkpt lat="43.9513" lon="1.80212">
        <ele>959</ele>
        <time>2019-06-27T18:52:57.000Z</time>
      </trkpt>
      <trkpt lat="43.9513" lon="1.80216">
        <ele>959.20001220703</ele>
        <time>2019-06-27T18:52:58.000Z</time>
      </trkpt>
      <trkpt lat="43.95129" lon="1.80219">
        <ele>959.20001220703</ele>
        <time>2019-06-27T18:52:59.000Z</time>
      </trkpt>
      <trkpt lat="43.95128" lon="1.80222">
        <ele>959.20001220703</ele>
        <time>2019-06-27T18:53:00.000Z</time>
      </trkpt>
      <trkpt lat="43.95128" lon="1.80224">
        <ele>959.40002441406</ele>
        <time>2019-06-27T18:53:01.000Z</time>
      </trkpt>
      <trkpt lat="43.95127" lon="1.80227">
        <ele>959.40002441406</ele>
        <time>2019-06-27T18:53:02.000Z</time>
      </trkpt>
      <trkpt lat="43.95125" lon="1.80229">
        <ele>959.20001220703</ele>
        <time>2019-06-27T18:53:03.000Z</time>
      </trkpt>
      <trkpt lat="43.95124" lon="1.8023">
        <ele>959.20001220703</ele>
        <time>2019-06-27T18:53:04.000Z</time>
      </trkpt>
      <trkpt lat="43.95123" lon="1.80232">
        <ele>959</ele>
        <time>2019-06-27T18:53:05.000Z</time>
      </trkpt>
      <trkpt lat="43.95124" lon="1.80233">
        <ele>959</ele>
        <time>2019-06-27T18:53:06.000Z</time>
      </trkpt>
      <trkpt lat="43.95125" lon="1.80233">
        <ele>959</ele>
        <time>2019-06-27T18:53:07.000Z</time>
      </trkpt>
      <trkpt lat="43.95126" lon="1.80232">
        <ele>959.20001220703</ele>
        <time>2019-06-27T18:53:08.000Z</time>
      </trkpt>
      <trkpt lat="43.95127" lon="1.8023">
        <ele>959.20001220703</ele>
        <time>2019-06-27T18:53:09.000Z</time>
      </trkpt>
      <trkpt lat="43.95128" lon="1.80227">
        <ele>959.20001220703</ele>
        <time>2019-06-27T18:53:10.000Z</time>
      </trkpt>
      <trkpt lat="43.95128" lon="1.80225">
        <ele>959.20001220703</ele>
        <time>2019-06-27T18:53:11.000Z</time>
      </trkpt>
      <trkpt lat="43.95129" lon="1.80223">
        <ele>959.20001220703</ele>
        <time>2019-06-27T18:53:12.000Z</time>
      </trkpt>
      <trkpt lat="43.9513" lon="1.80222">
        <ele>959</ele>
        <time>2019-06-27T18:53:13.000Z</time>
      </trkpt>
      <trkpt lat="43.95132" lon="1.8022">
        <ele>959</ele>
        <time>2019-06-27T18:53:14.000Z</time>
      </trkpt>
      <trkpt lat="43.95133" lon="1.80218">
        <ele>959</ele>
        <time>2019-06-27T18:53:15.000Z</time>
      </trkpt>
      <trkpt lat="43.95133" lon="1.80215">
        <ele>959.20001220703</ele>
        <time>2019-06-27T18:53:16.000Z</time>
      </trkpt>
      <trkpt lat="43.95133" lon="1.80213">
        <ele>959.20001220703</ele>
        <time>2019-06-27T18:53:17.000Z</time>
      </trkpt>
      <trkpt lat="43.95133" lon="1.8021">
        <ele>959.40002441406</ele>
        <time>2019-06-27T18:53:18.000Z</time>
      </trkpt>
      <trkpt lat="43.95132" lon="1.80207">
        <ele>959.20001220703</ele>
        <time>2019-06-27T18:53:19.000Z</time>
      </trkpt>
      <trkpt lat="43.95131" lon="1.80206">
        <ele>959.20001220703</ele>
        <time>2019-06-27T18:53:20.000Z</time>
      </trkpt>
      <trkpt lat="43.95129" lon="1.80205">
        <ele>959.20001220703</ele>
        <time>2019-06-27T18:53:21.000Z</time>
      </trkpt>
      <trkpt lat="43.95127" lon="1.80206">
        <ele>959.20001220703</ele>
        <time>2019-06-27T18:53:22.000Z</time>
      </trkpt>
      <trkpt lat="43.95126" lon="1.80208">
        <ele>959.20001220703</ele>
        <time>2019-06-27T18:53:23.000Z</time>
      </trkpt>
      <trkpt lat="43.95126" lon="1.80211">
        <ele>959.20001220703</ele>
        <time>2019-06-27T18:53:24.000Z</time>
      </trkpt>
      <trkpt lat="43.95125" lon="1.80214">
        <ele>959.20001220703</ele>
        <time>2019-06-27T18:53:25.000Z</time>
      </trkpt>
      <trkpt lat="43.95125" lon="1.80217">
        <ele>959.20001220703</ele>
        <time>2019-06-27T18:53:26.000Z</time>
      </trkpt>
      <trkpt lat="43.95126" lon="1.80219">
        <ele>959</ele>
        <time>2019-06-27T18:53:27.000Z</time>
      </trkpt>
      <trkpt lat="43.95126" lon="1.80221">
        <ele>959</ele>
        <time>2019-06-27T18:53:28.000Z</time>
      </trkpt>
      <trkpt lat="43.95125" lon="1.80222">
        <ele>959.20001220703</ele>
        <time>2019-06-27T18:53:29.000Z</time>
      </trkpt>
      <trkpt lat="43.95125" lon="1.80224">
        <ele>959.20001220703</ele>
        <time>2019-06-27T18:53:30.000Z</time>
      </trkpt>
      <trkpt lat="43.95125" lon="1.80224">
        <ele>959.20001220703</ele>
        <time>2019-06-27T18:53:31.000Z</time>
      </trkpt>
      <trkpt lat="43.95125" lon="1.80224">
        <ele>959.20001220703</ele>
        <time>2019-06-27T18:53:32.000Z</time>
      </trkpt>
      <trkpt lat="43.95125" lon="1.80225">
        <ele>959.20001220703</ele>
        <time>2019-06-27T18:53:33.000Z</time>
      </trkpt>
      <trkpt lat="43.95125" lon="1.80225">
        <ele>959.20001220703</ele>
        <time>2019-06-27T18:53:34.000Z</time>
      </trkpt>
      <trkpt lat="43.95125" lon="1.80225">
        <ele>959.20001220703</ele>
        <time>2019-06-27T18:53:35.000Z</time>
      </trkpt>
      <trkpt lat="43.95125" lon="1.80225">
        <ele>959.20001220703</ele>
        <time>2019-06-27T18:53:36.000Z</time>
      </trkpt>
      <trkpt lat="43.95125" lon="1.80225">
        <ele>959.20001220703</ele>
        <time>2019-06-27T18:53:37.000Z</time>
      </trkpt>
      <trkpt lat="43.95125" lon="1.80225">
        <ele>959.20001220703</ele>
        <time>2019-06-27T18:53:38.000Z</time>
      </trkpt>
      <trkpt lat="43.95125" lon="1.80225">
        <ele>959.20001220703</ele>
        <time>2019-06-27T18:53:39.000Z</time>
      </trkpt>
      <trkpt lat="43.95125" lon="1.80225">
        <ele>959.20001220703</ele>
        <time>2019-06-27T18:53:40.000Z</time>
      </trkpt>
      <trkpt lat="43.95125" lon="1.80225">
        <ele>959.20001220703</ele>
        <time>2019-06-27T18:53:41.000Z</time>
      </trkpt>
      <trkpt lat="43.95125" lon="1.80225">
        <ele>959.20001220703</ele>
        <time>2019-06-27T18:53:42.000Z</time>
      </trkpt>
      <trkpt lat="43.95125" lon="1.80225">
        <ele>959.20001220703</ele>
        <time>2019-06-27T18:53:43.000Z</time>
      </trkpt>
      <trkpt lat="43.95125" lon="1.80225">
        <ele>959.20001220703</ele>
        <time>2019-06-27T18:53:44.000Z</time>
      </trkpt>
      <trkpt lat="43.95125" lon="1.80225">
        <ele>959.20001220703</ele>
        <time>2019-06-27T18:53:45.000Z</time>
      </trkpt>
      <trkpt lat="43.95125" lon="1.80225">
        <ele>959.20001220703</ele>
        <time>2019-06-27T18:53:46.000Z</time>
      </trkpt>
      <trkpt lat="43.95125" lon="1.80225">
        <ele>959.20001220703</ele>
        <time>2019-06-27T18:53:47.000Z</time>
      </trkpt>
      <trkpt lat="43.95125" lon="1.80225">
        <ele>959.20001220703</ele>
        <time>2019-06-27T18:53:48.000Z</time>
      </trkpt>
      <trkpt lat="43.95125" lon="1.80225">
        <ele>959.20001220703</ele>
        <time>2019-06-27T18:53:49.000Z</time>
      </trkpt>
      <trkpt lat="43.95125" lon="1.80225">
        <ele>959.20001220703</ele>
        <time>2019-06-27T18:53:50.000Z</time>
      </trkpt>
      <trkpt lat="43.95125" lon="1.80225">
        <ele>959.20001220703</ele>
        <time>2019-06-27T18:53:51.000Z</time>
      </trkpt>
      <trkpt lat="43.95127" lon="1.80226">
        <ele>959.20001220703</ele>
        <time>2019-06-27T18:53:52.000Z</time>
      </trkpt>
      <trkpt lat="43.95128" lon="1.80226">
        <ele>959.20001220703</ele>
        <time>2019-06-27T18:53:53.000Z</time>
      </trkpt>
      <trkpt lat="43.95129" lon="1.80225">
        <ele>959.20001220703</ele>
        <time>2019-06-27T18:53:54.000Z</time>
      </trkpt>
      <trkpt lat="43.95129" lon="1.80224">
        <ele>959.20001220703</ele>
        <time>2019-06-27T18:53:55.000Z</time>
      </trkpt>
      <trkpt lat="43.95129" lon="1.80223">
        <ele>959.20001220703</ele>
        <time>2019-06-27T18:53:56.000Z</time>
      </trkpt>
      <trkpt lat="43.95128" lon="1.80223">
        <ele>959.40002441406</ele>
        <time>2019-06-27T18:53:57.000Z</time>
      </trkpt>
      <trkpt lat="43.95126" lon="1.80224">
        <ele>959.40002441406</ele>
        <time>2019-06-27T18:53:58.000Z</time>
      </trkpt>
      <trkpt lat="43.95126" lon="1.80224">
        <ele>959.40002441406</ele>
        <time>2019-06-27T18:53:59.000Z</time>
      </trkpt>
      <trkpt lat="43.95125" lon="1.80225">
        <ele>959.40002441406</ele>
        <time>2019-06-27T18:54:00.000Z</time>
      </trkpt>
      <trkpt lat="43.95125" lon="1.80225">
        <ele>959.20001220703</ele>
        <time>2019-06-27T18:54:01.000Z</time>
      </trkpt>
      <trkpt lat="43.95125" lon="1.80225">
        <ele>959.20001220703</ele>
        <time>2019-06-27T18:54:02.000Z</time>
      </trkpt>
      <trkpt lat="43.95125" lon="1.80225">
        <ele>959.20001220703</ele>
        <time>2019-06-27T18:54:03.000Z</time>
      </trkpt>
      <trkpt lat="43.95125" lon="1.80225">
        <ele>959.20001220703</ele>
        <time>2019-06-27T18:54:04.000Z</time>
      </trkpt>
      <trkpt lat="43.95125" lon="1.80225">
        <ele>959.20001220703</ele>
        <time>2019-06-27T18:54:05.000Z</time>
      </trkpt>
      <trkpt lat="43.95125" lon="1.80225">
        <ele>959.20001220703</ele>
        <time>2019-06-27T18:54:06.000Z</time>
      </trkpt>
      <trkpt lat="43.95125" lon="1.80225">
        <ele>959.20001220703</ele>
        <time>2019-06-27T18:54:07.000Z</time>
      </trkpt>
      <trkpt lat="43.95125" lon="1.80225">
        <ele>959</ele>
        <time>2019-06-27T18:54:08.000Z</time>
      </trkpt>
      <trkpt lat="43.95125" lon="1.80225">
        <ele>959.20001220703</ele>
        <time>2019-06-27T18:54:09.000Z</time>
      </trkpt>
      <trkpt lat="43.95125" lon="1.80225">
        <ele>959.20001220703</ele>
        <time>2019-06-27T18:54:10.000Z</time>
      </trkpt>
      <trkpt lat="43.95124" lon="1.80226">
        <ele>959.20001220703</ele>
        <time>2019-06-27T18:54:11.000Z</time>
      </trkpt>
      <trkpt lat="43.95123" lon="1.80227">
        <ele>959.20001220703</ele>
        <time>2019-06-27T18:54:12.000Z</time>
      </trkpt>
      <trkpt lat="43.95123" lon="1.80227">
        <ele>959.20001220703</ele>
        <time>2019-06-27T18:54:13.000Z</time>
      </trkpt>
      <trkpt lat="43.95123" lon="1.80227">
        <ele>959.20001220703</ele>
        <time>2019-06-27T18:54:14.000Z</time>
      </trkpt>
      <trkpt lat="43.95123" lon="1.80227">
        <ele>959.20001220703</ele>
        <time>2019-06-27T18:54:15.000Z</time>
      </trkpt>
      <trkpt lat="43.95123" lon="1.80227">
        <ele>959.20001220703</ele>
        <time>2019-06-27T18:54:16.000Z</time>
      </trkpt>
      <trkpt lat="43.95123" lon="1.80227">
        <ele>959.20001220703</ele>
        <time>2019-06-27T18:54:17.000Z</time>
      </trkpt>
      <trkpt lat="43.95123" lon="1.80227">
        <ele>959.20001220703</ele>
        <time>2019-06-27T18:54:18.000Z</time>
      </trkpt>
      <trkpt lat="43.95123" lon="1.80227">
        <ele>959.20001220703</ele>
        <time>2019-06-27T18:54:19.000Z</time>
      </trkpt>
      <trkpt lat="43.95123" lon="1.80227">
        <ele>959.20001220703</ele>
        <time>2019-06-27T18:54:20.000Z</time>
      </trkpt>
      <trkpt lat="43.95123" lon="1.80227">
        <ele>959.20001220703</ele>
        <time>2019-06-27T18:54:21.000Z</time>
      </trkpt>
      <trkpt lat="43.95123" lon="1.80227">
        <ele>959.20001220703</ele>
        <time>2019-06-27T18:54:22.000Z</time>
      </trkpt>
      <trkpt lat="43.95123" lon="1.80227">
        <ele>959.20001220703</ele>
        <time>2019-06-27T18:54:23.000Z</time>
      </trkpt>
      <trkpt lat="43.95123" lon="1.80227">
        <ele>959.20001220703</ele>
        <time>2019-06-27T18:54:24.000Z</time>
      </trkpt>
      <trkpt lat="43.95123" lon="1.80227">
        <ele>959.20001220703</ele>
        <time>2019-06-27T18:54:25.000Z</time>
      </trkpt>
      <trkpt lat="43.95122" lon="1.80228">
        <ele>959.20001220703</ele>
        <time>2019-06-27T18:54:26.000Z</time>
      </trkpt>
      <trkpt lat="43.95122" lon="1.8023">
        <ele>959.40002441406</ele>
        <time>2019-06-27T18:54:27.000Z</time>
      </trkpt>
      <trkpt lat="43.95122" lon="1.80231">
        <ele>959.40002441406</ele>
        <time>2019-06-27T18:54:28.000Z</time>
      </trkpt>
      <trkpt lat="43.95122" lon="1.80231">
        <ele>959.20001220703</ele>
        <time>2019-06-27T18:54:29.000Z</time>
      </trkpt>
      <trkpt lat="43.95122" lon="1.80231">
        <ele>959.20001220703</ele>
        <time>2019-06-27T18:54:30.000Z</time>
      </trkpt>
      <trkpt lat="43.95122" lon="1.80232">
        <ele>959.20001220703</ele>
        <time>2019-06-27T18:54:31.000Z</time>
      </trkpt>
      <trkpt lat="43.95122" lon="1.80232">
        <ele>959.20001220703</ele>
        <time>2019-06-27T18:54:32.000Z</time>
      </trkpt>
      <trkpt lat="43.95122" lon="1.80232">
        <ele>959.20001220703</ele>
        <time>2019-06-27T18:54:33.000Z</time>
      </trkpt>
      <trkpt lat="43.95122" lon="1.80232">
        <ele>959.20001220703</ele>
        <time>2019-06-27T18:54:34.000Z</time>
      </trkpt>
      <trkpt lat="43.95122" lon="1.80232">
        <ele>959.20001220703</ele>
        <time>2019-06-27T18:54:35.000Z</time>
      </trkpt>
      <trkpt lat="43.95122" lon="1.80232">
        <ele>959.20001220703</ele>
        <time>2019-06-27T18:54:36.000Z</time>
      </trkpt>
      <trkpt lat="43.95122" lon="1.80232">
        <ele>959.20001220703</ele>
        <time>2019-06-27T18:54:37.000Z</time>
      </trkpt>
      <trkpt lat="43.95122" lon="1.80232">
        <ele>959.20001220703</ele>
        <time>2019-06-27T18:54:38.000Z</time>
      </trkpt>
      <trkpt lat="43.95122" lon="1.80232">
        <ele>959.40002441406</ele>
        <time>2019-06-27T18:54:39.000Z</time>
      </trkpt>
      <trkpt lat="43.95122" lon="1.80232">
        <ele>959.40002441406</ele>
        <time>2019-06-27T18:54:40.000Z</time>
      </trkpt>
      <trkpt lat="43.95122" lon="1.80232">
        <ele>959.20001220703</ele>
        <time>2019-06-27T18:54:41.000Z</time>
      </trkpt>
      <trkpt lat="43.95122" lon="1.80232">
        <ele>959.40002441406</ele>
        <time>2019-06-27T18:54:42.000Z</time>
      </trkpt>
      <trkpt lat="43.95122" lon="1.80232">
        <ele>959.20001220703</ele>
        <time>2019-06-27T18:54:43.000Z</time>
      </trkpt>
      <trkpt lat="43.95122" lon="1.80232">
        <ele>959.20001220703</ele>
        <time>2019-06-27T18:54:44.000Z</time>
      </trkpt>
      <trkpt lat="43.95122" lon="1.80232">
        <ele>959.20001220703</ele>
        <time>2019-06-27T18:54:45.000Z</time>
      </trkpt>
      <trkpt lat="43.95122" lon="1.80232">
        <ele>959.20001220703</ele>
        <time>2019-06-27T18:54:46.000Z</time>
      </trkpt>
      <trkpt lat="43.95122" lon="1.80232">
        <ele>959.20001220703</ele>
        <time>2019-06-27T18:54:47.000Z</time>
      </trkpt>
      <trkpt lat="43.95122" lon="1.80232">
        <ele>959.20001220703</ele>
        <time>2019-06-27T18:54:48.000Z</time>
      </trkpt>
      <trkpt lat="43.95122" lon="1.80232">
        <ele>959.20001220703</ele>
        <time>2019-06-27T18:54:49.000Z</time>
      </trkpt>
      <trkpt lat="43.95122" lon="1.80232">
        <ele>959.20001220703</ele>
        <time>2019-06-27T18:54:50.000Z</time>
      </trkpt>
      <trkpt lat="43.95122" lon="1.80232">
        <ele>959.40002441406</ele>
        <time>2019-06-27T18:54:51.000Z</time>
      </trkpt>
      <trkpt lat="43.95122" lon="1.80232">
        <ele>959.40002441406</ele>
        <time>2019-06-27T18:54:52.000Z</time>
      </trkpt>
      <trkpt lat="43.95122" lon="1.80232">
        <ele>959.40002441406</ele>
        <time>2019-06-27T18:54:53.000Z</time>
      </trkpt>
      <trkpt lat="43.95122" lon="1.80232">
        <ele>959.40002441406</ele>
        <time>2019-06-27T18:54:54.000Z</time>
      </trkpt>
      <trkpt lat="43.95122" lon="1.80232">
        <ele>959.40002441406</ele>
        <time>2019-06-27T18:54:55.000Z</time>
      </trkpt>
      <trkpt lat="43.95122" lon="1.80232">
        <ele>959.20001220703</ele>
        <time>2019-06-27T18:54:56.000Z</time>
      </trkpt>
      <trkpt lat="43.95122" lon="1.80232">
        <ele>959.20001220703</ele>
        <time>2019-06-27T18:54:57.000Z</time>
      </trkpt>
      <trkpt lat="43.95122" lon="1.80234">
        <ele>959.20001220703</ele>
        <time>2019-06-27T18:54:58.000Z</time>
      </trkpt>
      <trkpt lat="43.95122" lon="1.80236">
        <ele>959.20001220703</ele>
        <time>2019-06-27T18:54:59.000Z</time>
      </trkpt>
      <trkpt lat="43.95121" lon="1.80238">
        <ele>959.20001220703</ele>
        <time>2019-06-27T18:55:00.000Z</time>
      </trkpt>
      <trkpt lat="43.95121" lon="1.80241">
        <ele>959.20001220703</ele>
        <time>2019-06-27T18:55:01.000Z</time>
      </trkpt>
      <trkpt lat="43.9512" lon="1.80243">
        <ele>959.20001220703</ele>
        <time>2019-06-27T18:55:02.000Z</time>
      </trkpt>
      <trkpt lat="43.9512" lon="1.80246">
        <ele>959.40002441406</ele>
        <time>2019-06-27T18:55:03.000Z</time>
      </trkpt>
      <trkpt lat="43.9512" lon="1.80249">
        <ele>959.40002441406</ele>
        <time>2019-06-27T18:55:04.000Z</time>
      </trkpt>
      <trkpt lat="43.9512" lon="1.80252">
        <ele>959.59997558594</ele>
        <time>2019-06-27T18:55:05.000Z</time>
      </trkpt>
      <trkpt lat="43.9512" lon="1.80255">
        <ele>959.59997558594</ele>
        <time>2019-06-27T18:55:06.000Z</time>
      </trkpt>
      <trkpt lat="43.95121" lon="1.80258">
        <ele>959.59997558594</ele>
        <time>2019-06-27T18:55:07.000Z</time>
      </trkpt>
      <trkpt lat="43.95121" lon="1.80261">
        <ele>959.59997558594</ele>
        <time>2019-06-27T18:55:08.000Z</time>
      </trkpt>
      <trkpt lat="43.95121" lon="1.80265">
        <ele>959.59997558594</ele>
        <time>2019-06-27T18:55:09.000Z</time>
      </trkpt>
      <trkpt lat="43.95122" lon="1.80268">
        <ele>959.79998779297</ele>
        <time>2019-06-27T18:55:10.000Z</time>
      </trkpt>
      <trkpt lat="43.95123" lon="1.80271">
        <ele>959.79998779297</ele>
        <time>2019-06-27T18:55:11.000Z</time>
      </trkpt>
      <trkpt lat="43.95123" lon="1.80275">
        <ele>960</ele>
        <time>2019-06-27T18:55:12.000Z</time>
      </trkpt>
      <trkpt lat="43.95123" lon="1.80279">
        <ele>960</ele>
        <time>2019-06-27T18:55:13.000Z</time>
      </trkpt>
      <trkpt lat="43.95124" lon="1.80282">
        <ele>960</ele>
        <time>2019-06-27T18:55:14.000Z</time>
      </trkpt>
      <trkpt lat="43.95124" lon="1.80286">
        <ele>960</ele>
        <time>2019-06-27T18:55:15.000Z</time>
      </trkpt>
      <trkpt lat="43.95124" lon="1.80289">
        <ele>960</ele>
        <time>2019-06-27T18:55:16.000Z</time>
      </trkpt>
      <trkpt lat="43.95124" lon="1.80293">
        <ele>960</ele>
        <time>2019-06-27T18:55:17.000Z</time>
      </trkpt>
      <trkpt lat="43.95124" lon="1.80297">
        <ele>960.20001220703</ele>
        <time>2019-06-27T18:55:18.000Z</time>
      </trkpt>
      <trkpt lat="43.95124" lon="1.80301">
        <ele>960.20001220703</ele>
        <time>2019-06-27T18:55:19.000Z</time>
      </trkpt>
      <trkpt lat="43.95123" lon="1.80305">
        <ele>960.40002441406</ele>
        <time>2019-06-27T18:55:20.000Z</time>
      </trkpt>
      <trkpt lat="43.95123" lon="1.80309">
        <ele>960.40002441406</ele>
        <time>2019-06-27T18:55:21.000Z</time>
      </trkpt>
      <trkpt lat="43.95123" lon="1.80313">
        <ele>960.40002441406</ele>
        <time>2019-06-27T18:55:22.000Z</time>
      </trkpt>
      <trkpt lat="43.95123" lon="1.80317">
        <ele>960.40002441406</ele>
        <time>2019-06-27T18:55:23.000Z</time>
      </trkpt>
      <trkpt lat="43.95124" lon="1.80321">
        <ele>960.40002441406</ele>
        <time>2019-06-27T18:55:24.000Z</time>
      </trkpt>
      <trkpt lat="43.95124" lon="1.80326">
        <ele>960.40002441406</ele>
        <time>2019-06-27T18:55:25.000Z</time>
      </trkpt>
      <trkpt lat="43.95123" lon="1.8033">
        <ele>960.59997558594</ele>
        <time>2019-06-27T18:55:26.000Z</time>
      </trkpt>
      <trkpt lat="43.95123" lon="1.80335">
        <ele>960.59997558594</ele>
        <time>2019-06-27T18:55:27.000Z</time>
      </trkpt>
      <trkpt lat="43.95123" lon="1.80339">
        <ele>960.79998779297</ele>
        <time>2019-06-27T18:55:28.000Z</time>
      </trkpt>
      <trkpt lat="43.95122" lon="1.80343">
        <ele>960.79998779297</ele>
        <time>2019-06-27T18:55:29.000Z</time>
      </trkpt>
      <trkpt lat="43.95122" lon="1.80347">
        <ele>960.79998779297</ele>
        <time>2019-06-27T18:55:30.000Z</time>
      </trkpt>
      <trkpt lat="43.95121" lon="1.80351">
        <ele>960.79998779297</ele>
        <time>2019-06-27T18:55:31.000Z</time>
      </trkpt>
      <trkpt lat="43.95121" lon="1.80355">
        <ele>961</ele>
        <time>2019-06-27T18:55:32.000Z</time>
      </trkpt>
      <trkpt lat="43.95121" lon="1.8036">
        <ele>961</ele>
        <time>2019-06-27T18:55:33.000Z</time>
      </trkpt>
      <trkpt lat="43.95121" lon="1.80364">
        <ele>961</ele>
        <time>2019-06-27T18:55:34.000Z</time>
      </trkpt>
      <trkpt lat="43.9512" lon="1.80369">
        <ele>961</ele>
        <time>2019-06-27T18:55:35.000Z</time>
      </trkpt>
      <trkpt lat="43.9512" lon="1.80373">
        <ele>961.20001220703</ele>
        <time>2019-06-27T18:55:36.000Z</time>
      </trkpt>
      <trkpt lat="43.95119" lon="1.80378">
        <ele>961.20001220703</ele>
        <time>2019-06-27T18:55:37.000Z</time>
      </trkpt>
      <trkpt lat="43.95119" lon="1.80382">
        <ele>961.20001220703</ele>
        <time>2019-06-27T18:55:38.000Z</time>
      </trkpt>
      <trkpt lat="43.95118" lon="1.80387">
        <ele>961.20001220703</ele>
        <time>2019-06-27T18:55:39.000Z</time>
      </trkpt>
      <trkpt lat="43.95117" lon="1.80392">
        <ele>961.20001220703</ele>
        <time>2019-06-27T18:55:40.000Z</time>
      </trkpt>
      <trkpt lat="43.95117" lon="1.80396">
        <ele>961.20001220703</ele>
        <time>2019-06-27T18:55:41.000Z</time>
      </trkpt>
      <trkpt lat="43.95116" lon="1.80401">
        <ele>961.20001220703</ele>
        <time>2019-06-27T18:55:42.000Z</time>
      </trkpt>
      <trkpt lat="43.95115" lon="1.80405">
        <ele>961.40002441406</ele>
        <time>2019-06-27T18:55:43.000Z</time>
      </trkpt>
      <trkpt lat="43.95114" lon="1.80409">
        <ele>961.59997558594</ele>
        <time>2019-06-27T18:55:44.000Z</time>
      </trkpt>
      <trkpt lat="43.95113" lon="1.80414">
        <ele>961.59997558594</ele>
        <time>2019-06-27T18:55:45.000Z</time>
      </trkpt>
      <trkpt lat="43.95113" lon="1.80418">
        <ele>961.59997558594</ele>
        <time>2019-06-27T18:55:46.000Z</time>
      </trkpt>
      <trkpt lat="43.95112" lon="1.80422">
        <ele>961.59997558594</ele>
        <time>2019-06-27T18:55:47.000Z</time>
      </trkpt>
      <trkpt lat="43.95111" lon="1.80427">
        <ele>961.59997558594</ele>
        <time>2019-06-27T18:55:48.000Z</time>
      </trkpt>
      <trkpt lat="43.9511" lon="1.80431">
        <ele>961.59997558594</ele>
        <time>2019-06-27T18:55:49.000Z</time>
      </trkpt>
      <trkpt lat="43.95109" lon="1.80436">
        <ele>961.79998779297</ele>
        <time>2019-06-27T18:55:50.000Z</time>
      </trkpt>
      <trkpt lat="43.95109" lon="1.8044">
        <ele>961.79998779297</ele>
        <time>2019-06-27T18:55:51.000Z</time>
      </trkpt>
      <trkpt lat="43.95108" lon="1.80444">
        <ele>961.79998779297</ele>
        <time>2019-06-27T18:55:52.000Z</time>
      </trkpt>
      <trkpt lat="43.95107" lon="1.80448">
        <ele>961.79998779297</ele>
        <time>2019-06-27T18:55:53.000Z</time>
      </trkpt>
      <trkpt lat="43.95106" lon="1.80453">
        <ele>962</ele>
        <time>2019-06-27T18:55:54.000Z</time>
      </trkpt>
      <trkpt lat="43.95105" lon="1.80457">
        <ele>962</ele>
        <time>2019-06-27T18:55:55.000Z</time>
      </trkpt>
      <trkpt lat="43.95104" lon="1.80461">
        <ele>962.20001220703</ele>
        <time>2019-06-27T18:55:56.000Z</time>
      </trkpt>
      <trkpt lat="43.95104" lon="1.80466">
        <ele>962.20001220703</ele>
        <time>2019-06-27T18:55:57.000Z</time>
      </trkpt>
      <trkpt lat="43.95103" lon="1.8047">
        <ele>962.20001220703</ele>
        <time>2019-06-27T18:55:58.000Z</time>
      </trkpt>
      <trkpt lat="43.95103" lon="1.80474">
        <ele>962.20001220703</ele>
        <time>2019-06-27T18:55:59.000Z</time>
      </trkpt>
      <trkpt lat="43.95103" lon="1.80478">
        <ele>962.40002441406</ele>
        <time>2019-06-27T18:56:00.000Z</time>
      </trkpt>
      <trkpt lat="43.95104" lon="1.80482">
        <ele>962.40002441406</ele>
        <time>2019-06-27T18:56:01.000Z</time>
      </trkpt>
      <trkpt lat="43.95106" lon="1.80485">
        <ele>962.40002441406</ele>
        <time>2019-06-27T18:56:02.000Z</time>
      </trkpt>
      <trkpt lat="43.95108" lon="1.80486">
        <ele>962.59997558594</ele>
        <time>2019-06-27T18:56:03.000Z</time>
      </trkpt>
      <trkpt lat="43.95111" lon="1.80487">
        <ele>962.59997558594</ele>
        <time>2019-06-27T18:56:04.000Z</time>
      </trkpt>
      <trkpt lat="43.95113" lon="1.80489">
        <ele>962.59997558594</ele>
        <time>2019-06-27T18:56:05.000Z</time>
      </trkpt>
      <trkpt lat="43.95117" lon="1.8049">
        <ele>962.59997558594</ele>
        <time>2019-06-27T18:56:06.000Z</time>
      </trkpt>
      <trkpt lat="43.9512" lon="1.80492">
        <ele>962.59997558594</ele>
        <time>2019-06-27T18:56:07.000Z</time>
      </trkpt>
      <trkpt lat="43.95123" lon="1.80495">
        <ele>962.59997558594</ele>
        <time>2019-06-27T18:56:08.000Z</time>
      </trkpt>
      <trkpt lat="43.95126" lon="1.80497">
        <ele>962.59997558594</ele>
        <time>2019-06-27T18:56:09.000Z</time>
      </trkpt>
      <trkpt lat="43.9513" lon="1.80499">
        <ele>962.59997558594</ele>
        <time>2019-06-27T18:56:10.000Z</time>
      </trkpt>
      <trkpt lat="43.95134" lon="1.80501">
        <ele>962.79998779297</ele>
        <time>2019-06-27T18:56:11.000Z</time>
      </trkpt>
      <trkpt lat="43.95137" lon="1.80503">
        <ele>962.79998779297</ele>
        <time>2019-06-27T18:56:12.000Z</time>
      </trkpt>
      <trkpt lat="43.95141" lon="1.80505">
        <ele>962.79998779297</ele>
        <time>2019-06-27T18:56:13.000Z</time>
      </trkpt>
      <trkpt lat="43.95144" lon="1.80508">
        <ele>962.59997558594</ele>
        <time>2019-06-27T18:56:14.000Z</time>
      </trkpt>
      <trkpt lat="43.95148" lon="1.80512">
        <ele>962.20001220703</ele>
        <time>2019-06-27T18:56:15.000Z</time>
      </trkpt>
      <trkpt lat="43.9515" lon="1.80516">
        <ele>962.20001220703</ele>
        <time>2019-06-27T18:56:16.000Z</time>
      </trkpt>
      <trkpt lat="43.95151" lon="1.80523">
        <ele>962.20001220703</ele>
        <time>2019-06-27T18:56:17.000Z</time>
      </trkpt>
      <trkpt lat="43.95152" lon="1.80529">
        <ele>962.20001220703</ele>
        <time>2019-06-27T18:56:18.000Z</time>
      </trkpt>
      <trkpt lat="43.95152" lon="1.80537">
        <ele>962</ele>
        <time>2019-06-27T18:56:19.000Z</time>
      </trkpt>
      <trkpt lat="43.95151" lon="1.80544">
        <ele>961.79998779297</ele>
        <time>2019-06-27T18:56:20.000Z</time>
      </trkpt>
      <trkpt lat="43.95149" lon="1.80551">
        <ele>961.40002441406</ele>
        <time>2019-06-27T18:56:21.000Z</time>
      </trkpt>
      <trkpt lat="43.95146" lon="1.80556">
        <ele>961.20001220703</ele>
        <time>2019-06-27T18:56:22.000Z</time>
      </trkpt>
      <trkpt lat="43.95142" lon="1.80562">
        <ele>961</ele>
        <time>2019-06-27T18:56:23.000Z</time>
      </trkpt>
      <trkpt lat="43.95139" lon="1.80566">
        <ele>961</ele>
        <time>2019-06-27T18:56:24.000Z</time>
      </trkpt>
      <trkpt lat="43.95135" lon="1.8057">
        <ele>961</ele>
        <time>2019-06-27T18:56:25.000Z</time>
      </trkpt>
      <trkpt lat="43.95132" lon="1.80574">
        <ele>960.79998779297</ele>
        <time>2019-06-27T18:56:26.000Z</time>
      </trkpt>
      <trkpt lat="43.95128" lon="1.80577">
        <ele>960.79998779297</ele>
        <time>2019-06-27T18:56:27.000Z</time>
      </trkpt>
      <trkpt lat="43.95125" lon="1.80581">
        <ele>960.59997558594</ele>
        <time>2019-06-27T18:56:28.000Z</time>
      </trkpt>
      <trkpt lat="43.95122" lon="1.80584">
        <ele>960.79998779297</ele>
        <time>2019-06-27T18:56:29.000Z</time>
      </trkpt>
      <trkpt lat="43.95119" lon="1.80588">
        <ele>960.59997558594</ele>
        <time>2019-06-27T18:56:30.000Z</time>
      </trkpt>
      <trkpt lat="43.95116" lon="1.80592">
        <ele>960.59997558594</ele>
        <time>2019-06-27T18:56:31.000Z</time>
      </trkpt>
      <trkpt lat="43.95114" lon="1.80598">
        <ele>960.59997558594</ele>
        <time>2019-06-27T18:56:32.000Z</time>
      </trkpt>
      <trkpt lat="43.95113" lon="1.80605">
        <ele>960.40002441406</ele>
        <time>2019-06-27T18:56:33.000Z</time>
      </trkpt>
      <trkpt lat="43.95111" lon="1.80612">
        <ele>960.40002441406</ele>
        <time>2019-06-27T18:56:34.000Z</time>
      </trkpt>
      <trkpt lat="43.9511" lon="1.80619">
        <ele>960.20001220703</ele>
        <time>2019-06-27T18:56:35.000Z</time>
      </trkpt>
      <trkpt lat="43.95108" lon="1.80626">
        <ele>960</ele>
        <time>2019-06-27T18:56:36.000Z</time>
      </trkpt>
      <trkpt lat="43.95106" lon="1.80632">
        <ele>960.20001220703</ele>
        <time>2019-06-27T18:56:37.000Z</time>
      </trkpt>
      <trkpt lat="43.95104" lon="1.80638">
        <ele>960</ele>
        <time>2019-06-27T18:56:38.000Z</time>
      </trkpt>
      <trkpt lat="43.95103" lon="1.80644">
        <ele>959.40002441406</ele>
        <time>2019-06-27T18:56:39.000Z</time>
      </trkpt>
      <trkpt lat="43.95102" lon="1.8065">
        <ele>959.20001220703</ele>
        <time>2019-06-27T18:56:40.000Z</time>
      </trkpt>
      <trkpt lat="43.95101" lon="1.80655">
        <ele>959.20001220703</ele>
        <time>2019-06-27T18:56:41.000Z</time>
      </trkpt>
      <trkpt lat="43.951" lon="1.8066">
        <ele>959.20001220703</ele>
        <time>2019-06-27T18:56:42.000Z</time>
      </trkpt>
      <trkpt lat="43.95099" lon="1.80665">
        <ele>959.20001220703</ele>
        <time>2019-06-27T18:56:43.000Z</time>
      </trkpt>
      <trkpt lat="43.95097" lon="1.8067">
        <ele>959.20001220703</ele>
        <time>2019-06-27T18:56:44.000Z</time>
      </trkpt>
      <trkpt lat="43.95096" lon="1.80675">
        <ele>959</ele>
        <time>2019-06-27T18:56:45.000Z</time>
      </trkpt>
      <trkpt lat="43.95096" lon="1.80679">
        <ele>959.20001220703</ele>
        <time>2019-06-27T18:56:46.000Z</time>
      </trkpt>
      <trkpt lat="43.95095" lon="1.80684">
        <ele>959.20001220703</ele>
        <time>2019-06-27T18:56:47.000Z</time>
      </trkpt>
      <trkpt lat="43.95095" lon="1.80689">
        <ele>959.40002441406</ele>
        <time>2019-06-27T18:56:48.000Z</time>
      </trkpt>
      <trkpt lat="43.95094" lon="1.80695">
        <ele>959.40002441406</ele>
        <time>2019-06-27T18:56:49.000Z</time>
      </trkpt>
      <trkpt lat="43.95094" lon="1.807">
        <ele>959.59997558594</ele>
        <time>2019-06-27T18:56:50.000Z</time>
      </trkpt>
      <trkpt lat="43.95094" lon="1.80705">
        <ele>959.59997558594</ele>
        <time>2019-06-27T18:56:51.000Z</time>
      </trkpt>
      <trkpt lat="43.95095" lon="1.8071">
        <ele>959.40002441406</ele>
        <time>2019-06-27T18:56:52.000Z</time>
      </trkpt>
      <trkpt lat="43.95096" lon="1.80716">
        <ele>959.20001220703</ele>
        <time>2019-06-27T18:56:53.000Z</time>
      </trkpt>
      <trkpt lat="43.95097" lon="1.80723">
        <ele>959.20001220703</ele>
        <time>2019-06-27T18:56:54.000Z</time>
      </trkpt>
      <trkpt lat="43.95098" lon="1.80729">
        <ele>959</ele>
        <time>2019-06-27T18:56:55.000Z</time>
      </trkpt>
      <trkpt lat="43.95099" lon="1.80735">
        <ele>959</ele>
        <time>2019-06-27T18:56:56.000Z</time>
      </trkpt>
      <trkpt lat="43.951" lon="1.80741">
        <ele>958.79998779297</ele>
        <time>2019-06-27T18:56:57.000Z</time>
      </trkpt>
      <trkpt lat="43.95101" lon="1.80747">
        <ele>959</ele>
        <time>2019-06-27T18:56:58.000Z</time>
      </trkpt>
      <trkpt lat="43.95101" lon="1.80754">
        <ele>958.79998779297</ele>
        <time>2019-06-27T18:56:59.000Z</time>
      </trkpt>
      <trkpt lat="43.95101" lon="1.8076">
        <ele>958.59997558594</ele>
        <time>2019-06-27T18:57:00.000Z</time>
      </trkpt>
      <trkpt lat="43.95102" lon="1.80767">
        <ele>958.79998779297</ele>
        <time>2019-06-27T18:57:01.000Z</time>
      </trkpt>
      <trkpt lat="43.95102" lon="1.80774">
        <ele>958.79998779297</ele>
        <time>2019-06-27T18:57:02.000Z</time>
      </trkpt>
      <trkpt lat="43.95102" lon="1.8078">
        <ele>958.79998779297</ele>
        <time>2019-06-27T18:57:03.000Z</time>
      </trkpt>
      <trkpt lat="43.95102" lon="1.80786">
        <ele>958.59997558594</ele>
        <time>2019-06-27T18:57:04.000Z</time>
      </trkpt>
      <trkpt lat="43.95102" lon="1.80792">
        <ele>958.40002441406</ele>
        <time>2019-06-27T18:57:05.000Z</time>
      </trkpt>
      <trkpt lat="43.95101" lon="1.80798">
        <ele>958.40002441406</ele>
        <time>2019-06-27T18:57:06.000Z</time>
      </trkpt>
      <trkpt lat="43.95101" lon="1.80803">
        <ele>958.40002441406</ele>
        <time>2019-06-27T18:57:07.000Z</time>
      </trkpt>
      <trkpt lat="43.95101" lon="1.80808">
        <ele>958.40002441406</ele>
        <time>2019-06-27T18:57:08.000Z</time>
      </trkpt>
      <trkpt lat="43.95101" lon="1.80814">
        <ele>958.20001220703</ele>
        <time>2019-06-27T18:57:09.000Z</time>
      </trkpt>
      <trkpt lat="43.95101" lon="1.8082">
        <ele>957.59997558594</ele>
        <time>2019-06-27T18:57:10.000Z</time>
      </trkpt>
      <trkpt lat="43.95101" lon="1.80826">
        <ele>957.79998779297</ele>
        <time>2019-06-27T18:57:11.000Z</time>
      </trkpt>
      <trkpt lat="43.951" lon="1.80832">
        <ele>958</ele>
        <time>2019-06-27T18:57:12.000Z</time>
      </trkpt>
      <trkpt lat="43.951" lon="1.80838">
        <ele>958.40002441406</ele>
        <time>2019-06-27T18:57:13.000Z</time>
      </trkpt>
      <trkpt lat="43.95102" lon="1.80844">
        <ele>958.40002441406</ele>
        <time>2019-06-27T18:57:14.000Z</time>
      </trkpt>
      <trkpt lat="43.95103" lon="1.80849">
        <ele>958.59997558594</ele>
        <time>2019-06-27T18:57:15.000Z</time>
      </trkpt>
      <trkpt lat="43.95105" lon="1.80854">
        <ele>958.40002441406</ele>
        <time>2019-06-27T18:57:16.000Z</time>
      </trkpt>
      <trkpt lat="43.95107" lon="1.80859">
        <ele>958.40002441406</ele>
        <time>2019-06-27T18:57:17.000Z</time>
      </trkpt>
      <trkpt lat="43.9511" lon="1.80864">
        <ele>958.40002441406</ele>
        <time>2019-06-27T18:57:18.000Z</time>
      </trkpt>
      <trkpt lat="43.95112" lon="1.80869">
        <ele>958.40002441406</ele>
        <time>2019-06-27T18:57:19.000Z</time>
      </trkpt>
      <trkpt lat="43.95115" lon="1.80873">
        <ele>958.59997558594</ele>
        <time>2019-06-27T18:57:20.000Z</time>
      </trkpt>
      <trkpt lat="43.95117" lon="1.80877">
        <ele>959</ele>
        <time>2019-06-27T18:57:21.000Z</time>
      </trkpt>
      <trkpt lat="43.95119" lon="1.80881">
        <ele>959.40002441406</ele>
        <time>2019-06-27T18:57:22.000Z</time>
      </trkpt>
      <trkpt lat="43.9512" lon="1.80886">
        <ele>959.59997558594</ele>
        <time>2019-06-27T18:57:23.000Z</time>
      </trkpt>
      <trkpt lat="43.95122" lon="1.8089">
        <ele>960</ele>
        <time>2019-06-27T18:57:24.000Z</time>
      </trkpt>
      <trkpt lat="43.95123" lon="1.80894">
        <ele>960.20001220703</ele>
        <time>2019-06-27T18:57:25.000Z</time>
      </trkpt>
      <trkpt lat="43.95124" lon="1.80899">
        <ele>960.59997558594</ele>
        <time>2019-06-27T18:57:26.000Z</time>
      </trkpt>
      <trkpt lat="43.95125" lon="1.80903">
        <ele>961</ele>
        <time>2019-06-27T18:57:27.000Z</time>
      </trkpt>
      <trkpt lat="43.95126" lon="1.80908">
        <ele>961.20001220703</ele>
        <time>2019-06-27T18:57:28.000Z</time>
      </trkpt>
      <trkpt lat="43.95127" lon="1.80913">
        <ele>961.20001220703</ele>
        <time>2019-06-27T18:57:29.000Z</time>
      </trkpt>
      <trkpt lat="43.95127" lon="1.80918">
        <ele>961.20001220703</ele>
        <time>2019-06-27T18:57:30.000Z</time>
      </trkpt>
      <trkpt lat="43.95128" lon="1.80923">
        <ele>961</ele>
        <time>2019-06-27T18:57:31.000Z</time>
      </trkpt>
      <trkpt lat="43.95128" lon="1.80928">
        <ele>961</ele>
        <time>2019-06-27T18:57:32.000Z</time>
      </trkpt>
      <trkpt lat="43.95129" lon="1.80933">
        <ele>961</ele>
        <time>2019-06-27T18:57:33.000Z</time>
      </trkpt>
      <trkpt lat="43.95131" lon="1.80938">
        <ele>961.20001220703</ele>
        <time>2019-06-27T18:57:34.000Z</time>
      </trkpt>
      <trkpt lat="43.95132" lon="1.80943">
        <ele>961.40002441406</ele>
        <time>2019-06-27T18:57:35.000Z</time>
      </trkpt>
      <trkpt lat="43.95133" lon="1.80949">
        <ele>961.40002441406</ele>
        <time>2019-06-27T18:57:36.000Z</time>
      </trkpt>
      <trkpt lat="43.95134" lon="1.80954">
        <ele>961.59997558594</ele>
        <time>2019-06-27T18:57:37.000Z</time>
      </trkpt>
      <trkpt lat="43.95135" lon="1.80961">
        <ele>961.59997558594</ele>
        <time>2019-06-27T18:57:38.000Z</time>
      </trkpt>
      <trkpt lat="43.95135" lon="1.80967">
        <ele>961.59997558594</ele>
        <time>2019-06-27T18:57:39.000Z</time>
      </trkpt>
      <trkpt lat="43.95136" lon="1.80973">
        <ele>961.59997558594</ele>
        <time>2019-06-27T18:57:40.000Z</time>
      </trkpt>
      <trkpt lat="43.95136" lon="1.80979">
        <ele>961.40002441406</ele>
        <time>2019-06-27T18:57:41.000Z</time>
      </trkpt>
      <trkpt lat="43.95138" lon="1.80985">
        <ele>961.20001220703</ele>
        <time>2019-06-27T18:57:42.000Z</time>
      </trkpt>
      <trkpt lat="43.95139" lon="1.80991">
        <ele>961.20001220703</ele>
        <time>2019-06-27T18:57:43.000Z</time>
      </trkpt>
      <trkpt lat="43.9514" lon="1.80997">
        <ele>961.20001220703</ele>
        <time>2019-06-27T18:57:44.000Z</time>
      </trkpt>
      <trkpt lat="43.95142" lon="1.81003">
        <ele>961.40002441406</ele>
        <time>2019-06-27T18:57:45.000Z</time>
      </trkpt>
      <trkpt lat="43.95143" lon="1.81009">
        <ele>961.20001220703</ele>
        <time>2019-06-27T18:57:46.000Z</time>
      </trkpt>
      <trkpt lat="43.95145" lon="1.81015">
        <ele>961.20001220703</ele>
        <time>2019-06-27T18:57:47.000Z</time>
      </trkpt>
      <trkpt lat="43.95147" lon="1.81021">
        <ele>961</ele>
        <time>2019-06-27T18:57:48.000Z</time>
      </trkpt>
      <trkpt lat="43.95149" lon="1.81027">
        <ele>960.79998779297</ele>
        <time>2019-06-27T18:57:49.000Z</time>
      </trkpt>
      <trkpt lat="43.95151" lon="1.81033">
        <ele>960.59997558594</ele>
        <time>2019-06-27T18:57:50.000Z</time>
      </trkpt>
      <trkpt lat="43.95152" lon="1.8104">
        <ele>960.20001220703</ele>
        <time>2019-06-27T18:57:51.000Z</time>
      </trkpt>
      <trkpt lat="43.95153" lon="1.81047">
        <ele>960.20001220703</ele>
        <time>2019-06-27T18:57:52.000Z</time>
      </trkpt>
      <trkpt lat="43.95155" lon="1.81055">
        <ele>960.20001220703</ele>
        <time>2019-06-27T18:57:53.000Z</time>
      </trkpt>
      <trkpt lat="43.95156" lon="1.81062">
        <ele>960.20001220703</ele>
        <time>2019-06-27T18:57:54.000Z</time>
      </trkpt>
      <trkpt lat="43.95158" lon="1.8107">
        <ele>960</ele>
        <time>2019-06-27T18:57:55.000Z</time>
      </trkpt>
      <trkpt lat="43.9516" lon="1.81078">
        <ele>960</ele>
        <time>2019-06-27T18:57:56.000Z</time>
      </trkpt>
      <trkpt lat="43.95161" lon="1.81086">
        <ele>959.79998779297</ele>
        <time>2019-06-27T18:57:57.000Z</time>
      </trkpt>
      <trkpt lat="43.95163" lon="1.81093">
        <ele>959.79998779297</ele>
        <time>2019-06-27T18:57:58.000Z</time>
      </trkpt>
      <trkpt lat="43.95164" lon="1.81101">
        <ele>959.79998779297</ele>
        <time>2019-06-27T18:57:59.000Z</time>
      </trkpt>
      <trkpt lat="43.95166" lon="1.81109">
        <ele>959.59997558594</ele>
        <time>2019-06-27T18:58:00.000Z</time>
      </trkpt>
      <trkpt lat="43.95168" lon="1.81117">
        <ele>959.79998779297</ele>
        <time>2019-06-27T18:58:01.000Z</time>
      </trkpt>
      <trkpt lat="43.95169" lon="1.81125">
        <ele>959.59997558594</ele>
        <time>2019-06-27T18:58:02.000Z</time>
      </trkpt>
      <trkpt lat="43.95171" lon="1.81132">
        <ele>959.59997558594</ele>
        <time>2019-06-27T18:58:03.000Z</time>
      </trkpt>
      <trkpt lat="43.95172" lon="1.81139">
        <ele>959</ele>
        <time>2019-06-27T18:58:04.000Z</time>
      </trkpt>
      <trkpt lat="43.95173" lon="1.81147">
        <ele>959</ele>
        <time>2019-06-27T18:58:05.000Z</time>
      </trkpt>
      <trkpt lat="43.95173" lon="1.81154">
        <ele>958.79998779297</ele>
        <time>2019-06-27T18:58:06.000Z</time>
      </trkpt>
      <trkpt lat="43.95173" lon="1.8116">
        <ele>959</ele>
        <time>2019-06-27T18:58:07.000Z</time>
      </trkpt>
      <trkpt lat="43.95172" lon="1.81166">
        <ele>959</ele>
        <time>2019-06-27T18:58:08.000Z</time>
      </trkpt>
      <trkpt lat="43.95171" lon="1.81171">
        <ele>959.20001220703</ele>
        <time>2019-06-27T18:58:09.000Z</time>
      </trkpt>
      <trkpt lat="43.95171" lon="1.81177">
        <ele>959</ele>
        <time>2019-06-27T18:58:10.000Z</time>
      </trkpt>
      <trkpt lat="43.95172" lon="1.81182">
        <ele>958.79998779297</ele>
        <time>2019-06-27T18:58:11.000Z</time>
      </trkpt>
      <trkpt lat="43.95174" lon="1.81187">
        <ele>958.59997558594</ele>
        <time>2019-06-27T18:58:12.000Z</time>
      </trkpt>
      <trkpt lat="43.95177" lon="1.81191">
        <ele>958.59997558594</ele>
        <time>2019-06-27T18:58:13.000Z</time>
      </trkpt>
      <trkpt lat="43.95179" lon="1.81194">
        <ele>958.79998779297</ele>
        <time>2019-06-27T18:58:14.000Z</time>
      </trkpt>
      <trkpt lat="43.95182" lon="1.81198">
        <ele>959</ele>
        <time>2019-06-27T18:58:15.000Z</time>
      </trkpt>
      <trkpt lat="43.95185" lon="1.81201">
        <ele>959.20001220703</ele>
        <time>2019-06-27T18:58:16.000Z</time>
      </trkpt>
      <trkpt lat="43.95188" lon="1.81206">
        <ele>959.40002441406</ele>
        <time>2019-06-27T18:58:17.000Z</time>
      </trkpt>
      <trkpt lat="43.9519" lon="1.8121">
        <ele>959.40002441406</ele>
        <time>2019-06-27T18:58:18.000Z</time>
      </trkpt>
      <trkpt lat="43.95193" lon="1.81214">
        <ele>959.20001220703</ele>
        <time>2019-06-27T18:58:19.000Z</time>
      </trkpt>
      <trkpt lat="43.95196" lon="1.81217">
        <ele>959</ele>
        <time>2019-06-27T18:58:20.000Z</time>
      </trkpt>
      <trkpt lat="43.95199" lon="1.81219">
        <ele>958.59997558594</ele>
        <time>2019-06-27T18:58:21.000Z</time>
      </trkpt>
      <trkpt lat="43.95203" lon="1.81221">
        <ele>958.59997558594</ele>
        <time>2019-06-27T18:58:22.000Z</time>
      </trkpt>
      <trkpt lat="43.95207" lon="1.81223">
        <ele>958.79998779297</ele>
        <time>2019-06-27T18:58:23.000Z</time>
      </trkpt>
      <trkpt lat="43.95212" lon="1.81225">
        <ele>959.20001220703</ele>
        <time>2019-06-27T18:58:24.000Z</time>
      </trkpt>
      <trkpt lat="43.95216" lon="1.81227">
        <ele>959.40002441406</ele>
        <time>2019-06-27T18:58:25.000Z</time>
      </trkpt>
      <trkpt lat="43.9522" lon="1.81229">
        <ele>959.40002441406</ele>
        <time>2019-06-27T18:58:26.000Z</time>
      </trkpt>
      <trkpt lat="43.95223" lon="1.8123">
        <ele>959.59997558594</ele>
        <time>2019-06-27T18:58:27.000Z</time>
      </trkpt>
      <trkpt lat="43.95227" lon="1.81231">
        <ele>959.79998779297</ele>
        <time>2019-06-27T18:58:28.000Z</time>
      </trkpt>
      <trkpt lat="43.95231" lon="1.81232">
        <ele>960</ele>
        <time>2019-06-27T18:58:29.000Z</time>
      </trkpt>
      <trkpt lat="43.95235" lon="1.81232">
        <ele>960.20001220703</ele>
        <time>2019-06-27T18:58:30.000Z</time>
      </trkpt>
      <trkpt lat="43.95239" lon="1.81233">
        <ele>960.20001220703</ele>
        <time>2019-06-27T18:58:31.000Z</time>
      </trkpt>
      <trkpt lat="43.95243" lon="1.81235">
        <ele>960.20001220703</ele>
        <time>2019-06-27T18:58:32.000Z</time>
      </trkpt>
      <trkpt lat="43.95247" lon="1.81236">
        <ele>960.20001220703</ele>
        <time>2019-06-27T18:58:33.000Z</time>
      </trkpt>
      <trkpt lat="43.95251" lon="1.81238">
        <ele>960.40002441406</ele>
        <time>2019-06-27T18:58:34.000Z</time>
      </trkpt>
      <trkpt lat="43.95255" lon="1.81239">
        <ele>960.59997558594</ele>
        <time>2019-06-27T18:58:35.000Z</time>
      </trkpt>
      <trkpt lat="43.9526" lon="1.81241">
        <ele>961</ele>
        <time>2019-06-27T18:58:36.000Z</time>
      </trkpt>
      <trkpt lat="43.95264" lon="1.81243">
        <ele>961.20001220703</ele>
        <time>2019-06-27T18:58:37.000Z</time>
      </trkpt>
      <trkpt lat="43.95268" lon="1.81245">
        <ele>961.40002441406</ele>
        <time>2019-06-27T18:58:38.000Z</time>
      </trkpt>
      <trkpt lat="43.95272" lon="1.81247">
        <ele>961.20001220703</ele>
        <time>2019-06-27T18:58:39.000Z</time>
      </trkpt>
      <trkpt lat="43.95276" lon="1.81249">
        <ele>961.20001220703</ele>
        <time>2019-06-27T18:58:40.000Z</time>
      </trkpt>
      <trkpt lat="43.9528" lon="1.81252">
        <ele>961</ele>
        <time>2019-06-27T18:58:41.000Z</time>
      </trkpt>
      <trkpt lat="43.95284" lon="1.81255">
        <ele>961</ele>
        <time>2019-06-27T18:58:42.000Z</time>
      </trkpt>
      <trkpt lat="43.95288" lon="1.81259">
        <ele>960.79998779297</ele>
        <time>2019-06-27T18:58:43.000Z</time>
      </trkpt>
      <trkpt lat="43.95292" lon="1.81262">
        <ele>960.59997558594</ele>
        <time>2019-06-27T18:58:44.000Z</time>
      </trkpt>
      <trkpt lat="43.95295" lon="1.81265">
        <ele>960.20001220703</ele>
        <time>2019-06-27T18:58:45.000Z</time>
      </trkpt>
      <trkpt lat="43.95297" lon="1.81269">
        <ele>959.79998779297</ele>
        <time>2019-06-27T18:58:46.000Z</time>
      </trkpt>
      <trkpt lat="43.95298" lon="1.81274">
        <ele>959.59997558594</ele>
        <time>2019-06-27T18:58:47.000Z</time>
      </trkpt>
      <trkpt lat="43.95297" lon="1.81278">
        <ele>959.20001220703</ele>
        <time>2019-06-27T18:58:48.000Z</time>
      </trkpt>
      <trkpt lat="43.95296" lon="1.8128">
        <ele>959.20001220703</ele>
        <time>2019-06-27T18:58:49.000Z</time>
      </trkpt>
      <trkpt lat="43.95294" lon="1.81283">
        <ele>959.20001220703</ele>
        <time>2019-06-27T18:58:50.000Z</time>
      </trkpt>
      <trkpt lat="43.95293" lon="1.81285">
        <ele>959.59997558594</ele>
        <time>2019-06-27T18:58:51.000Z</time>
      </trkpt>
      <trkpt lat="43.95291" lon="1.8129">
        <ele>959.79998779297</ele>
        <time>2019-06-27T18:58:52.000Z</time>
      </trkpt>
      <trkpt lat="43.95289" lon="1.81294">
        <ele>960</ele>
        <time>2019-06-27T18:58:53.000Z</time>
      </trkpt>
      <trkpt lat="43.95287" lon="1.81298">
        <ele>960</ele>
        <time>2019-06-27T18:58:54.000Z</time>
      </trkpt>
      <trkpt lat="43.95285" lon="1.81303">
        <ele>960.20001220703</ele>
        <time>2019-06-27T18:58:55.000Z</time>
      </trkpt>
      <trkpt lat="43.95283" lon="1.81308">
        <ele>960</ele>
        <time>2019-06-27T18:58:56.000Z</time>
      </trkpt>
      <trkpt lat="43.9528" lon="1.81313">
        <ele>959.79998779297</ele>
        <time>2019-06-27T18:58:57.000Z</time>
      </trkpt>
      <trkpt lat="43.95278" lon="1.81318">
        <ele>959.79998779297</ele>
        <time>2019-06-27T18:58:58.000Z</time>
      </trkpt>
      <trkpt lat="43.95277" lon="1.81322">
        <ele>959.79998779297</ele>
        <time>2019-06-27T18:58:59.000Z</time>
      </trkpt>
      <trkpt lat="43.95275" lon="1.81326">
        <ele>959.59997558594</ele>
        <time>2019-06-27T18:59:00.000Z</time>
      </trkpt>
      <trkpt lat="43.95274" lon="1.81331">
        <ele>959.59997558594</ele>
        <time>2019-06-27T18:59:01.000Z</time>
      </trkpt>
      <trkpt lat="43.95271" lon="1.81336">
        <ele>959.59997558594</ele>
        <time>2019-06-27T18:59:02.000Z</time>
      </trkpt>
      <trkpt lat="43.95268" lon="1.8134">
        <ele>959.20001220703</ele>
        <time>2019-06-27T18:59:03.000Z</time>
      </trkpt>
      <trkpt lat="43.95264" lon="1.81344">
        <ele>959</ele>
        <time>2019-06-27T18:59:04.000Z</time>
      </trkpt>
      <trkpt lat="43.9526" lon="1.81347">
        <ele>958.59997558594</ele>
        <time>2019-06-27T18:59:05.000Z</time>
      </trkpt>
      <trkpt lat="43.95256" lon="1.8135">
        <ele>958.79998779297</ele>
        <time>2019-06-27T18:59:06.000Z</time>
      </trkpt>
      <trkpt lat="43.95252" lon="1.81352">
        <ele>958.59997558594</ele>
        <time>2019-06-27T18:59:07.000Z</time>
      </trkpt>
      <trkpt lat="43.95249" lon="1.81355">
        <ele>958.79998779297</ele>
        <time>2019-06-27T18:59:08.000Z</time>
      </trkpt>
      <trkpt lat="43.95245" lon="1.81358">
        <ele>958.59997558594</ele>
        <time>2019-06-27T18:59:09.000Z</time>
      </trkpt>
      <trkpt lat="43.95243" lon="1.81363">
        <ele>958.59997558594</ele>
        <time>2019-06-27T18:59:10.000Z</time>
      </trkpt>
      <trkpt lat="43.9524" lon="1.81367">
        <ele>958.40002441406</ele>
        <time>2019-06-27T18:59:11.000Z</time>
      </trkpt>
      <trkpt lat="43.95237" lon="1.81372">
        <ele>958.40002441406</ele>
        <time>2019-06-27T18:59:12.000Z</time>
      </trkpt>
      <trkpt lat="43.95235" lon="1.81377">
        <ele>958.40002441406</ele>
        <time>2019-06-27T18:59:13.000Z</time>
      </trkpt>
      <trkpt lat="43.95233" lon="1.81382">
        <ele>958.40002441406</ele>
        <time>2019-06-27T18:59:14.000Z</time>
      </trkpt>
      <trkpt lat="43.95231" lon="1.81387">
        <ele>958.20001220703</ele>
        <time>2019-06-27T18:59:15.000Z</time>
      </trkpt>
      <trkpt lat="43.95229" lon="1.81391">
        <ele>958.40002441406</ele>
        <time>2019-06-27T18:59:16.000Z</time>
      </trkpt>
      <trkpt lat="43.95226" lon="1.81396">
        <ele>958.59997558594</ele>
        <time>2019-06-27T18:59:17.000Z</time>
      </trkpt>
      <trkpt lat="43.95224" lon="1.81401">
        <ele>958.59997558594</ele>
        <time>2019-06-27T18:59:18.000Z</time>
      </trkpt>
      <trkpt lat="43.95222" lon="1.81406">
        <ele>958.59997558594</ele>
        <time>2019-06-27T18:59:19.000Z</time>
      </trkpt>
      <trkpt lat="43.95219" lon="1.8141">
        <ele>958.40002441406</ele>
        <time>2019-06-27T18:59:20.000Z</time>
      </trkpt>
      <trkpt lat="43.95217" lon="1.81414">
        <ele>958.40002441406</ele>
        <time>2019-06-27T18:59:21.000Z</time>
      </trkpt>
      <trkpt lat="43.95214" lon="1.81418">
        <ele>958.40002441406</ele>
        <time>2019-06-27T18:59:22.000Z</time>
      </trkpt>
      <trkpt lat="43.95212" lon="1.81422">
        <ele>958.59997558594</ele>
        <time>2019-06-27T18:59:23.000Z</time>
      </trkpt>
      <trkpt lat="43.95209" lon="1.81425">
        <ele>958.59997558594</ele>
        <time>2019-06-27T18:59:24.000Z</time>
      </trkpt>
      <trkpt lat="43.95207" lon="1.81429">
        <ele>958.59997558594</ele>
        <time>2019-06-27T18:59:25.000Z</time>
      </trkpt>
      <trkpt lat="43.95204" lon="1.81432">
        <ele>958.59997558594</ele>
        <time>2019-06-27T18:59:26.000Z</time>
      </trkpt>
      <trkpt lat="43.95202" lon="1.81435">
        <ele>958.59997558594</ele>
        <time>2019-06-27T18:59:27.000Z</time>
      </trkpt>
      <trkpt lat="43.952" lon="1.81438">
        <ele>958.79998779297</ele>
        <time>2019-06-27T18:59:28.000Z</time>
      </trkpt>
      <trkpt lat="43.95197" lon="1.81441">
        <ele>958.79998779297</ele>
        <time>2019-06-27T18:59:29.000Z</time>
      </trkpt>
      <trkpt lat="43.95194" lon="1.81444">
        <ele>959</ele>
        <time>2019-06-27T18:59:30.000Z</time>
      </trkpt>
      <trkpt lat="43.95191" lon="1.81447">
        <ele>958.79998779297</ele>
        <time>2019-06-27T18:59:31.000Z</time>
      </trkpt>
      <trkpt lat="43.95187" lon="1.8145">
        <ele>959</ele>
        <time>2019-06-27T18:59:32.000Z</time>
      </trkpt>
      <trkpt lat="43.95184" lon="1.81454">
        <ele>959.20001220703</ele>
        <time>2019-06-27T18:59:33.000Z</time>
      </trkpt>
      <trkpt lat="43.95181" lon="1.81457">
        <ele>959.20001220703</ele>
        <time>2019-06-27T18:59:34.000Z</time>
      </trkpt>
      <trkpt lat="43.95177" lon="1.8146">
        <ele>959.20001220703</ele>
        <time>2019-06-27T18:59:35.000Z</time>
      </trkpt>
      <trkpt lat="43.95174" lon="1.81463">
        <ele>958.79998779297</ele>
        <time>2019-06-27T18:59:36.000Z</time>
      </trkpt>
      <trkpt lat="43.95171" lon="1.81468">
        <ele>958.59997558594</ele>
        <time>2019-06-27T18:59:37.000Z</time>
      </trkpt>
      <trkpt lat="43.95168" lon="1.81472">
        <ele>958.59997558594</ele>
        <time>2019-06-27T18:59:38.000Z</time>
      </trkpt>
      <trkpt lat="43.95165" lon="1.81477">
        <ele>958.59997558594</ele>
        <time>2019-06-27T18:59:39.000Z</time>
      </trkpt>
      <trkpt lat="43.95162" lon="1.81482">
        <ele>958.59997558594</ele>
        <time>2019-06-27T18:59:40.000Z</time>
      </trkpt>
      <trkpt lat="43.95158" lon="1.81486">
        <ele>958.40002441406</ele>
        <time>2019-06-27T18:59:41.000Z</time>
      </trkpt>
      <trkpt lat="43.95154" lon="1.8149">
        <ele>958</ele>
        <time>2019-06-27T18:59:42.000Z</time>
      </trkpt>
      <trkpt lat="43.9515" lon="1.81494">
        <ele>958</ele>
        <time>2019-06-27T18:59:43.000Z</time>
      </trkpt>
      <trkpt lat="43.95147" lon="1.81497">
        <ele>958</ele>
        <time>2019-06-27T18:59:44.000Z</time>
      </trkpt>
      <trkpt lat="43.95145" lon="1.81501">
        <ele>958</ele>
        <time>2019-06-27T18:59:45.000Z</time>
      </trkpt>
      <trkpt lat="43.95142" lon="1.81505">
        <ele>958</ele>
        <time>2019-06-27T18:59:46.000Z</time>
      </trkpt>
      <trkpt lat="43.9514" lon="1.81509">
        <ele>958</ele>
        <time>2019-06-27T18:59:47.000Z</time>
      </trkpt>
      <trkpt lat="43.95138" lon="1.81512">
        <ele>958.20001220703</ele>
        <time>2019-06-27T18:59:48.000Z</time>
      </trkpt>
      <trkpt lat="43.95136" lon="1.81515">
        <ele>958.20001220703</ele>
        <time>2019-06-27T18:59:49.000Z</time>
      </trkpt>
      <trkpt lat="43.95133" lon="1.81518">
        <ele>958.20001220703</ele>
        <time>2019-06-27T18:59:50.000Z</time>
      </trkpt>
      <trkpt lat="43.95131" lon="1.81523">
        <ele>957.79998779297</ele>
        <time>2019-06-27T18:59:51.000Z</time>
      </trkpt>
      <trkpt lat="43.95128" lon="1.81528">
        <ele>957.79998779297</ele>
        <time>2019-06-27T18:59:52.000Z</time>
      </trkpt>
      <trkpt lat="43.95124" lon="1.81533">
        <ele>958</ele>
        <time>2019-06-27T18:59:53.000Z</time>
      </trkpt>
      <trkpt lat="43.95121" lon="1.81538">
        <ele>958.20001220703</ele>
        <time>2019-06-27T18:59:54.000Z</time>
      </trkpt>
      <trkpt lat="43.95118" lon="1.81543">
        <ele>958.20001220703</ele>
        <time>2019-06-27T18:59:55.000Z</time>
      </trkpt>
      <trkpt lat="43.95114" lon="1.81549">
        <ele>958.40002441406</ele>
        <time>2019-06-27T18:59:56.000Z</time>
      </trkpt>
      <trkpt lat="43.95111" lon="1.81554">
        <ele>958.40002441406</ele>
        <time>2019-06-27T18:59:57.000Z</time>
      </trkpt>
      <trkpt lat="43.95109" lon="1.81559">
        <ele>958.59997558594</ele>
        <time>2019-06-27T18:59:58.000Z</time>
      </trkpt>
      <trkpt lat="43.95106" lon="1.81565">
        <ele>958.40002441406</ele>
        <time>2019-06-27T18:59:59.000Z</time>
      </trkpt>
      <trkpt lat="43.95104" lon="1.8157">
        <ele>958.59997558594</ele>
        <time>2019-06-27T19:00:00.000Z</time>
      </trkpt>
      <trkpt lat="43.95101" lon="1.81575">
        <ele>958.59997558594</ele>
        <time>2019-06-27T19:00:01.000Z</time>
      </trkpt>
      <trkpt lat="43.95099" lon="1.8158">
        <ele>958.79998779297</ele>
        <time>2019-06-27T19:00:02.000Z</time>
      </trkpt>
      <trkpt lat="43.95097" lon="1.81585">
        <ele>958.59997558594</ele>
        <time>2019-06-27T19:00:03.000Z</time>
      </trkpt>
      <trkpt lat="43.95095" lon="1.81589">
        <ele>958.59997558594</ele>
        <time>2019-06-27T19:00:04.000Z</time>
      </trkpt>
      <trkpt lat="43.95093" lon="1.81594">
        <ele>958.79998779297</ele>
        <time>2019-06-27T19:00:05.000Z</time>
      </trkpt>
      <trkpt lat="43.9509" lon="1.816">
        <ele>958.79998779297</ele>
        <time>2019-06-27T19:00:06.000Z</time>
      </trkpt>
      <trkpt lat="43.95088" lon="1.81605">
        <ele>958.79998779297</ele>
        <time>2019-06-27T19:00:07.000Z</time>
      </trkpt>
      <trkpt lat="43.95086" lon="1.81609">
        <ele>958.40002441406</ele>
        <time>2019-06-27T19:00:08.000Z</time>
      </trkpt>
      <trkpt lat="43.95084" lon="1.81614">
        <ele>958.40002441406</ele>
        <time>2019-06-27T19:00:09.000Z</time>
      </trkpt>
      <trkpt lat="43.95082" lon="1.81618">
        <ele>958.79998779297</ele>
        <time>2019-06-27T19:00:10.000Z</time>
      </trkpt>
      <trkpt lat="43.95081" lon="1.81622">
        <ele>958.79998779297</ele>
        <time>2019-06-27T19:00:11.000Z</time>
      </trkpt>
      <trkpt lat="43.95079" lon="1.81626">
        <ele>959</ele>
        <time>2019-06-27T19:00:12.000Z</time>
      </trkpt>
      <trkpt lat="43.95077" lon="1.8163">
        <ele>959</ele>
        <time>2019-06-27T19:00:13.000Z</time>
      </trkpt>
      <trkpt lat="43.95075" lon="1.81634">
        <ele>959</ele>
        <time>2019-06-27T19:00:14.000Z</time>
      </trkpt>
      <trkpt lat="43.95073" lon="1.81639">
        <ele>959</ele>
        <time>2019-06-27T19:00:15.000Z</time>
      </trkpt>
      <trkpt lat="43.95071" lon="1.81644">
        <ele>959</ele>
        <time>2019-06-27T19:00:16.000Z</time>
      </trkpt>
      <trkpt lat="43.95069" lon="1.81649">
        <ele>959.20001220703</ele>
        <time>2019-06-27T19:00:17.000Z</time>
      </trkpt>
      <trkpt lat="43.95067" lon="1.81654">
        <ele>959.40002441406</ele>
        <time>2019-06-27T19:00:18.000Z</time>
      </trkpt>
      <trkpt lat="43.95064" lon="1.81659">
        <ele>959.40002441406</ele>
        <time>2019-06-27T19:00:19.000Z</time>
      </trkpt>
      <trkpt lat="43.95062" lon="1.81663">
        <ele>959.20001220703</ele>
        <time>2019-06-27T19:00:20.000Z</time>
      </trkpt>
      <trkpt lat="43.9506" lon="1.81667">
        <ele>959.20001220703</ele>
        <time>2019-06-27T19:00:21.000Z</time>
      </trkpt>
      <trkpt lat="43.95058" lon="1.81671">
        <ele>959.40002441406</ele>
        <time>2019-06-27T19:00:22.000Z</time>
      </trkpt>
      <trkpt lat="43.95056" lon="1.81675">
        <ele>959.40002441406</ele>
        <time>2019-06-27T19:00:23.000Z</time>
      </trkpt>
      <trkpt lat="43.95054" lon="1.81679">
        <ele>959.20001220703</ele>
        <time>2019-06-27T19:00:24.000Z</time>
      </trkpt>
      <trkpt lat="43.95052" lon="1.81684">
        <ele>959.40002441406</ele>
        <time>2019-06-27T19:00:25.000Z</time>
      </trkpt>
      <trkpt lat="43.9505" lon="1.81688">
        <ele>959.59997558594</ele>
        <time>2019-06-27T19:00:26.000Z</time>
      </trkpt>
      <trkpt lat="43.95048" lon="1.81693">
        <ele>959.59997558594</ele>
        <time>2019-06-27T19:00:27.000Z</time>
      </trkpt>
      <trkpt lat="43.95046" lon="1.81697">
        <ele>959.59997558594</ele>
        <time>2019-06-27T19:00:28.000Z</time>
      </trkpt>
      <trkpt lat="43.95045" lon="1.81702">
        <ele>959.40002441406</ele>
        <time>2019-06-27T19:00:29.000Z</time>
      </trkpt>
      <trkpt lat="43.95043" lon="1.81707">
        <ele>959.59997558594</ele>
        <time>2019-06-27T19:00:30.000Z</time>
      </trkpt>
      <trkpt lat="43.9504" lon="1.81712">
        <ele>959.59997558594</ele>
        <time>2019-06-27T19:00:31.000Z</time>
      </trkpt>
      <trkpt lat="43.95038" lon="1.81717">
        <ele>959.79998779297</ele>
        <time>2019-06-27T19:00:32.000Z</time>
      </trkpt>
      <trkpt lat="43.95036" lon="1.81722">
        <ele>959.79998779297</ele>
        <time>2019-06-27T19:00:33.000Z</time>
      </trkpt>
      <trkpt lat="43.95034" lon="1.81727">
        <ele>959.79998779297</ele>
        <time>2019-06-27T19:00:34.000Z</time>
      </trkpt>
      <trkpt lat="43.95032" lon="1.81732">
        <ele>959.79998779297</ele>
        <time>2019-06-27T19:00:35.000Z</time>
      </trkpt>
      <trkpt lat="43.9503" lon="1.81737">
        <ele>959.79998779297</ele>
        <time>2019-06-27T19:00:36.000Z</time>
      </trkpt>
      <trkpt lat="43.95028" lon="1.81743">
        <ele>960</ele>
        <time>2019-06-27T19:00:37.000Z</time>
      </trkpt>
      <trkpt lat="43.95026" lon="1.81748">
        <ele>960</ele>
        <time>2019-06-27T19:00:38.000Z</time>
      </trkpt>
      <trkpt lat="43.95024" lon="1.81753">
        <ele>960</ele>
        <time>2019-06-27T19:00:39.000Z</time>
      </trkpt>
      <trkpt lat="43.95022" lon="1.81758">
        <ele>960.20001220703</ele>
        <time>2019-06-27T19:00:40.000Z</time>
      </trkpt>
      <trkpt lat="43.95019" lon="1.81763">
        <ele>960.20001220703</ele>
        <time>2019-06-27T19:00:41.000Z</time>
      </trkpt>
      <trkpt lat="43.95017" lon="1.81768">
        <ele>960.20001220703</ele>
        <time>2019-06-27T19:00:42.000Z</time>
      </trkpt>
      <trkpt lat="43.95014" lon="1.81772">
        <ele>960.40002441406</ele>
        <time>2019-06-27T19:00:43.000Z</time>
      </trkpt>
      <trkpt lat="43.9501" lon="1.81776">
        <ele>960.20001220703</ele>
        <time>2019-06-27T19:00:44.000Z</time>
      </trkpt>
      <trkpt lat="43.95007" lon="1.8178">
        <ele>960.20001220703</ele>
        <time>2019-06-27T19:00:45.000Z</time>
      </trkpt>
      <trkpt lat="43.95004" lon="1.81783">
        <ele>960.20001220703</ele>
        <time>2019-06-27T19:00:46.000Z</time>
      </trkpt>
      <trkpt lat="43.95" lon="1.81787">
        <ele>960.40002441406</ele>
        <time>2019-06-27T19:00:47.000Z</time>
      </trkpt>
      <trkpt lat="43.94998" lon="1.81791">
        <ele>960.59997558594</ele>
        <time>2019-06-27T19:00:48.000Z</time>
      </trkpt>
      <trkpt lat="43.94995" lon="1.81796">
        <ele>960.79998779297</ele>
        <time>2019-06-27T19:00:49.000Z</time>
      </trkpt>
      <trkpt lat="43.94992" lon="1.818">
        <ele>960.79998779297</ele>
        <time>2019-06-27T19:00:50.000Z</time>
      </trkpt>
      <trkpt lat="43.94989" lon="1.81804">
        <ele>961</ele>
        <time>2019-06-27T19:00:51.000Z</time>
      </trkpt>
      <trkpt lat="43.94986" lon="1.81809">
        <ele>961</ele>
        <time>2019-06-27T19:00:52.000Z</time>
      </trkpt>
      <trkpt lat="43.94982" lon="1.81814">
        <ele>961</ele>
        <time>2019-06-27T19:00:53.000Z</time>
      </trkpt>
      <trkpt lat="43.94979" lon="1.81819">
        <ele>961</ele>
        <time>2019-06-27T19:00:54.000Z</time>
      </trkpt>
      <trkpt lat="43.94975" lon="1.81825">
        <ele>961</ele>
        <time>2019-06-27T19:00:55.000Z</time>
      </trkpt>
      <trkpt lat="43.94971" lon="1.81832">
        <ele>961.20001220703</ele>
        <time>2019-06-27T19:00:56.000Z</time>
      </trkpt>
      <trkpt lat="43.94967" lon="1.81838">
        <ele>961.20001220703</ele>
        <time>2019-06-27T19:00:57.000Z</time>
      </trkpt>
      <trkpt lat="43.94963" lon="1.81844">
        <ele>961.20001220703</ele>
        <time>2019-06-27T19:00:58.000Z</time>
      </trkpt>
      <trkpt lat="43.94959" lon="1.81851">
        <ele>961.40002441406</ele>
        <time>2019-06-27T19:00:59.000Z</time>
      </trkpt>
      <trkpt lat="43.94955" lon="1.81857">
        <ele>961.59997558594</ele>
        <time>2019-06-27T19:01:00.000Z</time>
      </trkpt>
      <trkpt lat="43.94951" lon="1.81864">
        <ele>961.59997558594</ele>
        <time>2019-06-27T19:01:01.000Z</time>
      </trkpt>
      <trkpt lat="43.94947" lon="1.81871">
        <ele>961.59997558594</ele>
        <time>2019-06-27T19:01:02.000Z</time>
      </trkpt>
      <trkpt lat="43.94943" lon="1.81878">
        <ele>961.59997558594</ele>
        <time>2019-06-27T19:01:03.000Z</time>
      </trkpt>
      <trkpt lat="43.94938" lon="1.81885">
        <ele>961.40002441406</ele>
        <time>2019-06-27T19:01:04.000Z</time>
      </trkpt>
      <trkpt lat="43.94934" lon="1.81893">
        <ele>961.20001220703</ele>
        <time>2019-06-27T19:01:05.000Z</time>
      </trkpt>
      <trkpt lat="43.9493" lon="1.81901">
        <ele>960.79998779297</ele>
        <time>2019-06-27T19:01:06.000Z</time>
      </trkpt>
      <trkpt lat="43.94926" lon="1.81909">
        <ele>960.79998779297</ele>
        <time>2019-06-27T19:01:07.000Z</time>
      </trkpt>
      <trkpt lat="43.94921" lon="1.81917">
        <ele>960.59997558594</ele>
        <time>2019-06-27T19:01:08.000Z</time>
      </trkpt>
      <trkpt lat="43.94917" lon="1.81926">
        <ele>960.59997558594</ele>
        <time>2019-06-27T19:01:09.000Z</time>
      </trkpt>
      <trkpt lat="43.94912" lon="1.81935">
        <ele>960.40002441406</ele>
        <time>2019-06-27T19:01:10.000Z</time>
      </trkpt>
      <trkpt lat="43.94908" lon="1.81944">
        <ele>960.40002441406</ele>
        <time>2019-06-27T19:01:11.000Z</time>
      </trkpt>
      <trkpt lat="43.94903" lon="1.81953">
        <ele>960.40002441406</ele>
        <time>2019-06-27T19:01:12.000Z</time>
      </trkpt>
      <trkpt lat="43.94898" lon="1.81962">
        <ele>960.40002441406</ele>
        <time>2019-06-27T19:01:13.000Z</time>
      </trkpt>
      <trkpt lat="43.94894" lon="1.81971">
        <ele>960.40002441406</ele>
        <time>2019-06-27T19:01:14.000Z</time>
      </trkpt>
      <trkpt lat="43.94889" lon="1.81979">
        <ele>960.20001220703</ele>
        <time>2019-06-27T19:01:15.000Z</time>
      </trkpt>
      <trkpt lat="43.94884" lon="1.81988">
        <ele>960</ele>
        <time>2019-06-27T19:01:16.000Z</time>
      </trkpt>
      <trkpt lat="43.9488" lon="1.81996">
        <ele>960</ele>
        <time>2019-06-27T19:01:17.000Z</time>
      </trkpt>
      <trkpt lat="43.94875" lon="1.82004">
        <ele>960.20001220703</ele>
        <time>2019-06-27T19:01:18.000Z</time>
      </trkpt>
      <trkpt lat="43.94871" lon="1.82012">
        <ele>960.20001220703</ele>
        <time>2019-06-27T19:01:19.000Z</time>
      </trkpt>
      <trkpt lat="43.94867" lon="1.8202">
        <ele>960.20001220703</ele>
        <time>2019-06-27T19:01:20.000Z</time>
      </trkpt>
      <trkpt lat="43.94862" lon="1.82028">
        <ele>960.20001220703</ele>
        <time>2019-06-27T19:01:21.000Z</time>
      </trkpt>
      <trkpt lat="43.94858" lon="1.82035">
        <ele>960.20001220703</ele>
        <time>2019-06-27T19:01:22.000Z</time>
      </trkpt>
      <trkpt lat="43.94855" lon="1.82042">
        <ele>960</ele>
        <time>2019-06-27T19:01:23.000Z</time>
      </trkpt>
      <trkpt lat="43.94851" lon="1.82048">
        <ele>960.20001220703</ele>
        <time>2019-06-27T19:01:24.000Z</time>
      </trkpt>
      <trkpt lat="43.94847" lon="1.82055">
        <ele>960.20001220703</ele>
        <time>2019-06-27T19:01:25.000Z</time>
      </trkpt>
      <trkpt lat="43.94843" lon="1.82061">
        <ele>960.40002441406</ele>
        <time>2019-06-27T19:01:26.000Z</time>
      </trkpt>
      <trkpt lat="43.94839" lon="1.82067">
        <ele>960</ele>
        <time>2019-06-27T19:01:27.000Z</time>
      </trkpt>
      <trkpt lat="43.94836" lon="1.82073">
        <ele>960</ele>
        <time>2019-06-27T19:01:28.000Z</time>
      </trkpt>
      <trkpt lat="43.94835" lon="1.82079">
        <ele>960</ele>
        <time>2019-06-27T19:01:29.000Z</time>
      </trkpt>
      <trkpt lat="43.94836" lon="1.82084">
        <ele>959.59997558594</ele>
        <time>2019-06-27T19:01:30.000Z</time>
      </trkpt>
      <trkpt lat="43.9484" lon="1.82088">
        <ele>959.40002441406</ele>
        <time>2019-06-27T19:01:31.000Z</time>
      </trkpt>
      <trkpt lat="43.94845" lon="1.82092">
        <ele>959</ele>
        <time>2019-06-27T19:01:32.000Z</time>
      </trkpt>
      <trkpt lat="43.9485" lon="1.82095">
        <ele>958.79998779297</ele>
        <time>2019-06-27T19:01:33.000Z</time>
      </trkpt>
      <trkpt lat="43.94855" lon="1.82099">
        <ele>958.40002441406</ele>
        <time>2019-06-27T19:01:34.000Z</time>
      </trkpt>
      <trkpt lat="43.9486" lon="1.82103">
        <ele>958.20001220703</ele>
        <time>2019-06-27T19:01:35.000Z</time>
      </trkpt>
      <trkpt lat="43.94866" lon="1.82108">
        <ele>958</ele>
        <time>2019-06-27T19:01:36.000Z</time>
      </trkpt>
      <trkpt lat="43.94873" lon="1.82113">
        <ele>957.79998779297</ele>
        <time>2019-06-27T19:01:37.000Z</time>
      </trkpt>
      <trkpt lat="43.94879" lon="1.82118">
        <ele>957.40002441406</ele>
        <time>2019-06-27T19:01:38.000Z</time>
      </trkpt>
      <trkpt lat="43.94886" lon="1.82123">
        <ele>956.79998779297</ele>
        <time>2019-06-27T19:01:39.000Z</time>
      </trkpt>
      <trkpt lat="43.94893" lon="1.82128">
        <ele>956.40002441406</ele>
        <time>2019-06-27T19:01:40.000Z</time>
      </trkpt>
      <trkpt lat="43.94901" lon="1.82133">
        <ele>956</ele>
        <time>2019-06-27T19:01:41.000Z</time>
      </trkpt>
      <trkpt lat="43.94909" lon="1.82139">
        <ele>955.59997558594</ele>
        <time>2019-06-27T19:01:42.000Z</time>
      </trkpt>
      <trkpt lat="43.94916" lon="1.82145">
        <ele>955.20001220703</ele>
        <time>2019-06-27T19:01:43.000Z</time>
      </trkpt>
      <trkpt lat="43.94923" lon="1.82151">
        <ele>955</ele>
        <time>2019-06-27T19:01:44.000Z</time>
      </trkpt>
      <trkpt lat="43.9493" lon="1.82157">
        <ele>954.79998779297</ele>
        <time>2019-06-27T19:01:45.000Z</time>
      </trkpt>
      <trkpt lat="43.94936" lon="1.82164">
        <ele>955</ele>
        <time>2019-06-27T19:01:46.000Z</time>
      </trkpt>
      <trkpt lat="43.94941" lon="1.8217">
        <ele>955.20001220703</ele>
        <time>2019-06-27T19:01:47.000Z</time>
      </trkpt>
      <trkpt lat="43.94947" lon="1.82175">
        <ele>955.59997558594</ele>
        <time>2019-06-27T19:01:48.000Z</time>
      </trkpt>
      <trkpt lat="43.94952" lon="1.82181">
        <ele>955.59997558594</ele>
        <time>2019-06-27T19:01:49.000Z</time>
      </trkpt>
      <trkpt lat="43.94957" lon="1.82185">
        <ele>956</ele>
        <time>2019-06-27T19:01:50.000Z</time>
      </trkpt>
      <trkpt lat="43.94963" lon="1.8219">
        <ele>956.59997558594</ele>
        <time>2019-06-27T19:01:51.000Z</time>
      </trkpt>
      <trkpt lat="43.94968" lon="1.82194">
        <ele>956.79998779297</ele>
        <time>2019-06-27T19:01:52.000Z</time>
      </trkpt>
      <trkpt lat="43.94974" lon="1.82198">
        <ele>957.20001220703</ele>
        <time>2019-06-27T19:01:53.000Z</time>
      </trkpt>
      <trkpt lat="43.9498" lon="1.82202">
        <ele>957.20001220703</ele>
        <time>2019-06-27T19:01:54.000Z</time>
      </trkpt>
      <trkpt lat="43.94985" lon="1.82205">
        <ele>957.40002441406</ele>
        <time>2019-06-27T19:01:55.000Z</time>
      </trkpt>
      <trkpt lat="43.94991" lon="1.82208">
        <ele>957.40002441406</ele>
        <time>2019-06-27T19:01:56.000Z</time>
      </trkpt>
      <trkpt lat="43.94997" lon="1.8221">
        <ele>957.59997558594</ele>
        <time>2019-06-27T19:01:57.000Z</time>
      </trkpt>
      <trkpt lat="43.95003" lon="1.82213">
        <ele>957.40002441406</ele>
        <time>2019-06-27T19:01:58.000Z</time>
      </trkpt>
      <trkpt lat="43.95009" lon="1.82214">
        <ele>957.40002441406</ele>
        <time>2019-06-27T19:01:59.000Z</time>
      </trkpt>
      <trkpt lat="43.95016" lon="1.82214">
        <ele>957.20001220703</ele>
        <time>2019-06-27T19:02:00.000Z</time>
      </trkpt>
      <trkpt lat="43.95022" lon="1.82214">
        <ele>957.20001220703</ele>
        <time>2019-06-27T19:02:01.000Z</time>
      </trkpt>
      <trkpt lat="43.9503" lon="1.82213">
        <ele>957</ele>
        <time>2019-06-27T19:02:02.000Z</time>
      </trkpt>
      <trkpt lat="43.95037" lon="1.82213">
        <ele>956.79998779297</ele>
        <time>2019-06-27T19:02:03.000Z</time>
      </trkpt>
      <trkpt lat="43.95044" lon="1.82213">
        <ele>956.59997558594</ele>
        <time>2019-06-27T19:02:04.000Z</time>
      </trkpt>
      <trkpt lat="43.9505" lon="1.82214">
        <ele>956.40002441406</ele>
        <time>2019-06-27T19:02:05.000Z</time>
      </trkpt>
      <trkpt lat="43.95057" lon="1.82216">
        <ele>956.20001220703</ele>
        <time>2019-06-27T19:02:06.000Z</time>
      </trkpt>
      <trkpt lat="43.95063" lon="1.82219">
        <ele>956</ele>
        <time>2019-06-27T19:02:07.000Z</time>
      </trkpt>
      <trkpt lat="43.95068" lon="1.82222">
        <ele>956</ele>
        <time>2019-06-27T19:02:08.000Z</time>
      </trkpt>
      <trkpt lat="43.95073" lon="1.82226">
        <ele>955.79998779297</ele>
        <time>2019-06-27T19:02:09.000Z</time>
      </trkpt>
      <trkpt lat="43.95077" lon="1.82231">
        <ele>955.79998779297</ele>
        <time>2019-06-27T19:02:10.000Z</time>
      </trkpt>
      <trkpt lat="43.95079" lon="1.82238">
        <ele>955.79998779297</ele>
        <time>2019-06-27T19:02:11.000Z</time>
      </trkpt>
      <trkpt lat="43.95081" lon="1.82246">
        <ele>955.59997558594</ele>
        <time>2019-06-27T19:02:12.000Z</time>
      </trkpt>
      <trkpt lat="43.95084" lon="1.82253">
        <ele>955.59997558594</ele>
        <time>2019-06-27T19:02:13.000Z</time>
      </trkpt>
      <trkpt lat="43.95087" lon="1.8226">
        <ele>955.59997558594</ele>
        <time>2019-06-27T19:02:14.000Z</time>
      </trkpt>
      <trkpt lat="43.9509" lon="1.82266">
        <ele>955.79998779297</ele>
        <time>2019-06-27T19:02:15.000Z</time>
      </trkpt>
      <trkpt lat="43.95093" lon="1.82272">
        <ele>955.59997558594</ele>
        <time>2019-06-27T19:02:16.000Z</time>
      </trkpt>
      <trkpt lat="43.95097" lon="1.82278">
        <ele>955.59997558594</ele>
        <time>2019-06-27T19:02:17.000Z</time>
      </trkpt>
      <trkpt lat="43.951" lon="1.82283">
        <ele>955.59997558594</ele>
        <time>2019-06-27T19:02:18.000Z</time>
      </trkpt>
      <trkpt lat="43.95104" lon="1.82288">
        <ele>955.79998779297</ele>
        <time>2019-06-27T19:02:19.000Z</time>
      </trkpt>
      <trkpt lat="43.95109" lon="1.82293">
        <ele>955.79998779297</ele>
        <time>2019-06-27T19:02:20.000Z</time>
      </trkpt>
      <trkpt lat="43.95112" lon="1.82299">
        <ele>955.79998779297</ele>
        <time>2019-06-27T19:02:21.000Z</time>
      </trkpt>
      <trkpt lat="43.95116" lon="1.82304">
        <ele>955.40002441406</ele>
        <time>2019-06-27T19:02:22.000Z</time>
      </trkpt>
      <trkpt lat="43.9512" lon="1.8231">
        <ele>955</ele>
        <time>2019-06-27T19:02:23.000Z</time>
      </trkpt>
      <trkpt lat="43.95125" lon="1.82317">
        <ele>954.59997558594</ele>
        <time>2019-06-27T19:02:24.000Z</time>
      </trkpt>
      <trkpt lat="43.9513" lon="1.82323">
        <ele>954.59997558594</ele>
        <time>2019-06-27T19:02:25.000Z</time>
      </trkpt>
      <trkpt lat="43.95137" lon="1.82328">
        <ele>954.40002441406</ele>
        <time>2019-06-27T19:02:26.000Z</time>
      </trkpt>
      <trkpt lat="43.95145" lon="1.82332">
        <ele>954</ele>
        <time>2019-06-27T19:02:27.000Z</time>
      </trkpt>
      <trkpt lat="43.95153" lon="1.82335">
        <ele>953.20001220703</ele>
        <time>2019-06-27T19:02:28.000Z</time>
      </trkpt>
      <trkpt lat="43.9516" lon="1.82339">
        <ele>952</ele>
        <time>2019-06-27T19:02:29.000Z</time>
      </trkpt>
      <trkpt lat="43.95166" lon="1.82346">
        <ele>951.20001220703</ele>
        <time>2019-06-27T19:02:30.000Z</time>
      </trkpt>
      <trkpt lat="43.95169" lon="1.82356">
        <ele>951</ele>
        <time>2019-06-27T19:02:31.000Z</time>
      </trkpt>
      <trkpt lat="43.95173" lon="1.82366">
        <ele>951</ele>
        <time>2019-06-27T19:02:33.000Z</time>
      </trkpt>
      <trkpt lat="43.95177" lon="1.82376">
        <ele>950.59997558594</ele>
        <time>2019-06-27T19:02:34.000Z</time>
      </trkpt>
      <trkpt lat="43.95181" lon="1.82386">
        <ele>949.79998779297</ele>
        <time>2019-06-27T19:02:35.000Z</time>
      </trkpt>
      <trkpt lat="43.95186" lon="1.82394">
        <ele>949</ele>
        <time>2019-06-27T19:02:36.000Z</time>
      </trkpt>
      <trkpt lat="43.9519" lon="1.82402">
        <ele>948.79998779297</ele>
        <time>2019-06-27T19:02:37.000Z</time>
      </trkpt>
      <trkpt lat="43.95194" lon="1.82409">
        <ele>948.79998779297</ele>
        <time>2019-06-27T19:02:38.000Z</time>
      </trkpt>
      <trkpt lat="43.95197" lon="1.82415">
        <ele>949.20001220703</ele>
        <time>2019-06-27T19:02:39.000Z</time>
      </trkpt>
      <trkpt lat="43.95198" lon="1.8242">
        <ele>949.59997558594</ele>
        <time>2019-06-27T19:02:40.000Z</time>
      </trkpt>
      <trkpt lat="43.95197" lon="1.82425">
        <ele>949.40002441406</ele>
        <time>2019-06-27T19:02:41.000Z</time>
      </trkpt>
      <trkpt lat="43.95194" lon="1.8243">
        <ele>949.20001220703</ele>
        <time>2019-06-27T19:02:42.000Z</time>
      </trkpt>
      <trkpt lat="43.95191" lon="1.82435">
        <ele>949.20001220703</ele>
        <time>2019-06-27T19:02:43.000Z</time>
      </trkpt>
      <trkpt lat="43.95187" lon="1.82439">
        <ele>949.20001220703</ele>
        <time>2019-06-27T19:02:44.000Z</time>
      </trkpt>
      <trkpt lat="43.95183" lon="1.82443">
        <ele>949.40002441406</ele>
        <time>2019-06-27T19:02:45.000Z</time>
      </trkpt>
      <trkpt lat="43.95179" lon="1.82446">
        <ele>949.59997558594</ele>
        <time>2019-06-27T19:02:46.000Z</time>
      </trkpt>
      <trkpt lat="43.95176" lon="1.8245">
        <ele>949.79998779297</ele>
        <time>2019-06-27T19:02:47.000Z</time>
      </trkpt>
      <trkpt lat="43.95173" lon="1.82456">
        <ele>950.20001220703</ele>
        <time>2019-06-27T19:02:48.000Z</time>
      </trkpt>
      <trkpt lat="43.9517" lon="1.82461">
        <ele>950.59997558594</ele>
        <time>2019-06-27T19:02:49.000Z</time>
      </trkpt>
      <trkpt lat="43.95167" lon="1.82466">
        <ele>951</ele>
        <time>2019-06-27T19:02:50.000Z</time>
      </trkpt>
      <trkpt lat="43.95165" lon="1.82472">
        <ele>951.59997558594</ele>
        <time>2019-06-27T19:02:51.000Z</time>
      </trkpt>
      <trkpt lat="43.95163" lon="1.82477">
        <ele>952</ele>
        <time>2019-06-27T19:02:52.000Z</time>
      </trkpt>
      <trkpt lat="43.95162" lon="1.82483">
        <ele>952.20001220703</ele>
        <time>2019-06-27T19:02:53.000Z</time>
      </trkpt>
      <trkpt lat="43.95161" lon="1.82489">
        <ele>952.40002441406</ele>
        <time>2019-06-27T19:02:54.000Z</time>
      </trkpt>
      <trkpt lat="43.95161" lon="1.82495">
        <ele>952.79998779297</ele>
        <time>2019-06-27T19:02:55.000Z</time>
      </trkpt>
      <trkpt lat="43.9516" lon="1.82501">
        <ele>953</ele>
        <time>2019-06-27T19:02:56.000Z</time>
      </trkpt>
      <trkpt lat="43.95159" lon="1.82508">
        <ele>953.20001220703</ele>
        <time>2019-06-27T19:02:57.000Z</time>
      </trkpt>
      <trkpt lat="43.95157" lon="1.82514">
        <ele>953.40002441406</ele>
        <time>2019-06-27T19:02:58.000Z</time>
      </trkpt>
      <trkpt lat="43.95155" lon="1.82519">
        <ele>953.79998779297</ele>
        <time>2019-06-27T19:02:59.000Z</time>
      </trkpt>
      <trkpt lat="43.95153" lon="1.82524">
        <ele>954</ele>
        <time>2019-06-27T19:03:00.000Z</time>
      </trkpt>
      <trkpt lat="43.95151" lon="1.82528">
        <ele>954.40002441406</ele>
        <time>2019-06-27T19:03:01.000Z</time>
      </trkpt>
      <trkpt lat="43.95148" lon="1.82532">
        <ele>954.40002441406</ele>
        <time>2019-06-27T19:03:02.000Z</time>
      </trkpt>
      <trkpt lat="43.95145" lon="1.82535">
        <ele>954.79998779297</ele>
        <time>2019-06-27T19:03:03.000Z</time>
      </trkpt>
      <trkpt lat="43.95142" lon="1.82538">
        <ele>955</ele>
        <time>2019-06-27T19:03:04.000Z</time>
      </trkpt>
      <trkpt lat="43.95139" lon="1.82541">
        <ele>955.20001220703</ele>
        <time>2019-06-27T19:03:05.000Z</time>
      </trkpt>
      <trkpt lat="43.95136" lon="1.82545">
        <ele>955.40002441406</ele>
        <time>2019-06-27T19:03:06.000Z</time>
      </trkpt>
      <trkpt lat="43.95133" lon="1.82547">
        <ele>955.59997558594</ele>
        <time>2019-06-27T19:03:07.000Z</time>
      </trkpt>
      <trkpt lat="43.9513" lon="1.82551">
        <ele>955.79998779297</ele>
        <time>2019-06-27T19:03:08.000Z</time>
      </trkpt>
      <trkpt lat="43.95128" lon="1.82556">
        <ele>955.79998779297</ele>
        <time>2019-06-27T19:03:09.000Z</time>
      </trkpt>
      <trkpt lat="43.95127" lon="1.8256">
        <ele>955.79998779297</ele>
        <time>2019-06-27T19:03:10.000Z</time>
      </trkpt>
      <trkpt lat="43.95127" lon="1.82565">
        <ele>956.20001220703</ele>
        <time>2019-06-27T19:03:11.000Z</time>
      </trkpt>
      <trkpt lat="43.95128" lon="1.82569">
        <ele>956.20001220703</ele>
        <time>2019-06-27T19:03:12.000Z</time>
      </trkpt>
      <trkpt lat="43.95129" lon="1.82572">
        <ele>956.79998779297</ele>
        <time>2019-06-27T19:03:13.000Z</time>
      </trkpt>
      <trkpt lat="43.9513" lon="1.82576">
        <ele>957</ele>
        <time>2019-06-27T19:03:14.000Z</time>
      </trkpt>
      <trkpt lat="43.9513" lon="1.8258">
        <ele>957.40002441406</ele>
        <time>2019-06-27T19:03:15.000Z</time>
      </trkpt>
      <trkpt lat="43.95131" lon="1.82584">
        <ele>957.59997558594</ele>
        <time>2019-06-27T19:03:16.000Z</time>
      </trkpt>
      <trkpt lat="43.95132" lon="1.82588">
        <ele>957.79998779297</ele>
        <time>2019-06-27T19:03:17.000Z</time>
      </trkpt>
      <trkpt lat="43.95132" lon="1.82591">
        <ele>957.79998779297</ele>
        <time>2019-06-27T19:03:18.000Z</time>
      </trkpt>
      <trkpt lat="43.95133" lon="1.82596">
        <ele>958</ele>
        <time>2019-06-27T19:03:19.000Z</time>
      </trkpt>
      <trkpt lat="43.95134" lon="1.826">
        <ele>958</ele>
        <time>2019-06-27T19:03:20.000Z</time>
      </trkpt>
      <trkpt lat="43.95134" lon="1.82603">
        <ele>958.20001220703</ele>
        <time>2019-06-27T19:03:21.000Z</time>
      </trkpt>
      <trkpt lat="43.95134" lon="1.82607">
        <ele>958.20001220703</ele>
        <time>2019-06-27T19:03:22.000Z</time>
      </trkpt>
      <trkpt lat="43.95135" lon="1.82611">
        <ele>958.20001220703</ele>
        <time>2019-06-27T19:03:23.000Z</time>
      </trkpt>
      <trkpt lat="43.95135" lon="1.82615">
        <ele>958.20001220703</ele>
        <time>2019-06-27T19:03:24.000Z</time>
      </trkpt>
      <trkpt lat="43.95136" lon="1.82619">
        <ele>958.40002441406</ele>
        <time>2019-06-27T19:03:25.000Z</time>
      </trkpt>
      <trkpt lat="43.95136" lon="1.82622">
        <ele>958.40002441406</ele>
        <time>2019-06-27T19:03:26.000Z</time>
      </trkpt>
      <trkpt lat="43.95136" lon="1.82626">
        <ele>958.40002441406</ele>
        <time>2019-06-27T19:03:27.000Z</time>
      </trkpt>
      <trkpt lat="43.95136" lon="1.8263">
        <ele>958.79998779297</ele>
        <time>2019-06-27T19:03:28.000Z</time>
      </trkpt>
      <trkpt lat="43.95136" lon="1.82633">
        <ele>959</ele>
        <time>2019-06-27T19:03:29.000Z</time>
      </trkpt>
      <trkpt lat="43.95136" lon="1.82637">
        <ele>958.79998779297</ele>
        <time>2019-06-27T19:03:30.000Z</time>
      </trkpt>
      <trkpt lat="43.95137" lon="1.82641">
        <ele>959</ele>
        <time>2019-06-27T19:03:31.000Z</time>
      </trkpt>
      <trkpt lat="43.95137" lon="1.82645">
        <ele>959.20001220703</ele>
        <time>2019-06-27T19:03:32.000Z</time>
      </trkpt>
      <trkpt lat="43.95137" lon="1.82649">
        <ele>959.20001220703</ele>
        <time>2019-06-27T19:03:33.000Z</time>
      </trkpt>
      <trkpt lat="43.95137" lon="1.82653">
        <ele>959.40002441406</ele>
        <time>2019-06-27T19:03:34.000Z</time>
      </trkpt>
      <trkpt lat="43.95137" lon="1.82657">
        <ele>959.40002441406</ele>
        <time>2019-06-27T19:03:35.000Z</time>
      </trkpt>
      <trkpt lat="43.95137" lon="1.82661">
        <ele>959.40002441406</ele>
        <time>2019-06-27T19:03:36.000Z</time>
      </trkpt>
      <trkpt lat="43.95138" lon="1.82666">
        <ele>959.40002441406</ele>
        <time>2019-06-27T19:03:37.000Z</time>
      </trkpt>
      <trkpt lat="43.95138" lon="1.8267">
        <ele>959.59997558594</ele>
        <time>2019-06-27T19:03:38.000Z</time>
      </trkpt>
      <trkpt lat="43.95139" lon="1.82675">
        <ele>959.59997558594</ele>
        <time>2019-06-27T19:03:39.000Z</time>
      </trkpt>
      <trkpt lat="43.9514" lon="1.82679">
        <ele>959.79998779297</ele>
        <time>2019-06-27T19:03:40.000Z</time>
      </trkpt>
      <trkpt lat="43.95141" lon="1.82683">
        <ele>959.79998779297</ele>
        <time>2019-06-27T19:03:41.000Z</time>
      </trkpt>
      <trkpt lat="43.95141" lon="1.82688">
        <ele>959.79998779297</ele>
        <time>2019-06-27T19:03:42.000Z</time>
      </trkpt>
      <trkpt lat="43.95142" lon="1.82692">
        <ele>960</ele>
        <time>2019-06-27T19:03:43.000Z</time>
      </trkpt>
      <trkpt lat="43.95143" lon="1.82697">
        <ele>960</ele>
        <time>2019-06-27T19:03:44.000Z</time>
      </trkpt>
      <trkpt lat="43.95143" lon="1.82701">
        <ele>960.20001220703</ele>
        <time>2019-06-27T19:03:45.000Z</time>
      </trkpt>
      <trkpt lat="43.95143" lon="1.82705">
        <ele>960.20001220703</ele>
        <time>2019-06-27T19:03:46.000Z</time>
      </trkpt>
      <trkpt lat="43.95143" lon="1.82709">
        <ele>960.20001220703</ele>
        <time>2019-06-27T19:03:47.000Z</time>
      </trkpt>
      <trkpt lat="43.95144" lon="1.82714">
        <ele>960.40002441406</ele>
        <time>2019-06-27T19:03:48.000Z</time>
      </trkpt>
      <trkpt lat="43.95143" lon="1.82718">
        <ele>960.40002441406</ele>
        <time>2019-06-27T19:03:49.000Z</time>
      </trkpt>
      <trkpt lat="43.95143" lon="1.82722">
        <ele>960.59997558594</ele>
        <time>2019-06-27T19:03:50.000Z</time>
      </trkpt>
      <trkpt lat="43.95143" lon="1.82727">
        <ele>960.59997558594</ele>
        <time>2019-06-27T19:03:51.000Z</time>
      </trkpt>
      <trkpt lat="43.95142" lon="1.82732">
        <ele>960.59997558594</ele>
        <time>2019-06-27T19:03:52.000Z</time>
      </trkpt>
      <trkpt lat="43.95141" lon="1.82737">
        <ele>960.59997558594</ele>
        <time>2019-06-27T19:03:53.000Z</time>
      </trkpt>
      <trkpt lat="43.95141" lon="1.82742">
        <ele>960.59997558594</ele>
        <time>2019-06-27T19:03:54.000Z</time>
      </trkpt>
      <trkpt lat="43.95141" lon="1.82747">
        <ele>960.59997558594</ele>
        <time>2019-06-27T19:03:55.000Z</time>
      </trkpt>
      <trkpt lat="43.95142" lon="1.82753">
        <ele>960.59997558594</ele>
        <time>2019-06-27T19:03:56.000Z</time>
      </trkpt>
      <trkpt lat="43.95143" lon="1.82759">
        <ele>960.40002441406</ele>
        <time>2019-06-27T19:03:57.000Z</time>
      </trkpt>
      <trkpt lat="43.95143" lon="1.82765">
        <ele>960.40002441406</ele>
        <time>2019-06-27T19:03:58.000Z</time>
      </trkpt>
      <trkpt lat="43.95143" lon="1.82771">
        <ele>960.20001220703</ele>
        <time>2019-06-27T19:03:59.000Z</time>
      </trkpt>
      <trkpt lat="43.95142" lon="1.82777">
        <ele>960.40002441406</ele>
        <time>2019-06-27T19:04:00.000Z</time>
      </trkpt>
      <trkpt lat="43.95139" lon="1.82781">
        <ele>960.20001220703</ele>
        <time>2019-06-27T19:04:01.000Z</time>
      </trkpt>
      <trkpt lat="43.95136" lon="1.82783">
        <ele>959.79998779297</ele>
        <time>2019-06-27T19:04:02.000Z</time>
      </trkpt>
      <trkpt lat="43.95132" lon="1.82787">
        <ele>959.20001220703</ele>
        <time>2019-06-27T19:04:03.000Z</time>
      </trkpt>
      <trkpt lat="43.9513" lon="1.82791">
        <ele>959</ele>
        <time>2019-06-27T19:04:04.000Z</time>
      </trkpt>
      <trkpt lat="43.95128" lon="1.82795">
        <ele>958.59997558594</ele>
        <time>2019-06-27T19:04:05.000Z</time>
      </trkpt>
      <trkpt lat="43.95126" lon="1.828">
        <ele>958.79998779297</ele>
        <time>2019-06-27T19:04:06.000Z</time>
      </trkpt>
      <trkpt lat="43.95124" lon="1.82805">
        <ele>959</ele>
        <time>2019-06-27T19:04:07.000Z</time>
      </trkpt>
      <trkpt lat="43.95122" lon="1.8281">
        <ele>959.40002441406</ele>
        <time>2019-06-27T19:04:08.000Z</time>
      </trkpt>
      <trkpt lat="43.95121" lon="1.82814">
        <ele>959.79998779297</ele>
        <time>2019-06-27T19:04:09.000Z</time>
      </trkpt>
      <trkpt lat="43.95119" lon="1.82819">
        <ele>960.20001220703</ele>
        <time>2019-06-27T19:04:10.000Z</time>
      </trkpt>
      <trkpt lat="43.95118" lon="1.82825">
        <ele>960.20001220703</ele>
        <time>2019-06-27T19:04:11.000Z</time>
      </trkpt>
      <trkpt lat="43.95118" lon="1.8283">
        <ele>960.40002441406</ele>
        <time>2019-06-27T19:04:12.000Z</time>
      </trkpt>
      <trkpt lat="43.95117" lon="1.82834">
        <ele>960.40002441406</ele>
        <time>2019-06-27T19:04:13.000Z</time>
      </trkpt>
      <trkpt lat="43.95117" lon="1.82839">
        <ele>960.59997558594</ele>
        <time>2019-06-27T19:04:14.000Z</time>
      </trkpt>
      <trkpt lat="43.95119" lon="1.82844">
        <ele>960.79998779297</ele>
        <time>2019-06-27T19:04:15.000Z</time>
      </trkpt>
      <trkpt lat="43.95121" lon="1.82848">
        <ele>961</ele>
        <time>2019-06-27T19:04:16.000Z</time>
      </trkpt>
      <trkpt lat="43.95124" lon="1.82851">
        <ele>961.40002441406</ele>
        <time>2019-06-27T19:04:17.000Z</time>
      </trkpt>
      <trkpt lat="43.95126" lon="1.82855">
        <ele>961.59997558594</ele>
        <time>2019-06-27T19:04:18.000Z</time>
      </trkpt>
      <trkpt lat="43.95129" lon="1.82858">
        <ele>962</ele>
        <time>2019-06-27T19:04:19.000Z</time>
      </trkpt>
      <trkpt lat="43.95132" lon="1.82862">
        <ele>962.20001220703</ele>
        <time>2019-06-27T19:04:20.000Z</time>
      </trkpt>
      <trkpt lat="43.95134" lon="1.82866">
        <ele>962.59997558594</ele>
        <time>2019-06-27T19:04:21.000Z</time>
      </trkpt>
      <trkpt lat="43.95136" lon="1.8287">
        <ele>962.79998779297</ele>
        <time>2019-06-27T19:04:22.000Z</time>
      </trkpt>
      <trkpt lat="43.95139" lon="1.82874">
        <ele>963</ele>
        <time>2019-06-27T19:04:23.000Z</time>
      </trkpt>
      <trkpt lat="43.95141" lon="1.82878">
        <ele>963.40002441406</ele>
        <time>2019-06-27T19:04:24.000Z</time>
      </trkpt>
      <trkpt lat="43.95144" lon="1.82881">
        <ele>963.59997558594</ele>
        <time>2019-06-27T19:04:25.000Z</time>
      </trkpt>
      <trkpt lat="43.95147" lon="1.82885">
        <ele>963.79998779297</ele>
        <time>2019-06-27T19:04:26.000Z</time>
      </trkpt>
      <trkpt lat="43.95149" lon="1.82888">
        <ele>964</ele>
        <time>2019-06-27T19:04:27.000Z</time>
      </trkpt>
      <trkpt lat="43.95152" lon="1.82892">
        <ele>964.40002441406</ele>
        <time>2019-06-27T19:04:28.000Z</time>
      </trkpt>
      <trkpt lat="43.95155" lon="1.82895">
        <ele>964.59997558594</ele>
        <time>2019-06-27T19:04:29.000Z</time>
      </trkpt>
      <trkpt lat="43.95158" lon="1.82899">
        <ele>964.79998779297</ele>
        <time>2019-06-27T19:04:30.000Z</time>
      </trkpt>
      <trkpt lat="43.9516" lon="1.82903">
        <ele>965.20001220703</ele>
        <time>2019-06-27T19:04:31.000Z</time>
      </trkpt>
      <trkpt lat="43.95162" lon="1.82906">
        <ele>965.40002441406</ele>
        <time>2019-06-27T19:04:32.000Z</time>
      </trkpt>
      <trkpt lat="43.95164" lon="1.82909">
        <ele>965.59997558594</ele>
        <time>2019-06-27T19:04:33.000Z</time>
      </trkpt>
      <trkpt lat="43.95167" lon="1.82912">
        <ele>965.79998779297</ele>
        <time>2019-06-27T19:04:34.000Z</time>
      </trkpt>
      <trkpt lat="43.9517" lon="1.82913">
        <ele>966</ele>
        <time>2019-06-27T19:04:35.000Z</time>
      </trkpt>
      <trkpt lat="43.95173" lon="1.82915">
        <ele>966</ele>
        <time>2019-06-27T19:04:36.000Z</time>
      </trkpt>
      <trkpt lat="43.95175" lon="1.82918">
        <ele>966.20001220703</ele>
        <time>2019-06-27T19:04:37.000Z</time>
      </trkpt>
      <trkpt lat="43.95178" lon="1.82921">
        <ele>966.40002441406</ele>
        <time>2019-06-27T19:04:38.000Z</time>
      </trkpt>
      <trkpt lat="43.95181" lon="1.82924">
        <ele>966.40002441406</ele>
        <time>2019-06-27T19:04:39.000Z</time>
      </trkpt>
      <trkpt lat="43.95184" lon="1.82927">
        <ele>966.59997558594</ele>
        <time>2019-06-27T19:04:40.000Z</time>
      </trkpt>
      <trkpt lat="43.95186" lon="1.82929">
        <ele>966.59997558594</ele>
        <time>2019-06-27T19:04:41.000Z</time>
      </trkpt>
      <trkpt lat="43.95189" lon="1.82932">
        <ele>966.59997558594</ele>
        <time>2019-06-27T19:04:42.000Z</time>
      </trkpt>
      <trkpt lat="43.95192" lon="1.82934">
        <ele>966.79998779297</ele>
        <time>2019-06-27T19:04:43.000Z</time>
      </trkpt>
      <trkpt lat="43.95195" lon="1.82937">
        <ele>967</ele>
        <time>2019-06-27T19:04:44.000Z</time>
      </trkpt>
      <trkpt lat="43.95197" lon="1.8294">
        <ele>967</ele>
        <time>2019-06-27T19:04:45.000Z</time>
      </trkpt>
      <trkpt lat="43.952" lon="1.82944">
        <ele>967</ele>
        <time>2019-06-27T19:04:46.000Z</time>
      </trkpt>
      <trkpt lat="43.95203" lon="1.82946">
        <ele>967</ele>
        <time>2019-06-27T19:04:47.000Z</time>
      </trkpt>
      <trkpt lat="43.95206" lon="1.82946">
        <ele>967</ele>
        <time>2019-06-27T19:04:48.000Z</time>
      </trkpt>
      <trkpt lat="43.95209" lon="1.82947">
        <ele>967</ele>
        <time>2019-06-27T19:04:49.000Z</time>
      </trkpt>
      <trkpt lat="43.95211" lon="1.82949">
        <ele>967.20001220703</ele>
        <time>2019-06-27T19:04:50.000Z</time>
      </trkpt>
      <trkpt lat="43.95212" lon="1.82953">
        <ele>966.79998779297</ele>
        <time>2019-06-27T19:04:51.000Z</time>
      </trkpt>
      <trkpt lat="43.9521" lon="1.82957">
        <ele>966.59997558594</ele>
        <time>2019-06-27T19:04:52.000Z</time>
      </trkpt>
      <trkpt lat="43.95207" lon="1.82959">
        <ele>966.40002441406</ele>
        <time>2019-06-27T19:04:53.000Z</time>
      </trkpt>
      <trkpt lat="43.95204" lon="1.8296">
        <ele>966.59997558594</ele>
        <time>2019-06-27T19:04:54.000Z</time>
      </trkpt>
      <trkpt lat="43.95201" lon="1.82962">
        <ele>966.59997558594</ele>
        <time>2019-06-27T19:04:55.000Z</time>
      </trkpt>
      <trkpt lat="43.95198" lon="1.82965">
        <ele>966.40002441406</ele>
        <time>2019-06-27T19:04:56.000Z</time>
      </trkpt>
      <trkpt lat="43.95194" lon="1.82967">
        <ele>966.40002441406</ele>
        <time>2019-06-27T19:04:57.000Z</time>
      </trkpt>
      <trkpt lat="43.95191" lon="1.82969">
        <ele>966.20001220703</ele>
        <time>2019-06-27T19:04:58.000Z</time>
      </trkpt>
      <trkpt lat="43.95188" lon="1.82971">
        <ele>966.20001220703</ele>
        <time>2019-06-27T19:04:59.000Z</time>
      </trkpt>
      <trkpt lat="43.95184" lon="1.82974">
        <ele>966.20001220703</ele>
        <time>2019-06-27T19:05:00.000Z</time>
      </trkpt>
      <trkpt lat="43.95181" lon="1.82977">
        <ele>966.20001220703</ele>
        <time>2019-06-27T19:05:01.000Z</time>
      </trkpt>
      <trkpt lat="43.95177" lon="1.8298">
        <ele>966.20001220703</ele>
        <time>2019-06-27T19:05:02.000Z</time>
      </trkpt>
      <trkpt lat="43.95173" lon="1.82983">
        <ele>966</ele>
        <time>2019-06-27T19:05:03.000Z</time>
      </trkpt>
      <trkpt lat="43.9517" lon="1.82986">
        <ele>966</ele>
        <time>2019-06-27T19:05:04.000Z</time>
      </trkpt>
      <trkpt lat="43.95166" lon="1.82989">
        <ele>966</ele>
        <time>2019-06-27T19:05:05.000Z</time>
      </trkpt>
      <trkpt lat="43.95162" lon="1.82992">
        <ele>966</ele>
        <time>2019-06-27T19:05:06.000Z</time>
      </trkpt>
      <trkpt lat="43.95158" lon="1.82995">
        <ele>966</ele>
        <time>2019-06-27T19:05:07.000Z</time>
      </trkpt>
      <trkpt lat="43.95155" lon="1.82998">
        <ele>965.79998779297</ele>
        <time>2019-06-27T19:05:08.000Z</time>
      </trkpt>
      <trkpt lat="43.95151" lon="1.83002">
        <ele>965.79998779297</ele>
        <time>2019-06-27T19:05:09.000Z</time>
      </trkpt>
      <trkpt lat="43.95148" lon="1.83005">
        <ele>965.79998779297</ele>
        <time>2019-06-27T19:05:10.000Z</time>
      </trkpt>
      <trkpt lat="43.95144" lon="1.83009">
        <ele>965.79998779297</ele>
        <time>2019-06-27T19:05:11.000Z</time>
      </trkpt>
      <trkpt lat="43.9514" lon="1.83012">
        <ele>965.59997558594</ele>
        <time>2019-06-27T19:05:12.000Z</time>
      </trkpt>
      <trkpt lat="43.95137" lon="1.83015">
        <ele>965.59997558594</ele>
        <time>2019-06-27T19:05:13.000Z</time>
      </trkpt>
      <trkpt lat="43.95133" lon="1.83018">
        <ele>965.59997558594</ele>
        <time>2019-06-27T19:05:14.000Z</time>
      </trkpt>
      <trkpt lat="43.9513" lon="1.83022">
        <ele>965.59997558594</ele>
        <time>2019-06-27T19:05:15.000Z</time>
      </trkpt>
      <trkpt lat="43.95126" lon="1.83025">
        <ele>965.40002441406</ele>
        <time>2019-06-27T19:05:16.000Z</time>
      </trkpt>
      <trkpt lat="43.95123" lon="1.83028">
        <ele>965.40002441406</ele>
        <time>2019-06-27T19:05:17.000Z</time>
      </trkpt>
      <trkpt lat="43.95119" lon="1.83031">
        <ele>965.40002441406</ele>
        <time>2019-06-27T19:05:18.000Z</time>
      </trkpt>
      <trkpt lat="43.95116" lon="1.83035">
        <ele>965.40002441406</ele>
        <time>2019-06-27T19:05:19.000Z</time>
      </trkpt>
      <trkpt lat="43.95113" lon="1.83038">
        <ele>965.40002441406</ele>
        <time>2019-06-27T19:05:20.000Z</time>
      </trkpt>
      <trkpt lat="43.95109" lon="1.83041">
        <ele>965.40002441406</ele>
        <time>2019-06-27T19:05:21.000Z</time>
      </trkpt>
      <trkpt lat="43.95106" lon="1.83044">
        <ele>965.40002441406</ele>
        <time>2019-06-27T19:05:22.000Z</time>
      </trkpt>
      <trkpt lat="43.95102" lon="1.83047">
        <ele>965.40002441406</ele>
        <time>2019-06-27T19:05:23.000Z</time>
      </trkpt>
      <trkpt lat="43.95099" lon="1.8305">
        <ele>965.40002441406</ele>
        <time>2019-06-27T19:05:24.000Z</time>
      </trkpt>
      <trkpt lat="43.95096" lon="1.83054">
        <ele>965.40002441406</ele>
        <time>2019-06-27T19:05:25.000Z</time>
      </trkpt>
      <trkpt lat="43.95093" lon="1.83057">
        <ele>965.20001220703</ele>
        <time>2019-06-27T19:05:26.000Z</time>
      </trkpt>
      <trkpt lat="43.95089" lon="1.8306">
        <ele>965.20001220703</ele>
        <time>2019-06-27T19:05:27.000Z</time>
      </trkpt>
      <trkpt lat="43.95086" lon="1.83063">
        <ele>965.20001220703</ele>
        <time>2019-06-27T19:05:28.000Z</time>
      </trkpt>
      <trkpt lat="43.95083" lon="1.83066">
        <ele>965.20001220703</ele>
        <time>2019-06-27T19:05:29.000Z</time>
      </trkpt>
      <trkpt lat="43.95079" lon="1.83069">
        <ele>965.20001220703</ele>
        <time>2019-06-27T19:05:30.000Z</time>
      </trkpt>
      <trkpt lat="43.95076" lon="1.83072">
        <ele>965.20001220703</ele>
        <time>2019-06-27T19:05:31.000Z</time>
      </trkpt>
      <trkpt lat="43.95073" lon="1.83076">
        <ele>965.20001220703</ele>
        <time>2019-06-27T19:05:32.000Z</time>
      </trkpt>
      <trkpt lat="43.95069" lon="1.83079">
        <ele>965.20001220703</ele>
        <time>2019-06-27T19:05:33.000Z</time>
      </trkpt>
      <trkpt lat="43.95066" lon="1.83083">
        <ele>965.40002441406</ele>
        <time>2019-06-27T19:05:34.000Z</time>
      </trkpt>
      <trkpt lat="43.95063" lon="1.83087">
        <ele>965.20001220703</ele>
        <time>2019-06-27T19:05:35.000Z</time>
      </trkpt>
      <trkpt lat="43.9506" lon="1.8309">
        <ele>965.20001220703</ele>
        <time>2019-06-27T19:05:36.000Z</time>
      </trkpt>
      <trkpt lat="43.95056" lon="1.83094">
        <ele>965.20001220703</ele>
        <time>2019-06-27T19:05:37.000Z</time>
      </trkpt>
      <trkpt lat="43.95053" lon="1.83097">
        <ele>965.20001220703</ele>
        <time>2019-06-27T19:05:38.000Z</time>
      </trkpt>
      <trkpt lat="43.9505" lon="1.831">
        <ele>965.20001220703</ele>
        <time>2019-06-27T19:05:39.000Z</time>
      </trkpt>
      <trkpt lat="43.95047" lon="1.83103">
        <ele>965.20001220703</ele>
        <time>2019-06-27T19:05:40.000Z</time>
      </trkpt>
      <trkpt lat="43.95044" lon="1.83106">
        <ele>965.40002441406</ele>
        <time>2019-06-27T19:05:41.000Z</time>
      </trkpt>
      <trkpt lat="43.9504" lon="1.83109">
        <ele>965.40002441406</ele>
        <time>2019-06-27T19:05:42.000Z</time>
      </trkpt>
      <trkpt lat="43.95037" lon="1.83112">
        <ele>965.40002441406</ele>
        <time>2019-06-27T19:05:43.000Z</time>
      </trkpt>
      <trkpt lat="43.95034" lon="1.83115">
        <ele>965.40002441406</ele>
        <time>2019-06-27T19:05:44.000Z</time>
      </trkpt>
      <trkpt lat="43.95031" lon="1.83119">
        <ele>965.40002441406</ele>
        <time>2019-06-27T19:05:45.000Z</time>
      </trkpt>
      <trkpt lat="43.95028" lon="1.83122">
        <ele>965.20001220703</ele>
        <time>2019-06-27T19:05:46.000Z</time>
      </trkpt>
      <trkpt lat="43.95025" lon="1.83125">
        <ele>965.20001220703</ele>
        <time>2019-06-27T19:05:47.000Z</time>
      </trkpt>
      <trkpt lat="43.95022" lon="1.83128">
        <ele>965</ele>
        <time>2019-06-27T19:05:48.000Z</time>
      </trkpt>
      <trkpt lat="43.95019" lon="1.83132">
        <ele>965</ele>
        <time>2019-06-27T19:05:49.000Z</time>
      </trkpt>
      <trkpt lat="43.95016" lon="1.83135">
        <ele>965</ele>
        <time>2019-06-27T19:05:50.000Z</time>
      </trkpt>
      <trkpt lat="43.95013" lon="1.83139">
        <ele>964.79998779297</ele>
        <time>2019-06-27T19:05:51.000Z</time>
      </trkpt>
      <trkpt lat="43.9501" lon="1.83143">
        <ele>964.79998779297</ele>
        <time>2019-06-27T19:05:52.000Z</time>
      </trkpt>
      <trkpt lat="43.95007" lon="1.83146">
        <ele>964.59997558594</ele>
        <time>2019-06-27T19:05:53.000Z</time>
      </trkpt>
      <trkpt lat="43.95005" lon="1.83148">
        <ele>964.40002441406</ele>
        <time>2019-06-27T19:05:54.000Z</time>
      </trkpt>
      <trkpt lat="43.95004" lon="1.8315">
        <ele>964</ele>
        <time>2019-06-27T19:05:55.000Z</time>
      </trkpt>
      <trkpt lat="43.95005" lon="1.83149">
        <ele>964</ele>
        <time>2019-06-27T19:05:56.000Z</time>
      </trkpt>
      <trkpt lat="43.95004" lon="1.8315">
        <ele>963.79998779297</ele>
        <time>2019-06-27T19:05:57.000Z</time>
      </trkpt>
      <trkpt lat="43.95004" lon="1.8315">
        <ele>963.79998779297</ele>
        <time>2019-06-27T19:05:58.000Z</time>
      </trkpt>
      <trkpt lat="43.95004" lon="1.8315">
        <ele>963.79998779297</ele>
        <time>2019-06-27T19:05:59.000Z</time>
      </trkpt>
      <trkpt lat="43.95004" lon="1.8315">
        <ele>963.79998779297</ele>
        <time>2019-06-27T19:06:00.000Z</time>
      </trkpt>
      <trkpt lat="43.95004" lon="1.8315">
        <ele>963.79998779297</ele>
        <time>2019-06-27T19:06:01.000Z</time>
      </trkpt>
      <trkpt lat="43.95004" lon="1.8315">
        <ele>963.79998779297</ele>
        <time>2019-06-27T19:06:02.000Z</time>
      </trkpt>
      <trkpt lat="43.95004" lon="1.8315">
        <ele>963.79998779297</ele>
        <time>2019-06-27T19:06:03.000Z</time>
      </trkpt>
      <trkpt lat="43.95004" lon="1.8315">
        <ele>963.79998779297</ele>
        <time>2019-06-27T19:06:04.000Z</time>
      </trkpt>
      <trkpt lat="43.95004" lon="1.8315">
        <ele>963.79998779297</ele>
        <time>2019-06-27T19:06:05.000Z</time>
      </trkpt>
      <trkpt lat="43.95004" lon="1.8315">
        <ele>963.79998779297</ele>
        <time>2019-06-27T19:06:06.000Z</time>
      </trkpt>
      <trkpt lat="43.95004" lon="1.8315">
        <ele>963.79998779297</ele>
        <time>2019-06-27T19:06:07.000Z</time>
      </trkpt>
      <trkpt lat="43.95004" lon="1.8315">
        <ele>963.79998779297</ele>
        <time>2019-06-27T19:06:08.000Z</time>
      </trkpt>
      <trkpt lat="43.95004" lon="1.8315">
        <ele>963.79998779297</ele>
        <time>2019-06-27T19:06:09.000Z</time>
      </trkpt>
      <trkpt lat="43.95004" lon="1.8315">
        <ele>963.79998779297</ele>
        <time>2019-06-27T19:06:10.000Z</time>
      </trkpt>
      <trkpt lat="43.95004" lon="1.8315">
        <ele>963.79998779297</ele>
        <time>2019-06-27T19:06:11.000Z</time>
      </trkpt>
      <trkpt lat="43.95004" lon="1.8315">
        <ele>963.79998779297</ele>
        <time>2019-06-27T19:06:12.000Z</time>
      </trkpt>
      <trkpt lat="43.95004" lon="1.8315">
        <ele>963.79998779297</ele>
        <time>2019-06-27T19:06:13.000Z</time>
      </trkpt>
      <trkpt lat="43.95004" lon="1.8315">
        <ele>964</ele>
        <time>2019-06-27T19:06:14.000Z</time>
      </trkpt>
      <trkpt lat="43.95004" lon="1.8315">
        <ele>963.79998779297</ele>
        <time>2019-06-27T19:06:15.000Z</time>
      </trkpt>
      <trkpt lat="43.95004" lon="1.8315">
        <ele>963.79998779297</ele>
        <time>2019-06-27T19:06:16.000Z</time>
      </trkpt>
      <trkpt lat="43.95004" lon="1.8315">
        <ele>963.79998779297</ele>
        <time>2019-06-27T19:06:17.000Z</time>
      </trkpt>
      <trkpt lat="43.95004" lon="1.8315">
        <ele>963.79998779297</ele>
        <time>2019-06-27T19:06:18.000Z</time>
      </trkpt>
      <trkpt lat="43.95004" lon="1.8315">
        <ele>963.79998779297</ele>
        <time>2019-06-27T19:06:19.000Z</time>
      </trkpt>
      <trkpt lat="43.95004" lon="1.8315">
        <ele>963.79998779297</ele>
        <time>2019-06-27T19:06:20.000Z</time>
      </trkpt>
      <trkpt lat="43.95004" lon="1.8315">
        <ele>963.79998779297</ele>
        <time>2019-06-27T19:06:21.000Z</time>
      </trkpt>
      <trkpt lat="43.95004" lon="1.8315">
        <ele>963.79998779297</ele>
        <time>2019-06-27T19:06:22.000Z</time>
      </trkpt>
      <trkpt lat="43.95004" lon="1.8315">
        <ele>963.79998779297</ele>
        <time>2019-06-27T19:06:23.000Z</time>
      </trkpt>
      <trkpt lat="43.95004" lon="1.8315">
        <ele>963.79998779297</ele>
        <time>2019-06-27T19:06:24.000Z</time>
      </trkpt>
      <trkpt lat="43.95004" lon="1.8315">
        <ele>963.79998779297</ele>
        <time>2019-06-27T19:06:25.000Z</time>
      </trkpt>
      <trkpt lat="43.95004" lon="1.8315">
        <ele>963.79998779297</ele>
        <time>2019-06-27T19:06:26.000Z</time>
      </trkpt>
      <trkpt lat="43.95004" lon="1.8315">
        <ele>964</ele>
        <time>2019-06-27T19:06:27.000Z</time>
      </trkpt>
      <trkpt lat="43.95004" lon="1.8315">
        <ele>964</ele>
        <time>2019-06-27T19:06:28.000Z</time>
      </trkpt>
      <trkpt lat="43.95004" lon="1.8315">
        <ele>963.79998779297</ele>
        <time>2019-06-27T19:06:29.000Z</time>
      </trkpt>
      <trkpt lat="43.95004" lon="1.8315">
        <ele>963.79998779297</ele>
        <time>2019-06-27T19:06:30.000Z</time>
      </trkpt>
      <trkpt lat="43.95004" lon="1.8315">
        <ele>963.79998779297</ele>
        <time>2019-06-27T19:06:31.000Z</time>
      </trkpt>
      <trkpt lat="43.95004" lon="1.8315">
        <ele>963.79998779297</ele>
        <time>2019-06-27T19:06:32.000Z</time>
      </trkpt>
      <trkpt lat="43.95004" lon="1.8315">
        <ele>963.79998779297</ele>
        <time>2019-06-27T19:06:33.000Z</time>
      </trkpt>
      <trkpt lat="43.95004" lon="1.8315">
        <ele>963.79998779297</ele>
        <time>2019-06-27T19:06:34.000Z</time>
      </trkpt>
      <trkpt lat="43.95004" lon="1.8315">
        <ele>963.79998779297</ele>
        <time>2019-06-27T19:06:35.000Z</time>
      </trkpt>
      <trkpt lat="43.95004" lon="1.8315">
        <ele>963.79998779297</ele>
        <time>2019-06-27T19:06:36.000Z</time>
      </trkpt>
      <trkpt lat="43.95004" lon="1.8315">
        <ele>963.79998779297</ele>
        <time>2019-06-27T19:06:37.000Z</time>
      </trkpt>
      <trkpt lat="43.95004" lon="1.8315">
        <ele>963.79998779297</ele>
        <time>2019-06-27T19:06:38.000Z</time>
      </trkpt>
      <trkpt lat="43.95004" lon="1.8315">
        <ele>963.79998779297</ele>
        <time>2019-06-27T19:06:39.000Z</time>
      </trkpt>
      <trkpt lat="43.95004" lon="1.8315">
        <ele>963.79998779297</ele>
        <time>2019-06-27T19:06:40.000Z</time>
      </trkpt>
      <trkpt lat="43.95004" lon="1.8315">
        <ele>963.79998779297</ele>
        <time>2019-06-27T19:06:41.000Z</time>
      </trkpt>
      <trkpt lat="43.95004" lon="1.8315">
        <ele>963.79998779297</ele>
        <time>2019-06-27T19:06:42.000Z</time>
      </trkpt>
      <trkpt lat="43.95004" lon="1.8315">
        <ele>963.79998779297</ele>
        <time>2019-06-27T19:06:43.000Z</time>
      </trkpt>
      <trkpt lat="43.95004" lon="1.8315">
        <ele>963.79998779297</ele>
        <time>2019-06-27T19:06:44.000Z</time>
      </trkpt>
      <trkpt lat="43.95004" lon="1.8315">
        <ele>963.79998779297</ele>
        <time>2019-06-27T19:06:45.000Z</time>
      </trkpt>
      <trkpt lat="43.95004" lon="1.8315">
        <ele>963.79998779297</ele>
        <time>2019-06-27T19:06:46.000Z</time>
      </trkpt>
      <trkpt lat="43.95004" lon="1.8315">
        <ele>963.79998779297</ele>
        <time>2019-06-27T19:06:47.000Z</time>
      </trkpt>
      <trkpt lat="43.95004" lon="1.8315">
        <ele>963.79998779297</ele>
        <time>2019-06-27T19:06:48.000Z</time>
      </trkpt>
      <trkpt lat="43.95004" lon="1.8315">
        <ele>963.79998779297</ele>
        <time>2019-06-27T19:06:49.000Z</time>
      </trkpt>
      <trkpt lat="43.95004" lon="1.8315">
        <ele>963.79998779297</ele>
        <time>2019-06-27T19:06:50.000Z</time>
      </trkpt>
      <trkpt lat="43.95004" lon="1.8315">
        <ele>963.79998779297</ele>
        <time>2019-06-27T19:06:51.000Z</time>
      </trkpt>
      <trkpt lat="43.95004" lon="1.8315">
        <ele>964</ele>
        <time>2019-06-27T19:06:52.000Z</time>
      </trkpt>
      <trkpt lat="43.95004" lon="1.8315">
        <ele>963.79998779297</ele>
        <time>2019-06-27T19:06:53.000Z</time>
      </trkpt>
      <trkpt lat="43.95004" lon="1.8315">
        <ele>963.79998779297</ele>
        <time>2019-06-27T19:06:54.000Z</time>
      </trkpt>
      <trkpt lat="43.95004" lon="1.8315">
        <ele>963.79998779297</ele>
        <time>2019-06-27T19:06:55.000Z</time>
      </trkpt>
      <trkpt lat="43.95004" lon="1.8315">
        <ele>963.79998779297</ele>
        <time>2019-06-27T19:06:56.000Z</time>
      </trkpt>
      <trkpt lat="43.95004" lon="1.8315">
        <ele>963.79998779297</ele>
        <time>2019-06-27T19:06:57.000Z</time>
      </trkpt>
      <trkpt lat="43.95004" lon="1.8315">
        <ele>963.79998779297</ele>
        <time>2019-06-27T19:06:58.000Z</time>
      </trkpt>
      <trkpt lat="43.95004" lon="1.8315">
        <ele>963.79998779297</ele>
        <time>2019-06-27T19:06:59.000Z</time>
      </trkpt>
      <trkpt lat="43.95004" lon="1.8315">
        <ele>963.79998779297</ele>
        <time>2019-06-27T19:07:00.000Z</time>
      </trkpt>
      <trkpt lat="43.95004" lon="1.8315">
        <ele>963.79998779297</ele>
        <time>2019-06-27T19:07:01.000Z</time>
      </trkpt>
      <trkpt lat="43.95004" lon="1.8315">
        <ele>963.79998779297</ele>
        <time>2019-06-27T19:07:02.000Z</time>
      </trkpt>
      <trkpt lat="43.95004" lon="1.8315">
        <ele>963.79998779297</ele>
        <time>2019-06-27T19:07:03.000Z</time>
      </trkpt>
      <trkpt lat="43.95004" lon="1.8315">
        <ele>963.79998779297</ele>
        <time>2019-06-27T19:07:04.000Z</time>
      </trkpt>
      <trkpt lat="43.95004" lon="1.8315">
        <ele>963.79998779297</ele>
        <time>2019-06-27T19:07:05.000Z</time>
      </trkpt>
      <trkpt lat="43.95004" lon="1.8315">
        <ele>963.79998779297</ele>
        <time>2019-06-27T19:07:06.000Z</time>
      </trkpt>
      <trkpt lat="43.95004" lon="1.8315">
        <ele>963.79998779297</ele>
        <time>2019-06-27T19:07:07.000Z</time>
      </trkpt>
      <trkpt lat="43.95004" lon="1.8315">
        <ele>963.79998779297</ele>
        <time>2019-06-27T19:07:08.000Z</time>
      </trkpt>
      <trkpt lat="43.95004" lon="1.8315">
        <ele>964</ele>
        <time>2019-06-27T19:07:09.000Z</time>
      </trkpt>
      <trkpt lat="43.95004" lon="1.8315">
        <ele>964</ele>
        <time>2019-06-27T19:07:10.000Z</time>
      </trkpt>
      <trkpt lat="43.95004" lon="1.8315">
        <ele>964</ele>
        <time>2019-06-27T19:07:11.000Z</time>
      </trkpt>
      <trkpt lat="43.95004" lon="1.8315">
        <ele>963.79998779297</ele>
        <time>2019-06-27T19:07:12.000Z</time>
      </trkpt>
      <trkpt lat="43.95004" lon="1.8315">
        <ele>963.79998779297</ele>
        <time>2019-06-27T19:07:13.000Z</time>
      </trkpt>
      <trkpt lat="43.95004" lon="1.8315">
        <ele>963.79998779297</ele>
        <time>2019-06-27T19:07:14.000Z</time>
      </trkpt>
      <trkpt lat="43.95004" lon="1.8315">
        <ele>963.79998779297</ele>
        <time>2019-06-27T19:07:15.000Z</time>
      </trkpt>
      <trkpt lat="43.95004" lon="1.8315">
        <ele>963.79998779297</ele>
        <time>2019-06-27T19:07:16.000Z</time>
      </trkpt>
      <trkpt lat="43.95004" lon="1.8315">
        <ele>963.79998779297</ele>
        <time>2019-06-27T19:07:17.000Z</time>
      </trkpt>
      <trkpt lat="43.95004" lon="1.8315">
        <ele>963.79998779297</ele>
        <time>2019-06-27T19:07:18.000Z</time>
      </trkpt>
      <trkpt lat="43.95004" lon="1.8315">
        <ele>963.79998779297</ele>
        <time>2019-06-27T19:07:19.000Z</time>
      </trkpt>
      <trkpt lat="43.95004" lon="1.8315">
        <ele>963.79998779297</ele>
        <time>2019-06-27T19:07:20.000Z</time>
      </trkpt>
      <trkpt lat="43.95004" lon="1.8315">
        <ele>963.79998779297</ele>
        <time>2019-06-27T19:07:21.000Z</time>
      </trkpt>
      <trkpt lat="43.95004" lon="1.8315">
        <ele>963.79998779297</ele>
        <time>2019-06-27T19:07:22.000Z</time>
      </trkpt>
      <trkpt lat="43.95004" lon="1.8315">
        <ele>963.79998779297</ele>
        <time>2019-06-27T19:07:23.000Z</time>
      </trkpt>
      <trkpt lat="43.95004" lon="1.8315">
        <ele>963.79998779297</ele>
        <time>2019-06-27T19:07:24.000Z</time>
      </trkpt>
      <trkpt lat="43.95004" lon="1.8315">
        <ele>963.79998779297</ele>
        <time>2019-06-27T19:07:25.000Z</time>
      </trkpt>
      <trkpt lat="43.95004" lon="1.8315">
        <ele>963.79998779297</ele>
        <time>2019-06-27T19:07:26.000Z</time>
      </trkpt>
      <trkpt lat="43.95004" lon="1.8315">
        <ele>963.79998779297</ele>
        <time>2019-06-27T19:07:27.000Z</time>
      </trkpt>
      <trkpt lat="43.95004" lon="1.8315">
        <ele>963.79998779297</ele>
        <time>2019-06-27T19:07:28.000Z</time>
      </trkpt>
      <trkpt lat="43.95004" lon="1.8315">
        <ele>963.79998779297</ele>
        <time>2019-06-27T19:07:29.000Z</time>
      </trkpt>
      <trkpt lat="43.95004" lon="1.8315">
        <ele>963.79998779297</ele>
        <time>2019-06-27T19:07:30.000Z</time>
      </trkpt>
      <trkpt lat="43.95004" lon="1.8315">
        <ele>963.79998779297</ele>
        <time>2019-06-27T19:07:31.000Z</time>
      </trkpt>
      <trkpt lat="43.95004" lon="1.8315">
        <ele>963.79998779297</ele>
        <time>2019-06-27T19:07:32.000Z</time>
      </trkpt>
      <trkpt lat="43.95004" lon="1.8315">
        <ele>963.79998779297</ele>
        <time>2019-06-27T19:07:33.000Z</time>
      </trkpt>
      <trkpt lat="43.95004" lon="1.8315">
        <ele>963.79998779297</ele>
        <time>2019-06-27T19:07:34.000Z</time>
      </trkpt>
      <trkpt lat="43.95004" lon="1.8315">
        <ele>963.79998779297</ele>
        <time>2019-06-27T19:07:35.000Z</time>
      </trkpt>
      <trkpt lat="43.95004" lon="1.8315">
        <ele>963.79998779297</ele>
        <time>2019-06-27T19:07:36.000Z</time>
      </trkpt>
      <trkpt lat="43.95004" lon="1.8315">
        <ele>963.79998779297</ele>
        <time>2019-06-27T19:07:37.000Z</time>
      </trkpt>
      <trkpt lat="43.95004" lon="1.8315">
        <ele>963.79998779297</ele>
        <time>2019-06-27T19:07:38.000Z</time>
      </trkpt>
      <trkpt lat="43.95004" lon="1.8315">
        <ele>963.79998779297</ele>
        <time>2019-06-27T19:07:39.000Z</time>
      </trkpt>
      <trkpt lat="43.95004" lon="1.8315">
        <ele>963.79998779297</ele>
        <time>2019-06-27T19:07:40.000Z</time>
      </trkpt>
      <trkpt lat="43.95004" lon="1.8315">
        <ele>963.79998779297</ele>
        <time>2019-06-27T19:07:41.000Z</time>
      </trkpt>
      <trkpt lat="43.95004" lon="1.8315">
        <ele>963.79998779297</ele>
        <time>2019-06-27T19:07:42.000Z</time>
      </trkpt>
      <trkpt lat="43.95004" lon="1.8315">
        <ele>963.79998779297</ele>
        <time>2019-06-27T19:07:43.000Z</time>
      </trkpt>
      <trkpt lat="43.95004" lon="1.8315">
        <ele>963.79998779297</ele>
        <time>2019-06-27T19:07:44.000Z</time>
      </trkpt>
      <trkpt lat="43.95004" lon="1.8315">
        <ele>963.79998779297</ele>
        <time>2019-06-27T19:07:45.000Z</time>
      </trkpt>
      <trkpt lat="43.95004" lon="1.8315">
        <ele>963.79998779297</ele>
        <time>2019-06-27T19:07:46.000Z</time>
      </trkpt>
      <trkpt lat="43.95004" lon="1.8315">
        <ele>963.79998779297</ele>
        <time>2019-06-27T19:07:47.000Z</time>
      </trkpt>
      <trkpt lat="43.95004" lon="1.8315">
        <ele>963.79998779297</ele>
        <time>2019-06-27T19:07:48.000Z</time>
      </trkpt>
      <trkpt lat="43.95004" lon="1.8315">
        <ele>963.79998779297</ele>
        <time>2019-06-27T19:07:49.000Z</time>
      </trkpt>
      <trkpt lat="43.95004" lon="1.8315">
        <ele>963.79998779297</ele>
        <time>2019-06-27T19:07:50.000Z</time>
      </trkpt>
      <trkpt lat="43.95004" lon="1.8315">
        <ele>963.79998779297</ele>
        <time>2019-06-27T19:07:51.000Z</time>
      </trkpt>
      <trkpt lat="43.95004" lon="1.8315">
        <ele>963.79998779297</ele>
        <time>2019-06-27T19:07:52.000Z</time>
      </trkpt>
      <trkpt lat="43.95004" lon="1.8315">
        <ele>963.79998779297</ele>
        <time>2019-06-27T19:07:53.000Z</time>
      </trkpt>
      <trkpt lat="43.95004" lon="1.8315">
        <ele>963.79998779297</ele>
        <time>2019-06-27T19:07:54.000Z</time>
      </trkpt>
      <trkpt lat="43.95004" lon="1.8315">
        <ele>963.79998779297</ele>
        <time>2019-06-27T19:07:55.000Z</time>
      </trkpt>
      <trkpt lat="43.95004" lon="1.8315">
        <ele>963.79998779297</ele>
        <time>2019-06-27T19:07:56.000Z</time>
      </trkpt>
      <trkpt lat="43.95004" lon="1.8315">
        <ele>963.79998779297</ele>
        <time>2019-06-27T19:07:57.000Z</time>
      </trkpt>
      <trkpt lat="43.95004" lon="1.8315">
        <ele>963.79998779297</ele>
        <time>2019-06-27T19:07:58.000Z</time>
      </trkpt>
      <trkpt lat="43.95004" lon="1.8315">
        <ele>963.79998779297</ele>
        <time>2019-06-27T19:07:59.000Z</time>
      </trkpt>
      <trkpt lat="43.95004" lon="1.8315">
        <ele>963.79998779297</ele>
        <time>2019-06-27T19:08:00.000Z</time>
      </trkpt>
      <trkpt lat="43.95004" lon="1.8315">
        <ele>963.79998779297</ele>
        <time>2019-06-27T19:08:01.000Z</time>
      </trkpt>
      <trkpt lat="43.95004" lon="1.8315">
        <ele>963.79998779297</ele>
        <time>2019-06-27T19:08:02.000Z</time>
      </trkpt>
      <trkpt lat="43.95004" lon="1.8315">
        <ele>963.79998779297</ele>
        <time>2019-06-27T19:08:03.000Z</time>
      </trkpt>
      <trkpt lat="43.95004" lon="1.8315">
        <ele>963.79998779297</ele>
        <time>2019-06-27T19:08:04.000Z</time>
      </trkpt>
      <trkpt lat="43.95004" lon="1.8315">
        <ele>963.79998779297</ele>
        <time>2019-06-27T19:08:05.000Z</time>
      </trkpt>
      <trkpt lat="43.95004" lon="1.8315">
        <ele>963.79998779297</ele>
        <time>2019-06-27T19:08:06.000Z</time>
      </trkpt>
      <trkpt lat="43.95004" lon="1.8315">
        <ele>963.79998779297</ele>
        <time>2019-06-27T19:08:07.000Z</time>
      </trkpt>
      <trkpt lat="43.95004" lon="1.8315">
        <ele>963.79998779297</ele>
        <time>2019-06-27T19:08:08.000Z</time>
      </trkpt>
      <trkpt lat="43.95004" lon="1.8315">
        <ele>963.79998779297</ele>
        <time>2019-06-27T19:08:09.000Z</time>
      </trkpt>
      <trkpt lat="43.95004" lon="1.8315">
        <ele>963.79998779297</ele>
        <time>2019-06-27T19:08:10.000Z</time>
      </trkpt>
      <trkpt lat="43.95004" lon="1.8315">
        <ele>964</ele>
        <time>2019-06-27T19:08:11.000Z</time>
      </trkpt>
      <trkpt lat="43.95004" lon="1.8315">
        <ele>963.79998779297</ele>
        <time>2019-06-27T19:08:12.000Z</time>
      </trkpt>
      <trkpt lat="43.95004" lon="1.8315">
        <ele>963.79998779297</ele>
        <time>2019-06-27T19:08:13.000Z</time>
      </trkpt>
      <trkpt lat="43.95004" lon="1.8315">
        <ele>964</ele>
        <time>2019-06-27T19:08:14.000Z</time>
      </trkpt>
      <trkpt lat="43.95004" lon="1.8315">
        <ele>964</ele>
        <time>2019-06-27T19:08:15.000Z</time>
      </trkpt>
      <trkpt lat="43.95004" lon="1.8315">
        <ele>963.79998779297</ele>
        <time>2019-06-27T19:08:16.000Z</time>
      </trkpt>
      <trkpt lat="43.95004" lon="1.8315">
        <ele>963.79998779297</ele>
        <time>2019-06-27T19:08:17.000Z</time>
      </trkpt>
      <trkpt lat="43.95004" lon="1.8315">
        <ele>963.79998779297</ele>
        <time>2019-06-27T19:08:18.000Z</time>
      </trkpt>
      <trkpt lat="43.95004" lon="1.8315">
        <ele>963.79998779297</ele>
        <time>2019-06-27T19:08:19.000Z</time>
      </trkpt>
      <trkpt lat="43.95004" lon="1.83151">
        <ele>963.79998779297</ele>
        <time>2019-06-27T19:08:20.000Z</time>
      </trkpt>
      <trkpt lat="43.95003" lon="1.83152">
        <ele>963.79998779297</ele>
        <time>2019-06-27T19:08:21.000Z</time>
      </trkpt>
      <trkpt lat="43.95003" lon="1.83151">
        <ele>963.79998779297</ele>
        <time>2019-06-27T19:08:22.000Z</time>
      </trkpt>
      <trkpt lat="43.95003" lon="1.83152">
        <ele>963.79998779297</ele>
        <time>2019-06-27T19:08:23.000Z</time>
      </trkpt>
      <trkpt lat="43.95003" lon="1.83152">
        <ele>963.79998779297</ele>
        <time>2019-06-27T19:08:24.000Z</time>
      </trkpt>
      <trkpt lat="43.95003" lon="1.83152">
        <ele>963.79998779297</ele>
        <time>2019-06-27T19:08:25.000Z</time>
      </trkpt>
      <trkpt lat="43.95003" lon="1.83152">
        <ele>963.79998779297</ele>
        <time>2019-06-27T19:08:26.000Z</time>
      </trkpt>
      <trkpt lat="43.95002" lon="1.83152">
        <ele>963.59997558594</ele>
        <time>2019-06-27T19:08:27.000Z</time>
      </trkpt>
      <trkpt lat="43.95" lon="1.83153">
        <ele>963.59997558594</ele>
        <time>2019-06-27T19:08:28.000Z</time>
      </trkpt>
      <trkpt lat="43.94998" lon="1.83155">
        <ele>963.40002441406</ele>
        <time>2019-06-27T19:08:29.000Z</time>
      </trkpt>
      <trkpt lat="43.94996" lon="1.83156">
        <ele>963.40002441406</ele>
        <time>2019-06-27T19:08:30.000Z</time>
      </trkpt>
      <trkpt lat="43.94993" lon="1.83158">
        <ele>963.40002441406</ele>
        <time>2019-06-27T19:08:31.000Z</time>
      </trkpt>
      <trkpt lat="43.9499" lon="1.8316">
        <ele>963.20001220703</ele>
        <time>2019-06-27T19:08:32.000Z</time>
      </trkpt>
      <trkpt lat="43.94987" lon="1.83163">
        <ele>963</ele>
        <time>2019-06-27T19:08:33.000Z</time>
      </trkpt>
      <trkpt lat="43.94984" lon="1.83166">
        <ele>963</ele>
        <time>2019-06-27T19:08:34.000Z</time>
      </trkpt>
      <trkpt lat="43.9498" lon="1.83169">
        <ele>963</ele>
        <time>2019-06-27T19:08:35.000Z</time>
      </trkpt>
      <trkpt lat="43.94977" lon="1.83172">
        <ele>962.59997558594</ele>
        <time>2019-06-27T19:08:36.000Z</time>
      </trkpt>
      <trkpt lat="43.94973" lon="1.83176">
        <ele>962.40002441406</ele>
        <time>2019-06-27T19:08:37.000Z</time>
      </trkpt>
      <trkpt lat="43.94969" lon="1.8318">
        <ele>962.20001220703</ele>
        <time>2019-06-27T19:08:38.000Z</time>
      </trkpt>
      <trkpt lat="43.94965" lon="1.83184">
        <ele>962.40002441406</ele>
        <time>2019-06-27T19:08:39.000Z</time>
      </trkpt>
      <trkpt lat="43.94961" lon="1.8319">
        <ele>962</ele>
        <time>2019-06-27T19:08:40.000Z</time>
      </trkpt>
      <trkpt lat="43.94958" lon="1.83194">
        <ele>961.40002441406</ele>
        <time>2019-06-27T19:08:41.000Z</time>
      </trkpt>
      <trkpt lat="43.94954" lon="1.83198">
        <ele>961.20001220703</ele>
        <time>2019-06-27T19:08:42.000Z</time>
      </trkpt>
      <trkpt lat="43.94951" lon="1.83201">
        <ele>960.40002441406</ele>
        <time>2019-06-27T19:08:43.000Z</time>
      </trkpt>
      <trkpt lat="43.94949" lon="1.83203">
        <ele>960</ele>
        <time>2019-06-27T19:08:44.000Z</time>
      </trkpt>
      <trkpt lat="43.94947" lon="1.83206">
        <ele>959.40002441406</ele>
        <time>2019-06-27T19:08:45.000Z</time>
      </trkpt>
      <trkpt lat="43.94944" lon="1.83207">
        <ele>959</ele>
        <time>2019-06-27T19:08:46.000Z</time>
      </trkpt>
      <trkpt lat="43.94941" lon="1.83209">
        <ele>958.79998779297</ele>
        <time>2019-06-27T19:08:47.000Z</time>
      </trkpt>
      <trkpt lat="43.94938" lon="1.83211">
        <ele>958.59997558594</ele>
        <time>2019-06-27T19:08:48.000Z</time>
      </trkpt>
      <trkpt lat="43.94934" lon="1.83212">
        <ele>958.40002441406</ele>
        <time>2019-06-27T19:08:49.000Z</time>
      </trkpt>
      <trkpt lat="43.9493" lon="1.83213">
        <ele>957.79998779297</ele>
        <time>2019-06-27T19:08:50.000Z</time>
      </trkpt>
      <trkpt lat="43.94924" lon="1.83213">
        <ele>957.20001220703</ele>
        <time>2019-06-27T19:08:51.000Z</time>
      </trkpt>
      <trkpt lat="43.94918" lon="1.83213">
        <ele>956.20001220703</ele>
        <time>2019-06-27T19:08:52.000Z</time>
      </trkpt>
      <trkpt lat="43.94911" lon="1.83214">
        <ele>955.20001220703</ele>
        <time>2019-06-27T19:08:53.000Z</time>
      </trkpt>
      <trkpt lat="43.94903" lon="1.83215">
        <ele>954</ele>
        <time>2019-06-27T19:08:54.000Z</time>
      </trkpt>
      <trkpt lat="43.94897" lon="1.83218">
        <ele>952.20001220703</ele>
        <time>2019-06-27T19:08:55.000Z</time>
      </trkpt>
      <trkpt lat="43.94891" lon="1.83224">
        <ele>951</ele>
        <time>2019-06-27T19:08:56.000Z</time>
      </trkpt>
      <trkpt lat="43.94884" lon="1.83232">
        <ele>950</ele>
        <time>2019-06-27T19:08:57.000Z</time>
      </trkpt>
      <trkpt lat="43.94878" lon="1.8324">
        <ele>949.59997558594</ele>
        <time>2019-06-27T19:08:58.000Z</time>
      </trkpt>
      <trkpt lat="43.94871" lon="1.83248">
        <ele>949.40002441406</ele>
        <time>2019-06-27T19:08:59.000Z</time>
      </trkpt>
      <trkpt lat="43.94865" lon="1.83256">
        <ele>948.59997558594</ele>
        <time>2019-06-27T19:09:00.000Z</time>
      </trkpt>
      <trkpt lat="43.94858" lon="1.83266">
        <ele>948.20001220703</ele>
        <time>2019-06-27T19:09:01.000Z</time>
      </trkpt>
      <trkpt lat="43.94851" lon="1.83276">
        <ele>947.40002441406</ele>
        <time>2019-06-27T19:09:02.000Z</time>
      </trkpt>
      <trkpt lat="43.94844" lon="1.83286">
        <ele>946.79998779297</ele>
        <time>2019-06-27T19:09:03.000Z</time>
      </trkpt>
      <trkpt lat="43.94838" lon="1.83297">
        <ele>945.79998779297</ele>
        <time>2019-06-27T19:09:04.000Z</time>
      </trkpt>
      <trkpt lat="43.94831" lon="1.83308">
        <ele>943.20001220703</ele>
        <time>2019-06-27T19:09:05.000Z</time>
      </trkpt>
      <trkpt lat="43.94824" lon="1.83319">
        <ele>942.79998779297</ele>
        <time>2019-06-27T19:09:06.000Z</time>
      </trkpt>
      <trkpt lat="43.94817" lon="1.83331">
        <ele>941.59997558594</ele>
        <time>2019-06-27T19:09:07.000Z</time>
      </trkpt>
      <trkpt lat="43.9481" lon="1.83342">
        <ele>942</ele>
        <time>2019-06-27T19:09:08.000Z</time>
      </trkpt>
      <trkpt lat="43.94803" lon="1.83352">
        <ele>941</ele>
        <time>2019-06-27T19:09:09.000Z</time>
      </trkpt>
      <trkpt lat="43.94796" lon="1.83363">
        <ele>941.40002441406</ele>
        <time>2019-06-27T19:09:10.000Z</time>
      </trkpt>
      <trkpt lat="43.94789" lon="1.83372">
        <ele>939.59997558594</ele>
        <time>2019-06-27T19:09:11.000Z</time>
      </trkpt>
      <trkpt lat="43.94781" lon="1.83381">
        <ele>939.20001220703</ele>
        <time>2019-06-27T19:09:12.000Z</time>
      </trkpt>
      <trkpt lat="43.94772" lon="1.83389">
        <ele>937.59997558594</ele>
        <time>2019-06-27T19:09:13.000Z</time>
      </trkpt>
      <trkpt lat="43.94764" lon="1.83396">
        <ele>937.59997558594</ele>
        <time>2019-06-27T19:09:14.000Z</time>
      </trkpt>
      <trkpt lat="43.94755" lon="1.83402">
        <ele>937</ele>
        <time>2019-06-27T19:09:15.000Z</time>
      </trkpt>
      <trkpt lat="43.94747" lon="1.83407">
        <ele>937.40002441406</ele>
        <time>2019-06-27T19:09:16.000Z</time>
      </trkpt>
      <trkpt lat="43.94738" lon="1.83412">
        <ele>936.59997558594</ele>
        <time>2019-06-27T19:09:17.000Z</time>
      </trkpt>
      <trkpt lat="43.9473" lon="1.83417">
        <ele>936.20001220703</ele>
        <time>2019-06-27T19:09:18.000Z</time>
      </trkpt>
      <trkpt lat="43.94721" lon="1.83422">
        <ele>935.40002441406</ele>
        <time>2019-06-27T19:09:19.000Z</time>
      </trkpt>
      <trkpt lat="43.94713" lon="1.83427">
        <ele>935.40002441406</ele>
        <time>2019-06-27T19:09:20.000Z</time>
      </trkpt>
      <trkpt lat="43.94704" lon="1.83432">
        <ele>935</ele>
        <time>2019-06-27T19:09:21.000Z</time>
      </trkpt>
      <trkpt lat="43.94696" lon="1.83437">
        <ele>934.79998779297</ele>
        <time>2019-06-27T19:09:22.000Z</time>
      </trkpt>
      <trkpt lat="43.94688" lon="1.83441">
        <ele>934.40002441406</ele>
        <time>2019-06-27T19:09:23.000Z</time>
      </trkpt>
      <trkpt lat="43.94679" lon="1.83446">
        <ele>934.20001220703</ele>
        <time>2019-06-27T19:09:24.000Z</time>
      </trkpt>
      <trkpt lat="43.94671" lon="1.83449">
        <ele>933.59997558594</ele>
        <time>2019-06-27T19:09:25.000Z</time>
      </trkpt>
      <trkpt lat="43.94663" lon="1.83452">
        <ele>933</ele>
        <time>2019-06-27T19:09:26.000Z</time>
      </trkpt>
      <trkpt lat="43.94655" lon="1.83454">
        <ele>932.59997558594</ele>
        <time>2019-06-27T19:09:27.000Z</time>
      </trkpt>
      <trkpt lat="43.94647" lon="1.83455">
        <ele>931.79998779297</ele>
        <time>2019-06-27T19:09:28.000Z</time>
      </trkpt>
      <trkpt lat="43.9464" lon="1.83458">
        <ele>930.40002441406</ele>
        <time>2019-06-27T19:09:29.000Z</time>
      </trkpt>
      <trkpt lat="43.94633" lon="1.83461">
        <ele>929.40002441406</ele>
        <time>2019-06-27T19:09:30.000Z</time>
      </trkpt>
      <trkpt lat="43.94627" lon="1.83465">
        <ele>928.79998779297</ele>
        <time>2019-06-27T19:09:31.000Z</time>
      </trkpt>
      <trkpt lat="43.94621" lon="1.8347">
        <ele>928.40002441406</ele>
        <time>2019-06-27T19:09:32.000Z</time>
      </trkpt>
      <trkpt lat="43.94616" lon="1.83474">
        <ele>928.20001220703</ele>
        <time>2019-06-27T19:09:33.000Z</time>
      </trkpt>
      <trkpt lat="43.94611" lon="1.8348">
        <ele>927.59997558594</ele>
        <time>2019-06-27T19:09:34.000Z</time>
      </trkpt>
      <trkpt lat="43.94606" lon="1.83485">
        <ele>927.40002441406</ele>
        <time>2019-06-27T19:09:35.000Z</time>
      </trkpt>
      <trkpt lat="43.94601" lon="1.8349">
        <ele>927.20001220703</ele>
        <time>2019-06-27T19:09:36.000Z</time>
      </trkpt>
      <trkpt lat="43.94595" lon="1.83495">
        <ele>926.79998779297</ele>
        <time>2019-06-27T19:09:37.000Z</time>
      </trkpt>
      <trkpt lat="43.9459" lon="1.835">
        <ele>926.40002441406</ele>
        <time>2019-06-27T19:09:38.000Z</time>
      </trkpt>
      <trkpt lat="43.94584" lon="1.83506">
        <ele>926.20001220703</ele>
        <time>2019-06-27T19:09:39.000Z</time>
      </trkpt>
      <trkpt lat="43.94579" lon="1.83511">
        <ele>926</ele>
        <time>2019-06-27T19:09:40.000Z</time>
      </trkpt>
      <trkpt lat="43.94574" lon="1.83516">
        <ele>925.79998779297</ele>
        <time>2019-06-27T19:09:41.000Z</time>
      </trkpt>
      <trkpt lat="43.94569" lon="1.83521">
        <ele>925.40002441406</ele>
        <time>2019-06-27T19:09:42.000Z</time>
      </trkpt>
      <trkpt lat="43.94564" lon="1.83525">
        <ele>925.40002441406</ele>
        <time>2019-06-27T19:09:43.000Z</time>
      </trkpt>
      <trkpt lat="43.9456" lon="1.8353">
        <ele>925.40002441406</ele>
        <time>2019-06-27T19:09:44.000Z</time>
      </trkpt>
      <trkpt lat="43.94555" lon="1.83534">
        <ele>924.79998779297</ele>
        <time>2019-06-27T19:09:45.000Z</time>
      </trkpt>
      <trkpt lat="43.9455" lon="1.83538">
        <ele>924.79998779297</ele>
        <time>2019-06-27T19:09:46.000Z</time>
      </trkpt>
      <trkpt lat="43.94545" lon="1.83542">
        <ele>924.59997558594</ele>
        <time>2019-06-27T19:09:47.000Z</time>
      </trkpt>
      <trkpt lat="43.9454" lon="1.83546">
        <ele>924.59997558594</ele>
        <time>2019-06-27T19:09:48.000Z</time>
      </trkpt>
      <trkpt lat="43.94536" lon="1.83551">
        <ele>924.59997558594</ele>
        <time>2019-06-27T19:09:49.000Z</time>
      </trkpt>
      <trkpt lat="43.94531" lon="1.83555">
        <ele>924.40002441406</ele>
        <time>2019-06-27T19:09:50.000Z</time>
      </trkpt>
      <trkpt lat="43.94527" lon="1.83559">
        <ele>924</ele>
        <time>2019-06-27T19:09:51.000Z</time>
      </trkpt>
      <trkpt lat="43.94523" lon="1.83563">
        <ele>923.59997558594</ele>
        <time>2019-06-27T19:09:52.000Z</time>
      </trkpt>
      <trkpt lat="43.9452" lon="1.83566">
        <ele>922.79998779297</ele>
        <time>2019-06-27T19:09:53.000Z</time>
      </trkpt>
      <trkpt lat="43.94517" lon="1.83569">
        <ele>922.59997558594</ele>
        <time>2019-06-27T19:09:54.000Z</time>
      </trkpt>
      <trkpt lat="43.94514" lon="1.83572">
        <ele>922.40002441406</ele>
        <time>2019-06-27T19:09:55.000Z</time>
      </trkpt>
      <trkpt lat="43.94511" lon="1.83575">
        <ele>922.40002441406</ele>
        <time>2019-06-27T19:09:56.000Z</time>
      </trkpt>
      <trkpt lat="43.94509" lon="1.83578">
        <ele>922.20001220703</ele>
        <time>2019-06-27T19:09:57.000Z</time>
      </trkpt>
      <trkpt lat="43.94506" lon="1.83581">
        <ele>922</ele>
        <time>2019-06-27T19:09:58.000Z</time>
      </trkpt>
      <trkpt lat="43.94503" lon="1.83585">
        <ele>921.79998779297</ele>
        <time>2019-06-27T19:09:59.000Z</time>
      </trkpt>
      <trkpt lat="43.945" lon="1.83588">
        <ele>921.79998779297</ele>
        <time>2019-06-27T19:10:00.000Z</time>
      </trkpt>
      <trkpt lat="43.94496" lon="1.83592">
        <ele>921.59997558594</ele>
        <time>2019-06-27T19:10:01.000Z</time>
      </trkpt>
      <trkpt lat="43.94493" lon="1.83595">
        <ele>921.40002441406</ele>
        <time>2019-06-27T19:10:02.000Z</time>
      </trkpt>
      <trkpt lat="43.9449" lon="1.83599">
        <ele>921.20001220703</ele>
        <time>2019-06-27T19:10:03.000Z</time>
      </trkpt>
      <trkpt lat="43.94487" lon="1.83602">
        <ele>921.20001220703</ele>
        <time>2019-06-27T19:10:04.000Z</time>
      </trkpt>
      <trkpt lat="43.94484" lon="1.83606">
        <ele>921</ele>
        <time>2019-06-27T19:10:05.000Z</time>
      </trkpt>
      <trkpt lat="43.94481" lon="1.8361">
        <ele>920.79998779297</ele>
        <time>2019-06-27T19:10:06.000Z</time>
      </trkpt>
      <trkpt lat="43.94478" lon="1.83613">
        <ele>920.59997558594</ele>
        <time>2019-06-27T19:10:07.000Z</time>
      </trkpt>
      <trkpt lat="43.94474" lon="1.83616">
        <ele>920.79998779297</ele>
        <time>2019-06-27T19:10:08.000Z</time>
      </trkpt>
      <trkpt lat="43.94471" lon="1.83619">
        <ele>920.79998779297</ele>
        <time>2019-06-27T19:10:09.000Z</time>
      </trkpt>
      <trkpt lat="43.94467" lon="1.83622">
        <ele>920.59997558594</ele>
        <time>2019-06-27T19:10:10.000Z</time>
      </trkpt>
      <trkpt lat="43.94463" lon="1.83625">
        <ele>920.40002441406</ele>
        <time>2019-06-27T19:10:11.000Z</time>
      </trkpt>
      <trkpt lat="43.94459" lon="1.83628">
        <ele>920.40002441406</ele>
        <time>2019-06-27T19:10:12.000Z</time>
      </trkpt>
      <trkpt lat="43.94454" lon="1.8363">
        <ele>920.20001220703</ele>
        <time>2019-06-27T19:10:13.000Z</time>
      </trkpt>
      <trkpt lat="43.94449" lon="1.83633">
        <ele>920</ele>
        <time>2019-06-27T19:10:14.000Z</time>
      </trkpt>
      <trkpt lat="43.94444" lon="1.83636">
        <ele>919.59997558594</ele>
        <time>2019-06-27T19:10:15.000Z</time>
      </trkpt>
      <trkpt lat="43.9444" lon="1.83639">
        <ele>919.40002441406</ele>
        <time>2019-06-27T19:10:16.000Z</time>
      </trkpt>
      <trkpt lat="43.94437" lon="1.83641">
        <ele>918.79998779297</ele>
        <time>2019-06-27T19:10:17.000Z</time>
      </trkpt>
      <trkpt lat="43.94434" lon="1.83643">
        <ele>918.59997558594</ele>
        <time>2019-06-27T19:10:18.000Z</time>
      </trkpt>
      <trkpt lat="43.94434" lon="1.83647">
        <ele>918.20001220703</ele>
        <time>2019-06-27T19:10:19.000Z</time>
      </trkpt>
      <trkpt lat="43.94435" lon="1.83651">
        <ele>918</ele>
        <time>2019-06-27T19:10:20.000Z</time>
      </trkpt>
      <trkpt lat="43.94437" lon="1.83654">
        <ele>918</ele>
        <time>2019-06-27T19:10:21.000Z</time>
      </trkpt>
      <trkpt lat="43.94438" lon="1.83659">
        <ele>918</ele>
        <time>2019-06-27T19:10:22.000Z</time>
      </trkpt>
      <trkpt lat="43.94439" lon="1.83663">
        <ele>918</ele>
        <time>2019-06-27T19:10:23.000Z</time>
      </trkpt>
      <trkpt lat="43.94441" lon="1.83668">
        <ele>918</ele>
        <time>2019-06-27T19:10:24.000Z</time>
      </trkpt>
      <trkpt lat="43.94442" lon="1.83673">
        <ele>918</ele>
        <time>2019-06-27T19:10:25.000Z</time>
      </trkpt>
      <trkpt lat="43.94444" lon="1.83678">
        <ele>918</ele>
        <time>2019-06-27T19:10:26.000Z</time>
      </trkpt>
      <trkpt lat="43.94445" lon="1.83683">
        <ele>917.79998779297</ele>
        <time>2019-06-27T19:10:27.000Z</time>
      </trkpt>
      <trkpt lat="43.94446" lon="1.8369">
        <ele>917.79998779297</ele>
        <time>2019-06-27T19:10:28.000Z</time>
      </trkpt>
      <trkpt lat="43.94448" lon="1.83696">
        <ele>917.59997558594</ele>
        <time>2019-06-27T19:10:29.000Z</time>
      </trkpt>
      <trkpt lat="43.9445" lon="1.83702">
        <ele>917.59997558594</ele>
        <time>2019-06-27T19:10:30.000Z</time>
      </trkpt>
      <trkpt lat="43.94451" lon="1.83709">
        <ele>917.40002441406</ele>
        <time>2019-06-27T19:10:31.000Z</time>
      </trkpt>
      <trkpt lat="43.94452" lon="1.83717">
        <ele>917.40002441406</ele>
        <time>2019-06-27T19:10:32.000Z</time>
      </trkpt>
      <trkpt lat="43.94454" lon="1.83725">
        <ele>917.20001220703</ele>
        <time>2019-06-27T19:10:33.000Z</time>
      </trkpt>
      <trkpt lat="43.94456" lon="1.83733">
        <ele>916.79998779297</ele>
        <time>2019-06-27T19:10:34.000Z</time>
      </trkpt>
      <trkpt lat="43.94457" lon="1.83742">
        <ele>916.59997558594</ele>
        <time>2019-06-27T19:10:35.000Z</time>
      </trkpt>
      <trkpt lat="43.94459" lon="1.83751">
        <ele>916.40002441406</ele>
        <time>2019-06-27T19:10:36.000Z</time>
      </trkpt>
      <trkpt lat="43.94461" lon="1.83761">
        <ele>916.20001220703</ele>
        <time>2019-06-27T19:10:37.000Z</time>
      </trkpt>
      <trkpt lat="43.94463" lon="1.83771">
        <ele>916</ele>
        <time>2019-06-27T19:10:38.000Z</time>
      </trkpt>
      <trkpt lat="43.94465" lon="1.83781">
        <ele>915.59997558594</ele>
        <time>2019-06-27T19:10:39.000Z</time>
      </trkpt>
      <trkpt lat="43.94467" lon="1.83791">
        <ele>915</ele>
        <time>2019-06-27T19:10:40.000Z</time>
      </trkpt>
      <trkpt lat="43.94469" lon="1.83802">
        <ele>914.40002441406</ele>
        <time>2019-06-27T19:10:41.000Z</time>
      </trkpt>
      <trkpt lat="43.9447" lon="1.83811">
        <ele>914.20001220703</ele>
        <time>2019-06-27T19:10:42.000Z</time>
      </trkpt>
      <trkpt lat="43.94472" lon="1.8382">
        <ele>913.79998779297</ele>
        <time>2019-06-27T19:10:43.000Z</time>
      </trkpt>
      <trkpt lat="43.94474" lon="1.83829">
        <ele>913.40002441406</ele>
        <time>2019-06-27T19:10:44.000Z</time>
      </trkpt>
      <trkpt lat="43.94476" lon="1.83838">
        <ele>913.20001220703</ele>
        <time>2019-06-27T19:10:45.000Z</time>
      </trkpt>
      <trkpt lat="43.94477" lon="1.83845">
        <ele>913</ele>
        <time>2019-06-27T19:10:46.000Z</time>
      </trkpt>
      <trkpt lat="43.94479" lon="1.83853">
        <ele>913</ele>
        <time>2019-06-27T19:10:47.000Z</time>
      </trkpt>
      <trkpt lat="43.9448" lon="1.83859">
        <ele>912.79998779297</ele>
        <time>2019-06-27T19:10:48.000Z</time>
      </trkpt>
      <trkpt lat="43.9448" lon="1.83864">
        <ele>912.40002441406</ele>
        <time>2019-06-27T19:10:49.000Z</time>
      </trkpt>
      <trkpt lat="43.94478" lon="1.83868">
        <ele>912.20001220703</ele>
        <time>2019-06-27T19:10:50.000Z</time>
      </trkpt>
      <trkpt lat="43.94475" lon="1.83871">
        <ele>912</ele>
        <time>2019-06-27T19:10:51.000Z</time>
      </trkpt>
      <trkpt lat="43.94472" lon="1.83875">
        <ele>912</ele>
        <time>2019-06-27T19:10:52.000Z</time>
      </trkpt>
      <trkpt lat="43.94469" lon="1.83879">
        <ele>911.59997558594</ele>
        <time>2019-06-27T19:10:53.000Z</time>
      </trkpt>
      <trkpt lat="43.94465" lon="1.83883">
        <ele>911.20001220703</ele>
        <time>2019-06-27T19:10:54.000Z</time>
      </trkpt>
      <trkpt lat="43.94461" lon="1.83886">
        <ele>910.79998779297</ele>
        <time>2019-06-27T19:10:55.000Z</time>
      </trkpt>
      <trkpt lat="43.94457" lon="1.83889">
        <ele>910.40002441406</ele>
        <time>2019-06-27T19:10:56.000Z</time>
      </trkpt>
      <trkpt lat="43.94453" lon="1.83892">
        <ele>910.20001220703</ele>
        <time>2019-06-27T19:10:57.000Z</time>
      </trkpt>
      <trkpt lat="43.9445" lon="1.83895">
        <ele>909.79998779297</ele>
        <time>2019-06-27T19:10:58.000Z</time>
      </trkpt>
      <trkpt lat="43.94445" lon="1.83898">
        <ele>909.20001220703</ele>
        <time>2019-06-27T19:10:59.000Z</time>
      </trkpt>
      <trkpt lat="43.94441" lon="1.83901">
        <ele>908.79998779297</ele>
        <time>2019-06-27T19:11:00.000Z</time>
      </trkpt>
      <trkpt lat="43.94437" lon="1.83904">
        <ele>908.79998779297</ele>
        <time>2019-06-27T19:11:01.000Z</time>
      </trkpt>
      <trkpt lat="43.94432" lon="1.83907">
        <ele>908.59997558594</ele>
        <time>2019-06-27T19:11:02.000Z</time>
      </trkpt>
      <trkpt lat="43.94428" lon="1.83909">
        <ele>908.40002441406</ele>
        <time>2019-06-27T19:11:03.000Z</time>
      </trkpt>
      <trkpt lat="43.94424" lon="1.83912">
        <ele>907.79998779297</ele>
        <time>2019-06-27T19:11:04.000Z</time>
      </trkpt>
      <trkpt lat="43.94419" lon="1.83915">
        <ele>907.40002441406</ele>
        <time>2019-06-27T19:11:05.000Z</time>
      </trkpt>
      <trkpt lat="43.94415" lon="1.83918">
        <ele>907.20001220703</ele>
        <time>2019-06-27T19:11:06.000Z</time>
      </trkpt>
      <trkpt lat="43.94411" lon="1.8392">
        <ele>906.79998779297</ele>
        <time>2019-06-27T19:11:07.000Z</time>
      </trkpt>
      <trkpt lat="43.94406" lon="1.83923">
        <ele>906.59997558594</ele>
        <time>2019-06-27T19:11:08.000Z</time>
      </trkpt>
      <trkpt lat="43.94402" lon="1.83926">
        <ele>906.40002441406</ele>
        <time>2019-06-27T19:11:09.000Z</time>
      </trkpt>
      <trkpt lat="43.94398" lon="1.83928">
        <ele>906.40002441406</ele>
        <time>2019-06-27T19:11:10.000Z</time>
      </trkpt>
      <trkpt lat="43.94394" lon="1.8393">
        <ele>906.20001220703</ele>
        <time>2019-06-27T19:11:11.000Z</time>
      </trkpt>
      <trkpt lat="43.9439" lon="1.83934">
        <ele>906.20001220703</ele>
        <time>2019-06-27T19:11:12.000Z</time>
      </trkpt>
      <trkpt lat="43.94387" lon="1.83936">
        <ele>906.20001220703</ele>
        <time>2019-06-27T19:11:13.000Z</time>
      </trkpt>
      <trkpt lat="43.94383" lon="1.83938">
        <ele>906.40002441406</ele>
        <time>2019-06-27T19:11:14.000Z</time>
      </trkpt>
      <trkpt lat="43.9438" lon="1.8394">
        <ele>906.40002441406</ele>
        <time>2019-06-27T19:11:15.000Z</time>
      </trkpt>
      <trkpt lat="43.94376" lon="1.83942">
        <ele>906.40002441406</ele>
        <time>2019-06-27T19:11:16.000Z</time>
      </trkpt>
      <trkpt lat="43.94372" lon="1.83943">
        <ele>906.20001220703</ele>
        <time>2019-06-27T19:11:17.000Z</time>
      </trkpt>
      <trkpt lat="43.94367" lon="1.83944">
        <ele>906.20001220703</ele>
        <time>2019-06-27T19:11:18.000Z</time>
      </trkpt>
      <trkpt lat="43.94363" lon="1.83946">
        <ele>906.40002441406</ele>
        <time>2019-06-27T19:11:19.000Z</time>
      </trkpt>
      <trkpt lat="43.94359" lon="1.83948">
        <ele>906.20001220703</ele>
        <time>2019-06-27T19:11:20.000Z</time>
      </trkpt>
      <trkpt lat="43.94355" lon="1.83951">
        <ele>905.79998779297</ele>
        <time>2019-06-27T19:11:21.000Z</time>
      </trkpt>
      <trkpt lat="43.94351" lon="1.83952">
        <ele>905.79998779297</ele>
        <time>2019-06-27T19:11:22.000Z</time>
      </trkpt>
      <trkpt lat="43.94347" lon="1.83954">
        <ele>905.59997558594</ele>
        <time>2019-06-27T19:11:23.000Z</time>
      </trkpt>
      <trkpt lat="43.94343" lon="1.83956">
        <ele>905.59997558594</ele>
        <time>2019-06-27T19:11:24.000Z</time>
      </trkpt>
      <trkpt lat="43.94338" lon="1.83957">
        <ele>905.59997558594</ele>
        <time>2019-06-27T19:11:25.000Z</time>
      </trkpt>
      <trkpt lat="43.94334" lon="1.83959">
        <ele>905.79998779297</ele>
        <time>2019-06-27T19:11:26.000Z</time>
      </trkpt>
      <trkpt lat="43.9433" lon="1.83961">
        <ele>905.79998779297</ele>
        <time>2019-06-27T19:11:27.000Z</time>
      </trkpt>
      <trkpt lat="43.94326" lon="1.83963">
        <ele>905.59997558594</ele>
        <time>2019-06-27T19:11:28.000Z</time>
      </trkpt>
      <trkpt lat="43.94322" lon="1.83965">
        <ele>905.59997558594</ele>
        <time>2019-06-27T19:11:29.000Z</time>
      </trkpt>
      <trkpt lat="43.94318" lon="1.83969">
        <ele>905.59997558594</ele>
        <time>2019-06-27T19:11:30.000Z</time>
      </trkpt>
      <trkpt lat="43.94316" lon="1.83973">
        <ele>905.59997558594</ele>
        <time>2019-06-27T19:11:31.000Z</time>
      </trkpt>
      <trkpt lat="43.94314" lon="1.83979">
        <ele>905.79998779297</ele>
        <time>2019-06-27T19:11:32.000Z</time>
      </trkpt>
      <trkpt lat="43.94313" lon="1.83984">
        <ele>905.59997558594</ele>
        <time>2019-06-27T19:11:33.000Z</time>
      </trkpt>
      <trkpt lat="43.94312" lon="1.8399">
        <ele>905.59997558594</ele>
        <time>2019-06-27T19:11:34.000Z</time>
      </trkpt>
      <trkpt lat="43.94312" lon="1.83995">
        <ele>905.40002441406</ele>
        <time>2019-06-27T19:11:35.000Z</time>
      </trkpt>
      <trkpt lat="43.94311" lon="1.84">
        <ele>905.79998779297</ele>
        <time>2019-06-27T19:11:36.000Z</time>
      </trkpt>
      <trkpt lat="43.94311" lon="1.84005">
        <ele>905.79998779297</ele>
        <time>2019-06-27T19:11:37.000Z</time>
      </trkpt>
      <trkpt lat="43.9431" lon="1.8401">
        <ele>906</ele>
        <time>2019-06-27T19:11:38.000Z</time>
      </trkpt>
      <trkpt lat="43.9431" lon="1.84015">
        <ele>906</ele>
        <time>2019-06-27T19:11:39.000Z</time>
      </trkpt>
      <trkpt lat="43.94309" lon="1.8402">
        <ele>906</ele>
        <time>2019-06-27T19:11:40.000Z</time>
      </trkpt>
      <trkpt lat="43.94308" lon="1.84025">
        <ele>906</ele>
        <time>2019-06-27T19:11:41.000Z</time>
      </trkpt>
      <trkpt lat="43.94308" lon="1.8403">
        <ele>906</ele>
        <time>2019-06-27T19:11:42.000Z</time>
      </trkpt>
      <trkpt lat="43.94307" lon="1.84035">
        <ele>906.20001220703</ele>
        <time>2019-06-27T19:11:43.000Z</time>
      </trkpt>
      <trkpt lat="43.94306" lon="1.8404">
        <ele>906.20001220703</ele>
        <time>2019-06-27T19:11:44.000Z</time>
      </trkpt>
      <trkpt lat="43.94305" lon="1.84044">
        <ele>906.20001220703</ele>
        <time>2019-06-27T19:11:45.000Z</time>
      </trkpt>
      <trkpt lat="43.94304" lon="1.84049">
        <ele>906.20001220703</ele>
        <time>2019-06-27T19:11:46.000Z</time>
      </trkpt>
      <trkpt lat="43.94303" lon="1.84054">
        <ele>906.20001220703</ele>
        <time>2019-06-27T19:11:47.000Z</time>
      </trkpt>
      <trkpt lat="43.94301" lon="1.84058">
        <ele>906.59997558594</ele>
        <time>2019-06-27T19:11:48.000Z</time>
      </trkpt>
      <trkpt lat="43.943" lon="1.84063">
        <ele>906.59997558594</ele>
        <time>2019-06-27T19:11:49.000Z</time>
      </trkpt>
      <trkpt lat="43.94298" lon="1.84067">
        <ele>906.79998779297</ele>
        <time>2019-06-27T19:11:50.000Z</time>
      </trkpt>
      <trkpt lat="43.94296" lon="1.84072">
        <ele>906.79998779297</ele>
        <time>2019-06-27T19:11:51.000Z</time>
      </trkpt>
      <trkpt lat="43.94294" lon="1.84076">
        <ele>907</ele>
        <time>2019-06-27T19:11:52.000Z</time>
      </trkpt>
      <trkpt lat="43.94293" lon="1.8408">
        <ele>907.20001220703</ele>
        <time>2019-06-27T19:11:53.000Z</time>
      </trkpt>
      <trkpt lat="43.94292" lon="1.84084">
        <ele>907.20001220703</ele>
        <time>2019-06-27T19:11:54.000Z</time>
      </trkpt>
      <trkpt lat="43.9429" lon="1.84088">
        <ele>907.40002441406</ele>
        <time>2019-06-27T19:11:55.000Z</time>
      </trkpt>
      <trkpt lat="43.94288" lon="1.84092">
        <ele>907.59997558594</ele>
        <time>2019-06-27T19:11:56.000Z</time>
      </trkpt>
      <trkpt lat="43.94287" lon="1.84095">
        <ele>907.59997558594</ele>
        <time>2019-06-27T19:11:57.000Z</time>
      </trkpt>
      <trkpt lat="43.94285" lon="1.84098">
        <ele>907.79998779297</ele>
        <time>2019-06-27T19:11:58.000Z</time>
      </trkpt>
      <trkpt lat="43.94285" lon="1.84101">
        <ele>907.79998779297</ele>
        <time>2019-06-27T19:11:59.000Z</time>
      </trkpt>
      <trkpt lat="43.94284" lon="1.84103">
        <ele>907.79998779297</ele>
        <time>2019-06-27T19:12:00.000Z</time>
      </trkpt>
      <trkpt lat="43.94284" lon="1.84105">
        <ele>908</ele>
        <time>2019-06-27T19:12:01.000Z</time>
      </trkpt>
      <trkpt lat="43.94283" lon="1.84108">
        <ele>908</ele>
        <time>2019-06-27T19:12:02.000Z</time>
      </trkpt>
      <trkpt lat="43.94283" lon="1.84111">
        <ele>908.20001220703</ele>
        <time>2019-06-27T19:12:03.000Z</time>
      </trkpt>
      <trkpt lat="43.94282" lon="1.84114">
        <ele>908</ele>
        <time>2019-06-27T19:12:04.000Z</time>
      </trkpt>
      <trkpt lat="43.94282" lon="1.84117">
        <ele>908.20001220703</ele>
        <time>2019-06-27T19:12:05.000Z</time>
      </trkpt>
      <trkpt lat="43.94281" lon="1.8412">
        <ele>908.20001220703</ele>
        <time>2019-06-27T19:12:06.000Z</time>
      </trkpt>
      <trkpt lat="43.94281" lon="1.84122">
        <ele>908.20001220703</ele>
        <time>2019-06-27T19:12:07.000Z</time>
      </trkpt>
      <trkpt lat="43.94281" lon="1.84125">
        <ele>908.20001220703</ele>
        <time>2019-06-27T19:12:08.000Z</time>
      </trkpt>
      <trkpt lat="43.94281" lon="1.84127">
        <ele>908.20001220703</ele>
        <time>2019-06-27T19:12:09.000Z</time>
      </trkpt>
      <trkpt lat="43.94281" lon="1.84129">
        <ele>908.20001220703</ele>
        <time>2019-06-27T19:12:10.000Z</time>
      </trkpt>
      <trkpt lat="43.94281" lon="1.84131">
        <ele>908.20001220703</ele>
        <time>2019-06-27T19:12:11.000Z</time>
      </trkpt>
      <trkpt lat="43.9428" lon="1.84133">
        <ele>908.20001220703</ele>
        <time>2019-06-27T19:12:12.000Z</time>
      </trkpt>
      <trkpt lat="43.9428" lon="1.84135">
        <ele>908.20001220703</ele>
        <time>2019-06-27T19:12:13.000Z</time>
      </trkpt>
      <trkpt lat="43.94279" lon="1.84137">
        <ele>908.20001220703</ele>
        <time>2019-06-27T19:12:14.000Z</time>
      </trkpt>
      <trkpt lat="43.94279" lon="1.84139">
        <ele>908.20001220703</ele>
        <time>2019-06-27T19:12:15.000Z</time>
      </trkpt>
      <trkpt lat="43.94279" lon="1.84142">
        <ele>908.20001220703</ele>
        <time>2019-06-27T19:12:16.000Z</time>
      </trkpt>
      <trkpt lat="43.94279" lon="1.84144">
        <ele>908.20001220703</ele>
        <time>2019-06-27T19:12:17.000Z</time>
      </trkpt>
      <trkpt lat="43.94279" lon="1.84145">
        <ele>908.20001220703</ele>
        <time>2019-06-27T19:12:18.000Z</time>
      </trkpt>
      <trkpt lat="43.94278" lon="1.84146">
        <ele>908.20001220703</ele>
        <time>2019-06-27T19:12:19.000Z</time>
      </trkpt>
      <trkpt lat="43.94278" lon="1.84147">
        <ele>908</ele>
        <time>2019-06-27T19:12:20.000Z</time>
      </trkpt>
      <trkpt lat="43.94278" lon="1.84147">
        <ele>908</ele>
        <time>2019-06-27T19:12:21.000Z</time>
      </trkpt>
      <trkpt lat="43.94278" lon="1.84148">
        <ele>908</ele>
        <time>2019-06-27T19:12:22.000Z</time>
      </trkpt>
      <trkpt lat="43.94278" lon="1.84148">
        <ele>908.20001220703</ele>
        <time>2019-06-27T19:12:23.000Z</time>
      </trkpt>
      <trkpt lat="43.94278" lon="1.84149">
        <ele>908.20001220703</ele>
        <time>2019-06-27T19:12:24.000Z</time>
      </trkpt>
      <trkpt lat="43.94277" lon="1.8415">
        <ele>908</ele>
        <time>2019-06-27T19:12:25.000Z</time>
      </trkpt>
      <trkpt lat="43.94277" lon="1.84152">
        <ele>908</ele>
        <time>2019-06-27T19:12:26.000Z</time>
      </trkpt>
      <trkpt lat="43.94277" lon="1.84153">
        <ele>908</ele>
        <time>2019-06-27T19:12:27.000Z</time>
      </trkpt>
      <trkpt lat="43.94277" lon="1.84155">
        <ele>908</ele>
        <time>2019-06-27T19:12:28.000Z</time>
      </trkpt>
      <trkpt lat="43.94277" lon="1.84156">
        <ele>908</ele>
        <time>2019-06-27T19:12:29.000Z</time>
      </trkpt>
      <trkpt lat="43.94278" lon="1.84157">
        <ele>908</ele>
        <time>2019-06-27T19:12:30.000Z</time>
      </trkpt>
      <trkpt lat="43.94278" lon="1.84158">
        <ele>908</ele>
        <time>2019-06-27T19:12:31.000Z</time>
      </trkpt>
      <trkpt lat="43.94278" lon="1.84159">
        <ele>908</ele>
        <time>2019-06-27T19:12:32.000Z</time>
      </trkpt>
      <trkpt lat="43.94278" lon="1.84159">
        <ele>908</ele>
        <time>2019-06-27T19:12:33.000Z</time>
      </trkpt>
      <trkpt lat="43.94278" lon="1.84159">
        <ele>908</ele>
        <time>2019-06-27T19:12:34.000Z</time>
      </trkpt>
      <trkpt lat="43.94278" lon="1.84159">
        <ele>908</ele>
        <time>2019-06-27T19:12:35.000Z</time>
      </trkpt>
      <trkpt lat="43.94277" lon="1.84161">
        <ele>908</ele>
        <time>2019-06-27T19:12:36.000Z</time>
      </trkpt>
      <trkpt lat="43.94277" lon="1.84162">
        <ele>908.20001220703</ele>
        <time>2019-06-27T19:12:37.000Z</time>
      </trkpt>
      <trkpt lat="43.94277" lon="1.84161">
        <ele>908.40002441406</ele>
        <time>2019-06-27T19:12:38.000Z</time>
      </trkpt>
      <trkpt lat="43.94276" lon="1.84165">
        <ele>908.40002441406</ele>
        <time>2019-06-27T19:12:39.000Z</time>
      </trkpt>
      <trkpt lat="43.94276" lon="1.84168">
        <ele>908.40002441406</ele>
        <time>2019-06-27T19:12:40.000Z</time>
      </trkpt>
      <trkpt lat="43.94276" lon="1.8417">
        <ele>908.40002441406</ele>
        <time>2019-06-27T19:12:41.000Z</time>
      </trkpt>
      <trkpt lat="43.94276" lon="1.84173">
        <ele>908.40002441406</ele>
        <time>2019-06-27T19:12:42.000Z</time>
      </trkpt>
      <trkpt lat="43.94276" lon="1.84176">
        <ele>908.40002441406</ele>
        <time>2019-06-27T19:12:43.000Z</time>
      </trkpt>
      <trkpt lat="43.94276" lon="1.84179">
        <ele>908.40002441406</ele>
        <time>2019-06-27T19:12:44.000Z</time>
      </trkpt>
      <trkpt lat="43.94276" lon="1.84182">
        <ele>908.40002441406</ele>
        <time>2019-06-27T19:12:45.000Z</time>
      </trkpt>
      <trkpt lat="43.94276" lon="1.84186">
        <ele>908.59997558594</ele>
        <time>2019-06-27T19:12:46.000Z</time>
      </trkpt>
      <trkpt lat="43.94274" lon="1.84189">
        <ele>908.79998779297</ele>
        <time>2019-06-27T19:12:47.000Z</time>
      </trkpt>
      <trkpt lat="43.94274" lon="1.84192">
        <ele>908.79998779297</ele>
        <time>2019-06-27T19:12:48.000Z</time>
      </trkpt>
      <trkpt lat="43.94273" lon="1.84194">
        <ele>908.59997558594</ele>
        <time>2019-06-27T19:12:49.000Z</time>
      </trkpt>
      <trkpt lat="43.94273" lon="1.84197">
        <ele>908.79998779297</ele>
        <time>2019-06-27T19:12:50.000Z</time>
      </trkpt>
      <trkpt lat="43.94273" lon="1.84199">
        <ele>908.79998779297</ele>
        <time>2019-06-27T19:12:51.000Z</time>
      </trkpt>
      <trkpt lat="43.94272" lon="1.84202">
        <ele>908.79998779297</ele>
        <time>2019-06-27T19:12:52.000Z</time>
      </trkpt>
      <trkpt lat="43.94272" lon="1.84205">
        <ele>908.79998779297</ele>
        <time>2019-06-27T19:12:53.000Z</time>
      </trkpt>
      <trkpt lat="43.94272" lon="1.84207">
        <ele>908.79998779297</ele>
        <time>2019-06-27T19:12:54.000Z</time>
      </trkpt>
      <trkpt lat="43.94272" lon="1.8421">
        <ele>908.79998779297</ele>
        <time>2019-06-27T19:12:55.000Z</time>
      </trkpt>
      <trkpt lat="43.94272" lon="1.84214">
        <ele>908.79998779297</ele>
        <time>2019-06-27T19:12:56.000Z</time>
      </trkpt>
      <trkpt lat="43.94272" lon="1.84217">
        <ele>908.79998779297</ele>
        <time>2019-06-27T19:12:57.000Z</time>
      </trkpt>
      <trkpt lat="43.94272" lon="1.8422">
        <ele>908.79998779297</ele>
        <time>2019-06-27T19:12:58.000Z</time>
      </trkpt>
      <trkpt lat="43.94273" lon="1.84224">
        <ele>909</ele>
        <time>2019-06-27T19:12:59.000Z</time>
      </trkpt>
      <trkpt lat="43.94273" lon="1.84227">
        <ele>909</ele>
        <time>2019-06-27T19:13:00.000Z</time>
      </trkpt>
      <trkpt lat="43.94274" lon="1.8423">
        <ele>909</ele>
        <time>2019-06-27T19:13:01.000Z</time>
      </trkpt>
      <trkpt lat="43.94274" lon="1.84234">
        <ele>909</ele>
        <time>2019-06-27T19:13:02.000Z</time>
      </trkpt>
      <trkpt lat="43.94274" lon="1.84238">
        <ele>909</ele>
        <time>2019-06-27T19:13:03.000Z</time>
      </trkpt>
      <trkpt lat="43.94274" lon="1.84241">
        <ele>909</ele>
        <time>2019-06-27T19:13:04.000Z</time>
      </trkpt>
      <trkpt lat="43.94274" lon="1.84245">
        <ele>908.79998779297</ele>
        <time>2019-06-27T19:13:05.000Z</time>
      </trkpt>
      <trkpt lat="43.94275" lon="1.84249">
        <ele>908.59997558594</ele>
        <time>2019-06-27T19:13:06.000Z</time>
      </trkpt>
      <trkpt lat="43.94275" lon="1.84253">
        <ele>908.59997558594</ele>
        <time>2019-06-27T19:13:07.000Z</time>
      </trkpt>
      <trkpt lat="43.94276" lon="1.84257">
        <ele>908.59997558594</ele>
        <time>2019-06-27T19:13:08.000Z</time>
      </trkpt>
      <trkpt lat="43.94276" lon="1.84261">
        <ele>908.40002441406</ele>
        <time>2019-06-27T19:13:09.000Z</time>
      </trkpt>
      <trkpt lat="43.94276" lon="1.84264">
        <ele>908.59997558594</ele>
        <time>2019-06-27T19:13:10.000Z</time>
      </trkpt>
      <trkpt lat="43.94276" lon="1.84267">
        <ele>908.79998779297</ele>
        <time>2019-06-27T19:13:11.000Z</time>
      </trkpt>
      <trkpt lat="43.94276" lon="1.84271">
        <ele>908.79998779297</ele>
        <time>2019-06-27T19:13:12.000Z</time>
      </trkpt>
      <trkpt lat="43.94276" lon="1.84274">
        <ele>909</ele>
        <time>2019-06-27T19:13:13.000Z</time>
      </trkpt>
      <trkpt lat="43.94276" lon="1.84277">
        <ele>909</ele>
        <time>2019-06-27T19:13:14.000Z</time>
      </trkpt>
      <trkpt lat="43.94277" lon="1.84281">
        <ele>909</ele>
        <time>2019-06-27T19:13:15.000Z</time>
      </trkpt>
      <trkpt lat="43.94277" lon="1.84285">
        <ele>909.20001220703</ele>
        <time>2019-06-27T19:13:16.000Z</time>
      </trkpt>
      <trkpt lat="43.94277" lon="1.84288">
        <ele>909.40002441406</ele>
        <time>2019-06-27T19:13:17.000Z</time>
      </trkpt>
      <trkpt lat="43.94277" lon="1.84292">
        <ele>909.59997558594</ele>
        <time>2019-06-27T19:13:18.000Z</time>
      </trkpt>
      <trkpt lat="43.94277" lon="1.84296">
        <ele>909.59997558594</ele>
        <time>2019-06-27T19:13:19.000Z</time>
      </trkpt>
      <trkpt lat="43.94276" lon="1.843">
        <ele>909.59997558594</ele>
        <time>2019-06-27T19:13:20.000Z</time>
      </trkpt>
      <trkpt lat="43.94276" lon="1.84303">
        <ele>909.59997558594</ele>
        <time>2019-06-27T19:13:21.000Z</time>
      </trkpt>
      <trkpt lat="43.94276" lon="1.84307">
        <ele>909.79998779297</ele>
        <time>2019-06-27T19:13:22.000Z</time>
      </trkpt>
      <trkpt lat="43.94276" lon="1.8431">
        <ele>910</ele>
        <time>2019-06-27T19:13:23.000Z</time>
      </trkpt>
      <trkpt lat="43.94276" lon="1.84314">
        <ele>910</ele>
        <time>2019-06-27T19:13:24.000Z</time>
      </trkpt>
      <trkpt lat="43.94275" lon="1.84317">
        <ele>910.20001220703</ele>
        <time>2019-06-27T19:13:25.000Z</time>
      </trkpt>
      <trkpt lat="43.94275" lon="1.8432">
        <ele>910.40002441406</ele>
        <time>2019-06-27T19:13:26.000Z</time>
      </trkpt>
      <trkpt lat="43.94275" lon="1.84324">
        <ele>910.40002441406</ele>
        <time>2019-06-27T19:13:27.000Z</time>
      </trkpt>
      <trkpt lat="43.94274" lon="1.84328">
        <ele>910.59997558594</ele>
        <time>2019-06-27T19:13:28.000Z</time>
      </trkpt>
      <trkpt lat="43.94274" lon="1.84331">
        <ele>911</ele>
        <time>2019-06-27T19:13:29.000Z</time>
      </trkpt>
      <trkpt lat="43.94274" lon="1.84335">
        <ele>911.40002441406</ele>
        <time>2019-06-27T19:13:30.000Z</time>
      </trkpt>
      <trkpt lat="43.94273" lon="1.84339">
        <ele>911.40002441406</ele>
        <time>2019-06-27T19:13:31.000Z</time>
      </trkpt>
      <trkpt lat="43.94273" lon="1.84342">
        <ele>911.59997558594</ele>
        <time>2019-06-27T19:13:32.000Z</time>
      </trkpt>
      <trkpt lat="43.94272" lon="1.84346">
        <ele>911.59997558594</ele>
        <time>2019-06-27T19:13:33.000Z</time>
      </trkpt>
      <trkpt lat="43.94272" lon="1.84349">
        <ele>911.79998779297</ele>
        <time>2019-06-27T19:13:34.000Z</time>
      </trkpt>
      <trkpt lat="43.94272" lon="1.84352">
        <ele>912</ele>
        <time>2019-06-27T19:13:35.000Z</time>
      </trkpt>
      <trkpt lat="43.94271" lon="1.84356">
        <ele>912.20001220703</ele>
        <time>2019-06-27T19:13:36.000Z</time>
      </trkpt>
      <trkpt lat="43.94271" lon="1.84359">
        <ele>912.40002441406</ele>
        <time>2019-06-27T19:13:37.000Z</time>
      </trkpt>
      <trkpt lat="43.9427" lon="1.84362">
        <ele>912.40002441406</ele>
        <time>2019-06-27T19:13:38.000Z</time>
      </trkpt>
      <trkpt lat="43.9427" lon="1.84366">
        <ele>912.59997558594</ele>
        <time>2019-06-27T19:13:39.000Z</time>
      </trkpt>
      <trkpt lat="43.9427" lon="1.84369">
        <ele>912.79998779297</ele>
        <time>2019-06-27T19:13:40.000Z</time>
      </trkpt>
      <trkpt lat="43.94269" lon="1.84373">
        <ele>913</ele>
        <time>2019-06-27T19:13:41.000Z</time>
      </trkpt>
      <trkpt lat="43.94269" lon="1.84377">
        <ele>913</ele>
        <time>2019-06-27T19:13:42.000Z</time>
      </trkpt>
      <trkpt lat="43.94269" lon="1.8438">
        <ele>913.20001220703</ele>
        <time>2019-06-27T19:13:43.000Z</time>
      </trkpt>
      <trkpt lat="43.94269" lon="1.84384">
        <ele>913.40002441406</ele>
        <time>2019-06-27T19:13:44.000Z</time>
      </trkpt>
      <trkpt lat="43.94269" lon="1.84387">
        <ele>913.40002441406</ele>
        <time>2019-06-27T19:13:45.000Z</time>
      </trkpt>
      <trkpt lat="43.94268" lon="1.84391">
        <ele>913.40002441406</ele>
        <time>2019-06-27T19:13:46.000Z</time>
      </trkpt>
      <trkpt lat="43.94268" lon="1.84395">
        <ele>913.59997558594</ele>
        <time>2019-06-27T19:13:47.000Z</time>
      </trkpt>
      <trkpt lat="43.94267" lon="1.84398">
        <ele>913.59997558594</ele>
        <time>2019-06-27T19:13:48.000Z</time>
      </trkpt>
      <trkpt lat="43.94266" lon="1.84402">
        <ele>913.79998779297</ele>
        <time>2019-06-27T19:13:49.000Z</time>
      </trkpt>
      <trkpt lat="43.94266" lon="1.84406">
        <ele>913.79998779297</ele>
        <time>2019-06-27T19:13:50.000Z</time>
      </trkpt>
      <trkpt lat="43.94265" lon="1.84409">
        <ele>913.79998779297</ele>
        <time>2019-06-27T19:13:51.000Z</time>
      </trkpt>
      <trkpt lat="43.94264" lon="1.84413">
        <ele>914</ele>
        <time>2019-06-27T19:13:52.000Z</time>
      </trkpt>
      <trkpt lat="43.94263" lon="1.84417">
        <ele>914.20001220703</ele>
        <time>2019-06-27T19:13:53.000Z</time>
      </trkpt>
      <trkpt lat="43.94262" lon="1.84421">
        <ele>914.20001220703</ele>
        <time>2019-06-27T19:13:54.000Z</time>
      </trkpt>
      <trkpt lat="43.94262" lon="1.84424">
        <ele>914.20001220703</ele>
        <time>2019-06-27T19:13:55.000Z</time>
      </trkpt>
      <trkpt lat="43.94261" lon="1.84428">
        <ele>914.40002441406</ele>
        <time>2019-06-27T19:13:56.000Z</time>
      </trkpt>
      <trkpt lat="43.94261" lon="1.84431">
        <ele>914.59997558594</ele>
        <time>2019-06-27T19:13:57.000Z</time>
      </trkpt>
      <trkpt lat="43.94261" lon="1.84434">
        <ele>914.59997558594</ele>
        <time>2019-06-27T19:13:58.000Z</time>
      </trkpt>
      <trkpt lat="43.94262" lon="1.84438">
        <ele>914.79998779297</ele>
        <time>2019-06-27T19:13:59.000Z</time>
      </trkpt>
      <trkpt lat="43.94261" lon="1.84441">
        <ele>915</ele>
        <time>2019-06-27T19:14:00.000Z</time>
      </trkpt>
      <trkpt lat="43.94261" lon="1.84445">
        <ele>915</ele>
        <time>2019-06-27T19:14:01.000Z</time>
      </trkpt>
      <trkpt lat="43.94261" lon="1.84448">
        <ele>915</ele>
        <time>2019-06-27T19:14:02.000Z</time>
      </trkpt>
      <trkpt lat="43.94261" lon="1.84452">
        <ele>915</ele>
        <time>2019-06-27T19:14:03.000Z</time>
      </trkpt>
      <trkpt lat="43.94261" lon="1.84456">
        <ele>915</ele>
        <time>2019-06-27T19:14:04.000Z</time>
      </trkpt>
      <trkpt lat="43.94262" lon="1.8446">
        <ele>915</ele>
        <time>2019-06-27T19:14:05.000Z</time>
      </trkpt>
      <trkpt lat="43.94262" lon="1.84463">
        <ele>914.79998779297</ele>
        <time>2019-06-27T19:14:06.000Z</time>
      </trkpt>
      <trkpt lat="43.94262" lon="1.84467">
        <ele>915</ele>
        <time>2019-06-27T19:14:07.000Z</time>
      </trkpt>
      <trkpt lat="43.94262" lon="1.84471">
        <ele>915</ele>
        <time>2019-06-27T19:14:08.000Z</time>
      </trkpt>
      <trkpt lat="43.94262" lon="1.84474">
        <ele>915.40002441406</ele>
        <time>2019-06-27T19:14:09.000Z</time>
      </trkpt>
      <trkpt lat="43.94262" lon="1.84478">
        <ele>915.40002441406</ele>
        <time>2019-06-27T19:14:10.000Z</time>
      </trkpt>
      <trkpt lat="43.94262" lon="1.84481">
        <ele>915.40002441406</ele>
        <time>2019-06-27T19:14:11.000Z</time>
      </trkpt>
      <trkpt lat="43.94261" lon="1.84484">
        <ele>915.40002441406</ele>
        <time>2019-06-27T19:14:12.000Z</time>
      </trkpt>
      <trkpt lat="43.94261" lon="1.84488">
        <ele>915.40002441406</ele>
        <time>2019-06-27T19:14:13.000Z</time>
      </trkpt>
      <trkpt lat="43.9426" lon="1.84491">
        <ele>915.59997558594</ele>
        <time>2019-06-27T19:14:14.000Z</time>
      </trkpt>
      <trkpt lat="43.9426" lon="1.84494">
        <ele>915.59997558594</ele>
        <time>2019-06-27T19:14:15.000Z</time>
      </trkpt>
      <trkpt lat="43.9426" lon="1.84498">
        <ele>915.79998779297</ele>
        <time>2019-06-27T19:14:16.000Z</time>
      </trkpt>
      <trkpt lat="43.9426" lon="1.84501">
        <ele>915.79998779297</ele>
        <time>2019-06-27T19:14:17.000Z</time>
      </trkpt>
      <trkpt lat="43.9426" lon="1.84504">
        <ele>916</ele>
        <time>2019-06-27T19:14:18.000Z</time>
      </trkpt>
      <trkpt lat="43.94261" lon="1.84508">
        <ele>916</ele>
        <time>2019-06-27T19:14:19.000Z</time>
      </trkpt>
      <trkpt lat="43.94261" lon="1.84512">
        <ele>916.20001220703</ele>
        <time>2019-06-27T19:14:20.000Z</time>
      </trkpt>
      <trkpt lat="43.94261" lon="1.84515">
        <ele>916.20001220703</ele>
        <time>2019-06-27T19:14:21.000Z</time>
      </trkpt>
      <trkpt lat="43.94261" lon="1.84519">
        <ele>916.40002441406</ele>
        <time>2019-06-27T19:14:22.000Z</time>
      </trkpt>
      <trkpt lat="43.94262" lon="1.84523">
        <ele>916.40002441406</ele>
        <time>2019-06-27T19:14:23.000Z</time>
      </trkpt>
      <trkpt lat="43.94262" lon="1.84526">
        <ele>916.59997558594</ele>
        <time>2019-06-27T19:14:24.000Z</time>
      </trkpt>
      <trkpt lat="43.94263" lon="1.84529">
        <ele>916.59997558594</ele>
        <time>2019-06-27T19:14:25.000Z</time>
      </trkpt>
      <trkpt lat="43.94264" lon="1.84533">
        <ele>916.79998779297</ele>
        <time>2019-06-27T19:14:26.000Z</time>
      </trkpt>
      <trkpt lat="43.94264" lon="1.84536">
        <ele>916.79998779297</ele>
        <time>2019-06-27T19:14:27.000Z</time>
      </trkpt>
      <trkpt lat="43.94264" lon="1.8454">
        <ele>917</ele>
        <time>2019-06-27T19:14:28.000Z</time>
      </trkpt>
      <trkpt lat="43.94265" lon="1.84544">
        <ele>917</ele>
        <time>2019-06-27T19:14:29.000Z</time>
      </trkpt>
      <trkpt lat="43.94266" lon="1.84547">
        <ele>917</ele>
        <time>2019-06-27T19:14:30.000Z</time>
      </trkpt>
      <trkpt lat="43.94266" lon="1.84551">
        <ele>917.20001220703</ele>
        <time>2019-06-27T19:14:31.000Z</time>
      </trkpt>
      <trkpt lat="43.94267" lon="1.84554">
        <ele>917.20001220703</ele>
        <time>2019-06-27T19:14:32.000Z</time>
      </trkpt>
      <trkpt lat="43.94269" lon="1.84557">
        <ele>917.20001220703</ele>
        <time>2019-06-27T19:14:33.000Z</time>
      </trkpt>
      <trkpt lat="43.94269" lon="1.84561">
        <ele>917.20001220703</ele>
        <time>2019-06-27T19:14:34.000Z</time>
      </trkpt>
      <trkpt lat="43.9427" lon="1.84564">
        <ele>917.20001220703</ele>
        <time>2019-06-27T19:14:35.000Z</time>
      </trkpt>
      <trkpt lat="43.94271" lon="1.84568">
        <ele>917.20001220703</ele>
        <time>2019-06-27T19:14:36.000Z</time>
      </trkpt>
      <trkpt lat="43.94271" lon="1.84571">
        <ele>917.40002441406</ele>
        <time>2019-06-27T19:14:37.000Z</time>
      </trkpt>
      <trkpt lat="43.94271" lon="1.84574">
        <ele>917.40002441406</ele>
        <time>2019-06-27T19:14:38.000Z</time>
      </trkpt>
      <trkpt lat="43.94272" lon="1.84577">
        <ele>917.59997558594</ele>
        <time>2019-06-27T19:14:39.000Z</time>
      </trkpt>
      <trkpt lat="43.94272" lon="1.8458">
        <ele>917.59997558594</ele>
        <time>2019-06-27T19:14:40.000Z</time>
      </trkpt>
      <trkpt lat="43.94273" lon="1.84583">
        <ele>917.79998779297</ele>
        <time>2019-06-27T19:14:41.000Z</time>
      </trkpt>
      <trkpt lat="43.94274" lon="1.84586">
        <ele>918</ele>
        <time>2019-06-27T19:14:42.000Z</time>
      </trkpt>
      <trkpt lat="43.94274" lon="1.84589">
        <ele>918</ele>
        <time>2019-06-27T19:14:43.000Z</time>
      </trkpt>
      <trkpt lat="43.94275" lon="1.84592">
        <ele>918</ele>
        <time>2019-06-27T19:14:44.000Z</time>
      </trkpt>
      <trkpt lat="43.94275" lon="1.84594">
        <ele>918</ele>
        <time>2019-06-27T19:14:45.000Z</time>
      </trkpt>
      <trkpt lat="43.94275" lon="1.84597">
        <ele>918.20001220703</ele>
        <time>2019-06-27T19:14:46.000Z</time>
      </trkpt>
      <trkpt lat="43.94276" lon="1.84599">
        <ele>918.20001220703</ele>
        <time>2019-06-27T19:14:47.000Z</time>
      </trkpt>
      <trkpt lat="43.94276" lon="1.84602">
        <ele>918.59997558594</ele>
        <time>2019-06-27T19:14:48.000Z</time>
      </trkpt>
      <trkpt lat="43.94277" lon="1.84605">
        <ele>918.59997558594</ele>
        <time>2019-06-27T19:14:49.000Z</time>
      </trkpt>
      <trkpt lat="43.94277" lon="1.84608">
        <ele>918.79998779297</ele>
        <time>2019-06-27T19:14:50.000Z</time>
      </trkpt>
      <trkpt lat="43.94277" lon="1.8461">
        <ele>918.79998779297</ele>
        <time>2019-06-27T19:14:51.000Z</time>
      </trkpt>
      <trkpt lat="43.94278" lon="1.84613">
        <ele>919</ele>
        <time>2019-06-27T19:14:52.000Z</time>
      </trkpt>
      <trkpt lat="43.94278" lon="1.84616">
        <ele>919</ele>
        <time>2019-06-27T19:14:53.000Z</time>
      </trkpt>
      <trkpt lat="43.94279" lon="1.84618">
        <ele>919.20001220703</ele>
        <time>2019-06-27T19:14:54.000Z</time>
      </trkpt>
      <trkpt lat="43.9428" lon="1.8462">
        <ele>919.40002441406</ele>
        <time>2019-06-27T19:14:55.000Z</time>
      </trkpt>
      <trkpt lat="43.94281" lon="1.84623">
        <ele>919.40002441406</ele>
        <time>2019-06-27T19:14:56.000Z</time>
      </trkpt>
      <trkpt lat="43.94281" lon="1.84625">
        <ele>919.59997558594</ele>
        <time>2019-06-27T19:14:57.000Z</time>
      </trkpt>
      <trkpt lat="43.94282" lon="1.84626">
        <ele>919.79998779297</ele>
        <time>2019-06-27T19:14:58.000Z</time>
      </trkpt>
      <trkpt lat="43.94282" lon="1.84628">
        <ele>919.79998779297</ele>
        <time>2019-06-27T19:14:59.000Z</time>
      </trkpt>
      <trkpt lat="43.94283" lon="1.8463">
        <ele>919.79998779297</ele>
        <time>2019-06-27T19:15:00.000Z</time>
      </trkpt>
      <trkpt lat="43.94283" lon="1.84632">
        <ele>919.79998779297</ele>
        <time>2019-06-27T19:15:01.000Z</time>
      </trkpt>
      <trkpt lat="43.94283" lon="1.84634">
        <ele>920</ele>
        <time>2019-06-27T19:15:02.000Z</time>
      </trkpt>
      <trkpt lat="43.94284" lon="1.84636">
        <ele>920.20001220703</ele>
        <time>2019-06-27T19:15:03.000Z</time>
      </trkpt>
      <trkpt lat="43.94285" lon="1.84638">
        <ele>920.40002441406</ele>
        <time>2019-06-27T19:15:04.000Z</time>
      </trkpt>
      <trkpt lat="43.94285" lon="1.84641">
        <ele>920.59997558594</ele>
        <time>2019-06-27T19:15:05.000Z</time>
      </trkpt>
      <trkpt lat="43.94286" lon="1.84643">
        <ele>920.79998779297</ele>
        <time>2019-06-27T19:15:06.000Z</time>
      </trkpt>
      <trkpt lat="43.94286" lon="1.84644">
        <ele>920.79998779297</ele>
        <time>2019-06-27T19:15:07.000Z</time>
      </trkpt>
      <trkpt lat="43.94287" lon="1.84646">
        <ele>920.79998779297</ele>
        <time>2019-06-27T19:15:08.000Z</time>
      </trkpt>
      <trkpt lat="43.94286" lon="1.84649">
        <ele>921</ele>
        <time>2019-06-27T19:15:09.000Z</time>
      </trkpt>
      <trkpt lat="43.94286" lon="1.84651">
        <ele>921.20001220703</ele>
        <time>2019-06-27T19:15:10.000Z</time>
      </trkpt>
      <trkpt lat="43.94286" lon="1.84654">
        <ele>921.40002441406</ele>
        <time>2019-06-27T19:15:11.000Z</time>
      </trkpt>
      <trkpt lat="43.94287" lon="1.84657">
        <ele>921.40002441406</ele>
        <time>2019-06-27T19:15:12.000Z</time>
      </trkpt>
      <trkpt lat="43.94287" lon="1.84659">
        <ele>921.40002441406</ele>
        <time>2019-06-27T19:15:13.000Z</time>
      </trkpt>
      <trkpt lat="43.94287" lon="1.84662">
        <ele>921.40002441406</ele>
        <time>2019-06-27T19:15:14.000Z</time>
      </trkpt>
      <trkpt lat="43.94288" lon="1.84665">
        <ele>921.59997558594</ele>
        <time>2019-06-27T19:15:15.000Z</time>
      </trkpt>
      <trkpt lat="43.94288" lon="1.84667">
        <ele>921.59997558594</ele>
        <time>2019-06-27T19:15:16.000Z</time>
      </trkpt>
      <trkpt lat="43.94289" lon="1.8467">
        <ele>921.79998779297</ele>
        <time>2019-06-27T19:15:17.000Z</time>
      </trkpt>
      <trkpt lat="43.94289" lon="1.84672">
        <ele>921.79998779297</ele>
        <time>2019-06-27T19:15:18.000Z</time>
      </trkpt>
      <trkpt lat="43.94289" lon="1.84674">
        <ele>921.79998779297</ele>
        <time>2019-06-27T19:15:19.000Z</time>
      </trkpt>
      <trkpt lat="43.9429" lon="1.84676">
        <ele>922</ele>
        <time>2019-06-27T19:15:20.000Z</time>
      </trkpt>
      <trkpt lat="43.9429" lon="1.84678">
        <ele>922.20001220703</ele>
        <time>2019-06-27T19:15:21.000Z</time>
      </trkpt>
      <trkpt lat="43.9429" lon="1.84681">
        <ele>922.40002441406</ele>
        <time>2019-06-27T19:15:22.000Z</time>
      </trkpt>
      <trkpt lat="43.94289" lon="1.84683">
        <ele>922.40002441406</ele>
        <time>2019-06-27T19:15:23.000Z</time>
      </trkpt>
      <trkpt lat="43.94289" lon="1.84685">
        <ele>922.40002441406</ele>
        <time>2019-06-27T19:15:24.000Z</time>
      </trkpt>
      <trkpt lat="43.94289" lon="1.84688">
        <ele>922.59997558594</ele>
        <time>2019-06-27T19:15:25.000Z</time>
      </trkpt>
      <trkpt lat="43.94289" lon="1.84691">
        <ele>922.79998779297</ele>
        <time>2019-06-27T19:15:26.000Z</time>
      </trkpt>
      <trkpt lat="43.94289" lon="1.84693">
        <ele>922.79998779297</ele>
        <time>2019-06-27T19:15:27.000Z</time>
      </trkpt>
      <trkpt lat="43.94289" lon="1.84696">
        <ele>923</ele>
        <time>2019-06-27T19:15:28.000Z</time>
      </trkpt>
      <trkpt lat="43.94289" lon="1.84699">
        <ele>923.40002441406</ele>
        <time>2019-06-27T19:15:29.000Z</time>
      </trkpt>
      <trkpt lat="43.94289" lon="1.84701">
        <ele>923.40002441406</ele>
        <time>2019-06-27T19:15:30.000Z</time>
      </trkpt>
      <trkpt lat="43.94289" lon="1.84704">
        <ele>923.59997558594</ele>
        <time>2019-06-27T19:15:31.000Z</time>
      </trkpt>
      <trkpt lat="43.9429" lon="1.84707">
        <ele>923.59997558594</ele>
        <time>2019-06-27T19:15:32.000Z</time>
      </trkpt>
      <trkpt lat="43.9429" lon="1.84709">
        <ele>923.79998779297</ele>
        <time>2019-06-27T19:15:33.000Z</time>
      </trkpt>
      <trkpt lat="43.94289" lon="1.84712">
        <ele>924</ele>
        <time>2019-06-27T19:15:34.000Z</time>
      </trkpt>
      <trkpt lat="43.94289" lon="1.84714">
        <ele>924</ele>
        <time>2019-06-27T19:15:35.000Z</time>
      </trkpt>
      <trkpt lat="43.94289" lon="1.84717">
        <ele>924.20001220703</ele>
        <time>2019-06-27T19:15:36.000Z</time>
      </trkpt>
      <trkpt lat="43.94289" lon="1.84719">
        <ele>924.40002441406</ele>
        <time>2019-06-27T19:15:37.000Z</time>
      </trkpt>
      <trkpt lat="43.94288" lon="1.84722">
        <ele>924.40002441406</ele>
        <time>2019-06-27T19:15:38.000Z</time>
      </trkpt>
      <trkpt lat="43.94288" lon="1.84725">
        <ele>924.59997558594</ele>
        <time>2019-06-27T19:15:39.000Z</time>
      </trkpt>
      <trkpt lat="43.94288" lon="1.84728">
        <ele>924.59997558594</ele>
        <time>2019-06-27T19:15:40.000Z</time>
      </trkpt>
      <trkpt lat="43.94288" lon="1.84731">
        <ele>924.59997558594</ele>
        <time>2019-06-27T19:15:41.000Z</time>
      </trkpt>
      <trkpt lat="43.94287" lon="1.84734">
        <ele>924.59997558594</ele>
        <time>2019-06-27T19:15:42.000Z</time>
      </trkpt>
      <trkpt lat="43.94286" lon="1.84737">
        <ele>924.79998779297</ele>
        <time>2019-06-27T19:15:43.000Z</time>
      </trkpt>
      <trkpt lat="43.94286" lon="1.84739">
        <ele>924.79998779297</ele>
        <time>2019-06-27T19:15:44.000Z</time>
      </trkpt>
      <trkpt lat="43.94286" lon="1.84742">
        <ele>925</ele>
        <time>2019-06-27T19:15:45.000Z</time>
      </trkpt>
      <trkpt lat="43.94285" lon="1.84744">
        <ele>925.40002441406</ele>
        <time>2019-06-27T19:15:46.000Z</time>
      </trkpt>
      <trkpt lat="43.94285" lon="1.84747">
        <ele>925.40002441406</ele>
        <time>2019-06-27T19:15:47.000Z</time>
      </trkpt>
      <trkpt lat="43.94285" lon="1.8475">
        <ele>925.59997558594</ele>
        <time>2019-06-27T19:15:48.000Z</time>
      </trkpt>
      <trkpt lat="43.94284" lon="1.84752">
        <ele>925.79998779297</ele>
        <time>2019-06-27T19:15:49.000Z</time>
      </trkpt>
      <trkpt lat="43.94283" lon="1.84754">
        <ele>926</ele>
        <time>2019-06-27T19:15:50.000Z</time>
      </trkpt>
      <trkpt lat="43.94283" lon="1.84756">
        <ele>926</ele>
        <time>2019-06-27T19:15:51.000Z</time>
      </trkpt>
      <trkpt lat="43.94282" lon="1.84758">
        <ele>926.20001220703</ele>
        <time>2019-06-27T19:15:52.000Z</time>
      </trkpt>
      <trkpt lat="43.94283" lon="1.84757">
        <ele>926.40002441406</ele>
        <time>2019-06-27T19:15:53.000Z</time>
      </trkpt>
      <trkpt lat="43.94282" lon="1.84762">
        <ele>926.40002441406</ele>
        <time>2019-06-27T19:15:54.000Z</time>
      </trkpt>
      <trkpt lat="43.94283" lon="1.84761">
        <ele>926.59997558594</ele>
        <time>2019-06-27T19:15:55.000Z</time>
      </trkpt>
      <trkpt lat="43.94282" lon="1.84766">
        <ele>927</ele>
        <time>2019-06-27T19:15:56.000Z</time>
      </trkpt>
      <trkpt lat="43.94282" lon="1.84769">
        <ele>927</ele>
        <time>2019-06-27T19:15:57.000Z</time>
      </trkpt>
      <trkpt lat="43.94282" lon="1.84768">
        <ele>927.20001220703</ele>
        <time>2019-06-27T19:15:58.000Z</time>
      </trkpt>
      <trkpt lat="43.94282" lon="1.84772">
        <ele>927.20001220703</ele>
        <time>2019-06-27T19:15:59.000Z</time>
      </trkpt>
      <trkpt lat="43.94282" lon="1.84775">
        <ele>927.40002441406</ele>
        <time>2019-06-27T19:16:00.000Z</time>
      </trkpt>
      <trkpt lat="43.94282" lon="1.84774">
        <ele>927.59997558594</ele>
        <time>2019-06-27T19:16:01.000Z</time>
      </trkpt>
      <trkpt lat="43.94283" lon="1.84777">
        <ele>927.79998779297</ele>
        <time>2019-06-27T19:16:02.000Z</time>
      </trkpt>
      <trkpt lat="43.94283" lon="1.8478">
        <ele>928</ele>
        <time>2019-06-27T19:16:03.000Z</time>
      </trkpt>
      <trkpt lat="43.94282" lon="1.84782">
        <ele>928.20001220703</ele>
        <time>2019-06-27T19:16:04.000Z</time>
      </trkpt>
      <trkpt lat="43.94282" lon="1.84784">
        <ele>928.40002441406</ele>
        <time>2019-06-27T19:16:05.000Z</time>
      </trkpt>
      <trkpt lat="43.94281" lon="1.84786">
        <ele>928.40002441406</ele>
        <time>2019-06-27T19:16:06.000Z</time>
      </trkpt>
      <trkpt lat="43.94281" lon="1.84788">
        <ele>928.59997558594</ele>
        <time>2019-06-27T19:16:07.000Z</time>
      </trkpt>
      <trkpt lat="43.94281" lon="1.84791">
        <ele>928.79998779297</ele>
        <time>2019-06-27T19:16:08.000Z</time>
      </trkpt>
      <trkpt lat="43.9428" lon="1.84793">
        <ele>929</ele>
        <time>2019-06-27T19:16:09.000Z</time>
      </trkpt>
      <trkpt lat="43.9428" lon="1.84795">
        <ele>929</ele>
        <time>2019-06-27T19:16:10.000Z</time>
      </trkpt>
      <trkpt lat="43.9428" lon="1.84797">
        <ele>929.20001220703</ele>
        <time>2019-06-27T19:16:11.000Z</time>
      </trkpt>
      <trkpt lat="43.9428" lon="1.84796">
        <ele>929.40002441406</ele>
        <time>2019-06-27T19:16:12.000Z</time>
      </trkpt>
      <trkpt lat="43.9428" lon="1.84799">
        <ele>929.40002441406</ele>
        <time>2019-06-27T19:16:13.000Z</time>
      </trkpt>
      <trkpt lat="43.9428" lon="1.84802">
        <ele>929.59997558594</ele>
        <time>2019-06-27T19:16:14.000Z</time>
      </trkpt>
      <trkpt lat="43.9428" lon="1.84804">
        <ele>929.59997558594</ele>
        <time>2019-06-27T19:16:15.000Z</time>
      </trkpt>
      <trkpt lat="43.9428" lon="1.84806">
        <ele>929.79998779297</ele>
        <time>2019-06-27T19:16:16.000Z</time>
      </trkpt>
      <trkpt lat="43.9428" lon="1.84805">
        <ele>930.20001220703</ele>
        <time>2019-06-27T19:16:17.000Z</time>
      </trkpt>
      <trkpt lat="43.94279" lon="1.8481">
        <ele>930.20001220703</ele>
        <time>2019-06-27T19:16:18.000Z</time>
      </trkpt>
      <trkpt lat="43.94279" lon="1.84809">
        <ele>930.40002441406</ele>
        <time>2019-06-27T19:16:19.000Z</time>
      </trkpt>
      <trkpt lat="43.94278" lon="1.84814">
        <ele>930.40002441406</ele>
        <time>2019-06-27T19:16:20.000Z</time>
      </trkpt>
      <trkpt lat="43.94277" lon="1.84816">
        <ele>930.59997558594</ele>
        <time>2019-06-27T19:16:21.000Z</time>
      </trkpt>
      <trkpt lat="43.94277" lon="1.84818">
        <ele>930.59997558594</ele>
        <time>2019-06-27T19:16:22.000Z</time>
      </trkpt>
      <trkpt lat="43.94276" lon="1.8482">
        <ele>930.79998779297</ele>
        <time>2019-06-27T19:16:23.000Z</time>
      </trkpt>
      <trkpt lat="43.94275" lon="1.84822">
        <ele>930.79998779297</ele>
        <time>2019-06-27T19:16:24.000Z</time>
      </trkpt>
      <trkpt lat="43.94275" lon="1.84824">
        <ele>930.79998779297</ele>
        <time>2019-06-27T19:16:25.000Z</time>
      </trkpt>
      <trkpt lat="43.94274" lon="1.84827">
        <ele>931</ele>
        <time>2019-06-27T19:16:26.000Z</time>
      </trkpt>
      <trkpt lat="43.94274" lon="1.84829">
        <ele>931</ele>
        <time>2019-06-27T19:16:27.000Z</time>
      </trkpt>
      <trkpt lat="43.94273" lon="1.84831">
        <ele>931.20001220703</ele>
        <time>2019-06-27T19:16:28.000Z</time>
      </trkpt>
      <trkpt lat="43.94273" lon="1.84832">
        <ele>931.40002441406</ele>
        <time>2019-06-27T19:16:29.000Z</time>
      </trkpt>
      <trkpt lat="43.94273" lon="1.84834">
        <ele>931.59997558594</ele>
        <time>2019-06-27T19:16:30.000Z</time>
      </trkpt>
      <trkpt lat="43.94273" lon="1.84836">
        <ele>931.79998779297</ele>
        <time>2019-06-27T19:16:31.000Z</time>
      </trkpt>
      <trkpt lat="43.94272" lon="1.84838">
        <ele>931.79998779297</ele>
        <time>2019-06-27T19:16:32.000Z</time>
      </trkpt>
      <trkpt lat="43.94272" lon="1.8484">
        <ele>932</ele>
        <time>2019-06-27T19:16:33.000Z</time>
      </trkpt>
      <trkpt lat="43.94271" lon="1.84841">
        <ele>932</ele>
        <time>2019-06-27T19:16:34.000Z</time>
      </trkpt>
      <trkpt lat="43.94271" lon="1.84843">
        <ele>932</ele>
        <time>2019-06-27T19:16:35.000Z</time>
      </trkpt>
      <trkpt lat="43.94271" lon="1.84845">
        <ele>932.20001220703</ele>
        <time>2019-06-27T19:16:36.000Z</time>
      </trkpt>
      <trkpt lat="43.9427" lon="1.84847">
        <ele>932.40002441406</ele>
        <time>2019-06-27T19:16:37.000Z</time>
      </trkpt>
      <trkpt lat="43.9427" lon="1.84849">
        <ele>932.40002441406</ele>
        <time>2019-06-27T19:16:38.000Z</time>
      </trkpt>
      <trkpt lat="43.9427" lon="1.84851">
        <ele>932.59997558594</ele>
        <time>2019-06-27T19:16:39.000Z</time>
      </trkpt>
      <trkpt lat="43.94269" lon="1.84853">
        <ele>932.79998779297</ele>
        <time>2019-06-27T19:16:40.000Z</time>
      </trkpt>
      <trkpt lat="43.94269" lon="1.84855">
        <ele>933</ele>
        <time>2019-06-27T19:16:41.000Z</time>
      </trkpt>
      <trkpt lat="43.94269" lon="1.84857">
        <ele>933.20001220703</ele>
        <time>2019-06-27T19:16:42.000Z</time>
      </trkpt>
      <trkpt lat="43.94268" lon="1.84858">
        <ele>933.40002441406</ele>
        <time>2019-06-27T19:16:43.000Z</time>
      </trkpt>
      <trkpt lat="43.94268" lon="1.8486">
        <ele>933.40002441406</ele>
        <time>2019-06-27T19:16:44.000Z</time>
      </trkpt>
      <trkpt lat="43.94267" lon="1.84862">
        <ele>933.40002441406</ele>
        <time>2019-06-27T19:16:45.000Z</time>
      </trkpt>
      <trkpt lat="43.94267" lon="1.84864">
        <ele>933.59997558594</ele>
        <time>2019-06-27T19:16:46.000Z</time>
      </trkpt>
      <trkpt lat="43.94266" lon="1.84865">
        <ele>933.79998779297</ele>
        <time>2019-06-27T19:16:47.000Z</time>
      </trkpt>
      <trkpt lat="43.94267" lon="1.84864">
        <ele>934</ele>
        <time>2019-06-27T19:16:48.000Z</time>
      </trkpt>
      <trkpt lat="43.94266" lon="1.84868">
        <ele>934</ele>
        <time>2019-06-27T19:16:49.000Z</time>
      </trkpt>
      <trkpt lat="43.94266" lon="1.8487">
        <ele>934</ele>
        <time>2019-06-27T19:16:50.000Z</time>
      </trkpt>
      <trkpt lat="43.94266" lon="1.84872">
        <ele>934</ele>
        <time>2019-06-27T19:16:51.000Z</time>
      </trkpt>
      <trkpt lat="43.94265" lon="1.84875">
        <ele>934.20001220703</ele>
        <time>2019-06-27T19:16:52.000Z</time>
      </trkpt>
      <trkpt lat="43.94265" lon="1.84877">
        <ele>934.40002441406</ele>
        <time>2019-06-27T19:16:53.000Z</time>
      </trkpt>
      <trkpt lat="43.94264" lon="1.84879">
        <ele>934.40002441406</ele>
        <time>2019-06-27T19:16:54.000Z</time>
      </trkpt>
      <trkpt lat="43.94264" lon="1.84881">
        <ele>934.59997558594</ele>
        <time>2019-06-27T19:16:55.000Z</time>
      </trkpt>
      <trkpt lat="43.94263" lon="1.84883">
        <ele>934.79998779297</ele>
        <time>2019-06-27T19:16:56.000Z</time>
      </trkpt>
      <trkpt lat="43.94263" lon="1.84885">
        <ele>934.79998779297</ele>
        <time>2019-06-27T19:16:57.000Z</time>
      </trkpt>
      <trkpt lat="43.94262" lon="1.84887">
        <ele>935</ele>
        <time>2019-06-27T19:16:58.000Z</time>
      </trkpt>
      <trkpt lat="43.94262" lon="1.84889">
        <ele>935</ele>
        <time>2019-06-27T19:16:59.000Z</time>
      </trkpt>
      <trkpt lat="43.94262" lon="1.84892">
        <ele>935.20001220703</ele>
        <time>2019-06-27T19:17:00.000Z</time>
      </trkpt>
      <trkpt lat="43.94261" lon="1.84894">
        <ele>935.20001220703</ele>
        <time>2019-06-27T19:17:01.000Z</time>
      </trkpt>
      <trkpt lat="43.94261" lon="1.84896">
        <ele>935.40002441406</ele>
        <time>2019-06-27T19:17:02.000Z</time>
      </trkpt>
      <trkpt lat="43.94262" lon="1.84897">
        <ele>935.40002441406</ele>
        <time>2019-06-27T19:17:03.000Z</time>
      </trkpt>
      <trkpt lat="43.94262" lon="1.84899">
        <ele>935.40002441406</ele>
        <time>2019-06-27T19:17:04.000Z</time>
      </trkpt>
      <trkpt lat="43.94262" lon="1.84898">
        <ele>935.59997558594</ele>
        <time>2019-06-27T19:17:05.000Z</time>
      </trkpt>
      <trkpt lat="43.94261" lon="1.84902">
        <ele>935.79998779297</ele>
        <time>2019-06-27T19:17:06.000Z</time>
      </trkpt>
      <trkpt lat="43.9426" lon="1.84904">
        <ele>936</ele>
        <time>2019-06-27T19:17:07.000Z</time>
      </trkpt>
      <trkpt lat="43.9426" lon="1.84906">
        <ele>936</ele>
        <time>2019-06-27T19:17:08.000Z</time>
      </trkpt>
      <trkpt lat="43.94259" lon="1.84908">
        <ele>936</ele>
        <time>2019-06-27T19:17:09.000Z</time>
      </trkpt>
      <trkpt lat="43.94259" lon="1.84911">
        <ele>936</ele>
        <time>2019-06-27T19:17:10.000Z</time>
      </trkpt>
      <trkpt lat="43.94258" lon="1.84913">
        <ele>936.20001220703</ele>
        <time>2019-06-27T19:17:11.000Z</time>
      </trkpt>
      <trkpt lat="43.94257" lon="1.84915">
        <ele>936.20001220703</ele>
        <time>2019-06-27T19:17:12.000Z</time>
      </trkpt>
      <trkpt lat="43.94257" lon="1.84916">
        <ele>936.40002441406</ele>
        <time>2019-06-27T19:17:13.000Z</time>
      </trkpt>
      <trkpt lat="43.94257" lon="1.84918">
        <ele>936.59997558594</ele>
        <time>2019-06-27T19:17:14.000Z</time>
      </trkpt>
      <trkpt lat="43.94257" lon="1.84917">
        <ele>936.59997558594</ele>
        <time>2019-06-27T19:17:15.000Z</time>
      </trkpt>
      <trkpt lat="43.94256" lon="1.84922">
        <ele>936.79998779297</ele>
        <time>2019-06-27T19:17:16.000Z</time>
      </trkpt>
      <trkpt lat="43.94256" lon="1.84924">
        <ele>936.79998779297</ele>
        <time>2019-06-27T19:17:17.000Z</time>
      </trkpt>
      <trkpt lat="43.94255" lon="1.84926">
        <ele>937</ele>
        <time>2019-06-27T19:17:18.000Z</time>
      </trkpt>
      <trkpt lat="43.94254" lon="1.84928">
        <ele>937</ele>
        <time>2019-06-27T19:17:19.000Z</time>
      </trkpt>
      <trkpt lat="43.94254" lon="1.8493">
        <ele>937.20001220703</ele>
        <time>2019-06-27T19:17:20.000Z</time>
      </trkpt>
      <trkpt lat="43.94253" lon="1.84932">
        <ele>937.20001220703</ele>
        <time>2019-06-27T19:17:21.000Z</time>
      </trkpt>
      <trkpt lat="43.94254" lon="1.84931">
        <ele>937.40002441406</ele>
        <time>2019-06-27T19:17:22.000Z</time>
      </trkpt>
      <trkpt lat="43.94253" lon="1.84935">
        <ele>937.40002441406</ele>
        <time>2019-06-27T19:17:23.000Z</time>
      </trkpt>
      <trkpt lat="43.94252" lon="1.84937">
        <ele>937.59997558594</ele>
        <time>2019-06-27T19:17:24.000Z</time>
      </trkpt>
      <trkpt lat="43.94252" lon="1.84939">
        <ele>937.59997558594</ele>
        <time>2019-06-27T19:17:25.000Z</time>
      </trkpt>
      <trkpt lat="43.9425" lon="1.84941">
        <ele>937.79998779297</ele>
        <time>2019-06-27T19:17:26.000Z</time>
      </trkpt>
      <trkpt lat="43.9425" lon="1.84943">
        <ele>937.79998779297</ele>
        <time>2019-06-27T19:17:27.000Z</time>
      </trkpt>
      <trkpt lat="43.94248" lon="1.84945">
        <ele>938</ele>
        <time>2019-06-27T19:17:28.000Z</time>
      </trkpt>
      <trkpt lat="43.94248" lon="1.84947">
        <ele>938.20001220703</ele>
        <time>2019-06-27T19:17:29.000Z</time>
      </trkpt>
      <trkpt lat="43.94248" lon="1.8495">
        <ele>938.40002441406</ele>
        <time>2019-06-27T19:17:30.000Z</time>
      </trkpt>
      <trkpt lat="43.94247" lon="1.84952">
        <ele>938.40002441406</ele>
        <time>2019-06-27T19:17:31.000Z</time>
      </trkpt>
      <trkpt lat="43.94247" lon="1.84954">
        <ele>938.40002441406</ele>
        <time>2019-06-27T19:17:32.000Z</time>
      </trkpt>
      <trkpt lat="43.94246" lon="1.84956">
        <ele>938.59997558594</ele>
        <time>2019-06-27T19:17:33.000Z</time>
      </trkpt>
      <trkpt lat="43.94246" lon="1.84959">
        <ele>938.79998779297</ele>
        <time>2019-06-27T19:17:34.000Z</time>
      </trkpt>
      <trkpt lat="43.94246" lon="1.84961">
        <ele>938.79998779297</ele>
        <time>2019-06-27T19:17:35.000Z</time>
      </trkpt>
      <trkpt lat="43.94246" lon="1.84963">
        <ele>938.79998779297</ele>
        <time>2019-06-27T19:17:36.000Z</time>
      </trkpt>
      <trkpt lat="43.94245" lon="1.84966">
        <ele>939</ele>
        <time>2019-06-27T19:17:37.000Z</time>
      </trkpt>
      <trkpt lat="43.94245" lon="1.84968">
        <ele>939</ele>
        <time>2019-06-27T19:17:38.000Z</time>
      </trkpt>
      <trkpt lat="43.94244" lon="1.8497">
        <ele>939.20001220703</ele>
        <time>2019-06-27T19:17:39.000Z</time>
      </trkpt>
      <trkpt lat="43.94244" lon="1.84973">
        <ele>939.40002441406</ele>
        <time>2019-06-27T19:17:40.000Z</time>
      </trkpt>
      <trkpt lat="43.94244" lon="1.84976">
        <ele>939.40002441406</ele>
        <time>2019-06-27T19:17:41.000Z</time>
      </trkpt>
      <trkpt lat="43.94243" lon="1.84978">
        <ele>939.40002441406</ele>
        <time>2019-06-27T19:17:42.000Z</time>
      </trkpt>
      <trkpt lat="43.94242" lon="1.84979">
        <ele>939.59997558594</ele>
        <time>2019-06-27T19:17:43.000Z</time>
      </trkpt>
      <trkpt lat="43.94241" lon="1.84981">
        <ele>939.59997558594</ele>
        <time>2019-06-27T19:17:44.000Z</time>
      </trkpt>
      <trkpt lat="43.9424" lon="1.84984">
        <ele>939.59997558594</ele>
        <time>2019-06-27T19:17:45.000Z</time>
      </trkpt>
      <trkpt lat="43.9424" lon="1.84986">
        <ele>939.79998779297</ele>
        <time>2019-06-27T19:17:46.000Z</time>
      </trkpt>
      <trkpt lat="43.94239" lon="1.84988">
        <ele>939.79998779297</ele>
        <time>2019-06-27T19:17:47.000Z</time>
      </trkpt>
      <trkpt lat="43.94238" lon="1.84991">
        <ele>940</ele>
        <time>2019-06-27T19:17:48.000Z</time>
      </trkpt>
      <trkpt lat="43.94237" lon="1.84993">
        <ele>940.20001220703</ele>
        <time>2019-06-27T19:17:49.000Z</time>
      </trkpt>
      <trkpt lat="43.94237" lon="1.84996">
        <ele>940.20001220703</ele>
        <time>2019-06-27T19:17:50.000Z</time>
      </trkpt>
      <trkpt lat="43.94236" lon="1.84998">
        <ele>940.20001220703</ele>
        <time>2019-06-27T19:17:51.000Z</time>
      </trkpt>
      <trkpt lat="43.94235" lon="1.85">
        <ele>940.20001220703</ele>
        <time>2019-06-27T19:17:52.000Z</time>
      </trkpt>
      <trkpt lat="43.94235" lon="1.85002">
        <ele>940.40002441406</ele>
        <time>2019-06-27T19:17:53.000Z</time>
      </trkpt>
      <trkpt lat="43.94234" lon="1.85005">
        <ele>940.59997558594</ele>
        <time>2019-06-27T19:17:54.000Z</time>
      </trkpt>
      <trkpt lat="43.94234" lon="1.85007">
        <ele>940.79998779297</ele>
        <time>2019-06-27T19:17:55.000Z</time>
      </trkpt>
      <trkpt lat="43.94234" lon="1.85008">
        <ele>940.79998779297</ele>
        <time>2019-06-27T19:17:56.000Z</time>
      </trkpt>
      <trkpt lat="43.94233" lon="1.8501">
        <ele>941</ele>
        <time>2019-06-27T19:17:57.000Z</time>
      </trkpt>
      <trkpt lat="43.94233" lon="1.85012">
        <ele>941</ele>
        <time>2019-06-27T19:17:58.000Z</time>
      </trkpt>
      <trkpt lat="43.94232" lon="1.85015">
        <ele>941</ele>
        <time>2019-06-27T19:17:59.000Z</time>
      </trkpt>
      <trkpt lat="43.94232" lon="1.85017">
        <ele>941</ele>
        <time>2019-06-27T19:18:00.000Z</time>
      </trkpt>
      <trkpt lat="43.94231" lon="1.85019">
        <ele>941.20001220703</ele>
        <time>2019-06-27T19:18:01.000Z</time>
      </trkpt>
      <trkpt lat="43.9423" lon="1.85021">
        <ele>941.40002441406</ele>
        <time>2019-06-27T19:18:02.000Z</time>
      </trkpt>
      <trkpt lat="43.9423" lon="1.85023">
        <ele>941.40002441406</ele>
        <time>2019-06-27T19:18:03.000Z</time>
      </trkpt>
      <trkpt lat="43.94229" lon="1.85026">
        <ele>941.59997558594</ele>
        <time>2019-06-27T19:18:04.000Z</time>
      </trkpt>
      <trkpt lat="43.94229" lon="1.85028">
        <ele>941.59997558594</ele>
        <time>2019-06-27T19:18:05.000Z</time>
      </trkpt>
      <trkpt lat="43.94228" lon="1.8503">
        <ele>941.79998779297</ele>
        <time>2019-06-27T19:18:06.000Z</time>
      </trkpt>
      <trkpt lat="43.94228" lon="1.85032">
        <ele>942</ele>
        <time>2019-06-27T19:18:07.000Z</time>
      </trkpt>
      <trkpt lat="43.94227" lon="1.85034">
        <ele>942.20001220703</ele>
        <time>2019-06-27T19:18:08.000Z</time>
      </trkpt>
      <trkpt lat="43.94227" lon="1.85037">
        <ele>942.20001220703</ele>
        <time>2019-06-27T19:18:09.000Z</time>
      </trkpt>
      <trkpt lat="43.94226" lon="1.85039">
        <ele>942.40002441406</ele>
        <time>2019-06-27T19:18:10.000Z</time>
      </trkpt>
      <trkpt lat="43.94225" lon="1.85041">
        <ele>942.59997558594</ele>
        <time>2019-06-27T19:18:11.000Z</time>
      </trkpt>
      <trkpt lat="43.94225" lon="1.85043">
        <ele>942.59997558594</ele>
        <time>2019-06-27T19:18:12.000Z</time>
      </trkpt>
      <trkpt lat="43.94225" lon="1.85045">
        <ele>942.59997558594</ele>
        <time>2019-06-27T19:18:13.000Z</time>
      </trkpt>
      <trkpt lat="43.94224" lon="1.85048">
        <ele>942.79998779297</ele>
        <time>2019-06-27T19:18:14.000Z</time>
      </trkpt>
      <trkpt lat="43.94224" lon="1.85051">
        <ele>943</ele>
        <time>2019-06-27T19:18:15.000Z</time>
      </trkpt>
      <trkpt lat="43.94224" lon="1.85053">
        <ele>943.20001220703</ele>
        <time>2019-06-27T19:18:16.000Z</time>
      </trkpt>
      <trkpt lat="43.94225" lon="1.85055">
        <ele>943.40002441406</ele>
        <time>2019-06-27T19:18:17.000Z</time>
      </trkpt>
      <trkpt lat="43.94225" lon="1.85057">
        <ele>943.40002441406</ele>
        <time>2019-06-27T19:18:18.000Z</time>
      </trkpt>
      <trkpt lat="43.94226" lon="1.85059">
        <ele>943.40002441406</ele>
        <time>2019-06-27T19:18:19.000Z</time>
      </trkpt>
      <trkpt lat="43.94226" lon="1.85061">
        <ele>943.40002441406</ele>
        <time>2019-06-27T19:18:20.000Z</time>
      </trkpt>
      <trkpt lat="43.94227" lon="1.85063">
        <ele>943.59997558594</ele>
        <time>2019-06-27T19:18:21.000Z</time>
      </trkpt>
      <trkpt lat="43.94227" lon="1.85065">
        <ele>943.59997558594</ele>
        <time>2019-06-27T19:18:22.000Z</time>
      </trkpt>
      <trkpt lat="43.94227" lon="1.85067">
        <ele>943.79998779297</ele>
        <time>2019-06-27T19:18:23.000Z</time>
      </trkpt>
      <trkpt lat="43.94227" lon="1.85069">
        <ele>943.79998779297</ele>
        <time>2019-06-27T19:18:24.000Z</time>
      </trkpt>
      <trkpt lat="43.94227" lon="1.8507">
        <ele>944</ele>
        <time>2019-06-27T19:18:25.000Z</time>
      </trkpt>
      <trkpt lat="43.94227" lon="1.85072">
        <ele>944</ele>
        <time>2019-06-27T19:18:26.000Z</time>
      </trkpt>
      <trkpt lat="43.94227" lon="1.85073">
        <ele>944</ele>
        <time>2019-06-27T19:18:27.000Z</time>
      </trkpt>
      <trkpt lat="43.94227" lon="1.85072">
        <ele>944</ele>
        <time>2019-06-27T19:18:28.000Z</time>
      </trkpt>
      <trkpt lat="43.94226" lon="1.85073">
        <ele>944</ele>
        <time>2019-06-27T19:18:29.000Z</time>
      </trkpt>
      <trkpt lat="43.94226" lon="1.85073">
        <ele>944.20001220703</ele>
        <time>2019-06-27T19:18:30.000Z</time>
      </trkpt>
      <trkpt lat="43.94227" lon="1.85074">
        <ele>944.20001220703</ele>
        <time>2019-06-27T19:18:31.000Z</time>
      </trkpt>
      <trkpt lat="43.94227" lon="1.85073">
        <ele>944.20001220703</ele>
        <time>2019-06-27T19:18:32.000Z</time>
      </trkpt>
      <trkpt lat="43.94226" lon="1.85074">
        <ele>944.20001220703</ele>
        <time>2019-06-27T19:18:33.000Z</time>
      </trkpt>
      <trkpt lat="43.94226" lon="1.85074">
        <ele>944.20001220703</ele>
        <time>2019-06-27T19:18:34.000Z</time>
      </trkpt>
      <trkpt lat="43.94226" lon="1.85075">
        <ele>944.20001220703</ele>
        <time>2019-06-27T19:18:35.000Z</time>
      </trkpt>
      <trkpt lat="43.94226" lon="1.85077">
        <ele>944.20001220703</ele>
        <time>2019-06-27T19:18:36.000Z</time>
      </trkpt>
      <trkpt lat="43.94225" lon="1.85078">
        <ele>944.20001220703</ele>
        <time>2019-06-27T19:18:37.000Z</time>
      </trkpt>
      <trkpt lat="43.94224" lon="1.85078">
        <ele>944.40002441406</ele>
        <time>2019-06-27T19:18:38.000Z</time>
      </trkpt>
      <trkpt lat="43.94222" lon="1.85079">
        <ele>944.40002441406</ele>
        <time>2019-06-27T19:18:39.000Z</time>
      </trkpt>
      <trkpt lat="43.94221" lon="1.85078">
        <ele>944.40002441406</ele>
        <time>2019-06-27T19:18:40.000Z</time>
      </trkpt>
      <trkpt lat="43.9422" lon="1.85079">
        <ele>944.59997558594</ele>
        <time>2019-06-27T19:18:41.000Z</time>
      </trkpt>
      <trkpt lat="43.94219" lon="1.8508">
        <ele>944.79998779297</ele>
        <time>2019-06-27T19:18:42.000Z</time>
      </trkpt>
      <trkpt lat="43.94218" lon="1.85081">
        <ele>944.79998779297</ele>
        <time>2019-06-27T19:18:43.000Z</time>
      </trkpt>
      <trkpt lat="43.94217" lon="1.85081">
        <ele>944.79998779297</ele>
        <time>2019-06-27T19:18:44.000Z</time>
      </trkpt>
      <trkpt lat="43.94216" lon="1.85083">
        <ele>944.79998779297</ele>
        <time>2019-06-27T19:18:45.000Z</time>
      </trkpt>
      <trkpt lat="43.94215" lon="1.85084">
        <ele>945</ele>
        <time>2019-06-27T19:18:46.000Z</time>
      </trkpt>
      <trkpt lat="43.94214" lon="1.85085">
        <ele>945.20001220703</ele>
        <time>2019-06-27T19:18:47.000Z</time>
      </trkpt>
      <trkpt lat="43.94213" lon="1.85087">
        <ele>945.40002441406</ele>
        <time>2019-06-27T19:18:48.000Z</time>
      </trkpt>
      <trkpt lat="43.94212" lon="1.85088">
        <ele>945.40002441406</ele>
        <time>2019-06-27T19:18:49.000Z</time>
      </trkpt>
      <trkpt lat="43.94211" lon="1.85089">
        <ele>945.40002441406</ele>
        <time>2019-06-27T19:18:50.000Z</time>
      </trkpt>
      <trkpt lat="43.9421" lon="1.8509">
        <ele>945.59997558594</ele>
        <time>2019-06-27T19:18:51.000Z</time>
      </trkpt>
      <trkpt lat="43.94209" lon="1.85091">
        <ele>945.59997558594</ele>
        <time>2019-06-27T19:18:52.000Z</time>
      </trkpt>
      <trkpt lat="43.94208" lon="1.85092">
        <ele>945.79998779297</ele>
        <time>2019-06-27T19:18:53.000Z</time>
      </trkpt>
      <trkpt lat="43.94207" lon="1.85093">
        <ele>945.79998779297</ele>
        <time>2019-06-27T19:18:54.000Z</time>
      </trkpt>
      <trkpt lat="43.94205" lon="1.85094">
        <ele>946</ele>
        <time>2019-06-27T19:18:55.000Z</time>
      </trkpt>
      <trkpt lat="43.94204" lon="1.85094">
        <ele>946</ele>
        <time>2019-06-27T19:18:56.000Z</time>
      </trkpt>
      <trkpt lat="43.94203" lon="1.85096">
        <ele>946</ele>
        <time>2019-06-27T19:18:57.000Z</time>
      </trkpt>
      <trkpt lat="43.94202" lon="1.85097">
        <ele>946.20001220703</ele>
        <time>2019-06-27T19:18:58.000Z</time>
      </trkpt>
      <trkpt lat="43.94201" lon="1.85098">
        <ele>946.20001220703</ele>
        <time>2019-06-27T19:18:59.000Z</time>
      </trkpt>
      <trkpt lat="43.942" lon="1.85099">
        <ele>946.40002441406</ele>
        <time>2019-06-27T19:19:00.000Z</time>
      </trkpt>
      <trkpt lat="43.94198" lon="1.851">
        <ele>946.59997558594</ele>
        <time>2019-06-27T19:19:01.000Z</time>
      </trkpt>
      <trkpt lat="43.94197" lon="1.85102">
        <ele>946.59997558594</ele>
        <time>2019-06-27T19:19:02.000Z</time>
      </trkpt>
      <trkpt lat="43.94196" lon="1.85103">
        <ele>946.59997558594</ele>
        <time>2019-06-27T19:19:03.000Z</time>
      </trkpt>
      <trkpt lat="43.94196" lon="1.85104">
        <ele>946.79998779297</ele>
        <time>2019-06-27T19:19:04.000Z</time>
      </trkpt>
      <trkpt lat="43.94194" lon="1.85105">
        <ele>946.79998779297</ele>
        <time>2019-06-27T19:19:05.000Z</time>
      </trkpt>
      <trkpt lat="43.94193" lon="1.85107">
        <ele>947</ele>
        <time>2019-06-27T19:19:06.000Z</time>
      </trkpt>
      <trkpt lat="43.94192" lon="1.85108">
        <ele>947.20001220703</ele>
        <time>2019-06-27T19:19:07.000Z</time>
      </trkpt>
      <trkpt lat="43.94191" lon="1.85109">
        <ele>947.20001220703</ele>
        <time>2019-06-27T19:19:08.000Z</time>
      </trkpt>
      <trkpt lat="43.9419" lon="1.85111">
        <ele>947.20001220703</ele>
        <time>2019-06-27T19:19:09.000Z</time>
      </trkpt>
      <trkpt lat="43.94189" lon="1.85112">
        <ele>947.20001220703</ele>
        <time>2019-06-27T19:19:10.000Z</time>
      </trkpt>
      <trkpt lat="43.94188" lon="1.85113">
        <ele>947.40002441406</ele>
        <time>2019-06-27T19:19:11.000Z</time>
      </trkpt>
      <trkpt lat="43.94187" lon="1.85113">
        <ele>947.59997558594</ele>
        <time>2019-06-27T19:19:12.000Z</time>
      </trkpt>
      <trkpt lat="43.94185" lon="1.85114">
        <ele>947.59997558594</ele>
        <time>2019-06-27T19:19:13.000Z</time>
      </trkpt>
      <trkpt lat="43.94184" lon="1.85115">
        <ele>947.79998779297</ele>
        <time>2019-06-27T19:19:14.000Z</time>
      </trkpt>
      <trkpt lat="43.94183" lon="1.85117">
        <ele>948</ele>
        <time>2019-06-27T19:19:15.000Z</time>
      </trkpt>
      <trkpt lat="43.94182" lon="1.85118">
        <ele>948</ele>
        <time>2019-06-27T19:19:16.000Z</time>
      </trkpt>
      <trkpt lat="43.94181" lon="1.85119">
        <ele>948</ele>
        <time>2019-06-27T19:19:17.000Z</time>
      </trkpt>
      <trkpt lat="43.9418" lon="1.85121">
        <ele>948.20001220703</ele>
        <time>2019-06-27T19:19:18.000Z</time>
      </trkpt>
      <trkpt lat="43.94178" lon="1.85122">
        <ele>948.20001220703</ele>
        <time>2019-06-27T19:19:19.000Z</time>
      </trkpt>
      <trkpt lat="43.94178" lon="1.85123">
        <ele>948.40002441406</ele>
        <time>2019-06-27T19:19:20.000Z</time>
      </trkpt>
      <trkpt lat="43.94177" lon="1.85125">
        <ele>948.40002441406</ele>
        <time>2019-06-27T19:19:21.000Z</time>
      </trkpt>
      <trkpt lat="43.94176" lon="1.85126">
        <ele>948.59997558594</ele>
        <time>2019-06-27T19:19:22.000Z</time>
      </trkpt>
      <trkpt lat="43.94175" lon="1.85128">
        <ele>948.79998779297</ele>
        <time>2019-06-27T19:19:23.000Z</time>
      </trkpt>
      <trkpt lat="43.94174" lon="1.85129">
        <ele>948.79998779297</ele>
        <time>2019-06-27T19:19:24.000Z</time>
      </trkpt>
      <trkpt lat="43.94173" lon="1.8513">
        <ele>948.79998779297</ele>
        <time>2019-06-27T19:19:25.000Z</time>
      </trkpt>
      <trkpt lat="43.94171" lon="1.85131">
        <ele>949</ele>
        <time>2019-06-27T19:19:26.000Z</time>
      </trkpt>
      <trkpt lat="43.9417" lon="1.85132">
        <ele>949.20001220703</ele>
        <time>2019-06-27T19:19:27.000Z</time>
      </trkpt>
      <trkpt lat="43.94168" lon="1.85133">
        <ele>949.20001220703</ele>
        <time>2019-06-27T19:19:28.000Z</time>
      </trkpt>
      <trkpt lat="43.94167" lon="1.85134">
        <ele>949.40002441406</ele>
        <time>2019-06-27T19:19:29.000Z</time>
      </trkpt>
      <trkpt lat="43.94165" lon="1.85135">
        <ele>949.40002441406</ele>
        <time>2019-06-27T19:19:30.000Z</time>
      </trkpt>
      <trkpt lat="43.94164" lon="1.85136">
        <ele>949.59997558594</ele>
        <time>2019-06-27T19:19:31.000Z</time>
      </trkpt>
      <trkpt lat="43.94163" lon="1.85138">
        <ele>949.79998779297</ele>
        <time>2019-06-27T19:19:32.000Z</time>
      </trkpt>
      <trkpt lat="43.94162" lon="1.8514">
        <ele>949.79998779297</ele>
        <time>2019-06-27T19:19:33.000Z</time>
      </trkpt>
      <trkpt lat="43.94161" lon="1.85141">
        <ele>950</ele>
        <time>2019-06-27T19:19:34.000Z</time>
      </trkpt>
      <trkpt lat="43.94159" lon="1.85143">
        <ele>950</ele>
        <time>2019-06-27T19:19:35.000Z</time>
      </trkpt>
      <trkpt lat="43.94158" lon="1.85143">
        <ele>950.20001220703</ele>
        <time>2019-06-27T19:19:36.000Z</time>
      </trkpt>
      <trkpt lat="43.94157" lon="1.85144">
        <ele>950.40002441406</ele>
        <time>2019-06-27T19:19:37.000Z</time>
      </trkpt>
      <trkpt lat="43.94156" lon="1.85145">
        <ele>950.40002441406</ele>
        <time>2019-06-27T19:19:38.000Z</time>
      </trkpt>
      <trkpt lat="43.94154" lon="1.85146">
        <ele>950.59997558594</ele>
        <time>2019-06-27T19:19:39.000Z</time>
      </trkpt>
      <trkpt lat="43.94153" lon="1.85148">
        <ele>950.59997558594</ele>
        <time>2019-06-27T19:19:40.000Z</time>
      </trkpt>
      <trkpt lat="43.94152" lon="1.85149">
        <ele>950.59997558594</ele>
        <time>2019-06-27T19:19:41.000Z</time>
      </trkpt>
      <trkpt lat="43.9415" lon="1.8515">
        <ele>950.79998779297</ele>
        <time>2019-06-27T19:19:42.000Z</time>
      </trkpt>
      <trkpt lat="43.94149" lon="1.85151">
        <ele>950.79998779297</ele>
        <time>2019-06-27T19:19:43.000Z</time>
      </trkpt>
      <trkpt lat="43.94148" lon="1.85152">
        <ele>950.79998779297</ele>
        <time>2019-06-27T19:19:44.000Z</time>
      </trkpt>
      <trkpt lat="43.94146" lon="1.85153">
        <ele>951</ele>
        <time>2019-06-27T19:19:45.000Z</time>
      </trkpt>
      <trkpt lat="43.94145" lon="1.85154">
        <ele>951</ele>
        <time>2019-06-27T19:19:46.000Z</time>
      </trkpt>
      <trkpt lat="43.94143" lon="1.85154">
        <ele>951.20001220703</ele>
        <time>2019-06-27T19:19:47.000Z</time>
      </trkpt>
      <trkpt lat="43.94141" lon="1.85155">
        <ele>951.40002441406</ele>
        <time>2019-06-27T19:19:48.000Z</time>
      </trkpt>
      <trkpt lat="43.9414" lon="1.85155">
        <ele>951.40002441406</ele>
        <time>2019-06-27T19:19:49.000Z</time>
      </trkpt>
      <trkpt lat="43.94139" lon="1.85156">
        <ele>951.40002441406</ele>
        <time>2019-06-27T19:19:50.000Z</time>
      </trkpt>
      <trkpt lat="43.94137" lon="1.85157">
        <ele>951.59997558594</ele>
        <time>2019-06-27T19:19:51.000Z</time>
      </trkpt>
      <trkpt lat="43.94136" lon="1.85158">
        <ele>951.79998779297</ele>
        <time>2019-06-27T19:19:52.000Z</time>
      </trkpt>
      <trkpt lat="43.94135" lon="1.8516">
        <ele>952</ele>
        <time>2019-06-27T19:19:53.000Z</time>
      </trkpt>
      <trkpt lat="43.94134" lon="1.85161">
        <ele>952</ele>
        <time>2019-06-27T19:19:54.000Z</time>
      </trkpt>
      <trkpt lat="43.94133" lon="1.85163">
        <ele>952</ele>
        <time>2019-06-27T19:19:55.000Z</time>
      </trkpt>
      <trkpt lat="43.94132" lon="1.85164">
        <ele>952</ele>
        <time>2019-06-27T19:19:56.000Z</time>
      </trkpt>
      <trkpt lat="43.9413" lon="1.85165">
        <ele>952</ele>
        <time>2019-06-27T19:19:57.000Z</time>
      </trkpt>
      <trkpt lat="43.94128" lon="1.85166">
        <ele>952.20001220703</ele>
        <time>2019-06-27T19:19:58.000Z</time>
      </trkpt>
      <trkpt lat="43.94126" lon="1.85167">
        <ele>952.20001220703</ele>
        <time>2019-06-27T19:19:59.000Z</time>
      </trkpt>
      <trkpt lat="43.94124" lon="1.85167">
        <ele>952.40002441406</ele>
        <time>2019-06-27T19:20:00.000Z</time>
      </trkpt>
      <trkpt lat="43.94122" lon="1.85168">
        <ele>952.20001220703</ele>
        <time>2019-06-27T19:20:01.000Z</time>
      </trkpt>
      <trkpt lat="43.9412" lon="1.85168">
        <ele>952.40002441406</ele>
        <time>2019-06-27T19:20:02.000Z</time>
      </trkpt>
      <trkpt lat="43.94118" lon="1.85168">
        <ele>952.40002441406</ele>
        <time>2019-06-27T19:20:03.000Z</time>
      </trkpt>
      <trkpt lat="43.94116" lon="1.85169">
        <ele>952.40002441406</ele>
        <time>2019-06-27T19:20:04.000Z</time>
      </trkpt>
      <trkpt lat="43.94113" lon="1.85169">
        <ele>952.40002441406</ele>
        <time>2019-06-27T19:20:05.000Z</time>
      </trkpt>
      <trkpt lat="43.94111" lon="1.85169">
        <ele>952.40002441406</ele>
        <time>2019-06-27T19:20:06.000Z</time>
      </trkpt>
      <trkpt lat="43.94108" lon="1.8517">
        <ele>952.40002441406</ele>
        <time>2019-06-27T19:20:07.000Z</time>
      </trkpt>
      <trkpt lat="43.94106" lon="1.8517">
        <ele>952.40002441406</ele>
        <time>2019-06-27T19:20:08.000Z</time>
      </trkpt>
      <trkpt lat="43.94103" lon="1.85171">
        <ele>952.40002441406</ele>
        <time>2019-06-27T19:20:09.000Z</time>
      </trkpt>
      <trkpt lat="43.94101" lon="1.85171">
        <ele>952.20001220703</ele>
        <time>2019-06-27T19:20:10.000Z</time>
      </trkpt>
      <trkpt lat="43.94099" lon="1.85172">
        <ele>952.20001220703</ele>
        <time>2019-06-27T19:20:11.000Z</time>
      </trkpt>
      <trkpt lat="43.94096" lon="1.85174">
        <ele>952.20001220703</ele>
        <time>2019-06-27T19:20:12.000Z</time>
      </trkpt>
      <trkpt lat="43.94093" lon="1.85175">
        <ele>952.20001220703</ele>
        <time>2019-06-27T19:20:13.000Z</time>
      </trkpt>
      <trkpt lat="43.9409" lon="1.85175">
        <ele>952.20001220703</ele>
        <time>2019-06-27T19:20:14.000Z</time>
      </trkpt>
      <trkpt lat="43.94088" lon="1.85177">
        <ele>952.20001220703</ele>
        <time>2019-06-27T19:20:15.000Z</time>
      </trkpt>
      <trkpt lat="43.94084" lon="1.85178">
        <ele>951.79998779297</ele>
        <time>2019-06-27T19:20:16.000Z</time>
      </trkpt>
      <trkpt lat="43.94081" lon="1.85179">
        <ele>951.40002441406</ele>
        <time>2019-06-27T19:20:17.000Z</time>
      </trkpt>
      <trkpt lat="43.94077" lon="1.8518">
        <ele>950.59997558594</ele>
        <time>2019-06-27T19:20:18.000Z</time>
      </trkpt>
      <trkpt lat="43.94073" lon="1.85181">
        <ele>950</ele>
        <time>2019-06-27T19:20:19.000Z</time>
      </trkpt>
      <trkpt lat="43.94069" lon="1.85181">
        <ele>949.40002441406</ele>
        <time>2019-06-27T19:20:20.000Z</time>
      </trkpt>
      <trkpt lat="43.94064" lon="1.85181">
        <ele>948.79998779297</ele>
        <time>2019-06-27T19:20:21.000Z</time>
      </trkpt>
      <trkpt lat="43.94061" lon="1.85181">
        <ele>948.20001220703</ele>
        <time>2019-06-27T19:20:22.000Z</time>
      </trkpt>
      <trkpt lat="43.94057" lon="1.85182">
        <ele>947.59997558594</ele>
        <time>2019-06-27T19:20:23.000Z</time>
      </trkpt>
      <trkpt lat="43.94054" lon="1.85182">
        <ele>947</ele>
        <time>2019-06-27T19:20:24.000Z</time>
      </trkpt>
      <trkpt lat="43.94051" lon="1.85183">
        <ele>946.40002441406</ele>
        <time>2019-06-27T19:20:25.000Z</time>
      </trkpt>
      <trkpt lat="43.94049" lon="1.85183">
        <ele>946</ele>
        <time>2019-06-27T19:20:26.000Z</time>
      </trkpt>
      <trkpt lat="43.94048" lon="1.85185">
        <ele>945.59997558594</ele>
        <time>2019-06-27T19:20:27.000Z</time>
      </trkpt>
      <trkpt lat="43.94048" lon="1.85187">
        <ele>945.20001220703</ele>
        <time>2019-06-27T19:20:28.000Z</time>
      </trkpt>
      <trkpt lat="43.94049" lon="1.8519">
        <ele>945</ele>
        <time>2019-06-27T19:20:29.000Z</time>
      </trkpt>
      <trkpt lat="43.9405" lon="1.85193">
        <ele>944.59997558594</ele>
        <time>2019-06-27T19:20:30.000Z</time>
      </trkpt>
      <trkpt lat="43.94052" lon="1.85196">
        <ele>944.20001220703</ele>
        <time>2019-06-27T19:20:31.000Z</time>
      </trkpt>
      <trkpt lat="43.94054" lon="1.852">
        <ele>944</ele>
        <time>2019-06-27T19:20:32.000Z</time>
      </trkpt>
      <trkpt lat="43.94057" lon="1.85204">
        <ele>943.40002441406</ele>
        <time>2019-06-27T19:20:33.000Z</time>
      </trkpt>
      <trkpt lat="43.94061" lon="1.85209">
        <ele>943</ele>
        <time>2019-06-27T19:20:34.000Z</time>
      </trkpt>
      <trkpt lat="43.94066" lon="1.85216">
        <ele>942.59997558594</ele>
        <time>2019-06-27T19:20:35.000Z</time>
      </trkpt>
      <trkpt lat="43.94071" lon="1.85222">
        <ele>942.40002441406</ele>
        <time>2019-06-27T19:20:36.000Z</time>
      </trkpt>
      <trkpt lat="43.94077" lon="1.85229">
        <ele>942</ele>
        <time>2019-06-27T19:20:37.000Z</time>
      </trkpt>
      <trkpt lat="43.94083" lon="1.85236">
        <ele>941.59997558594</ele>
        <time>2019-06-27T19:20:38.000Z</time>
      </trkpt>
      <trkpt lat="43.9409" lon="1.85243">
        <ele>940.79998779297</ele>
        <time>2019-06-27T19:20:39.000Z</time>
      </trkpt>
      <trkpt lat="43.94096" lon="1.8525">
        <ele>940.20001220703</ele>
        <time>2019-06-27T19:20:40.000Z</time>
      </trkpt>
      <trkpt lat="43.94101" lon="1.85256">
        <ele>939.20001220703</ele>
        <time>2019-06-27T19:20:41.000Z</time>
      </trkpt>
      <trkpt lat="43.94105" lon="1.85263">
        <ele>937.20001220703</ele>
        <time>2019-06-27T19:20:42.000Z</time>
      </trkpt>
      <trkpt lat="43.94107" lon="1.8527">
        <ele>936.40002441406</ele>
        <time>2019-06-27T19:20:43.000Z</time>
      </trkpt>
      <trkpt lat="43.94107" lon="1.85279">
        <ele>936</ele>
        <time>2019-06-27T19:20:44.000Z</time>
      </trkpt>
      <trkpt lat="43.94107" lon="1.85289">
        <ele>935.40002441406</ele>
        <time>2019-06-27T19:20:45.000Z</time>
      </trkpt>
      <trkpt lat="43.94106" lon="1.85299">
        <ele>934.59997558594</ele>
        <time>2019-06-27T19:20:46.000Z</time>
      </trkpt>
      <trkpt lat="43.94105" lon="1.85311">
        <ele>933.79998779297</ele>
        <time>2019-06-27T19:20:47.000Z</time>
      </trkpt>
      <trkpt lat="43.94104" lon="1.85323">
        <ele>933.20001220703</ele>
        <time>2019-06-27T19:20:48.000Z</time>
      </trkpt>
      <trkpt lat="43.94104" lon="1.85334">
        <ele>932.79998779297</ele>
        <time>2019-06-27T19:20:49.000Z</time>
      </trkpt>
      <trkpt lat="43.94103" lon="1.85346">
        <ele>932</ele>
        <time>2019-06-27T19:20:50.000Z</time>
      </trkpt>
      <trkpt lat="43.94103" lon="1.85357">
        <ele>931.20001220703</ele>
        <time>2019-06-27T19:20:51.000Z</time>
      </trkpt>
      <trkpt lat="43.94102" lon="1.8537">
        <ele>930.40002441406</ele>
        <time>2019-06-27T19:20:52.000Z</time>
      </trkpt>
      <trkpt lat="43.941" lon="1.85381">
        <ele>930</ele>
        <time>2019-06-27T19:20:53.000Z</time>
      </trkpt>
      <trkpt lat="43.94099" lon="1.85391">
        <ele>929.40002441406</ele>
        <time>2019-06-27T19:20:54.000Z</time>
      </trkpt>
      <trkpt lat="43.94096" lon="1.854">
        <ele>928.79998779297</ele>
        <time>2019-06-27T19:20:55.000Z</time>
      </trkpt>
      <trkpt lat="43.94093" lon="1.85409">
        <ele>928</ele>
        <time>2019-06-27T19:20:56.000Z</time>
      </trkpt>
      <trkpt lat="43.94089" lon="1.85418">
        <ele>927.59997558594</ele>
        <time>2019-06-27T19:20:57.000Z</time>
      </trkpt>
      <trkpt lat="43.94086" lon="1.85426">
        <ele>927.59997558594</ele>
        <time>2019-06-27T19:20:58.000Z</time>
      </trkpt>
      <trkpt lat="43.94081" lon="1.85434">
        <ele>927.20001220703</ele>
        <time>2019-06-27T19:20:59.000Z</time>
      </trkpt>
      <trkpt lat="43.94077" lon="1.85443">
        <ele>926.79998779297</ele>
        <time>2019-06-27T19:21:00.000Z</time>
      </trkpt>
      <trkpt lat="43.94073" lon="1.85451">
        <ele>926.40002441406</ele>
        <time>2019-06-27T19:21:01.000Z</time>
      </trkpt>
      <trkpt lat="43.94069" lon="1.85459">
        <ele>926.59997558594</ele>
        <time>2019-06-27T19:21:02.000Z</time>
      </trkpt>
      <trkpt lat="43.94064" lon="1.85467">
        <ele>926.79998779297</ele>
        <time>2019-06-27T19:21:03.000Z</time>
      </trkpt>
      <trkpt lat="43.9406" lon="1.85476">
        <ele>926.59997558594</ele>
        <time>2019-06-27T19:21:04.000Z</time>
      </trkpt>
      <trkpt lat="43.94055" lon="1.85484">
        <ele>926</ele>
        <time>2019-06-27T19:21:05.000Z</time>
      </trkpt>
      <trkpt lat="43.9405" lon="1.85492">
        <ele>924.20001220703</ele>
        <time>2019-06-27T19:21:06.000Z</time>
      </trkpt>
      <trkpt lat="43.94046" lon="1.855">
        <ele>923.79998779297</ele>
        <time>2019-06-27T19:21:07.000Z</time>
      </trkpt>
      <trkpt lat="43.94042" lon="1.85508">
        <ele>923</ele>
        <time>2019-06-27T19:21:08.000Z</time>
      </trkpt>
      <trkpt lat="43.94038" lon="1.85516">
        <ele>922.59997558594</ele>
        <time>2019-06-27T19:21:09.000Z</time>
      </trkpt>
      <trkpt lat="43.94034" lon="1.85524">
        <ele>921.59997558594</ele>
        <time>2019-06-27T19:21:10.000Z</time>
      </trkpt>
      <trkpt lat="43.9403" lon="1.85532">
        <ele>920.79998779297</ele>
        <time>2019-06-27T19:21:11.000Z</time>
      </trkpt>
      <trkpt lat="43.94026" lon="1.85541">
        <ele>919.79998779297</ele>
        <time>2019-06-27T19:21:12.000Z</time>
      </trkpt>
      <trkpt lat="43.94022" lon="1.8555">
        <ele>919</ele>
        <time>2019-06-27T19:21:13.000Z</time>
      </trkpt>
      <trkpt lat="43.94018" lon="1.8556">
        <ele>918.59997558594</ele>
        <time>2019-06-27T19:21:14.000Z</time>
      </trkpt>
      <trkpt lat="43.94014" lon="1.8557">
        <ele>918.20001220703</ele>
        <time>2019-06-27T19:21:15.000Z</time>
      </trkpt>
      <trkpt lat="43.9401" lon="1.85579">
        <ele>917.59997558594</ele>
        <time>2019-06-27T19:21:16.000Z</time>
      </trkpt>
      <trkpt lat="43.94005" lon="1.85589">
        <ele>916.59997558594</ele>
        <time>2019-06-27T19:21:17.000Z</time>
      </trkpt>
      <trkpt lat="43.94" lon="1.85598">
        <ele>915.40002441406</ele>
        <time>2019-06-27T19:21:18.000Z</time>
      </trkpt>
      <trkpt lat="43.93993" lon="1.85608">
        <ele>914.59997558594</ele>
        <time>2019-06-27T19:21:19.000Z</time>
      </trkpt>
      <trkpt lat="43.93987" lon="1.85618">
        <ele>913.79998779297</ele>
        <time>2019-06-27T19:21:20.000Z</time>
      </trkpt>
      <trkpt lat="43.9398" lon="1.85629">
        <ele>913</ele>
        <time>2019-06-27T19:21:21.000Z</time>
      </trkpt>
      <trkpt lat="43.93973" lon="1.85639">
        <ele>912.40002441406</ele>
        <time>2019-06-27T19:21:22.000Z</time>
      </trkpt>
      <trkpt lat="43.93967" lon="1.85649">
        <ele>912</ele>
        <time>2019-06-27T19:21:23.000Z</time>
      </trkpt>
      <trkpt lat="43.93962" lon="1.85658">
        <ele>911.59997558594</ele>
        <time>2019-06-27T19:21:24.000Z</time>
      </trkpt>
      <trkpt lat="43.93958" lon="1.85668">
        <ele>910.20001220703</ele>
        <time>2019-06-27T19:21:25.000Z</time>
      </trkpt>
      <trkpt lat="43.93955" lon="1.85677">
        <ele>909.20001220703</ele>
        <time>2019-06-27T19:21:26.000Z</time>
      </trkpt>
      <trkpt lat="43.93952" lon="1.85687">
        <ele>908.20001220703</ele>
        <time>2019-06-27T19:21:27.000Z</time>
      </trkpt>
      <trkpt lat="43.9395" lon="1.85698">
        <ele>907.40002441406</ele>
        <time>2019-06-27T19:21:28.000Z</time>
      </trkpt>
      <trkpt lat="43.93948" lon="1.85709">
        <ele>906.79998779297</ele>
        <time>2019-06-27T19:21:29.000Z</time>
      </trkpt>
      <trkpt lat="43.93946" lon="1.8572">
        <ele>906.20001220703</ele>
        <time>2019-06-27T19:21:30.000Z</time>
      </trkpt>
      <trkpt lat="43.93945" lon="1.8573">
        <ele>905.79998779297</ele>
        <time>2019-06-27T19:21:31.000Z</time>
      </trkpt>
      <trkpt lat="43.93945" lon="1.85738">
        <ele>905.40002441406</ele>
        <time>2019-06-27T19:21:32.000Z</time>
      </trkpt>
      <trkpt lat="43.93945" lon="1.85746">
        <ele>904.59997558594</ele>
        <time>2019-06-27T19:21:33.000Z</time>
      </trkpt>
      <trkpt lat="43.93949" lon="1.85751">
        <ele>903.59997558594</ele>
        <time>2019-06-27T19:21:34.000Z</time>
      </trkpt>
      <trkpt lat="43.93953" lon="1.85755">
        <ele>902.59997558594</ele>
        <time>2019-06-27T19:21:35.000Z</time>
      </trkpt>
      <trkpt lat="43.93959" lon="1.85756">
        <ele>901.79998779297</ele>
        <time>2019-06-27T19:21:36.000Z</time>
      </trkpt>
      <trkpt lat="43.93965" lon="1.85757">
        <ele>901.20001220703</ele>
        <time>2019-06-27T19:21:37.000Z</time>
      </trkpt>
      <trkpt lat="43.93973" lon="1.85759">
        <ele>900.59997558594</ele>
        <time>2019-06-27T19:21:38.000Z</time>
      </trkpt>
      <trkpt lat="43.93981" lon="1.8576">
        <ele>900.20001220703</ele>
        <time>2019-06-27T19:21:39.000Z</time>
      </trkpt>
      <trkpt lat="43.93989" lon="1.85763">
        <ele>899.79998779297</ele>
        <time>2019-06-27T19:21:40.000Z</time>
      </trkpt>
      <trkpt lat="43.93997" lon="1.85767">
        <ele>899.20001220703</ele>
        <time>2019-06-27T19:21:41.000Z</time>
      </trkpt>
      <trkpt lat="43.94004" lon="1.8577">
        <ele>898.40002441406</ele>
        <time>2019-06-27T19:21:42.000Z</time>
      </trkpt>
      <trkpt lat="43.94011" lon="1.85773">
        <ele>897.59997558594</ele>
        <time>2019-06-27T19:21:43.000Z</time>
      </trkpt>
      <trkpt lat="43.94017" lon="1.85776">
        <ele>896.59997558594</ele>
        <time>2019-06-27T19:21:44.000Z</time>
      </trkpt>
      <trkpt lat="43.94025" lon="1.85777">
        <ele>896</ele>
        <time>2019-06-27T19:21:45.000Z</time>
      </trkpt>
      <trkpt lat="43.94033" lon="1.85778">
        <ele>895</ele>
        <time>2019-06-27T19:21:46.000Z</time>
      </trkpt>
      <trkpt lat="43.94042" lon="1.85777">
        <ele>894.40002441406</ele>
        <time>2019-06-27T19:21:47.000Z</time>
      </trkpt>
      <trkpt lat="43.94052" lon="1.85775">
        <ele>893.59997558594</ele>
        <time>2019-06-27T19:21:48.000Z</time>
      </trkpt>
      <trkpt lat="43.94061" lon="1.85774">
        <ele>893.40002441406</ele>
        <time>2019-06-27T19:21:49.000Z</time>
      </trkpt>
      <trkpt lat="43.94071" lon="1.85773">
        <ele>892.40002441406</ele>
        <time>2019-06-27T19:21:50.000Z</time>
      </trkpt>
      <trkpt lat="43.9408" lon="1.85773">
        <ele>892</ele>
        <time>2019-06-27T19:21:51.000Z</time>
      </trkpt>
      <trkpt lat="43.94088" lon="1.85775">
        <ele>891.20001220703</ele>
        <time>2019-06-27T19:21:52.000Z</time>
      </trkpt>
      <trkpt lat="43.94096" lon="1.85778">
        <ele>890.40002441406</ele>
        <time>2019-06-27T19:21:53.000Z</time>
      </trkpt>
      <trkpt lat="43.94103" lon="1.85783">
        <ele>888.79998779297</ele>
        <time>2019-06-27T19:21:54.000Z</time>
      </trkpt>
      <trkpt lat="43.94109" lon="1.8579">
        <ele>888.40002441406</ele>
        <time>2019-06-27T19:21:55.000Z</time>
      </trkpt>
      <trkpt lat="43.94114" lon="1.85798">
        <ele>888.40002441406</ele>
        <time>2019-06-27T19:21:56.000Z</time>
      </trkpt>
      <trkpt lat="43.94118" lon="1.85803">
        <ele>888.20001220703</ele>
        <time>2019-06-27T19:21:57.000Z</time>
      </trkpt>
      <trkpt lat="43.94119" lon="1.85807">
        <ele>887.79998779297</ele>
        <time>2019-06-27T19:21:58.000Z</time>
      </trkpt>
      <trkpt lat="43.94119" lon="1.85811">
        <ele>887.59997558594</ele>
        <time>2019-06-27T19:21:59.000Z</time>
      </trkpt>
      <trkpt lat="43.94118" lon="1.85815">
        <ele>887.59997558594</ele>
        <time>2019-06-27T19:22:00.000Z</time>
      </trkpt>
      <trkpt lat="43.94116" lon="1.85818">
        <ele>887.40002441406</ele>
        <time>2019-06-27T19:22:01.000Z</time>
      </trkpt>
      <trkpt lat="43.94115" lon="1.85821">
        <ele>887.40002441406</ele>
        <time>2019-06-27T19:22:02.000Z</time>
      </trkpt>
      <trkpt lat="43.94114" lon="1.85823">
        <ele>887.40002441406</ele>
        <time>2019-06-27T19:22:03.000Z</time>
      </trkpt>
      <trkpt lat="43.94112" lon="1.85826">
        <ele>887.20001220703</ele>
        <time>2019-06-27T19:22:04.000Z</time>
      </trkpt>
      <trkpt lat="43.94111" lon="1.85829">
        <ele>887.20001220703</ele>
        <time>2019-06-27T19:22:05.000Z</time>
      </trkpt>
      <trkpt lat="43.94109" lon="1.85831">
        <ele>887.20001220703</ele>
        <time>2019-06-27T19:22:06.000Z</time>
      </trkpt>
      <trkpt lat="43.94109" lon="1.85834">
        <ele>887.20001220703</ele>
        <time>2019-06-27T19:22:07.000Z</time>
      </trkpt>
      <trkpt lat="43.94107" lon="1.85836">
        <ele>887.20001220703</ele>
        <time>2019-06-27T19:22:08.000Z</time>
      </trkpt>
      <trkpt lat="43.94106" lon="1.85838">
        <ele>887.20001220703</ele>
        <time>2019-06-27T19:22:09.000Z</time>
      </trkpt>
      <trkpt lat="43.94105" lon="1.8584">
        <ele>887.20001220703</ele>
        <time>2019-06-27T19:22:10.000Z</time>
      </trkpt>
      <trkpt lat="43.94104" lon="1.85842">
        <ele>887.20001220703</ele>
        <time>2019-06-27T19:22:11.000Z</time>
      </trkpt>
      <trkpt lat="43.94103" lon="1.85844">
        <ele>887</ele>
        <time>2019-06-27T19:22:12.000Z</time>
      </trkpt>
      <trkpt lat="43.94102" lon="1.85847">
        <ele>887</ele>
        <time>2019-06-27T19:22:13.000Z</time>
      </trkpt>
      <trkpt lat="43.94101" lon="1.8585">
        <ele>887</ele>
        <time>2019-06-27T19:22:14.000Z</time>
      </trkpt>
      <trkpt lat="43.941" lon="1.85853">
        <ele>887.20001220703</ele>
        <time>2019-06-27T19:22:15.000Z</time>
      </trkpt>
      <trkpt lat="43.94099" lon="1.85856">
        <ele>887</ele>
        <time>2019-06-27T19:22:16.000Z</time>
      </trkpt>
      <trkpt lat="43.94097" lon="1.85858">
        <ele>887.20001220703</ele>
        <time>2019-06-27T19:22:17.000Z</time>
      </trkpt>
      <trkpt lat="43.94096" lon="1.8586">
        <ele>887</ele>
        <time>2019-06-27T19:22:18.000Z</time>
      </trkpt>
      <trkpt lat="43.94096" lon="1.85863">
        <ele>887</ele>
        <time>2019-06-27T19:22:19.000Z</time>
      </trkpt>
      <trkpt lat="43.94095" lon="1.85865">
        <ele>887</ele>
        <time>2019-06-27T19:22:20.000Z</time>
      </trkpt>
      <trkpt lat="43.94093" lon="1.85866">
        <ele>887</ele>
        <time>2019-06-27T19:22:21.000Z</time>
      </trkpt>
      <trkpt lat="43.94092" lon="1.85868">
        <ele>887</ele>
        <time>2019-06-27T19:22:22.000Z</time>
      </trkpt>
      <trkpt lat="43.94091" lon="1.8587">
        <ele>887</ele>
        <time>2019-06-27T19:22:23.000Z</time>
      </trkpt>
      <trkpt lat="43.9409" lon="1.85872">
        <ele>887</ele>
        <time>2019-06-27T19:22:24.000Z</time>
      </trkpt>
      <trkpt lat="43.9409" lon="1.85874">
        <ele>887</ele>
        <time>2019-06-27T19:22:25.000Z</time>
      </trkpt>
      <trkpt lat="43.94089" lon="1.85876">
        <ele>887</ele>
        <time>2019-06-27T19:22:26.000Z</time>
      </trkpt>
      <trkpt lat="43.94088" lon="1.85878">
        <ele>887</ele>
        <time>2019-06-27T19:22:27.000Z</time>
      </trkpt>
      <trkpt lat="43.94087" lon="1.85881">
        <ele>887</ele>
        <time>2019-06-27T19:22:28.000Z</time>
      </trkpt>
      <trkpt lat="43.94086" lon="1.85884">
        <ele>887</ele>
        <time>2019-06-27T19:22:29.000Z</time>
      </trkpt>
      <trkpt lat="43.94084" lon="1.85887">
        <ele>887</ele>
        <time>2019-06-27T19:22:30.000Z</time>
      </trkpt>
      <trkpt lat="43.94083" lon="1.8589">
        <ele>887</ele>
        <time>2019-06-27T19:22:31.000Z</time>
      </trkpt>
      <trkpt lat="43.94081" lon="1.85893">
        <ele>887</ele>
        <time>2019-06-27T19:22:32.000Z</time>
      </trkpt>
      <trkpt lat="43.9408" lon="1.85897">
        <ele>887</ele>
        <time>2019-06-27T19:22:33.000Z</time>
      </trkpt>
      <trkpt lat="43.94079" lon="1.85901">
        <ele>887.20001220703</ele>
        <time>2019-06-27T19:22:34.000Z</time>
      </trkpt>
      <trkpt lat="43.94077" lon="1.85905">
        <ele>887.20001220703</ele>
        <time>2019-06-27T19:22:35.000Z</time>
      </trkpt>
      <trkpt lat="43.94075" lon="1.85909">
        <ele>887.20001220703</ele>
        <time>2019-06-27T19:22:36.000Z</time>
      </trkpt>
      <trkpt lat="43.94073" lon="1.85913">
        <ele>887.20001220703</ele>
        <time>2019-06-27T19:22:37.000Z</time>
      </trkpt>
      <trkpt lat="43.9407" lon="1.85916">
        <ele>887.20001220703</ele>
        <time>2019-06-27T19:22:38.000Z</time>
      </trkpt>
      <trkpt lat="43.94068" lon="1.85919">
        <ele>887.20001220703</ele>
        <time>2019-06-27T19:22:39.000Z</time>
      </trkpt>
      <trkpt lat="43.94067" lon="1.85923">
        <ele>887.20001220703</ele>
        <time>2019-06-27T19:22:40.000Z</time>
      </trkpt>
      <trkpt lat="43.94065" lon="1.85925">
        <ele>887.20001220703</ele>
        <time>2019-06-27T19:22:41.000Z</time>
      </trkpt>
      <trkpt lat="43.94063" lon="1.85929">
        <ele>887</ele>
        <time>2019-06-27T19:22:42.000Z</time>
      </trkpt>
      <trkpt lat="43.94062" lon="1.85931">
        <ele>887</ele>
        <time>2019-06-27T19:22:43.000Z</time>
      </trkpt>
      <trkpt lat="43.94061" lon="1.85934">
        <ele>886.79998779297</ele>
        <time>2019-06-27T19:22:44.000Z</time>
      </trkpt>
      <trkpt lat="43.94061" lon="1.85937">
        <ele>886.79998779297</ele>
        <time>2019-06-27T19:22:45.000Z</time>
      </trkpt>
      <trkpt lat="43.94062" lon="1.85939">
        <ele>886.79998779297</ele>
        <time>2019-06-27T19:22:46.000Z</time>
      </trkpt>
      <trkpt lat="43.94063" lon="1.8594">
        <ele>886.79998779297</ele>
        <time>2019-06-27T19:22:47.000Z</time>
      </trkpt>
      <trkpt lat="43.94065" lon="1.85939">
        <ele>886.79998779297</ele>
        <time>2019-06-27T19:22:48.000Z</time>
      </trkpt>
      <trkpt lat="43.94066" lon="1.85939">
        <ele>886.79998779297</ele>
        <time>2019-06-27T19:22:49.000Z</time>
      </trkpt>
      <trkpt lat="43.94067" lon="1.85938">
        <ele>887</ele>
        <time>2019-06-27T19:22:50.000Z</time>
      </trkpt>
      <trkpt lat="43.94068" lon="1.85938">
        <ele>887.20001220703</ele>
        <time>2019-06-27T19:22:51.000Z</time>
      </trkpt>
      <trkpt lat="43.94069" lon="1.85937">
        <ele>887.20001220703</ele>
        <time>2019-06-27T19:22:52.000Z</time>
      </trkpt>
      <trkpt lat="43.9407" lon="1.85936">
        <ele>887.40002441406</ele>
        <time>2019-06-27T19:22:53.000Z</time>
      </trkpt>
      <trkpt lat="43.94071" lon="1.85935">
        <ele>887.59997558594</ele>
        <time>2019-06-27T19:22:54.000Z</time>
      </trkpt>
      <trkpt lat="43.94072" lon="1.85934">
        <ele>887.79998779297</ele>
        <time>2019-06-27T19:22:55.000Z</time>
      </trkpt>
      <trkpt lat="43.94073" lon="1.85933">
        <ele>887.79998779297</ele>
        <time>2019-06-27T19:22:56.000Z</time>
      </trkpt>
      <trkpt lat="43.94073" lon="1.85932">
        <ele>888</ele>
        <time>2019-06-27T19:22:57.000Z</time>
      </trkpt>
      <trkpt lat="43.94074" lon="1.85931">
        <ele>888.20001220703</ele>
        <time>2019-06-27T19:22:58.000Z</time>
      </trkpt>
      <trkpt lat="43.94074" lon="1.8593">
        <ele>888.20001220703</ele>
        <time>2019-06-27T19:22:59.000Z</time>
      </trkpt>
      <trkpt lat="43.94075" lon="1.85928">
        <ele>888.40002441406</ele>
        <time>2019-06-27T19:23:00.000Z</time>
      </trkpt>
      <trkpt lat="43.94076" lon="1.85927">
        <ele>888.59997558594</ele>
        <time>2019-06-27T19:23:01.000Z</time>
      </trkpt>
      <trkpt lat="43.94077" lon="1.85927">
        <ele>888.79998779297</ele>
        <time>2019-06-27T19:23:02.000Z</time>
      </trkpt>
      <trkpt lat="43.94078" lon="1.85926">
        <ele>889</ele>
        <time>2019-06-27T19:23:03.000Z</time>
      </trkpt>
      <trkpt lat="43.94079" lon="1.85926">
        <ele>889.20001220703</ele>
        <time>2019-06-27T19:23:04.000Z</time>
      </trkpt>
      <trkpt lat="43.9408" lon="1.85926">
        <ele>889.40002441406</ele>
        <time>2019-06-27T19:23:05.000Z</time>
      </trkpt>
      <trkpt lat="43.94081" lon="1.85925">
        <ele>889.59997558594</ele>
        <time>2019-06-27T19:23:06.000Z</time>
      </trkpt>
      <trkpt lat="43.94082" lon="1.85925">
        <ele>889.79998779297</ele>
        <time>2019-06-27T19:23:07.000Z</time>
      </trkpt>
      <trkpt lat="43.94083" lon="1.85925">
        <ele>889.79998779297</ele>
        <time>2019-06-27T19:23:08.000Z</time>
      </trkpt>
      <trkpt lat="43.94084" lon="1.85925">
        <ele>890</ele>
        <time>2019-06-27T19:23:09.000Z</time>
      </trkpt>
      <trkpt lat="43.94085" lon="1.85925">
        <ele>890.20001220703</ele>
        <time>2019-06-27T19:23:10.000Z</time>
      </trkpt>
      <trkpt lat="43.94086" lon="1.85924">
        <ele>890.40002441406</ele>
        <time>2019-06-27T19:23:11.000Z</time>
      </trkpt>
      <trkpt lat="43.94087" lon="1.85924">
        <ele>890.40002441406</ele>
        <time>2019-06-27T19:23:12.000Z</time>
      </trkpt>
      <trkpt lat="43.94089" lon="1.85924">
        <ele>890.59997558594</ele>
        <time>2019-06-27T19:23:13.000Z</time>
      </trkpt>
      <trkpt lat="43.9409" lon="1.85924">
        <ele>890.79998779297</ele>
        <time>2019-06-27T19:23:14.000Z</time>
      </trkpt>
      <trkpt lat="43.94091" lon="1.85924">
        <ele>891</ele>
        <time>2019-06-27T19:23:15.000Z</time>
      </trkpt>
      <trkpt lat="43.94092" lon="1.85924">
        <ele>891.20001220703</ele>
        <time>2019-06-27T19:23:16.000Z</time>
      </trkpt>
      <trkpt lat="43.94093" lon="1.85925">
        <ele>891.20001220703</ele>
        <time>2019-06-27T19:23:17.000Z</time>
      </trkpt>
      <trkpt lat="43.94094" lon="1.85925">
        <ele>891.40002441406</ele>
        <time>2019-06-27T19:23:18.000Z</time>
      </trkpt>
      <trkpt lat="43.94095" lon="1.85926">
        <ele>891.40002441406</ele>
        <time>2019-06-27T19:23:19.000Z</time>
      </trkpt>
      <trkpt lat="43.94096" lon="1.85927">
        <ele>891.59997558594</ele>
        <time>2019-06-27T19:23:20.000Z</time>
      </trkpt>
      <trkpt lat="43.94097" lon="1.85928">
        <ele>891.59997558594</ele>
        <time>2019-06-27T19:23:21.000Z</time>
      </trkpt>
      <trkpt lat="43.94097" lon="1.8593">
        <ele>891.79998779297</ele>
        <time>2019-06-27T19:23:22.000Z</time>
      </trkpt>
      <trkpt lat="43.94099" lon="1.85931">
        <ele>892</ele>
        <time>2019-06-27T19:23:23.000Z</time>
      </trkpt>
      <trkpt lat="43.941" lon="1.85932">
        <ele>892</ele>
        <time>2019-06-27T19:23:24.000Z</time>
      </trkpt>
      <trkpt lat="43.94101" lon="1.85933">
        <ele>892.40002441406</ele>
        <time>2019-06-27T19:23:25.000Z</time>
      </trkpt>
      <trkpt lat="43.94102" lon="1.85933">
        <ele>892.40002441406</ele>
        <time>2019-06-27T19:23:26.000Z</time>
      </trkpt>
      <trkpt lat="43.94103" lon="1.85933">
        <ele>892.59997558594</ele>
        <time>2019-06-27T19:23:27.000Z</time>
      </trkpt>
      <trkpt lat="43.94104" lon="1.85933">
        <ele>892.59997558594</ele>
        <time>2019-06-27T19:23:28.000Z</time>
      </trkpt>
      <trkpt lat="43.94105" lon="1.85933">
        <ele>892.79998779297</ele>
        <time>2019-06-27T19:23:29.000Z</time>
      </trkpt>
      <trkpt lat="43.94106" lon="1.85933">
        <ele>893</ele>
        <time>2019-06-27T19:23:30.000Z</time>
      </trkpt>
      <trkpt lat="43.94107" lon="1.85933">
        <ele>893.20001220703</ele>
        <time>2019-06-27T19:23:31.000Z</time>
      </trkpt>
      <trkpt lat="43.94108" lon="1.85934">
        <ele>893.20001220703</ele>
        <time>2019-06-27T19:23:32.000Z</time>
      </trkpt>
      <trkpt lat="43.94109" lon="1.85934">
        <ele>893.40002441406</ele>
        <time>2019-06-27T19:23:33.000Z</time>
      </trkpt>
      <trkpt lat="43.9411" lon="1.85935">
        <ele>893.40002441406</ele>
        <time>2019-06-27T19:23:34.000Z</time>
      </trkpt>
      <trkpt lat="43.94111" lon="1.85935">
        <ele>893.59997558594</ele>
        <time>2019-06-27T19:23:35.000Z</time>
      </trkpt>
      <trkpt lat="43.94112" lon="1.85936">
        <ele>893.59997558594</ele>
        <time>2019-06-27T19:23:36.000Z</time>
      </trkpt>
      <trkpt lat="43.94113" lon="1.85936">
        <ele>893.79998779297</ele>
        <time>2019-06-27T19:23:37.000Z</time>
      </trkpt>
      <trkpt lat="43.94114" lon="1.85936">
        <ele>893.79998779297</ele>
        <time>2019-06-27T19:23:38.000Z</time>
      </trkpt>
      <trkpt lat="43.94115" lon="1.85937">
        <ele>894</ele>
        <time>2019-06-27T19:23:39.000Z</time>
      </trkpt>
      <trkpt lat="43.94116" lon="1.85937">
        <ele>894.20001220703</ele>
        <time>2019-06-27T19:23:40.000Z</time>
      </trkpt>
      <trkpt lat="43.94117" lon="1.85937">
        <ele>894.40002441406</ele>
        <time>2019-06-27T19:23:41.000Z</time>
      </trkpt>
      <trkpt lat="43.94118" lon="1.85938">
        <ele>894.59997558594</ele>
        <time>2019-06-27T19:23:42.000Z</time>
      </trkpt>
      <trkpt lat="43.94119" lon="1.85939">
        <ele>894.59997558594</ele>
        <time>2019-06-27T19:23:43.000Z</time>
      </trkpt>
      <trkpt lat="43.9412" lon="1.85939">
        <ele>894.79998779297</ele>
        <time>2019-06-27T19:23:44.000Z</time>
      </trkpt>
      <trkpt lat="43.94121" lon="1.85939">
        <ele>895</ele>
        <time>2019-06-27T19:23:45.000Z</time>
      </trkpt>
      <trkpt lat="43.94122" lon="1.8594">
        <ele>895.20001220703</ele>
        <time>2019-06-27T19:23:46.000Z</time>
      </trkpt>
      <trkpt lat="43.94123" lon="1.8594">
        <ele>895.40002441406</ele>
        <time>2019-06-27T19:23:47.000Z</time>
      </trkpt>
      <trkpt lat="43.94124" lon="1.85939">
        <ele>895.40002441406</ele>
        <time>2019-06-27T19:23:48.000Z</time>
      </trkpt>
      <trkpt lat="43.94125" lon="1.85939">
        <ele>895.59997558594</ele>
        <time>2019-06-27T19:23:49.000Z</time>
      </trkpt>
      <trkpt lat="43.94127" lon="1.85939">
        <ele>895.59997558594</ele>
        <time>2019-06-27T19:23:50.000Z</time>
      </trkpt>
      <trkpt lat="43.94128" lon="1.85939">
        <ele>895.79998779297</ele>
        <time>2019-06-27T19:23:51.000Z</time>
      </trkpt>
      <trkpt lat="43.94129" lon="1.85939">
        <ele>896</ele>
        <time>2019-06-27T19:23:52.000Z</time>
      </trkpt>
      <trkpt lat="43.94131" lon="1.8594">
        <ele>896</ele>
        <time>2019-06-27T19:23:53.000Z</time>
      </trkpt>
      <trkpt lat="43.94132" lon="1.85941">
        <ele>896.20001220703</ele>
        <time>2019-06-27T19:23:54.000Z</time>
      </trkpt>
      <trkpt lat="43.94133" lon="1.85941">
        <ele>896.40002441406</ele>
        <time>2019-06-27T19:23:55.000Z</time>
      </trkpt>
      <trkpt lat="43.94134" lon="1.85942">
        <ele>896.59997558594</ele>
        <time>2019-06-27T19:23:56.000Z</time>
      </trkpt>
      <trkpt lat="43.94135" lon="1.85943">
        <ele>896.59997558594</ele>
        <time>2019-06-27T19:23:57.000Z</time>
      </trkpt>
      <trkpt lat="43.94137" lon="1.85943">
        <ele>896.59997558594</ele>
        <time>2019-06-27T19:23:58.000Z</time>
      </trkpt>
      <trkpt lat="43.94138" lon="1.85943">
        <ele>896.59997558594</ele>
        <time>2019-06-27T19:23:59.000Z</time>
      </trkpt>
      <trkpt lat="43.94139" lon="1.85942">
        <ele>896.79998779297</ele>
        <time>2019-06-27T19:24:00.000Z</time>
      </trkpt>
      <trkpt lat="43.9414" lon="1.85942">
        <ele>897</ele>
        <time>2019-06-27T19:24:01.000Z</time>
      </trkpt>
      <trkpt lat="43.94141" lon="1.85941">
        <ele>897.20001220703</ele>
        <time>2019-06-27T19:24:02.000Z</time>
      </trkpt>
      <trkpt lat="43.94143" lon="1.8594">
        <ele>897.20001220703</ele>
        <time>2019-06-27T19:24:03.000Z</time>
      </trkpt>
      <trkpt lat="43.94144" lon="1.85939">
        <ele>897.20001220703</ele>
        <time>2019-06-27T19:24:04.000Z</time>
      </trkpt>
      <trkpt lat="43.94145" lon="1.85938">
        <ele>897.40002441406</ele>
        <time>2019-06-27T19:24:05.000Z</time>
      </trkpt>
      <trkpt lat="43.94146" lon="1.85938">
        <ele>897.40002441406</ele>
        <time>2019-06-27T19:24:06.000Z</time>
      </trkpt>
      <trkpt lat="43.94146" lon="1.85937">
        <ele>897.59997558594</ele>
        <time>2019-06-27T19:24:07.000Z</time>
      </trkpt>
      <trkpt lat="43.94147" lon="1.85936">
        <ele>897.79998779297</ele>
        <time>2019-06-27T19:24:08.000Z</time>
      </trkpt>
      <trkpt lat="43.94148" lon="1.85936">
        <ele>898</ele>
        <time>2019-06-27T19:24:09.000Z</time>
      </trkpt>
      <trkpt lat="43.94149" lon="1.85935">
        <ele>898.20001220703</ele>
        <time>2019-06-27T19:24:10.000Z</time>
      </trkpt>
      <trkpt lat="43.94149" lon="1.85934">
        <ele>898.20001220703</ele>
        <time>2019-06-27T19:24:11.000Z</time>
      </trkpt>
      <trkpt lat="43.9415" lon="1.85933">
        <ele>898.40002441406</ele>
        <time>2019-06-27T19:24:12.000Z</time>
      </trkpt>
      <trkpt lat="43.94151" lon="1.85932">
        <ele>898.59997558594</ele>
        <time>2019-06-27T19:24:13.000Z</time>
      </trkpt>
      <trkpt lat="43.94152" lon="1.85931">
        <ele>898.79998779297</ele>
        <time>2019-06-27T19:24:14.000Z</time>
      </trkpt>
      <trkpt lat="43.94153" lon="1.8593">
        <ele>898.79998779297</ele>
        <time>2019-06-27T19:24:15.000Z</time>
      </trkpt>
      <trkpt lat="43.94153" lon="1.85929">
        <ele>899</ele>
        <time>2019-06-27T19:24:16.000Z</time>
      </trkpt>
      <trkpt lat="43.94154" lon="1.85928">
        <ele>899.20001220703</ele>
        <time>2019-06-27T19:24:17.000Z</time>
      </trkpt>
      <trkpt lat="43.94155" lon="1.85927">
        <ele>899.59997558594</ele>
        <time>2019-06-27T19:24:18.000Z</time>
      </trkpt>
      <trkpt lat="43.94156" lon="1.85926">
        <ele>899.79998779297</ele>
        <time>2019-06-27T19:24:19.000Z</time>
      </trkpt>
      <trkpt lat="43.94157" lon="1.85925">
        <ele>900</ele>
        <time>2019-06-27T19:24:20.000Z</time>
      </trkpt>
      <trkpt lat="43.94158" lon="1.85924">
        <ele>900.20001220703</ele>
        <time>2019-06-27T19:24:21.000Z</time>
      </trkpt>
      <trkpt lat="43.94159" lon="1.85923">
        <ele>900.40002441406</ele>
        <time>2019-06-27T19:24:22.000Z</time>
      </trkpt>
      <trkpt lat="43.94159" lon="1.85922">
        <ele>900.59997558594</ele>
        <time>2019-06-27T19:24:23.000Z</time>
      </trkpt>
      <trkpt lat="43.94161" lon="1.85921">
        <ele>900.79998779297</ele>
        <time>2019-06-27T19:24:24.000Z</time>
      </trkpt>
      <trkpt lat="43.94162" lon="1.8592">
        <ele>901</ele>
        <time>2019-06-27T19:24:25.000Z</time>
      </trkpt>
      <trkpt lat="43.94163" lon="1.85919">
        <ele>901.20001220703</ele>
        <time>2019-06-27T19:24:26.000Z</time>
      </trkpt>
      <trkpt lat="43.94164" lon="1.85918">
        <ele>901.40002441406</ele>
        <time>2019-06-27T19:24:27.000Z</time>
      </trkpt>
      <trkpt lat="43.94165" lon="1.85917">
        <ele>901.40002441406</ele>
        <time>2019-06-27T19:24:28.000Z</time>
      </trkpt>
      <trkpt lat="43.94166" lon="1.85917">
        <ele>901.79998779297</ele>
        <time>2019-06-27T19:24:29.000Z</time>
      </trkpt>
      <trkpt lat="43.94167" lon="1.85916">
        <ele>901.79998779297</ele>
        <time>2019-06-27T19:24:30.000Z</time>
      </trkpt>
      <trkpt lat="43.94168" lon="1.85915">
        <ele>902</ele>
        <time>2019-06-27T19:24:31.000Z</time>
      </trkpt>
      <trkpt lat="43.94169" lon="1.85914">
        <ele>902</ele>
        <time>2019-06-27T19:24:32.000Z</time>
      </trkpt>
      <trkpt lat="43.9417" lon="1.85913">
        <ele>902.20001220703</ele>
        <time>2019-06-27T19:24:33.000Z</time>
      </trkpt>
      <trkpt lat="43.9417" lon="1.85913">
        <ele>902.40002441406</ele>
        <time>2019-06-27T19:24:34.000Z</time>
      </trkpt>
      <trkpt lat="43.94171" lon="1.85912">
        <ele>902.59997558594</ele>
        <time>2019-06-27T19:24:35.000Z</time>
      </trkpt>
      <trkpt lat="43.94173" lon="1.85912">
        <ele>902.79998779297</ele>
        <time>2019-06-27T19:24:36.000Z</time>
      </trkpt>
      <trkpt lat="43.94174" lon="1.85911">
        <ele>903</ele>
        <time>2019-06-27T19:24:37.000Z</time>
      </trkpt>
      <trkpt lat="43.94175" lon="1.85911">
        <ele>903.20001220703</ele>
        <time>2019-06-27T19:24:38.000Z</time>
      </trkpt>
      <trkpt lat="43.94176" lon="1.8591">
        <ele>903.40002441406</ele>
        <time>2019-06-27T19:24:39.000Z</time>
      </trkpt>
      <trkpt lat="43.94177" lon="1.8591">
        <ele>903.40002441406</ele>
        <time>2019-06-27T19:24:40.000Z</time>
      </trkpt>
      <trkpt lat="43.94178" lon="1.8591">
        <ele>903.59997558594</ele>
        <time>2019-06-27T19:24:41.000Z</time>
      </trkpt>
      <trkpt lat="43.94179" lon="1.8591">
        <ele>904</ele>
        <time>2019-06-27T19:24:42.000Z</time>
      </trkpt>
      <trkpt lat="43.94181" lon="1.8591">
        <ele>904.20001220703</ele>
        <time>2019-06-27T19:24:43.000Z</time>
      </trkpt>
      <trkpt lat="43.94182" lon="1.8591">
        <ele>904.20001220703</ele>
        <time>2019-06-27T19:24:44.000Z</time>
      </trkpt>
      <trkpt lat="43.94183" lon="1.8591">
        <ele>904.40002441406</ele>
        <time>2019-06-27T19:24:45.000Z</time>
      </trkpt>
      <trkpt lat="43.94184" lon="1.8591">
        <ele>904.59997558594</ele>
        <time>2019-06-27T19:24:46.000Z</time>
      </trkpt>
      <trkpt lat="43.94186" lon="1.8591">
        <ele>904.59997558594</ele>
        <time>2019-06-27T19:24:47.000Z</time>
      </trkpt>
      <trkpt lat="43.94187" lon="1.8591">
        <ele>904.79998779297</ele>
        <time>2019-06-27T19:24:48.000Z</time>
      </trkpt>
      <trkpt lat="43.94188" lon="1.8591">
        <ele>905</ele>
        <time>2019-06-27T19:24:49.000Z</time>
      </trkpt>
      <trkpt lat="43.9419" lon="1.8591">
        <ele>905.20001220703</ele>
        <time>2019-06-27T19:24:50.000Z</time>
      </trkpt>
      <trkpt lat="43.94191" lon="1.8591">
        <ele>905.40002441406</ele>
        <time>2019-06-27T19:24:51.000Z</time>
      </trkpt>
      <trkpt lat="43.94192" lon="1.8591">
        <ele>905.40002441406</ele>
        <time>2019-06-27T19:24:52.000Z</time>
      </trkpt>
      <trkpt lat="43.94193" lon="1.85909">
        <ele>905.79998779297</ele>
        <time>2019-06-27T19:24:53.000Z</time>
      </trkpt>
      <trkpt lat="43.94194" lon="1.85909">
        <ele>905.79998779297</ele>
        <time>2019-06-27T19:24:54.000Z</time>
      </trkpt>
      <trkpt lat="43.94195" lon="1.85909">
        <ele>906</ele>
        <time>2019-06-27T19:24:55.000Z</time>
      </trkpt>
      <trkpt lat="43.94197" lon="1.85909">
        <ele>906</ele>
        <time>2019-06-27T19:24:56.000Z</time>
      </trkpt>
      <trkpt lat="43.94198" lon="1.85909">
        <ele>906.20001220703</ele>
        <time>2019-06-27T19:24:57.000Z</time>
      </trkpt>
      <trkpt lat="43.94199" lon="1.85908">
        <ele>906.40002441406</ele>
        <time>2019-06-27T19:24:58.000Z</time>
      </trkpt>
      <trkpt lat="43.942" lon="1.85909">
        <ele>906.59997558594</ele>
        <time>2019-06-27T19:24:59.000Z</time>
      </trkpt>
      <trkpt lat="43.94201" lon="1.8591">
        <ele>906.79998779297</ele>
        <time>2019-06-27T19:25:00.000Z</time>
      </trkpt>
      <trkpt lat="43.94202" lon="1.8591">
        <ele>906.79998779297</ele>
        <time>2019-06-27T19:25:01.000Z</time>
      </trkpt>
      <trkpt lat="43.94203" lon="1.8591">
        <ele>907</ele>
        <time>2019-06-27T19:25:02.000Z</time>
      </trkpt>
      <trkpt lat="43.94204" lon="1.8591">
        <ele>907</ele>
        <time>2019-06-27T19:25:03.000Z</time>
      </trkpt>
      <trkpt lat="43.94205" lon="1.85909">
        <ele>907.20001220703</ele>
        <time>2019-06-27T19:25:04.000Z</time>
      </trkpt>
      <trkpt lat="43.94206" lon="1.85909">
        <ele>907.40002441406</ele>
        <time>2019-06-27T19:25:05.000Z</time>
      </trkpt>
      <trkpt lat="43.94207" lon="1.85909">
        <ele>907.59997558594</ele>
        <time>2019-06-27T19:25:06.000Z</time>
      </trkpt>
      <trkpt lat="43.94208" lon="1.85909">
        <ele>907.79998779297</ele>
        <time>2019-06-27T19:25:07.000Z</time>
      </trkpt>
      <trkpt lat="43.94209" lon="1.85909">
        <ele>908</ele>
        <time>2019-06-27T19:25:08.000Z</time>
      </trkpt>
      <trkpt lat="43.9421" lon="1.85909">
        <ele>908</ele>
        <time>2019-06-27T19:25:09.000Z</time>
      </trkpt>
      <trkpt lat="43.94211" lon="1.85909">
        <ele>908.20001220703</ele>
        <time>2019-06-27T19:25:10.000Z</time>
      </trkpt>
      <trkpt lat="43.94213" lon="1.85909">
        <ele>908.40002441406</ele>
        <time>2019-06-27T19:25:11.000Z</time>
      </trkpt>
      <trkpt lat="43.94214" lon="1.85908">
        <ele>908.40002441406</ele>
        <time>2019-06-27T19:25:12.000Z</time>
      </trkpt>
      <trkpt lat="43.94215" lon="1.85907">
        <ele>908.59997558594</ele>
        <time>2019-06-27T19:25:13.000Z</time>
      </trkpt>
      <trkpt lat="43.94216" lon="1.85907">
        <ele>908.59997558594</ele>
        <time>2019-06-27T19:25:14.000Z</time>
      </trkpt>
      <trkpt lat="43.94217" lon="1.85906">
        <ele>908.59997558594</ele>
        <time>2019-06-27T19:25:15.000Z</time>
      </trkpt>
      <trkpt lat="43.94218" lon="1.85905">
        <ele>908.79998779297</ele>
        <time>2019-06-27T19:25:16.000Z</time>
      </trkpt>
      <trkpt lat="43.94219" lon="1.85904">
        <ele>908.79998779297</ele>
        <time>2019-06-27T19:25:17.000Z</time>
      </trkpt>
      <trkpt lat="43.9422" lon="1.85903">
        <ele>909</ele>
        <time>2019-06-27T19:25:18.000Z</time>
      </trkpt>
      <trkpt lat="43.94221" lon="1.85902">
        <ele>909.20001220703</ele>
        <time>2019-06-27T19:25:19.000Z</time>
      </trkpt>
      <trkpt lat="43.94221" lon="1.85901">
        <ele>909.20001220703</ele>
        <time>2019-06-27T19:25:20.000Z</time>
      </trkpt>
      <trkpt lat="43.94221" lon="1.85899">
        <ele>909.20001220703</ele>
        <time>2019-06-27T19:25:21.000Z</time>
      </trkpt>
      <trkpt lat="43.9422" lon="1.85898">
        <ele>909.40002441406</ele>
        <time>2019-06-27T19:25:22.000Z</time>
      </trkpt>
      <trkpt lat="43.9422" lon="1.85897">
        <ele>909.40002441406</ele>
        <time>2019-06-27T19:25:23.000Z</time>
      </trkpt>
      <trkpt lat="43.9422" lon="1.85896">
        <ele>909.40002441406</ele>
        <time>2019-06-27T19:25:24.000Z</time>
      </trkpt>
      <trkpt lat="43.94221" lon="1.85895">
        <ele>909.40002441406</ele>
        <time>2019-06-27T19:25:25.000Z</time>
      </trkpt>
      <trkpt lat="43.94223" lon="1.85894">
        <ele>909.40002441406</ele>
        <time>2019-06-27T19:25:26.000Z</time>
      </trkpt>
      <trkpt lat="43.94225" lon="1.85894">
        <ele>909.40002441406</ele>
        <time>2019-06-27T19:25:27.000Z</time>
      </trkpt>
      <trkpt lat="43.94227" lon="1.85896">
        <ele>909.20001220703</ele>
        <time>2019-06-27T19:25:28.000Z</time>
      </trkpt>
      <trkpt lat="43.94228" lon="1.85898">
        <ele>909.20001220703</ele>
        <time>2019-06-27T19:25:29.000Z</time>
      </trkpt>
      <trkpt lat="43.94228" lon="1.85899">
        <ele>909.20001220703</ele>
        <time>2019-06-27T19:25:30.000Z</time>
      </trkpt>
      <trkpt lat="43.94229" lon="1.85901">
        <ele>909.20001220703</ele>
        <time>2019-06-27T19:25:31.000Z</time>
      </trkpt>
      <trkpt lat="43.9423" lon="1.85901">
        <ele>909.20001220703</ele>
        <time>2019-06-27T19:25:32.000Z</time>
      </trkpt>
      <trkpt lat="43.94232" lon="1.85902">
        <ele>909.20001220703</ele>
        <time>2019-06-27T19:25:33.000Z</time>
      </trkpt>
      <trkpt lat="43.94233" lon="1.85902">
        <ele>909.40002441406</ele>
        <time>2019-06-27T19:25:34.000Z</time>
      </trkpt>
      <trkpt lat="43.94234" lon="1.85902">
        <ele>909.40002441406</ele>
        <time>2019-06-27T19:25:35.000Z</time>
      </trkpt>
      <trkpt lat="43.94235" lon="1.85902">
        <ele>909.40002441406</ele>
        <time>2019-06-27T19:25:36.000Z</time>
      </trkpt>
      <trkpt lat="43.94237" lon="1.85902">
        <ele>909.40002441406</ele>
        <time>2019-06-27T19:25:37.000Z</time>
      </trkpt>
      <trkpt lat="43.94238" lon="1.85902">
        <ele>909.59997558594</ele>
        <time>2019-06-27T19:25:38.000Z</time>
      </trkpt>
      <trkpt lat="43.94239" lon="1.85902">
        <ele>909.59997558594</ele>
        <time>2019-06-27T19:25:39.000Z</time>
      </trkpt>
      <trkpt lat="43.9424" lon="1.85902">
        <ele>909.59997558594</ele>
        <time>2019-06-27T19:25:40.000Z</time>
      </trkpt>
      <trkpt lat="43.94242" lon="1.85902">
        <ele>909.79998779297</ele>
        <time>2019-06-27T19:25:41.000Z</time>
      </trkpt>
      <trkpt lat="43.94243" lon="1.85902">
        <ele>909.79998779297</ele>
        <time>2019-06-27T19:25:42.000Z</time>
      </trkpt>
      <trkpt lat="43.94244" lon="1.85902">
        <ele>909.79998779297</ele>
        <time>2019-06-27T19:25:43.000Z</time>
      </trkpt>
      <trkpt lat="43.94245" lon="1.85902">
        <ele>909.79998779297</ele>
        <time>2019-06-27T19:25:44.000Z</time>
      </trkpt>
      <trkpt lat="43.94247" lon="1.85902">
        <ele>910</ele>
        <time>2019-06-27T19:25:45.000Z</time>
      </trkpt>
      <trkpt lat="43.94248" lon="1.85902">
        <ele>910</ele>
        <time>2019-06-27T19:25:46.000Z</time>
      </trkpt>
      <trkpt lat="43.94249" lon="1.85902">
        <ele>910</ele>
        <time>2019-06-27T19:25:47.000Z</time>
      </trkpt>
      <trkpt lat="43.9425" lon="1.85902">
        <ele>910.20001220703</ele>
        <time>2019-06-27T19:25:48.000Z</time>
      </trkpt>
      <trkpt lat="43.94251" lon="1.85903">
        <ele>910.40002441406</ele>
        <time>2019-06-27T19:25:49.000Z</time>
      </trkpt>
      <trkpt lat="43.94252" lon="1.85902">
        <ele>910.40002441406</ele>
        <time>2019-06-27T19:25:50.000Z</time>
      </trkpt>
      <trkpt lat="43.94253" lon="1.85903">
        <ele>910.40002441406</ele>
        <time>2019-06-27T19:25:51.000Z</time>
      </trkpt>
      <trkpt lat="43.94255" lon="1.85903">
        <ele>910.40002441406</ele>
        <time>2019-06-27T19:25:52.000Z</time>
      </trkpt>
      <trkpt lat="43.94256" lon="1.85903">
        <ele>910.59997558594</ele>
        <time>2019-06-27T19:25:53.000Z</time>
      </trkpt>
      <trkpt lat="43.94257" lon="1.85903">
        <ele>910.79998779297</ele>
        <time>2019-06-27T19:25:54.000Z</time>
      </trkpt>
      <trkpt lat="43.94258" lon="1.85903">
        <ele>910.79998779297</ele>
        <time>2019-06-27T19:25:55.000Z</time>
      </trkpt>
      <trkpt lat="43.9426" lon="1.85903">
        <ele>910.79998779297</ele>
        <time>2019-06-27T19:25:56.000Z</time>
      </trkpt>
      <trkpt lat="43.94261" lon="1.85903">
        <ele>911</ele>
        <time>2019-06-27T19:25:57.000Z</time>
      </trkpt>
      <trkpt lat="43.94262" lon="1.85903">
        <ele>911</ele>
        <time>2019-06-27T19:25:58.000Z</time>
      </trkpt>
      <trkpt lat="43.94263" lon="1.85903">
        <ele>911.20001220703</ele>
        <time>2019-06-27T19:25:59.000Z</time>
      </trkpt>
      <trkpt lat="43.94265" lon="1.85903">
        <ele>911.20001220703</ele>
        <time>2019-06-27T19:26:00.000Z</time>
      </trkpt>
      <trkpt lat="43.94266" lon="1.85903">
        <ele>911.40002441406</ele>
        <time>2019-06-27T19:26:01.000Z</time>
      </trkpt>
      <trkpt lat="43.94267" lon="1.85903">
        <ele>911.40002441406</ele>
        <time>2019-06-27T19:26:02.000Z</time>
      </trkpt>
      <trkpt lat="43.94268" lon="1.85903">
        <ele>911.59997558594</ele>
        <time>2019-06-27T19:26:03.000Z</time>
      </trkpt>
      <trkpt lat="43.94269" lon="1.85903">
        <ele>911.79998779297</ele>
        <time>2019-06-27T19:26:04.000Z</time>
      </trkpt>
      <trkpt lat="43.9427" lon="1.85904">
        <ele>911.79998779297</ele>
        <time>2019-06-27T19:26:05.000Z</time>
      </trkpt>
      <trkpt lat="43.94271" lon="1.85904">
        <ele>912</ele>
        <time>2019-06-27T19:26:06.000Z</time>
      </trkpt>
      <trkpt lat="43.94272" lon="1.85904">
        <ele>912</ele>
        <time>2019-06-27T19:26:07.000Z</time>
      </trkpt>
      <trkpt lat="43.94274" lon="1.85905">
        <ele>912.20001220703</ele>
        <time>2019-06-27T19:26:08.000Z</time>
      </trkpt>
      <trkpt lat="43.94275" lon="1.85904">
        <ele>912.20001220703</ele>
        <time>2019-06-27T19:26:09.000Z</time>
      </trkpt>
      <trkpt lat="43.94276" lon="1.85905">
        <ele>912.40002441406</ele>
        <time>2019-06-27T19:26:10.000Z</time>
      </trkpt>
      <trkpt lat="43.94277" lon="1.85904">
        <ele>912.59997558594</ele>
        <time>2019-06-27T19:26:11.000Z</time>
      </trkpt>
      <trkpt lat="43.94279" lon="1.85904">
        <ele>912.79998779297</ele>
        <time>2019-06-27T19:26:12.000Z</time>
      </trkpt>
      <trkpt lat="43.9428" lon="1.85904">
        <ele>913</ele>
        <time>2019-06-27T19:26:13.000Z</time>
      </trkpt>
      <trkpt lat="43.94281" lon="1.85904">
        <ele>913.20001220703</ele>
        <time>2019-06-27T19:26:14.000Z</time>
      </trkpt>
      <trkpt lat="43.94282" lon="1.85904">
        <ele>913.20001220703</ele>
        <time>2019-06-27T19:26:15.000Z</time>
      </trkpt>
      <trkpt lat="43.94284" lon="1.85904">
        <ele>913.40002441406</ele>
        <time>2019-06-27T19:26:16.000Z</time>
      </trkpt>
      <trkpt lat="43.94285" lon="1.85904">
        <ele>913.40002441406</ele>
        <time>2019-06-27T19:26:17.000Z</time>
      </trkpt>
      <trkpt lat="43.94286" lon="1.85904">
        <ele>914</ele>
        <time>2019-06-27T19:26:18.000Z</time>
      </trkpt>
      <trkpt lat="43.94288" lon="1.85906">
        <ele>914.20001220703</ele>
        <time>2019-06-27T19:26:19.000Z</time>
      </trkpt>
      <trkpt lat="43.94289" lon="1.85906">
        <ele>914.40002441406</ele>
        <time>2019-06-27T19:26:20.000Z</time>
      </trkpt>
      <trkpt lat="43.9429" lon="1.85906">
        <ele>914.59997558594</ele>
        <time>2019-06-27T19:26:21.000Z</time>
      </trkpt>
      <trkpt lat="43.94292" lon="1.85907">
        <ele>914.79998779297</ele>
        <time>2019-06-27T19:26:22.000Z</time>
      </trkpt>
      <trkpt lat="43.94293" lon="1.85907">
        <ele>915</ele>
        <time>2019-06-27T19:26:23.000Z</time>
      </trkpt>
      <trkpt lat="43.94295" lon="1.85906">
        <ele>915.20001220703</ele>
        <time>2019-06-27T19:26:24.000Z</time>
      </trkpt>
      <trkpt lat="43.94296" lon="1.85905">
        <ele>915.40002441406</ele>
        <time>2019-06-27T19:26:25.000Z</time>
      </trkpt>
      <trkpt lat="43.94297" lon="1.85905">
        <ele>915.59997558594</ele>
        <time>2019-06-27T19:26:26.000Z</time>
      </trkpt>
      <trkpt lat="43.94299" lon="1.85906">
        <ele>915.79998779297</ele>
        <time>2019-06-27T19:26:27.000Z</time>
      </trkpt>
      <trkpt lat="43.943" lon="1.85906">
        <ele>916</ele>
        <time>2019-06-27T19:26:28.000Z</time>
      </trkpt>
      <trkpt lat="43.94301" lon="1.85906">
        <ele>916.20001220703</ele>
        <time>2019-06-27T19:26:29.000Z</time>
      </trkpt>
      <trkpt lat="43.94302" lon="1.85907">
        <ele>916.40002441406</ele>
        <time>2019-06-27T19:26:30.000Z</time>
      </trkpt>
      <trkpt lat="43.94303" lon="1.85907">
        <ele>916.40002441406</ele>
        <time>2019-06-27T19:26:31.000Z</time>
      </trkpt>
      <trkpt lat="43.94305" lon="1.85907">
        <ele>916.59997558594</ele>
        <time>2019-06-27T19:26:32.000Z</time>
      </trkpt>
      <trkpt lat="43.94306" lon="1.85907">
        <ele>916.79998779297</ele>
        <time>2019-06-27T19:26:33.000Z</time>
      </trkpt>
      <trkpt lat="43.94307" lon="1.85908">
        <ele>917</ele>
        <time>2019-06-27T19:26:34.000Z</time>
      </trkpt>
      <trkpt lat="43.94308" lon="1.85907">
        <ele>917</ele>
        <time>2019-06-27T19:26:35.000Z</time>
      </trkpt>
      <trkpt lat="43.94309" lon="1.85907">
        <ele>917.20001220703</ele>
        <time>2019-06-27T19:26:36.000Z</time>
      </trkpt>
      <trkpt lat="43.94311" lon="1.85907">
        <ele>917.59997558594</ele>
        <time>2019-06-27T19:26:37.000Z</time>
      </trkpt>
      <trkpt lat="43.94312" lon="1.85908">
        <ele>917.79998779297</ele>
        <time>2019-06-27T19:26:38.000Z</time>
      </trkpt>
      <trkpt lat="43.94313" lon="1.85908">
        <ele>918</ele>
        <time>2019-06-27T19:26:39.000Z</time>
      </trkpt>
      <trkpt lat="43.94315" lon="1.85908">
        <ele>918.20001220703</ele>
        <time>2019-06-27T19:26:40.000Z</time>
      </trkpt>
      <trkpt lat="43.94316" lon="1.85908">
        <ele>918.20001220703</ele>
        <time>2019-06-27T19:26:41.000Z</time>
      </trkpt>
      <trkpt lat="43.94317" lon="1.85909">
        <ele>918.59997558594</ele>
        <time>2019-06-27T19:26:42.000Z</time>
      </trkpt>
      <trkpt lat="43.94319" lon="1.85909">
        <ele>918.79998779297</ele>
        <time>2019-06-27T19:26:43.000Z</time>
      </trkpt>
      <trkpt lat="43.9432" lon="1.85908">
        <ele>918.79998779297</ele>
        <time>2019-06-27T19:26:44.000Z</time>
      </trkpt>
      <trkpt lat="43.94321" lon="1.85908">
        <ele>919</ele>
        <time>2019-06-27T19:26:45.000Z</time>
      </trkpt>
      <trkpt lat="43.94322" lon="1.85909">
        <ele>919.20001220703</ele>
        <time>2019-06-27T19:26:46.000Z</time>
      </trkpt>
      <trkpt lat="43.94323" lon="1.85908">
        <ele>919.40002441406</ele>
        <time>2019-06-27T19:26:47.000Z</time>
      </trkpt>
      <trkpt lat="43.94325" lon="1.85909">
        <ele>919.40002441406</ele>
        <time>2019-06-27T19:26:48.000Z</time>
      </trkpt>
      <trkpt lat="43.94325" lon="1.85909">
        <ele>919.59997558594</ele>
        <time>2019-06-27T19:26:49.000Z</time>
      </trkpt>
      <trkpt lat="43.94327" lon="1.85909">
        <ele>920</ele>
        <time>2019-06-27T19:26:50.000Z</time>
      </trkpt>
      <trkpt lat="43.94328" lon="1.85909">
        <ele>920.20001220703</ele>
        <time>2019-06-27T19:26:51.000Z</time>
      </trkpt>
      <trkpt lat="43.94329" lon="1.85909">
        <ele>920.40002441406</ele>
        <time>2019-06-27T19:26:52.000Z</time>
      </trkpt>
      <trkpt lat="43.9433" lon="1.85909">
        <ele>920.40002441406</ele>
        <time>2019-06-27T19:26:53.000Z</time>
      </trkpt>
      <trkpt lat="43.94331" lon="1.85909">
        <ele>920.59997558594</ele>
        <time>2019-06-27T19:26:54.000Z</time>
      </trkpt>
      <trkpt lat="43.94332" lon="1.85908">
        <ele>920.79998779297</ele>
        <time>2019-06-27T19:26:55.000Z</time>
      </trkpt>
      <trkpt lat="43.94333" lon="1.85908">
        <ele>921.20001220703</ele>
        <time>2019-06-27T19:26:56.000Z</time>
      </trkpt>
      <trkpt lat="43.94334" lon="1.85908">
        <ele>921.20001220703</ele>
        <time>2019-06-27T19:26:57.000Z</time>
      </trkpt>
      <trkpt lat="43.94336" lon="1.85908">
        <ele>921.40002441406</ele>
        <time>2019-06-27T19:26:58.000Z</time>
      </trkpt>
      <trkpt lat="43.94337" lon="1.85907">
        <ele>921.59997558594</ele>
        <time>2019-06-27T19:26:59.000Z</time>
      </trkpt>
      <trkpt lat="43.94338" lon="1.85907">
        <ele>921.59997558594</ele>
        <time>2019-06-27T19:27:00.000Z</time>
      </trkpt>
      <trkpt lat="43.94339" lon="1.85907">
        <ele>921.79998779297</ele>
        <time>2019-06-27T19:27:01.000Z</time>
      </trkpt>
      <trkpt lat="43.94341" lon="1.85907">
        <ele>922</ele>
        <time>2019-06-27T19:27:02.000Z</time>
      </trkpt>
      <trkpt lat="43.94342" lon="1.85906">
        <ele>922.20001220703</ele>
        <time>2019-06-27T19:27:03.000Z</time>
      </trkpt>
      <trkpt lat="43.94343" lon="1.85906">
        <ele>922.40002441406</ele>
        <time>2019-06-27T19:27:04.000Z</time>
      </trkpt>
      <trkpt lat="43.94344" lon="1.85906">
        <ele>922.59997558594</ele>
        <time>2019-06-27T19:27:05.000Z</time>
      </trkpt>
      <trkpt lat="43.94345" lon="1.85906">
        <ele>923</ele>
        <time>2019-06-27T19:27:06.000Z</time>
      </trkpt>
      <trkpt lat="43.94346" lon="1.85906">
        <ele>923.20001220703</ele>
        <time>2019-06-27T19:27:07.000Z</time>
      </trkpt>
      <trkpt lat="43.94348" lon="1.85905">
        <ele>923.40002441406</ele>
        <time>2019-06-27T19:27:08.000Z</time>
      </trkpt>
      <trkpt lat="43.94349" lon="1.85905">
        <ele>923.40002441406</ele>
        <time>2019-06-27T19:27:09.000Z</time>
      </trkpt>
      <trkpt lat="43.9435" lon="1.85905">
        <ele>923.59997558594</ele>
        <time>2019-06-27T19:27:10.000Z</time>
      </trkpt>
      <trkpt lat="43.94351" lon="1.85904">
        <ele>923.79998779297</ele>
        <time>2019-06-27T19:27:11.000Z</time>
      </trkpt>
      <trkpt lat="43.94352" lon="1.85904">
        <ele>924</ele>
        <time>2019-06-27T19:27:12.000Z</time>
      </trkpt>
      <trkpt lat="43.94354" lon="1.85904">
        <ele>924.20001220703</ele>
        <time>2019-06-27T19:27:13.000Z</time>
      </trkpt>
      <trkpt lat="43.94355" lon="1.85903">
        <ele>924.40002441406</ele>
        <time>2019-06-27T19:27:14.000Z</time>
      </trkpt>
      <trkpt lat="43.94356" lon="1.85903">
        <ele>924.59997558594</ele>
        <time>2019-06-27T19:27:15.000Z</time>
      </trkpt>
      <trkpt lat="43.94357" lon="1.85902">
        <ele>924.59997558594</ele>
        <time>2019-06-27T19:27:16.000Z</time>
      </trkpt>
      <trkpt lat="43.94359" lon="1.85902">
        <ele>924.79998779297</ele>
        <time>2019-06-27T19:27:17.000Z</time>
      </trkpt>
      <trkpt lat="43.9436" lon="1.85902">
        <ele>925</ele>
        <time>2019-06-27T19:27:18.000Z</time>
      </trkpt>
      <trkpt lat="43.94361" lon="1.85901">
        <ele>925.20001220703</ele>
        <time>2019-06-27T19:27:19.000Z</time>
      </trkpt>
      <trkpt lat="43.94362" lon="1.859">
        <ele>925.40002441406</ele>
        <time>2019-06-27T19:27:20.000Z</time>
      </trkpt>
      <trkpt lat="43.94363" lon="1.859">
        <ele>925.59997558594</ele>
        <time>2019-06-27T19:27:21.000Z</time>
      </trkpt>
      <trkpt lat="43.94364" lon="1.859">
        <ele>925.79998779297</ele>
        <time>2019-06-27T19:27:22.000Z</time>
      </trkpt>
      <trkpt lat="43.94366" lon="1.859">
        <ele>926.20001220703</ele>
        <time>2019-06-27T19:27:23.000Z</time>
      </trkpt>
      <trkpt lat="43.94367" lon="1.85899">
        <ele>926.40002441406</ele>
        <time>2019-06-27T19:27:24.000Z</time>
      </trkpt>
      <trkpt lat="43.94368" lon="1.85899">
        <ele>926.40002441406</ele>
        <time>2019-06-27T19:27:25.000Z</time>
      </trkpt>
      <trkpt lat="43.9437" lon="1.85899">
        <ele>926.59997558594</ele>
        <time>2019-06-27T19:27:26.000Z</time>
      </trkpt>
      <trkpt lat="43.94371" lon="1.859">
        <ele>926.59997558594</ele>
        <time>2019-06-27T19:27:27.000Z</time>
      </trkpt>
      <trkpt lat="43.94372" lon="1.85899">
        <ele>926.79998779297</ele>
        <time>2019-06-27T19:27:28.000Z</time>
      </trkpt>
      <trkpt lat="43.94374" lon="1.85899">
        <ele>927.20001220703</ele>
        <time>2019-06-27T19:27:29.000Z</time>
      </trkpt>
      <trkpt lat="43.94375" lon="1.85899">
        <ele>927.59997558594</ele>
        <time>2019-06-27T19:27:30.000Z</time>
      </trkpt>
      <trkpt lat="43.94376" lon="1.859">
        <ele>927.79998779297</ele>
        <time>2019-06-27T19:27:31.000Z</time>
      </trkpt>
      <trkpt lat="43.94377" lon="1.859">
        <ele>928</ele>
        <time>2019-06-27T19:27:32.000Z</time>
      </trkpt>
      <trkpt lat="43.94378" lon="1.859">
        <ele>928.20001220703</ele>
        <time>2019-06-27T19:27:33.000Z</time>
      </trkpt>
      <trkpt lat="43.94379" lon="1.859">
        <ele>928.40002441406</ele>
        <time>2019-06-27T19:27:34.000Z</time>
      </trkpt>
      <trkpt lat="43.94381" lon="1.85901">
        <ele>928.59997558594</ele>
        <time>2019-06-27T19:27:35.000Z</time>
      </trkpt>
      <trkpt lat="43.94382" lon="1.85901">
        <ele>928.79998779297</ele>
        <time>2019-06-27T19:27:36.000Z</time>
      </trkpt>
      <trkpt lat="43.94383" lon="1.85901">
        <ele>929</ele>
        <time>2019-06-27T19:27:37.000Z</time>
      </trkpt>
      <trkpt lat="43.94384" lon="1.85902">
        <ele>929.20001220703</ele>
        <time>2019-06-27T19:27:38.000Z</time>
      </trkpt>
      <trkpt lat="43.94385" lon="1.85902">
        <ele>929.20001220703</ele>
        <time>2019-06-27T19:27:39.000Z</time>
      </trkpt>
      <trkpt lat="43.94386" lon="1.85903">
        <ele>929.20001220703</ele>
        <time>2019-06-27T19:27:40.000Z</time>
      </trkpt>
      <trkpt lat="43.94387" lon="1.85903">
        <ele>929.40002441406</ele>
        <time>2019-06-27T19:27:41.000Z</time>
      </trkpt>
      <trkpt lat="43.94388" lon="1.85903">
        <ele>929.59997558594</ele>
        <time>2019-06-27T19:27:42.000Z</time>
      </trkpt>
      <trkpt lat="43.94389" lon="1.85904">
        <ele>929.79998779297</ele>
        <time>2019-06-27T19:27:43.000Z</time>
      </trkpt>
      <trkpt lat="43.9439" lon="1.85904">
        <ele>929.79998779297</ele>
        <time>2019-06-27T19:27:44.000Z</time>
      </trkpt>
      <trkpt lat="43.94391" lon="1.85905">
        <ele>930</ele>
        <time>2019-06-27T19:27:45.000Z</time>
      </trkpt>
      <trkpt lat="43.94393" lon="1.85906">
        <ele>930.20001220703</ele>
        <time>2019-06-27T19:27:46.000Z</time>
      </trkpt>
      <trkpt lat="43.94395" lon="1.85906">
        <ele>930.40002441406</ele>
        <time>2019-06-27T19:27:47.000Z</time>
      </trkpt>
      <trkpt lat="43.94396" lon="1.85906">
        <ele>930.59997558594</ele>
        <time>2019-06-27T19:27:48.000Z</time>
      </trkpt>
      <trkpt lat="43.94398" lon="1.85907">
        <ele>930.79998779297</ele>
        <time>2019-06-27T19:27:49.000Z</time>
      </trkpt>
      <trkpt lat="43.94399" lon="1.85907">
        <ele>931</ele>
        <time>2019-06-27T19:27:50.000Z</time>
      </trkpt>
      <trkpt lat="43.94401" lon="1.85907">
        <ele>931.20001220703</ele>
        <time>2019-06-27T19:27:51.000Z</time>
      </trkpt>
      <trkpt lat="43.94402" lon="1.85907">
        <ele>931.40002441406</ele>
        <time>2019-06-27T19:27:52.000Z</time>
      </trkpt>
      <trkpt lat="43.94404" lon="1.85907">
        <ele>931.79998779297</ele>
        <time>2019-06-27T19:27:53.000Z</time>
      </trkpt>
      <trkpt lat="43.94405" lon="1.85907">
        <ele>932.40002441406</ele>
        <time>2019-06-27T19:27:54.000Z</time>
      </trkpt>
      <trkpt lat="43.94407" lon="1.85907">
        <ele>932.79998779297</ele>
        <time>2019-06-27T19:27:55.000Z</time>
      </trkpt>
      <trkpt lat="43.94409" lon="1.85906">
        <ele>933.20001220703</ele>
        <time>2019-06-27T19:27:56.000Z</time>
      </trkpt>
      <trkpt lat="43.9441" lon="1.85906">
        <ele>933.40002441406</ele>
        <time>2019-06-27T19:27:57.000Z</time>
      </trkpt>
      <trkpt lat="43.94412" lon="1.85906">
        <ele>933.79998779297</ele>
        <time>2019-06-27T19:27:58.000Z</time>
      </trkpt>
      <trkpt lat="43.94414" lon="1.85906">
        <ele>934.20001220703</ele>
        <time>2019-06-27T19:27:59.000Z</time>
      </trkpt>
      <trkpt lat="43.94415" lon="1.85906">
        <ele>934.59997558594</ele>
        <time>2019-06-27T19:28:00.000Z</time>
      </trkpt>
      <trkpt lat="43.94417" lon="1.85906">
        <ele>935</ele>
        <time>2019-06-27T19:28:01.000Z</time>
      </trkpt>
      <trkpt lat="43.94418" lon="1.85906">
        <ele>935.40002441406</ele>
        <time>2019-06-27T19:28:02.000Z</time>
      </trkpt>
      <trkpt lat="43.9442" lon="1.85905">
        <ele>935.79998779297</ele>
        <time>2019-06-27T19:28:03.000Z</time>
      </trkpt>
      <trkpt lat="43.94421" lon="1.85904">
        <ele>936.20001220703</ele>
        <time>2019-06-27T19:28:04.000Z</time>
      </trkpt>
      <trkpt lat="43.94423" lon="1.85904">
        <ele>936.59997558594</ele>
        <time>2019-06-27T19:28:05.000Z</time>
      </trkpt>
      <trkpt lat="43.94425" lon="1.85903">
        <ele>936.79998779297</ele>
        <time>2019-06-27T19:28:06.000Z</time>
      </trkpt>
      <trkpt lat="43.94426" lon="1.85903">
        <ele>937</ele>
        <time>2019-06-27T19:28:07.000Z</time>
      </trkpt>
      <trkpt lat="43.94428" lon="1.85903">
        <ele>937.40002441406</ele>
        <time>2019-06-27T19:28:08.000Z</time>
      </trkpt>
      <trkpt lat="43.9443" lon="1.85903">
        <ele>937.59997558594</ele>
        <time>2019-06-27T19:28:09.000Z</time>
      </trkpt>
      <trkpt lat="43.94431" lon="1.85904">
        <ele>937.79998779297</ele>
        <time>2019-06-27T19:28:10.000Z</time>
      </trkpt>
      <trkpt lat="43.94433" lon="1.85904">
        <ele>938</ele>
        <time>2019-06-27T19:28:11.000Z</time>
      </trkpt>
      <trkpt lat="43.94434" lon="1.85904">
        <ele>938.40002441406</ele>
        <time>2019-06-27T19:28:12.000Z</time>
      </trkpt>
      <trkpt lat="43.94436" lon="1.85904">
        <ele>938.40002441406</ele>
        <time>2019-06-27T19:28:13.000Z</time>
      </trkpt>
      <trkpt lat="43.94437" lon="1.85905">
        <ele>938.79998779297</ele>
        <time>2019-06-27T19:28:14.000Z</time>
      </trkpt>
      <trkpt lat="43.94439" lon="1.85905">
        <ele>938.79998779297</ele>
        <time>2019-06-27T19:28:15.000Z</time>
      </trkpt>
      <trkpt lat="43.94441" lon="1.85905">
        <ele>939</ele>
        <time>2019-06-27T19:28:16.000Z</time>
      </trkpt>
      <trkpt lat="43.94442" lon="1.85905">
        <ele>939.20001220703</ele>
        <time>2019-06-27T19:28:17.000Z</time>
      </trkpt>
      <trkpt lat="43.94444" lon="1.85904">
        <ele>939.59997558594</ele>
        <time>2019-06-27T19:28:18.000Z</time>
      </trkpt>
      <trkpt lat="43.94446" lon="1.85905">
        <ele>939.59997558594</ele>
        <time>2019-06-27T19:28:19.000Z</time>
      </trkpt>
      <trkpt lat="43.94447" lon="1.85905">
        <ele>939.79998779297</ele>
        <time>2019-06-27T19:28:20.000Z</time>
      </trkpt>
      <trkpt lat="43.94449" lon="1.85906">
        <ele>940</ele>
        <time>2019-06-27T19:28:21.000Z</time>
      </trkpt>
      <trkpt lat="43.9445" lon="1.85906">
        <ele>940.20001220703</ele>
        <time>2019-06-27T19:28:22.000Z</time>
      </trkpt>
      <trkpt lat="43.94451" lon="1.85907">
        <ele>940.40002441406</ele>
        <time>2019-06-27T19:28:23.000Z</time>
      </trkpt>
      <trkpt lat="43.94452" lon="1.85907">
        <ele>940.40002441406</ele>
        <time>2019-06-27T19:28:24.000Z</time>
      </trkpt>
      <trkpt lat="43.94454" lon="1.85908">
        <ele>940.59997558594</ele>
        <time>2019-06-27T19:28:25.000Z</time>
      </trkpt>
      <trkpt lat="43.94455" lon="1.85908">
        <ele>940.59997558594</ele>
        <time>2019-06-27T19:28:26.000Z</time>
      </trkpt>
      <trkpt lat="43.94457" lon="1.85909">
        <ele>940.59997558594</ele>
        <time>2019-06-27T19:28:27.000Z</time>
      </trkpt>
      <trkpt lat="43.94458" lon="1.8591">
        <ele>940.79998779297</ele>
        <time>2019-06-27T19:28:28.000Z</time>
      </trkpt>
      <trkpt lat="43.9446" lon="1.85911">
        <ele>940.79998779297</ele>
        <time>2019-06-27T19:28:29.000Z</time>
      </trkpt>
      <trkpt lat="43.94461" lon="1.85913">
        <ele>940.79998779297</ele>
        <time>2019-06-27T19:28:30.000Z</time>
      </trkpt>
      <trkpt lat="43.94463" lon="1.85914">
        <ele>940.59997558594</ele>
        <time>2019-06-27T19:28:31.000Z</time>
      </trkpt>
      <trkpt lat="43.94464" lon="1.85916">
        <ele>940.59997558594</ele>
        <time>2019-06-27T19:28:32.000Z</time>
      </trkpt>
      <trkpt lat="43.94466" lon="1.85918">
        <ele>940.40002441406</ele>
        <time>2019-06-27T19:28:33.000Z</time>
      </trkpt>
      <trkpt lat="43.94469" lon="1.8592">
        <ele>940.40002441406</ele>
        <time>2019-06-27T19:28:34.000Z</time>
      </trkpt>
      <trkpt lat="43.94471" lon="1.85923">
        <ele>940.40002441406</ele>
        <time>2019-06-27T19:28:35.000Z</time>
      </trkpt>
      <trkpt lat="43.94474" lon="1.85927">
        <ele>940.20001220703</ele>
        <time>2019-06-27T19:28:36.000Z</time>
      </trkpt>
      <trkpt lat="43.94476" lon="1.85931">
        <ele>940</ele>
        <time>2019-06-27T19:28:37.000Z</time>
      </trkpt>
      <trkpt lat="43.94479" lon="1.85934">
        <ele>940</ele>
        <time>2019-06-27T19:28:38.000Z</time>
      </trkpt>
      <trkpt lat="43.94482" lon="1.85939">
        <ele>940</ele>
        <time>2019-06-27T19:28:39.000Z</time>
      </trkpt>
      <trkpt lat="43.94485" lon="1.85944">
        <ele>940</ele>
        <time>2019-06-27T19:28:40.000Z</time>
      </trkpt>
      <trkpt lat="43.94488" lon="1.85949">
        <ele>939.59997558594</ele>
        <time>2019-06-27T19:28:41.000Z</time>
      </trkpt>
      <trkpt lat="43.94491" lon="1.85955">
        <ele>939.20001220703</ele>
        <time>2019-06-27T19:28:42.000Z</time>
      </trkpt>
      <trkpt lat="43.94494" lon="1.8596">
        <ele>939.40002441406</ele>
        <time>2019-06-27T19:28:43.000Z</time>
      </trkpt>
      <trkpt lat="43.94498" lon="1.85966">
        <ele>939.40002441406</ele>
        <time>2019-06-27T19:28:44.000Z</time>
      </trkpt>
      <trkpt lat="43.94501" lon="1.8597">
        <ele>939</ele>
        <time>2019-06-27T19:28:45.000Z</time>
      </trkpt>
      <trkpt lat="43.94504" lon="1.85974">
        <ele>938.79998779297</ele>
        <time>2019-06-27T19:28:46.000Z</time>
      </trkpt>
      <trkpt lat="43.94506" lon="1.85978">
        <ele>938.59997558594</ele>
        <time>2019-06-27T19:28:47.000Z</time>
      </trkpt>
      <trkpt lat="43.94508" lon="1.85982">
        <ele>938.40002441406</ele>
        <time>2019-06-27T19:28:48.000Z</time>
      </trkpt>
      <trkpt lat="43.94511" lon="1.85985">
        <ele>938.40002441406</ele>
        <time>2019-06-27T19:28:49.000Z</time>
      </trkpt>
      <trkpt lat="43.94514" lon="1.85988">
        <ele>938.40002441406</ele>
        <time>2019-06-27T19:28:50.000Z</time>
      </trkpt>
      <trkpt lat="43.94516" lon="1.85991">
        <ele>938.20001220703</ele>
        <time>2019-06-27T19:28:51.000Z</time>
      </trkpt>
      <trkpt lat="43.94519" lon="1.85994">
        <ele>938</ele>
        <time>2019-06-27T19:28:52.000Z</time>
      </trkpt>
      <trkpt lat="43.94522" lon="1.85997">
        <ele>937.79998779297</ele>
        <time>2019-06-27T19:28:53.000Z</time>
      </trkpt>
      <trkpt lat="43.94525" lon="1.86">
        <ele>937.79998779297</ele>
        <time>2019-06-27T19:28:54.000Z</time>
      </trkpt>
      <trkpt lat="43.94527" lon="1.86002">
        <ele>937.79998779297</ele>
        <time>2019-06-27T19:28:55.000Z</time>
      </trkpt>
      <trkpt lat="43.94528" lon="1.86004">
        <ele>937.79998779297</ele>
        <time>2019-06-27T19:28:56.000Z</time>
      </trkpt>
      <trkpt lat="43.9453" lon="1.86006">
        <ele>937.79998779297</ele>
        <time>2019-06-27T19:28:57.000Z</time>
      </trkpt>
      <trkpt lat="43.94532" lon="1.86007">
        <ele>938</ele>
        <time>2019-06-27T19:28:58.000Z</time>
      </trkpt>
      <trkpt lat="43.94533" lon="1.8601">
        <ele>938.20001220703</ele>
        <time>2019-06-27T19:28:59.000Z</time>
      </trkpt>
      <trkpt lat="43.94535" lon="1.86011">
        <ele>938.40002441406</ele>
        <time>2019-06-27T19:29:00.000Z</time>
      </trkpt>
      <trkpt lat="43.94537" lon="1.86012">
        <ele>938.40002441406</ele>
        <time>2019-06-27T19:29:01.000Z</time>
      </trkpt>
      <trkpt lat="43.94539" lon="1.86013">
        <ele>938.40002441406</ele>
        <time>2019-06-27T19:29:02.000Z</time>
      </trkpt>
      <trkpt lat="43.94541" lon="1.86014">
        <ele>938.59997558594</ele>
        <time>2019-06-27T19:29:03.000Z</time>
      </trkpt>
      <trkpt lat="43.94543" lon="1.86016">
        <ele>938.59997558594</ele>
        <time>2019-06-27T19:29:04.000Z</time>
      </trkpt>
      <trkpt lat="43.94546" lon="1.86017">
        <ele>938.79998779297</ele>
        <time>2019-06-27T19:29:05.000Z</time>
      </trkpt>
      <trkpt lat="43.94548" lon="1.86018">
        <ele>938.79998779297</ele>
        <time>2019-06-27T19:29:06.000Z</time>
      </trkpt>
      <trkpt lat="43.9455" lon="1.86019">
        <ele>939</ele>
        <time>2019-06-27T19:29:07.000Z</time>
      </trkpt>
      <trkpt lat="43.94552" lon="1.86021">
        <ele>939.20001220703</ele>
        <time>2019-06-27T19:29:08.000Z</time>
      </trkpt>
      <trkpt lat="43.94554" lon="1.86022">
        <ele>939.20001220703</ele>
        <time>2019-06-27T19:29:09.000Z</time>
      </trkpt>
      <trkpt lat="43.94557" lon="1.86023">
        <ele>939.40002441406</ele>
        <time>2019-06-27T19:29:10.000Z</time>
      </trkpt>
      <trkpt lat="43.94559" lon="1.86024">
        <ele>939.59997558594</ele>
        <time>2019-06-27T19:29:11.000Z</time>
      </trkpt>
      <trkpt lat="43.94562" lon="1.86025">
        <ele>939.59997558594</ele>
        <time>2019-06-27T19:29:12.000Z</time>
      </trkpt>
      <trkpt lat="43.94564" lon="1.86027">
        <ele>939.79998779297</ele>
        <time>2019-06-27T19:29:13.000Z</time>
      </trkpt>
      <trkpt lat="43.94567" lon="1.86028">
        <ele>940</ele>
        <time>2019-06-27T19:29:14.000Z</time>
      </trkpt>
      <trkpt lat="43.94569" lon="1.8603">
        <ele>940</ele>
        <time>2019-06-27T19:29:15.000Z</time>
      </trkpt>
      <trkpt lat="43.94572" lon="1.86031">
        <ele>940.20001220703</ele>
        <time>2019-06-27T19:29:16.000Z</time>
      </trkpt>
      <trkpt lat="43.94574" lon="1.86033">
        <ele>940.40002441406</ele>
        <time>2019-06-27T19:29:17.000Z</time>
      </trkpt>
      <trkpt lat="43.94576" lon="1.86034">
        <ele>940.59997558594</ele>
        <time>2019-06-27T19:29:18.000Z</time>
      </trkpt>
      <trkpt lat="43.94579" lon="1.86036">
        <ele>940.79998779297</ele>
        <time>2019-06-27T19:29:19.000Z</time>
      </trkpt>
      <trkpt lat="43.94581" lon="1.86037">
        <ele>940.79998779297</ele>
        <time>2019-06-27T19:29:20.000Z</time>
      </trkpt>
      <trkpt lat="43.94584" lon="1.86039">
        <ele>941</ele>
        <time>2019-06-27T19:29:21.000Z</time>
      </trkpt>
      <trkpt lat="43.94586" lon="1.8604">
        <ele>941.20001220703</ele>
        <time>2019-06-27T19:29:22.000Z</time>
      </trkpt>
      <trkpt lat="43.94589" lon="1.86042">
        <ele>941.20001220703</ele>
        <time>2019-06-27T19:29:23.000Z</time>
      </trkpt>
      <trkpt lat="43.94591" lon="1.86043">
        <ele>941.40002441406</ele>
        <time>2019-06-27T19:29:24.000Z</time>
      </trkpt>
      <trkpt lat="43.94594" lon="1.86044">
        <ele>941.59997558594</ele>
        <time>2019-06-27T19:29:25.000Z</time>
      </trkpt>
      <trkpt lat="43.94597" lon="1.86046">
        <ele>941.79998779297</ele>
        <time>2019-06-27T19:29:26.000Z</time>
      </trkpt>
      <trkpt lat="43.94599" lon="1.86047">
        <ele>941.79998779297</ele>
        <time>2019-06-27T19:29:27.000Z</time>
      </trkpt>
      <trkpt lat="43.94602" lon="1.86048">
        <ele>942</ele>
        <time>2019-06-27T19:29:28.000Z</time>
      </trkpt>
      <trkpt lat="43.94605" lon="1.8605">
        <ele>942</ele>
        <time>2019-06-27T19:29:29.000Z</time>
      </trkpt>
      <trkpt lat="43.94607" lon="1.86051">
        <ele>942.20001220703</ele>
        <time>2019-06-27T19:29:30.000Z</time>
      </trkpt>
      <trkpt lat="43.9461" lon="1.86052">
        <ele>942.40002441406</ele>
        <time>2019-06-27T19:29:31.000Z</time>
      </trkpt>
      <trkpt lat="43.94613" lon="1.86053">
        <ele>942.40002441406</ele>
        <time>2019-06-27T19:29:32.000Z</time>
      </trkpt>
      <trkpt lat="43.94615" lon="1.86053">
        <ele>942.59997558594</ele>
        <time>2019-06-27T19:29:33.000Z</time>
      </trkpt>
      <trkpt lat="43.94618" lon="1.86055">
        <ele>942.59997558594</ele>
        <time>2019-06-27T19:29:34.000Z</time>
      </trkpt>
      <trkpt lat="43.94621" lon="1.86056">
        <ele>942.79998779297</ele>
        <time>2019-06-27T19:29:35.000Z</time>
      </trkpt>
      <trkpt lat="43.94624" lon="1.86056">
        <ele>943</ele>
        <time>2019-06-27T19:29:36.000Z</time>
      </trkpt>
      <trkpt lat="43.94627" lon="1.86057">
        <ele>943</ele>
        <time>2019-06-27T19:29:37.000Z</time>
      </trkpt>
      <trkpt lat="43.9463" lon="1.86057">
        <ele>943</ele>
        <time>2019-06-27T19:29:38.000Z</time>
      </trkpt>
      <trkpt lat="43.94633" lon="1.86057">
        <ele>943</ele>
        <time>2019-06-27T19:29:39.000Z</time>
      </trkpt>
      <trkpt lat="43.94636" lon="1.86058">
        <ele>942.79998779297</ele>
        <time>2019-06-27T19:29:40.000Z</time>
      </trkpt>
      <trkpt lat="43.94639" lon="1.86058">
        <ele>942.79998779297</ele>
        <time>2019-06-27T19:29:41.000Z</time>
      </trkpt>
      <trkpt lat="43.94642" lon="1.86059">
        <ele>943</ele>
        <time>2019-06-27T19:29:42.000Z</time>
      </trkpt>
      <trkpt lat="43.94645" lon="1.8606">
        <ele>943</ele>
        <time>2019-06-27T19:29:43.000Z</time>
      </trkpt>
      <trkpt lat="43.94648" lon="1.8606">
        <ele>943</ele>
        <time>2019-06-27T19:29:44.000Z</time>
      </trkpt>
      <trkpt lat="43.94651" lon="1.86061">
        <ele>943</ele>
        <time>2019-06-27T19:29:45.000Z</time>
      </trkpt>
      <trkpt lat="43.94655" lon="1.86061">
        <ele>943</ele>
        <time>2019-06-27T19:29:46.000Z</time>
      </trkpt>
      <trkpt lat="43.94658" lon="1.86062">
        <ele>943</ele>
        <time>2019-06-27T19:29:47.000Z</time>
      </trkpt>
      <trkpt lat="43.94661" lon="1.86063">
        <ele>942.79998779297</ele>
        <time>2019-06-27T19:29:48.000Z</time>
      </trkpt>
      <trkpt lat="43.94665" lon="1.86063">
        <ele>942.79998779297</ele>
        <time>2019-06-27T19:29:49.000Z</time>
      </trkpt>
      <trkpt lat="43.94668" lon="1.86064">
        <ele>942.79998779297</ele>
        <time>2019-06-27T19:29:50.000Z</time>
      </trkpt>
      <trkpt lat="43.94672" lon="1.86064">
        <ele>943</ele>
        <time>2019-06-27T19:29:51.000Z</time>
      </trkpt>
      <trkpt lat="43.94675" lon="1.86065">
        <ele>943</ele>
        <time>2019-06-27T19:29:52.000Z</time>
      </trkpt>
      <trkpt lat="43.94679" lon="1.86066">
        <ele>942.79998779297</ele>
        <time>2019-06-27T19:29:53.000Z</time>
      </trkpt>
      <trkpt lat="43.94683" lon="1.86067">
        <ele>942.79998779297</ele>
        <time>2019-06-27T19:29:54.000Z</time>
      </trkpt>
      <trkpt lat="43.94687" lon="1.86068">
        <ele>942.79998779297</ele>
        <time>2019-06-27T19:29:55.000Z</time>
      </trkpt>
      <trkpt lat="43.94691" lon="1.86068">
        <ele>942.79998779297</ele>
        <time>2019-06-27T19:29:56.000Z</time>
      </trkpt>
      <trkpt lat="43.94695" lon="1.86069">
        <ele>942.59997558594</ele>
        <time>2019-06-27T19:29:57.000Z</time>
      </trkpt>
      <trkpt lat="43.94699" lon="1.8607">
        <ele>942.59997558594</ele>
        <time>2019-06-27T19:29:58.000Z</time>
      </trkpt>
      <trkpt lat="43.94704" lon="1.8607">
        <ele>942.59997558594</ele>
        <time>2019-06-27T19:29:59.000Z</time>
      </trkpt>
      <trkpt lat="43.94707" lon="1.86071">
        <ele>942.59997558594</ele>
        <time>2019-06-27T19:30:00.000Z</time>
      </trkpt>
      <trkpt lat="43.94711" lon="1.86071">
        <ele>942.40002441406</ele>
        <time>2019-06-27T19:30:01.000Z</time>
      </trkpt>
      <trkpt lat="43.94715" lon="1.86072">
        <ele>942.40002441406</ele>
        <time>2019-06-27T19:30:02.000Z</time>
      </trkpt>
      <trkpt lat="43.94719" lon="1.86073">
        <ele>942.40002441406</ele>
        <time>2019-06-27T19:30:03.000Z</time>
      </trkpt>
      <trkpt lat="43.94723" lon="1.86074">
        <ele>942.20001220703</ele>
        <time>2019-06-27T19:30:04.000Z</time>
      </trkpt>
      <trkpt lat="43.94727" lon="1.86075">
        <ele>942.40002441406</ele>
        <time>2019-06-27T19:30:05.000Z</time>
      </trkpt>
      <trkpt lat="43.94731" lon="1.86076">
        <ele>942.40002441406</ele>
        <time>2019-06-27T19:30:06.000Z</time>
      </trkpt>
      <trkpt lat="43.94734" lon="1.86078">
        <ele>942.40002441406</ele>
        <time>2019-06-27T19:30:07.000Z</time>
      </trkpt>
      <trkpt lat="43.94738" lon="1.8608">
        <ele>942.40002441406</ele>
        <time>2019-06-27T19:30:08.000Z</time>
      </trkpt>
      <trkpt lat="43.94742" lon="1.86081">
        <ele>942.20001220703</ele>
        <time>2019-06-27T19:30:09.000Z</time>
      </trkpt>
      <trkpt lat="43.94746" lon="1.86083">
        <ele>942.40002441406</ele>
        <time>2019-06-27T19:30:10.000Z</time>
      </trkpt>
      <trkpt lat="43.9475" lon="1.86086">
        <ele>942.20001220703</ele>
        <time>2019-06-27T19:30:11.000Z</time>
      </trkpt>
      <trkpt lat="43.94754" lon="1.86088">
        <ele>942.20001220703</ele>
        <time>2019-06-27T19:30:12.000Z</time>
      </trkpt>
      <trkpt lat="43.94758" lon="1.86091">
        <ele>942.20001220703</ele>
        <time>2019-06-27T19:30:13.000Z</time>
      </trkpt>
      <trkpt lat="43.94762" lon="1.86094">
        <ele>942.40002441406</ele>
        <time>2019-06-27T19:30:14.000Z</time>
      </trkpt>
      <trkpt lat="43.94766" lon="1.86098">
        <ele>942.20001220703</ele>
        <time>2019-06-27T19:30:15.000Z</time>
      </trkpt>
      <trkpt lat="43.9477" lon="1.86101">
        <ele>942.20001220703</ele>
        <time>2019-06-27T19:30:16.000Z</time>
      </trkpt>
      <trkpt lat="43.94774" lon="1.86104">
        <ele>942.20001220703</ele>
        <time>2019-06-27T19:30:17.000Z</time>
      </trkpt>
      <trkpt lat="43.94777" lon="1.86108">
        <ele>942</ele>
        <time>2019-06-27T19:30:18.000Z</time>
      </trkpt>
      <trkpt lat="43.94781" lon="1.86111">
        <ele>941.79998779297</ele>
        <time>2019-06-27T19:30:19.000Z</time>
      </trkpt>
      <trkpt lat="43.94785" lon="1.86115">
        <ele>941.79998779297</ele>
        <time>2019-06-27T19:30:20.000Z</time>
      </trkpt>
      <trkpt lat="43.94789" lon="1.86119">
        <ele>941.59997558594</ele>
        <time>2019-06-27T19:30:21.000Z</time>
      </trkpt>
      <trkpt lat="43.94793" lon="1.86123">
        <ele>941.40002441406</ele>
        <time>2019-06-27T19:30:22.000Z</time>
      </trkpt>
      <trkpt lat="43.94797" lon="1.86127">
        <ele>941.40002441406</ele>
        <time>2019-06-27T19:30:23.000Z</time>
      </trkpt>
      <trkpt lat="43.94801" lon="1.86131">
        <ele>941.40002441406</ele>
        <time>2019-06-27T19:30:24.000Z</time>
      </trkpt>
      <trkpt lat="43.94805" lon="1.86134">
        <ele>941.40002441406</ele>
        <time>2019-06-27T19:30:25.000Z</time>
      </trkpt>
      <trkpt lat="43.94809" lon="1.86138">
        <ele>941.20001220703</ele>
        <time>2019-06-27T19:30:26.000Z</time>
      </trkpt>
      <trkpt lat="43.94813" lon="1.86142">
        <ele>941.20001220703</ele>
        <time>2019-06-27T19:30:27.000Z</time>
      </trkpt>
      <trkpt lat="43.94817" lon="1.86145">
        <ele>941.20001220703</ele>
        <time>2019-06-27T19:30:28.000Z</time>
      </trkpt>
      <trkpt lat="43.94821" lon="1.86149">
        <ele>941.20001220703</ele>
        <time>2019-06-27T19:30:29.000Z</time>
      </trkpt>
      <trkpt lat="43.94825" lon="1.86152">
        <ele>941</ele>
        <time>2019-06-27T19:30:30.000Z</time>
      </trkpt>
      <trkpt lat="43.94829" lon="1.86157">
        <ele>941</ele>
        <time>2019-06-27T19:30:31.000Z</time>
      </trkpt>
      <trkpt lat="43.94833" lon="1.86161">
        <ele>940.79998779297</ele>
        <time>2019-06-27T19:30:32.000Z</time>
      </trkpt>
      <trkpt lat="43.94837" lon="1.86166">
        <ele>940.79998779297</ele>
        <time>2019-06-27T19:30:33.000Z</time>
      </trkpt>
      <trkpt lat="43.94842" lon="1.8617">
        <ele>940.59997558594</ele>
        <time>2019-06-27T19:30:34.000Z</time>
      </trkpt>
      <trkpt lat="43.94847" lon="1.86174">
        <ele>940.59997558594</ele>
        <time>2019-06-27T19:30:35.000Z</time>
      </trkpt>
      <trkpt lat="43.94851" lon="1.86179">
        <ele>940.40002441406</ele>
        <time>2019-06-27T19:30:36.000Z</time>
      </trkpt>
      <trkpt lat="43.94856" lon="1.86184">
        <ele>940.20001220703</ele>
        <time>2019-06-27T19:30:37.000Z</time>
      </trkpt>
      <trkpt lat="43.9486" lon="1.86188">
        <ele>940.20001220703</ele>
        <time>2019-06-27T19:30:38.000Z</time>
      </trkpt>
      <trkpt lat="43.94865" lon="1.86193">
        <ele>940</ele>
        <time>2019-06-27T19:30:39.000Z</time>
      </trkpt>
      <trkpt lat="43.9487" lon="1.86197">
        <ele>940</ele>
        <time>2019-06-27T19:30:40.000Z</time>
      </trkpt>
      <trkpt lat="43.94874" lon="1.86202">
        <ele>939.79998779297</ele>
        <time>2019-06-27T19:30:41.000Z</time>
      </trkpt>
      <trkpt lat="43.94879" lon="1.86208">
        <ele>939.59997558594</ele>
        <time>2019-06-27T19:30:42.000Z</time>
      </trkpt>
      <trkpt lat="43.94883" lon="1.86213">
        <ele>939.59997558594</ele>
        <time>2019-06-27T19:30:43.000Z</time>
      </trkpt>
      <trkpt lat="43.94887" lon="1.86219">
        <ele>939.40002441406</ele>
        <time>2019-06-27T19:30:44.000Z</time>
      </trkpt>
      <trkpt lat="43.94891" lon="1.86226">
        <ele>939.20001220703</ele>
        <time>2019-06-27T19:30:45.000Z</time>
      </trkpt>
      <trkpt lat="43.94894" lon="1.86233">
        <ele>939</ele>
        <time>2019-06-27T19:30:46.000Z</time>
      </trkpt>
      <trkpt lat="43.94897" lon="1.8624">
        <ele>938.79998779297</ele>
        <time>2019-06-27T19:30:47.000Z</time>
      </trkpt>
      <trkpt lat="43.94901" lon="1.86247">
        <ele>938.59997558594</ele>
        <time>2019-06-27T19:30:48.000Z</time>
      </trkpt>
      <trkpt lat="43.94904" lon="1.86255">
        <ele>938.59997558594</ele>
        <time>2019-06-27T19:30:49.000Z</time>
      </trkpt>
      <trkpt lat="43.94907" lon="1.86263">
        <ele>938.40002441406</ele>
        <time>2019-06-27T19:30:50.000Z</time>
      </trkpt>
      <trkpt lat="43.94909" lon="1.86271">
        <ele>938.20001220703</ele>
        <time>2019-06-27T19:30:51.000Z</time>
      </trkpt>
      <trkpt lat="43.94912" lon="1.86279">
        <ele>938</ele>
        <time>2019-06-27T19:30:52.000Z</time>
      </trkpt>
      <trkpt lat="43.94915" lon="1.86287">
        <ele>938</ele>
        <time>2019-06-27T19:30:53.000Z</time>
      </trkpt>
      <trkpt lat="43.94918" lon="1.86295">
        <ele>937.79998779297</ele>
        <time>2019-06-27T19:30:54.000Z</time>
      </trkpt>
      <trkpt lat="43.94921" lon="1.86303">
        <ele>937.59997558594</ele>
        <time>2019-06-27T19:30:55.000Z</time>
      </trkpt>
      <trkpt lat="43.94924" lon="1.86311">
        <ele>937.40002441406</ele>
        <time>2019-06-27T19:30:56.000Z</time>
      </trkpt>
      <trkpt lat="43.94928" lon="1.8632">
        <ele>937.20001220703</ele>
        <time>2019-06-27T19:30:57.000Z</time>
      </trkpt>
      <trkpt lat="43.94931" lon="1.86328">
        <ele>937.20001220703</ele>
        <time>2019-06-27T19:30:58.000Z</time>
      </trkpt>
      <trkpt lat="43.94934" lon="1.86337">
        <ele>937.20001220703</ele>
        <time>2019-06-27T19:30:59.000Z</time>
      </trkpt>
      <trkpt lat="43.94937" lon="1.86345">
        <ele>937</ele>
        <time>2019-06-27T19:31:00.000Z</time>
      </trkpt>
      <trkpt lat="43.94941" lon="1.86353">
        <ele>936.59997558594</ele>
        <time>2019-06-27T19:31:01.000Z</time>
      </trkpt>
      <trkpt lat="43.94944" lon="1.86361">
        <ele>936.20001220703</ele>
        <time>2019-06-27T19:31:02.000Z</time>
      </trkpt>
      <trkpt lat="43.94947" lon="1.86369">
        <ele>936.40002441406</ele>
        <time>2019-06-27T19:31:03.000Z</time>
      </trkpt>
      <trkpt lat="43.9495" lon="1.86377">
        <ele>936.40002441406</ele>
        <time>2019-06-27T19:31:04.000Z</time>
      </trkpt>
      <trkpt lat="43.94953" lon="1.86385">
        <ele>936.20001220703</ele>
        <time>2019-06-27T19:31:05.000Z</time>
      </trkpt>
      <trkpt lat="43.94956" lon="1.86393">
        <ele>935.79998779297</ele>
        <time>2019-06-27T19:31:06.000Z</time>
      </trkpt>
      <trkpt lat="43.94959" lon="1.864">
        <ele>935.59997558594</ele>
        <time>2019-06-27T19:31:07.000Z</time>
      </trkpt>
      <trkpt lat="43.94962" lon="1.86407">
        <ele>935.79998779297</ele>
        <time>2019-06-27T19:31:08.000Z</time>
      </trkpt>
      <trkpt lat="43.94965" lon="1.86414">
        <ele>935.79998779297</ele>
        <time>2019-06-27T19:31:09.000Z</time>
      </trkpt>
      <trkpt lat="43.94967" lon="1.86421">
        <ele>935.59997558594</ele>
        <time>2019-06-27T19:31:10.000Z</time>
      </trkpt>
      <trkpt lat="43.9497" lon="1.86427">
        <ele>935.40002441406</ele>
        <time>2019-06-27T19:31:11.000Z</time>
      </trkpt>
      <trkpt lat="43.94972" lon="1.86433">
        <ele>935.40002441406</ele>
        <time>2019-06-27T19:31:12.000Z</time>
      </trkpt>
      <trkpt lat="43.94975" lon="1.86439">
        <ele>935.40002441406</ele>
        <time>2019-06-27T19:31:13.000Z</time>
      </trkpt>
      <trkpt lat="43.94977" lon="1.86444">
        <ele>935.40002441406</ele>
        <time>2019-06-27T19:31:14.000Z</time>
      </trkpt>
      <trkpt lat="43.94979" lon="1.86449">
        <ele>935.40002441406</ele>
        <time>2019-06-27T19:31:15.000Z</time>
      </trkpt>
      <trkpt lat="43.94982" lon="1.86454">
        <ele>935.40002441406</ele>
        <time>2019-06-27T19:31:16.000Z</time>
      </trkpt>
      <trkpt lat="43.94984" lon="1.86459">
        <ele>935.40002441406</ele>
        <time>2019-06-27T19:31:17.000Z</time>
      </trkpt>
      <trkpt lat="43.94986" lon="1.86464">
        <ele>935.59997558594</ele>
        <time>2019-06-27T19:31:18.000Z</time>
      </trkpt>
      <trkpt lat="43.94989" lon="1.86468">
        <ele>935.59997558594</ele>
        <time>2019-06-27T19:31:19.000Z</time>
      </trkpt>
      <trkpt lat="43.94991" lon="1.86472">
        <ele>935.79998779297</ele>
        <time>2019-06-27T19:31:20.000Z</time>
      </trkpt>
      <trkpt lat="43.94994" lon="1.86476">
        <ele>935.79998779297</ele>
        <time>2019-06-27T19:31:21.000Z</time>
      </trkpt>
      <trkpt lat="43.94996" lon="1.86479">
        <ele>935.79998779297</ele>
        <time>2019-06-27T19:31:22.000Z</time>
      </trkpt>
      <trkpt lat="43.94999" lon="1.86483">
        <ele>936</ele>
        <time>2019-06-27T19:31:23.000Z</time>
      </trkpt>
      <trkpt lat="43.95001" lon="1.86485">
        <ele>936</ele>
        <time>2019-06-27T19:31:24.000Z</time>
      </trkpt>
      <trkpt lat="43.95004" lon="1.86488">
        <ele>936.20001220703</ele>
        <time>2019-06-27T19:31:25.000Z</time>
      </trkpt>
      <trkpt lat="43.95007" lon="1.86491">
        <ele>936.20001220703</ele>
        <time>2019-06-27T19:31:26.000Z</time>
      </trkpt>
      <trkpt lat="43.9501" lon="1.86494">
        <ele>936.20001220703</ele>
        <time>2019-06-27T19:31:27.000Z</time>
      </trkpt>
      <trkpt lat="43.95012" lon="1.86496">
        <ele>936.40002441406</ele>
        <time>2019-06-27T19:31:28.000Z</time>
      </trkpt>
      <trkpt lat="43.95015" lon="1.86499">
        <ele>936.40002441406</ele>
        <time>2019-06-27T19:31:29.000Z</time>
      </trkpt>
      <trkpt lat="43.95018" lon="1.86501">
        <ele>936.40002441406</ele>
        <time>2019-06-27T19:31:30.000Z</time>
      </trkpt>
      <trkpt lat="43.95021" lon="1.86504">
        <ele>936.59997558594</ele>
        <time>2019-06-27T19:31:31.000Z</time>
      </trkpt>
      <trkpt lat="43.95024" lon="1.86507">
        <ele>936.59997558594</ele>
        <time>2019-06-27T19:31:32.000Z</time>
      </trkpt>
      <trkpt lat="43.95027" lon="1.86509">
        <ele>936.59997558594</ele>
        <time>2019-06-27T19:31:33.000Z</time>
      </trkpt>
      <trkpt lat="43.9503" lon="1.86512">
        <ele>936.79998779297</ele>
        <time>2019-06-27T19:31:34.000Z</time>
      </trkpt>
      <trkpt lat="43.95033" lon="1.86515">
        <ele>936.79998779297</ele>
        <time>2019-06-27T19:31:35.000Z</time>
      </trkpt>
      <trkpt lat="43.95036" lon="1.86517">
        <ele>936.79998779297</ele>
        <time>2019-06-27T19:31:36.000Z</time>
      </trkpt>
      <trkpt lat="43.95039" lon="1.8652">
        <ele>936.79998779297</ele>
        <time>2019-06-27T19:31:37.000Z</time>
      </trkpt>
      <trkpt lat="43.95042" lon="1.86523">
        <ele>937</ele>
        <time>2019-06-27T19:31:38.000Z</time>
      </trkpt>
      <trkpt lat="43.95045" lon="1.86525">
        <ele>937</ele>
        <time>2019-06-27T19:31:39.000Z</time>
      </trkpt>
      <trkpt lat="43.95048" lon="1.86528">
        <ele>937</ele>
        <time>2019-06-27T19:31:40.000Z</time>
      </trkpt>
      <trkpt lat="43.95051" lon="1.8653">
        <ele>936.79998779297</ele>
        <time>2019-06-27T19:31:41.000Z</time>
      </trkpt>
      <trkpt lat="43.95054" lon="1.86533">
        <ele>937</ele>
        <time>2019-06-27T19:31:42.000Z</time>
      </trkpt>
      <trkpt lat="43.95057" lon="1.86535">
        <ele>937.20001220703</ele>
        <time>2019-06-27T19:31:43.000Z</time>
      </trkpt>
      <trkpt lat="43.9506" lon="1.86538">
        <ele>937.59997558594</ele>
        <time>2019-06-27T19:31:44.000Z</time>
      </trkpt>
      <trkpt lat="43.95064" lon="1.86541">
        <ele>937.79998779297</ele>
        <time>2019-06-27T19:31:45.000Z</time>
      </trkpt>
      <trkpt lat="43.95067" lon="1.86543">
        <ele>937.79998779297</ele>
        <time>2019-06-27T19:31:46.000Z</time>
      </trkpt>
      <trkpt lat="43.9507" lon="1.86546">
        <ele>938</ele>
        <time>2019-06-27T19:31:47.000Z</time>
      </trkpt>
      <trkpt lat="43.95073" lon="1.86549">
        <ele>938</ele>
        <time>2019-06-27T19:31:48.000Z</time>
      </trkpt>
      <trkpt lat="43.95076" lon="1.86551">
        <ele>938.20001220703</ele>
        <time>2019-06-27T19:31:49.000Z</time>
      </trkpt>
      <trkpt lat="43.95079" lon="1.86554">
        <ele>938.20001220703</ele>
        <time>2019-06-27T19:31:50.000Z</time>
      </trkpt>
      <trkpt lat="43.95082" lon="1.86557">
        <ele>938.40002441406</ele>
        <time>2019-06-27T19:31:51.000Z</time>
      </trkpt>
      <trkpt lat="43.95084" lon="1.86559">
        <ele>938.59997558594</ele>
        <time>2019-06-27T19:31:52.000Z</time>
      </trkpt>
      <trkpt lat="43.95087" lon="1.86562">
        <ele>938.79998779297</ele>
        <time>2019-06-27T19:31:53.000Z</time>
      </trkpt>
      <trkpt lat="43.9509" lon="1.86564">
        <ele>939</ele>
        <time>2019-06-27T19:31:54.000Z</time>
      </trkpt>
      <trkpt lat="43.95092" lon="1.86567">
        <ele>939.20001220703</ele>
        <time>2019-06-27T19:31:55.000Z</time>
      </trkpt>
      <trkpt lat="43.95095" lon="1.8657">
        <ele>939.40002441406</ele>
        <time>2019-06-27T19:31:56.000Z</time>
      </trkpt>
      <trkpt lat="43.95097" lon="1.86573">
        <ele>939.59997558594</ele>
        <time>2019-06-27T19:31:57.000Z</time>
      </trkpt>
      <trkpt lat="43.951" lon="1.86575">
        <ele>939.79998779297</ele>
        <time>2019-06-27T19:31:58.000Z</time>
      </trkpt>
      <trkpt lat="43.95103" lon="1.86578">
        <ele>940</ele>
        <time>2019-06-27T19:31:59.000Z</time>
      </trkpt>
      <trkpt lat="43.95105" lon="1.86581">
        <ele>940.20001220703</ele>
        <time>2019-06-27T19:32:00.000Z</time>
      </trkpt>
      <trkpt lat="43.95107" lon="1.86584">
        <ele>940.40002441406</ele>
        <time>2019-06-27T19:32:01.000Z</time>
      </trkpt>
      <trkpt lat="43.9511" lon="1.86586">
        <ele>940.79998779297</ele>
        <time>2019-06-27T19:32:02.000Z</time>
      </trkpt>
      <trkpt lat="43.95112" lon="1.86589">
        <ele>941</ele>
        <time>2019-06-27T19:32:03.000Z</time>
      </trkpt>
      <trkpt lat="43.95114" lon="1.86592">
        <ele>941.20001220703</ele>
        <time>2019-06-27T19:32:04.000Z</time>
      </trkpt>
      <trkpt lat="43.95117" lon="1.86595">
        <ele>941.40002441406</ele>
        <time>2019-06-27T19:32:05.000Z</time>
      </trkpt>
      <trkpt lat="43.95119" lon="1.86598">
        <ele>941.59997558594</ele>
        <time>2019-06-27T19:32:06.000Z</time>
      </trkpt>
      <trkpt lat="43.95121" lon="1.86601">
        <ele>942</ele>
        <time>2019-06-27T19:32:07.000Z</time>
      </trkpt>
      <trkpt lat="43.95124" lon="1.86605">
        <ele>942.40002441406</ele>
        <time>2019-06-27T19:32:08.000Z</time>
      </trkpt>
      <trkpt lat="43.95126" lon="1.86608">
        <ele>942.79998779297</ele>
        <time>2019-06-27T19:32:09.000Z</time>
      </trkpt>
      <trkpt lat="43.95129" lon="1.86612">
        <ele>943</ele>
        <time>2019-06-27T19:32:10.000Z</time>
      </trkpt>
      <trkpt lat="43.95131" lon="1.86615">
        <ele>943.40002441406</ele>
        <time>2019-06-27T19:32:11.000Z</time>
      </trkpt>
      <trkpt lat="43.95133" lon="1.86619">
        <ele>943.59997558594</ele>
        <time>2019-06-27T19:32:12.000Z</time>
      </trkpt>
      <trkpt lat="43.95136" lon="1.86623">
        <ele>944</ele>
        <time>2019-06-27T19:32:13.000Z</time>
      </trkpt>
      <trkpt lat="43.95138" lon="1.86627">
        <ele>944.40002441406</ele>
        <time>2019-06-27T19:32:14.000Z</time>
      </trkpt>
      <trkpt lat="43.95141" lon="1.86631">
        <ele>944.79998779297</ele>
        <time>2019-06-27T19:32:15.000Z</time>
      </trkpt>
      <trkpt lat="43.95143" lon="1.86635">
        <ele>945</ele>
        <time>2019-06-27T19:32:16.000Z</time>
      </trkpt>
      <trkpt lat="43.95145" lon="1.86639">
        <ele>945.20001220703</ele>
        <time>2019-06-27T19:32:17.000Z</time>
      </trkpt>
      <trkpt lat="43.95148" lon="1.86642">
        <ele>945.40002441406</ele>
        <time>2019-06-27T19:32:18.000Z</time>
      </trkpt>
      <trkpt lat="43.9515" lon="1.86646">
        <ele>946.20001220703</ele>
        <time>2019-06-27T19:32:19.000Z</time>
      </trkpt>
      <trkpt lat="43.95153" lon="1.86649">
        <ele>946.59997558594</ele>
        <time>2019-06-27T19:32:20.000Z</time>
      </trkpt>
      <trkpt lat="43.95155" lon="1.86653">
        <ele>946.79998779297</ele>
        <time>2019-06-27T19:32:21.000Z</time>
      </trkpt>
      <trkpt lat="43.95157" lon="1.86656">
        <ele>946.79998779297</ele>
        <time>2019-06-27T19:32:22.000Z</time>
      </trkpt>
      <trkpt lat="43.95158" lon="1.86658">
        <ele>946.79998779297</ele>
        <time>2019-06-27T19:32:23.000Z</time>
      </trkpt>
      <trkpt lat="43.9516" lon="1.86661">
        <ele>947</ele>
        <time>2019-06-27T19:32:24.000Z</time>
      </trkpt>
      <trkpt lat="43.95162" lon="1.86664">
        <ele>947</ele>
        <time>2019-06-27T19:32:25.000Z</time>
      </trkpt>
      <trkpt lat="43.95163" lon="1.86666">
        <ele>947.20001220703</ele>
        <time>2019-06-27T19:32:26.000Z</time>
      </trkpt>
      <trkpt lat="43.95165" lon="1.86668">
        <ele>947.40002441406</ele>
        <time>2019-06-27T19:32:27.000Z</time>
      </trkpt>
      <trkpt lat="43.95167" lon="1.8667">
        <ele>947.59997558594</ele>
        <time>2019-06-27T19:32:28.000Z</time>
      </trkpt>
      <trkpt lat="43.95168" lon="1.86673">
        <ele>947.59997558594</ele>
        <time>2019-06-27T19:32:29.000Z</time>
      </trkpt>
      <trkpt lat="43.9517" lon="1.86676">
        <ele>947.59997558594</ele>
        <time>2019-06-27T19:32:30.000Z</time>
      </trkpt>
      <trkpt lat="43.95171" lon="1.86679">
        <ele>947.79998779297</ele>
        <time>2019-06-27T19:32:31.000Z</time>
      </trkpt>
      <trkpt lat="43.95173" lon="1.86682">
        <ele>947.79998779297</ele>
        <time>2019-06-27T19:32:32.000Z</time>
      </trkpt>
      <trkpt lat="43.95175" lon="1.86685">
        <ele>948</ele>
        <time>2019-06-27T19:32:33.000Z</time>
      </trkpt>
      <trkpt lat="43.95176" lon="1.86688">
        <ele>948</ele>
        <time>2019-06-27T19:32:34.000Z</time>
      </trkpt>
      <trkpt lat="43.95178" lon="1.86691">
        <ele>948</ele>
        <time>2019-06-27T19:32:35.000Z</time>
      </trkpt>
      <trkpt lat="43.9518" lon="1.86694">
        <ele>948</ele>
        <time>2019-06-27T19:32:36.000Z</time>
      </trkpt>
      <trkpt lat="43.95182" lon="1.86697">
        <ele>948.20001220703</ele>
        <time>2019-06-27T19:32:37.000Z</time>
      </trkpt>
      <trkpt lat="43.95184" lon="1.867">
        <ele>948.20001220703</ele>
        <time>2019-06-27T19:32:38.000Z</time>
      </trkpt>
      <trkpt lat="43.95186" lon="1.86703">
        <ele>948.20001220703</ele>
        <time>2019-06-27T19:32:39.000Z</time>
      </trkpt>
      <trkpt lat="43.95188" lon="1.86707">
        <ele>948.40002441406</ele>
        <time>2019-06-27T19:32:40.000Z</time>
      </trkpt>
      <trkpt lat="43.9519" lon="1.8671">
        <ele>948.20001220703</ele>
        <time>2019-06-27T19:32:41.000Z</time>
      </trkpt>
      <trkpt lat="43.95192" lon="1.86713">
        <ele>948.40002441406</ele>
        <time>2019-06-27T19:32:42.000Z</time>
      </trkpt>
      <trkpt lat="43.95194" lon="1.86716">
        <ele>948.59997558594</ele>
        <time>2019-06-27T19:32:43.000Z</time>
      </trkpt>
      <trkpt lat="43.95196" lon="1.86719">
        <ele>948.59997558594</ele>
        <time>2019-06-27T19:32:44.000Z</time>
      </trkpt>
      <trkpt lat="43.95198" lon="1.86722">
        <ele>948.59997558594</ele>
        <time>2019-06-27T19:32:45.000Z</time>
      </trkpt>
      <trkpt lat="43.95199" lon="1.86726">
        <ele>948.79998779297</ele>
        <time>2019-06-27T19:32:46.000Z</time>
      </trkpt>
      <trkpt lat="43.95201" lon="1.86729">
        <ele>948.79998779297</ele>
        <time>2019-06-27T19:32:47.000Z</time>
      </trkpt>
      <trkpt lat="43.95203" lon="1.86732">
        <ele>949</ele>
        <time>2019-06-27T19:32:48.000Z</time>
      </trkpt>
      <trkpt lat="43.95205" lon="1.86736">
        <ele>949</ele>
        <time>2019-06-27T19:32:49.000Z</time>
      </trkpt>
      <trkpt lat="43.95207" lon="1.86739">
        <ele>949</ele>
        <time>2019-06-27T19:32:50.000Z</time>
      </trkpt>
      <trkpt lat="43.9521" lon="1.86743">
        <ele>949</ele>
        <time>2019-06-27T19:32:51.000Z</time>
      </trkpt>
      <trkpt lat="43.95212" lon="1.86747">
        <ele>949.20001220703</ele>
        <time>2019-06-27T19:32:52.000Z</time>
      </trkpt>
      <trkpt lat="43.95213" lon="1.86751">
        <ele>949.20001220703</ele>
        <time>2019-06-27T19:32:53.000Z</time>
      </trkpt>
      <trkpt lat="43.95216" lon="1.86755">
        <ele>949.40002441406</ele>
        <time>2019-06-27T19:32:54.000Z</time>
      </trkpt>
      <trkpt lat="43.95218" lon="1.86759">
        <ele>949.40002441406</ele>
        <time>2019-06-27T19:32:55.000Z</time>
      </trkpt>
      <trkpt lat="43.9522" lon="1.86763">
        <ele>949.20001220703</ele>
        <time>2019-06-27T19:32:56.000Z</time>
      </trkpt>
      <trkpt lat="43.95222" lon="1.86766">
        <ele>949.20001220703</ele>
        <time>2019-06-27T19:32:57.000Z</time>
      </trkpt>
      <trkpt lat="43.95224" lon="1.86769">
        <ele>949.40002441406</ele>
        <time>2019-06-27T19:32:58.000Z</time>
      </trkpt>
      <trkpt lat="43.95225" lon="1.86773">
        <ele>949.40002441406</ele>
        <time>2019-06-27T19:32:59.000Z</time>
      </trkpt>
      <trkpt lat="43.95227" lon="1.86776">
        <ele>949.40002441406</ele>
        <time>2019-06-27T19:33:00.000Z</time>
      </trkpt>
      <trkpt lat="43.95228" lon="1.86779">
        <ele>949.40002441406</ele>
        <time>2019-06-27T19:33:01.000Z</time>
      </trkpt>
      <trkpt lat="43.9523" lon="1.86782">
        <ele>949.40002441406</ele>
        <time>2019-06-27T19:33:02.000Z</time>
      </trkpt>
      <trkpt lat="43.95231" lon="1.86785">
        <ele>949.59997558594</ele>
        <time>2019-06-27T19:33:03.000Z</time>
      </trkpt>
      <trkpt lat="43.95233" lon="1.86788">
        <ele>949.40002441406</ele>
        <time>2019-06-27T19:33:04.000Z</time>
      </trkpt>
      <trkpt lat="43.95234" lon="1.86792">
        <ele>949.40002441406</ele>
        <time>2019-06-27T19:33:05.000Z</time>
      </trkpt>
      <trkpt lat="43.95236" lon="1.86795">
        <ele>949.40002441406</ele>
        <time>2019-06-27T19:33:06.000Z</time>
      </trkpt>
      <trkpt lat="43.95238" lon="1.86798">
        <ele>949.40002441406</ele>
        <time>2019-06-27T19:33:07.000Z</time>
      </trkpt>
      <trkpt lat="43.95239" lon="1.86802">
        <ele>949.40002441406</ele>
        <time>2019-06-27T19:33:08.000Z</time>
      </trkpt>
      <trkpt lat="43.95241" lon="1.86805">
        <ele>949.59997558594</ele>
        <time>2019-06-27T19:33:09.000Z</time>
      </trkpt>
      <trkpt lat="43.95243" lon="1.86809">
        <ele>949.40002441406</ele>
        <time>2019-06-27T19:33:10.000Z</time>
      </trkpt>
      <trkpt lat="43.95244" lon="1.86812">
        <ele>949.40002441406</ele>
        <time>2019-06-27T19:33:11.000Z</time>
      </trkpt>
      <trkpt lat="43.95246" lon="1.86816">
        <ele>949.40002441406</ele>
        <time>2019-06-27T19:33:12.000Z</time>
      </trkpt>
      <trkpt lat="43.95248" lon="1.86819">
        <ele>949.59997558594</ele>
        <time>2019-06-27T19:33:13.000Z</time>
      </trkpt>
      <trkpt lat="43.95249" lon="1.86823">
        <ele>949.79998779297</ele>
        <time>2019-06-27T19:33:14.000Z</time>
      </trkpt>
      <trkpt lat="43.95251" lon="1.86826">
        <ele>949.79998779297</ele>
        <time>2019-06-27T19:33:15.000Z</time>
      </trkpt>
      <trkpt lat="43.95253" lon="1.8683">
        <ele>949.79998779297</ele>
        <time>2019-06-27T19:33:16.000Z</time>
      </trkpt>
      <trkpt lat="43.95254" lon="1.86833">
        <ele>949.79998779297</ele>
        <time>2019-06-27T19:33:17.000Z</time>
      </trkpt>
      <trkpt lat="43.95256" lon="1.86836">
        <ele>949.79998779297</ele>
        <time>2019-06-27T19:33:18.000Z</time>
      </trkpt>
      <trkpt lat="43.95258" lon="1.8684">
        <ele>949.79998779297</ele>
        <time>2019-06-27T19:33:19.000Z</time>
      </trkpt>
      <trkpt lat="43.9526" lon="1.86843">
        <ele>949.79998779297</ele>
        <time>2019-06-27T19:33:20.000Z</time>
      </trkpt>
      <trkpt lat="43.95261" lon="1.86847">
        <ele>950</ele>
        <time>2019-06-27T19:33:21.000Z</time>
      </trkpt>
      <trkpt lat="43.95263" lon="1.8685">
        <ele>949.79998779297</ele>
        <time>2019-06-27T19:33:22.000Z</time>
      </trkpt>
      <trkpt lat="43.95265" lon="1.86853">
        <ele>949.79998779297</ele>
        <time>2019-06-27T19:33:23.000Z</time>
      </trkpt>
      <trkpt lat="43.95267" lon="1.86856">
        <ele>949.79998779297</ele>
        <time>2019-06-27T19:33:24.000Z</time>
      </trkpt>
      <trkpt lat="43.95269" lon="1.8686">
        <ele>949.79998779297</ele>
        <time>2019-06-27T19:33:25.000Z</time>
      </trkpt>
      <trkpt lat="43.95271" lon="1.86864">
        <ele>949.79998779297</ele>
        <time>2019-06-27T19:33:26.000Z</time>
      </trkpt>
      <trkpt lat="43.95273" lon="1.86867">
        <ele>949.79998779297</ele>
        <time>2019-06-27T19:33:27.000Z</time>
      </trkpt>
      <trkpt lat="43.95275" lon="1.8687">
        <ele>950</ele>
        <time>2019-06-27T19:33:28.000Z</time>
      </trkpt>
      <trkpt lat="43.95277" lon="1.86874">
        <ele>950</ele>
        <time>2019-06-27T19:33:29.000Z</time>
      </trkpt>
      <trkpt lat="43.95279" lon="1.86877">
        <ele>950</ele>
        <time>2019-06-27T19:33:30.000Z</time>
      </trkpt>
      <trkpt lat="43.95281" lon="1.8688">
        <ele>950</ele>
        <time>2019-06-27T19:33:31.000Z</time>
      </trkpt>
      <trkpt lat="43.95283" lon="1.86883">
        <ele>950</ele>
        <time>2019-06-27T19:33:32.000Z</time>
      </trkpt>
      <trkpt lat="43.95285" lon="1.86887">
        <ele>950.20001220703</ele>
        <time>2019-06-27T19:33:33.000Z</time>
      </trkpt>
      <trkpt lat="43.95287" lon="1.8689">
        <ele>950.20001220703</ele>
        <time>2019-06-27T19:33:34.000Z</time>
      </trkpt>
      <trkpt lat="43.95289" lon="1.86893">
        <ele>950.20001220703</ele>
        <time>2019-06-27T19:33:35.000Z</time>
      </trkpt>
      <trkpt lat="43.95291" lon="1.86896">
        <ele>950.20001220703</ele>
        <time>2019-06-27T19:33:36.000Z</time>
      </trkpt>
      <trkpt lat="43.95293" lon="1.86898">
        <ele>950.40002441406</ele>
        <time>2019-06-27T19:33:37.000Z</time>
      </trkpt>
      <trkpt lat="43.95295" lon="1.86901">
        <ele>950.59997558594</ele>
        <time>2019-06-27T19:33:38.000Z</time>
      </trkpt>
      <trkpt lat="43.95297" lon="1.86904">
        <ele>950.59997558594</ele>
        <time>2019-06-27T19:33:39.000Z</time>
      </trkpt>
      <trkpt lat="43.953" lon="1.86907">
        <ele>950.59997558594</ele>
        <time>2019-06-27T19:33:40.000Z</time>
      </trkpt>
      <trkpt lat="43.95302" lon="1.86909">
        <ele>950.59997558594</ele>
        <time>2019-06-27T19:33:41.000Z</time>
      </trkpt>
      <trkpt lat="43.95303" lon="1.86911">
        <ele>950.59997558594</ele>
        <time>2019-06-27T19:33:42.000Z</time>
      </trkpt>
      <trkpt lat="43.95305" lon="1.86911">
        <ele>950.59997558594</ele>
        <time>2019-06-27T19:33:43.000Z</time>
      </trkpt>
      <trkpt lat="43.95307" lon="1.8691">
        <ele>950.59997558594</ele>
        <time>2019-06-27T19:33:44.000Z</time>
      </trkpt>
      <trkpt lat="43.95308" lon="1.86907">
        <ele>950.59997558594</ele>
        <time>2019-06-27T19:33:45.000Z</time>
      </trkpt>
      <trkpt lat="43.95309" lon="1.86905">
        <ele>950.59997558594</ele>
        <time>2019-06-27T19:33:46.000Z</time>
      </trkpt>
      <trkpt lat="43.9531" lon="1.86902">
        <ele>950.59997558594</ele>
        <time>2019-06-27T19:33:47.000Z</time>
      </trkpt>
      <trkpt lat="43.9531" lon="1.86899">
        <ele>950.79998779297</ele>
        <time>2019-06-27T19:33:48.000Z</time>
      </trkpt>
      <trkpt lat="43.95309" lon="1.86896">
        <ele>950.79998779297</ele>
        <time>2019-06-27T19:33:49.000Z</time>
      </trkpt>
      <trkpt lat="43.95309" lon="1.86893">
        <ele>950.79998779297</ele>
        <time>2019-06-27T19:33:50.000Z</time>
      </trkpt>
      <trkpt lat="43.95309" lon="1.8689">
        <ele>950.79998779297</ele>
        <time>2019-06-27T19:33:51.000Z</time>
      </trkpt>
      <trkpt lat="43.95309" lon="1.86887">
        <ele>950.79998779297</ele>
        <time>2019-06-27T19:33:52.000Z</time>
      </trkpt>
      <trkpt lat="43.9531" lon="1.86883">
        <ele>950.79998779297</ele>
        <time>2019-06-27T19:33:53.000Z</time>
      </trkpt>
      <trkpt lat="43.95311" lon="1.86879">
        <ele>950.59997558594</ele>
        <time>2019-06-27T19:33:54.000Z</time>
      </trkpt>
      <trkpt lat="43.95312" lon="1.86876">
        <ele>950.59997558594</ele>
        <time>2019-06-27T19:33:55.000Z</time>
      </trkpt>
      <trkpt lat="43.95313" lon="1.86872">
        <ele>950.40002441406</ele>
        <time>2019-06-27T19:33:56.000Z</time>
      </trkpt>
      <trkpt lat="43.95315" lon="1.86868">
        <ele>950.40002441406</ele>
        <time>2019-06-27T19:33:57.000Z</time>
      </trkpt>
      <trkpt lat="43.95317" lon="1.86864">
        <ele>950</ele>
        <time>2019-06-27T19:33:58.000Z</time>
      </trkpt>
      <trkpt lat="43.95319" lon="1.86861">
        <ele>950</ele>
        <time>2019-06-27T19:33:59.000Z</time>
      </trkpt>
      <trkpt lat="43.95321" lon="1.86858">
        <ele>949.79998779297</ele>
        <time>2019-06-27T19:34:00.000Z</time>
      </trkpt>
      <trkpt lat="43.95323" lon="1.86855">
        <ele>949.79998779297</ele>
        <time>2019-06-27T19:34:01.000Z</time>
      </trkpt>
      <trkpt lat="43.95325" lon="1.86854">
        <ele>949.59997558594</ele>
        <time>2019-06-27T19:34:02.000Z</time>
      </trkpt>
      <trkpt lat="43.95326" lon="1.86853">
        <ele>949.59997558594</ele>
        <time>2019-06-27T19:34:03.000Z</time>
      </trkpt>
      <trkpt lat="43.95326" lon="1.86853">
        <ele>949.59997558594</ele>
        <time>2019-06-27T19:34:04.000Z</time>
      </trkpt>
      <trkpt lat="43.95327" lon="1.86852">
        <ele>949.59997558594</ele>
        <time>2019-06-27T19:34:05.000Z</time>
      </trkpt>
      <trkpt lat="43.95327" lon="1.86851">
        <ele>949.40002441406</ele>
        <time>2019-06-27T19:34:06.000Z</time>
      </trkpt>
      <trkpt lat="43.95328" lon="1.86851">
        <ele>949.40002441406</ele>
        <time>2019-06-27T19:34:07.000Z</time>
      </trkpt>
    </trkseg>
  </trk>
</gpx>